
Distance (Route):
Temperature : 20.3°C
Humidity : 64.5%
Pressure : 959.0hPa| Receiver | Frames | First received | Last received |
|---|---|---|---|
| DO3MHA-11 | 607 | 2026-08-31 04:52:13 | 2026-08-31 07:14:58 |
| BAUMI2-15 | 301 | 2026-08-31 05:20:56 | 2026-08-31 06:58:44 |
| OE5MMP-10 | 251 | 2026-08-31 05:23:28 | 2026-08-31 07:07:45 |
| OM5KV | 191 | 2026-08-31 05:39:17 | 2026-08-31 06:26:49 |
| OE5DXL-15 | 184 | 2026-08-31 04:55:25 | 2026-08-31 07:16:35 |
| OE5DRO-10 | 180 | 2026-08-31 05:04:17 | 2026-08-31 07:13:03 |
| OE5WHR-10 | 167 | 2026-08-31 05:19:29 | 2026-08-31 07:12:27 |
| DL6DJ-15 | 129 | 2026-08-31 05:02:08 | 2026-08-31 07:06:57 |
| DM0DOS-11 | 120 | 2026-08-31 05:57:14 | 2026-08-31 06:49:07 |
| NBG1-10 | 110 | 2026-08-31 05:00:46 | 2026-08-31 07:08:26 |
| PG1ADW-2 | 94 | 2026-08-31 05:26:39 | 2026-08-31 07:07:36 |
| DB0UT-7 | 93 | 2026-08-31 05:09:23 | 2026-08-31 07:00:26 |
| DB0NH | 88 | 2026-08-31 05:00:30 | 2026-08-31 06:46:20 |
| BIOWL1-15 | 76 | 2026-08-31 05:46:50 | 2026-08-31 06:37:59 |
| HSKMA3-T | 74 | 2026-08-31 06:26:52 | 2026-08-31 06:43:25 |
| DK5PH-5 | 65 | 2026-08-31 05:34:02 | 2026-08-31 06:52:26 |
| DG1MFX-10 | 58 | 2026-08-31 06:07:19 | 2026-08-31 07:13:32 |
| DF3TZ-5 | 54 | 2026-08-31 05:06:51 | 2026-08-31 06:43:37 |
| OE5GOL-10 | 48 | 2026-08-31 05:41:41 | 2026-08-31 06:19:11 |
| DF7PN | 43 | 2026-08-31 05:18:16 | 2026-08-31 06:47:19 |
| OE3JTB-15 | 43 | 2026-08-31 05:48:26 | 2026-08-31 07:14:33 |
| DG1MJG | 40 | 2026-08-31 05:34:01 | 2026-08-31 07:01:18 |
| OE5FHM-15 | 37 | 2026-08-31 05:35:20 | 2026-08-31 07:04:27 |
| S52SK | 37 | 2026-08-31 05:40:52 | 2026-08-31 06:03:16 |
| SONDE2-11 | 34 | 2026-08-31 05:55:38 | 2026-08-31 06:47:54 |
| EDDB2-11 | 31 | 2026-08-31 06:05:52 | 2026-08-31 06:45:42 |
| DL1ZP-14 | 30 | 2026-08-31 05:52:05 | 2026-08-31 06:48:00 |
| DO7DH-14 | 30 | 2026-08-31 06:58:25 | 2026-08-31 07:14:56 |
| OE5HKT-10 | 29 | 2026-08-31 05:30:29 | 2026-08-31 06:47:13 |
| OE8JPQ-2 | 29 | 2026-08-31 05:49:42 | 2026-08-31 06:42:21 |
| EDDB2-12 | 19 | 2026-08-31 06:08:09 | 2026-08-31 06:47:59 |
| DO8TBO-1 | 15 | 2026-08-31 05:23:47 | 2026-08-31 05:40:27 |
| SONCRA | 11 | 2026-08-31 06:26:18 | 2026-08-31 06:43:54 |
| DB0ND-19 | 10 | 2026-08-31 05:30:14 | 2026-08-31 06:24:32 |
| OE5REO-15 | 6 | 2026-08-31 05:58:17 | 2026-08-31 06:42:51 |
| OE9MKV-15 | 5 | 2026-08-31 06:19:38 | 2026-08-31 06:41:22 |
| BIOWL9-15 | 4 | 2026-08-31 05:58:49 | 2026-08-31 06:16:55 |
| IW2NTF | 4 | 2026-08-31 06:31:22 | 2026-08-31 06:32:19 |
| DC4HF-4 | 3 | 2026-08-31 06:25:51 | 2026-08-31 06:40:17 |
| DL1XH-west | 3 | 2026-08-31 06:40:13 | 2026-08-31 06:40:46 |
| DN1GJH-1 | 2 | 2026-08-31 05:44:15 | 2026-08-31 05:45:00 |
| SP3BTT-10 | 2 | 2026-08-31 06:17:31 | 2026-08-31 06:18:03 |
| DK7TD | 1 | 2026-08-31 05:58:24 | 2026-08-31 05:58:24 |
| IN3HCDX | 1 | 2026-08-31 06:31:27 | 2026-08-31 06:31:27 |
| Receiver | Date | Latitude | Longitude | Direction | Speed | Altitude | Climb | Temperature | Humidity | Pressure | Voltage | Killtimer | Uptime | BKT | XDATA |
|---|---|---|---|---|---|---|---|---|---|---|---|---|---|---|---|
| OE5DXL-15 | 2026-08-31 07:16:35 | 48.19573 | 12.71664 | 52° | 18km/h | 536m | -5.8m/s | 20.3°C | 64.5% | 959.0hPa | 2.7V | 00:00:00 | 00:00:00 | 00:00:00 | |
| OE5DXL-15 | 2026-08-31 07:16:33 | 48.19568 | 12.71651 | 62° | 26km/h | 547m | -6.3m/s | 20.0°C | 65.0% | 957.6hPa | 2.7V | 00:00:00 | 00:00:00 | 00:00:00 | |
| OE5DXL-15 | 2026-08-31 07:16:31 | 48.19561 | 12.71633 | 67° | 27km/h | 561m | -7.2m/s | 19.6°C | 65.9% | 956.1hPa | 2.7V | 00:00:00 | 00:00:00 | 00:00:00 | |
| OE5DXL-15 | 2026-08-31 07:16:29 | 48.19556 | 12.71614 | 66° | 26km/h | 575m | -8.1m/s | 19.4°C | 65.9% | 954.4hPa | 2.7V | 00:00:00 | 00:00:00 | 00:00:00 | |
| OE5DXL-15 | 2026-08-31 07:16:27 | 48.19552 | 12.71595 | 76° | 31km/h | 591m | -8.6m/s | 19.2°C | 66.8% | 952.9hPa | 2.7V | 07:55:00 | 00:00:00 | 00:00:00 | |
| OE5DXL-15 | 2026-08-31 07:16:25 | 48.19550 | 12.71571 | 96° | 31km/h | 609m | -9.0m/s | 19.2°C | 66.2% | 951.0hPa | 2.7V | 00:00:00 | 00:00:00 | 00:00:00 | |
| OE5DXL-15 | 2026-08-31 07:16:23 | 48.19553 | 12.71550 | 110° | 22km/h | 627m | -9.1m/s | 19.0°C | 66.3% | 948.9hPa | 2.7V | 00:00:00 | 00:00:00 | 00:00:00 | |
| OE5DXL-15 | 2026-08-31 07:16:21 | 48.19555 | 12.71535 | 83° | 18km/h | 645m | -8.8m/s | 18.9°C | 66.7% | 947.1hPa | 2.7V | 00:00:00 | 00:00:00 | 00:00:00 | |
| OE5DXL-15 | 2026-08-31 07:16:19 | 48.19553 | 12.71520 | 70° | 31km/h | 663m | -8.5m/s | 18.7°C | 67.6% | 945.2hPa | 2.7V | 00:00:00 | 00:00:00 | 00:00:00 | |
| OE5DXL-15 | 2026-08-31 07:16:14 | 48.19551 | 12.71462 | 100° | 24km/h | 705m | -8.1m/s | 18.2°C | 69.5% | 940.5hPa | 2.7V | 00:00:00 | 00:00:00 | 00:00:00 | |
| OE5DXL-15 | 2026-08-31 07:16:08 | 48.19542 | 12.71408 | 80° | 37km/h | 754m | -8.0m/s | 17.8°C | 71.2% | 935.0hPa | 2.7V | 00:00:00 | 00:00:00 | 00:00:00 | |
| OE5DXL-15 | 2026-08-31 07:16:02 | 48.19544 | 12.71327 | 104° | 27km/h | 801m | -8.1m/s | 17.5°C | 70.4% | 929.8hPa | 2.7V | 00:00:00 | 00:00:00 | 00:00:00 | |
| OE5DXL-15 | 2026-08-31 07:15:56 | 48.19537 | 12.71266 | 76° | 40km/h | 847m | -7.8m/s | 17.1°C | 71.9% | 924.8hPa | 2.7V | 07:56:00 | 00:00:00 | 00:00:00 | |
| OE5DXL-15 | 2026-08-31 07:15:50 | 48.19545 | 12.71177 | 109° | 31km/h | 894m | -7.4m/s | 16.6°C | 74.4% | 919.7hPa | 2.7V | 00:00:00 | 00:00:00 | 00:00:00 | |
| OE5DXL-15 | 2026-08-31 07:15:44 | 48.19546 | 12.71106 | 88° | 38km/h | 938m | -7.5m/s | 16.2°C | 76.6% | 914.9hPa | 2.7V | 00:00:00 | 00:00:00 | 00:00:00 | |
| OE5DXL-15 | 2026-08-31 07:15:38 | 48.19556 | 12.71022 | 94° | 40km/h | 981m | -6.9m/s | 15.9°C | 76.6% | 910.6hPa | 2.6V | 00:00:00 | 00:00:00 | 00:00:00 | |
| OE5DXL-15 | 2026-08-31 07:15:32 | 48.19553 | 12.70928 | 95° | 46km/h | 1023m | -6.1m/s | 15.6°C | 76.9% | 905.6hPa | 2.6V | 00:00:00 | 00:00:00 | 00:00:00 | |
| OE5DXL-15 | 2026-08-31 07:15:26 | 48.19565 | 12.70830 | 98° | 47km/h | 1064m | -7.4m/s | 15.2°C | 78.1% | 901.4hPa | 2.6V | 00:00:00 | 00:00:00 | 00:00:00 | |
| OE5DXL-15 | 2026-08-31 07:15:20 | 48.19566 | 12.70719 | 102° | 49km/h | 1107m | -6.7m/s | 14.9°C | 78.1% | 897.1hPa | 2.6V | 00:00:00 | 00:00:00 | 00:00:00 | |
| OE5DXL-15 | 2026-08-31 07:15:14 | 48.19587 | 12.70614 | 95° | 49km/h | 1147m | -6.3m/s | 14.6°C | 78.9% | 892.7hPa | 2.6V | 00:00:00 | 00:00:00 | 00:00:00 | |
| OE5DXL-15 | 2026-08-31 07:15:08 | 48.19593 | 12.70502 | 107° | 47km/h | 1185m | -6.4m/s | 14.5°C | 78.5% | 888.6hPa | 2.6V | 07:56:00 | 00:00:00 | 00:00:00 | |
| OE5DXL-15 | 2026-08-31 07:15:02 | 48.19608 | 12.70397 | 89° | 53km/h | 1225m | -7.2m/s | 14.7°C | 74.3% | 884.3hPa | 2.6V | 00:00:00 | 00:00:00 | 00:00:00 | |
| DO3MHA-11 | 2026-08-31 07:14:58 | 48.19614 | 12.70314 | 103° | 49km/h | 1254m | -7.4m/s | 14.8°C | 72.6% | 881.4hPa | 2.6V | 00:00:00 | 03:23:03 | 00:00:00 | |
| DO7DH-14 | 2026-08-31 07:14:56 | 48.19619 | 12.70279 | 102° | 53km/h | 1268m | -7.7m/s | 15.0°C | 70.5% | 879.8hPa | 2.6V | 07:57:00 | 03:23:01 | 00:00:00 | |
| DO3MHA-11 | 2026-08-31 07:14:56 | 48.19619 | 12.70279 | 102° | 42km/h | 1268m | -7.7m/s | 15.0°C | 70.5% | 879.8hPa | 2.6V | 07:57:00 | 03:23:01 | 00:00:00 | |
| OE5DXL-15 | 2026-08-31 07:14:56 | 48.19619 | 12.70279 | 102° | 46km/h | 1268m | -7.7m/s | 15.0°C | 70.5% | 879.8hPa | 2.6V | 00:00:00 | 00:00:00 | 00:00:00 | |
| DO3MHA-11 | 2026-08-31 07:14:54 | 48.19621 | 12.70248 | 86° | 42km/h | 1284m | -8.0m/s | 15.0°C | 67.8% | 878.3hPa | 2.6V | 00:00:00 | 03:22:59 | 00:00:00 | |
| DO3MHA-11 | 2026-08-31 07:14:52 | 48.19618 | 12.70214 | 81° | 53km/h | 1300m | -7.2m/s | 14.9°C | 67.9% | 876.9hPa | 2.6V | 00:00:00 | 03:22:57 | 00:00:00 | |
| OE5DXL-15 | 2026-08-31 07:14:50 | 48.19615 | 12.70173 | 87° | 57km/h | 1314m | -6.9m/s | 14.8°C | 68.0% | 875.5hPa | 2.6V | 00:00:00 | 00:00:00 | 00:00:00 | |
| DO3MHA-11 | 2026-08-31 07:14:50 | 48.19615 | 12.70173 | 87° | 62km/h | 1314m | -6.9m/s | 14.8°C | 68.0% | 875.5hPa | 2.6V | 00:00:00 | 03:22:55 | 00:00:00 | |
| DO3MHA-11 | 2026-08-31 07:14:48 | 48.19616 | 12.70127 | 98° | 58km/h | 1329m | -7.0m/s | 14.7°C | 69.6% | 874.3hPa | 2.6V | 00:00:00 | 03:22:53 | 00:00:00 | |
| DO7DH-14 | 2026-08-31 07:14:46 | 48.19621 | 12.70084 | 103° | 55km/h | 1343m | -6.4m/s | 14.6°C | 71.4% | 872.7hPa | 2.6V | 00:00:00 | 03:22:51 | 00:00:00 | |
| DO3MHA-11 | 2026-08-31 07:14:46 | 48.19621 | 12.70084 | 103° | 49km/h | 1343m | -6.4m/s | 14.6°C | 71.4% | 872.7hPa | 2.6V | 00:00:00 | 03:22:51 | 00:00:00 | |
| OE5DXL-15 | 2026-08-31 07:14:44 | 48.19626 | 12.70049 | 98° | 47km/h | 1356m | -6.2m/s | 14.6°C | 69.8% | 871.4hPa | 2.6V | 00:00:00 | 00:00:00 | 00:00:00 | |
| DO3MHA-11 | 2026-08-31 07:14:44 | 48.19626 | 12.70049 | 98° | 40km/h | 1356m | -6.2m/s | 14.6°C | 69.8% | 871.4hPa | 2.6V | 00:00:00 | 03:22:49 | 00:00:00 | |
| DO3MHA-11 | 2026-08-31 07:14:42 | 48.19626 | 12.70017 | 84° | 47km/h | 1369m | -6.5m/s | 14.5°C | 69.3% | 869.8hPa | 2.6V | 00:00:00 | 03:22:47 | 00:00:00 | |
| DO3MHA-11 | 2026-08-31 07:14:40 | 48.19623 | 12.69980 | 83° | 57km/h | 1383m | -7.4m/s | 14.5°C | 67.7% | 868.5hPa | 2.6V | 07:57:00 | 03:22:45 | 00:00:00 | |
| OE5DXL-15 | 2026-08-31 07:14:38 | 48.19621 | 12.69937 | 92° | 51km/h | 1397m | -6.8m/s | 14.4°C | 66.8% | 867.2hPa | 2.6V | 00:00:00 | 00:00:00 | 00:00:00 | |
| DO3MHA-11 | 2026-08-31 07:14:38 | 48.19621 | 12.69937 | 92° | 55km/h | 1397m | -6.8m/s | 14.4°C | 66.8% | 867.2hPa | 2.6V | 00:00:00 | 03:22:43 | 00:00:00 | |
| DO3MHA-11 | 2026-08-31 07:14:36 | 48.19623 | 12.69896 | 98° | 49km/h | 1412m | -7.3m/s | 14.3°C | 67.3% | 865.7hPa | 2.6V | 00:00:00 | 03:22:41 | 00:00:00 | |
| DO3MHA-11 | 2026-08-31 07:14:34 | 48.19626 | 12.69860 | 95° | 46km/h | 1426m | -6.6m/s | 14.2°C | 67.6% | 864.0hPa | 2.7V | 00:00:00 | 03:22:39 | 00:00:00 | |
| OE3JTB-15 | 2026-08-31 07:14:33 | 48.19626 | 12.69842 | 86° | 47km/h | 1433m | -6.7m/s | 14.2°C | 67.4% | 863.2hPa | 2.7V | 00:00:00 | 00:00:00 | 00:00:00 | |
| OE5DXL-15 | 2026-08-31 07:14:32 | 48.19625 | 12.69824 | 81° | 58km/h | 1440m | -6.9m/s | 14.4°C | 64.0% | 862.4hPa | 2.6V | 00:00:00 | 00:00:00 | 00:00:00 | |
| DO3MHA-11 | 2026-08-31 07:14:32 | 48.19625 | 12.69824 | 81° | 55km/h | 1440m | -6.9m/s | 14.4°C | 64.0% | 862.4hPa | 2.6V | 00:00:00 | 03:22:37 | 00:00:00 | |
| DO3MHA-11 | 2026-08-31 07:14:30 | 48.19622 | 12.69781 | 87° | 62km/h | 1453m | -6.9m/s | 14.3°C | 61.4% | 861.2hPa | 2.6V | 00:00:00 | 03:22:35 | 00:00:00 | |
| DO7DH-14 | 2026-08-31 07:14:29 | 48.19621 | 12.69758 | 92° | 53km/h | 1461m | -7.1m/s | 14.3°C | 61.0% | 860.5hPa | 2.6V | 00:00:00 | 03:22:34 | 00:00:00 | |
| DO3MHA-11 | 2026-08-31 07:14:28 | 48.19622 | 12.69734 | 96° | 57km/h | 1468m | -7.2m/s | 14.2°C | 61.3% | 859.9hPa | 2.6V | 00:00:00 | 03:22:33 | 00:00:00 | |
| OE5DXL-15 | 2026-08-31 07:14:26 | 48.19625 | 12.69693 | 97° | 53km/h | 1482m | -7.0m/s | 14.1°C | 60.7% | 858.3hPa | 2.6V | 00:00:00 | 00:00:00 | 00:00:00 | |
| DO3MHA-11 | 2026-08-31 07:14:26 | 48.19625 | 12.69693 | 97° | 47km/h | 1482m | -7.0m/s | 14.1°C | 60.7% | 858.3hPa | 2.6V | 00:00:00 | 03:22:31 | 00:00:00 | |
| OE3JTB-15 | 2026-08-31 07:14:25 | 48.19627 | 12.69675 | 95° | 46km/h | 1490m | -7.4m/s | 14.1°C | 61.0% | 857.6hPa | 2.6V | 07:57:00 | 00:00:00 | 00:00:00 | |
| DO3MHA-11 | 2026-08-31 07:14:24 | 48.19627 | 12.69658 | 90° | 47km/h | 1497m | -7.4m/s | 14.0°C | 60.5% | 856.8hPa | 2.6V | 07:57:00 | 03:22:29 | 00:00:00 | |
| OE3JTB-15 | 2026-08-31 07:14:23 | 48.19627 | 12.69641 | 85° | 46km/h | 1504m | -7.1m/s | 14.0°C | 60.5% | 855.9hPa | 2.6V | 00:00:00 | 03:22:28 | 00:00:00 | |
| OE3JTB-15 | 2026-08-31 07:14:20 | 48.19622 | 12.69584 | 83° | 58km/h | 1526m | -6.5m/s | 13.8°C | 60.5% | 853.8hPa | 2.6V | 00:00:00 | 00:00:00 | 00:00:00 | |
| DO3MHA-11 | 2026-08-31 07:14:20 | 48.19622 | 12.69584 | 83° | 60km/h | 1526m | -6.5m/s | 13.8°C | 60.5% | 853.8hPa | 2.6V | 00:00:00 | 03:22:25 | 00:00:00 | |
| DO7DH-14 | 2026-08-31 07:14:19 | 48.19620 | 12.69562 | 86° | 58km/h | 1533m | -6.8m/s | 13.8°C | 59.6% | 853.1hPa | 2.6V | 00:00:00 | 03:22:24 | 00:00:00 | |
| OE3JTB-15 | 2026-08-31 07:14:18 | 48.19619 | 12.69538 | 90° | 64km/h | 1539m | -6.8m/s | 13.7°C | 60.8% | 852.3hPa | 2.6V | 00:00:00 | 00:00:00 | 00:00:00 | |
| OE5DXL-15 | 2026-08-31 07:14:17 | 48.19620 | 12.69514 | 94° | 62km/h | 1546m | -6.7m/s | 13.6°C | 60.2% | 851.6hPa | 2.6V | 07:57:00 | 00:00:00 | 00:00:00 | |
| OE3JTB-15 | 2026-08-31 07:14:16 | 48.19621 | 12.69491 | 96° | 58km/h | 1553m | -6.8m/s | 13.6°C | 59.9% | 850.9hPa | 2.6V | 00:00:00 | 03:22:21 | 00:00:00 | |
| DO3MHA-11 | 2026-08-31 07:14:15 | 48.19623 | 12.69469 | 99° | 55km/h | 1560m | -6.9m/s | 13.5°C | 60.0% | 850.2hPa | 2.6V | 00:00:00 | 03:22:20 | 00:00:00 | |
| OE3JTB-15 | 2026-08-31 07:14:14 | 48.19625 | 12.69449 | 98° | 51km/h | 1567m | -7.1m/s | 13.5°C | 59.9% | 849.5hPa | 2.6V | 00:00:00 | 00:00:00 | 00:00:00 | |
| OE3JTB-15 | 2026-08-31 07:14:12 | 48.19627 | 12.69410 | 89° | 55km/h | 1581m | -6.7m/s | 13.5°C | 59.3% | 848.2hPa | 2.6V | 00:00:00 | 00:00:00 | 00:00:00 | |
| OE3JTB-15 | 2026-08-31 07:14:10 | 48.19625 | 12.69367 | 84° | 62km/h | 1594m | -6.9m/s | 13.4°C | 58.4% | 846.7hPa | 2.6V | 00:00:00 | 03:22:15 | 00:00:00 | |
| DO3MHA-11 | 2026-08-31 07:14:10 | 48.19625 | 12.69367 | 84° | 64km/h | 1594m | -6.9m/s | 13.4°C | 58.4% | 846.7hPa | 2.6V | 00:00:00 | 03:22:15 | 00:00:00 | |
| OE3JTB-15 | 2026-08-31 07:14:08 | 48.19623 | 12.69319 | 91° | 64km/h | 1608m | -7.2m/s | 13.3°C | 58.0% | 845.4hPa | 2.6V | 07:57:00 | 00:00:00 | 00:00:00 | |
| OE3JTB-15 | 2026-08-31 07:14:06 | 48.19624 | 12.69271 | 94° | 60km/h | 1622m | -7.2m/s | 13.2°C | 57.6% | 844.1hPa | 2.5V | 00:00:00 | 00:00:00 | 00:00:00 | |
| DO3MHA-11 | 2026-08-31 07:14:05 | 48.19625 | 12.69248 | 96° | 60km/h | 1629m | -6.9m/s | 13.3°C | 56.8% | 843.3hPa | 2.5V | 00:00:00 | 03:22:10 | 00:00:00 | |
| OE3JTB-15 | 2026-08-31 07:14:04 | 48.19626 | 12.69226 | 90° | 55km/h | 1636m | -6.7m/s | 13.3°C | 54.6% | 842.6hPa | 2.5V | 00:00:00 | 03:22:09 | 00:00:00 | |
| OE3JTB-15 | 2026-08-31 07:14:02 | 48.19623 | 12.69184 | 81° | 64km/h | 1650m | -7.0m/s | 13.2°C | 54.8% | 841.5hPa | 2.5V | 00:00:00 | 00:00:00 | 00:00:00 | |
| DO7DH-14 | 2026-08-31 07:14:01 | 48.19621 | 12.69160 | 80° | 66km/h | 1657m | -7.5m/s | 13.1°C | 55.3% | 840.5hPa | 2.6V | 00:00:00 | 03:22:06 | 00:00:00 | |
| OE3JTB-15 | 2026-08-31 07:14:00 | 48.19618 | 12.69133 | 82° | 73km/h | 1665m | -7.0m/s | 13.0°C | 56.0% | 840.2hPa | 2.6V | 00:00:00 | 00:00:00 | 00:00:00 | |
| DO3MHA-11 | 2026-08-31 07:14:00 | 48.19618 | 12.69133 | 82° | 73km/h | 1665m | -7.0m/s | 13.0°C | 56.0% | 840.2hPa | 2.6V | 00:00:00 | 03:22:05 | 00:00:00 | |
| OE3JTB-15 | 2026-08-31 07:13:58 | 48.19614 | 12.69077 | 88° | 75km/h | 1679m | -7.4m/s | 13.0°C | 54.9% | 838.2hPa | 2.6V | 00:00:00 | 03:22:03 | 00:00:00 | |
| OE5DXL-15 | 2026-08-31 07:13:57 | 48.19614 | 12.69049 | 90° | 68km/h | 1686m | -7.4m/s | 13.0°C | 55.7% | 837.6hPa | 2.6V | 00:00:00 | 00:00:00 | 00:00:00 | |
| OE3JTB-15 | 2026-08-31 07:13:56 | 48.19614 | 12.69022 | 93° | 69km/h | 1693m | -6.5m/s | 12.9°C | 56.0% | 836.9hPa | 2.6V | 00:00:00 | 00:00:00 | 00:00:00 | |
| DO3MHA-11 | 2026-08-31 07:13:55 | 48.19615 | 12.68996 | 93° | 64km/h | 1700m | -6.6m/s | 12.9°C | 56.0% | 836.2hPa | 2.6V | 00:00:00 | 03:22:00 | 00:00:00 | |
| OE3JTB-15 | 2026-08-31 07:13:52 | 48.19616 | 12.68924 | 89° | 62km/h | 1720m | -6.9m/s | 12.7°C | 56.1% | 834.1hPa | 2.6V | 07:58:00 | 03:21:57 | 00:00:00 | |
| OE3JTB-15 | 2026-08-31 07:13:50 | 48.19614 | 12.68877 | 87° | 64km/h | 1734m | -7.2m/s | 12.6°C | 59.5% | 832.6hPa | 2.6V | 00:00:00 | 00:00:00 | 00:00:00 | |
| DO3MHA-11 | 2026-08-31 07:13:50 | 48.19614 | 12.68877 | 87° | 66km/h | 1734m | -7.2m/s | 12.6°C | 59.5% | 832.6hPa | 2.6V | 00:00:00 | 03:21:55 | 00:00:00 | |
| OE3JTB-15 | 2026-08-31 07:13:48 | 48.19611 | 12.68829 | 84° | 68km/h | 1748m | -6.9m/s | 12.5°C | 60.3% | 831.2hPa | 2.6V | 00:00:00 | 00:00:00 | 00:00:00 | |
| DO7DH-14 | 2026-08-31 07:13:48 | 48.19611 | 12.68829 | 84° | 73km/h | 1748m | -6.9m/s | 12.5°C | 60.3% | 831.2hPa | 2.6V | 00:00:00 | 03:21:53 | 00:00:00 | |
| OE3JTB-15 | 2026-08-31 07:13:46 | 48.19606 | 12.68777 | 84° | 71km/h | 1761m | -7.4m/s | 12.3°C | 60.6% | 829.8hPa | 2.6V | 00:00:00 | 03:21:51 | 00:00:00 | |
| DO3MHA-11 | 2026-08-31 07:13:45 | 48.19604 | 12.68750 | 84° | 71km/h | 1768m | -7.2m/s | 12.2°C | 61.2% | 829.0hPa | 2.6V | 07:58:00 | 03:21:50 | 00:00:00 | |
| OE3JTB-15 | 2026-08-31 07:13:44 | 48.19602 | 12.68723 | 84° | 73km/h | 1775m | -7.4m/s | 12.2°C | 61.9% | 828.3hPa | 2.6V | 00:00:00 | 00:00:00 | 00:00:00 | |
| OE3JTB-15 | 2026-08-31 07:13:42 | 48.19599 | 12.68669 | 87° | 71km/h | 1789m | -7.5m/s | 12.0°C | 62.2% | 827.0hPa | 2.6V | 00:00:00 | 00:00:00 | 00:00:00 | |
| OE3JTB-15 | 2026-08-31 07:13:40 | 48.19598 | 12.68616 | 89° | 68km/h | 1804m | -7.1m/s | 11.9°C | 62.5% | 825.5hPa | 2.6V | 00:00:00 | 03:21:45 | 00:00:00 | |
| DO3MHA-11 | 2026-08-31 07:13:40 | 48.19598 | 12.68616 | 89° | 68km/h | 1804m | -7.1m/s | 11.9°C | 62.5% | 825.5hPa | 2.6V | 00:00:00 | 03:21:45 | 00:00:00 | |
| OE3JTB-15 | 2026-08-31 07:13:38 | 48.19596 | 12.68565 | 86° | 68km/h | 1818m | -7.3m/s | 11.7°C | 63.7% | 824.2hPa | 2.6V | 00:00:00 | 00:00:00 | 00:00:00 | |
| OE5DXL-15 | 2026-08-31 07:13:37 | 48.19595 | 12.68539 | 84° | 73km/h | 1825m | -7.6m/s | 11.7°C | 64.3% | 823.3hPa | 2.6V | 00:00:00 | 00:00:00 | 00:00:00 | |
| OE3JTB-15 | 2026-08-31 07:13:36 | 48.19592 | 12.68513 | 83° | 71km/h | 1832m | -7.5m/s | 11.6°C | 64.2% | 822.8hPa | 2.6V | 07:58:00 | 00:00:00 | 00:00:00 | |
| DO3MHA-11 | 2026-08-31 07:13:35 | 48.19590 | 12.68486 | 83° | 75km/h | 1840m | -7.2m/s | 11.6°C | 64.5% | 822.0hPa | 2.6V | 00:00:00 | 03:21:40 | 00:00:00 | |
| OE3JTB-15 | 2026-08-31 07:13:34 | 48.19588 | 12.68459 | 84° | 75km/h | 1847m | -7.3m/s | 11.5°C | 64.7% | 821.0hPa | 2.6V | 00:00:00 | 03:21:39 | 00:00:00 | |
| DG1MFX-10 | 2026-08-31 07:13:32 | 48.19586 | 12.68430 | 84° | 77km/h | 1853m | -7.6m/s | 11.5°C | 66.1% | 820.5hPa | 2.6V | 00:00:00 | 00:00:00 | 00:00:00 | |
| OE3JTB-15 | 2026-08-31 07:13:32 | 48.19584 | 12.68401 | 87° | 77km/h | 1860m | -8.0m/s | 11.3°C | 65.4% | 819.7hPa | 2.6V | 00:00:00 | 00:00:00 | 00:00:00 | |
| OE3JTB-15 | 2026-08-31 07:13:30 | 48.19583 | 12.68344 | 90° | 73km/h | 1875m | -7.5m/s | 11.2°C | 66.3% | 818.3hPa | 2.6V | 00:00:00 | 00:00:00 | 00:00:00 | |
| DO3MHA-11 | 2026-08-31 07:13:30 | 48.19583 | 12.68344 | 90° | 69km/h | 1875m | -7.5m/s | 11.2°C | 66.3% | 818.3hPa | 2.6V | 00:00:00 | 03:21:35 | 00:00:00 | |
| OE3JTB-15 | 2026-08-31 07:13:28 | 48.19583 | 12.68290 | 93° | 68km/h | 1890m | -7.9m/s | 11.1°C | 66.8% | 816.7hPa | 2.6V | 00:00:00 | 03:21:33 | 00:00:00 | |
| OE3JTB-15 | 2026-08-31 07:13:26 | 48.19582 | 12.68240 | 86° | 66km/h | 1905m | -7.8m/s | 10.9°C | 67.5% | 815.4hPa | 2.6V | 00:00:00 | 00:00:00 | 00:00:00 | |
| DO3MHA-11 | 2026-08-31 07:13:25 | 48.19580 | 12.68215 | 81° | 75km/h | 1912m | -7.6m/s | 10.9°C | 67.7% | 814.8hPa | 2.5V | 00:00:00 | 03:21:30 | 00:00:00 | |
| OE3JTB-15 | 2026-08-31 07:13:24 | 48.19577 | 12.68189 | 80° | 73km/h | 1919m | -8.2m/s | 10.8°C | 68.0% | 814.1hPa | 2.6V | 00:00:00 | 00:00:00 | 00:00:00 | |
| OE3JTB-15 | 2026-08-31 07:13:22 | 48.19571 | 12.68133 | 83° | 80km/h | 1935m | -8.5m/s | 10.7°C | 68.2% | 812.5hPa | 2.6V | 00:00:00 | 03:21:27 | 00:00:00 | |
| OE3JTB-15 | 2026-08-31 07:13:20 | 48.19569 | 12.68073 | 91° | 78km/h | 1952m | -8.3m/s | 10.5°C | 68.4% | 811.1hPa | 2.6V | 07:58:00 | 00:00:00 | 00:00:00 | |
| DO3MHA-11 | 2026-08-31 07:13:20 | 48.19569 | 12.68073 | 91° | 73km/h | 1952m | -8.3m/s | 10.5°C | 68.4% | 811.1hPa | 2.5V | 00:00:00 | 03:21:25 | 00:00:00 | |
| OE3JTB-15 | 2026-08-31 07:13:18 | 48.19571 | 12.68015 | 95° | 69km/h | 1967m | -7.6m/s | 10.4°C | 67.8% | 809.7hPa | 2.5V | 00:00:00 | 00:00:00 | 00:00:00 | |
| DO7DH-14 | 2026-08-31 07:13:17 | 48.19572 | 12.67989 | 96° | 75km/h | 1975m | -7.6m/s | 10.3°C | 68.0% | 809.0hPa | 2.5V | 00:00:00 | 03:21:22 | 00:00:00 | |
| OE5DXL-15 | 2026-08-31 07:13:17 | 48.19572 | 12.67989 | 96° | 73km/h | 1975m | -7.6m/s | 10.3°C | 68.0% | 809.0hPa | 2.5V | 00:00:00 | 00:00:00 | 00:00:00 | |
| OE3JTB-15 | 2026-08-31 07:13:16 | 48.19573 | 12.67964 | 92° | 62km/h | 1982m | -7.4m/s | 10.3°C | 68.1% | 808.4hPa | 2.5V | 00:00:00 | 03:21:21 | 00:00:00 | |
| DO3MHA-11 | 2026-08-31 07:13:15 | 48.19573 | 12.67940 | 86° | 69km/h | 1989m | -7.3m/s | 10.2°C | 68.2% | 807.6hPa | 2.5V | 00:00:00 | 03:21:20 | 00:00:00 | |
| OE3JTB-15 | 2026-08-31 07:13:14 | 48.19571 | 12.67916 | 82° | 71km/h | 1997m | -7.3m/s | 10.2°C | 67.4% | 806.9hPa | 2.5V | 00:00:00 | 00:00:00 | 00:00:00 | |
| DG1MFX-10 | 2026-08-31 07:13:11 | 48.19566 | 12.67866 | 82° | 73km/h | 2011m | -7.9m/s | 10.1°C | 68.3% | 805.3hPa | 2.6V | 00:00:00 | 00:00:00 | 00:00:00 | |
| DO3MHA-11 | 2026-08-31 07:13:10 | 48.19561 | 12.67809 | 89° | 75km/h | 2026m | -7.1m/s | 10.0°C | 66.7% | 804.0hPa | 2.6V | 00:00:00 | 03:21:15 | 00:00:00 | |
| DO3MHA-11 | 2026-08-31 07:13:05 | 48.19564 | 12.67668 | 90° | 73km/h | 2063m | -8.5m/s | 9.7°C | 63.7% | 800.3hPa | 2.6V | 07:58:00 | 03:21:10 | 00:00:00 | |
| OE5DRO-10 | 2026-08-31 07:13:03 | 48.19562 | 12.67615 | 85° | 68km/h | 2078m | -7.6m/s | 9.6°C | 60.9% | 799.2hPa | 2.6V | 00:00:00 | 00:00:00 | 00:00:00 | |
| DO7DH-14 | 2026-08-31 07:13:02 | 48.19561 | 12.67588 | 88° | 69km/h | 2086m | -8.0m/s | 9.6°C | 59.2% | 798.2hPa | 2.6V | 00:00:00 | 03:21:07 | 00:00:00 | |
| DO3MHA-11 | 2026-08-31 07:13:00 | 48.19561 | 12.67530 | 93° | 73km/h | 2102m | -8.5m/s | 9.5°C | 58.6% | 796.8hPa | 2.6V | 00:00:00 | 03:21:05 | 00:00:00 | |
| OE5DXL-15 | 2026-08-31 07:12:57 | 48.19566 | 12.67445 | 94° | 71km/h | 2126m | -7.6m/s | 9.2°C | 63.3% | 794.8hPa | 2.6V | 00:00:00 | 00:00:00 | 00:00:00 | |
| OE3JTB-15 | 2026-08-31 07:12:56 | 48.19566 | 12.67419 | 90° | 69km/h | 2134m | -7.5m/s | 9.1°C | 64.2% | 794.0hPa | 2.6V | 00:00:00 | 03:21:01 | 00:00:00 | |
| DO3MHA-11 | 2026-08-31 07:12:55 | 48.19565 | 12.67394 | 86° | 66km/h | 2142m | -7.5m/s | 9.0°C | 65.9% | 793.2hPa | 2.6V | 00:00:00 | 03:21:00 | 00:00:00 | |
| OE5DRO-10 | 2026-08-31 07:12:53 | 48.19561 | 12.67346 | 81° | 73km/h | 2158m | -8.2m/s | 8.8°C | 69.4% | 791.9hPa | 2.6V | 00:00:00 | 00:00:00 | 00:00:00 | |
| DO3MHA-11 | 2026-08-31 07:12:50 | 48.19552 | 12.67269 | 81° | 75km/h | 2182m | -7.2m/s | 8.6°C | 71.5% | 789.5hPa | 2.6V | 00:00:00 | 03:20:55 | 00:00:00 | |
| OE3JTB-15 | 2026-08-31 07:12:47 | 48.19547 | 12.67183 | 90° | 71km/h | 2202m | -7.1m/s | 8.5°C | 73.6% | 787.3hPa | 2.6V | 00:00:00 | 00:00:00 | 00:00:00 | |
| DG1MFX-10 | 2026-08-31 07:12:46 | 48.19547 | 12.67183 | 90° | 77km/h | 2202m | -7.1m/s | 8.5°C | 74.6% | 787.4hPa | 2.6V | 00:00:00 | 00:00:00 | 00:00:00 | |
| DO3MHA-11 | 2026-08-31 07:12:45 | 48.19547 | 12.67125 | 94° | 69km/h | 2217m | -7.5m/s | 8.3°C | 75.1% | 786.0hPa | 2.6V | 00:00:00 | 03:20:50 | 00:00:00 | |
| DO3MHA-11 | 2026-08-31 07:12:40 | 48.19545 | 12.66995 | 82° | 73km/h | 2255m | -7.5m/s | 8.0°C | 76.5% | 782.5hPa | 2.6V | 00:00:00 | 03:20:45 | 00:00:00 | |
| DO7DH-14 | 2026-08-31 07:12:38 | 48.19539 | 12.66942 | 81° | 75km/h | 2270m | -7.3m/s | 7.8°C | 77.1% | 781.1hPa | 2.5V | 07:59:00 | 03:20:43 | 00:00:00 | |
| OE5DXL-15 | 2026-08-31 07:12:37 | 48.19535 | 12.66914 | 81° | 75km/h | 2277m | -7.6m/s | 7.7°C | 77.5% | 780.3hPa | 2.5V | 00:00:00 | 00:00:00 | 00:00:00 | |
| DO3MHA-11 | 2026-08-31 07:12:35 | 48.19531 | 12.66855 | 85° | 78km/h | 2293m | -7.4m/s | 7.6°C | 77.7% | 778.9hPa | 2.5V | 00:00:00 | 03:20:40 | 00:00:00 | |
| DO3MHA-11 | 2026-08-31 07:12:30 | 48.19525 | 12.66708 | 88° | 75km/h | 2331m | -7.0m/s | 7.3°C | 79.4% | 775.3hPa | 2.5V | 00:00:00 | 03:20:35 | 00:00:00 | |
| OE5DRO-10 | 2026-08-31 07:12:28 | 48.19523 | 12.66653 | 85° | 73km/h | 2345m | -7.5m/s | 7.2°C | 80.4% | 773.9hPa | 2.5V | 00:00:00 | 00:00:00 | 00:00:00 | |
| OE5WHR-10 | 2026-08-31 07:12:27 | 48.19521 | 12.66625 | 84° | 75km/h | 2353m | -7.5m/s | 7.1°C | 80.3% | 773.3hPa | 2.5V | 00:00:00 | 03:20:32 | 00:00:00 | |
| DO3MHA-11 | 2026-08-31 07:12:25 | 48.19516 | 12.66567 | 83° | 75km/h | 2368m | -7.4m/s | 7.0°C | 80.6% | 771.9hPa | 2.5V | 07:59:00 | 03:20:30 | 00:00:00 | |
| OE5WHR-10 | 2026-08-31 07:12:21 | 48.19506 | 12.66453 | 82° | 73km/h | 2398m | -6.8m/s | 6.7°C | 82.2% | 769.0hPa | 2.6V | 00:00:00 | 00:00:00 | 00:00:00 | |
| DO3MHA-11 | 2026-08-31 07:12:20 | 48.19503 | 12.66426 | 80° | 75km/h | 2405m | -7.2m/s | 6.6°C | 82.4% | 768.4hPa | 2.6V | 00:00:00 | 03:20:25 | 00:00:00 | |
| DO7DH-14 | 2026-08-31 07:12:18 | 48.19495 | 12.66373 | 78° | 78km/h | 2420m | -7.0m/s | 6.5°C | 82.8% | 767.1hPa | 2.6V | 00:00:00 | 03:20:23 | 00:00:00 | |
| OE5DXL-15 | 2026-08-31 07:12:17 | 48.19491 | 12.66345 | 78° | 78km/h | 2427m | -7.4m/s | 6.5°C | 83.5% | 766.3hPa | 2.6V | 00:00:00 | 00:00:00 | 00:00:00 | |
| DO3MHA-11 | 2026-08-31 07:12:15 | 48.19483 | 12.66284 | 81° | 78km/h | 2442m | -7.6m/s | 6.4°C | 83.4% | 764.8hPa | 2.6V | 00:00:00 | 03:20:20 | 00:00:00 | |
| OE5DRO-10 | 2026-08-31 07:12:11 | 48.19475 | 12.66164 | 87° | 77km/h | 2472m | -7.4m/s | 6.1°C | 84.3% | 762.0hPa | 2.6V | 00:00:00 | 00:00:00 | 00:00:00 | |
| DO3MHA-11 | 2026-08-31 07:12:10 | 48.19474 | 12.66136 | 84° | 77km/h | 2479m | -7.7m/s | 6.1°C | 83.9% | 761.2hPa | 2.6V | 00:00:00 | 03:20:15 | 00:00:00 | |
| OE5WHR-10 | 2026-08-31 07:12:09 | 48.19472 | 12.66109 | 84° | 78km/h | 2487m | -7.9m/s | 6.0°C | 83.9% | 760.5hPa | 2.6V | 00:00:00 | 03:20:14 | 00:00:00 | |
| DO3MHA-11 | 2026-08-31 07:12:05 | 48.19460 | 12.65992 | 82° | 82km/h | 2517m | -7.6m/s | 5.9°C | 81.6% | 757.9hPa | 2.6V | 00:00:00 | 03:20:10 | 00:00:00 | |
| OE5DRO-10 | 2026-08-31 07:12:04 | 48.19457 | 12.65960 | 83° | 77km/h | 2525m | -7.8m/s | 5.8°C | 82.1% | 757.0hPa | 2.6V | 00:00:00 | 00:00:00 | 00:00:00 | |
| DG1MFX-10 | 2026-08-31 07:12:03 | 48.19457 | 12.65960 | 84° | 84km/h | 2525m | -7.9m/s | 5.8°C | 83.1% | 757.0hPa | 2.6V | 00:00:00 | 00:00:00 | 00:00:00 | |
| DO3MHA-11 | 2026-08-31 07:12:00 | 48.19451 | 12.65838 | 84° | 78km/h | 2556m | -7.8m/s | 5.7°C | 80.1% | 754.1hPa | 2.6V | 00:00:00 | 03:20:05 | 00:00:00 | |
| DO7DH-14 | 2026-08-31 07:11:58 | 48.19445 | 12.65780 | 80° | 78km/h | 2572m | -8.5m/s | 5.6°C | 80.1% | 752.7hPa | 2.6V | 00:00:00 | 03:20:03 | 00:00:00 | |
| OE5DXL-15 | 2026-08-31 07:11:57 | 48.19442 | 12.65751 | 82° | 77km/h | 2580m | -7.6m/s | 5.5°C | 79.7% | 751.9hPa | 2.6V | 00:00:00 | 00:00:00 | 00:00:00 | |
| DO3MHA-11 | 2026-08-31 07:11:55 | 48.19438 | 12.65689 | 88° | 73km/h | 2596m | -7.9m/s | 5.4°C | 77.4% | 750.7hPa | 2.6V | 00:00:00 | 03:20:00 | 00:00:00 | |
| DO3MHA-11 | 2026-08-31 07:11:50 | 48.19431 | 12.65552 | 79° | 82km/h | 2637m | -8.3m/s | 5.4°C | 65.3% | 747.0hPa | 2.6V | 00:00:00 | 03:19:55 | 00:00:00 | |
| OE5DRO-10 | 2026-08-31 07:11:48 | 48.19423 | 12.65495 | 80° | 78km/h | 2654m | -8.0m/s | 5.4°C | 60.1% | 745.6hPa | 2.6V | 00:00:00 | 00:00:00 | 00:00:00 | |
| DO3MHA-11 | 2026-08-31 07:11:45 | 48.19415 | 12.65396 | 88° | 80km/h | 2679m | -8.1m/s | 5.3°C | 57.2% | 743.2hPa | 2.6V | 00:00:00 | 03:19:50 | 00:00:00 | |
| DO3MHA-11 | 2026-08-31 07:11:40 | 48.19416 | 12.65245 | 89° | 71km/h | 2720m | -7.6m/s | 5.3°C | 46.0% | 739.5hPa | 2.6V | 08:00:00 | 03:19:45 | 00:00:00 | |
| OE3JTB-15 | 2026-08-31 07:11:39 | 48.19415 | 12.65220 | 86° | 69km/h | 2728m | -7.4m/s | 5.5°C | 36.8% | 738.7hPa | 2.6V | 00:00:00 | 00:00:00 | 00:00:00 | |
| OE5WHR-10 | 2026-08-31 07:11:38 | 48.19413 | 12.65194 | 82° | 73km/h | 2736m | -7.3m/s | 5.5°C | 33.9% | 738.2hPa | 2.6V | 00:00:00 | 00:00:00 | 00:00:00 | |
| DO3MHA-11 | 2026-08-31 07:11:35 | 48.19404 | 12.65112 | 83° | 78km/h | 2760m | -7.7m/s | 5.3°C | 29.9% | 736.1hPa | 2.6V | 00:00:00 | 03:19:40 | 00:00:00 | |
| OE5DRO-10 | 2026-08-31 07:11:32 | 48.19402 | 12.65020 | 95° | 77km/h | 2783m | -7.6m/s | 5.2°C | 28.7% | 733.8hPa | 2.6V | 08:00:00 | 00:00:00 | 00:00:00 | |
| DO3MHA-11 | 2026-08-31 07:11:30 | 48.19406 | 12.64964 | 97° | 66km/h | 2800m | -8.4m/s | 5.1°C | 28.7% | 732.3hPa | 2.6V | 00:00:00 | 03:19:35 | 00:00:00 | |
| OE5DXL-15 | 2026-08-31 07:11:27 | 48.19408 | 12.64889 | 88° | 80km/h | 2825m | -7.7m/s | 5.0°C | 25.5% | 730.3hPa | 2.6V | 00:00:00 | 00:00:00 | 00:00:00 | |
| DO3MHA-11 | 2026-08-31 07:11:25 | 48.19405 | 12.64840 | 81° | 80km/h | 2841m | -8.4m/s | 4.9°C | 24.5% | 728.6hPa | 2.6V | 00:00:00 | 03:19:30 | 00:00:00 | |
| OE5WHR-10 | 2026-08-31 07:11:21 | 48.19393 | 12.64720 | 88° | 82km/h | 2875m | -8.3m/s | 4.7°C | 18.4% | 725.8hPa | 2.6V | 00:00:00 | 03:19:26 | 00:00:00 | |
| DO3MHA-11 | 2026-08-31 07:11:20 | 48.19392 | 12.64687 | 91° | 82km/h | 2883m | -8.5m/s | 4.6°C | 18.7% | 725.0hPa | 2.6V | 00:00:00 | 03:19:25 | 00:00:00 | |
| DO7DH-14 | 2026-08-31 07:11:18 | 48.19394 | 12.64622 | 95° | 80km/h | 2900m | -8.1m/s | 4.7°C | 19.1% | 723.2hPa | 2.6V | 00:00:00 | 03:19:23 | 00:00:00 | |
| OE5DRO-10 | 2026-08-31 07:11:16 | 48.19397 | 12.64563 | 94° | 80km/h | 2917m | -8.2m/s | 4.8°C | 17.9% | 721.7hPa | 2.6V | 00:00:00 | 00:00:00 | 00:00:00 | |
| DO3MHA-11 | 2026-08-31 07:11:15 | 48.19399 | 12.64535 | 92° | 77km/h | 2925m | -7.6m/s | 4.8°C | 17.2% | 720.9hPa | 2.6V | 00:00:00 | 03:19:20 | 00:00:00 | |
| DO3MHA-11 | 2026-08-31 07:11:10 | 48.19389 | 12.64386 | 85° | 88km/h | 2968m | -8.7m/s | 4.5°C | 17.5% | 717.1hPa | 2.6V | 00:00:00 | 03:19:15 | 00:00:00 | |
| DO3MHA-11 | 2026-08-31 07:11:05 | 48.19390 | 12.64221 | 97° | 77km/h | 3010m | -8.5m/s | 4.2°C | 19.0% | 713.6hPa | 2.6V | 00:00:00 | 03:19:10 | 00:00:00 | |
| OE5WHR-10 | 2026-08-31 07:11:04 | 48.19392 | 12.64191 | 95° | 82km/h | 3019m | -8.8m/s | 4.2°C | 18.2% | 712.7hPa | 2.6V | 00:00:00 | 00:00:00 | 00:00:00 | |
| DG1MFX-10 | 2026-08-31 07:11:01 | 48.19394 | 12.64134 | 91° | 75km/h | 3036m | -8.5m/s | 4.3°C | 16.3% | 711.1hPa | 2.6V | 08:01:00 | 00:00:00 | 00:00:00 | |
| DO3MHA-11 | 2026-08-31 07:11:00 | 48.19391 | 12.64078 | 82° | 86km/h | 3053m | -8.4m/s | 4.2°C | 15.7% | 709.7hPa | 2.6V | 00:00:00 | 03:19:05 | 00:00:00 | |
| DO7DH-14 | 2026-08-31 07:10:58 | 48.19384 | 12.64017 | 82° | 88km/h | 3070m | -8.6m/s | 4.1°C | 15.5% | 708.1hPa | 2.6V | 08:01:00 | 03:19:03 | 00:00:00 | |
| OE5DXL-15 | 2026-08-31 07:10:57 | 48.19381 | 12.63984 | 83° | 88km/h | 3079m | -9.2m/s | 4.1°C | 14.7% | 707.4hPa | 2.6V | 00:00:00 | 00:00:00 | 00:00:00 | |
| DO3MHA-11 | 2026-08-31 07:10:55 | 48.19376 | 12.63917 | 86° | 88km/h | 3096m | -9.1m/s | 4.2°C | 11.7% | 705.8hPa | 2.6V | 08:01:00 | 03:19:00 | 00:00:00 | |
| DO3MHA-11 | 2026-08-31 07:10:50 | 48.19374 | 12.63753 | 90° | 80km/h | 3139m | -8.1m/s | 3.9°C | 10.4% | 702.2hPa | 2.6V | 00:00:00 | 03:18:55 | 00:00:00 | |
| OE5WHR-10 | 2026-08-31 07:10:47 | 48.19368 | 12.63666 | 81° | 89km/h | 3165m | -8.7m/s | 3.9°C | 8.7% | 699.8hPa | 2.6V | 00:00:00 | 00:00:00 | 00:00:00 | |
| DO3MHA-11 | 2026-08-31 07:10:45 | 48.19360 | 12.63602 | 79° | 93km/h | 3182m | -8.4m/s | 3.9°C | 8.2% | 698.3hPa | 2.6V | 00:00:00 | 03:18:50 | 00:00:00 | |
| OE5DRO-10 | 2026-08-31 07:10:44 | 48.19355 | 12.63567 | 81° | 89km/h | 3191m | -9.0m/s | 3.9°C | 8.2% | 697.4hPa | 2.6V | 00:00:00 | 00:00:00 | 00:00:00 | |
| DG1MFX-10 | 2026-08-31 07:10:41 | 48.19349 | 12.63497 | 85° | 93km/h | 3208m | -8.2m/s | 4.0°C | 8.1% | 696.3hPa | 2.5V | 08:02:00 | 00:00:00 | 00:00:00 | |
| DO3MHA-11 | 2026-08-31 07:10:40 | 48.19345 | 12.63428 | 88° | 84km/h | 3225m | -8.9m/s | 3.9°C | 8.1% | 694.9hPa | 2.5V | 00:00:00 | 03:18:45 | 00:00:00 | |
| DO3MHA-11 | 2026-08-31 07:10:35 | 48.19328 | 12.63271 | 78° | 95km/h | 3267m | -8.7m/s | 3.8°C | 11.4% | 691.2hPa | 2.6V | 00:00:00 | 03:18:40 | 00:00:00 | |
| DO3MHA-11 | 2026-08-31 07:10:30 | 48.19314 | 12.63092 | 90° | 80km/h | 3309m | -8.8m/s | 3.3°C | 16.7% | 687.7hPa | 2.6V | 00:00:00 | 03:18:35 | 00:00:00 | |
| OE5WHR-10 | 2026-08-31 07:10:29 | 48.19314 | 12.63060 | 91° | 80km/h | 3318m | -9.1m/s | 3.3°C | 16.9% | 686.9hPa | 2.6V | 00:00:00 | 03:18:34 | 00:00:00 | |
| DO7DH-14 | 2026-08-31 07:10:28 | 48.19314 | 12.63029 | 90° | 84km/h | 3327m | -8.9m/s | 3.2°C | 16.5% | 686.1hPa | 2.6V | 00:00:00 | 03:18:33 | 00:00:00 | |
| OE5DXL-15 | 2026-08-31 07:10:27 | 48.19313 | 12.62999 | 86° | 84km/h | 3336m | -8.6m/s | 3.1°C | 15.4% | 685.4hPa | 2.6V | 08:01:00 | 00:00:00 | 00:00:00 | |
| DO3MHA-11 | 2026-08-31 07:10:25 | 48.19308 | 12.62942 | 79° | 88km/h | 3352m | -8.5m/s | 3.1°C | 13.0% | 684.0hPa | 2.6V | 00:00:00 | 03:18:30 | 00:00:00 | |
| DO3MHA-11 | 2026-08-31 07:10:20 | 48.19291 | 12.62775 | 89° | 80km/h | 3394m | -8.6m/s | 3.0°C | 9.0% | 680.2hPa | 2.6V | 00:00:00 | 03:18:25 | 00:00:00 | |
| OE3JTB-15 | 2026-08-31 07:10:17 | 48.19290 | 12.62680 | 87° | 78km/h | 3419m | -9.3m/s | 2.9°C | 7.2% | 678.1hPa | 2.6V | 00:00:00 | 03:18:22 | 00:00:00 | |
| DO3MHA-11 | 2026-08-31 07:10:15 | 48.19284 | 12.62624 | 78° | 82km/h | 3438m | -9.5m/s | 2.8°C | 7.7% | 676.5hPa | 2.6V | 00:00:00 | 03:18:20 | 00:00:00 | |
| OE5WHR-10 | 2026-08-31 07:10:12 | 48.19271 | 12.62534 | 79° | 84km/h | 3466m | -9.4m/s | 2.6°C | 8.4% | 674.2hPa | 2.6V | 00:00:00 | 00:00:00 | 00:00:00 | |
| DO3MHA-11 | 2026-08-31 07:10:10 | 48.19265 | 12.62469 | 84° | 86km/h | 3485m | -9.7m/s | 2.5°C | 9.0% | 672.9hPa | 2.6V | 08:01:00 | 03:18:15 | 00:00:00 | |
| DO3MHA-11 | 2026-08-31 07:10:05 | 48.19251 | 12.62308 | 81° | 88km/h | 3528m | -8.5m/s | 2.2°C | 9.8% | 669.3hPa | 2.6V | 00:00:00 | 03:18:10 | 00:00:00 | |
| DO3MHA-11 | 2026-08-31 07:10:00 | 48.19239 | 12.62144 | 87° | 77km/h | 3572m | -8.7m/s | 2.1°C | 9.2% | 665.6hPa | 2.6V | 00:00:00 | 03:18:05 | 00:00:00 | |
| DO7DH-14 | 2026-08-31 07:09:58 | 48.19236 | 12.62084 | 84° | 77km/h | 3589m | -8.8m/s | 2.2°C | 6.8% | 664.1hPa | 2.6V | 00:00:00 | 03:18:03 | 00:00:00 | |
| OE5DXL-15 | 2026-08-31 07:09:57 | 48.19234 | 12.62057 | 82° | 77km/h | 3598m | -8.7m/s | 2.3°C | 5.9% | 663.4hPa | 2.6V | 00:00:00 | 00:00:00 | 00:00:00 | |
| OE5DRO-10 | 2026-08-31 07:09:56 | 48.19231 | 12.62029 | 81° | 78km/h | 3607m | -9.1m/s | 2.3°C | 5.4% | 662.6hPa | 2.6V | 00:00:00 | 00:00:00 | 00:00:00 | |
| DO3MHA-11 | 2026-08-31 07:09:55 | 48.19227 | 12.62002 | 79° | 77km/h | 3616m | -8.7m/s | 2.3°C | 5.4% | 661.8hPa | 2.6V | 00:00:00 | 03:18:00 | 00:00:00 | |
| DO3MHA-11 | 2026-08-31 07:09:50 | 48.19203 | 12.61859 | 76° | 78km/h | 3658m | -9.2m/s | 2.1°C | 6.0% | 658.4hPa | 2.6V | 00:00:00 | 03:17:55 | 00:00:00 | |
| DO3MHA-11 | 2026-08-31 07:09:45 | 48.19180 | 12.61716 | 73° | 78km/h | 3703m | -8.7m/s | 2.3°C | 17.4% | 654.8hPa | 2.6V | 00:00:00 | 03:17:50 | 00:00:00 | |
| DO3MHA-11 | 2026-08-31 07:09:40 | 48.19154 | 12.61572 | 81° | 73km/h | 3746m | -8.6m/s | 1.9°C | 28.2% | 651.2hPa | 2.6V | 00:00:00 | 03:17:45 | 00:00:00 | |
| OE5WHR-10 | 2026-08-31 07:09:38 | 48.19147 | 12.61517 | 79° | 77km/h | 3764m | -8.4m/s | 1.8°C | 35.2% | 649.9hPa | 2.6V | 00:00:00 | 03:17:43 | 00:00:00 | |
| DG1MFX-10 | 2026-08-31 07:09:36 | 48.19143 | 12.61492 | 74° | 68km/h | 3772m | -8.5m/s | 1.7°C | 30.9% | 649.2hPa | 2.6V | 08:02:00 | 00:00:00 | 00:00:00 | |
| DO3MHA-11 | 2026-08-31 07:09:35 | 48.19130 | 12.61442 | 66° | 80km/h | 3790m | -9.1m/s | 1.5°C | 36.5% | 647.7hPa | 2.6V | 00:00:00 | 03:17:40 | 00:00:00 | |
| DO3MHA-11 | 2026-08-31 07:09:30 | 48.19093 | 12.61297 | 76° | 80km/h | 3833m | -8.1m/s | 1.0°C | 51.3% | 644.3hPa | 2.6V | 00:00:00 | 03:17:35 | 00:00:00 | |
| DO7DH-14 | 2026-08-31 07:09:28 | 48.19085 | 12.61236 | 81° | 73km/h | 3849m | -8.2m/s | 0.8°C | 51.0% | 643.1hPa | 2.6V | 00:00:00 | 03:17:33 | 00:00:00 | |
| OE5DXL-15 | 2026-08-31 07:09:27 | 48.19082 | 12.61207 | 81° | 73km/h | 3857m | -8.6m/s | 0.8°C | 52.6% | 642.4hPa | 2.6V | 00:00:00 | 00:00:00 | 00:00:00 | |
| DO3MHA-11 | 2026-08-31 07:09:25 | 48.19075 | 12.61152 | 77° | 77km/h | 3874m | -8.4m/s | 0.6°C | 49.8% | 640.9hPa | 2.6V | 08:02:00 | 03:17:30 | 00:00:00 | |
| OE5DRO-10 | 2026-08-31 07:09:24 | 48.19070 | 12.61126 | 73° | 77km/h | 3883m | -8.9m/s | 0.6°C | 45.5% | 640.3hPa | 2.6V | 00:00:00 | 00:00:00 | 00:00:00 | |
| OE5WHR-10 | 2026-08-31 07:09:21 | 48.19049 | 12.61043 | 69° | 75km/h | 3908m | -9.1m/s | 0.3°C | 45.6% | 638.2hPa | 2.6V | 08:02:00 | 00:00:00 | 00:00:00 | |
| DO3MHA-11 | 2026-08-31 07:09:20 | 48.19042 | 12.61012 | 70° | 84km/h | 3917m | -8.5m/s | 0.3°C | 39.1% | 637.4hPa | 2.5V | 00:00:00 | 03:17:25 | 00:00:00 | |
| DO3MHA-11 | 2026-08-31 07:09:15 | 48.19014 | 12.60861 | 76° | 68km/h | 3957m | -7.9m/s | -0.1°C | 50.9% | 634.4hPa | 2.5V | 00:00:00 | 03:17:20 | 00:00:00 | |
| DO3MHA-11 | 2026-08-31 07:09:10 | 48.18983 | 12.60744 | 63° | 77km/h | 3997m | -8.6m/s | -0.5°C | 64.9% | 631.3hPa | 2.5V | 00:00:00 | 03:17:15 | 00:00:00 | |
| OE5DRO-10 | 2026-08-31 07:09:08 | 48.18967 | 12.60693 | 68° | 66km/h | 4013m | -8.4m/s | -0.6°C | 66.2% | 629.8hPa | 2.6V | 08:02:00 | 00:00:00 | 00:00:00 | |
| DO3MHA-11 | 2026-08-31 07:09:05 | 48.18949 | 12.60609 | 80° | 62km/h | 4035m | -8.2m/s | -0.7°C | 71.7% | 628.0hPa | 2.6V | 00:00:00 | 03:17:10 | 00:00:00 | |
| OE5WHR-10 | 2026-08-31 07:09:04 | 48.18946 | 12.60582 | 83° | 62km/h | 4043m | -8.1m/s | -0.7°C | 73.3% | 627.2hPa | 2.6V | 00:00:00 | 00:00:00 | 00:00:00 | |
| OE3JTB-15 | 2026-08-31 07:09:01 | 48.18938 | 12.60514 | 74° | 46km/h | 4067m | -8.9m/s | -0.8°C | 74.9% | 625.4hPa | 2.6V | 00:00:00 | 00:00:00 | 00:00:00 | |
| DO3MHA-11 | 2026-08-31 07:09:00 | 48.18933 | 12.60494 | 69° | 64km/h | 4075m | -8.8m/s | -0.9°C | 75.3% | 624.8hPa | 2.6V | 00:00:00 | 03:17:05 | 00:00:00 | |
| DO7DH-14 | 2026-08-31 07:08:58 | 48.18921 | 12.60452 | 65° | 64km/h | 4092m | -8.6m/s | -1.0°C | 75.5% | 623.4hPa | 2.6V | 00:00:00 | 03:17:03 | 00:00:00 | |
| OE5DXL-15 | 2026-08-31 07:08:57 | 48.18914 | 12.60429 | 68° | 64km/h | 4100m | -8.9m/s | -1.0°C | 75.7% | 622.8hPa | 2.6V | 00:00:00 | 00:00:00 | 00:00:00 | |
| DO3MHA-11 | 2026-08-31 07:08:55 | 48.18903 | 12.60381 | 74° | 64km/h | 4117m | -8.2m/s | -1.1°C | 75.8% | 621.6hPa | 2.6V | 00:00:00 | 03:17:00 | 00:00:00 | |
| DG1MFX-10 | 2026-08-31 07:08:54 | 48.18903 | 12.60381 | 75° | 68km/h | 4117m | -8.3m/s | -1.2°C | 76.3% | 621.7hPa | 2.6V | 08:03:00 | 00:00:00 | 00:00:00 | |
| OE5DRO-10 | 2026-08-31 07:08:52 | 48.18892 | 12.60311 | 77° | 62km/h | 4141m | -7.8m/s | -1.2°C | 75.5% | 619.8hPa | 2.6V | 00:00:00 | 00:00:00 | 00:00:00 | |
| DO3MHA-11 | 2026-08-31 07:08:50 | 48.18884 | 12.60267 | 73° | 62km/h | 4156m | -7.5m/s | -1.2°C | 73.5% | 618.7hPa | 2.6V | 00:00:00 | 03:16:55 | 00:00:00 | |
| OE5WHR-10 | 2026-08-31 07:08:47 | 48.18869 | 12.60200 | 75° | 62km/h | 4179m | -8.2m/s | -1.2°C | 70.6% | 616.8hPa | 2.6V | 00:00:00 | 03:16:52 | 00:00:00 | |
| DO3MHA-11 | 2026-08-31 07:08:45 | 48.18862 | 12.60151 | 77° | 64km/h | 4194m | -7.8m/s | -1.3°C | 70.5% | 615.4hPa | 2.6V | 00:00:00 | 03:16:50 | 00:00:00 | |
| DO3MHA-11 | 2026-08-31 07:08:40 | 48.18843 | 12.60037 | 65° | 64km/h | 4234m | -8.4m/s | -1.6°C | 70.7% | 612.8hPa | 2.6V | 08:03:00 | 03:16:45 | 00:00:00 | |
| OE5DRO-10 | 2026-08-31 07:08:36 | 48.18818 | 12.59947 | 70° | 62km/h | 4267m | -9.2m/s | -1.8°C | 70.5% | 610.1hPa | 2.6V | 00:00:00 | 00:00:00 | 00:00:00 | |
| DO3MHA-11 | 2026-08-31 07:08:35 | 48.18814 | 12.59923 | 79° | 60km/h | 4275m | -7.4m/s | -1.8°C | 70.4% | 609.4hPa | 2.6V | 00:00:00 | 03:16:40 | 00:00:00 | |
| DG1MFX-10 | 2026-08-31 07:08:34 | 48.18814 | 12.59923 | 80° | 66km/h | 4275m | -7.5m/s | -1.9°C | 70.7% | 609.4hPa | 2.6V | 08:03:00 | 00:00:00 | 00:00:00 | |
| DO3MHA-11 | 2026-08-31 07:08:30 | 48.18794 | 12.59813 | 76° | 62km/h | 4314m | -9.0m/s | -2.0°C | 70.0% | 606.6hPa | 2.6V | 00:00:00 | 03:16:35 | 00:00:00 | |
| DO7DH-14 | 2026-08-31 07:08:28 | 48.18784 | 12.59768 | 76° | 64km/h | 4331m | -9.0m/s | -2.2°C | 70.3% | 605.4hPa | 2.6V | 00:00:00 | 03:16:33 | 00:00:00 | |
| OE5DXL-15 | 2026-08-31 07:08:27 | 48.18779 | 12.59746 | 69° | 64km/h | 4339m | -8.3m/s | -2.3°C | 70.7% | 604.4hPa | 2.6V | 00:00:00 | 00:00:00 | 00:00:00 | |
| NBG1-10 | 2026-08-31 07:08:26 | 48.18774 | 12.59724 | 73° | 66km/h | 4347m | -8.7m/s | -2.4°C | 70.7% | 604.2hPa | 2.6V | 00:00:00 | 03:16:31 | 00:00:00 | |
| DO3MHA-11 | 2026-08-31 07:08:25 | 48.18768 | 12.59703 | 62° | 64km/h | 4355m | -8.6m/s | -2.4°C | 70.8% | 603.4hPa | 2.6V | 00:00:00 | 03:16:30 | 00:00:00 | |
| DO3MHA-11 | 2026-08-31 07:08:20 | 48.18735 | 12.59589 | 72° | 60km/h | 4395m | -8.8m/s | -2.7°C | 70.7% | 600.5hPa | 2.6V | 00:00:00 | 03:16:25 | 00:00:00 | |
| DO3MHA-11 | 2026-08-31 07:08:15 | 48.18707 | 12.59483 | 70° | 68km/h | 4436m | -8.3m/s | -2.9°C | 70.1% | 597.2hPa | 2.6V | 00:00:00 | 03:16:20 | 00:00:00 | |
| DG1MFX-10 | 2026-08-31 07:08:14 | 48.18707 | 12.59483 | 71° | 66km/h | 4436m | -8.4m/s | -3.0°C | 70.4% | 597.2hPa | 2.6V | 00:00:00 | 00:00:00 | 00:00:00 | |
| OE5WHR-10 | 2026-08-31 07:08:13 | 48.18694 | 12.59435 | 74° | 64km/h | 4452m | -7.2m/s | -3.1°C | 70.3% | 595.9hPa | 2.6V | 00:00:00 | 00:00:00 | 00:00:00 | |
| DO3MHA-11 | 2026-08-31 07:08:10 | 48.18678 | 12.59366 | 69° | 66km/h | 4473m | -7.9m/s | -3.3°C | 70.9% | 594.4hPa | 2.6V | 00:00:00 | 03:16:15 | 00:00:00 | |
| DO3MHA-11 | 2026-08-31 07:08:05 | 48.18649 | 12.59249 | 73° | 64km/h | 4513m | -8.3m/s | -3.6°C | 72.0% | 591.1hPa | 2.6V | 00:00:00 | 03:16:10 | 00:00:00 | |
| OE5DRO-10 | 2026-08-31 07:08:04 | 48.18645 | 12.59225 | 73° | 64km/h | 4521m | -8.9m/s | -3.7°C | 72.1% | 590.9hPa | 2.6V | 00:00:00 | 00:00:00 | 00:00:00 | |
| DO3MHA-11 | 2026-08-31 07:08:00 | 48.18622 | 12.59134 | 72° | 64km/h | 4553m | -8.9m/s | -4.0°C | 73.4% | 588.3hPa | 2.6V | 00:00:00 | 03:16:05 | 00:00:00 | |
| DO7DH-14 | 2026-08-31 07:07:58 | 48.18612 | 12.59086 | 79° | 64km/h | 4570m | -8.8m/s | -4.2°C | 74.1% | 587.2hPa | 2.6V | 00:00:00 | 03:16:03 | 00:00:00 | |
| OE5DXL-15 | 2026-08-31 07:07:57 | 48.18608 | 12.59064 | 72° | 64km/h | 4578m | -8.5m/s | -4.3°C | 74.4% | 586.3hPa | 2.6V | 00:00:00 | 03:16:02 | 00:00:00 | |
| OE5WHR-10 | 2026-08-31 07:07:56 | 48.18602 | 12.59042 | 67° | 66km/h | 4586m | -8.3m/s | -4.3°C | 74.6% | 585.8hPa | 2.6V | 00:00:00 | 03:16:01 | 00:00:00 | |
| DO3MHA-11 | 2026-08-31 07:07:55 | 48.18597 | 12.59019 | 75° | 66km/h | 4594m | -8.6m/s | -4.4°C | 74.9% | 585.4hPa | 2.6V | 08:04:00 | 03:16:00 | 00:00:00 | |
| NBG1-10 | 2026-08-31 07:07:53 | 48.18586 | 12.58972 | 69° | 68km/h | 4612m | -9.3m/s | -4.6°C | 74.4% | 584.2hPa | 2.6V | 00:00:00 | 03:15:58 | 00:00:00 | |
| DO3MHA-11 | 2026-08-31 07:07:50 | 48.18575 | 12.58900 | 71° | 64km/h | 4636m | -7.7m/s | -4.8°C | 76.2% | 582.1hPa | 2.6V | 00:00:00 | 03:15:55 | 00:00:00 | |
| OE5DRO-10 | 2026-08-31 07:07:48 | 48.18565 | 12.58855 | 68° | 64km/h | 4652m | -8.9m/s | -4.9°C | 73.6% | 581.3hPa | 2.6V | 00:00:00 | 00:00:00 | 00:00:00 | |
| OE5MMP-10 | 2026-08-31 07:07:45 | 48.18548 | 12.58786 | 74° | 64km/h | 4676m | -8.5m/s | -5.1°C | 73.3% | 579.3hPa | 2.6V | 00:00:00 | 03:15:50 | 00:00:00 | |
| DO3MHA-11 | 2026-08-31 07:07:40 | 48.18523 | 12.58667 | 79° | 62km/h | 4717m | -7.9m/s | -5.5°C | 74.6% | 576.3hPa | 2.6V | 00:00:00 | 03:15:45 | 00:00:00 | |
| OE5WHR-10 | 2026-08-31 07:07:39 | 48.18520 | 12.58643 | 79° | 64km/h | 4725m | -7.4m/s | -5.6°C | 74.9% | 576.0hPa | 2.6V | 00:00:00 | 00:00:00 | 00:00:00 | |
| PG1ADW-2 | 2026-08-31 07:07:36 | 48.18507 | 12.58575 | 73° | 64km/h | 4749m | -8.6m/s | -5.8°C | 75.8% | 574.2hPa | 2.6V | 00:00:00 | 00:00:00 | 00:00:00 | |
| DO3MHA-11 | 2026-08-31 07:07:35 | 48.18501 | 12.58553 | 64° | 68km/h | 4757m | -8.1m/s | -5.9°C | 75.9% | 573.5hPa | 2.6V | 00:00:00 | 03:15:40 | 00:00:00 | |
| OE5DRO-10 | 2026-08-31 07:07:32 | 48.18485 | 12.58480 | 70° | 66km/h | 4780m | -8.2m/s | -6.1°C | 77.0% | 571.5hPa | 2.6V | 00:00:00 | 00:00:00 | 00:00:00 | |
| DO3MHA-11 | 2026-08-31 07:07:30 | 48.18475 | 12.58431 | 79° | 62km/h | 4796m | -7.8m/s | -6.3°C | 78.1% | 570.7hPa | 2.5V | 00:00:00 | 03:15:35 | 00:00:00 | |
| DO7DH-14 | 2026-08-31 07:07:28 | 48.18465 | 12.58388 | 70° | 68km/h | 4811m | -8.0m/s | -6.4°C | 78.9% | 569.6hPa | 2.5V | 00:00:00 | 03:15:33 | 00:00:00 | |
| OE5DXL-15 | 2026-08-31 07:07:27 | 48.18460 | 12.58365 | 76° | 68km/h | 4818m | -7.9m/s | -6.5°C | 79.5% | 568.8hPa | 2.5V | 00:00:00 | 00:00:00 | 00:00:00 | |
| DO3MHA-11 | 2026-08-31 07:07:25 | 48.18451 | 12.58320 | 69° | 68km/h | 4833m | -8.3m/s | -6.7°C | 80.4% | 568.0hPa | 2.6V | 00:00:00 | 03:15:30 | 00:00:00 | |
| OE5WHR-10 | 2026-08-31 07:07:22 | 48.18434 | 12.58247 | 77° | 66km/h | 4856m | -7.7m/s | -6.9°C | 81.4% | 566.0hPa | 2.5V | 00:00:00 | 00:00:00 | 00:00:00 | |
| DO3MHA-11 | 2026-08-31 07:07:20 | 48.18427 | 12.58200 | 76° | 68km/h | 4871m | -9.0m/s | -7.1°C | 82.2% | 564.8hPa | 2.5V | 00:00:00 | 03:15:25 | 00:00:00 | |
| OE5DRO-10 | 2026-08-31 07:07:16 | 48.18408 | 12.58105 | 67° | 68km/h | 4903m | -9.5m/s | -7.3°C | 81.8% | 562.6hPa | 2.5V | 00:00:00 | 00:00:00 | 00:00:00 | |
| DO3MHA-11 | 2026-08-31 07:07:15 | 48.18402 | 12.58083 | 66° | 71km/h | 4913m | -10.3m/s | -7.4°C | 79.7% | 562.1hPa | 2.5V | 00:00:00 | 03:15:20 | 00:00:00 | |
| DO3MHA-11 | 2026-08-31 07:07:10 | 48.18374 | 12.57955 | 72° | 66km/h | 4953m | -8.2m/s | -7.6°C | 74.1% | 558.9hPa | 2.5V | 08:04:00 | 03:15:15 | 00:00:00 | |
| OE5MMP-10 | 2026-08-31 07:07:06 | 48.18356 | 12.57861 | 70° | 62km/h | 4986m | -7.7m/s | -7.7°C | 64.3% | 556.7hPa | 2.6V | 00:00:00 | 03:15:11 | 00:00:00 | |
| DO3MHA-11 | 2026-08-31 07:07:05 | 48.18351 | 12.57835 | 77° | 66km/h | 4994m | -8.1m/s | -7.8°C | 65.5% | 556.1hPa | 2.6V | 00:00:00 | 03:15:10 | 00:00:00 | |
| DL6DJ-15 | 2026-08-31 07:06:57 | 48.18297 | 12.57514 | 77° | 53km/h | 5105m | -7.9m/s | -7.9°C | 17.9% | 548.1hPa | 2.6V | 00:00:00 | 00:00:00 | 00:00:00 | |
| DO3MHA-11 | 2026-08-31 07:06:56 | 48.18316 | 12.57623 | 72° | 57km/h | 5065m | -9.8m/s | -7.8°C | 35.4% | 551.1hPa | 2.6V | 00:00:00 | 03:15:01 | 00:00:00 | |
| OE5MMP-10 | 2026-08-31 07:06:55 | 48.18310 | 12.57603 | 67° | 57km/h | 5075m | -9.2m/s | -7.8°C | 32.2% | 550.4hPa | 2.6V | 00:00:00 | 03:15:00 | 00:00:00 | |
| OE5WHR-10 | 2026-08-31 07:06:48 | 48.18288 | 12.57451 | 79° | 55km/h | 5128m | -8.4m/s | -8.0°C | 13.5% | 546.5hPa | 2.6V | 08:05:00 | 00:00:00 | 00:00:00 | |
| DO3MHA-11 | 2026-08-31 07:06:46 | 48.18279 | 12.57412 | 71° | 57km/h | 5145m | -8.2m/s | -8.1°C | 12.5% | 545.3hPa | 2.5V | 00:00:00 | 03:14:51 | 00:00:00 | |
| OE5DRO-10 | 2026-08-31 07:06:44 | 48.18273 | 12.57368 | 86° | 57km/h | 5160m | -8.0m/s | -8.1°C | 8.2% | 544.4hPa | 2.6V | 08:05:00 | 00:00:00 | 00:00:00 | |
| DO3MHA-11 | 2026-08-31 07:06:36 | 48.18253 | 12.57203 | 80° | 57km/h | 5220m | -9.2m/s | -8.6°C | 6.7% | 539.8hPa | 2.6V | 00:00:00 | 03:14:41 | 00:00:00 | |
| PG1ADW-2 | 2026-08-31 07:06:35 | 48.18251 | 12.57181 | 84° | 60km/h | 5227m | -8.4m/s | -8.6°C | 6.7% | 539.3hPa | 2.6V | 00:00:00 | 00:00:00 | 00:00:00 | |
| OE5WHR-10 | 2026-08-31 07:06:31 | 48.18243 | 12.57096 | 85° | 58km/h | 5257m | -9.9m/s | -8.8°C | 6.6% | 536.9hPa | 2.6V | 00:00:00 | 00:00:00 | 00:00:00 | |
| DO7DH-14 | 2026-08-31 07:06:28 | 48.18237 | 12.57035 | 73° | 62km/h | 5281m | -10.2m/s | -8.9°C | 6.4% | 535.3hPa | 2.6V | 08:05:00 | 03:14:33 | 00:00:00 | |
| OE5DXL-15 | 2026-08-31 07:06:27 | 48.18233 | 12.57014 | 77° | 62km/h | 5289m | -10.3m/s | -8.9°C | 6.3% | 534.7hPa | 2.6V | 00:00:00 | 00:00:00 | 00:00:00 | |
| DO3MHA-11 | 2026-08-31 07:06:26 | 48.18230 | 12.56991 | 82° | 60km/h | 5297m | -9.3m/s | -8.9°C | 6.2% | 534.2hPa | 2.6V | 00:00:00 | 03:14:31 | 00:00:00 | |
| DL6DJ-15 | 2026-08-31 07:06:25 | 48.18229 | 12.56967 | 86° | 68km/h | 5305m | -9.2m/s | -9.1°C | 6.1% | 533.7hPa | 2.6V | 00:00:00 | 00:00:00 | 00:00:00 | |
| PG1ADW-2 | 2026-08-31 07:06:15 | 48.18216 | 12.56740 | 92° | 60km/h | 5387m | -9.7m/s | -9.5°C | 6.2% | 527.9hPa | 2.6V | 00:00:00 | 00:00:00 | 00:00:00 | |
| OE5WHR-10 | 2026-08-31 07:06:14 | 48.18216 | 12.56718 | 92° | 58km/h | 5395m | -9.6m/s | -9.5°C | 6.3% | 527.4hPa | 2.6V | 00:00:00 | 03:14:19 | 00:00:00 | |
| OE5DRO-10 | 2026-08-31 07:06:12 | 48.18213 | 12.56677 | 75° | 62km/h | 5412m | -10.7m/s | -9.7°C | 6.6% | 526.2hPa | 2.6V | 00:00:00 | 00:00:00 | 00:00:00 | |
| DO3MHA-11 | 2026-08-31 07:06:10 | 48.18208 | 12.56633 | 84° | 62km/h | 5429m | -10.8m/s | -9.8°C | 7.0% | 525.2hPa | 2.6V | 00:00:00 | 03:14:15 | 00:00:00 | |
| DL6DJ-15 | 2026-08-31 07:05:54 | 48.18191 | 12.56271 | 78° | 53km/h | 5567m | -10.1m/s | -10.3°C | 19.8% | 516.1hPa | 2.6V | 00:00:00 | 00:00:00 | 00:00:00 | |
| DO3MHA-11 | 2026-08-31 07:05:50 | 48.18185 | 12.56180 | 89° | 60km/h | 5602m | -9.7m/s | -10.6°C | 30.2% | 513.9hPa | 2.6V | 00:00:00 | 03:13:55 | 00:00:00 | |
| OE5MMP-10 | 2026-08-31 07:05:45 | 48.18184 | 12.56071 | 84° | 60km/h | 5649m | -10.2m/s | -10.9°C | 27.5% | 511.1hPa | 2.6V | 00:00:00 | 03:13:50 | 00:00:00 | |
| DO3MHA-11 | 2026-08-31 07:05:40 | 48.18173 | 12.55953 | 91° | 62km/h | 5694m | -7.4m/s | -11.1°C | 23.8% | 508.2hPa | 2.6V | 08:06:00 | 03:13:45 | 00:00:00 | |
| OE5DRO-10 | 2026-08-31 07:05:37 | 48.18176 | 12.55884 | 90° | 60km/h | 5717m | -8.3m/s | -11.4°C | 25.0% | 506.2hPa | 2.6V | 00:00:00 | 00:00:00 | 00:00:00 | |
| OE5WHR-10 | 2026-08-31 07:05:36 | 48.18176 | 12.55864 | 83° | 60km/h | 5724m | -8.3m/s | -11.4°C | 26.3% | 505.6hPa | 2.6V | 00:00:00 | 00:00:00 | 00:00:00 | |
| OE5MMP-10 | 2026-08-31 07:05:35 | 48.18174 | 12.55842 | 80° | 62km/h | 5732m | -9.0m/s | -11.5°C | 27.9% | 505.2hPa | 2.6V | 08:06:00 | 03:13:40 | 00:00:00 | |
| DO3MHA-11 | 2026-08-31 07:05:30 | 48.18167 | 12.55723 | 93° | 60km/h | 5773m | -9.8m/s | -11.7°C | 30.2% | 502.2hPa | 2.5V | 00:00:00 | 03:13:35 | 00:00:00 | |
| DO7DH-14 | 2026-08-31 07:05:28 | 48.18166 | 12.55682 | 78° | 60km/h | 5790m | -10.8m/s | -11.8°C | 32.8% | 501.2hPa | 2.5V | 00:00:00 | 03:13:33 | 00:00:00 | |
| OE5DXL-15 | 2026-08-31 07:05:27 | 48.18163 | 12.55659 | 82° | 60km/h | 5800m | -9.8m/s | -11.8°C | 35.0% | 500.6hPa | 2.5V | 00:00:00 | 00:00:00 | 00:00:00 | |
| OE5MMP-10 | 2026-08-31 07:05:25 | 48.18160 | 12.55610 | 85° | 58km/h | 5819m | -10.9m/s | -12.0°C | 34.8% | 499.5hPa | 2.5V | 00:00:00 | 03:13:30 | 00:00:00 | |
| DL6DJ-15 | 2026-08-31 07:05:23 | 48.18157 | 12.55562 | 84° | 62km/h | 5838m | -10.8m/s | -12.1°C | 32.4% | 498.4hPa | 2.5V | 00:00:00 | 00:00:00 | 00:00:00 | |
| DO3MHA-11 | 2026-08-31 07:05:20 | 48.18155 | 12.55495 | 87° | 60km/h | 5870m | -10.0m/s | -12.3°C | 33.3% | 496.6hPa | 2.5V | 00:00:00 | 03:13:25 | 00:00:00 | |
| OE5WHR-10 | 2026-08-31 07:05:15 | 48.18142 | 12.55389 | 77° | 62km/h | 5914m | -8.7m/s | -12.7°C | 39.5% | 493.5hPa | 2.5V | 00:00:00 | 03:13:20 | 00:00:00 | |
| NBG1-10 | 2026-08-31 07:05:13 | 48.18135 | 12.55339 | 82° | 58km/h | 5930m | -8.3m/s | -12.9°C | 38.8% | 492.4hPa | 2.5V | 00:00:00 | 03:13:18 | 00:00:00 | |
| DO3MHA-11 | 2026-08-31 07:05:10 | 48.18130 | 12.55270 | 82° | 60km/h | 5956m | -8.6m/s | -12.9°C | 17.9% | 490.7hPa | 2.5V | 00:00:00 | 03:13:15 | 00:00:00 | |
| OE5MMP-10 | 2026-08-31 07:05:05 | 48.18112 | 12.55163 | 75° | 62km/h | 5999m | -10.8m/s | -13.1°C | 10.0% | 488.0hPa | 2.6V | 00:00:00 | 03:13:10 | 00:00:00 | |
| DL6DJ-15 | 2026-08-31 07:04:52 | 48.18006 | 12.54692 | 58° | 53km/h | 6176m | -10.7m/s | -14.3°C | 16.2% | 476.6hPa | 2.6V | 00:00:00 | 00:00:00 | 00:00:00 | |
| DO3MHA-11 | 2026-08-31 07:04:50 | 48.18043 | 12.54826 | 75° | 57km/h | 6128m | -9.6m/s | -13.8°C | 18.3% | 479.7hPa | 2.6V | 00:00:00 | 03:12:55 | 00:00:00 | |
| OE5MMP-10 | 2026-08-31 07:04:45 | 48.18013 | 12.54712 | 58° | 47km/h | 6167m | -10.2m/s | -14.2°C | 16.8% | 477.0hPa | 2.6V | 00:00:00 | 03:12:50 | 00:00:00 | |
| DO3MHA-11 | 2026-08-31 07:04:40 | 48.17977 | 12.54623 | 58° | 47km/h | 6215m | -9.8m/s | -14.6°C | 16.9% | 474.2hPa | 2.6V | 00:00:00 | 03:12:45 | 00:00:00 | |
| OE5MMP-10 | 2026-08-31 07:04:35 | 48.17954 | 12.54549 | 72° | 58km/h | 6263m | -9.4m/s | -15.0°C | 18.6% | 471.2hPa | 2.5V | 00:00:00 | 03:12:40 | 00:00:00 | |
| OE5WHR-10 | 2026-08-31 07:04:33 | 48.17949 | 12.54511 | 76° | 64km/h | 6281m | -9.0m/s | -15.1°C | 18.7% | 470.0hPa | 2.6V | 00:00:00 | 00:00:00 | 00:00:00 | |
| DO3MHA-11 | 2026-08-31 07:04:30 | 48.17937 | 12.54446 | 68° | 64km/h | 6307m | -9.2m/s | -15.4°C | 18.0% | 468.4hPa | 2.6V | 00:00:00 | 03:12:35 | 00:00:00 | |
| DO7DH-14 | 2026-08-31 07:04:28 | 48.17924 | 12.54403 | 66° | 66km/h | 6324m | -10.6m/s | -15.6°C | 19.5% | 467.5hPa | 2.6V | 00:00:00 | 03:12:33 | 00:00:00 | |
| OE5FHM-15 | 2026-08-31 07:04:27 | 48.17918 | 12.54382 | 65° | 66km/h | 6334m | -10.2m/s | -15.6°C | 22.1% | 466.9hPa | 2.6V | 00:00:00 | 03:12:32 | 00:00:00 | |
| OE5MMP-10 | 2026-08-31 07:04:25 | 48.17906 | 12.54341 | 73° | 66km/h | 6353m | -10.9m/s | -15.6°C | 38.5% | 465.5hPa | 2.6V | 00:00:00 | 03:12:30 | 00:00:00 | |
| OE5DRO-10 | 2026-08-31 07:04:21 | 48.17888 | 12.54251 | 78° | 66km/h | 6390m | -11.1m/s | -15.9°C | 51.7% | 463.5hPa | 2.6V | 00:00:00 | 00:00:00 | 00:00:00 | |
| DO3MHA-11 | 2026-08-31 07:04:20 | 48.17882 | 12.54228 | 67° | 66km/h | 6400m | -11.0m/s | -16.0°C | 52.8% | 462.9hPa | 2.6V | 00:00:00 | 03:12:25 | 00:00:00 | |
| OE5MMP-10 | 2026-08-31 07:04:15 | 48.17856 | 12.54112 | 69° | 64km/h | 6448m | -9.1m/s | -16.4°C | 57.2% | 460.0hPa | 2.6V | 00:00:00 | 03:12:20 | 00:00:00 | |
| OE5WHR-10 | 2026-08-31 07:04:12 | 48.17836 | 12.54040 | 64° | 64km/h | 6475m | -10.1m/s | -16.7°C | 59.4% | 458.4hPa | 2.6V | 00:00:00 | 03:12:17 | 00:00:00 | |
| DO3MHA-11 | 2026-08-31 07:04:10 | 48.17823 | 12.53999 | 69° | 64km/h | 6495m | -9.0m/s | -16.9°C | 60.2% | 457.3hPa | 2.6V | 08:07:00 | 03:12:15 | 00:00:00 | |
| OE5DRO-10 | 2026-08-31 07:04:02 | 48.17780 | 12.53814 | 67° | 64km/h | 6570m | -9.6m/s | -17.5°C | 68.3% | 452.7hPa | 2.5V | 08:08:00 | 00:00:00 | 00:00:00 | |
| DO3MHA-11 | 2026-08-31 07:04:00 | 48.17769 | 12.53768 | 69° | 64km/h | 6589m | -7.8m/s | -17.6°C | 69.3% | 451.6hPa | 2.6V | 00:00:00 | 03:12:05 | 00:00:00 | |
| DO7DH-14 | 2026-08-31 07:03:58 | 48.17757 | 12.53719 | 66° | 64km/h | 6606m | -7.0m/s | -17.8°C | 70.8% | 450.7hPa | 2.6V | 00:00:00 | 03:12:03 | 00:00:00 | |
| OE5FHM-15 | 2026-08-31 07:03:57 | 48.17751 | 12.53695 | 72° | 66km/h | 6613m | -8.6m/s | -17.8°C | 71.1% | 450.1hPa | 2.6V | 00:00:00 | 03:12:02 | 00:00:00 | |
| OE5MMP-10 | 2026-08-31 07:03:55 | 48.17736 | 12.53650 | 62° | 60km/h | 6632m | -9.4m/s | -17.9°C | 68.5% | 449.0hPa | 2.6V | 00:00:00 | 03:12:00 | 00:00:00 | |
| OE5WHR-10 | 2026-08-31 07:03:51 | 48.17709 | 12.53563 | 66° | 66km/h | 6666m | -10.3m/s | -18.1°C | 62.2% | 446.9hPa | 2.6V | 08:08:00 | 00:00:00 | 00:00:00 | |
| DO3MHA-11 | 2026-08-31 07:03:50 | 48.17702 | 12.53543 | 66° | 66km/h | 6675m | -9.1m/s | -18.1°C | 59.4% | 446.3hPa | 2.6V | 00:00:00 | 03:11:55 | 00:00:00 | |
| OE5MMP-10 | 2026-08-31 07:03:45 | 48.17684 | 12.53433 | 73° | 68km/h | 6724m | -11.1m/s | -18.5°C | 54.4% | 443.3hPa | 2.6V | 00:00:00 | 03:11:50 | 00:00:00 | |
| OE5DRO-10 | 2026-08-31 07:03:43 | 48.17672 | 12.53382 | 75° | 68km/h | 6743m | -8.7m/s | -18.6°C | 53.0% | 442.3hPa | 2.6V | 00:00:00 | 00:00:00 | 00:00:00 | |
| DO3MHA-11 | 2026-08-31 07:03:40 | 48.17658 | 12.53306 | 72° | 64km/h | 6770m | -8.2m/s | -18.9°C | 49.5% | 440.8hPa | 2.6V | 00:00:00 | 03:11:45 | 00:00:00 | |
| OE5MMP-10 | 2026-08-31 07:03:35 | 48.17630 | 12.53195 | 69° | 69km/h | 6818m | -11.0m/s | -19.2°C | 47.5% | 437.7hPa | 2.6V | 00:00:00 | 03:11:40 | 00:00:00 | |
| DO3MHA-11 | 2026-08-31 07:03:30 | 48.17603 | 12.53073 | 78° | 71km/h | 6867m | -9.7m/s | -19.6°C | 47.0% | 435.1hPa | 2.6V | 00:00:00 | 03:11:35 | 00:00:00 | |
| DO7DH-14 | 2026-08-31 07:03:28 | 48.17592 | 12.53024 | 71° | 71km/h | 6886m | -8.7m/s | -19.8°C | 47.0% | 433.8hPa | 2.6V | 00:00:00 | 03:11:33 | 00:00:00 | |
| OE5DXL-15 | 2026-08-31 07:03:27 | 48.17586 | 12.52998 | 77° | 71km/h | 6894m | -9.0m/s | -19.9°C | 47.6% | 433.2hPa | 2.6V | 00:00:00 | 00:00:00 | 00:00:00 | |
| OE5MMP-10 | 2026-08-31 07:03:25 | 48.17576 | 12.52945 | 74° | 71km/h | 6910m | -7.4m/s | -20.0°C | 47.0% | 432.4hPa | 2.6V | 00:00:00 | 03:11:30 | 00:00:00 | |
| OE5DRO-10 | 2026-08-31 07:03:24 | 48.17569 | 12.52917 | 70° | 69km/h | 6917m | -11.0m/s | -20.0°C | 47.3% | 431.8hPa | 2.6V | 00:00:00 | 00:00:00 | 00:00:00 | |
| DO3MHA-11 | 2026-08-31 07:03:20 | 48.17546 | 12.52814 | 69° | 66km/h | 6959m | -9.5m/s | -20.3°C | 47.1% | 429.5hPa | 2.6V | 00:00:00 | 03:11:25 | 00:00:00 | |
| OE5MMP-10 | 2026-08-31 07:03:15 | 48.17510 | 12.52686 | 62° | 68km/h | 7002m | -9.8m/s | -20.6°C | 47.9% | 426.8hPa | 2.6V | 00:00:00 | 03:11:20 | 00:00:00 | |
| DO3MHA-11 | 2026-08-31 07:03:10 | 48.17479 | 12.52580 | 74° | 75km/h | 7053m | -10.2m/s | -21.1°C | 50.2% | 424.1hPa | 2.6V | 00:00:00 | 03:11:15 | 00:00:00 | |
| OE5WHR-10 | 2026-08-31 07:03:09 | 48.17475 | 12.52555 | 77° | 71km/h | 7063m | -10.5m/s | -21.2°C | 50.6% | 423.5hPa | 2.5V | 00:00:00 | 03:11:14 | 00:00:00 | |
| OE5MMP-10 | 2026-08-31 07:03:05 | 48.17450 | 12.52447 | 68° | 71km/h | 7101m | -9.2m/s | -21.5°C | 52.0% | 421.2hPa | 2.5V | 00:00:00 | 03:11:10 | 00:00:00 | |
| DO3MHA-11 | 2026-08-31 07:03:00 | 48.17412 | 12.52317 | 57° | 68km/h | 7142m | -9.8m/s | -21.8°C | 56.2% | 419.0hPa | 2.6V | 00:00:00 | 03:11:05 | 00:00:00 | |
| DO7DH-14 | 2026-08-31 07:02:58 | 48.17390 | 12.52268 | 54° | 69km/h | 7163m | -12.1m/s | -22.0°C | 56.3% | 417.6hPa | 2.6V | 00:00:00 | 03:11:03 | 00:00:00 | |
| OE5DXL-15 | 2026-08-31 07:02:57 | 48.17380 | 12.52246 | 57° | 69km/h | 7175m | -11.6m/s | -22.0°C | 56.4% | 417.0hPa | 2.6V | 00:00:00 | 00:00:00 | 00:00:00 | |
| OE5MMP-10 | 2026-08-31 07:02:55 | 48.17367 | 12.52206 | 66° | 68km/h | 7196m | -9.8m/s | -22.2°C | 56.2% | 415.9hPa | 2.6V | 00:00:00 | 03:11:00 | 00:00:00 | |
| NBG1-10 | 2026-08-31 07:02:51 | 48.17338 | 12.52117 | 64° | 69km/h | 7233m | -9.2m/s | -22.5°C | 56.6% | 413.8hPa | 2.6V | 00:00:00 | 03:10:56 | 00:00:00 | |
| DO3MHA-11 | 2026-08-31 07:02:50 | 48.17330 | 12.52093 | 62° | 68km/h | 7243m | -9.0m/s | -22.6°C | 56.6% | 413.3hPa | 2.6V | 00:00:00 | 03:10:55 | 00:00:00 | |
| OE5WHR-10 | 2026-08-31 07:02:48 | 48.17312 | 12.52044 | 62° | 69km/h | 7260m | -8.9m/s | -22.7°C | 57.1% | 412.3hPa | 2.6V | 00:00:00 | 00:00:00 | 00:00:00 | |
| OE5DRO-10 | 2026-08-31 07:02:46 | 48.17293 | 12.51996 | 62° | 69km/h | 7278m | -8.0m/s | -22.9°C | 57.5% | 411.3hPa | 2.5V | 00:00:00 | 00:00:00 | 00:00:00 | |
| OE5MMP-10 | 2026-08-31 07:02:45 | 48.17285 | 12.51975 | 55° | 66km/h | 7285m | -9.1m/s | -23.0°C | 57.9% | 410.8hPa | 2.5V | 00:00:00 | 03:10:50 | 00:00:00 | |
| DO3MHA-11 | 2026-08-31 07:02:40 | 48.17242 | 12.51869 | 66° | 71km/h | 7335m | -10.8m/s | -23.4°C | 58.8% | 408.3hPa | 2.5V | 08:09:00 | 03:10:45 | 00:00:00 | |
| OE5MMP-10 | 2026-08-31 07:02:35 | 48.17198 | 12.51759 | 67° | 71km/h | 7381m | -8.4m/s | -23.8°C | 55.8% | 405.7hPa | 2.5V | 08:09:00 | 03:10:40 | 00:00:00 | |
| OE5FHM-15 | 2026-08-31 07:02:31 | 48.17169 | 12.51656 | 66° | 89km/h | 7415m | -7.9m/s | -24.0°C | 39.2% | 403.5hPa | 2.6V | 00:00:00 | 03:10:36 | 00:00:00 | |
| DO3MHA-11 | 2026-08-31 07:02:30 | 48.17161 | 12.51629 | 58° | 64km/h | 7422m | -10.0m/s | -24.1°C | 36.2% | 403.0hPa | 2.6V | 00:00:00 | 03:10:35 | 00:00:00 | |
| DO7DH-14 | 2026-08-31 07:02:28 | 48.17140 | 12.51579 | 55° | 66km/h | 7441m | -11.8m/s | -24.2°C | 28.0% | 401.9hPa | 2.6V | 00:00:00 | 03:10:33 | 00:00:00 | |
| OE5DXL-15 | 2026-08-31 07:02:27 | 48.17129 | 12.51558 | 53° | 68km/h | 7451m | -12.2m/s | -24.2°C | 24.7% | 401.4hPa | 2.6V | 00:00:00 | 00:00:00 | 00:00:00 | |
| OE5MMP-10 | 2026-08-31 07:02:25 | 48.17111 | 12.51520 | 51° | 64km/h | 7473m | -11.0m/s | -24.3°C | 21.6% | 400.3hPa | 2.6V | 00:00:00 | 03:10:30 | 00:00:00 | |
| DO3MHA-11 | 2026-08-31 07:02:20 | 48.17075 | 12.51420 | 69° | 64km/h | 7527m | -10.8m/s | -24.5°C | 21.0% | 397.7hPa | 2.6V | 00:00:00 | 03:10:25 | 00:00:00 | |
| NBG1-10 | 2026-08-31 07:02:18 | 48.17059 | 12.51367 | 64° | 71km/h | 7546m | -8.7m/s | -24.6°C | 19.7% | 396.7hPa | 2.6V | 08:09:00 | 03:10:23 | 00:00:00 | |
| DL6DJ-15 | 2026-08-31 07:02:17 | 48.17052 | 12.51342 | 71° | 64km/h | 7554m | -10.3m/s | -24.8°C | 18.1% | 396.1hPa | 2.5V | 00:00:00 | 00:00:00 | 00:00:00 | |
| OE5MMP-10 | 2026-08-31 07:02:15 | 48.17037 | 12.51296 | 59° | 64km/h | 7572m | -9.4m/s | -24.8°C | 17.6% | 395.1hPa | 2.5V | 00:00:00 | 03:10:20 | 00:00:00 | |
| DO3MHA-11 | 2026-08-31 07:02:10 | 48.17003 | 12.51197 | 67° | 71km/h | 7622m | -12.5m/s | -25.1°C | 16.5% | 392.4hPa | 2.5V | 00:00:00 | 03:10:15 | 00:00:00 | |
| OE5DRO-10 | 2026-08-31 07:02:08 | 48.16991 | 12.51150 | 65° | 77km/h | 7647m | -11.1m/s | -25.3°C | 16.0% | 391.1hPa | 2.6V | 00:00:00 | 00:00:00 | 00:00:00 | |
| OE5WHR-10 | 2026-08-31 07:02:06 | 48.16975 | 12.51099 | 64° | 77km/h | 7667m | -8.6m/s | -25.5°C | 15.8% | 390.0hPa | 2.5V | 00:00:00 | 03:10:11 | 00:00:00 | |
| OE5MMP-10 | 2026-08-31 07:02:05 | 48.16967 | 12.51074 | 66° | 77km/h | 7675m | -9.3m/s | -25.5°C | 15.3% | 389.5hPa | 2.5V | 00:00:00 | 03:10:10 | 00:00:00 | |
| DG1MFX-10 | 2026-08-31 07:02:04 | 48.16967 | 12.51074 | 66° | 73km/h | 7675m | -9.4m/s | -25.6°C | 14.4% | 389.5hPa | 2.6V | 00:00:00 | 00:00:00 | 00:00:00 | |
| DL6DJ-15 | 2026-08-31 07:01:46 | 48.16851 | 12.50557 | 79° | 82km/h | 7864m | -11.7m/s | -26.8°C | 10.1% | 379.4hPa | 2.6V | 00:00:00 | 00:00:00 | 00:00:00 | |
| OE5MMP-10 | 2026-08-31 07:01:45 | 48.16846 | 12.50526 | 76° | 88km/h | 7876m | -10.8m/s | -26.7°C | 10.2% | 378.8hPa | 2.6V | 00:00:00 | 03:09:50 | 00:00:00 | |
| DO3MHA-11 | 2026-08-31 07:01:40 | 48.16818 | 12.50365 | 73° | 86km/h | 7927m | -9.6m/s | -26.8°C | 7.5% | 376.6hPa | 2.6V | 00:00:00 | 03:09:45 | 00:00:00 | |
| DG1MFX-10 | 2026-08-31 07:01:36 | 48.16799 | 12.50265 | 73° | 91km/h | 7955m | -9.0m/s | -27.0°C | 6.6% | 374.7hPa | 2.6V | 00:00:00 | 00:00:00 | 00:00:00 | |
| PG1ADW-2 | 2026-08-31 07:01:35 | 48.16781 | 12.50200 | 66° | 91km/h | 7971m | -8.6m/s | -27.1°C | 7.2% | 373.8hPa | 2.6V | 00:00:00 | 00:00:00 | 00:00:00 | |
| DO3MHA-11 | 2026-08-31 07:01:30 | 48.16749 | 12.50057 | 84° | 93km/h | 8017m | -11.0m/s | -27.4°C | 7.3% | 371.4hPa | 2.6V | 00:00:00 | 03:09:35 | 00:00:00 | |
| DO7DH-14 | 2026-08-31 07:01:28 | 48.16742 | 12.49989 | 80° | 102km/h | 8038m | -12.8m/s | -27.5°C | 7.2% | 370.3hPa | 2.6V | 00:00:00 | 03:09:33 | 00:00:00 | |
| OE5DXL-15 | 2026-08-31 07:01:27 | 48.16736 | 12.49953 | 76° | 102km/h | 8050m | -11.5m/s | -27.6°C | 7.3% | 369.8hPa | 2.6V | 08:10:00 | 00:00:00 | 00:00:00 | |
| OE5MMP-10 | 2026-08-31 07:01:25 | 48.16720 | 12.49879 | 70° | 95km/h | 8070m | -11.2m/s | -27.6°C | 7.2% | 368.7hPa | 2.6V | 00:00:00 | 03:09:30 | 00:00:00 | |
| OE5WHR-10 | 2026-08-31 07:01:24 | 48.16711 | 12.49845 | 66° | 100km/h | 8082m | -11.2m/s | -27.6°C | 7.0% | 368.1hPa | 2.6V | 00:00:00 | 00:00:00 | 00:00:00 | |
| OE5FHM-15 | 2026-08-31 07:01:23 | 48.16701 | 12.49813 | 65° | 102km/h | 8092m | -12.0m/s | -27.7°C | 7.0% | 367.5hPa | 2.6V | 00:00:00 | 03:09:28 | 00:00:00 | |
| DO3MHA-11 | 2026-08-31 07:01:20 | 48.16679 | 12.49720 | 72° | 104km/h | 8126m | -10.9m/s | -27.8°C | 6.8% | 366.0hPa | 2.6V | 00:00:00 | 03:09:25 | 00:00:00 | |
| DG1MJG | 2026-08-31 07:01:18 | 48.16672 | 12.49686 | 74° | 95km/h | 8137m | -10.6m/s | -27.9°C | 0% | 365.5hPa | 2.6V | 00:00:00 | 00:00:00 | 00:00:00 | |
| OE5MMP-10 | 2026-08-31 07:01:15 | 48.16641 | 12.49539 | 70° | 108km/h | 8177m | -9.7m/s | -28.0°C | 6.6% | 363.4hPa | 2.6V | 00:00:00 | 03:09:20 | 00:00:00 | |
| DG1MFX-10 | 2026-08-31 07:01:13 | 48.16632 | 12.49501 | 73° | 106km/h | 8186m | -9.7m/s | -28.1°C | 5.7% | 363.0hPa | 2.6V | 00:00:00 | 00:00:00 | 00:00:00 | |
| DO3MHA-11 | 2026-08-31 07:01:09 | 48.16594 | 12.49307 | 71° | 102km/h | 8235m | -10.6m/s | -28.4°C | 6.6% | 360.6hPa | 2.6V | 08:10:00 | 03:09:14 | 00:00:00 | |
| OE5MMP-10 | 2026-08-31 07:01:05 | 48.16552 | 12.49155 | 66° | 104km/h | 8274m | -10.6m/s | -28.5°C | 6.1% | 358.4hPa | 2.6V | 08:10:00 | 03:09:10 | 00:00:00 | |
| OE5WHR-10 | 2026-08-31 07:01:03 | 48.16534 | 12.49090 | 69° | 108km/h | 8295m | -9.8m/s | -28.6°C | 6.3% | 357.7hPa | 2.6V | 00:00:00 | 03:09:08 | 00:00:00 | |
| DO3MHA-11 | 2026-08-31 07:00:58 | 48.16492 | 12.48896 | 67° | 102km/h | 8342m | -9.6m/s | -29.0°C | 8.5% | 355.1hPa | 2.6V | 00:00:00 | 03:09:03 | 00:00:00 | |
| OE5DXL-15 | 2026-08-31 07:00:57 | 48.16480 | 12.48855 | 65° | 111km/h | 8352m | -11.2m/s | -29.1°C | 9.1% | 354.6hPa | 2.6V | 00:00:00 | 00:00:00 | 00:00:00 | |
| OE5MMP-10 | 2026-08-31 07:00:55 | 48.16458 | 12.48782 | 68° | 106km/h | 8372m | -10.4m/s | -29.2°C | 9.8% | 353.6hPa | 2.6V | 00:00:00 | 03:09:00 | 00:00:00 | |
| OE5FHM-15 | 2026-08-31 07:00:52 | 48.16434 | 12.48683 | 75° | 113km/h | 8403m | -11.3m/s | -29.4°C | 13.3% | 352.2hPa | 2.6V | 08:11:00 | 03:08:57 | 00:00:00 | |
| DO3MHA-11 | 2026-08-31 07:00:48 | 48.16405 | 12.48532 | 73° | 115km/h | 8449m | -10.5m/s | -29.7°C | 17.0% | 350.1hPa | 2.6V | 00:00:00 | 03:08:53 | 00:00:00 | |
| OE5MMP-10 | 2026-08-31 07:00:45 | 48.16377 | 12.48403 | 73° | 115km/h | 8481m | -10.1m/s | -29.9°C | 20.7% | 348.3hPa | 2.6V | 00:00:00 | 03:08:50 | 00:00:00 | |
| DL6DJ-15 | 2026-08-31 07:00:44 | 48.16361 | 12.48320 | 75° | 111km/h | 8503m | -9.9m/s | -30.0°C | 22.1% | 347.7hPa | 2.6V | 00:00:00 | 00:00:00 | 00:00:00 | |
| OE5WHR-10 | 2026-08-31 07:00:42 | 48.16353 | 12.48279 | 73° | 117km/h | 8513m | -9.9m/s | -30.0°C | 25.1% | 347.0hPa | 2.6V | 08:11:00 | 00:00:00 | 00:00:00 | |
| DO3MHA-11 | 2026-08-31 07:00:38 | 48.16321 | 12.48114 | 74° | 117km/h | 8552m | -9.6m/s | -30.4°C | 31.5% | 344.9hPa | 2.5V | 00:00:00 | 03:08:43 | 00:00:00 | |
| DG1MJG | 2026-08-31 07:00:37 | 48.16320 | 12.48114 | 74° | 113km/h | 8552m | -9.6m/s | -30.4°C | 30.0% | 345.0hPa | 2.6V | 00:00:00 | 00:00:00 | 00:00:00 | |
| OE5MMP-10 | 2026-08-31 07:00:35 | 48.16287 | 12.47991 | 68° | 115km/h | 8584m | -9.6m/s | -30.6°C | 33.9% | 343.4hPa | 2.6V | 00:00:00 | 03:08:40 | 00:00:00 | |
| OE5DRO-10 | 2026-08-31 07:00:33 | 48.16262 | 12.47908 | 66° | 119km/h | 8603m | -9.2m/s | -30.8°C | 33.6% | 342.4hPa | 2.6V | 00:00:00 | 00:00:00 | 00:00:00 | |
| DG1MFX-10 | 2026-08-31 07:00:31 | 48.16250 | 12.47868 | 67° | 117km/h | 8613m | -9.4m/s | -30.9°C | 31.5% | 341.9hPa | 2.6V | 00:00:00 | 00:00:00 | 00:00:00 | |
| DO3MHA-11 | 2026-08-31 07:00:28 | 48.16208 | 12.47709 | 70° | 119km/h | 8649m | -10.2m/s | -31.1°C | 28.8% | 339.9hPa | 2.6V | 00:00:00 | 03:08:33 | 00:00:00 | |
| OE5DXL-15 | 2026-08-31 07:00:27 | 48.16199 | 12.47669 | 72° | 122km/h | 8659m | -10.0m/s | -31.2°C | 28.2% | 339.4hPa | 2.6V | 00:00:00 | 00:00:00 | 00:00:00 | |
| DB0UT-7 | 2026-08-31 07:00:26 | 48.16191 | 12.47630 | 74° | 122km/h | 8669m | -10.1m/s | -31.3°C | 28.5% | 338.8hPa | 2.6V | 08:11:00 | 03:08:31 | 00:00:00 | |
| OE5MMP-10 | 2026-08-31 07:00:25 | 48.16183 | 12.47589 | 74° | 122km/h | 8679m | -10.3m/s | -31.4°C | 29.3% | 338.4hPa | 2.6V | 00:00:00 | 03:08:30 | 00:00:00 | |
| OE5FHM-15 | 2026-08-31 07:00:22 | 48.16151 | 12.47459 | 67° | 126km/h | 8707m | -10.1m/s | -31.6°C | 28.7% | 337.1hPa | 2.6V | 00:00:00 | 03:08:27 | 00:00:00 | |
| OE5WHR-10 | 2026-08-31 07:00:21 | 48.16137 | 12.47415 | 65° | 124km/h | 8716m | -11.4m/s | -31.7°C | 28.3% | 336.7hPa | 2.6V | 00:00:00 | 00:00:00 | 00:00:00 | |
| DO3MHA-11 | 2026-08-31 07:00:18 | 48.16105 | 12.47294 | 71° | 119km/h | 8747m | -10.7m/s | -32.0°C | 25.2% | 335.3hPa | 2.6V | 00:00:00 | 03:08:23 | 00:00:00 | |
| OE5MMP-10 | 2026-08-31 07:00:15 | 48.16070 | 12.47163 | 64° | 120km/h | 8776m | -11.2m/s | -32.2°C | 21.4% | 333.5hPa | 2.6V | 00:00:00 | 03:08:20 | 00:00:00 | |
| OE5DRO-10 | 2026-08-31 07:00:14 | 48.16056 | 12.47121 | 65° | 124km/h | 8787m | -12.2m/s | -32.3°C | 19.9% | 333.1hPa | 2.6V | 00:00:00 | 00:00:00 | 00:00:00 | |
| DL6DJ-15 | 2026-08-31 07:00:13 | 48.16031 | 12.47041 | 63° | 111km/h | 8809m | -11.6m/s | -32.5°C | 15.7% | 332.2hPa | 2.6V | 00:00:00 | 00:00:00 | 00:00:00 | |
| DG1MFX-10 | 2026-08-31 07:00:12 | 48.16031 | 12.47041 | 65° | 113km/h | 8809m | -11.6m/s | -32.5°C | 15.7% | 332.2hPa | 2.6V | 00:00:00 | 00:00:00 | 00:00:00 | |
| DO3MHA-11 | 2026-08-31 07:00:08 | 48.15994 | 12.46881 | 71° | 131km/h | 8850m | -12.0m/s | -32.5°C | 17.5% | 330.1hPa | 2.6V | 00:00:00 | 03:08:13 | 00:00:00 | |
| OE5MMP-10 | 2026-08-31 07:00:05 | 48.15964 | 12.46741 | 71° | 130km/h | 8882m | -10.3m/s | -32.7°C | 17.6% | 328.7hPa | 2.5V | 00:00:00 | 03:08:10 | 00:00:00 | |
| OE5DXL-15 | 2026-08-31 06:59:57 | 48.15871 | 12.46379 | 76° | 124km/h | 8965m | -10.0m/s | -33.4°C | 19.2% | 325.1hPa | 2.6V | 00:00:00 | 00:00:00 | 00:00:00 | |
| DB0UT-7 | 2026-08-31 06:59:56 | 48.15863 | 12.46332 | 76° | 124km/h | 8975m | -12.0m/s | -33.4°C | 20.0% | 324.7hPa | 2.5V | 00:00:00 | 00:00:00 | 00:00:00 | |
| OE5MMP-10 | 2026-08-31 06:59:55 | 48.15855 | 12.46284 | 74° | 124km/h | 8986m | -14.1m/s | -33.5°C | 20.8% | 323.9hPa | 2.5V | 00:00:00 | 03:08:00 | 00:00:00 | |
| OE5FHM-15 | 2026-08-31 06:59:52 | 48.15819 | 12.46142 | 63° | 126km/h | 9022m | -10.9m/s | -33.8°C | 21.4% | 322.7hPa | 2.5V | 00:00:00 | 03:07:57 | 00:00:00 | |
| DG1MFX-10 | 2026-08-31 06:59:50 | 48.15805 | 12.46100 | 66° | 115km/h | 9034m | -11.5m/s | -33.9°C | 19.7% | 322.3hPa | 2.5V | 00:00:00 | 00:00:00 | 00:00:00 | |
| DO3MHA-11 | 2026-08-31 06:59:48 | 48.15777 | 12.45983 | 76° | 128km/h | 9068m | -10.7m/s | -34.1°C | 20.8% | 320.9hPa | 2.5V | 00:00:00 | 03:07:53 | 00:00:00 | |
| OE5MMP-10 | 2026-08-31 06:59:45 | 48.15754 | 12.45847 | 75° | 128km/h | 9101m | -10.4m/s | -34.3°C | 18.7% | 319.2hPa | 2.5V | 00:00:00 | 03:07:50 | 00:00:00 | |
| DL6DJ-15 | 2026-08-31 06:59:42 | 48.15712 | 12.45662 | 68° | 126km/h | 9141m | -9.4m/s | -34.7°C | 15.6% | 317.3hPa | 2.5V | 00:00:00 | 00:00:00 | 00:00:00 | |
| OE5WHR-10 | 2026-08-31 06:59:39 | 48.15687 | 12.45572 | 68° | 124km/h | 9160m | -10.8m/s | -34.8°C | 17.6% | 316.2hPa | 2.5V | 00:00:00 | 00:00:00 | 00:00:00 | |
| DO3MHA-11 | 2026-08-31 06:59:38 | 48.15675 | 12.45527 | 69° | 120km/h | 9171m | -10.3m/s | -34.8°C | 17.8% | 315.7hPa | 2.5V | 08:12:00 | 03:07:43 | 00:00:00 | |
| OE5DRO-10 | 2026-08-31 06:59:36 | 48.15651 | 12.45439 | 69° | 119km/h | 9192m | -8.9m/s | -35.0°C | 18.0% | 315.1hPa | 2.6V | 00:00:00 | 00:00:00 | 00:00:00 | |
| OE5MMP-10 | 2026-08-31 06:59:35 | 48.15641 | 12.45396 | 74° | 122km/h | 9201m | -9.0m/s | -35.0°C | 18.4% | 314.5hPa | 2.6V | 08:12:00 | 03:07:40 | 00:00:00 | |
| NBG1-10 | 2026-08-31 06:59:32 | 48.15606 | 12.45262 | 64° | 120km/h | 9230m | -10.9m/s | -35.3°C | 17.9% | 313.1hPa | 2.5V | 00:00:00 | 03:07:37 | 00:00:00 | |
| DG1MFX-10 | 2026-08-31 06:59:31 | 48.15594 | 12.45221 | 68° | 113km/h | 9241m | -12.5m/s | -35.4°C | 15.5% | 312.7hPa | 2.5V | 08:13:00 | 00:00:00 | 00:00:00 | |
| DO3MHA-11 | 2026-08-31 06:59:28 | 48.15564 | 12.45100 | 75° | 126km/h | 9275m | -11.0m/s | -35.5°C | 17.2% | 311.2hPa | 2.5V | 00:00:00 | 03:07:33 | 00:00:00 | |
| OE5DXL-15 | 2026-08-31 06:59:27 | 48.15557 | 12.45056 | 78° | 122km/h | 9286m | -11.5m/s | -35.6°C | 17.8% | 310.7hPa | 2.5V | 00:00:00 | 00:00:00 | 00:00:00 | |
| DB0UT-7 | 2026-08-31 06:59:26 | 48.15549 | 12.45008 | 74° | 128km/h | 9297m | -12.3m/s | -35.7°C | 18.4% | 310.2hPa | 2.5V | 00:00:00 | 03:07:31 | 00:00:00 | |
| OE5MMP-10 | 2026-08-31 06:59:25 | 48.15538 | 12.44958 | 71° | 122km/h | 9309m | -12.0m/s | -35.7°C | 18.9% | 309.7hPa | 2.5V | 00:00:00 | 03:07:30 | 00:00:00 | |
| OE5FHM-15 | 2026-08-31 06:59:22 | 48.15500 | 12.44819 | 65° | 120km/h | 9344m | -11.5m/s | -36.0°C | 19.6% | 308.4hPa | 2.5V | 00:00:00 | 03:07:27 | 00:00:00 | |
| DG1MJG | 2026-08-31 06:59:21 | 48.15500 | 12.44819 | 65° | 122km/h | 9344m | -11.5m/s | -36.1°C | 0% | 308.4hPa | 2.5V | 00:00:00 | 00:00:00 | 00:00:00 | |
| DO3MHA-11 | 2026-08-31 06:59:18 | 48.15457 | 12.44653 | 75° | 122km/h | 9384m | -10.5m/s | -36.4°C | 20.0% | 306.3hPa | 2.5V | 00:00:00 | 03:07:23 | 00:00:00 | |
| OE5DRO-10 | 2026-08-31 06:59:17 | 48.15449 | 12.44609 | 72° | 120km/h | 9393m | -9.3m/s | -36.5°C | 20.2% | 305.7hPa | 2.5V | 00:00:00 | 00:00:00 | 00:00:00 | |
| OE5MMP-10 | 2026-08-31 06:59:15 | 48.15430 | 12.44523 | 74° | 122km/h | 9413m | -10.4m/s | -36.7°C | 21.0% | 304.7hPa | 2.6V | 00:00:00 | 03:07:20 | 00:00:00 | |
| DL6DJ-15 | 2026-08-31 06:59:11 | 48.15373 | 12.44298 | 68° | 120km/h | 9465m | -12.8m/s | -37.3°C | 22.6% | 302.5hPa | 2.6V | 00:00:00 | 00:00:00 | 00:00:00 | |
| DG1MFX-10 | 2026-08-31 06:59:09 | 48.15373 | 12.44297 | 69° | 120km/h | 9465m | -12.8m/s | -37.3°C | 22.6% | 302.5hPa | 2.6V | 08:13:00 | 00:00:00 | 00:00:00 | |
| DO3MHA-11 | 2026-08-31 06:59:08 | 48.15356 | 12.44216 | 77° | 119km/h | 9489m | -12.5m/s | -37.4°C | 25.0% | 301.4hPa | 2.6V | 00:00:00 | 03:07:13 | 00:00:00 | |
| OE5MMP-10 | 2026-08-31 06:59:05 | 48.15335 | 12.44084 | 75° | 120km/h | 9528m | -12.5m/s | -37.7°C | 25.4% | 300.2hPa | 2.5V | 00:00:00 | 03:07:10 | 00:00:00 | |
| DO3MHA-11 | 2026-08-31 06:58:58 | 48.15273 | 12.43789 | 78° | 122km/h | 9608m | -10.7m/s | -38.4°C | 27.2% | 296.8hPa | 2.6V | 00:00:00 | 03:07:03 | 00:00:00 | |
| OE5WHR-10 | 2026-08-31 06:58:57 | 48.15265 | 12.43743 | 76° | 120km/h | 9619m | -10.9m/s | -38.5°C | 27.5% | 296.2hPa | 2.6V | 00:00:00 | 03:07:02 | 00:00:00 | |
| DO7DH-14 | 2026-08-31 06:58:55 | 48.15246 | 12.43650 | 74° | 124km/h | 9642m | -10.0m/s | 0°C | 0% | 0hPa | 2.6V | 00:00:00 | 03:07:00 | 00:00:00 | |
| OE5FHM-15 | 2026-08-31 06:58:52 | 48.15214 | 12.43520 | 69° | 124km/h | 9674m | -11.2m/s | -39.0°C | 29.9% | 293.7hPa | 2.6V | 00:00:00 | 03:06:57 | 00:00:00 | |
| DO3MHA-11 | 2026-08-31 06:58:48 | 48.15174 | 12.43352 | 73° | 122km/h | 9718m | -9.9m/s | -39.5°C | 32.9% | 291.8hPa | 2.6V | 00:00:00 | 03:06:53 | 00:00:00 | |
| DG1MJG | 2026-08-31 06:58:46 | 48.15166 | 12.43311 | 76° | 117km/h | 9729m | -10.1m/s | -39.6°C | 31.4% | 291.4hPa | 2.6V | 00:00:00 | 00:00:00 | 00:00:00 | |
| OE5MMP-10 | 2026-08-31 06:58:45 | 48.15151 | 12.43221 | 78° | 120km/h | 9750m | -10.5m/s | -39.8°C | 35.9% | 290.6hPa | 2.6V | 00:00:00 | 03:06:50 | 00:00:00 | |
| BAUMI2-15 | 2026-08-31 06:58:44 | 48.15142 | 12.43174 | 74° | 128km/h | 9760m | -9.5m/s | -39.9°C | 37.0% | 290.2hPa | 2.6V | 08:13:00 | 03:06:49 | 00:00:00 | |
| DL6DJ-15 | 2026-08-31 06:58:39 | 48.15091 | 12.42952 | 71° | 110km/h | 9810m | -12.2m/s | -40.4°C | 39.8% | 287.8hPa | 2.6V | 00:00:00 | 00:00:00 | 00:00:00 | |
| DO3MHA-11 | 2026-08-31 06:58:38 | 48.15082 | 12.42912 | 73° | 128km/h | 9821m | -10.7m/s | -40.5°C | 43.0% | 287.3hPa | 2.6V | 00:00:00 | 03:06:43 | 00:00:00 | |
| OE5WHR-10 | 2026-08-31 06:58:36 | 48.15067 | 12.42832 | 76° | 131km/h | 9842m | -13.1m/s | -40.6°C | 42.9% | 286.2hPa | 2.5V | 00:00:00 | 00:00:00 | 00:00:00 | |
| OE5MMP-10 | 2026-08-31 06:58:35 | 48.15060 | 12.42789 | 76° | 131km/h | 9854m | -12.4m/s | -40.7°C | 43.2% | 285.7hPa | 2.5V | 00:00:00 | 03:06:40 | 00:00:00 | |
| OE5DRO-10 | 2026-08-31 06:58:34 | 48.15053 | 12.42744 | 78° | 128km/h | 9865m | -12.9m/s | -40.7°C | 43.6% | 284.9hPa | 2.6V | 00:00:00 | 00:00:00 | 00:00:00 | |
| DO3MHA-11 | 2026-08-31 06:58:28 | 48.14995 | 12.42451 | 73° | 130km/h | 9937m | -10.7m/s | -41.2°C | 47.7% | 282.1hPa | 2.6V | 00:00:00 | 03:06:33 | 00:00:00 | |
| OE5DXL-15 | 2026-08-31 06:58:27 | 48.14986 | 12.42406 | 74° | 130km/h | 9947m | -12.1m/s | -41.3°C | 48.6% | 281.6hPa | 2.6V | 00:00:00 | 00:00:00 | 00:00:00 | |
| DO7DH-14 | 2026-08-31 06:58:25 | 48.14966 | 12.42312 | 75° | 131km/h | 9969m | -12.5m/s | 0°C | 0% | 0hPa | 2.5V | 00:00:00 | 03:06:30 | 00:00:00 | |
| DO3MHA-11 | 2026-08-31 06:58:18 | 48.14895 | 12.41982 | 73° | 133km/h | 10053m | -12.7m/s | -42.1°C | 55.7% | 277.6hPa | 2.5V | 00:00:00 | 03:06:23 | 00:00:00 | |
| BAUMI2-15 | 2026-08-31 06:58:15 | 48.14868 | 12.41842 | 76° | 135km/h | 10091m | -11.3m/s | -42.5°C | 56.1% | 276.4hPa | 2.5V | 00:00:00 | 03:06:20 | 00:00:00 | |
| PG1ADW-2 | 2026-08-31 06:58:14 | 48.14859 | 12.41795 | 76° | 131km/h | 10103m | -11.4m/s | -42.6°C | 55.6% | 275.8hPa | 2.5V | 00:00:00 | 00:00:00 | 00:00:00 | |
| OE5WHR-10 | 2026-08-31 06:58:13 | 48.14850 | 12.41746 | 74° | 130km/h | 10114m | -12.0m/s | -42.6°C | 54.9% | 275.3hPa | 2.5V | 00:00:00 | 00:00:00 | 00:00:00 | |
| BAUMI2-15 | 2026-08-31 06:58:10 | 48.14821 | 12.41598 | 71° | 130km/h | 10152m | -11.2m/s | -42.9°C | 55.1% | 274.1hPa | 2.5V | 00:00:00 | 03:06:15 | 00:00:00 | |
| DO3MHA-11 | 2026-08-31 06:58:08 | 48.14798 | 12.41504 | 72° | 124km/h | 10175m | -10.7m/s | -43.1°C | 54.7% | 273.2hPa | 2.5V | 08:13:00 | 03:06:13 | 00:00:00 | |
| DG1MFX-10 | 2026-08-31 06:58:07 | 48.14798 | 12.41504 | 72° | 122km/h | 10175m | -10.8m/s | -43.2°C | 51.4% | 273.2hPa | 2.6V | 08:14:00 | 00:00:00 | 00:00:00 | |
| OE5MMP-10 | 2026-08-31 06:58:05 | 48.14769 | 12.41373 | 74° | 131km/h | 10209m | -10.3m/s | -43.4°C | 53.2% | 271.6hPa | 2.6V | 08:13:00 | 03:06:10 | 00:00:00 | |
| OE5DRO-10 | 2026-08-31 06:58:03 | 48.14751 | 12.41286 | 75° | 135km/h | 10231m | -11.5m/s | -43.6°C | 52.9% | 270.5hPa | 2.5V | 08:14:00 | 00:00:00 | 00:00:00 | |
| DO3MHA-11 | 2026-08-31 06:57:58 | 48.14706 | 12.41049 | 70° | 130km/h | 10287m | -11.3m/s | -44.0°C | 51.9% | 268.2hPa | 2.6V | 00:00:00 | 03:06:03 | 00:00:00 | |
| OE5DXL-15 | 2026-08-31 06:57:57 | 48.14693 | 12.41001 | 69° | 131km/h | 10298m | -11.6m/s | -44.1°C | 51.2% | 267.7hPa | 2.6V | 00:00:00 | 00:00:00 | 00:00:00 | |
| OE5MMP-10 | 2026-08-31 06:57:55 | 48.14666 | 12.40906 | 65° | 128km/h | 10321m | -11.5m/s | -44.3°C | 49.5% | 266.8hPa | 2.6V | 00:00:00 | 03:06:00 | 00:00:00 | |
| NBG1-10 | 2026-08-31 06:57:54 | 48.14654 | 12.40862 | 73° | 133km/h | 10333m | -12.9m/s | -44.4°C | 48.0% | 266.3hPa | 2.6V | 00:00:00 | 03:05:59 | 00:00:00 | |
| OE5WHR-10 | 2026-08-31 06:57:52 | 48.14635 | 12.40778 | 72° | 133km/h | 10358m | -11.8m/s | -44.6°C | 44.8% | 265.7hPa | 2.6V | 00:00:00 | 03:05:57 | 00:00:00 | |
| BAUMI2-15 | 2026-08-31 06:57:51 | 48.14627 | 12.40733 | 78° | 131km/h | 10370m | -11.4m/s | -44.6°C | 43.0% | 265.3hPa | 2.6V | 00:00:00 | 03:05:56 | 00:00:00 | |
| DB0UT-7 | 2026-08-31 06:57:49 | 48.14612 | 12.40637 | 73° | 133km/h | 10393m | -11.3m/s | -44.8°C | 40.3% | 264.1hPa | 2.6V | 00:00:00 | 03:05:54 | 00:00:00 | |
| DO3MHA-11 | 2026-08-31 06:57:48 | 48.14602 | 12.40590 | 72° | 131km/h | 10404m | -11.1m/s | -44.9°C | 39.0% | 263.4hPa | 2.6V | 00:00:00 | 03:05:53 | 00:00:00 | |
| DG1MFX-10 | 2026-08-31 06:57:47 | 48.14602 | 12.40590 | 72° | 133km/h | 10404m | -11.1m/s | -44.9°C | 35.8% | 263.5hPa | 2.6V | 00:00:00 | 00:00:00 | 00:00:00 | |
| OE5MMP-10 | 2026-08-31 06:57:45 | 48.14564 | 12.40443 | 66° | 133km/h | 10437m | -9.9m/s | -45.1°C | 36.4% | 262.1hPa | 2.6V | 00:00:00 | 03:05:50 | 00:00:00 | |
| OE5DRO-10 | 2026-08-31 06:57:44 | 48.14549 | 12.40395 | 64° | 141km/h | 10447m | -12.0m/s | -45.1°C | 36.1% | 261.7hPa | 2.6V | 00:00:00 | 00:00:00 | 00:00:00 | |
| DO3MHA-11 | 2026-08-31 06:57:38 | 48.14474 | 12.40129 | 75° | 133km/h | 10515m | -13.3m/s | -45.7°C | 37.3% | 258.9hPa | 2.6V | 00:00:00 | 03:05:43 | 00:00:00 | |
| BAUMI2-15 | 2026-08-31 06:57:37 | 48.14464 | 12.40081 | 71° | 144km/h | 10527m | -11.4m/s | -45.8°C | 37.4% | 258.8hPa | 2.5V | 00:00:00 | 03:05:42 | 00:00:00 | |
| OE5MMP-10 | 2026-08-31 06:57:35 | 48.14441 | 12.39979 | 70° | 131km/h | 10552m | -12.6m/s | -46.0°C | 38.0% | 257.9hPa | 2.5V | 00:00:00 | 03:05:40 | 00:00:00 | |
| PG1ADW-2 | 2026-08-31 06:57:34 | 48.14428 | 12.39928 | 69° | 142km/h | 10564m | -13.2m/s | -46.1°C | 38.4% | 257.3hPa | 2.5V | 00:00:00 | 00:00:00 | 00:00:00 | |
| OE5WHR-10 | 2026-08-31 06:57:31 | 48.14384 | 12.39787 | 63° | 142km/h | 10601m | -12.0m/s | -46.4°C | 38.7% | 255.6hPa | 2.5V | 08:14:00 | 00:00:00 | 00:00:00 | |
| DO3MHA-11 | 2026-08-31 06:57:28 | 48.14347 | 12.39659 | 72° | 131km/h | 10635m | -11.2m/s | -46.7°C | 39.2% | 254.3hPa | 2.6V | 00:00:00 | 03:05:33 | 00:00:00 | |
| OE5DXL-15 | 2026-08-31 06:57:27 | 48.14337 | 12.39614 | 72° | 133km/h | 10646m | -11.6m/s | -46.8°C | 39.1% | 254.0hPa | 2.6V | 00:00:00 | 00:00:00 | 00:00:00 | |
| OE5MMP-10 | 2026-08-31 06:57:25 | 48.14315 | 12.39523 | 69° | 131km/h | 10669m | -12.1m/s | -46.9°C | 38.7% | 253.0hPa | 2.6V | 00:00:00 | 03:05:30 | 00:00:00 | |
| OE5MMP-10 | 2026-08-31 06:57:15 | 48.14196 | 12.39056 | 71° | 131km/h | 10789m | -10.6m/s | -47.8°C | 41.4% | 248.5hPa | 2.6V | 00:00:00 | 03:05:20 | 00:00:00 | |
| OE5MMP-10 | 2026-08-31 06:57:05 | 48.14077 | 12.38590 | 70° | 137km/h | 10906m | -12.0m/s | -48.9°C | 44.3% | 244.0hPa | 2.6V | 00:00:00 | 03:05:10 | 00:00:00 | |
| OE5DXL-15 | 2026-08-31 06:56:57 | 48.13980 | 12.38203 | 73° | 141km/h | 11003m | -13.0m/s | -49.6°C | 45.2% | 240.4hPa | 2.5V | 08:15:00 | 00:00:00 | 00:00:00 | |
| DO3MHA-11 | 2026-08-31 06:56:45 | 48.13844 | 12.37610 | 73° | 142km/h | 11144m | -13.3m/s | -50.5°C | 42.1% | 235.3hPa | 2.5V | 00:00:00 | 03:04:50 | 00:00:00 | |
| OE5MMP-10 | 2026-08-31 06:56:35 | 48.13743 | 12.37093 | 74° | 139km/h | 11268m | -11.0m/s | -50.9°C | 39.8% | 230.9hPa | 2.5V | 08:15:00 | 03:04:40 | 00:00:00 | |
| DO3MHA-11 | 2026-08-31 06:56:30 | 48.13695 | 12.36835 | 74° | 139km/h | 11322m | -12.1m/s | -51.3°C | 38.5% | 229.0hPa | 2.5V | 00:00:00 | 03:04:35 | 00:00:00 | |
| OE5DXL-15 | 2026-08-31 06:56:27 | 48.13666 | 12.36684 | 74° | 142km/h | 11358m | -12.6m/s | -51.5°C | 37.5% | 227.5hPa | 2.6V | 00:00:00 | 00:00:00 | 00:00:00 | |
| OE5MMP-10 | 2026-08-31 06:56:25 | 48.13645 | 12.36585 | 72° | 137km/h | 11382m | -12.0m/s | -51.7°C | 36.6% | 226.8hPa | 2.6V | 00:00:00 | 03:04:30 | 00:00:00 | |
| OE5MMP-10 | 2026-08-31 06:56:15 | 48.13541 | 12.36091 | 73° | 139km/h | 11503m | -10.0m/s | -52.3°C | 31.7% | 222.5hPa | 2.6V | 00:00:00 | 03:04:20 | 00:00:00 | |
| OE5DRO-10 | 2026-08-31 06:56:08 | 48.13469 | 12.35740 | 72° | 150km/h | 11589m | -11.4m/s | -52.4°C | 27.2% | 219.7hPa | 2.6V | 00:00:00 | 00:00:00 | 00:00:00 | |
| OE5MMP-10 | 2026-08-31 06:56:05 | 48.13441 | 12.35590 | 77° | 150km/h | 11625m | -13.9m/s | -52.4°C | 25.6% | 218.5hPa | 2.6V | 00:00:00 | 03:04:10 | 00:00:00 | |
| DL6DJ-15 | 2026-08-31 06:56:04 | 48.13391 | 12.35315 | 69° | 159km/h | 11686m | -12.3m/s | -52.7°C | 20.5% | 216.6hPa | 2.6V | 00:00:00 | 00:00:00 | 00:00:00 | |
| DO3MHA-11 | 2026-08-31 06:55:58 | 48.13365 | 12.35205 | 71° | 144km/h | 11710m | -12.1m/s | -52.6°C | 23.8% | 215.5hPa | 2.6V | 00:00:00 | 03:04:03 | 00:00:00 | |
| OE5DXL-15 | 2026-08-31 06:55:57 | 48.13353 | 12.35151 | 74° | 142km/h | 11722m | -11.6m/s | -52.7°C | 23.6% | 215.2hPa | 2.6V | 00:00:00 | 00:00:00 | 00:00:00 | |
| OE5MMP-10 | 2026-08-31 06:55:55 | 48.13332 | 12.35047 | 73° | 144km/h | 11744m | -12.7m/s | -52.8°C | 23.4% | 214.4hPa | 2.6V | 00:00:00 | 03:04:00 | 00:00:00 | |
| DO3MHA-11 | 2026-08-31 06:55:48 | 48.13240 | 12.34684 | 72° | 142km/h | 11830m | -10.6m/s | -53.1°C | 22.4% | 211.6hPa | 2.6V | 00:00:00 | 03:03:53 | 00:00:00 | |
| OE5MMP-10 | 2026-08-31 06:55:45 | 48.13205 | 12.34533 | 73° | 142km/h | 11866m | -12.3m/s | -53.3°C | 22.1% | 210.4hPa | 2.6V | 00:00:00 | 03:03:50 | 00:00:00 | |
| OE5DRO-10 | 2026-08-31 06:55:44 | 48.13194 | 12.34482 | 71° | 142km/h | 11878m | -13.3m/s | -53.4°C | 22.2% | 210.0hPa | 2.6V | 00:00:00 | 00:00:00 | 00:00:00 | |
| DO3MHA-11 | 2026-08-31 06:55:38 | 48.13129 | 12.34173 | 74° | 141km/h | 11955m | -13.2m/s | -53.9°C | 21.8% | 207.7hPa | 2.6V | 08:16:00 | 03:03:43 | 00:00:00 | |
| OE5MMP-10 | 2026-08-31 06:55:35 | 48.13097 | 12.34020 | 72° | 141km/h | 11995m | -13.2m/s | -54.2°C | 21.4% | 206.5hPa | 2.6V | 00:00:00 | 03:03:40 | 00:00:00 | |
| DL6DJ-15 | 2026-08-31 06:55:33 | 48.13077 | 12.33920 | 72° | 137km/h | 12018m | -11.4m/s | -54.4°C | 17.1% | 205.8hPa | 2.5V | 00:00:00 | 00:00:00 | 00:00:00 | |
| DO3MHA-11 | 2026-08-31 06:55:28 | 48.13021 | 12.33677 | 74° | 144km/h | 12083m | -14.9m/s | -54.2°C | 19.5% | 203.8hPa | 2.5V | 00:00:00 | 03:03:33 | 00:00:00 | |
| OE5DXL-15 | 2026-08-31 06:55:27 | 48.13012 | 12.33626 | 77° | 141km/h | 12098m | -14.6m/s | -54.3°C | 19.4% | 203.4hPa | 2.5V | 00:00:00 | 00:00:00 | 00:00:00 | |
| OE5MMP-10 | 2026-08-31 06:55:25 | 48.12991 | 12.33517 | 70° | 141km/h | 12124m | -10.2m/s | -54.3°C | 19.1% | 202.7hPa | 2.5V | 00:00:00 | 03:03:30 | 00:00:00 | |
| OE5DRO-10 | 2026-08-31 06:55:22 | 48.12950 | 12.33360 | 70° | 139km/h | 12159m | -12.3m/s | -54.3°C | 18.6% | 201.2hPa | 2.5V | 00:00:00 | 00:00:00 | 00:00:00 | |
| OE5FHM-15 | 2026-08-31 06:55:20 | 48.12924 | 12.33260 | 72° | 122km/h | 12185m | -13.8m/s | -54.5°C | 18.4% | 200.4hPa | 2.6V | 00:00:00 | 03:03:25 | 00:00:00 | |
| DO3MHA-11 | 2026-08-31 06:55:18 | 48.12905 | 12.33168 | 78° | 139km/h | 12211m | -11.4m/s | -54.6°C | 18.0% | 200.0hPa | 2.6V | 00:00:00 | 03:03:23 | 00:00:00 | |
| OE5MMP-10 | 2026-08-31 06:55:15 | 48.12882 | 12.33016 | 76° | 137km/h | 12250m | -11.8m/s | -54.6°C | 17.7% | 198.6hPa | 2.6V | 00:00:00 | 03:03:20 | 00:00:00 | |
| DG1MJG | 2026-08-31 06:55:13 | 48.12872 | 12.32964 | 74° | 142km/h | 12261m | -11.0m/s | -54.7°C | 0% | 198.1hPa | 2.6V | 00:00:00 | 00:00:00 | 00:00:00 | |
| DO3MHA-11 | 2026-08-31 06:55:08 | 48.12801 | 12.32671 | 76° | 139km/h | 12334m | -12.2m/s | -54.8°C | 16.3% | 196.0hPa | 2.6V | 00:00:00 | 03:03:13 | 00:00:00 | |
| NBG1-10 | 2026-08-31 06:55:07 | 48.12793 | 12.32623 | 78° | 137km/h | 12347m | -11.6m/s | -54.7°C | 16.0% | 195.5hPa | 2.5V | 00:00:00 | 03:03:12 | 00:00:00 | |
| OE5MMP-10 | 2026-08-31 06:55:05 | 48.12777 | 12.32521 | 73° | 141km/h | 12370m | -13.6m/s | -54.8°C | 15.9% | 194.5hPa | 2.5V | 08:16:00 | 03:03:10 | 00:00:00 | |
| OE5DRO-10 | 2026-08-31 06:55:03 | 48.12756 | 12.32415 | 72° | 141km/h | 12394m | -14.1m/s | -54.8°C | 15.9% | 193.7hPa | 2.5V | 00:00:00 | 00:00:00 | 00:00:00 | |
| DL6DJ-15 | 2026-08-31 06:55:02 | 48.12743 | 12.32362 | 69° | 146km/h | 12407m | -10.5m/s | -54.9°C | 12.2% | 193.7hPa | 2.5V | 00:00:00 | 00:00:00 | 00:00:00 | |
| OE5WHR-10 | 2026-08-31 06:54:59 | 48.12698 | 12.32217 | 68° | 135km/h | 12442m | -14.9m/s | -55.0°C | 15.4% | 192.3hPa | 2.5V | 00:00:00 | 03:03:04 | 00:00:00 | |
| DO3MHA-11 | 2026-08-31 06:54:58 | 48.12685 | 12.32170 | 68° | 135km/h | 12456m | -14.4m/s | -55.1°C | 15.3% | 192.0hPa | 2.5V | 00:00:00 | 03:03:03 | 00:00:00 | |
| OE5DXL-15 | 2026-08-31 06:54:57 | 48.12675 | 12.32125 | 75° | 139km/h | 12469m | -13.3m/s | -55.1°C | 15.2% | 191.6hPa | 2.5V | 00:00:00 | 00:00:00 | 00:00:00 | |
| OE5MMP-10 | 2026-08-31 06:54:55 | 48.12658 | 12.32030 | 77° | 139km/h | 12494m | -13.3m/s | -55.3°C | 15.0% | 190.8hPa | 2.5V | 00:00:00 | 03:03:00 | 00:00:00 | |
| BAUMI2-15 | 2026-08-31 06:54:52 | 48.12623 | 12.31879 | 65° | 137km/h | 12531m | -12.3m/s | -55.5°C | 14.7% | 189.9hPa | 2.5V | 00:00:00 | 03:02:57 | 00:00:00 | |
| DO3MHA-11 | 2026-08-31 06:54:48 | 48.12571 | 12.31689 | 70° | 137km/h | 12580m | -13.2m/s | -55.8°C | 14.2% | 188.3hPa | 2.5V | 00:00:00 | 03:02:53 | 00:00:00 | |
| BAUMI2-15 | 2026-08-31 06:54:47 | 48.12559 | 12.31643 | 71° | 137km/h | 12593m | -11.9m/s | -55.8°C | 14.1% | 187.8hPa | 2.5V | 08:17:00 | 03:02:52 | 00:00:00 | |
| OE5MMP-10 | 2026-08-31 06:54:45 | 48.12536 | 12.31546 | 70° | 141km/h | 12616m | -13.6m/s | -55.8°C | 14.1% | 187.0hPa | 2.6V | 00:00:00 | 03:02:50 | 00:00:00 | |
| OE5DRO-10 | 2026-08-31 06:54:44 | 48.12525 | 12.31498 | 69° | 142km/h | 12630m | -14.5m/s | -55.8°C | 14.0% | 186.7hPa | 2.6V | 00:00:00 | 00:00:00 | 00:00:00 | |
| BAUMI2-15 | 2026-08-31 06:54:42 | 48.12497 | 12.31399 | 66° | 144km/h | 12657m | -13.6m/s | -55.9°C | 13.8% | 186.0hPa | 2.6V | 00:00:00 | 03:02:47 | 00:00:00 | |
| DO3MHA-11 | 2026-08-31 06:54:38 | 48.12429 | 12.31207 | 64° | 137km/h | 12707m | -12.9m/s | -56.2°C | 13.8% | 184.5hPa | 2.6V | 00:00:00 | 03:02:43 | 00:00:00 | |
| BAUMI2-15 | 2026-08-31 06:54:37 | 48.12414 | 12.31161 | 65° | 137km/h | 12719m | -13.2m/s | -56.3°C | 13.7% | 184.2hPa | 2.5V | 00:00:00 | 03:02:42 | 00:00:00 | |
| OE5MMP-10 | 2026-08-31 06:54:35 | 48.12386 | 12.31066 | 67° | 141km/h | 12742m | -11.2m/s | -56.3°C | 13.2% | 183.3hPa | 2.5V | 00:00:00 | 03:02:40 | 00:00:00 | |
| DL6DJ-15 | 2026-08-31 06:54:31 | 48.12330 | 12.30873 | 68° | 137km/h | 12792m | -13.7m/s | -56.6°C | 9.0% | 181.8hPa | 2.6V | 00:00:00 | 00:00:00 | 00:00:00 | |
| DO3MHA-11 | 2026-08-31 06:54:28 | 48.12292 | 12.30729 | 71° | 135km/h | 12832m | -15.4m/s | -56.4°C | 11.8% | 180.7hPa | 2.6V | 00:00:00 | 03:02:33 | 00:00:00 | |
| OE5DXL-15 | 2026-08-31 06:54:27 | 48.12280 | 12.30677 | 71° | 139km/h | 12848m | -15.3m/s | -56.4°C | 11.8% | 180.4hPa | 2.6V | 00:00:00 | 00:00:00 | 00:00:00 | |
| BAUMI2-15 | 2026-08-31 06:54:26 | 48.12267 | 12.30626 | 70° | 139km/h | 12863m | -14.8m/s | -56.2°C | 11.5% | 180.2hPa | 2.6V | 00:00:00 | 03:02:31 | 00:00:00 | |
| OE5MMP-10 | 2026-08-31 06:54:25 | 48.12254 | 12.30575 | 70° | 133km/h | 12878m | -13.2m/s | -56.2°C | 11.2% | 179.8hPa | 2.5V | 00:00:00 | 03:02:30 | 00:00:00 | |
| PG1ADW-2 | 2026-08-31 06:54:22 | 48.12216 | 12.30430 | 68° | 133km/h | 12918m | -11.7m/s | -56.2°C | 10.8% | 178.7hPa | 2.5V | 00:00:00 | 03:02:27 | 00:00:00 | |
| BAUMI2-15 | 2026-08-31 06:54:21 | 48.12204 | 12.30383 | 69° | 131km/h | 12930m | -13.3m/s | -56.3°C | 10.8% | 178.3hPa | 2.5V | 00:00:00 | 03:02:26 | 00:00:00 | |
| DO3MHA-11 | 2026-08-31 06:54:18 | 48.12178 | 12.30244 | 77° | 139km/h | 12970m | -11.9m/s | -56.3°C | 10.6% | 177.4hPa | 2.5V | 00:00:00 | 03:02:23 | 00:00:00 | |
| BAUMI2-15 | 2026-08-31 06:54:16 | 48.12160 | 12.30142 | 73° | 146km/h | 12995m | -12.8m/s | -56.6°C | 10.8% | 176.3hPa | 2.5V | 00:00:00 | 03:02:21 | 00:00:00 | |
| OE5MMP-10 | 2026-08-31 06:54:15 | 48.12150 | 12.30091 | 74° | 141km/h | 13009m | -13.6m/s | -56.6°C | 10.8% | 176.1hPa | 2.5V | 00:00:00 | 03:02:20 | 00:00:00 | |
| BAUMI2-15 | 2026-08-31 06:54:11 | 48.12091 | 12.29888 | 67° | 137km/h | 13063m | -11.8m/s | -56.9°C | 10.8% | 174.6hPa | 2.5V | 00:00:00 | 03:02:16 | 00:00:00 | |
| DO3MHA-11 | 2026-08-31 06:54:07 | 48.12041 | 12.29697 | 71° | 139km/h | 13117m | -11.0m/s | -57.1°C | 10.8% | 173.3hPa | 2.6V | 08:17:00 | 03:02:12 | 00:00:00 | |
| OE5DRO-10 | 2026-08-31 06:54:06 | 48.12029 | 12.29646 | 70° | 135km/h | 13129m | -12.3m/s | -57.2°C | 10.9% | 173.1hPa | 2.5V | 00:00:00 | 00:00:00 | 00:00:00 | |
| OE5MMP-10 | 2026-08-31 06:54:05 | 48.12017 | 12.29598 | 69° | 139km/h | 13141m | -11.7m/s | -57.1°C | 10.8% | 172.5hPa | 2.5V | 00:00:00 | 03:02:10 | 00:00:00 | |
| BAUMI2-15 | 2026-08-31 06:54:00 | 48.11966 | 12.29348 | 72° | 142km/h | 13208m | -12.8m/s | -57.3°C | 10.5% | 170.7hPa | 2.5V | 00:00:00 | 03:02:05 | 00:00:00 | |
| DO3MHA-11 | 2026-08-31 06:53:57 | 48.11924 | 12.29195 | 67° | 124km/h | 13248m | -11.1m/s | -57.7°C | 10.5% | 169.5hPa | 2.5V | 00:00:00 | 03:02:02 | 00:00:00 | |
| OE5MMP-10 | 2026-08-31 06:53:55 | 48.11900 | 12.29106 | 69° | 130km/h | 13274m | -13.9m/s | -57.7°C | 10.4% | 168.8hPa | 2.5V | 00:00:00 | 03:02:00 | 00:00:00 | |
| BAUMI2-15 | 2026-08-31 06:53:50 | 48.11855 | 12.28876 | 74° | 133km/h | 13339m | -14.1m/s | -57.8°C | 9.9% | 167.0hPa | 2.5V | 00:00:00 | 03:01:55 | 00:00:00 | |
| DO3MHA-11 | 2026-08-31 06:53:47 | 48.11813 | 12.28732 | 66° | 124km/h | 13380m | -12.8m/s | -57.7°C | 9.4% | 166.1hPa | 2.5V | 00:00:00 | 03:01:52 | 00:00:00 | |
| BAUMI2-15 | 2026-08-31 06:53:45 | 48.11786 | 12.28651 | 62° | 117km/h | 13405m | -14.4m/s | -57.6°C | 8.8% | 165.3hPa | 2.5V | 00:00:00 | 03:01:50 | 00:00:00 | |
| BAUMI2-15 | 2026-08-31 06:53:40 | 48.11732 | 12.28446 | 70° | 146km/h | 13475m | -11.3m/s | -57.7°C | 8.2% | 163.7hPa | 2.5V | 00:00:00 | 03:01:45 | 00:00:00 | |
| DO3MHA-11 | 2026-08-31 06:53:37 | 48.11688 | 12.28294 | 62° | 133km/h | 13517m | -14.8m/s | -57.4°C | 7.5% | 162.3hPa | 2.6V | 00:00:00 | 03:01:42 | 00:00:00 | |
| OE5WHR-10 | 2026-08-31 06:53:36 | 48.11671 | 12.28247 | 63° | 133km/h | 13531m | -12.8m/s | -57.4°C | 7.5% | 162.2hPa | 2.5V | 00:00:00 | 03:01:41 | 00:00:00 | |
| BAUMI2-15 | 2026-08-31 06:53:30 | 48.11583 | 12.27994 | 62° | 144km/h | 13613m | -13.1m/s | -57.5°C | 6.9% | 159.9hPa | 2.5V | 00:00:00 | 03:01:35 | 00:00:00 | |
| OE5DRO-10 | 2026-08-31 06:53:28 | 48.11543 | 12.27899 | 56° | 137km/h | 13641m | -15.0m/s | -57.6°C | 6.7% | 159.6hPa | 2.5V | 00:00:00 | 00:00:00 | 00:00:00 | |
| DO3MHA-11 | 2026-08-31 06:53:27 | 48.11522 | 12.27853 | 58° | 137km/h | 13655m | -13.5m/s | -57.6°C | 6.6% | 158.9hPa | 2.5V | 00:00:00 | 03:01:32 | 00:00:00 | |
| OE5MMP-10 | 2026-08-31 06:53:25 | 48.11485 | 12.27766 | 62° | 135km/h | 13682m | -12.6m/s | -57.7°C | 6.5% | 158.0hPa | 2.5V | 00:00:00 | 03:01:30 | 00:00:00 | |
| BAUMI2-15 | 2026-08-31 06:53:20 | 48.11411 | 12.27535 | 64° | 141km/h | 13751m | -15.6m/s | -57.7°C | 6.1% | 156.3hPa | 2.5V | 00:00:00 | 03:01:25 | 00:00:00 | |
| OE5MMP-10 | 2026-08-31 06:53:15 | 48.11340 | 12.27295 | 70° | 133km/h | 13832m | -13.5m/s | -57.3°C | 5.4% | 154.8hPa | 2.5V | 00:00:00 | 03:01:20 | 00:00:00 | |
| BAUMI2-15 | 2026-08-31 06:53:14 | 48.11328 | 12.27246 | 72° | 135km/h | 13846m | -15.4m/s | -57.3°C | 5.3% | 154.3hPa | 2.5V | 00:00:00 | 03:01:19 | 00:00:00 | |
| DO3MHA-11 | 2026-08-31 06:53:11 | 48.11296 | 12.27101 | 71° | 124km/h | 13889m | -14.5m/s | -57.2°C | 5.1% | 153.4hPa | 2.5V | 00:00:00 | 03:01:16 | 00:00:00 | |
| DB0UT-7 | 2026-08-31 06:53:10 | 48.11284 | 12.27050 | 72° | 86km/h | 13905m | -16.0m/s | -57.1°C | 5.0% | 152.8hPa | 2.5V | 00:00:00 | 00:00:00 | 00:00:00 | |
| BAUMI2-15 | 2026-08-31 06:53:09 | 48.11273 | 12.27001 | 70° | 128km/h | 13921m | -14.4m/s | -57.1°C | 5.0% | 152.6hPa | 2.5V | 08:18:00 | 03:01:14 | 00:00:00 | |
| OE5MMP-10 | 2026-08-31 06:53:05 | 48.11226 | 12.26822 | 72° | 117km/h | 13978m | -15.8m/s | -56.7°C | 4.7% | 150.9hPa | 2.6V | 00:00:00 | 03:01:10 | 00:00:00 | |
| BAUMI2-15 | 2026-08-31 06:53:04 | 48.11217 | 12.26782 | 74° | 117km/h | 13995m | -16.7m/s | -56.7°C | 4.7% | 150.5hPa | 2.6V | 00:00:00 | 03:01:09 | 00:00:00 | |
| DG1MJG | 2026-08-31 06:53:01 | 48.11207 | 12.26700 | 84° | 110km/h | 14025m | -14.4m/s | -56.9°C | 0% | 150.0hPa | 2.6V | 00:00:00 | 00:00:00 | 00:00:00 | |
| DL6DJ-15 | 2026-08-31 06:52:58 | 48.11176 | 12.26478 | 70° | 113km/h | 14102m | -13.8m/s | -57.4°C | 1.8% | 148.1hPa | 2.6V | 00:00:00 | 00:00:00 | 00:00:00 | |
| OE5DXL-15 | 2026-08-31 06:52:57 | 48.11176 | 12.26478 | 71° | 93km/h | 14102m | -13.7m/s | -57.4°C | 4.6% | 148.0hPa | 2.6V | 00:00:00 | 00:00:00 | 00:00:00 | |
| OE5MMP-10 | 2026-08-31 06:52:55 | 48.11153 | 12.26400 | 65° | 100km/h | 14132m | -16.5m/s | -57.6°C | 4.6% | 147.3hPa | 2.6V | 00:00:00 | 03:01:00 | 00:00:00 | |
| OE5WHR-10 | 2026-08-31 06:52:54 | 48.11142 | 12.26366 | 67° | 95km/h | 14149m | -15.1m/s | -57.7°C | 4.6% | 147.3hPa | 2.6V | 00:00:00 | 00:00:00 | 00:00:00 | |
| DO3MHA-11 | 2026-08-31 06:52:51 | 48.11120 | 12.26266 | 78° | 99km/h | 14195m | -15.6m/s | -57.6°C | 4.6% | 145.9hPa | 2.6V | 00:00:00 | 03:00:56 | 00:00:00 | |
| OE5DRO-10 | 2026-08-31 06:52:50 | 48.11116 | 12.26231 | 84° | 93km/h | 14211m | -18.3m/s | -57.5°C | 4.5% | 145.5hPa | 2.6V | 00:00:00 | 00:00:00 | 00:00:00 | |
| NBG1-10 | 2026-08-31 06:52:48 | 48.11109 | 12.26150 | 83° | 78km/h | 14245m | -14.3m/s | -57.4°C | 4.5% | 145.0hPa | 2.6V | 00:00:00 | 03:00:53 | 00:00:00 | |
| OE5FHM-15 | 2026-08-31 06:52:46 | 48.11099 | 12.26073 | 79° | 86km/h | 14273m | -13.9m/s | -57.2°C | 4.4% | 144.0hPa | 2.6V | 00:00:00 | 03:00:51 | 00:00:00 | |
| OE5MMP-10 | 2026-08-31 06:52:45 | 48.11093 | 12.26035 | 71° | 91km/h | 14288m | -13.8m/s | -57.3°C | 4.4% | 143.7hPa | 2.6V | 00:00:00 | 03:00:50 | 00:00:00 | |
| DG1MFX-10 | 2026-08-31 06:52:43 | 48.11083 | 12.25999 | 67° | 95km/h | 14302m | -14.9m/s | -57.4°C | 1.4% | 143.6hPa | 2.6V | 00:00:00 | 00:00:00 | 00:00:00 | |
| DO3MHA-11 | 2026-08-31 06:52:41 | 48.11058 | 12.25907 | 70° | 88km/h | 14347m | -16.1m/s | -57.3°C | 4.3% | 142.2hPa | 2.6V | 00:00:00 | 03:00:46 | 00:00:00 | |
| PG1ADW-2 | 2026-08-31 06:52:40 | 48.11052 | 12.25879 | 74° | 84km/h | 14361m | -14.8m/s | -57.1°C | 4.3% | 142.2hPa | 2.6V | 00:00:00 | 00:00:00 | 00:00:00 | |
| OE5MMP-10 | 2026-08-31 06:52:35 | 48.11031 | 12.25708 | 77° | 88km/h | 14436m | -16.6m/s | -56.2°C | 4.0% | 140.2hPa | 2.6V | 00:00:00 | 03:00:40 | 00:00:00 | |
| OE5WHR-10 | 2026-08-31 06:52:33 | 48.11018 | 12.25643 | 75° | 80km/h | 14467m | -17.1m/s | -56.1°C | 4.0% | 139.6hPa | 2.5V | 00:00:00 | 03:00:38 | 00:00:00 | |
| DO3MHA-11 | 2026-08-31 06:52:31 | 48.11010 | 12.25584 | 78° | 86km/h | 14499m | -17.6m/s | -56.0°C | 3.9% | 138.9hPa | 2.5V | 08:19:00 | 03:00:36 | 00:00:00 | |
| DG1MJG | 2026-08-31 06:52:30 | 48.11010 | 12.25584 | 79° | 77km/h | 14499m | -17.7m/s | -56.1°C | 0% | 139.0hPa | 2.5V | 00:00:00 | 00:00:00 | 00:00:00 | |
| DL6DJ-15 | 2026-08-31 06:52:27 | 48.10994 | 12.25422 | 79° | 89km/h | 14578m | -16.0m/s | -56.0°C | 1.2% | 137.2hPa | 2.5V | 00:00:00 | 00:00:00 | 00:00:00 | |
| DK5PH-5 | 2026-08-31 06:52:26 | 48.10994 | 12.25422 | 80° | 77km/h | 14578m | -15.9m/s | -56.0°C | 3.9% | 137.2hPa | 2.5V | 00:00:00 | 03:00:31 | 00:00:00 | |
| OE5MMP-10 | 2026-08-31 06:52:25 | 48.10989 | 12.25388 | 79° | 78km/h | 14592m | -15.1m/s | -55.9°C | 3.9% | 137.0hPa | 2.5V | 00:00:00 | 03:00:30 | 00:00:00 | |
| DG1MFX-10 | 2026-08-31 06:52:23 | 48.10983 | 12.25356 | 73° | 84km/h | 14607m | -17.2m/s | -55.9°C | 1.1% | 136.4hPa | 2.5V | 00:00:00 | 00:00:00 | 00:00:00 | |
| DO3MHA-11 | 2026-08-31 06:52:21 | 48.10963 | 12.25273 | 74° | 73km/h | 14654m | -18.3m/s | -55.6°C | 3.7% | 135.2hPa | 2.5V | 00:00:00 | 03:00:26 | 00:00:00 | |
| PG1ADW-2 | 2026-08-31 06:52:17 | 48.10960 | 12.25161 | 95° | 71km/h | 14721m | -19.7m/s | -55.2°C | 3.6% | 134.0hPa | 2.5V | 00:00:00 | 03:00:22 | 00:00:00 | |
| OE5MMP-10 | 2026-08-31 06:52:15 | 48.10958 | 12.25101 | 80° | 64km/h | 14757m | -16.8m/s | -55.1°C | 3.5% | 133.3hPa | 2.5V | 00:00:00 | 03:00:20 | 00:00:00 | |
| OE5WHR-10 | 2026-08-31 06:52:12 | 48.10942 | 12.25031 | 72° | 66km/h | 14805m | -17.5m/s | -55.1°C | 3.5% | 132.2hPa | 2.5V | 08:19:00 | 00:00:00 | 00:00:00 | |
| DO3MHA-11 | 2026-08-31 06:52:11 | 48.10938 | 12.25011 | 76° | 62km/h | 14822m | -14.6m/s | -55.1°C | 3.4% | 132.0hPa | 2.5V | 00:00:00 | 03:00:16 | 00:00:00 | |
| OE5MMP-10 | 2026-08-31 06:52:05 | 48.10929 | 12.24859 | 76° | 60km/h | 14912m | -17.4m/s | -55.1°C | 3.5% | 130.1hPa | 2.5V | 08:19:00 | 03:00:10 | 00:00:00 | |
| DO3MHA-11 | 2026-08-31 06:52:01 | 48.10912 | 12.24775 | 72° | 66km/h | 14976m | -16.4m/s | -55.2°C | 3.5% | 128.8hPa | 2.6V | 00:00:00 | 03:00:06 | 00:00:00 | |
| OE5DXL-15 | 2026-08-31 06:51:57 | 48.10899 | 12.24693 | 70° | 75km/h | 15042m | -14.5m/s | -55.6°C | 3.5% | 127.5hPa | 2.6V | 00:00:00 | 00:00:00 | 00:00:00 | |
| OE5MMP-10 | 2026-08-31 06:51:55 | 48.10884 | 12.24643 | 59° | 73km/h | 15071m | -17.2m/s | -55.8°C | 3.6% | 126.9hPa | 2.6V | 00:00:00 | 03:00:00 | 00:00:00 | |
| DO3MHA-11 | 2026-08-31 06:51:51 | 48.10843 | 12.24554 | 63° | 69km/h | 15137m | -17.2m/s | -56.2°C | 3.6% | 125.5hPa | 2.6V | 00:00:00 | 02:59:56 | 00:00:00 | |
| OE5MMP-10 | 2026-08-31 06:51:45 | 48.10796 | 12.24406 | 65° | 78km/h | 15242m | -16.8m/s | -56.7°C | 3.7% | 123.7hPa | 2.6V | 00:00:00 | 02:59:50 | 00:00:00 | |
| OE5FHM-15 | 2026-08-31 06:51:42 | 48.10772 | 12.24340 | 65° | 69km/h | 15292m | -17.2m/s | -56.9°C | 3.6% | 122.7hPa | 2.6V | 00:00:00 | 02:59:47 | 00:00:00 | |
| DO3MHA-11 | 2026-08-31 06:51:41 | 48.10766 | 12.24317 | 68° | 80km/h | 15309m | -17.5m/s | -57.0°C | 3.6% | 122.3hPa | 2.6V | 00:00:00 | 02:59:46 | 00:00:00 | |
| DG1MFX-10 | 2026-08-31 06:51:39 | 48.10759 | 12.24290 | 72° | 80km/h | 15327m | -15.9m/s | -57.2°C | 1.1% | 122.2hPa | 2.6V | 08:20:00 | 00:00:00 | 00:00:00 | |
| NBG1-10 | 2026-08-31 06:51:37 | 48.10736 | 12.24199 | 67° | 78km/h | 15380m | -16.3m/s | -57.5°C | 3.9% | 121.2hPa | 2.6V | 00:00:00 | 02:59:42 | 00:00:00 | |
| OE5MMP-10 | 2026-08-31 06:51:35 | 48.10714 | 12.24140 | 62° | 77km/h | 15411m | -14.7m/s | -57.8°C | 4.0% | 120.3hPa | 2.6V | 00:00:00 | 02:59:40 | 00:00:00 | |
| DO3MHA-11 | 2026-08-31 06:51:31 | 48.10672 | 12.24048 | 58° | 82km/h | 15477m | -20.1m/s | -58.3°C | 4.0% | 119.1hPa | 2.6V | 00:00:00 | 02:59:36 | 00:00:00 | |
| DK5PH-5 | 2026-08-31 06:51:28 | 48.10653 | 12.23971 | 78° | 44km/h | 15527m | -16.9m/s | -58.7°C | 4.1% | 118.4hPa | 2.6V | 00:00:00 | 02:59:33 | 00:00:00 | |
| OE5MMP-10 | 2026-08-31 06:51:25 | 48.10636 | 12.23871 | 76° | 78km/h | 15577m | -18.4m/s | -58.9°C | 4.1% | 117.2hPa | 2.6V | 00:00:00 | 02:59:30 | 00:00:00 | |
| DL6DJ-15 | 2026-08-31 06:51:24 | 48.10626 | 12.23806 | 77° | 86km/h | 15610m | -15.1m/s | -59.0°C | 0.9% | 116.7hPa | 2.6V | 00:00:00 | 00:00:00 | 00:00:00 | |
| DB0UT-7 | 2026-08-31 06:51:23 | 48.10626 | 12.23806 | 78° | 37km/h | 15610m | -15.0m/s | -59.0°C | 4.1% | 116.6hPa | 2.6V | 00:00:00 | 02:59:28 | 00:00:00 | |
| OE5DRO-10 | 2026-08-31 06:51:22 | 48.10622 | 12.23775 | 82° | 68km/h | 15626m | -16.3m/s | -58.7°C | 4.1% | 116.1hPa | 2.6V | 08:20:00 | 00:00:00 | 00:00:00 | |
| DO3MHA-11 | 2026-08-31 06:51:21 | 48.10619 | 12.23746 | 81° | 71km/h | 15642m | -17.2m/s | -58.4°C | 4.0% | 116.2hPa | 2.5V | 00:00:00 | 02:59:26 | 00:00:00 | |
| OE5WHR-10 | 2026-08-31 06:51:20 | 48.10616 | 12.23716 | 79° | 60km/h | 15659m | -18.7m/s | -58.1°C | 3.9% | 115.4hPa | 2.5V | 00:00:00 | 02:59:25 | 00:00:00 | |
| DG1MFX-10 | 2026-08-31 06:51:19 | 48.10616 | 12.23716 | 80° | 82km/h | 15659m | -18.7m/s | -58.1°C | 0.9% | 115.5hPa | 2.5V | 08:20:00 | 00:00:00 | 00:00:00 | |
| OE5MMP-10 | 2026-08-31 06:51:15 | 48.10606 | 12.23577 | 89° | 66km/h | 15750m | -15.9m/s | -57.3°C | 3.6% | 114.3hPa | 2.5V | 00:00:00 | 02:59:20 | 00:00:00 | |
| DO3MHA-11 | 2026-08-31 06:51:11 | 48.10608 | 12.23478 | 97° | 62km/h | 15819m | -17.3m/s | -57.4°C | 3.5% | 112.8hPa | 2.5V | 00:00:00 | 02:59:16 | 00:00:00 | |
| OE5MMP-10 | 2026-08-31 06:51:05 | 48.10629 | 12.23334 | 118° | 46km/h | 15925m | -17.3m/s | -57.6°C | 3.5% | 110.7hPa | 2.5V | 00:00:00 | 02:59:10 | 00:00:00 | |
| DL6DJ-15 | 2026-08-31 06:50:53 | 48.10675 | 12.23078 | 68° | 26km/h | 16295m | -16.3m/s | -57.4°C | 0.4% | 104.5hPa | 2.6V | 00:00:00 | 00:00:00 | 00:00:00 | |
| DO3MHA-11 | 2026-08-31 06:50:51 | 48.10678 | 12.23141 | 99° | 24km/h | 16171m | -17.3m/s | -56.9°C | 3.0% | 106.4hPa | 2.6V | 00:00:00 | 02:58:56 | 00:00:00 | |
| OE5MMP-10 | 2026-08-31 06:50:45 | 48.10677 | 12.23087 | 82° | 22km/h | 16278m | -16.8m/s | -57.2°C | 3.0% | 104.8hPa | 2.6V | 00:00:00 | 02:58:50 | 00:00:00 | |
| DG1MFX-10 | 2026-08-31 06:50:36 | 48.10666 | 12.23023 | 78° | 22km/h | 16416m | -17.8m/s | -58.5°C | 0.5% | 102.5hPa | 2.6V | 00:00:00 | 00:00:00 | 00:00:00 | |
| OE5MMP-10 | 2026-08-31 06:50:35 | 48.10664 | 12.23008 | 69° | 37km/h | 16452m | -18.5m/s | -58.7°C | 3.5% | 101.7hPa | 2.6V | 08:21:00 | 02:58:40 | 00:00:00 | |
| DO3MHA-11 | 2026-08-31 06:50:31 | 48.10649 | 12.22973 | 63° | 55km/h | 16526m | -17.7m/s | -59.2°C | 3.7% | 100.7hPa | 2.5V | 00:00:00 | 02:58:36 | 00:00:00 | |
| OE5DXL-15 | 2026-08-31 06:50:27 | 48.10629 | 12.22921 | 69° | 57km/h | 16597m | -19.1m/s | -59.2°C | 3.8% | 99.5hPa | 2.5V | 00:00:00 | 00:00:00 | 00:00:00 | |
| OE5MMP-10 | 2026-08-31 06:50:25 | 48.10616 | 12.22884 | 58° | 57km/h | 16635m | -19.8m/s | -59.0°C | 3.7% | 99.0hPa | 2.5V | 00:00:00 | 02:58:30 | 00:00:00 | |
| BAUMI2-15 | 2026-08-31 06:50:24 | 48.10607 | 12.22864 | 57° | 57km/h | 16654m | -20.3m/s | -58.8°C | 3.7% | 98.6hPa | 2.5V | 00:00:00 | 02:58:29 | 00:00:00 | |
| DL6DJ-15 | 2026-08-31 06:50:22 | 48.10585 | 12.22828 | 46° | 62km/h | 16694m | -18.3m/s | -58.4°C | 0.3% | 98.4hPa | 2.6V | 00:00:00 | 00:00:00 | 00:00:00 | |
| OE5MMP-10 | 2026-08-31 06:50:15 | 48.10548 | 12.22703 | 86° | 68km/h | 16824m | -18.8m/s | -57.4°C | 3.3% | 96.0hPa | 2.6V | 00:00:00 | 02:58:20 | 00:00:00 | |
| BAUMI2-15 | 2026-08-31 06:50:13 | 48.10541 | 12.22645 | 76° | 71km/h | 16862m | -20.1m/s | -56.5°C | 3.0% | 95.3hPa | 2.6V | 00:00:00 | 02:58:18 | 00:00:00 | |
| OE5WHR-10 | 2026-08-31 06:50:12 | 48.10535 | 12.22616 | 71° | 51km/h | 16881m | -18.4m/s | -56.2°C | 3.0% | 95.1hPa | 2.6V | 00:00:00 | 00:00:00 | 00:00:00 | |
| BAUMI2-15 | 2026-08-31 06:50:08 | 48.10508 | 12.22524 | 70° | 49km/h | 16958m | -18.3m/s | -55.7°C | 2.8% | 94.1hPa | 2.6V | 00:00:00 | 02:58:13 | 00:00:00 | |
| DO3MHA-11 | 2026-08-31 06:50:06 | 48.10505 | 12.22487 | 92° | 46km/h | 16995m | -19.0m/s | -55.8°C | 2.8% | 93.5hPa | 2.6V | 00:00:00 | 02:58:11 | 00:00:00 | |
| OE5MMP-10 | 2026-08-31 06:50:05 | 48.10506 | 12.22468 | 100° | 40km/h | 17013m | -18.0m/s | -55.8°C | 2.8% | 93.1hPa | 2.6V | 00:00:00 | 02:58:10 | 00:00:00 | |
| BAUMI2-15 | 2026-08-31 06:50:03 | 48.10512 | 12.22431 | 107° | 53km/h | 17051m | -18.9m/s | -55.1°C | 2.6% | 92.5hPa | 2.5V | 00:00:00 | 02:58:08 | 00:00:00 | |
| BAUMI2-15 | 2026-08-31 06:49:57 | 48.10512 | 12.22337 | 94° | 29km/h | 17167m | -18.5m/s | -54.4°C | 2.5% | 90.9hPa | 2.5V | 00:00:00 | 02:58:02 | 00:00:00 | |
| DO3MHA-11 | 2026-08-31 06:49:56 | 48.10512 | 12.22326 | 86° | 38km/h | 17185m | -18.9m/s | -54.4°C | 2.5% | 90.6hPa | 2.5V | 00:00:00 | 02:58:01 | 00:00:00 | |
| OE5MMP-10 | 2026-08-31 06:49:55 | 48.10513 | 12.22316 | 99° | 37km/h | 17204m | -19.6m/s | -54.3°C | 2.5% | 90.4hPa | 2.6V | 00:00:00 | 02:58:00 | 00:00:00 | |
| OE5WHR-10 | 2026-08-31 06:49:51 | 48.10512 | 12.22277 | 68° | 38km/h | 17282m | -18.8m/s | -54.7°C | 2.5% | 89.3hPa | 2.6V | 00:00:00 | 00:00:00 | 00:00:00 | |
| BAUMI2-15 | 2026-08-31 06:49:47 | 48.10486 | 12.22226 | 48° | 37km/h | 17357m | -20.9m/s | -55.3°C | 2.6% | 88.5hPa | 2.6V | 08:22:00 | 02:57:52 | 00:00:00 | |
| DO3MHA-11 | 2026-08-31 06:49:45 | 48.10468 | 12.22198 | 41° | 26km/h | 17399m | -20.2m/s | -55.4°C | 2.7% | 87.6hPa | 2.6V | 00:00:00 | 02:57:50 | 00:00:00 | |
| BAUMI2-15 | 2026-08-31 06:49:42 | 48.10449 | 12.22180 | 40° | 16km/h | 17456m | -19.6m/s | -55.0°C | 2.5% | 87.0hPa | 2.6V | 00:00:00 | 02:57:47 | 00:00:00 | |
| DO3MHA-11 | 2026-08-31 06:49:35 | 48.10423 | 12.22113 | 70° | 24km/h | 17589m | -20.4m/s | -55.1°C | 2.6% | 85.0hPa | 2.6V | 00:00:00 | 02:57:40 | 00:00:00 | |
| BAUMI2-15 | 2026-08-31 06:49:33 | 48.10416 | 12.22088 | 69° | 31km/h | 17631m | -20.4m/s | -55.1°C | 2.6% | 84.6hPa | 2.6V | 00:00:00 | 02:57:38 | 00:00:00 | |
| BAUMI2-15 | 2026-08-31 06:49:28 | 48.10410 | 12.22059 | 77° | 26km/h | 17725m | -19.6m/s | -55.7°C | 2.7% | 83.2hPa | 2.6V | 00:00:00 | 02:57:33 | 00:00:00 | |
| OE5DXL-15 | 2026-08-31 06:49:27 | 48.10409 | 12.22054 | 65° | 35km/h | 17744m | -20.2m/s | -55.9°C | 2.8% | 83.0hPa | 2.6V | 00:00:00 | 00:00:00 | 00:00:00 | |
| DO3MHA-11 | 2026-08-31 06:49:25 | 48.10404 | 12.22041 | 42° | 26km/h | 17783m | -20.8m/s | -56.0°C | 2.8% | 82.5hPa | 2.6V | 08:22:00 | 02:57:30 | 00:00:00 | |
| DL6DJ-15 | 2026-08-31 06:49:20 | 48.10368 | 12.22034 | 358° | 33km/h | 17887m | -21.0m/s | -56.0°C | 0.1% | 81.6hPa | 2.5V | 00:00:00 | 00:00:00 | 00:00:00 | |
| PG1ADW-2 | 2026-08-31 06:49:18 | 48.10356 | 12.22038 | 345° | 42km/h | 17929m | -23.5m/s | -55.2°C | 2.6% | 80.6hPa | 2.5V | 00:00:00 | 00:00:00 | 00:00:00 | |
| BAUMI2-15 | 2026-08-31 06:49:16 | 48.10348 | 12.22034 | 42° | 44km/h | 17972m | -20.5m/s | -54.9°C | 2.5% | 80.4hPa | 2.5V | 00:00:00 | 02:57:21 | 00:00:00 | |
| OE5MMP-10 | 2026-08-31 06:49:15 | 48.10343 | 12.22026 | 52° | 46km/h | 17991m | -21.1m/s | -54.7°C | 2.4% | 79.8hPa | 2.5V | 00:00:00 | 02:57:20 | 00:00:00 | |
| NBG1-10 | 2026-08-31 06:49:14 | 48.10336 | 12.22014 | 50° | 35km/h | 18012m | -21.6m/s | -54.8°C | 2.4% | 79.8hPa | 2.5V | 00:00:00 | 02:57:19 | 00:00:00 | |
| OE5WHR-10 | 2026-08-31 06:49:11 | 48.10304 | 12.21978 | 27° | 37km/h | 18072m | -22.8m/s | -55.2°C | 2.6% | 78.9hPa | 2.5V | 00:00:00 | 02:57:16 | 00:00:00 | |
| DM0DOS-11 | 2026-08-31 06:49:07 | 48.10260 | 12.21941 | 56° | 33km/h | 18201m | -21.7m/s | -55.7°C | 2.7% | 77.6hPa | 2.5V | 08:22:59 | 02:57:10 | 00:00:00 | i |
| OE5DRO-10 | 2026-08-31 06:49:07 | 48.10269 | 12.21956 | 43° | 33km/h | 18159m | -20.6m/s | -55.8°C | 2.7% | 77.8hPa | 2.5V | 00:00:00 | 00:00:00 | 00:00:00 | i |
| OE5MMP-10 | 2026-08-31 06:49:05 | 48.10260 | 12.21941 | 57° | 38km/h | 18202m | -21.6m/s | -55.7°C | 2.7% | 77.6hPa | 2.5V | 08:22:00 | 02:57:10 | 00:00:00 | |
| BAUMI2-15 | 2026-08-31 06:49:01 | 48.10238 | 12.21888 | 47° | 37km/h | 18289m | -21.7m/s | -55.8°C | 2.7% | 76.2hPa | 2.6V | 00:00:00 | 02:57:06 | 00:00:00 | |
| OE5DXL-15 | 2026-08-31 06:48:57 | 48.10205 | 12.21863 | 16° | 31km/h | 18376m | -22.7m/s | -56.1°C | 2.8% | 75.5hPa | 2.6V | 00:00:00 | 00:00:00 | 00:00:00 | |
| DM0DOS-11 | 2026-08-31 06:48:56 | 48.10184 | 12.21860 | 3° | 38km/h | 18421m | -22.2m/s | -56.1°C | 2.8% | 74.9hPa | 2.6V | 08:23:09 | 02:57:00 | 00:00:00 | i |
| PG1ADW-2 | 2026-08-31 06:48:56 | 48.10195 | 12.21861 | 360° | 33km/h | 18398m | -23.8m/s | -56.0°C | 2.8% | 74.8hPa | 2.6V | 00:00:00 | 02:57:01 | 00:00:00 | i |
| DO3MHA-11 | 2026-08-31 06:48:55 | 48.10184 | 12.21860 | 4° | 31km/h | 18421m | -22.2m/s | -56.1°C | 2.8% | 74.8hPa | 2.6V | 00:00:00 | 02:57:00 | 00:00:00 | |
| DK5PH-5 | 2026-08-31 06:48:52 | 48.10166 | 12.21856 | 45° | 20km/h | 18486m | -21.6m/s | -56.2°C | 2.8% | 73.9hPa | 2.6V | 00:00:00 | 02:56:57 | 00:00:00 | |
| DM0DOS-11 | 2026-08-31 06:48:50 | 48.10122 | 12.21797 | 28° | 29km/h | 18638m | -21.2m/s | -55.5°C | 2.6% | 72.2hPa | 2.6V | 08:23:19 | 02:56:50 | 00:00:00 | |
| DL6DJ-15 | 2026-08-31 06:48:49 | 48.10136 | 12.21812 | 41° | 35km/h | 18595m | -23.0m/s | -55.5°C | 0.0% | 72.7hPa | 2.5V | 00:00:00 | 00:00:00 | 00:00:00 | |
| OE5DRO-10 | 2026-08-31 06:48:48 | 48.10143 | 12.21823 | 42° | 31km/h | 18572m | -22.6m/s | -55.5°C | 2.7% | 73.2hPa | 2.5V | 00:00:00 | 00:00:00 | 00:00:00 | |
| DO3MHA-11 | 2026-08-31 06:48:45 | 48.10121 | 12.21797 | 29° | 27km/h | 18638m | -21.2m/s | -55.5°C | 2.6% | 72.2hPa | 2.5V | 00:00:00 | 02:56:50 | 00:00:00 | |
| DG1MFX-10 | 2026-08-31 06:48:36 | 48.10065 | 12.21753 | 46° | 27km/h | 18844m | -23.5m/s | -55.5°C | -0.0% | 69.9hPa | 2.5V | 08:24:00 | 00:00:00 | 00:00:00 | |
| OE5MMP-10 | 2026-08-31 06:48:35 | 48.10059 | 12.21746 | 50° | 33km/h | 18867m | -23.6m/s | -55.5°C | 2.7% | 69.7hPa | 2.5V | 00:00:00 | 02:56:40 | 00:00:00 | |
| OE5WHR-10 | 2026-08-31 06:48:29 | 48.10017 | 12.21695 | 34° | 22km/h | 19004m | -22.6m/s | -56.1°C | 2.9% | 68.1hPa | 2.6V | 00:00:00 | 00:00:00 | 00:00:00 | |
| OE5DXL-15 | 2026-08-31 06:48:27 | 48.10000 | 12.21685 | 30° | 18km/h | 19048m | -23.3m/s | -56.2°C | 2.9% | 67.6hPa | 2.6V | 00:00:00 | 00:00:00 | 00:00:00 | |
| DO3MHA-11 | 2026-08-31 06:48:25 | 48.09986 | 12.21676 | 31° | 18km/h | 19095m | -24.1m/s | -55.6°C | 2.8% | 67.1hPa | 2.6V | 00:00:00 | 02:56:30 | 00:00:00 | |
| DG1MJG | 2026-08-31 06:48:24 | 48.09986 | 12.21676 | 32° | 29km/h | 19095m | -24.2m/s | -55.6°C | 0% | 67.2hPa | 2.6V | 08:24:00 | 00:00:00 | 00:00:00 | |
| DM0DOS-11 | 2026-08-31 06:48:22 | 48.09969 | 12.21655 | 60° | 18km/h | 19188m | -22.5m/s | -54.9°C | 2.6% | 66.2hPa | 2.6V | 08:23:43 | 02:56:26 | 00:00:00 | i |
| NBG1-10 | 2026-08-31 06:48:21 | 48.09969 | 12.21654 | 61° | 15km/h | 19188m | -22.4m/s | -54.8°C | 2.6% | 66.1hPa | 2.6V | 00:00:00 | 02:56:26 | 00:00:00 | |
| DO3MHA-11 | 2026-08-31 06:48:15 | 48.09966 | 12.21625 | 38° | 15km/h | 19333m | -24.2m/s | -54.0°C | 2.5% | 64.7hPa | 2.6V | 00:00:00 | 02:56:20 | 00:00:00 | |
| OE5WHR-10 | 2026-08-31 06:48:08 | 48.09941 | 12.21632 | 301° | 16km/h | 19501m | -22.3m/s | -54.1°C | 2.4% | 63.3hPa | 2.6V | 00:00:00 | 02:56:13 | 00:00:00 | |
| OE5MMP-10 | 2026-08-31 06:48:05 | 48.09939 | 12.21640 | 323° | 18km/h | 19573m | -22.2m/s | -53.8°C | 2.3% | 62.6hPa | 2.6V | 00:00:00 | 02:56:10 | 00:00:00 | |
| DM0DOS-11 | 2026-08-31 06:48:04 | 48.09934 | 12.21645 | 349° | 18km/h | 19619m | -23.2m/s | -54°C | 2.4% | 62.1hPa | 2.5V | 08:24:01 | 02:56:08 | 00:00:00 | i |
| DL1ZP-14 | 2026-08-31 06:48:00 | 48.09913 | 12.21657 | 354° | 15km/h | 19713m | -23.2m/s | -53.6°C | 0.0% | 60.9hPa | 2.5V | 00:00:00 | 00:00:00 | 00:00:00 | |
| EDDB2-12 | 2026-08-31 06:47:59 | 48.09907 | 12.21666 | 312° | 15km/h | 19762m | -20.7m/s | -53.5°C | 0.0% | 60.6hPa | 2.5V | 00:00:00 | 00:00:00 | 00:00:00 | |
| DM0DOS-11 | 2026-08-31 06:47:57 | 48.09911 | 12.21695 | 238° | 27km/h | 19852m | -25.1m/s | -53.7°C | 2.3% | 59.8hPa | 2.5V | 08:24:11 | 02:55:58 | 00:00:00 | i |
| SONDE2-11 | 2026-08-31 06:47:54 | 48.09911 | 12.21695 | 238° | 27km/h | 19853m | -25.1m/s | -53.7°C | 0.0% | 59.8hPa | 2.6V | 00:00:00 | 00:00:00 | 00:00:00 | |
| DG1MFX-10 | 2026-08-31 06:47:52 | 48.09911 | 12.21695 | 239° | 29km/h | 19853m | -25.1m/s | -53.7°C | -0.1% | 59.8hPa | 2.6V | 08:24:00 | 00:00:00 | 00:00:00 | |
| NBG1-10 | 2026-08-31 06:47:48 | 48.09913 | 12.21712 | 346° | 16km/h | 19969m | -22.2m/s | -54.0°C | 2.4% | 58.8hPa | 2.6V | 00:00:00 | 02:55:53 | 00:00:00 | |
| DM0DOS-11 | 2026-08-31 06:47:47 | 48.09883 | 12.21727 | 330° | 26km/h | 20087m | -24.1m/s | -54.4°C | 2.5% | 57.5hPa | 2.6V | 08:24:21 | 02:55:48 | 00:00:00 | i |
| OE5WHR-10 | 2026-08-31 06:47:47 | 48.09907 | 12.21713 | 1° | 18km/h | 19992m | -23.9m/s | -54.1°C | 2.4% | 58.4hPa | 2.6V | 08:24:00 | 00:00:00 | 00:00:00 | i |
| PG1ADW-2 | 2026-08-31 06:47:46 | 48.09900 | 12.21715 | 336° | 20km/h | 20016m | -22.8m/s | -54.1°C | 2.4% | 58.3hPa | 2.6V | 00:00:00 | 00:00:00 | 00:00:00 | |
| OE5MMP-10 | 2026-08-31 06:47:45 | 48.09894 | 12.21719 | 339° | 20km/h | 20038m | -24.3m/s | -54.1°C | 2.5% | 57.9hPa | 2.6V | 00:00:00 | 02:55:50 | 00:00:00 | |
| DK5PH-5 | 2026-08-31 06:47:40 | 48.09864 | 12.21734 | 8° | 13km/h | 20160m | -24.9m/s | -54.4°C | 2.5% | 57.0hPa | 2.6V | 00:00:00 | 02:55:45 | 00:00:00 | |
| DM0DOS-11 | 2026-08-31 06:47:36 | 48.09861 | 12.21732 | 94° | 9km/h | 20328m | -23.9m/s | -54.3°C | 2.5% | 55.5hPa | 2.6V | 08:24:31 | 02:55:38 | 00:00:00 | i |
| DO3MHA-11 | 2026-08-31 06:47:35 | 48.09858 | 12.21737 | 199° | 16km/h | 20281m | -23.7m/s | -54.4°C | 2.5% | 55.7hPa | 2.6V | 00:00:00 | 02:55:40 | 00:00:00 | |
| DG1MFX-10 | 2026-08-31 06:47:31 | 48.09862 | 12.21729 | 128° | 13km/h | 20353m | -24.5m/s | -54.2°C | -0.1% | 55.3hPa | 2.6V | 08:25:00 | 00:00:00 | 00:00:00 | |
| EDDB2-12 | 2026-08-31 06:47:28 | 48.09849 | 12.21706 | 16° | 20km/h | 20449m | -23.5m/s | -54.2°C | 0.0% | 54.6hPa | 2.6V | 00:00:00 | 00:00:00 | 00:00:00 | |
| OE5DXL-15 | 2026-08-31 06:47:27 | 48.09844 | 12.21704 | 18° | 13km/h | 20473m | -23.0m/s | -54.1°C | 2.5% | 54.1hPa | 2.6V | 00:00:00 | 00:00:00 | 00:00:00 | |
| OE5WHR-10 | 2026-08-31 06:47:26 | 48.09841 | 12.21705 | 309° | 13km/h | 20497m | -24.5m/s | -54.0°C | 2.5% | 53.9hPa | 2.6V | 00:00:00 | 00:00:00 | 00:00:00 | |
| DM0DOS-11 | 2026-08-31 06:47:25 | 48.09848 | 12.21714 | 178° | 15km/h | 20569m | -24.2m/s | -53.9°C | 2.5% | 53.3hPa | 2.6V | 08:24:41 | 02:55:28 | 00:00:00 | i |
| DO3MHA-11 | 2026-08-31 06:47:25 | 48.09842 | 12.21709 | 226° | 13km/h | 20521m | -21.7m/s | -53.9°C | 2.4% | 54.0hPa | 2.6V | 00:00:00 | 02:55:30 | 00:00:00 | i |
| OE5DRO-10 | 2026-08-31 06:47:24 | 48.09844 | 12.21712 | 211° | 11km/h | 20544m | -24.2m/s | -53.9°C | 2.4% | 53.5hPa | 2.6V | 00:00:00 | 00:00:00 | 00:00:00 | |
| SONDE2-11 | 2026-08-31 06:47:23 | 48.09852 | 12.21712 | 138° | 16km/h | 20593m | -25.3m/s | -53.9°C | 0.0% | 53.4hPa | 2.6V | 00:00:00 | 00:00:00 | 00:00:00 | |
| DF7PN | 2026-08-31 06:47:19 | 48.09845 | 12.21698 | 332° | 9km/h | 20720m | -24.2m/s | -53.5°C | 0.0% | 52.3hPa | 2.6V | 00:00:00 | 00:00:00 | 00:00:00 | |
| DL6DJ-15 | 2026-08-31 06:47:16 | 48.09843 | 12.21700 | 336° | 4km/h | 20743m | -22.8m/s | -53.6°C | 0.0% | 51.9hPa | 2.6V | 00:00:00 | 00:00:00 | 00:00:00 | |
| DO3MHA-11 | 2026-08-31 06:47:15 | 48.09842 | 12.21702 | 278° | 11km/h | 20768m | -25.1m/s | -53.6°C | 2.4% | 51.6hPa | 2.6V | 00:00:00 | 02:55:20 | 00:00:00 | |
| OE5HKT-10 | 2026-08-31 06:47:13 | 48.09848 | 12.21711 | 188° | 15km/h | 20819m | -26.6m/s | -53.7°C | 2.4% | 51.5hPa | 2.6V | 00:00:00 | 02:55:18 | 00:00:00 | |
| DK5PH-5 | 2026-08-31 06:47:10 | 48.09849 | 12.21708 | 54° | 15km/h | 20893m | -25.0m/s | -53.5°C | 2.4% | 50.8hPa | 2.6V | 00:00:00 | 02:55:15 | 00:00:00 | |
| PG1ADW-2 | 2026-08-31 06:47:06 | 48.09836 | 12.21698 | 27° | 15km/h | 20997m | -25.6m/s | -53.0°C | 2.3% | 49.9hPa | 2.6V | 00:00:00 | 00:00:00 | 00:00:00 | |
| DO3MHA-11 | 2026-08-31 06:47:05 | 48.09836 | 12.21697 | 205° | 15km/h | 21024m | -26.0m/s | -52.8°C | 2.2% | 49.8hPa | 2.5V | 00:00:00 | 02:55:10 | 00:00:00 | |
| OE5DRO-10 | 2026-08-31 06:47:04 | 48.09837 | 12.21697 | 164° | 16km/h | 21050m | -25.3m/s | -52.8°C | 2.2% | 49.4hPa | 2.5V | 08:25:00 | 00:00:00 | 00:00:00 | |
| DM0DOS-11 | 2026-08-31 06:46:57 | 48.09875 | 12.21690 | 195° | 18km/h | 21310m | -27.6m/s | -53.1°C | 2.3% | 47.5hPa | 2.6V | 08:25:10 | 02:54:59 | 00:00:00 | i |
| SONDE2-11 | 2026-08-31 06:46:52 | 48.09884 | 12.21687 | 210° | 9km/h | 21392m | -25.2m/s | -53.5°C | 0.0% | 46.9hPa | 2.6V | 00:00:00 | 00:00:00 | 00:00:00 | |
| DG1MFX-10 | 2026-08-31 06:46:50 | 48.09883 | 12.21686 | 211° | 11km/h | 21392m | -25.2m/s | -53.5°C | -0.1% | 46.9hPa | 2.6V | 08:25:00 | 00:00:00 | 00:00:00 | |
| DM0DOS-11 | 2026-08-31 06:46:46 | 48.09867 | 12.21720 | 0° | 13km/h | 21573m | -25.4m/s | -53°C | 2.3% | 45.8hPa | 2.6V | 08:25:20 | 02:54:49 | 00:00:00 | i |
| PG1ADW-2 | 2026-08-31 06:46:46 | 48.09872 | 12.21711 | 310° | 22km/h | 21523m | -25.6m/s | -53.6°C | 2.4% | 45.9hPa | 2.6V | 00:00:00 | 02:54:51 | 00:00:00 | i |
| DO3MHA-11 | 2026-08-31 06:46:45 | 48.09870 | 12.21718 | 291° | 18km/h | 21548m | -25.0m/s | -53.2°C | 2.3% | 45.9hPa | 2.6V | 00:00:00 | 02:54:50 | 00:00:00 | |
| OE5WHR-10 | 2026-08-31 06:46:44 | 48.09868 | 12.21720 | 1° | 20km/h | 21574m | -25.4m/s | -53.0°C | 2.3% | 45.7hPa | 2.6V | 00:00:00 | 00:00:00 | 00:00:00 | |
| DK5PH-5 | 2026-08-31 06:46:40 | 48.09860 | 12.21714 | 19° | 22km/h | 21683m | -27.2m/s | -52.8°C | 2.2% | 44.9hPa | 2.5V | 00:00:00 | 02:54:45 | 00:00:00 | |
| DM0DOS-11 | 2026-08-31 06:46:39 | 48.09823 | 12.21758 | 304° | 29km/h | 21870m | -27.9m/s | -53.1°C | 2.3% | 43.5hPa | 2.5V | 08:25:31 | 02:54:38 | 00:00:00 | i |
| DO3MHA-11 | 2026-08-31 06:46:35 | 48.09834 | 12.21740 | 313° | 20km/h | 21814m | -26.9m/s | -53.0°C | 2.3% | 43.8hPa | 2.6V | 00:00:00 | 02:54:40 | 00:00:00 | |
| NBG1-10 | 2026-08-31 06:46:34 | 48.09828 | 12.21749 | 309° | 26km/h | 21842m | -27.6m/s | -53.0°C | 2.3% | 43.5hPa | 2.6V | 00:00:00 | 02:54:39 | 00:00:00 | |
| BAUMI2-15 | 2026-08-31 06:46:27 | 48.09809 | 12.21768 | 352° | 22km/h | 22034m | -27.4m/s | -52.8°C | 2.2% | 42.6hPa | 2.6V | 00:00:00 | 02:54:32 | 00:00:00 | |
| PG1ADW-2 | 2026-08-31 06:46:26 | 48.09804 | 12.21770 | 337° | 27km/h | 22061m | -27.1m/s | -52.7°C | 2.2% | 42.2hPa | 2.6V | 00:00:00 | 00:00:00 | 00:00:00 | |
| OE5MMP-10 | 2026-08-31 06:46:25 | 48.09799 | 12.21773 | 332° | 29km/h | 22089m | -28.3m/s | -52.6°C | 2.2% | 41.9hPa | 2.6V | 00:00:00 | 02:54:30 | 00:00:00 | |
| OE5HKT-10 | 2026-08-31 06:46:24 | 48.09795 | 12.21781 | 297° | 20km/h | 22117m | -28.0m/s | -52.6°C | 2.2% | 42.0hPa | 2.6V | 00:00:00 | 00:00:00 | 00:00:00 | |
| OE5WHR-10 | 2026-08-31 06:46:23 | 48.09793 | 12.21791 | 290° | 27km/h | 22144m | -27.3m/s | -52.7°C | 2.2% | 41.6hPa | 2.6V | 00:00:00 | 00:00:00 | 00:00:00 | |
| BAUMI2-15 | 2026-08-31 06:46:22 | 48.09791 | 12.21801 | 293° | 33km/h | 22172m | -29.5m/s | -52.9°C | 2.2% | 41.4hPa | 2.6V | 00:00:00 | 02:54:27 | 00:00:00 | |
| SONDE2-11 | 2026-08-31 06:46:21 | 48.09787 | 12.21819 | 290° | 13km/h | 22233m | -32.2m/s | -53.1°C | 0.0% | 41.2hPa | 2.6V | 00:00:00 | 00:00:00 | 00:00:00 | |
| DB0NH | 2026-08-31 06:46:20 | 48.09787 | 12.21819 | 291° | 22km/h | 22233m | -32.1m/s | -53.0°C | 2.3% | 41.1hPa | 2.6V | 00:00:00 | 02:54:25 | 00:00:00 | |
| DO3MHA-11 | 2026-08-31 06:46:15 | 48.09748 | 12.21830 | 357° | 24km/h | 22378m | -30.1m/s | -53.5°C | 2.4% | 40.1hPa | 2.5V | 00:00:00 | 02:54:20 | 00:00:00 | |
| DL6DJ-15 | 2026-08-31 06:46:14 | 48.09729 | 12.21835 | 345° | 33km/h | 22440m | -29.8m/s | -53.8°C | 0.0% | 39.7hPa | 2.5V | 00:00:00 | 00:00:00 | 00:00:00 | |
| DK5PH-5 | 2026-08-31 06:46:10 | 48.09719 | 12.21840 | 5° | 15km/h | 22527m | -29.3m/s | -53.4°C | 2.3% | 39.2hPa | 2.5V | 00:00:00 | 02:54:15 | 00:00:00 | |
| BAUMI2-15 | 2026-08-31 06:46:09 | 48.09718 | 12.21840 | 6° | 26km/h | 22556m | -27.9m/s | -53.4°C | 2.3% | 39.0hPa | 2.5V | 00:00:00 | 02:54:14 | 00:00:00 | |
| OE5DRO-10 | 2026-08-31 06:46:07 | 48.09710 | 12.21830 | 45° | 22km/h | 22616m | -27.7m/s | -53.4°C | 2.3% | 38.9hPa | 2.5V | 00:00:00 | 00:00:00 | 00:00:00 | |
| PG1ADW-2 | 2026-08-31 06:46:06 | 48.09704 | 12.21823 | 22° | 20km/h | 22644m | -26.0m/s | -53.5°C | 2.3% | 38.6hPa | 2.6V | 08:25:00 | 00:00:00 | 00:00:00 | |
| DM0DOS-11 | 2026-08-31 06:46:05 | 48.09661 | 12.21791 | 33° | 20km/h | 22818m | -28m/s | -53.7°C | 2.4% | 37.7hPa | 2.5V | 08:26:04 | 02:54:05 | 00:00:00 | i |
| OE5MMP-10 | 2026-08-31 06:46:05 | 48.09696 | 12.21817 | 34° | 26km/h | 22671m | -28.0m/s | -53.5°C | 2.3% | 38.3hPa | 2.6V | 08:25:00 | 02:54:10 | 00:00:00 | i |
| BAUMI2-15 | 2026-08-31 06:46:04 | 48.09687 | 12.21810 | 24° | 27km/h | 22701m | -30.1m/s | -53.6°C | 2.4% | 38.1hPa | 2.6V | 00:00:00 | 02:54:09 | 00:00:00 | |
| OE5WHR-10 | 2026-08-31 06:46:02 | 48.09674 | 12.21802 | 29° | 16km/h | 22760m | -28.2m/s | -53.7°C | 2.4% | 38.0hPa | 2.6V | 00:00:00 | 02:54:07 | 00:00:00 | |
| NBG1-10 | 2026-08-31 06:46:01 | 48.09667 | 12.21796 | 30° | 11km/h | 22789m | -27.4m/s | -53.6°C | 2.4% | 37.7hPa | 2.6V | 00:00:00 | 02:54:06 | 08:30:00 | |
| BAUMI2-15 | 2026-08-31 06:45:59 | 48.09658 | 12.21786 | 59° | 22km/h | 22847m | -28.7m/s | -53.7°C | 2.4% | 37.3hPa | 2.6V | 00:00:00 | 02:54:04 | 00:00:00 | |
| DM0DOS-11 | 2026-08-31 06:45:55 | 48.09634 | 12.21733 | 93° | 7km/h | 23108m | -27.8m/s | -53.6°C | 2.3% | 36hPa | 2.6V | 08:26:14 | 02:53:55 | 00:00:00 | i |
| OE5MMP-10 | 2026-08-31 06:45:55 | 48.09644 | 12.21758 | 58° | 15km/h | 22964m | -29.7m/s | -53.4°C | 2.3% | 36.6hPa | 2.6V | 00:00:00 | 02:54:00 | 00:00:00 | i |
| BAUMI2-15 | 2026-08-31 06:45:54 | 48.09640 | 12.21752 | 34° | 15km/h | 22994m | -28.1m/s | -53.4°C | 2.3% | 36.6hPa | 2.6V | 00:00:00 | 02:53:59 | 00:00:00 | |
| DB0NH | 2026-08-31 06:45:50 | 48.09634 | 12.21733 | 94° | 11km/h | 23108m | -27.7m/s | -53.6°C | 2.3% | 35.9hPa | 2.6V | 00:00:00 | 02:53:55 | 00:00:00 | |
| BAUMI2-15 | 2026-08-31 06:45:49 | 48.09634 | 12.21728 | 91° | 11km/h | 23137m | -28.1m/s | -53.7°C | 2.4% | 35.7hPa | 2.6V | 08:26:00 | 02:53:54 | 00:00:00 | |
| OE5DRO-10 | 2026-08-31 06:45:48 | 48.09634 | 12.21723 | 71° | 9km/h | 23166m | -28.6m/s | -53.9°C | 2.4% | 35.6hPa | 2.5V | 00:00:00 | 00:00:00 | 00:00:00 | |
| OE5HKT-10 | 2026-08-31 06:45:46 | 48.09634 | 12.21723 | 211° | 13km/h | 23224m | -28.7m/s | -53.9°C | 2.4% | 35.3hPa | 2.5V | 00:00:00 | 02:53:51 | 00:00:00 | |
| OE5MMP-10 | 2026-08-31 06:45:45 | 48.09635 | 12.21725 | 273° | 9km/h | 23253m | -29.2m/s | -53.8°C | 2.4% | 34.9hPa | 2.5V | 00:00:00 | 02:53:50 | 00:00:00 | |
| BAUMI2-15 | 2026-08-31 06:45:44 | 48.09636 | 12.21730 | 248° | 9km/h | 23283m | -30.2m/s | -53.9°C | 2.4% | 34.8hPa | 2.5V | 00:00:00 | 02:53:49 | 00:00:00 | |
| DM0DOS-11 | 2026-08-31 06:45:43 | 48.09641 | 12.21737 | 34° | 5km/h | 23434m | -30m/s | -54.6°C | 2.6% | 34hPa | 2.5V | 08:26:25 | 02:53:44 | 00:00:00 | i |
| DL6DJ-15 | 2026-08-31 06:45:43 | 48.09641 | 12.21735 | 191° | 4km/h | 23344m | -29.3m/s | -54.2°C | 0.0% | 34.7hPa | 2.6V | 00:00:00 | 00:00:00 | 00:00:00 | i |
| EDDB2-11 | 2026-08-31 06:45:42 | 48.09641 | 12.21736 | 266° | 5km/h | 23374m | -29.5m/s | -54.3°C | 0.0% | 34.3hPa | 2.6V | 00:00:00 | 00:00:00 | 00:00:00 | |
| OE5WHR-10 | 2026-08-31 06:45:41 | 48.09641 | 12.21736 | 267° | 9km/h | 23374m | -29.5m/s | -54.3°C | 2.5% | 34.3hPa | 2.6V | 00:00:00 | 00:00:00 | 00:00:00 | |
| DB0UT-7 | 2026-08-31 06:45:40 | 48.09642 | 12.21737 | 220° | 7km/h | 23404m | -30.0m/s | -54.5°C | 2.6% | 34.3hPa | 2.6V | 00:00:00 | 02:53:45 | 00:00:00 | |
| BAUMI2-15 | 2026-08-31 06:45:39 | 48.09641 | 12.21737 | 35° | 11km/h | 23434m | -29.9m/s | -54.6°C | 2.6% | 33.9hPa | 2.6V | 00:00:00 | 02:53:44 | 00:00:00 | |
| DK5PH-5 | 2026-08-31 06:45:37 | 48.09638 | 12.21741 | 271° | 13km/h | 23496m | -30.1m/s | -54.8°C | 2.7% | 33.6hPa | 2.6V | 08:26:00 | 02:53:42 | 00:00:00 | |
| DM0DOS-11 | 2026-08-31 06:45:35 | 48.09629 | 12.21765 | 323° | 16km/h | 23745m | -31.6m/s | -54.4°C | 2.7% | 32.3hPa | 2.6V | 08:26:35 | 02:53:34 | 00:00:00 | i |
| DO3MHA-11 | 2026-08-31 06:45:35 | 48.09637 | 12.21749 | 257° | 11km/h | 23557m | -30.9m/s | -54.6°C | 2.6% | 33.5hPa | 2.6V | 00:00:00 | 02:53:40 | 00:00:00 | i |
| BAUMI2-15 | 2026-08-31 06:45:34 | 48.09639 | 12.21754 | 233° | 9km/h | 23589m | -31.1m/s | -54.6°C | 2.7% | 33.3hPa | 2.6V | 00:00:00 | 02:53:39 | 00:00:00 | |
| BAUMI2-15 | 2026-08-31 06:45:29 | 48.09629 | 12.21765 | 324° | 9km/h | 23745m | -31.5m/s | -54.3°C | 2.7% | 32.3hPa | 2.6V | 00:00:00 | 02:53:34 | 00:00:00 | |
| OE5DXL-15 | 2026-08-31 06:45:27 | 48.09625 | 12.21769 | 355° | 13km/h | 23809m | -31.4m/s | -54.0°C | 2.6% | 32.0hPa | 2.6V | 00:00:00 | 00:00:00 | 00:00:00 | |
| PG1ADW-2 | 2026-08-31 06:45:26 | 48.09624 | 12.21771 | 284° | 13km/h | 23841m | -31.3m/s | -53.8°C | 2.6% | 31.8hPa | 2.6V | 00:00:00 | 02:53:31 | 00:00:00 | |
| DO3MHA-11 | 2026-08-31 06:45:25 | 48.09625 | 12.21773 | 203° | 11km/h | 23873m | -31.5m/s | -53.8°C | 2.6% | 31.7hPa | 2.6V | 00:00:00 | 02:53:30 | 00:00:00 | |
| DM0DOS-11 | 2026-08-31 06:45:24 | 48.09638 | 12.21780 | 192° | 13km/h | 24062m | -31.7m/s | -53.7°C | 2.6% | 31hPa | 2.6V | 08:26:45 | 02:53:24 | 00:00:00 | i |
| NBG1-10 | 2026-08-31 06:45:24 | 48.09627 | 12.21774 | 160° | 9km/h | 23905m | -32.0m/s | -53.9°C | 2.5% | 31.7hPa | 2.6V | 00:00:00 | 02:53:29 | 00:00:00 | i |
| DG1MFX-10 | 2026-08-31 06:45:23 | 48.09627 | 12.21774 | 160° | 7km/h | 23905m | -32.0m/s | -53.9°C | -0.2% | 31.8hPa | 2.6V | 08:26:00 | 00:00:00 | 00:00:00 | |
| OE5WHR-10 | 2026-08-31 06:45:20 | 48.09636 | 12.21780 | 150° | 15km/h | 24031m | -30.9m/s | -53.8°C | 2.6% | 30.8hPa | 2.6V | 00:00:00 | 00:00:00 | 00:00:00 | |
| BAUMI2-15 | 2026-08-31 06:45:19 | 48.09638 | 12.21780 | 193° | 13km/h | 24063m | -31.6m/s | -53.7°C | 2.6% | 30.9hPa | 2.6V | 00:00:00 | 02:53:24 | 00:00:00 | |
| SONDE2-11 | 2026-08-31 06:45:18 | 48.09641 | 12.21779 | 163° | 15km/h | 24094m | -32.0m/s | -53.4°C | 0.0% | 30.6hPa | 2.6V | 00:00:00 | 00:00:00 | 00:00:00 | |
| DO3MHA-11 | 2026-08-31 06:45:15 | 48.09648 | 12.21771 | 165° | 18km/h | 24191m | -32.5m/s | -52.7°C | 2.4% | 30.0hPa | 2.6V | 00:00:00 | 02:53:20 | 00:00:00 | |
| BAUMI2-15 | 2026-08-31 06:45:14 | 48.09651 | 12.21768 | 143° | 13km/h | 24225m | -34.1m/s | -52.4°C | 2.3% | 30.0hPa | 2.6V | 00:00:00 | 02:53:19 | 00:00:00 | |
| DL6DJ-15 | 2026-08-31 06:45:12 | 48.09650 | 12.21771 | 330° | 11km/h | 24324m | -34.6m/s | -52.0°C | 0.0% | 29.5hPa | 2.6V | 00:00:00 | 00:00:00 | 00:00:00 | |
| EDDB2-11 | 2026-08-31 06:45:11 | 48.09641 | 12.21778 | 320° | 26km/h | 24392m | -32.8m/s | -51.8°C | 0.0% | 29.2hPa | 2.6V | 00:00:00 | 00:00:00 | 00:00:00 | |
| BAUMI2-15 | 2026-08-31 06:45:09 | 48.09641 | 12.21778 | 321° | 20km/h | 24392m | -32.7m/s | -51.7°C | 2.2% | 29.2hPa | 2.6V | 00:00:00 | 02:53:14 | 00:00:00 | |
| DK5PH-5 | 2026-08-31 06:45:07 | 48.09632 | 12.21785 | 345° | 9km/h | 24458m | -33.6m/s | -51.4°C | 2.1% | 28.9hPa | 2.6V | 00:00:00 | 02:53:12 | 00:00:00 | |
| PG1ADW-2 | 2026-08-31 06:45:06 | 48.09626 | 12.21789 | 320° | 9km/h | 24492m | -34.9m/s | -51.4°C | 2.1% | 29.0hPa | 2.6V | 00:00:00 | 00:00:00 | 00:00:00 | |
| DM0DOS-11 | 2026-08-31 06:45:05 | 48.09615 | 12.21800 | 265° | 7km/h | 24628m | -33.2m/s | -51.5°C | 2.1% | 28.1hPa | 2.6V | 08:27:02 | 02:53:07 | 00:00:00 | i |
| OE5MMP-10 | 2026-08-31 06:45:05 | 48.09623 | 12.21793 | 309° | 9km/h | 24527m | -32.9m/s | -51.3°C | 2.1% | 28.7hPa | 2.5V | 00:00:00 | 02:53:10 | 00:00:00 | i |
| BAUMI2-15 | 2026-08-31 06:45:04 | 48.09620 | 12.21795 | 347° | 11km/h | 24560m | -33.2m/s | -51.3°C | 2.1% | 28.5hPa | 2.6V | 08:27:00 | 02:53:09 | 00:00:00 | |
| OE5WHR-10 | 2026-08-31 06:44:59 | 48.09610 | 12.21801 | 313° | 7km/h | 24728m | -32.1m/s | -51.5°C | 2.1% | 27.8hPa | 2.6V | 00:00:00 | 02:53:04 | 00:00:00 | |
| DM0DOS-11 | 2026-08-31 06:44:57 | 48.09607 | 12.21803 | 109° | 9km/h | 24959m | -35.4m/s | -51.6°C | 2.2% | 26.9hPa | 2.6V | 08:27:12 | 02:52:57 | 00:00:00 | i |
| EDDB2-12 | 2026-08-31 06:44:53 | 48.09607 | 12.21803 | 109° | 9km/h | 24960m | -35.4m/s | -51.6°C | 0.0% | 26.9hPa | 2.6V | 00:00:00 | 00:00:00 | 00:00:00 | |
| SONDE2-11 | 2026-08-31 06:44:47 | 48.09602 | 12.21809 | 307° | 7km/h | 25133m | -34.7m/s | -51.8°C | 0.0% | 26.2hPa | 2.6V | 00:00:00 | 00:00:00 | 00:00:00 | |
| PG1ADW-2 | 2026-08-31 06:44:46 | 48.09600 | 12.21810 | 356° | 9km/h | 25168m | -34.1m/s | -51.7°C | 2.3% | 25.8hPa | 2.6V | 00:00:00 | 00:00:00 | 00:00:00 | |
| DM0DOS-11 | 2026-08-31 06:44:45 | 48.09592 | 12.21816 | 341° | 11km/h | 25314m | -36.3m/s | -51.4°C | 2.2% | 25.4hPa | 2.6V | 08:27:22 | 02:52:47 | 00:00:00 | i |
| DO3MHA-11 | 2026-08-31 06:44:45 | 48.09598 | 12.21812 | 326° | 7km/h | 25203m | -35.4m/s | -51.6°C | 2.3% | 25.7hPa | 2.6V | 00:00:00 | 02:52:50 | 00:00:00 | i |
| NBG1-10 | 2026-08-31 06:44:42 | 48.09592 | 12.21816 | 342° | 9km/h | 25314m | -36.3m/s | -51.3°C | 2.2% | 25.3hPa | 2.6V | 00:00:00 | 02:52:47 | 00:00:00 | |
| DL6DJ-15 | 2026-08-31 06:44:41 | 48.09592 | 12.21818 | 188° | 7km/h | 25387m | -35.9m/s | -51.2°C | 0.0% | 25.0hPa | 2.6V | 00:00:00 | 00:00:00 | 00:00:00 | |
| DB0NH | 2026-08-31 06:44:40 | 48.09592 | 12.21818 | 189° | 9km/h | 25387m | -35.8m/s | -51.1°C | 2.2% | 25.0hPa | 2.6V | 00:00:00 | 02:52:45 | 00:00:00 | |
| OE5WHR-10 | 2026-08-31 06:44:38 | 48.09593 | 12.21818 | 250° | 9km/h | 25458m | -35.0m/s | -50.7°C | 2.1% | 24.7hPa | 2.6V | 08:27:00 | 00:00:00 | 00:00:00 | |
| DK5PH-5 | 2026-08-31 06:44:37 | 48.09595 | 12.21818 | 157° | 9km/h | 25494m | -33.9m/s | -50.5°C | 2.1% | 24.6hPa | 2.6V | 00:00:00 | 02:52:42 | 00:00:00 | |
| DM0DOS-11 | 2026-08-31 06:44:35 | 48.09593 | 12.21822 | 313° | 15km/h | 25674m | -35.5m/s | -50.1°C | 2% | 23.9hPa | 2.6V | 08:27:32 | 02:52:37 | 00:00:00 | i |
| OE5MMP-10 | 2026-08-31 06:44:35 | 48.09595 | 12.21817 | 326° | 11km/h | 25565m | -36.2m/s | -50.2°C | 2.0% | 24.3hPa | 2.5V | 08:27:00 | 02:52:40 | 00:00:00 | i |
| OE5DXL-15 | 2026-08-31 06:44:27 | 48.09583 | 12.21836 | 12° | 9km/h | 25859m | -35.3m/s | -49.7°C | 2.0% | 23.1hPa | 2.6V | 00:00:00 | 00:00:00 | 00:00:00 | |
| PG1ADW-2 | 2026-08-31 06:44:26 | 48.09581 | 12.21837 | 334° | 9km/h | 25896m | -36.6m/s | -49.6°C | 2.0% | 23.1hPa | 2.6V | 00:00:00 | 00:00:00 | 00:00:00 | |
| DM0DOS-11 | 2026-08-31 06:44:25 | 48.09581 | 12.21842 | 227° | 2km/h | 26046m | -38m/s | -49.1°C | 1.9% | 22.7hPa | 2.6V | 08:27:42 | 02:52:27 | 00:00:00 | i |
| DO3MHA-11 | 2026-08-31 06:44:25 | 48.09580 | 12.21838 | 227° | 7km/h | 25933m | -36.2m/s | -49.5°C | 2.0% | 23.0hPa | 2.5V | 00:00:00 | 02:52:30 | 00:00:00 | i |
| DL1ZP-14 | 2026-08-31 06:44:22 | 48.09581 | 12.21842 | 227° | 2km/h | 26046m | -38.0m/s | -49.1°C | 0.0% | 22.7hPa | 2.6V | 00:00:00 | 00:00:00 | 00:00:00 | |
| DG1MFX-10 | 2026-08-31 06:44:21 | 48.09581 | 12.21842 | 228° | 2km/h | 26047m | -38.0m/s | -49.1°C | -0.3% | 22.7hPa | 2.6V | 08:28:00 | 00:00:00 | 00:00:00 | |
| OE5WHR-10 | 2026-08-31 06:44:17 | 48.09584 | 12.21850 | 237° | 9km/h | 26242m | -38.6m/s | -48.9°C | 1.9% | 22.1hPa | 2.6V | 00:00:00 | 00:00:00 | 00:00:00 | |
| SONDE2-11 | 2026-08-31 06:44:16 | 48.09585 | 12.21853 | 253° | 11km/h | 26280m | -37.2m/s | -49.1°C | 0.0% | 21.7hPa | 2.6V | 00:00:00 | 00:00:00 | 00:00:00 | |
| DM0DOS-11 | 2026-08-31 06:44:15 | 48.09586 | 12.21871 | 255° | 15km/h | 26434m | -38m/s | -49.1°C | 2% | 21.4hPa | 2.6V | 08:27:52 | 02:52:17 | 00:00:00 | i |
| DO3MHA-11 | 2026-08-31 06:44:15 | 48.09586 | 12.21858 | 271° | 11km/h | 26318m | -38.3m/s | -49.1°C | 2.0% | 21.7hPa | 2.6V | 00:00:00 | 02:52:20 | 00:00:00 | i |
| DF7PN | 2026-08-31 06:44:13 | 48.09586 | 12.21871 | 255° | 13km/h | 26434m | -38.0m/s | 0°C | -1.0% | -1.0hPa | 2.6V | 00:00:00 | 00:00:00 | 00:00:00 | |
| DL6DJ-15 | 2026-08-31 06:44:10 | 48.09584 | 12.21881 | 284° | 13km/h | 26548m | -37.6m/s | -49.1°C | 0.0% | 21.0hPa | 2.6V | 00:00:00 | 00:00:00 | 00:00:00 | |
| DK5PH-5 | 2026-08-31 06:44:07 | 48.09582 | 12.21886 | 353° | 16km/h | 26624m | -38.3m/s | -48.5°C | 1.9% | 20.8hPa | 2.6V | 00:00:00 | 02:52:12 | 00:00:00 | |
| DM0DOS-11 | 2026-08-31 06:44:05 | 48.09575 | 12.21891 | 159° | 7km/h | 26816m | -38.5m/s | -47.6°C | 1.7% | 20hPa | 2.6V | 08:28:02 | 02:52:07 | 00:00:00 | i |
| DO3MHA-11 | 2026-08-31 06:44:05 | 48.09579 | 12.21890 | 3° | 7km/h | 26700m | -37.4m/s | -48.3°C | 1.9% | 20.5hPa | 2.6V | 00:00:00 | 02:52:10 | 00:00:00 | i |
| DG1MFX-10 | 2026-08-31 06:44:00 | 48.09575 | 12.21890 | 35° | 4km/h | 26855m | -40.4m/s | -47.3°C | -0.3% | 20.0hPa | 2.6V | 08:28:00 | 00:00:00 | 00:00:00 | |
| OE5DRO-10 | 2026-08-31 06:43:58 | 48.09574 | 12.21897 | 288° | 13km/h | 26976m | -40.3m/s | -46.7°C | 1.6% | 19.7hPa | 2.6V | 08:28:00 | 00:00:00 | 00:00:00 | |
| OE5DXL-15 | 2026-08-31 06:43:57 | 48.09574 | 12.21902 | 249° | 16km/h | 27018m | -42.9m/s | -46.5°C | 1.6% | 19.6hPa | 2.6V | 00:00:00 | 00:00:00 | 00:00:00 | |
| OE5WHR-10 | 2026-08-31 06:43:56 | 48.09575 | 12.21905 | 279° | 15km/h | 27062m | -46.2m/s | -46.3°C | 1.6% | 19.4hPa | 2.6V | 00:00:00 | 02:52:01 | 00:00:00 | |
| DM0DOS-11 | 2026-08-31 06:43:55 | 48.09578 | 12.21921 | 242° | 22km/h | 27245m | -46.5m/s | -46.2°C | 1.6% | 18.6hPa | 2.6V | 08:28:12 | 02:51:57 | 00:00:00 | i |
| SONCRA | 2026-08-31 06:43:54 | 48.09576 | 12.21916 | 228° | 15km/h | 27199m | -45.7m/s | -46.2°C | 0.0% | 18.9hPa | 2.6V | 00:00:00 | 00:00:00 | 00:00:00 | |
| DL1ZP-14 | 2026-08-31 06:43:51 | 48.09580 | 12.21929 | 253° | 22km/h | 27292m | -46.9m/s | -46.4°C | 0.0% | 18.6hPa | 2.6V | 00:00:00 | 00:00:00 | 00:00:00 | |
| PG1ADW-2 | 2026-08-31 06:43:46 | 48.09582 | 12.21963 | 270° | 16km/h | 27516m | -44.8m/s | -46.5°C | 1.6% | 18.1hPa | 2.6V | 00:00:00 | 00:00:00 | 00:00:00 | |
| DM0DOS-11 | 2026-08-31 06:43:45 | 48.09575 | 12.21981 | 299° | 18km/h | 27685m | -39.3m/s | -46.7°C | 1.6% | 17.6hPa | 2.6V | 08:28:22 | 02:51:47 | 00:00:00 | i |
| DO3MHA-11 | 2026-08-31 06:43:45 | 48.09581 | 12.21967 | 303° | 15km/h | 27561m | -42.2m/s | -46.5°C | 1.6% | 17.8hPa | 2.6V | 00:00:00 | 02:51:50 | 00:00:00 | i |
| OE5MMP-10 | 2026-08-31 06:43:43 | 48.09577 | 12.21975 | 322° | 20km/h | 27644m | -40.3m/s | -46.5°C | 1.6% | 17.6hPa | 2.6V | 00:00:00 | 02:51:48 | 00:00:00 | |
| OE5DRO-10 | 2026-08-31 06:43:39 | 48.09567 | 12.21989 | 308° | 9km/h | 27807m | -40.1m/s | -46.5°C | 1.6% | 17.3hPa | 2.6V | 00:00:00 | 00:00:00 | 00:00:00 | |
| DL6DJ-15 | 2026-08-31 06:43:38 | 48.09565 | 12.21993 | 257° | 5km/h | 27848m | -41.2m/s | -46.5°C | 0.0% | 17.1hPa | 2.6V | 00:00:00 | 00:00:00 | 00:00:00 | |
| DF3TZ-5 | 2026-08-31 06:43:37 | 48.09563 | 12.22009 | 301° | 13km/h | 27971m | -41.4m/s | -46.4°C | 0.0% | 16.9hPa | 2.6V | 00:00:00 | 00:00:00 | 00:00:00 | |
| DM0DOS-11 | 2026-08-31 06:43:35 | 48.09553 | 12.22022 | 6° | 29km/h | 28101m | -44.1m/s | -46.2°C | 1.7% | 16.6hPa | 2.6V | 08:28:32 | 02:51:37 | 00:00:00 | i |
| HSKMA3-T | 2026-08-31 06:43:25 | 48.09520 | 12.22016 | 333° | 11km/h | 28435m | -50.3m/s | -46.1°C | 0% | 15.6hPa | 2.5V | 08:29:18 | 02:51:30 | 00:00:00 | i |
| DO3MHA-11 | 2026-08-31 06:43:25 | 48.09520 | 12.22016 | 333° | 5km/h | 28435m | -50.2m/s | -46.1°C | 1.7% | 15.5hPa | 2.5V | 08:28:00 | 02:51:30 | 00:00:00 | i |
| DM0DOS-11 | 2026-08-31 06:43:24 | 48.09516 | 12.22011 | 12° | 4km/h | 28589m | -53.6m/s | -45.9°C | 1.6% | 15.4hPa | 2.6V | 08:28:42 | 02:51:27 | 00:00:00 | i |
| HSKMA3-T | 2026-08-31 06:43:15 | 48.09518 | 12.22004 | 56° | 7km/h | 28952m | -51.9m/s | -44.8°C | 0% | 14.3hPa | 2.6V | 08:29:18 | 02:51:20 | 00:00:00 | i |
| DO3MHA-11 | 2026-08-31 06:43:15 | 48.09518 | 12.22003 | 57° | 5km/h | 28952m | -51.9m/s | -44.7°C | 1.5% | 14.3hPa | 2.5V | 00:00:00 | 02:51:20 | 00:00:00 | i |
| DM0DOS-11 | 2026-08-31 06:43:14 | 48.09514 | 12.22001 | 307° | 7km/h | 29112m | -53.4m/s | -44°C | 1.4% | 13.9hPa | 2.5V | 08:28:52 | 02:51:17 | 00:00:00 | i |
| OE5WHR-10 | 2026-08-31 06:43:14 | 48.09516 | 12.22001 | 21° | 5km/h | 29005m | -53.9m/s | -44.4°C | 1.5% | 14.5hPa | 2.6V | 00:00:00 | 00:00:00 | 00:00:00 | i |
| DB0UT-7 | 2026-08-31 06:43:13 | 48.09515 | 12.22000 | 339° | 7km/h | 29058m | -52.9m/s | -44.1°C | 1.4% | 14.3hPa | 2.6V | 00:00:00 | 00:00:00 | 00:00:00 | |
| OE5HKT-10 | 2026-08-31 06:43:12 | 48.09514 | 12.22001 | 308° | 11km/h | 29112m | -53.4m/s | -43.9°C | 1.4% | 13.9hPa | 2.5V | 00:00:00 | 00:00:00 | 00:00:00 | |
| DG1MJG | 2026-08-31 06:43:09 | 48.09513 | 12.22002 | 36° | 5km/h | 29218m | -54.2m/s | -44.1°C | 0% | 13.7hPa | 2.6V | 08:29:00 | 00:00:00 | 00:00:00 | |
| OE5MMP-10 | 2026-08-31 06:43:08 | 48.09512 | 12.21997 | 102° | 5km/h | 29323m | -53.9m/s | -44.1°C | 1.4% | 13.5hPa | 2.6V | 00:00:00 | 02:51:13 | 00:00:00 | |
| DL6DJ-15 | 2026-08-31 06:43:07 | 48.09513 | 12.21996 | 149° | 2km/h | 29377m | -55.8m/s | -44.1°C | 0.0% | 13.4hPa | 2.6V | 00:00:00 | 00:00:00 | 00:00:00 | |
| DF3TZ-5 | 2026-08-31 06:43:06 | 48.09512 | 12.21993 | 126° | 0km/h | 29486m | -53.6m/s | -43.9°C | 0.0% | 13.1hPa | 2.6V | 00:00:00 | 00:00:00 | 00:00:00 | |
| DO3MHA-11 | 2026-08-31 06:43:05 | 48.09512 | 12.21993 | 127° | 7km/h | 29487m | -53.6m/s | -43.8°C | 1.4% | 13.1hPa | 2.6V | 00:00:00 | 02:51:10 | 00:00:00 | |
| DM0DOS-11 | 2026-08-31 06:43:04 | 48.09512 | 12.21997 | 208° | 11km/h | 29643m | -53.5m/s | -43.9°C | 1.4% | 13.1hPa | 2.6V | 08:29:02 | 02:51:07 | 00:00:00 | i |
| HSKMA3-T | 2026-08-31 06:43:04 | 48.09512 | 12.21994 | 281° | 5km/h | 29539m | -52.7m/s | -43.9°C | 0% | 13.1hPa | 2.6V | 08:29:18 | 02:51:09 | 00:00:00 | i |
| OE5MMP-10 | 2026-08-31 06:42:58 | 48.09518 | 12.21992 | 45° | 7km/h | 29863m | -56.9m/s | -43.8°C | 1.4% | 12.4hPa | 2.6V | 08:29:00 | 02:51:03 | 00:00:00 | |
| OE5DXL-15 | 2026-08-31 06:42:57 | 48.09516 | 12.21989 | 77° | 9km/h | 29921m | -57.1m/s | -43.8°C | 1.4% | 12.5hPa | 2.6V | 00:00:00 | 00:00:00 | 00:00:00 | |
| DM0DOS-11 | 2026-08-31 06:42:54 | 48.09509 | 12.21982 | 61° | 7km/h | 30201m | -57m/s | -43.7°C | 1.5% | 11.7hPa | 2.6V | 08:29:12 | 02:50:57 | 00:00:00 | i |
| HSKMA3-T | 2026-08-31 06:42:54 | 48.09512 | 12.21985 | 19° | 7km/h | 30089m | -55.3m/s | -43.7°C | 0% | 12hPa | 2.5V | 08:29:18 | 02:50:59 | 00:00:00 | i |
| SONCRA | 2026-08-31 06:42:52 | 48.09508 | 12.21979 | 79° | 11km/h | 30258m | -55.3m/s | -43.7°C | 0.0% | 11.7hPa | 2.6V | 00:00:00 | 00:00:00 | 00:00:00 | |
| OE5REO-15 | 2026-08-31 06:42:51 | 48.09509 | 12.21982 | 63° | 7km/h | 30202m | -57.0m/s | -43.7°C | 0% | 0hPa | 2.6V | 00:00:00 | 00:00:00 | 00:00:00 | |
| BAUMI2-15 | 2026-08-31 06:42:49 | 48.09506 | 12.21974 | 4° | 9km/h | 30373m | -56.3m/s | -43.7°C | 1.4% | 11.5hPa | 2.6V | 00:00:00 | 02:50:54 | 00:00:00 | |
| OE5MMP-10 | 2026-08-31 06:42:48 | 48.09504 | 12.21973 | 43° | 11km/h | 30428m | -53.0m/s | -43.6°C | 1.4% | 11.5hPa | 2.6V | 00:00:00 | 02:50:53 | 00:00:00 | |
| DO3MHA-11 | 2026-08-31 06:42:45 | 48.09502 | 12.21966 | 112° | 11km/h | 30597m | -58.0m/s | -43.3°C | 1.4% | 11.0hPa | 2.6V | 00:00:00 | 02:50:50 | 00:00:00 | i |
| DM0DOS-11 | 2026-08-31 06:42:44 | 48.09505 | 12.21957 | 103° | 11km/h | 30774m | -60.8m/s | -43°C | 1.4% | 10.7hPa | 2.6V | 08:30:00 | 02:50:47 | 00:00:00 | |
| HSKMA3-T | 2026-08-31 06:42:43 | 48.09504 | 12.21960 | 144° | 9km/h | 30713m | -60.4m/s | -43.2°C | 0% | 10.8hPa | 2.6V | 18:12:15 | 02:50:48 | 00:00:00 | i |
| DB0UT-7 | 2026-08-31 06:42:43 | 48.09503 | 12.21960 | 144° | 13km/h | 30714m | -60.4m/s | -43.1°C | 1.4% | 10.8hPa | 2.6V | 00:00:00 | 02:50:48 | 00:00:00 | i |
| BAUMI2-15 | 2026-08-31 06:42:39 | 48.09506 | 12.21943 | 114° | 9km/h | 30955m | -61.7m/s | -42.3°C | 1.3% | 10.4hPa | 2.6V | 00:00:00 | 02:50:44 | 00:00:00 | |
| OE5MMP-10 | 2026-08-31 06:42:38 | 48.09506 | 12.21940 | 76° | 11km/h | 31017m | -61.6m/s | -42.3°C | 1.3% | 10.6hPa | 2.6V | 00:00:00 | 02:50:43 | 00:00:00 | |
| DL6DJ-15 | 2026-08-31 06:42:36 | 48.09507 | 12.21935 | 107° | 15km/h | 31141m | -62.7m/s | -42.0°C | 0.0% | 10.2hPa | 2.6V | 00:00:00 | 00:00:00 | 00:00:00 | |
| DO3MHA-11 | 2026-08-31 06:42:35 | 48.09508 | 12.21931 | 104° | 11km/h | 31203m | -63.9m/s | -41.7°C | 1.3% | 10.0hPa | 2.6V | 00:00:00 | 02:50:40 | 00:00:00 | |
| BAUMI2-15 | 2026-08-31 06:42:34 | 48.09510 | 12.21930 | 165° | 13km/h | 31267m | -64.5m/s | -41.7°C | 1.3% | 10.1hPa | 2.6V | 00:00:00 | 02:50:39 | 00:00:00 | |
| DM0DOS-11 | 2026-08-31 06:42:33 | 48.09511 | 12.21924 | 97° | 16km/h | 31395m | -64.2m/s | -41.6°C | 1.3% | 10hPa | 2.6V | 08:30:00 | 02:50:37 | 00:00:00 | i |
| HSKMA3-T | 2026-08-31 06:42:32 | 48.09511 | 12.21924 | 97° | 16km/h | 31395m | -64.2m/s | -41.6°C | 0% | 10hPa | 2.6V | 18:12:15 | 02:50:37 | 00:00:00 | i |
| OE5WHR-10 | 2026-08-31 06:42:32 | 48.09511 | 12.21924 | 98° | 15km/h | 31395m | -64.1m/s | -41.6°C | 1.3% | 10.0hPa | 2.6V | 00:00:00 | 00:00:00 | 00:00:00 | i |
| BAUMI2-15 | 2026-08-31 06:42:29 | 48.09512 | 12.21910 | 100° | 9km/h | 31587m | -64.0m/s | -41.9°C | 1.3% | 9.7hPa | 2.5V | 00:00:00 | 02:50:34 | 00:00:00 | |
| OE5MMP-10 | 2026-08-31 06:42:28 | 48.09514 | 12.21908 | 151° | 15km/h | 31651m | -65.2m/s | -41.7°C | 1.3% | 9.5hPa | 2.5V | 00:00:00 | 02:50:33 | 00:00:00 | |
| OE5DXL-15 | 2026-08-31 06:42:27 | 48.09516 | 12.21906 | 126° | 13km/h | 31716m | -64.6m/s | -41.7°C | 1.4% | 9.2hPa | 2.6V | 00:00:00 | 00:00:00 | 00:00:00 | |
| DO3MHA-11 | 2026-08-31 06:42:25 | 48.09517 | 12.21901 | 45° | 15km/h | 31846m | -66.4m/s | -41.4°C | 1.4% | 9.4hPa | 2.6V | 00:00:00 | 02:50:30 | 00:00:00 | |
| BAUMI2-15 | 2026-08-31 06:42:24 | 48.09515 | 12.21899 | 40° | 16km/h | 31912m | -65.0m/s | -41.3°C | 1.4% | 9.2hPa | 2.6V | 00:00:00 | 02:50:29 | 00:00:00 | |
| DM0DOS-11 | 2026-08-31 06:42:23 | 48.09510 | 12.21891 | 69° | 18km/h | 32044m | -68.3m/s | -40.9°C | 1.4% | 8.8hPa | 2.6V | 08:30:00 | 02:50:27 | 00:00:00 | i |
| HSKMA3-T | 2026-08-31 06:42:21 | 48.09508 | 12.21885 | 64° | 16km/h | 32112m | -68.8m/s | -40.5°C | 0% | 8.7hPa | 2.6V | 18:12:15 | 02:50:26 | 00:00:00 | i |
| OE8JPQ-2 | 2026-08-31 06:42:21 | 48.09508 | 12.21885 | 64° | 15km/h | 32113m | -68.7m/s | -40.4°C | 1.3% | 8.6hPa | 2.5V | 00:00:00 | 00:00:00 | 00:00:00 | i |
| SONCRA | 2026-08-31 06:42:20 | 48.09506 | 12.21881 | 36° | 11km/h | 32181m | -67.6m/s | -40.0°C | 0.0% | 8.6hPa | 2.5V | 00:00:00 | 00:00:00 | 00:00:00 | |
| BAUMI2-15 | 2026-08-31 06:42:19 | 48.09503 | 12.21877 | 46° | 16km/h | 32249m | -67.5m/s | -39.4°C | 1.2% | 8.6hPa | 2.5V | 00:00:00 | 02:50:24 | 08:30:00 | |
| OE5MMP-10 | 2026-08-31 06:42:18 | 48.09500 | 12.21873 | 50° | 15km/h | 32317m | -69.7m/s | -38.9°C | 1.1% | 8.5hPa | 2.6V | 00:00:00 | 02:50:23 | 00:00:00 | |
| DM0DOS-11 | 2026-08-31 06:42:17 | 48.09481 | 12.21851 | 65° | 13km/h | 32733m | -72m/s | -35.7°C | 0.8% | 8hPa | 2.6V | 08:30:00 | 02:50:17 | 00:00:00 | i |
| HSKMA3-T | 2026-08-31 06:42:11 | 48.09480 | 12.21847 | 55° | 15km/h | 32805m | -71.9m/s | -35.5°C | 0% | 7.8hPa | 2.5V | 18:12:15 | 02:50:16 | 00:00:00 | i |
| OE5WHR-10 | 2026-08-31 06:42:11 | 48.09480 | 12.21847 | 55° | 9km/h | 32806m | -71.8m/s | -35.4°C | 0.8% | 7.8hPa | 2.6V | 00:00:00 | 00:00:00 | 00:00:00 | i |
| BAUMI2-15 | 2026-08-31 06:42:09 | 48.09475 | 12.21839 | 30° | 16km/h | 32952m | -77.0m/s | -35.1°C | 0.8% | 7.8hPa | 2.6V | 00:00:00 | 02:50:14 | 00:00:00 | |
| OE5MMP-10 | 2026-08-31 06:42:08 | 48.09472 | 12.21838 | 12° | 13km/h | 33032m | -81.4m/s | -34.5°C | 0.7% | 7.8hPa | 2.6V | 00:00:00 | 02:50:13 | 00:00:00 | |
| DM0DOS-11 | 2026-08-31 06:42:07 | 48.09456 | 12.21816 | 66° | 11km/h | 33545m | -82.2m/s | -32.4°C | 0.6% | 7hPa | 2.6V | 08:30:00 | 02:50:07 | 00:00:00 | i |
| HSKMA3-T | 2026-08-31 06:42:00 | 48.09453 | 12.21810 | 64° | 9km/h | 33705m | -77.4m/s | -32.4°C | 0% | 6.7hPa | 2.6V | 18:12:15 | 02:50:05 | 00:00:00 | i |
| OE8JPQ-2 | 2026-08-31 06:42:00 | 48.09453 | 12.21810 | 64° | 16km/h | 33705m | -77.4m/s | -32.4°C | 0.6% | 6.6hPa | 2.6V | 00:00:00 | 02:50:05 | 00:00:00 | i |
| BAUMI2-15 | 2026-08-31 06:41:59 | 48.09452 | 12.21808 | 38° | 5km/h | 33781m | -74.1m/s | -32.5°C | 0.6% | 6.6hPa | 2.6V | 00:00:00 | 02:50:04 | 00:00:00 | |
| OE5MMP-10 | 2026-08-31 06:41:58 | 48.09451 | 12.21806 | 25° | 11km/h | 33853m | -69.2m/s | -32.7°C | 0.6% | 6.6hPa | 2.6V | 00:00:00 | 02:50:03 | 00:00:00 | |
| DM0DOS-11 | 2026-08-31 06:41:57 | 48.09451 | 12.21798 | 135° | 4km/h | 34183m | -47m/s | -33.1°C | 0.7% | 6.3hPa | 2.6V | 08:30:00 | 02:49:57 | 00:00:00 | i |
| HSKMA3-T | 2026-08-31 06:41:50 | 48.09448 | 12.21791 | 42° | 24km/h | 34287m | -58.3m/s | -32.2°C | 0% | 6.2hPa | 2.6V | 18:12:15 | 02:49:55 | 00:00:00 | i |
| OE5WHR-10 | 2026-08-31 06:41:50 | 48.09447 | 12.21791 | 43° | 31km/h | 34288m | -58.2m/s | -32.1°C | 0.6% | 6.2hPa | 2.6V | 00:00:00 | 02:49:55 | 00:00:00 | i |
| BAUMI2-15 | 2026-08-31 06:41:49 | 48.09442 | 12.21784 | 41° | 22km/h | 34348m | -62.3m/s | -31.6°C | 0.6% | 6.1hPa | 2.6V | 00:00:00 | 02:49:54 | 00:00:00 | |
| OE5MMP-10 | 2026-08-31 06:41:48 | 48.09438 | 12.21777 | 57° | 20km/h | 34411m | -64.2m/s | -31.3°C | 0.6% | 6.0hPa | 2.6V | 00:00:00 | 02:49:53 | 00:00:00 | |
| DM0DOS-11 | 2026-08-31 06:41:47 | 48.09451 | 12.21744 | 71° | 27km/h | 34753m | -51.9m/s | -30.7°C | 0.5% | 5.9hPa | 2.6V | 08:30:00 | 02:49:47 | 00:00:00 | i |
| DL1ZP-14 | 2026-08-31 06:41:47 | 48.09438 | 12.21766 | 128° | 15km/h | 34530m | -55.6m/s | -30.3°C | 0.0% | 6.0hPa | 2.7V | 00:00:00 | 00:00:00 | 00:00:00 | i |
| EDDB2-12 | 2026-08-31 06:41:46 | 48.09438 | 12.21766 | 128° | 15km/h | 34530m | -55.6m/s | -30.3°C | 0.0% | 6.0hPa | 2.6V | 00:00:00 | 00:00:00 | 00:00:00 | |
| DO3MHA-11 | 2026-08-31 06:41:45 | 48.09442 | 12.21762 | 167° | 24km/h | 34586m | -55.2m/s | -30.2°C | 0.5% | 6.0hPa | 2.6V | 00:00:00 | 02:49:50 | 00:00:00 | |
| BAUMI2-15 | 2026-08-31 06:41:44 | 48.09448 | 12.21759 | 155° | 27km/h | 34642m | -57.5m/s | -30.3°C | 0.5% | 5.8hPa | 2.6V | 00:00:00 | 02:49:49 | 00:00:00 | |
| DB0UT-7 | 2026-08-31 06:41:43 | 48.09451 | 12.21753 | 97° | 35km/h | 34699m | -56.9m/s | -30.5°C | 0.5% | 5.8hPa | 2.6V | 00:00:00 | 02:49:48 | 08:30:00 | |
| OE8JPQ-2 | 2026-08-31 06:41:40 | 48.09441 | 12.21725 | 41° | 35km/h | 34853m | -48.3m/s | -30.4°C | 0.5% | 5.7hPa | 2.6V | 00:00:00 | 00:00:00 | 00:00:00 | |
| BAUMI2-15 | 2026-08-31 06:41:39 | 48.09437 | 12.21719 | 69° | 27km/h | 34900m | -45.6m/s | -30.1°C | 0.5% | 5.6hPa | 2.6V | 00:00:00 | 02:49:44 | 00:00:00 | |
| OE5MMP-10 | 2026-08-31 06:41:38 | 48.09438 | 12.21715 | 145° | 44km/h | 34943m | -39.7m/s | -29.9°C | 0.5% | 5.6hPa | 2.6V | 00:00:00 | 02:49:43 | 00:00:00 | |
| DM0DOS-11 | 2026-08-31 06:41:37 | 48.09476 | 12.21659 | 110° | 58km/h | 35015m | 5.3m/s | -29.4°C | 0.4% | 5.6hPa | 2.6V | 08:30:00 | 02:49:37 | 00:00:00 | i |
| DO3MHA-11 | 2026-08-31 06:41:35 | 48.09450 | 12.21703 | 149° | 38km/h | 35019m | -10.3m/s | -29.2°C | 0.4% | 5.5hPa | 2.6V | 00:00:00 | 02:49:40 | 00:00:00 | |
| DG1MFX-10 | 2026-08-31 06:41:34 | 48.09450 | 12.21703 | 149° | 31km/h | 35019m | -10.3m/s | -29.3°C | -0.5% | 5.6hPa | 2.6V | 00:00:00 | 00:00:00 | 00:00:00 | |
| BAUMI2-15 | 2026-08-31 06:41:33 | 48.09468 | 12.21677 | 134° | 49km/h | 35021m | 7.0m/s | -29.1°C | 0.5% | 5.5hPa | 2.6V | 00:00:00 | 02:49:38 | 08:30:00 | |
| DF3TZ-5 | 2026-08-31 06:41:32 | 48.09479 | 12.21639 | 91° | 53km/h | 35009m | 6.1m/s | -29.5°C | 0.0% | 5.6hPa | 2.7V | 00:00:00 | 00:00:00 | 00:00:00 | |
| OE5WHR-10 | 2026-08-31 06:41:29 | 48.09472 | 12.21610 | 44° | 35km/h | 34998m | 5.0m/s | -29.7°C | 0.5% | 5.6hPa | 2.7V | 00:00:00 | 00:00:00 | 08:30:00 | |
| OE5MMP-10 | 2026-08-31 06:41:28 | 48.09468 | 12.21606 | 6° | 35km/h | 34993m | 4.4m/s | -29.9°C | 0.5% | 5.6hPa | 2.7V | 00:00:00 | 02:49:33 | 08:30:00 | |
| OE5DRO-10 | 2026-08-31 06:41:27 | 48.09467 | 12.21607 | 227° | 27km/h | 34989m | 4.2m/s | -30.1°C | 0.5% | 5.6hPa | 2.7V | 00:00:00 | 00:00:00 | 00:00:00 | |
| DO3MHA-11 | 2026-08-31 06:41:25 | 48.09479 | 12.21606 | 161° | 38km/h | 34978m | 6.9m/s | -30.4°C | 0.5% | 5.6hPa | 2.7V | 00:00:00 | 02:49:30 | 00:00:00 | |
| BAUMI2-15 | 2026-08-31 06:41:23 | 48.09500 | 12.21581 | 125° | 46km/h | 34965m | 5.4m/s | -30.7°C | 0.5% | 5.6hPa | 2.7V | 00:00:00 | 02:49:28 | 00:00:00 | |
| OE9MKV-15 | 2026-08-31 06:41:22 | 48.09506 | 12.21560 | 107° | 35km/h | 34960m | 3.7m/s | -30.8°C | 0.6% | 5.6hPa | 2.7V | 00:00:00 | 02:49:27 | 00:00:00 | |
| OE8JPQ-2 | 2026-08-31 06:41:19 | 48.09502 | 12.21517 | 30° | 29km/h | 34945m | 7.3m/s | -31.0°C | 0.5% | 5.6hPa | 2.7V | 00:00:00 | 00:00:00 | 00:00:00 | |
| OE5MMP-10 | 2026-08-31 06:41:18 | 48.09498 | 12.21517 | 329° | 33km/h | 34938m | 7.1m/s | -31.0°C | 0.6% | 5.6hPa | 2.7V | 00:00:00 | 02:49:23 | 00:00:00 | |
| DM0DOS-11 | 2026-08-31 06:41:17 | 48.09521 | 12.21486 | 95° | 55km/h | 34904m | 6.3m/s | -31.1°C | 0.6% | 5.7hPa | 2.7V | 08:30:00 | 02:49:17 | 00:00:00 | |
| HSKMA3-T | 2026-08-31 06:41:06 | 48.09516 | 12.21446 | 209° | 26km/h | 34869m | 6.2m/s | -31.5°C | 0% | 5.7hPa | 2.6V | 18:12:15 | 02:49:11 | 00:00:00 | i |
| DO3MHA-11 | 2026-08-31 06:41:05 | 48.09523 | 12.21449 | 181° | 31km/h | 34864m | 4.0m/s | -31.4°C | 0.6% | 5.7hPa | 2.7V | 00:00:00 | 02:49:10 | 00:00:00 | |
| DB0UT-7 | 2026-08-31 06:41:04 | 48.09529 | 12.21445 | 144° | 33km/h | 34860m | 3.4m/s | -31.3°C | 0.6% | 5.7hPa | 2.7V | 00:00:00 | 00:00:00 | 00:00:00 | |
| BAUMI2-15 | 2026-08-31 06:41:03 | 48.09534 | 12.21436 | 110° | 42km/h | 34856m | 5.2m/s | -31.3°C | 0.6% | 5.7hPa | 2.7V | 00:00:00 | 02:49:08 | 00:00:00 | |
| DG1MJG | 2026-08-31 06:41:02 | 48.09534 | 12.21436 | 110° | 35km/h | 34856m | 5.3m/s | -31.3°C | 0% | 5.7hPa | 2.7V | 00:00:00 | 00:00:00 | 00:00:00 | |
| DF3TZ-5 | 2026-08-31 06:41:01 | 48.09531 | 12.21404 | 65° | 49km/h | 34843m | 6.5m/s | -31.3°C | 0.0% | 5.8hPa | 2.7V | 00:00:00 | 00:00:00 | 00:00:00 | |
| BAUMI2-15 | 2026-08-31 06:40:58 | 48.09513 | 12.21376 | 10° | 18km/h | 34826m | 5.4m/s | -31.5°C | 0.6% | 5.7hPa | 2.7V | 00:00:00 | 02:49:03 | 00:00:00 | |
| DM0DOS-11 | 2026-08-31 06:40:57 | 48.09529 | 12.21344 | 84° | 49km/h | 34791m | 7m/s | -31.2°C | 0.6% | 5.8hPa | 2.7V | 08:30:00 | 02:48:57 | 00:00:00 | i |
| HSKMA3-T | 2026-08-31 06:40:55 | 48.09518 | 12.21378 | 164° | 26km/h | 34809m | 4.6m/s | -31.5°C | 0% | 5.8hPa | 2.7V | 18:12:15 | 02:49:00 | 00:00:00 | i |
| DL1XH-west | 2026-08-31 06:40:46 | 48.09510 | 12.21277 | 145° | 24km/h | 34762m | 6.3m/s | 0°C | 0% | 0hPa | 2.7V | 18:12:15 | 02:48:51 | 00:00:00 | i |
| HSKMA3-T | 2026-08-31 06:40:44 | 48.09524 | 12.21259 | 128° | 47km/h | 34750m | 5.2m/s | -31.3°C | 0% | 5.8hPa | 2.7V | 18:12:15 | 02:48:49 | 00:00:00 | i |
| HSKMA3-T | 2026-08-31 06:40:34 | 48.09507 | 12.21181 | 110° | 31km/h | 34695m | 6m/s | -31°C | 0% | 5.9hPa | 2.7V | 18:12:15 | 02:48:39 | 00:00:00 | i |
| DL1XH-west | 2026-08-31 06:40:26 | 48.09478 | 12.21100 | 141° | 15km/h | 34651m | 6.8m/s | 0°C | 0% | 0hPa | 2.7V | 18:12:15 | 02:48:31 | 00:00:00 | i |
| HSKMA3-T | 2026-08-31 06:40:23 | 48.09489 | 12.21069 | 92° | 42km/h | 34634m | 3.8m/s | -31.4°C | 0% | 6hPa | 2.7V | 18:12:15 | 02:48:28 | 00:00:00 | i |
| OE5MMP-10 | 2026-08-31 06:40:18 | 48.09455 | 12.21032 | 341° | 37km/h | 34608m | 5.0m/s | -31.3°C | 0.6% | 5.9hPa | 2.7V | 00:00:00 | 02:48:23 | 00:00:00 | |
| DC4HF-4 | 2026-08-31 06:40:17 | 48.09449 | 12.21034 | 95° | 9km/h | 34599m | 4.2m/s | -31.5°C | 0.0% | 6.0hPa | 2.7V | 00:00:00 | 00:00:00 | 00:00:00 | |
| SONCRA | 2026-08-31 06:40:16 | 48.09449 | 12.21034 | 95° | 9km/h | 34599m | 4.2m/s | -31.5°C | 0.0% | 6.0hPa | 2.7V | 00:00:00 | 00:00:00 | 00:00:00 | |
| DO3MHA-11 | 2026-08-31 06:40:15 | 48.09450 | 12.21027 | 97° | 37km/h | 34594m | 5.3m/s | -31.6°C | 0.5% | 5.9hPa | 2.7V | 00:00:00 | 02:48:20 | 00:00:00 | |
| DM0DOS-11 | 2026-08-31 06:40:14 | 48.09413 | 12.20946 | 356° | 27km/h | 34561m | 6.2m/s | -32.2°C | 0.6% | 6hPa | 2.7V | 08:30:00 | 02:48:14 | 00:00:00 | i |
| HSKMA3-T | 2026-08-31 06:40:13 | 48.09441 | 12.20974 | 58° | 60km/h | 34576m | 5.4m/s | -32.1°C | 0% | 6hPa | 2.7V | 18:12:15 | 02:48:17 | 00:00:00 | i |
| DL1XH-west | 2026-08-31 06:40:13 | 48.09448 | 12.20994 | 74° | 57km/h | 34582m | 6.1m/s | 0°C | 0% | 0hPa | 2.7V | 18:12:15 | 02:48:18 | 00:00:00 | i |
| HSKMA3-T | 2026-08-31 06:40:03 | 48.09410 | 12.20924 | 58° | 44km/h | 34528m | 6.1m/s | -32.6°C | 0% | 6hPa | 2.7V | 18:12:15 | 02:48:08 | 00:00:00 | i |
| DM0DOS-11 | 2026-08-31 06:40:01 | 48.09361 | 12.20900 | 337° | 16km/h | 34501m | 4.5m/s | -32.7°C | 0.6% | 6.1hPa | 2.7V | 08:30:00 | 02:48:03 | 00:00:00 | i |
| EDDB2-11 | 2026-08-31 06:40:01 | 48.09378 | 12.20897 | 3° | 47km/h | 34509m | 4.7m/s | -32.7°C | 0.0% | 6.0hPa | 2.7V | 00:00:00 | 00:00:00 | 00:00:00 | i |
| DF3TZ-5 | 2026-08-31 06:39:59 | 48.09368 | 12.20898 | 349° | 35km/h | 34505m | 3.3m/s | -32.7°C | 0.0% | 6.1hPa | 2.7V | 00:00:00 | 00:00:00 | 00:00:00 | |
| OE5MMP-10 | 2026-08-31 06:39:58 | 48.09361 | 12.20900 | 338° | 29km/h | 34502m | 4.4m/s | -32.7°C | 0.6% | 6.0hPa | 2.7V | 00:00:00 | 02:48:03 | 08:30:00 | |
| OE5DXL-15 | 2026-08-31 06:39:57 | 48.09360 | 12.20901 | 126° | 29km/h | 34496m | 5.9m/s | -32.7°C | 0.6% | 6.0hPa | 2.7V | 00:00:00 | 00:00:00 | 00:00:00 | |
| OE9MKV-15 | 2026-08-31 06:39:56 | 48.09361 | 12.20898 | 126° | 16km/h | 34490m | 6.0m/s | -32.8°C | 0.6% | 6.0hPa | 2.7V | 00:00:00 | 02:48:01 | 00:00:00 | |
| DO3MHA-11 | 2026-08-31 06:39:55 | 48.09363 | 12.20890 | 108° | 31km/h | 34484m | 5.4m/s | -33.0°C | 0.6% | 6.0hPa | 2.7V | 00:00:00 | 02:48:00 | 00:00:00 | |
| OE8JPQ-2 | 2026-08-31 06:39:52 | 48.09355 | 12.20857 | 31° | 33km/h | 34470m | 5.8m/s | -33.5°C | 0.7% | 6.0hPa | 2.7V | 00:00:00 | 02:47:57 | 00:00:00 | |
| DM0DOS-11 | 2026-08-31 06:39:51 | 48.09319 | 12.20865 | 322° | 24km/h | 34447m | 3.3m/s | -33.3°C | 0.7% | 6.1hPa | 2.7V | 08:30:00 | 02:47:53 | 00:00:00 | i |
| HSKMA3-T | 2026-08-31 06:39:47 | 48.09316 | 12.20868 | 346° | 9km/h | 34443m | 4.8m/s | -33.3°C | 0% | 6.1hPa | 2.6V | 18:12:15 | 02:47:52 | 00:00:00 | i |
| DO3MHA-11 | 2026-08-31 06:39:45 | 48.09314 | 12.20859 | 89° | 27km/h | 34431m | 7.1m/s | -33.4°C | 0.7% | 6.1hPa | 2.6V | 00:00:00 | 02:47:50 | 00:00:00 | |
| OE5WHR-10 | 2026-08-31 06:39:44 | 48.09313 | 12.20847 | 79° | 27km/h | 34424m | 5.3m/s | -33.5°C | 0.7% | 6.1hPa | 2.6V | 00:00:00 | 02:47:49 | 00:00:00 | |
| EDDB2-12 | 2026-08-31 06:39:42 | 48.09305 | 12.20827 | 30° | 27km/h | 34417m | 3.0m/s | -33.6°C | 0.0% | 6.1hPa | 2.6V | 00:00:00 | 00:00:00 | 00:00:00 | |
| DM0DOS-11 | 2026-08-31 06:39:41 | 48.09282 | 12.20850 | 289° | 33km/h | 34395m | 4.4m/s | -33.8°C | 0.7% | 6.2hPa | 2.6V | 08:30:00 | 02:47:43 | 00:00:00 | i |
| HSKMA3-T | 2026-08-31 06:39:36 | 48.09278 | 12.20861 | 20° | 7km/h | 34387m | 5m/s | -33.8°C | 0% | 6.2hPa | 2.7V | 18:12:15 | 02:47:41 | 00:00:00 | i |
| DO3MHA-11 | 2026-08-31 06:39:35 | 48.09275 | 12.20856 | 63° | 31km/h | 34381m | 7.2m/s | -33.8°C | 0.7% | 6.1hPa | 2.7V | 00:00:00 | 02:47:40 | 00:00:00 | |
| NBG1-10 | 2026-08-31 06:39:32 | 48.09256 | 12.20818 | 39° | 26km/h | 34363m | 3.3m/s | -33.7°C | 0.7% | 6.1hPa | 2.7V | 00:00:00 | 02:47:37 | 08:30:00 | |
| DM0DOS-11 | 2026-08-31 06:39:31 | 48.09238 | 12.20824 | 250° | 27km/h | 34340m | 7.2m/s | -34.2°C | 0.7% | 6.2hPa | 2.7V | 08:30:00 | 02:47:33 | 00:00:00 | i |
| OE5DRO-10 | 2026-08-31 06:39:31 | 48.09248 | 12.20811 | 18° | 35km/h | 34360m | 3.3m/s | -33.8°C | 0.7% | 6.1hPa | 2.7V | 00:00:00 | 00:00:00 | 00:00:00 | i |
| EDDB2-11 | 2026-08-31 06:39:30 | 48.09238 | 12.20815 | 287° | 20km/h | 34348m | 7.9m/s | -34.2°C | 0.0% | 6.2hPa | 2.7V | 00:00:00 | 00:00:00 | 00:00:00 | |
| OE5MMP-10 | 2026-08-31 06:39:28 | 48.09238 | 12.20823 | 251° | 27km/h | 34341m | 7.1m/s | -34.2°C | 0.7% | 6.1hPa | 2.7V | 00:00:00 | 02:47:33 | 00:00:00 | |
| OE5DXL-15 | 2026-08-31 06:39:27 | 48.09242 | 12.20832 | 229° | 26km/h | 34335m | 4.5m/s | -34.2°C | 0.7% | 6.2hPa | 2.7V | 00:00:00 | 00:00:00 | 00:00:00 | |
| DO3MHA-11 | 2026-08-31 06:39:25 | 48.09247 | 12.20837 | 81° | 27km/h | 34327m | 4.4m/s | -34.1°C | 0.7% | 6.2hPa | 2.7V | 00:00:00 | 02:47:30 | 00:00:00 | |
| OE5WHR-10 | 2026-08-31 06:39:23 | 48.09238 | 12.20825 | 32° | 27km/h | 34314m | 7.6m/s | -34.1°C | 0.7% | 6.2hPa | 2.7V | 00:00:00 | 00:00:00 | 00:00:00 | |
| DM0DOS-11 | 2026-08-31 06:39:21 | 48.09202 | 12.20820 | 230° | 15km/h | 34288m | 7.5m/s | -34.6°C | 0.7% | 6.2hPa | 2.7V | 08:30:00 | 02:47:23 | 00:00:00 | i |
| HSKMA3-T | 2026-08-31 06:39:15 | 48.09219 | 12.20824 | 159° | 18km/h | 34271m | 3.1m/s | -34.4°C | 0% | 6.3hPa | 2.7V | 18:12:15 | 02:47:20 | 00:00:00 | i |
| DO3MHA-11 | 2026-08-31 06:39:15 | 48.09219 | 12.20823 | 160° | 24km/h | 34271m | 3.0m/s | -34.3°C | 0.7% | 6.2hPa | 2.7V | 00:00:00 | 02:47:20 | 00:00:00 | i |
| SONCRA | 2026-08-31 06:39:14 | 48.09221 | 12.20821 | 78° | 7km/h | 34267m | 4.2m/s | -34.4°C | 0.0% | 6.3hPa | 2.7V | 00:00:00 | 00:00:00 | 00:00:00 | |
| OE5FHM-15 | 2026-08-31 06:39:12 | 48.09212 | 12.20819 | 355° | 26km/h | 34254m | 8.0m/s | -34.4°C | 0.7% | 6.2hPa | 2.7V | 00:00:00 | 02:47:17 | 00:00:00 | |
| DM0DOS-11 | 2026-08-31 06:39:11 | 48.09181 | 12.20839 | 292° | 9km/h | 34234m | 5.4m/s | -34.1°C | 0.7% | 6.3hPa | 2.7V | 08:30:00 | 02:47:13 | 00:00:00 | i |
| HSKMA3-T | 2026-08-31 06:38:57 | 48.09177 | 12.20858 | 257° | 13km/h | 34173m | 3.8m/s | -34.3°C | 0% | 6.4hPa | 2.7V | 18:12:15 | 02:47:02 | 00:00:00 | i |
| OE5DXL-15 | 2026-08-31 06:38:57 | 48.09177 | 12.20858 | 257° | 22km/h | 34173m | 3.8m/s | -34.3°C | 0.7% | 6.3hPa | 2.7V | 00:00:00 | 00:00:00 | 08:30:00 | i |
| DO3MHA-11 | 2026-08-31 06:38:55 | 48.09179 | 12.20855 | 96° | 22km/h | 34161m | 7.0m/s | -34.3°C | 0.7% | 6.3hPa | 2.7V | 00:00:00 | 02:47:00 | 08:30:00 | |
| NBG1-10 | 2026-08-31 06:38:54 | 48.09178 | 12.20846 | 80° | 24km/h | 34154m | 6.8m/s | -34.2°C | 0.7% | 6.3hPa | 2.7V | 00:00:00 | 02:46:59 | 00:00:00 | |
| BAUMI2-15 | 2026-08-31 06:38:53 | 48.09176 | 12.20836 | 64° | 22km/h | 34149m | 4.6m/s | -34.1°C | 0.7% | 6.4hPa | 2.7V | 00:00:00 | 02:46:58 | 00:00:00 | |
| OE8JPQ-2 | 2026-08-31 06:38:52 | 48.09173 | 12.20829 | 42° | 22km/h | 34145m | 3.5m/s | -34.2°C | 0.7% | 6.4hPa | 2.7V | 00:00:00 | 02:46:57 | 00:00:00 | |
| DM0DOS-11 | 2026-08-31 06:38:50 | 48.09172 | 12.20868 | 53° | 9km/h | 34107m | 6.3m/s | -34.2°C | 0.7% | 6.4hPa | 2.7V | 08:30:00 | 02:46:50 | 00:00:00 | i |
| OE5DRO-10 | 2026-08-31 06:38:50 | 48.09167 | 12.20832 | 287° | 22km/h | 34135m | 6.5m/s | -34.3°C | 0.7% | 6.4hPa | 2.7V | 00:00:00 | 00:00:00 | 00:00:00 | i |
| DG1MFX-10 | 2026-08-31 06:38:49 | 48.09167 | 12.20832 | 287° | 22km/h | 34135m | 6.5m/s | -34.4°C | -0.5% | 6.4hPa | 2.7V | 00:00:00 | 00:00:00 | 00:00:00 | |
| OE5MMP-10 | 2026-08-31 06:38:48 | 48.09168 | 12.20853 | 253° | 20km/h | 34121m | 5.8m/s | -34.3°C | 0.7% | 6.4hPa | 2.7V | 00:00:00 | 02:46:53 | 00:00:00 | |
| DO3MHA-11 | 2026-08-31 06:38:45 | 48.09172 | 12.20868 | 54° | 22km/h | 34107m | 6.2m/s | -34.2°C | 0.7% | 6.4hPa | 2.7V | 00:00:00 | 02:46:50 | 00:00:00 | |
| BAUMI2-15 | 2026-08-31 06:38:43 | 48.09164 | 12.20856 | 39° | 22km/h | 34094m | 6.5m/s | -34.2°C | 0.7% | 6.4hPa | 2.7V | 00:00:00 | 02:46:48 | 00:00:00 | |
| OE5FHM-15 | 2026-08-31 06:38:42 | 48.09157 | 12.20849 | 29° | 24km/h | 34089m | 4.5m/s | -34.2°C | 0.7% | 6.4hPa | 2.7V | 00:00:00 | 02:46:47 | 00:00:00 | |
| OE5WHR-10 | 2026-08-31 06:38:41 | 48.09151 | 12.20846 | 15° | 24km/h | 34085m | 3.7m/s | -34.2°C | 0.7% | 6.4hPa | 2.7V | 00:00:00 | 02:46:46 | 00:00:00 | |
| DM0DOS-11 | 2026-08-31 06:38:40 | 48.09170 | 12.20864 | 162° | 2km/h | 34052m | 4.1m/s | -34.2°C | 0.7% | 6.5hPa | 2.7V | 08:30:00 | 02:46:40 | 00:00:00 | i |
| HSKMA3-T | 2026-08-31 06:38:39 | 48.09150 | 12.20850 | 231° | 18km/h | 34073m | 6.8m/s | -34.4°C | 0% | 6.5hPa | 2.7V | 18:12:15 | 02:46:44 | 00:00:00 | i |
| OE5MMP-10 | 2026-08-31 06:38:38 | 48.09154 | 12.20855 | 214° | 26km/h | 34067m | 6.5m/s | -34.4°C | 0.7% | 6.4hPa | 2.6V | 00:00:00 | 02:46:43 | 00:00:00 | |
| DO3MHA-11 | 2026-08-31 06:38:35 | 48.09170 | 12.20864 | 163° | 24km/h | 34053m | 4.1m/s | -34.2°C | 0.7% | 6.4hPa | 2.6V | 00:00:00 | 02:46:40 | 00:00:00 | |
| BAUMI2-15 | 2026-08-31 06:38:33 | 48.09162 | 12.20863 | 1° | 31km/h | 34041m | 7.5m/s | -34.2°C | 0.7% | 6.4hPa | 2.6V | 00:00:00 | 02:46:38 | 00:00:00 | |
| OE5DRO-10 | 2026-08-31 06:38:31 | 48.09143 | 12.20868 | 340° | 24km/h | 34028m | 4.0m/s | -34.3°C | 0.7% | 6.5hPa | 2.6V | 00:00:00 | 00:00:00 | 00:00:00 | |
| DG1MJG | 2026-08-31 06:38:30 | 48.09143 | 12.20868 | 340° | 40km/h | 34028m | 4.0m/s | -34.3°C | 0% | 6.5hPa | 2.6V | 00:00:00 | 00:00:00 | 00:00:00 | |
| DM0DOS-11 | 2026-08-31 06:38:29 | 48.09149 | 12.20856 | 78° | 18km/h | 33993m | 4.2m/s | -34.4°C | 0.7% | 6.5hPa | 2.6V | 08:30:00 | 02:46:29 | 00:00:00 | i |
| HSKMA3-T | 2026-08-31 06:38:13 | 48.09126 | 12.20829 | 48° | 20km/h | 33932m | 4.1m/s | -34.6°C | 0% | 6.6hPa | 2.7V | 18:12:15 | 02:46:18 | 00:00:00 | i |
| BIOWL1-15 | 2026-08-31 06:37:59 | 48.09085 | 12.20789 | 235° | 22km/h | 33848m | 6.3m/s | 0°C | 0% | 0hPa | 2.7V | 18:12:15 | 02:46:04 | 00:00:00 | i |
| HSKMA3-T | 2026-08-31 06:37:56 | 48.09090 | 12.20788 | 63° | 24km/h | 33835m | 6m/s | -34.9°C | 0% | 6.8hPa | 2.7V | 18:12:15 | 02:46:01 | 00:00:00 | i |
| DF3TZ-5 | 2026-08-31 06:37:55 | 48.09085 | 12.20778 | 45° | 40km/h | 33829m | 8.5m/s | -34.9°C | 0.0% | 6.7hPa | 2.7V | 00:00:00 | 00:00:00 | 00:00:00 | |
| DC4HF-4 | 2026-08-31 06:37:53 | 48.09040 | 12.20747 | 6° | 27km/h | 33806m | 3.8m/s | -35.1°C | 0.0% | 6.8hPa | 2.7V | 00:00:00 | 00:00:00 | 00:00:00 | |
| HSKMA3-T | 2026-08-31 06:37:40 | 48.08987 | 12.20698 | 6° | 24km/h | 33743m | 5.1m/s | -35.2°C | 0% | 6.8hPa | 2.7V | 18:12:15 | 02:45:45 | 00:00:00 | i |
| BAUMI2-15 | 2026-08-31 06:37:38 | 48.08984 | 12.20689 | 110° | 37km/h | 33729m | 7.9m/s | -35.2°C | 0.8% | 6.8hPa | 2.7V | 00:00:00 | 02:45:43 | 00:00:00 | |
| DM0DOS-11 | 2026-08-31 06:37:37 | 48.08969 | 12.20634 | 7° | 40km/h | 33700m | 8.3m/s | -35.4°C | 0.8% | 6.9hPa | 2.7V | 08:30:00 | 02:45:38 | 00:00:00 | i |
| HSKMA3-T | 2026-08-31 06:37:30 | 48.08942 | 12.20647 | 329° | 27km/h | 33681m | 3.1m/s | -35.5°C | 0% | 6.9hPa | 2.6V | 18:12:15 | 02:45:35 | 00:00:00 | i |
| OE5MMP-10 | 2026-08-31 06:37:28 | 48.08935 | 12.20645 | 72° | 35km/h | 33672m | 7.0m/s | -35.7°C | 0.8% | 6.9hPa | 2.6V | 00:00:00 | 02:45:33 | 00:00:00 | |
| DM0DOS-11 | 2026-08-31 06:37:27 | 48.08914 | 12.20587 | 4° | 29km/h | 33644m | 6.7m/s | -35.7°C | 0.8% | 6.9hPa | 2.7V | 08:30:00 | 02:45:28 | 00:00:00 | i |
| BIOWL1-15 | 2026-08-31 06:37:17 | 48.08876 | 12.20598 | 45° | 53km/h | 33590m | 6.3m/s | 0°C | 0% | 0hPa | 2.7V | 18:12:15 | 02:45:20 | 00:00:00 | i |
| DM0DOS-11 | 2026-08-31 06:37:16 | 48.08847 | 12.20585 | 294° | 26km/h | 33566m | 8.7m/s | -36.3°C | 0.8% | 7hPa | 2.7V | 08:30:00 | 02:45:16 | 00:00:00 | |
| HSKMA3-T | 2026-08-31 06:37:14 | 48.08867 | 12.20586 | 35° | 47km/h | 33585m | 4m/s | -36.3°C | 0% | 7hPa | 2.6V | 18:12:15 | 02:45:19 | 00:00:00 | i |
| DO3MHA-11 | 2026-08-31 06:37:14 | 48.08867 | 12.20586 | 35° | 31km/h | 33585m | 4.0m/s | -36.2°C | 0.9% | 6.9hPa | 2.7V | 00:00:00 | 02:45:19 | 00:00:00 | i |
| BAUMI2-15 | 2026-08-31 06:37:13 | 48.08858 | 12.20580 | 16° | 27km/h | 33581m | 4.3m/s | -36.3°C | 0.9% | 7.0hPa | 2.7V | 00:00:00 | 02:45:18 | 00:00:00 | |
| OE5HKT-10 | 2026-08-31 06:37:11 | 48.08847 | 12.20585 | 295° | 20km/h | 33567m | 8.6m/s | -36.2°C | 0.8% | 6.9hPa | 2.7V | 00:00:00 | 00:00:00 | 00:00:00 | |
| SONCRA | 2026-08-31 06:37:10 | 48.08845 | 12.20595 | 269° | 31km/h | 33558m | 6.8m/s | -36.3°C | 0.0% | 7.0hPa | 2.7V | 00:00:00 | 00:00:00 | 00:00:00 | |
| BAUMI2-15 | 2026-08-31 06:37:08 | 48.08846 | 12.20613 | 293° | 35km/h | 33549m | 3.8m/s | -36.1°C | 0.8% | 7.0hPa | 2.7V | 00:00:00 | 02:45:13 | 00:00:00 | |
| EDDB2-12 | 2026-08-31 06:37:07 | 48.08843 | 12.20614 | 15° | 16km/h | 33544m | 6.4m/s | -36.3°C | 0.0% | 7.0hPa | 2.7V | 00:00:00 | 00:00:00 | 00:00:00 | |
| DM0DOS-11 | 2026-08-31 06:37:06 | 48.08788 | 12.20579 | 344° | 16km/h | 33505m | 7.9m/s | -36.5°C | 0.8% | 7.1hPa | 2.7V | 08:30:00 | 02:45:06 | 00:00:00 | i |
| HSKMA3-T | 2026-08-31 06:37:02 | 48.08794 | 12.20579 | 10° | 31km/h | 33511m | 4.7m/s | -36.4°C | 0% | 7.1hPa | 2.7V | 18:12:15 | 02:45:07 | 00:00:00 | i |
| HSKMA3-T | 2026-08-31 06:36:52 | 48.08748 | 12.20575 | 0° | 44km/h | 33446m | 4.8m/s | -36.8°C | 0% | 7.1hPa | 2.7V | 18:12:15 | 02:44:57 | 00:00:00 | i |
| HSKMA3-T | 2026-08-31 06:36:40 | 48.08678 | 12.20592 | 330° | 20km/h | 33371m | 6m/s | -36.7°C | 0% | 7.2hPa | 2.6V | 18:12:15 | 02:44:45 | 00:00:00 | i |
| SONCRA | 2026-08-31 06:36:39 | 48.08674 | 12.20589 | 91° | 18km/h | 33357m | 7.0m/s | -36.6°C | 0.0% | 7.2hPa | 2.6V | 00:00:00 | 00:00:00 | 00:00:00 | |
| OE5MMP-10 | 2026-08-31 06:36:38 | 48.08674 | 12.20589 | 92° | 31km/h | 33357m | 7.0m/s | -36.6°C | 0.8% | 7.2hPa | 2.6V | 00:00:00 | 02:44:43 | 00:00:00 | |
| DM0DOS-11 | 2026-08-31 06:36:37 | 48.08635 | 12.20572 | 319° | 47km/h | 33319m | 6.8m/s | -36.7°C | 0.8% | 7.3hPa | 2.6V | 08:30:00 | 02:44:37 | 00:00:00 | i |
| HSKMA3-T | 2026-08-31 06:36:29 | 48.08620 | 12.20594 | 18° | 9km/h | 33302m | 6.4m/s | -36.9°C | 0% | 7.3hPa | 2.7V | 18:12:15 | 02:44:34 | 00:00:00 | i |
| OE5MMP-10 | 2026-08-31 06:36:28 | 48.08618 | 12.20590 | 64° | 31km/h | 33295m | 8.3m/s | -36.8°C | 0.9% | 7.2hPa | 2.7V | 00:00:00 | 02:44:33 | 00:00:00 | |
| DM0DOS-11 | 2026-08-31 06:36:27 | 48.08574 | 12.20563 | 302° | 33km/h | 33256m | 7.9m/s | -36.8°C | 0.9% | 7.3hPa | 2.7V | 08:30:00 | 02:44:27 | 00:00:00 | i |
| DK5PH-5 | 2026-08-31 06:36:27 | 48.08614 | 12.20579 | 60° | 31km/h | 33287m | 7.1m/s | -36.9°C | 0.9% | 7.3hPa | 2.6V | 00:00:00 | 02:44:32 | 00:00:00 | i |
| DG1MFX-10 | 2026-08-31 06:36:26 | 48.08614 | 12.20579 | 61° | 40km/h | 33287m | 7.1m/s | -36.9°C | -0.4% | 7.3hPa | 2.6V | 00:00:00 | 00:00:00 | 00:00:00 | |
| DO3MHA-11 | 2026-08-31 06:36:24 | 48.08589 | 12.20551 | 3° | 35km/h | 33270m | 5.5m/s | -36.9°C | 0.9% | 7.3hPa | 2.6V | 00:00:00 | 02:44:29 | 00:00:00 | |
| EDDB2-11 | 2026-08-31 06:36:23 | 48.08580 | 12.20554 | 333° | 35km/h | 33263m | 7.8m/s | -36.9°C | 0.0% | 7.3hPa | 2.7V | 00:00:00 | 00:00:00 | 00:00:00 | |
| DF3TZ-5 | 2026-08-31 06:36:22 | 48.08574 | 12.20563 | 302° | 33km/h | 33256m | 7.9m/s | -36.8°C | 0.0% | 7.3hPa | 2.7V | 00:00:00 | 00:00:00 | 00:00:00 | |
| OE5HKT-10 | 2026-08-31 06:36:21 | 48.08571 | 12.20573 | 280° | 20km/h | 33248m | 6.4m/s | -36.7°C | 0.9% | 7.3hPa | 2.7V | 00:00:00 | 02:44:26 | 00:00:00 | |
| DB0UT-7 | 2026-08-31 06:36:19 | 48.08570 | 12.20584 | 16° | 26km/h | 33238m | 5.2m/s | -36.7°C | 0.9% | 7.3hPa | 2.7V | 00:00:00 | 02:44:24 | 00:00:00 | |
| OE5MMP-10 | 2026-08-31 06:36:18 | 48.08567 | 12.20580 | 44° | 33km/h | 33232m | 7.2m/s | -36.9°C | 0.9% | 7.3hPa | 2.7V | 00:00:00 | 02:44:23 | 00:00:00 | |
| DM0DOS-11 | 2026-08-31 06:36:17 | 48.08508 | 12.20563 | 301° | 27km/h | 33192m | 9m/s | -37.2°C | 0.9% | 7.4hPa | 2.7V | 08:30:00 | 02:44:17 | 00:00:00 | i |
| HSKMA3-T | 2026-08-31 06:36:13 | 48.08514 | 12.20556 | 335° | 35km/h | 33200m | 6.5m/s | -37.1°C | 0% | 7.4hPa | 2.7V | 18:12:15 | 02:44:18 | 00:00:00 | i |
| OE5MMP-10 | 2026-08-31 06:36:08 | 48.08511 | 12.20578 | 44° | 31km/h | 33166m | 4.9m/s | -37.2°C | 0.9% | 7.4hPa | 2.7V | 00:00:00 | 02:44:13 | 00:00:00 | |
| OE8JPQ-2 | 2026-08-31 06:36:07 | 48.08506 | 12.20573 | 27° | 35km/h | 33160m | 6.9m/s | -37.2°C | 0.9% | 7.4hPa | 2.7V | 00:00:00 | 00:00:00 | 00:00:00 | |
| DG1MFX-10 | 2026-08-31 06:36:06 | 48.08506 | 12.20573 | 28° | 33km/h | 33160m | 6.9m/s | -37.3°C | -0.4% | 7.5hPa | 2.7V | 00:00:00 | 00:00:00 | 00:00:00 | |
| EDDB2-12 | 2026-08-31 06:36:05 | 48.08468 | 12.20564 | 356° | 53km/h | 33139m | 4.8m/s | -37.4°C | 0.0% | 7.5hPa | 2.7V | 00:00:00 | 00:00:00 | 00:00:00 | |
| DO3MHA-11 | 2026-08-31 06:36:04 | 48.08468 | 12.20564 | 357° | 26km/h | 33140m | 4.8m/s | -37.4°C | 0.9% | 7.4hPa | 2.7V | 00:00:00 | 02:44:09 | 00:00:00 | |
| DM0DOS-11 | 2026-08-31 06:36:03 | 48.08455 | 12.20571 | 115° | 11km/h | 33099m | 4.6m/s | -37.5°C | 0.9% | 7.5hPa | 2.7V | 08:30:00 | 02:44:03 | 00:00:00 | i |
| HSKMA3-T | 2026-08-31 06:35:58 | 48.08455 | 12.20571 | 115° | 11km/h | 33099m | 4.6m/s | -37.5°C | 0% | 7.5hPa | 2.7V | 18:12:15 | 02:44:03 | 00:00:00 | i |
| DF7PN | 2026-08-31 06:35:56 | 48.08415 | 12.20573 | 343° | 16km/h | 33061m | 5.7m/s | 0°C | -1.0% | -1.0hPa | 2.7V | 00:00:00 | 00:00:00 | 00:00:00 | |
| EDDB2-11 | 2026-08-31 06:35:52 | 48.08415 | 12.20573 | 343° | 16km/h | 33061m | 5.7m/s | -37.8°C | 0.0% | 7.6hPa | 2.7V | 00:00:00 | 00:00:00 | 00:00:00 | |
| DM0DOS-11 | 2026-08-31 06:35:48 | 48.08413 | 12.20563 | 329° | 38km/h | 33008m | 6.6m/s | -37.6°C | 0.9% | 7.7hPa | 2.7V | 08:30:00 | 02:43:49 | 00:00:00 | i |
| HSKMA3-T | 2026-08-31 06:35:48 | 48.08423 | 12.20560 | 132° | 20km/h | 33034m | 4.9m/s | -37.9°C | 0% | 7.6hPa | 2.6V | 18:12:15 | 02:43:53 | 00:00:00 | i |
| OE5MMP-10 | 2026-08-31 06:35:48 | 48.08423 | 12.20560 | 133° | 24km/h | 33034m | 4.8m/s | -37.9°C | 0.9% | 7.5hPa | 2.7V | 00:00:00 | 02:43:53 | 00:00:00 | i |
| DB0UT-7 | 2026-08-31 06:35:47 | 48.08425 | 12.20556 | 109° | 26km/h | 33029m | 5.1m/s | -37.8°C | 0.9% | 7.5hPa | 2.7V | 00:00:00 | 00:00:00 | 00:00:00 | |
| DG1MFX-10 | 2026-08-31 06:35:46 | 48.08425 | 12.20556 | 110° | 9km/h | 33029m | 5.2m/s | -37.9°C | -0.4% | 7.6hPa | 2.7V | 00:00:00 | 00:00:00 | 00:00:00 | |
| DO3MHA-11 | 2026-08-31 06:35:44 | 48.08413 | 12.20563 | 330° | 27km/h | 33008m | 6.5m/s | -37.6°C | 0.9% | 7.6hPa | 2.7V | 00:00:00 | 02:43:49 | 00:00:00 | |
| NBG1-10 | 2026-08-31 06:35:43 | 48.08405 | 12.20571 | 330° | 27km/h | 33002m | 5.3m/s | -37.6°C | 0.9% | 7.6hPa | 2.7V | 00:00:00 | 02:43:48 | 00:00:00 | |
| DM0DOS-11 | 2026-08-31 06:35:38 | 48.08385 | 12.20526 | 332° | 33km/h | 32943m | 7.8m/s | -37.4°C | 0.9% | 7.7hPa | 2.6V | 08:30:00 | 02:43:39 | 00:00:00 | i |
| HSKMA3-T | 2026-08-31 06:35:36 | 48.08396 | 12.20527 | 50° | 20km/h | 32959m | 6.5m/s | -37.5°C | 0% | 7.7hPa | 2.7V | 18:12:15 | 02:43:41 | 00:00:00 | i |
| DO3MHA-11 | 2026-08-31 06:35:34 | 48.08385 | 12.20526 | 333° | 29km/h | 32944m | 7.8m/s | -37.4°C | 0.9% | 7.7hPa | 2.6V | 00:00:00 | 02:43:39 | 00:00:00 | |
| OE5HKT-10 | 2026-08-31 06:35:33 | 48.08379 | 12.20533 | 321° | 20km/h | 32938m | 4.5m/s | -37.5°C | 0.9% | 7.7hPa | 2.6V | 00:00:00 | 00:00:00 | 00:00:00 | |
| OE5WHR-10 | 2026-08-31 06:35:32 | 48.08373 | 12.20539 | 326° | 29km/h | 32933m | 4.4m/s | -37.5°C | 0.9% | 7.7hPa | 2.6V | 00:00:00 | 02:43:37 | 00:00:00 | |
| SONDE2-11 | 2026-08-31 06:35:29 | 48.08370 | 12.20508 | 86° | 46km/h | 32905m | 6.3m/s | -37.4°C | 0.0% | 7.8hPa | 2.6V | 00:00:00 | 00:00:00 | 00:00:00 | |
| DM0DOS-11 | 2026-08-31 06:35:28 | 48.08351 | 12.20484 | 303° | 29km/h | 32873m | 6.3m/s | -37.4°C | 0.9% | 7.8hPa | 2.6V | 08:30:00 | 02:43:28 | 00:00:00 | i |
| HSKMA3-T | 2026-08-31 06:35:26 | 48.08365 | 12.20480 | 55° | 27km/h | 32894m | 5.2m/s | -37.3°C | 0% | 7.8hPa | 2.7V | 18:12:15 | 02:43:31 | 00:00:00 | i |
| DG1MFX-10 | 2026-08-31 06:35:25 | 48.08365 | 12.20480 | 56° | 27km/h | 32895m | 5.2m/s | -37.3°C | -0.4% | 7.8hPa | 2.6V | 00:00:00 | 00:00:00 | 00:00:00 | |
| DO3MHA-11 | 2026-08-31 06:35:24 | 48.08356 | 12.20476 | 326° | 33km/h | 32881m | 8.3m/s | -37.4°C | 0.9% | 7.7hPa | 2.6V | 00:00:00 | 02:43:29 | 00:00:00 | |
| EDDB2-11 | 2026-08-31 06:35:21 | 48.08346 | 12.20495 | 356° | 7km/h | 32864m | 4.7m/s | -37.1°C | 0.0% | 7.8hPa | 2.6V | 00:00:00 | 00:00:00 | 00:00:00 | |
| OE9MKV-15 | 2026-08-31 06:35:19 | 48.08341 | 12.20481 | 73° | 33km/h | 32850m | 8.9m/s | -37.1°C | 0% | 7.8hPa | 2.6V | 00:00:00 | 02:43:24 | 00:00:00 | |
| DM0DOS-11 | 2026-08-31 06:35:18 | 48.08306 | 12.20421 | 302° | 16km/h | 32809m | 7.5m/s | -36.9°C | 0.9% | 7.9hPa | 2.6V | 08:30:00 | 02:43:18 | 00:00:00 | i |
| HSKMA3-T | 2026-08-31 06:35:12 | 48.08305 | 12.20426 | 269° | 15km/h | 32802m | 5.9m/s | -36.8°C | 0% | 7.9hPa | 2.6V | 18:12:15 | 02:43:17 | 00:00:00 | i |
| OE5WHR-10 | 2026-08-31 06:35:11 | 48.08305 | 12.20429 | 252° | 24km/h | 32797m | 4.4m/s | -36.8°C | 0.8% | 7.9hPa | 2.6V | 00:00:00 | 00:00:00 | 08:30:00 | |
| DM0DOS-11 | 2026-08-31 06:35:08 | 48.08260 | 12.20359 | 14° | 4km/h | 32747m | 9m/s | -37.2°C | 0.9% | 7.9hPa | 2.7V | 08:30:00 | 02:43:08 | 00:00:00 | i |
| HSKMA3-T | 2026-08-31 06:35:01 | 48.08264 | 12.20359 | 169° | 11km/h | 32733m | 5.2m/s | 0°C | 0% | 8hPa | 2.6V | 18:12:15 | 02:43:06 | 00:00:00 | i |
| OE5HKT-10 | 2026-08-31 06:35:01 | 48.08264 | 12.20359 | 169° | 26km/h | 32733m | 5.2m/s | -37.4°C | 0.9% | 7.9hPa | 2.6V | 00:00:00 | 02:43:06 | 00:00:00 | i |
| DM0DOS-11 | 2026-08-31 06:34:58 | 48.08204 | 12.20325 | 338° | 13km/h | 32685m | 7.9m/s | -37.9°C | 1% | 8hPa | 2.6V | 08:30:00 | 02:42:58 | 00:00:00 | i |
| HSKMA3-T | 2026-08-31 06:34:51 | 48.08206 | 12.20326 | 162° | 18km/h | 32669m | 6.3m/s | 0°C | 0% | 8hPa | 2.6V | 18:12:15 | 02:42:56 | 00:00:00 | i |
| EDDB2-11 | 2026-08-31 06:34:50 | 48.08210 | 12.20322 | 126° | 16km/h | 32664m | 5.1m/s | -38.0°C | 0.0% | 8.0hPa | 2.6V | 00:00:00 | 00:00:00 | 00:00:00 | |
| DF3TZ-5 | 2026-08-31 06:34:49 | 48.08207 | 12.20310 | 38° | 27km/h | 32652m | 6.7m/s | -38.3°C | 0.0% | 8.1hPa | 2.6V | 00:00:00 | 00:00:00 | 00:00:00 | |
| DM0DOS-11 | 2026-08-31 06:34:48 | 48.08167 | 12.20313 | 302° | 9km/h | 32622m | 5.9m/s | -38.2°C | 0.9% | 8.1hPa | 2.6V | 08:30:00 | 02:42:48 | 00:00:00 | i |
| HSKMA3-T | 2026-08-31 06:34:40 | 48.08175 | 12.20303 | 116° | 29km/h | 32601m | 5m/s | 0°C | 0% | 8.1hPa | 2.6V | 18:12:15 | 02:42:45 | 00:00:00 | i |
| HSKMA3-T | 2026-08-31 06:34:29 | 48.08144 | 12.20276 | 69° | 37km/h | 32534m | 4.4m/s | 0°C | 0% | 8.2hPa | 2.6V | 18:12:15 | 02:42:34 | 00:00:00 | i |
| HSKMA3-T | 2026-08-31 06:34:17 | 48.08094 | 12.20246 | 10° | 27km/h | 32461m | 6.2m/s | 0°C | 0% | 8.3hPa | 2.6V | 18:12:15 | 02:42:22 | 00:00:00 | i |
| HSKMA3-T | 2026-08-31 06:34:02 | 48.08053 | 12.20237 | 105° | 13km/h | 32369m | 4.8m/s | 0°C | 0% | 8.4hPa | 2.6V | 18:12:15 | 02:42:07 | 00:00:00 | i |
| HSKMA3-T | 2026-08-31 06:33:52 | 48.08019 | 12.20217 | 110° | 18km/h | 32308m | 4m/s | 0°C | 0% | 8.5hPa | 2.6V | 18:12:15 | 02:41:57 | 00:00:00 | i |
| EDDB2-11 | 2026-08-31 06:33:48 | 48.07983 | 12.20213 | 331° | 35km/h | 32278m | 4.4m/s | -41.2°C | 0.0% | 8.6hPa | 2.6V | 00:00:00 | 00:00:00 | 00:00:00 | |
| DF3TZ-5 | 2026-08-31 06:33:47 | 48.07978 | 12.20219 | 318° | 18km/h | 32273m | 5.9m/s | -41.3°C | 0.0% | 8.6hPa | 2.6V | 00:00:00 | 00:00:00 | 00:00:00 | |
| HSKMA3-T | 2026-08-31 06:33:41 | 48.07984 | 12.20193 | 59° | 26km/h | 32242m | 5.1m/s | 0°C | 0% | 8.6hPa | 2.6V | 18:12:15 | 02:41:46 | 00:00:00 | i |
| HSKMA3-T | 2026-08-31 06:33:28 | 48.07930 | 12.20203 | 300° | 40km/h | 32159m | 6.7m/s | 0°C | 0% | 8.7hPa | 2.6V | 18:12:15 | 02:41:33 | 00:00:00 | i |
| OE5MMP-10 | 2026-08-31 06:33:28 | 48.07930 | 12.20203 | 300° | 26km/h | 32160m | 6.7m/s | -42.0°C | 1.3% | 8.6hPa | 2.6V | 00:00:00 | 02:41:33 | 00:00:00 | i |
| DM0DOS-11 | 2026-08-31 06:33:27 | 48.07929 | 12.20234 | 122° | 13km/h | 32137m | 7.8m/s | -42.4°C | 1.3% | 8.8hPa | 2.6V | 08:30:00 | 02:41:29 | 00:00:00 | i |
| OE5DXL-15 | 2026-08-31 06:33:27 | 48.07927 | 12.20216 | 283° | 24km/h | 32154m | 4.7m/s | -41.9°C | 1.3% | 8.7hPa | 2.6V | 00:00:00 | 00:00:00 | 00:00:00 | i |
| OE5WHR-10 | 2026-08-31 06:33:26 | 48.07926 | 12.20228 | 268° | 24km/h | 32149m | 4.4m/s | -42.0°C | 1.3% | 8.7hPa | 2.6V | 00:00:00 | 02:41:31 | 00:00:00 | |
| DG1MJG | 2026-08-31 06:33:25 | 48.07926 | 12.20228 | 268° | 26km/h | 32149m | 4.5m/s | -42.0°C | 0% | 8.7hPa | 2.6V | 00:00:00 | 00:00:00 | 00:00:00 | |
| DO3MHA-11 | 2026-08-31 06:33:24 | 48.07929 | 12.20234 | 123° | 24km/h | 32137m | 7.7m/s | -42.4°C | 1.3% | 8.7hPa | 2.6V | 00:00:00 | 02:41:29 | 00:00:00 | |
| BAUMI2-15 | 2026-08-31 06:33:23 | 48.07930 | 12.20227 | 93° | 24km/h | 32129m | 7.8m/s | -42.5°C | 1.3% | 8.7hPa | 2.6V | 00:00:00 | 02:41:28 | 00:00:00 | |
| NBG1-10 | 2026-08-31 06:33:22 | 48.07929 | 12.20215 | 74° | 26km/h | 32123m | 5.3m/s | -42.6°C | 1.3% | 8.7hPa | 2.6V | 00:00:00 | 02:41:27 | 00:00:00 | |
| OE5MMP-10 | 2026-08-31 06:33:18 | 48.07917 | 12.20210 | 275° | 22km/h | 32100m | 7.4m/s | -42.5°C | 1.2% | 8.7hPa | 2.6V | 00:00:00 | 02:41:23 | 00:00:00 | |
| DK5PH-5 | 2026-08-31 06:33:17 | 48.07918 | 12.20221 | 252° | 27km/h | 32093m | 5.5m/s | -42.5°C | 1.2% | 8.7hPa | 2.6V | 00:00:00 | 02:41:22 | 00:00:00 | i |
| BIOWL1-15 | 2026-08-31 06:33:17 | 48.07918 | 12.20222 | 252° | 33km/h | 32093m | 5.6m/s | 0°C | 0% | 0hPa | 2.6V | 18:12:15 | 02:41:22 | 00:00:00 | i |
| DO3MHA-11 | 2026-08-31 06:33:14 | 48.07928 | 12.20235 | 128° | 26km/h | 32077m | 7.6m/s | -42.9°C | 1.3% | 8.8hPa | 2.6V | 00:00:00 | 02:41:19 | 00:00:00 | |
| DM0DOS-11 | 2026-08-31 06:33:13 | 48.07921 | 12.20210 | 232° | 27km/h | 32038m | 8.5m/s | -42.9°C | 1.3% | 8.9hPa | 2.6V | 08:30:00 | 02:41:13 | 00:00:00 | i |
| HSKMA3-T | 2026-08-31 06:33:07 | 48.07927 | 12.20219 | 218° | 40km/h | 32030m | 6.9m/s | 0°C | 0% | 8.9hPa | 2.6V | 18:12:15 | 02:41:12 | 00:00:00 | |
| OE5WHR-10 | 2026-08-31 06:33:05 | 48.07943 | 12.20229 | 183° | 26km/h | 32020m | 4.8m/s | -42.7°C | 1.3% | 8.8hPa | 2.6V | 00:00:00 | 00:00:00 | 00:00:00 | |
| DO3MHA-11 | 2026-08-31 06:33:04 | 48.07949 | 12.20227 | 143° | 26km/h | 32014m | 6.0m/s | -42.8°C | 1.3% | 8.9hPa | 2.6V | 00:00:00 | 02:41:09 | 00:00:00 | |
| DM0DOS-11 | 2026-08-31 06:33:03 | 48.07944 | 12.20203 | 204° | 24km/h | 31977m | 8.3m/s | -43°C | 1.3% | 9hPa | 2.6V | 08:30:00 | 02:41:03 | 00:00:00 | i |
| BIOWL1-15 | 2026-08-31 06:33:03 | 48.07951 | 12.20221 | 93° | 22km/h | 32006m | 7.8m/s | 0°C | 0% | 0hPa | 2.6V | 18:12:15 | 02:41:08 | 00:00:00 | i |
| HSKMA3-T | 2026-08-31 06:32:57 | 48.07952 | 12.20206 | 192° | 40km/h | 31969m | 7.2m/s | 0°C | 0% | 9hPa | 2.7V | 18:12:15 | 02:41:02 | 00:00:00 | i |
| HSKMA3-T | 2026-08-31 06:32:45 | 48.07995 | 12.20155 | 119° | 31km/h | 31891m | 5.5m/s | 0°C | 0% | 9.1hPa | 2.6V | 18:12:15 | 02:40:49 | 00:00:00 | i |
| HSKMA3-T | 2026-08-31 06:32:33 | 48.08014 | 12.20087 | 81° | 20km/h | 31825m | 7.5m/s | 0°C | 0% | 9.2hPa | 2.6V | 18:12:15 | 02:40:38 | 00:00:00 | |
| OE5DRO-10 | 2026-08-31 06:32:32 | 48.08012 | 12.20082 | 30° | 24km/h | 31817m | 8.4m/s | -43.3°C | 1.3% | 9.1hPa | 2.6V | 00:00:00 | 00:00:00 | 00:00:00 | |
| SONCRA | 2026-08-31 06:32:30 | 48.08003 | 12.20082 | 336° | 11km/h | 31805m | 4.2m/s | -43.2°C | 0.0% | 9.2hPa | 2.6V | 00:00:00 | 00:00:00 | 00:00:00 | |
| OE5REO-15 | 2026-08-31 06:32:29 | 48.08003 | 12.20082 | 338° | 11km/h | 31806m | 4.2m/s | -43.2°C | 0% | 0hPa | 2.6V | 00:00:00 | 00:00:00 | 00:00:00 | |
| DM0DOS-11 | 2026-08-31 06:32:28 | 48.08018 | 12.20061 | 130° | 47km/h | 31780m | 5.6m/s | -43.3°C | 1.3% | 9.2hPa | 2.6V | 08:30:00 | 02:40:31 | 00:00:00 | i |
| EDDB2-12 | 2026-08-31 06:32:28 | 48.08010 | 12.20073 | 138° | 37km/h | 31788m | 7.9m/s | -43.3°C | 0.0% | 9.2hPa | 2.6V | 00:00:00 | 00:00:00 | 00:00:00 | i |
| OE5DXL-15 | 2026-08-31 06:32:26 | 48.08018 | 12.20061 | 131° | 24km/h | 31781m | 5.6m/s | -43.3°C | 1.3% | 9.2hPa | 2.6V | 00:00:00 | 00:00:00 | 00:00:00 | |
| DB0UT-7 | 2026-08-31 06:32:25 | 48.08024 | 12.20048 | 123° | 24km/h | 31776m | 4.3m/s | -43.3°C | 1.3% | 9.2hPa | 2.6V | 00:00:00 | 00:00:00 | 00:00:00 | |
| DO3MHA-11 | 2026-08-31 06:32:24 | 48.08029 | 12.20036 | 113° | 26km/h | 31771m | 5.5m/s | -43.3°C | 1.3% | 9.2hPa | 2.6V | 00:00:00 | 02:40:29 | 00:00:00 | |
| OE5WHR-10 | 2026-08-31 06:32:23 | 48.08030 | 12.20029 | 86° | 22km/h | 31764m | 7.4m/s | -43.3°C | 1.3% | 9.2hPa | 2.6V | 00:00:00 | 02:40:28 | 00:00:00 | |
| SONDE2-11 | 2026-08-31 06:32:22 | 48.08028 | 12.20027 | 0° | 11km/h | 31757m | 8.0m/s | -43.3°C | 0.0% | 9.3hPa | 2.6V | 00:00:00 | 00:00:00 | 00:00:00 | |
| DG1MFX-10 | 2026-08-31 06:32:20 | 48.08025 | 12.20029 | 326° | 20km/h | 31750m | 5.3m/s | -43.3°C | -0.3% | 9.3hPa | 2.6V | 00:00:00 | 00:00:00 | 00:00:00 | |
| IW2NTF | 2026-08-31 06:32:19 | 48.08034 | 12.19971 | 98° | 31km/h | 31710m | 4.7m/s | 0°C | 0% | 0hPa | 2.6V | 00:00:00 | 02:40:19 | 00:00:00 | i |
| OE5MMP-10 | 2026-08-31 06:32:18 | 48.08021 | 12.20029 | 113° | 26km/h | 31736m | 7.2m/s | -43.2°C | 1.3% | 9.2hPa | 2.6V | 00:00:00 | 02:40:23 | 00:00:00 | |
| NBG1-10 | 2026-08-31 06:32:16 | 48.08028 | 12.20003 | 111° | 33km/h | 31720m | 6.7m/s | -43.2°C | 1.3% | 9.3hPa | 2.6V | 00:00:00 | 02:40:21 | 00:00:00 | |
| DK5PH-5 | 2026-08-31 06:32:15 | 48.08032 | 12.19985 | 104° | 38km/h | 31714m | 4.2m/s | -43.1°C | 1.3% | 9.3hPa | 2.6V | 00:00:00 | 02:40:20 | 00:00:00 | |
| DF3TZ-5 | 2026-08-31 06:32:14 | 48.08034 | 12.19962 | 84° | 13km/h | 31704m | 6.5m/s | -43.3°C | 0.0% | 9.3hPa | 2.6V | 00:00:00 | 00:00:00 | 00:00:00 | |
| OE5DRO-10 | 2026-08-31 06:32:13 | 48.08034 | 12.19962 | 85° | 24km/h | 31705m | 6.5m/s | -43.2°C | 1.4% | 9.3hPa | 2.6V | 00:00:00 | 00:00:00 | 00:00:00 | |
| OE5REO-15 | 2026-08-31 06:32:09 | 48.08031 | 12.19973 | 273° | 18km/h | 31685m | 4.1m/s | -43.4°C | 0% | 0hPa | 2.6V | 00:00:00 | 00:00:00 | 00:00:00 | |
| OE5MMP-10 | 2026-08-31 06:32:08 | 48.08033 | 12.19975 | 112° | 26km/h | 31675m | 6.5m/s | -43.3°C | 1.4% | 9.3hPa | 2.6V | 00:00:00 | 02:40:13 | 00:00:00 | |
| IW2NTF | 2026-08-31 06:32:04 | 48.08035 | 12.19909 | 209° | 7km/h | 31619m | 3.4m/s | 0°C | 0% | 0hPa | 2.6V | 00:00:00 | 02:40:04 | 00:00:00 | i |
| HSKMA3-T | 2026-08-31 06:32:04 | 48.08036 | 12.19915 | 83° | 38km/h | 31650m | 4m/s | 0°C | 0% | 9.4hPa | 2.6V | 18:12:15 | 02:40:09 | 00:00:00 | i |
| DO3MHA-11 | 2026-08-31 06:32:04 | 48.08036 | 12.19915 | 84° | 24km/h | 31650m | 4.0m/s | -43.4°C | 1.3% | 9.4hPa | 2.6V | 00:00:00 | 02:40:09 | 00:00:00 | i |
| OE5WHR-10 | 2026-08-31 06:32:02 | 48.08033 | 12.19899 | 42° | 24km/h | 31637m | 8.1m/s | -43.5°C | 1.3% | 9.4hPa | 2.6V | 00:00:00 | 00:00:00 | 08:30:00 | |
| SONCRA | 2026-08-31 06:31:59 | 48.08035 | 12.19909 | 209° | 7km/h | 31619m | 3.4m/s | -43.3°C | 0.0% | 9.5hPa | 2.6V | 00:00:00 | 00:00:00 | 00:00:00 | |
| DL1ZP-14 | 2026-08-31 06:31:57 | 48.08035 | 12.19887 | 77° | 44km/h | 31600m | 8.3m/s | -43.2°C | 0.0% | 9.5hPa | 2.6V | 00:00:00 | 00:00:00 | 00:00:00 | |
| OE5DXL-15 | 2026-08-31 06:31:56 | 48.08035 | 12.19887 | 78° | 24km/h | 31600m | 8.2m/s | -43.2°C | 1.4% | 9.5hPa | 2.6V | 00:00:00 | 00:00:00 | 00:00:00 | |
| DB0UT-7 | 2026-08-31 06:31:55 | 48.08032 | 12.19870 | 70° | 26km/h | 31593m | 4.4m/s | -43.1°C | 1.4% | 9.5hPa | 2.6V | 00:00:00 | 02:40:00 | 08:30:00 | |
| DM0DOS-11 | 2026-08-31 06:31:54 | 48.08033 | 12.19858 | 205° | 26km/h | 31554m | 4.8m/s | -43°C | 1.3% | 9.6hPa | 2.6V | 08:30:00 | 02:39:54 | 00:00:00 | i |
| HSKMA3-T | 2026-08-31 06:31:48 | 48.08038 | 12.19860 | 162° | 16km/h | 31549m | 5.2m/s | 0°C | 0% | 9.6hPa | 2.6V | 18:12:15 | 02:39:53 | 00:00:00 | i |
| EDDB2-11 | 2026-08-31 06:31:44 | 48.08031 | 12.19820 | 53° | 35km/h | 31523m | 4.7m/s | -42.8°C | 0.0% | 9.6hPa | 2.6V | 00:00:00 | 00:00:00 | 00:00:00 | |
| HSKMA3-T | 2026-08-31 06:31:34 | 48.08029 | 12.19792 | 37° | 33km/h | 31462m | 3.9m/s | 0°C | 0% | 0hPa | 2.6V | 18:12:15 | 02:39:39 | 00:00:00 | i |
| DO3MHA-11 | 2026-08-31 06:31:34 | 48.08029 | 12.19792 | 37° | 22km/h | 31462m | 3.9m/s | -42.7°C | 1.3% | 9.6hPa | 2.6V | 00:00:00 | 02:39:39 | 00:00:00 | i |
| IW2NTF | 2026-08-31 06:31:33 | 48.08044 | 12.19789 | 159° | 22km/h | 31426m | 4.3m/s | 0°C | 0% | 0hPa | 2.6V | 00:00:00 | 02:39:33 | 00:00:00 | i |
| SONCRA | 2026-08-31 06:31:29 | 48.08044 | 12.19789 | 159° | 20km/h | 31426m | 4.4m/s | -42.5°C | 0.0% | 9.8hPa | 2.6V | 00:00:00 | 00:00:00 | 00:00:00 | |
| OE5MMP-10 | 2026-08-31 06:31:28 | 48.08043 | 12.19789 | 160° | 24km/h | 31427m | 4.3m/s | -42.5°C | 1.3% | 9.7hPa | 2.6V | 00:00:00 | 02:39:33 | 00:00:00 | |
| IN3HCDX | 2026-08-31 06:31:27 | 48.08044 | 12.19789 | 160° | 22km/h | 31427m | 4.4m/s | 0°C | 0% | 0hPa | 2.6V | 00:00:00 | 00:00:00 | 00:00:00 | |
| OE5DXL-15 | 2026-08-31 06:31:26 | 48.08045 | 12.19779 | 49° | 24km/h | 31414m | 8.5m/s | -42.7°C | 1.3% | 9.8hPa | 2.6V | 00:00:00 | 00:00:00 | 00:00:00 | |
| EDDB2-12 | 2026-08-31 06:31:25 | 48.08039 | 12.19773 | 28° | 35km/h | 31405m | 8.0m/s | -42.7°C | 0.0% | 9.8hPa | 2.6V | 00:00:00 | 00:00:00 | 00:00:00 | |
| DB0UT-7 | 2026-08-31 06:31:24 | 48.08031 | 12.19768 | 14° | 24km/h | 31399m | 5.5m/s | -42.6°C | 1.3% | 9.8hPa | 2.6V | 00:00:00 | 00:00:00 | 00:00:00 | |
| DG1MJG | 2026-08-31 06:31:23 | 48.08031 | 12.19768 | 15° | 37km/h | 31399m | 5.6m/s | -42.7°C | 0% | 9.8hPa | 2.6V | 00:00:00 | 00:00:00 | 00:00:00 | |
| IW2NTF | 2026-08-31 06:31:22 | 48.08046 | 12.19752 | 115° | 16km/h | 31359m | 6.1m/s | 0°C | 0% | 0hPa | 2.6V | 00:00:00 | 02:39:22 | 00:00:00 | i |
| HSKMA3-T | 2026-08-31 06:31:19 | 48.08035 | 12.19763 | 162° | 37km/h | 31369m | 4.3m/s | 0°C | 0% | 0hPa | 2.6V | 18:12:15 | 02:39:24 | 00:00:00 | i |
| HSKMA3-T | 2026-08-31 06:31:07 | 48.08043 | 12.19713 | 96° | 18km/h | 31299m | 6.3m/s | 0°C | 0% | 0hPa | 2.5V | 18:12:15 | 02:39:12 | 00:00:00 | i |
| OE5REO-15 | 2026-08-31 06:31:06 | 48.08043 | 12.19713 | 97° | 18km/h | 31300m | 6.3m/s | -42.8°C | 0% | 0hPa | 2.6V | 00:00:00 | 00:00:00 | 00:00:00 | |
| DO3MHA-11 | 2026-08-31 06:31:04 | 48.08029 | 12.19710 | 336° | 22km/h | 31276m | 5.5m/s | -42.6°C | 1.3% | 9.9hPa | 2.6V | 00:00:00 | 02:39:09 | 00:00:00 | |
| DM0DOS-11 | 2026-08-31 06:31:03 | 48.08034 | 12.19703 | 122° | 26km/h | 31240m | 4.5m/s | -42.7°C | 1.2% | 10hPa | 2.6V | 08:30:00 | 02:39:03 | 00:00:00 | i |
| HSKMA3-T | 2026-08-31 06:30:49 | 48.08026 | 12.19710 | 136° | 29km/h | 31182m | 5.6m/s | 0°C | 0% | 0hPa | 2.6V | 18:12:15 | 02:38:54 | 00:00:00 | i |
| HSKMA3-T | 2026-08-31 06:30:38 | 48.08029 | 12.19690 | 99° | 35km/h | 31115m | 3.8m/s | 0°C | 0% | 0hPa | 2.5V | 18:12:15 | 02:38:43 | 00:00:00 | i |
| HSKMA3-T | 2026-08-31 06:30:23 | 48.08011 | 12.19653 | 258° | 22km/h | 31021m | 4.5m/s | 0°C | 0% | 0hPa | 2.6V | 18:12:15 | 02:38:28 | 00:00:00 | i |
| BIOWL1-15 | 2026-08-31 06:30:16 | 48.08007 | 12.19615 | 240° | 24km/h | 30964m | 7.2m/s | 0°C | 0% | 0hPa | 2.6V | 18:12:15 | 02:38:19 | 00:00:00 | i |
| HSKMA3-T | 2026-08-31 06:30:12 | 48.08016 | 12.19626 | 186° | 16km/h | 30952m | 4.8m/s | 0°C | 0% | 0hPa | 2.6V | 18:12:15 | 02:38:17 | 00:00:00 | i |
| BIOWL1-15 | 2026-08-31 06:30:01 | 48.08034 | 12.19579 | 137° | 18km/h | 30882m | 6.4m/s | 0°C | 0% | 0hPa | 2.6V | 18:12:15 | 02:38:06 | 00:00:00 | i |
| HSKMA3-T | 2026-08-31 06:29:55 | 48.08023 | 12.19533 | 173° | 13km/h | 30843m | 7.5m/s | 0°C | 0% | 0hPa | 2.5V | 18:12:15 | 02:38:00 | 00:00:00 | i |
| DL1ZP-14 | 2026-08-31 06:29:52 | 48.08043 | 12.19531 | 155° | 27km/h | 30824m | 4.4m/s | -43.3°C | 0.0% | 10.7hPa | 2.6V | 00:00:00 | 00:00:00 | 00:00:00 | |
| DM0DOS-11 | 2026-08-31 06:29:51 | 48.08030 | 12.19490 | 43° | 7km/h | 30788m | 6.6m/s | -43.7°C | 1.4% | 10.8hPa | 2.6V | 08:30:00 | 02:37:51 | 00:00:00 | i |
| BIOWL1-15 | 2026-08-31 06:29:47 | 48.08034 | 12.19493 | 29° | 22km/h | 30794m | 4.5m/s | 0°C | 0% | 0hPa | 2.6V | 18:12:15 | 02:37:52 | 00:00:00 | i |
| HSKMA3-T | 2026-08-31 06:29:45 | 48.08031 | 12.19488 | 171° | 13km/h | 30781m | 7.9m/s | 0°C | 0% | 0hPa | 2.6V | 18:12:15 | 02:37:50 | 00:00:00 | i |
| HSKMA3-T | 2026-08-31 06:29:34 | 48.08038 | 12.19432 | 153° | 29km/h | 30712m | 7.1m/s | 0°C | 0% | 0hPa | 2.5V | 18:12:15 | 02:37:39 | 00:00:00 | i |
| HSKMA3-T | 2026-08-31 06:29:22 | 48.08037 | 12.19359 | 98° | 42km/h | 30638m | 4.4m/s | 0°C | 0% | 0hPa | 2.6V | 18:12:15 | 02:37:27 | 00:00:00 | i |
| HSKMA3-T | 2026-08-31 06:29:10 | 48.08012 | 12.19292 | 15° | 18km/h | 30566m | 7.6m/s | 0°C | 0% | 0hPa | 2.6V | 18:12:15 | 02:37:15 | 00:00:00 | i |
| HSKMA3-T | 2026-08-31 06:28:59 | 48.07988 | 12.19270 | 304° | 24km/h | 30495m | 7.5m/s | 0°C | 0% | 0hPa | 2.5V | 18:12:15 | 02:37:04 | 00:00:00 | i |
| HSKMA3-T | 2026-08-31 06:28:48 | 48.07969 | 12.19261 | 259° | 22km/h | 30427m | 5.8m/s | 0°C | 0% | 0hPa | 2.6V | 18:12:15 | 02:36:53 | 00:00:00 | i |
| HSKMA3-T | 2026-08-31 06:28:38 | 48.07950 | 12.19235 | 231° | 16km/h | 30366m | 4.2m/s | 0°C | 0% | 0hPa | 2.5V | 18:12:15 | 02:36:43 | 00:00:00 | i |
| HSKMA3-T | 2026-08-31 06:28:26 | 48.07946 | 12.19205 | 115° | 13km/h | 30297m | 6.1m/s | 0°C | 0% | 0hPa | 2.6V | 18:12:15 | 02:36:31 | 00:00:00 | i |
| HSKMA3-T | 2026-08-31 06:28:15 | 48.07929 | 12.19174 | 44° | 18km/h | 30227m | 6.3m/s | 0°C | 0% | 0hPa | 2.6V | 18:12:15 | 02:36:20 | 00:00:00 | i |
| DO3MHA-11 | 2026-08-31 06:28:14 | 48.07924 | 12.19170 | 17° | 22km/h | 30221m | 7.5m/s | -44.7°C | 1.5% | 11.8hPa | 2.5V | 00:00:00 | 02:36:19 | 00:00:00 | |
| DG1MFX-10 | 2026-08-31 06:28:13 | 48.07924 | 12.19170 | 17° | 29km/h | 30221m | 7.5m/s | -44.7°C | -0.3% | 11.8hPa | 2.5V | 00:00:00 | 00:00:00 | 00:00:00 | |
| HSKMA3-T | 2026-08-31 06:27:56 | 48.07920 | 12.19149 | 85° | 15km/h | 30115m | 5.7m/s | 0°C | 0% | 0hPa | 2.5V | 18:12:15 | 02:36:01 | 00:00:00 | i |
| DL1ZP-14 | 2026-08-31 06:27:48 | 48.07928 | 12.19159 | 113° | 33km/h | 30066m | 5.7m/s | -44.5°C | 0.0% | 12.1hPa | 2.5V | 00:00:00 | 00:00:00 | 00:00:00 | |
| HSKMA3-T | 2026-08-31 06:27:34 | 48.07922 | 12.19146 | 274° | 24km/h | 29984m | 7.6m/s | 0°C | 0% | 0hPa | 2.5V | 18:12:15 | 02:35:39 | 00:00:00 | i |
| BIOWL1-15 | 2026-08-31 06:27:23 | 48.07932 | 12.19140 | 214° | 33km/h | 29916m | 5.6m/s | 0°C | 0% | 0hPa | 2.6V | 18:12:15 | 02:35:28 | 00:00:00 | i |
| HSKMA3-T | 2026-08-31 06:27:21 | 48.07945 | 12.19147 | 176° | 18km/h | 29906m | 6.2m/s | 0°C | 0% | 0hPa | 2.5V | 18:12:15 | 02:35:26 | 00:00:00 | i |
| HSKMA3-T | 2026-08-31 06:27:05 | 48.07961 | 12.19109 | 196° | 15km/h | 29807m | 6.9m/s | 0°C | 0% | 0hPa | 2.6V | 18:12:15 | 02:35:10 | 00:00:00 | i |
| HSKMA3-T | 2026-08-31 06:26:52 | 48.07993 | 12.19095 | 150° | 37km/h | 29727m | 4.7m/s | 0°C | 0% | 0hPa | 2.6V | 18:12:15 | 02:34:57 | 00:00:00 | i |
| DB0UT-7 | 2026-08-31 06:26:52 | 48.07993 | 12.19095 | 150° | 20km/h | 29727m | 4.7m/s | -44.1°C | 1.4% | 12.7hPa | 2.6V | 00:00:00 | 02:34:57 | 00:00:00 | i |
| DB0NH | 2026-08-31 06:26:51 | 48.07999 | 12.19087 | 131° | 22km/h | 29722m | 5.8m/s | -44.2°C | 1.4% | 12.7hPa | 2.6V | 00:00:00 | 02:34:56 | 00:00:00 | |
| NBG1-10 | 2026-08-31 06:26:50 | 48.08001 | 12.19080 | 93° | 22km/h | 29716m | 6.8m/s | -44.3°C | 1.5% | 12.7hPa | 2.6V | 00:00:00 | 02:34:55 | 00:00:00 | |
| OM5KV | 2026-08-31 06:26:49 | 48.08002 | 12.19080 | 93° | 18km/h | 29716m | 6.8m/s | -44.4°C | 0% | 12.7hPa | 2.6V | 00:00:00 | 00:00:00 | 00:00:00 | |
| OE5MMP-10 | 2026-08-31 06:26:48 | 48.07996 | 12.19070 | 16° | 20km/h | 29702m | 5.6m/s | -44.4°C | 1.5% | 12.7hPa | 2.6V | 00:00:00 | 02:34:53 | 00:00:00 | |
| OE5FHM-15 | 2026-08-31 06:26:46 | 48.07990 | 12.19070 | 279° | 18km/h | 29691m | 6.5m/s | -44.4°C | 1.5% | 12.8hPa | 2.6V | 00:00:00 | 02:34:51 | 00:00:00 | |
| DO3MHA-11 | 2026-08-31 06:26:44 | 48.07997 | 12.19071 | 177° | 20km/h | 29677m | 6.7m/s | -44.4°C | 1.5% | 12.8hPa | 2.6V | 00:00:00 | 02:34:49 | 00:00:00 | |
| BAUMI2-15 | 2026-08-31 06:26:43 | 48.08005 | 12.19069 | 162° | 22km/h | 29671m | 4.0m/s | -44.4°C | 1.4% | 12.8hPa | 2.6V | 00:00:00 | 02:34:48 | 00:00:00 | |
| OE5MMP-10 | 2026-08-31 06:26:38 | 48.08004 | 12.19048 | 359° | 18km/h | 29641m | 4.4m/s | -44.5°C | 1.5% | 12.8hPa | 2.6V | 00:00:00 | 02:34:43 | 00:00:00 | |
| DF7PN | 2026-08-31 06:26:37 | 48.07999 | 12.19049 | 197° | 4km/h | 29630m | 6.3m/s | 0°C | -1.0% | -1.0hPa | 2.6V | 00:00:00 | 00:00:00 | 00:00:00 | |
| DO3MHA-11 | 2026-08-31 06:26:34 | 48.08008 | 12.19046 | 158° | 20km/h | 29617m | 6.1m/s | -44.4°C | 1.5% | 12.9hPa | 2.6V | 00:00:00 | 02:34:39 | 00:00:00 | |
| BAUMI2-15 | 2026-08-31 06:26:33 | 48.08014 | 12.19040 | 141° | 20km/h | 29613m | 4.1m/s | -44.5°C | 1.5% | 12.9hPa | 2.6V | 00:00:00 | 02:34:38 | 00:00:00 | |
| DF3TZ-5 | 2026-08-31 06:26:32 | 48.08018 | 12.19034 | 120° | 20km/h | 29608m | 4.9m/s | -44.7°C | 0.0% | 13.0hPa | 2.6V | 00:00:00 | 00:00:00 | 00:00:00 | |
| OE5DRO-10 | 2026-08-31 06:26:31 | 48.08019 | 12.19028 | 76° | 18km/h | 29602m | 6.2m/s | -44.7°C | 1.5% | 12.9hPa | 2.6V | 00:00:00 | 00:00:00 | 00:00:00 | |
| OE5MMP-10 | 2026-08-31 06:26:28 | 48.08008 | 12.19030 | 317° | 20km/h | 29584m | 4.6m/s | -44.6°C | 1.5% | 13.0hPa | 2.6V | 00:00:00 | 02:34:33 | 08:30:00 | |
| OM5KV | 2026-08-31 06:26:27 | 48.08008 | 12.19030 | 317° | 18km/h | 29584m | 4.7m/s | -44.7°C | 0% | 13.0hPa | 2.6V | 00:00:00 | 00:00:00 | 00:00:00 | |
| OE9MKV-15 | 2026-08-31 06:26:26 | 48.08008 | 12.19034 | 168° | 18km/h | 29573m | 6.6m/s | 0°C | 0% | 0hPa | 2.6V | 00:00:00 | 02:34:31 | 00:00:00 | |
| DO3MHA-11 | 2026-08-31 06:26:24 | 48.08018 | 12.19023 | 128° | 24km/h | 29560m | 4.7m/s | -44.6°C | 1.5% | 13.0hPa | 2.6V | 00:00:00 | 02:34:29 | 00:00:00 | |
| OE5WHR-10 | 2026-08-31 06:26:23 | 48.08022 | 12.19012 | 110° | 22km/h | 29556m | 4.3m/s | -44.4°C | 1.4% | 13.0hPa | 2.6V | 00:00:00 | 00:00:00 | 00:00:00 | |
| DB0UT-7 | 2026-08-31 06:26:22 | 48.08023 | 12.19001 | 89° | 20km/h | 29550m | 5.9m/s | -44.3°C | 1.5% | 13.0hPa | 2.6V | 00:00:00 | 00:00:00 | 00:00:00 | |
| OM5KV | 2026-08-31 06:26:21 | 48.08023 | 12.19001 | 89° | 26km/h | 29550m | 6.0m/s | -44.4°C | 0% | 13.1hPa | 2.6V | 00:00:00 | 00:00:00 | 00:00:00 | |
| SONCRA | 2026-08-31 06:26:18 | 48.08013 | 12.19010 | 221° | 13km/h | 29520m | 5.7m/s | 0°C | -1.0% | -1.0hPa | 2.6V | 00:00:00 | 00:00:00 | 00:00:00 | |
| OE5FHM-15 | 2026-08-31 06:26:16 | 48.08017 | 12.19011 | 168° | 18km/h | 29514m | 6.7m/s | -44.4°C | 1.4% | 13.1hPa | 2.6V | 00:00:00 | 02:34:21 | 00:00:00 | |
| DL1ZP-14 | 2026-08-31 06:26:15 | 48.08022 | 12.19007 | 138° | 29km/h | 29508m | 6.2m/s | -44.4°C | 0.0% | 13.2hPa | 2.6V | 00:00:00 | 00:00:00 | 00:00:00 | |
| DO3MHA-11 | 2026-08-31 06:26:14 | 48.08027 | 12.18997 | 118° | 22km/h | 29503m | 4.2m/s | -44.3°C | 1.4% | 13.1hPa | 2.6V | 00:00:00 | 02:34:19 | 00:00:00 | |
| BAUMI2-15 | 2026-08-31 06:26:13 | 48.08030 | 12.18986 | 98° | 22km/h | 29499m | 4.1m/s | -44.3°C | 1.4% | 13.1hPa | 2.6V | 00:00:00 | 02:34:18 | 00:00:00 | |
| OM5KV | 2026-08-31 06:26:12 | 48.08030 | 12.18986 | 98° | 26km/h | 29499m | 4.1m/s | -44.4°C | 0% | 13.2hPa | 2.6V | 00:00:00 | 00:00:00 | 00:00:00 | |
| DG1MFX-10 | 2026-08-31 06:26:11 | 48.08029 | 12.18979 | 67° | 16km/h | 29494m | 6.6m/s | -44.5°C | -0.3% | 13.2hPa | 2.6V | 00:00:00 | 00:00:00 | 00:00:00 | |
| SONDE2-11 | 2026-08-31 06:26:10 | 48.08021 | 12.18989 | 280° | 27km/h | 29472m | 5.4m/s | -44.7°C | 0.0% | 13.2hPa | 2.6V | 00:00:00 | 00:00:00 | 00:00:00 | |
| OE5MMP-10 | 2026-08-31 06:26:08 | 48.08021 | 12.18998 | 252° | 20km/h | 29467m | 4.3m/s | -44.5°C | 1.5% | 13.2hPa | 2.6V | 00:00:00 | 02:34:13 | 00:00:00 | |
| DF7PN | 2026-08-31 06:26:06 | 48.08033 | 12.18985 | 98° | 29km/h | 29442m | 5.2m/s | 0°C | -1.0% | -1.0hPa | 2.6V | 00:00:00 | 00:00:00 | 00:00:00 | |
| DO3MHA-11 | 2026-08-31 06:26:04 | 48.08033 | 12.18985 | 99° | 20km/h | 29442m | 5.2m/s | -44.7°C | 1.5% | 13.3hPa | 2.6V | 00:00:00 | 02:34:09 | 00:00:00 | |
| BAUMI2-15 | 2026-08-31 06:26:03 | 48.08034 | 12.18975 | 82° | 18km/h | 29437m | 5.1m/s | -44.7°C | 1.5% | 13.3hPa | 2.6V | 00:00:00 | 02:34:08 | 08:30:00 | |
| OE5WHR-10 | 2026-08-31 06:26:02 | 48.08032 | 12.18970 | 44° | 18km/h | 29431m | 6.5m/s | -44.6°C | 1.5% | 13.3hPa | 2.5V | 00:00:00 | 02:34:07 | 00:00:00 | |
| DF3TZ-5 | 2026-08-31 06:26:01 | 48.08029 | 12.18987 | 257° | 26km/h | 29413m | 4.1m/s | -44.8°C | 0.0% | 13.4hPa | 2.5V | 00:00:00 | 00:00:00 | 00:00:00 | |
| DC4HF-4 | 2026-08-31 06:25:51 | 48.08032 | 12.18972 | 278° | 20km/h | 29363m | 6.8m/s | -45.0°C | -1.0% | -1.0hPa | 2.5V | 00:00:00 | 00:00:00 | 00:00:00 | |
| DB0UT-7 | 2026-08-31 06:25:50 | 48.08032 | 12.18981 | 258° | 20km/h | 29357m | 5.6m/s | -44.8°C | 1.5% | 13.4hPa | 2.5V | 00:00:00 | 02:33:55 | 00:00:00 | |
| DB0NH | 2026-08-31 06:25:48 | 48.08038 | 12.18995 | 210° | 22km/h | 29346m | 5.8m/s | -44.8°C | 1.5% | 13.4hPa | 2.6V | 00:00:00 | 02:33:53 | 00:00:00 | |
| OE5MMP-10 | 2026-08-31 06:25:47 | 48.08041 | 12.18995 | 140° | 18km/h | 29340m | 7.0m/s | -44.9°C | 1.5% | 13.5hPa | 2.6V | 00:00:00 | 02:33:52 | 00:00:00 | |
| OM5KV | 2026-08-31 06:25:46 | 48.08040 | 12.18995 | 140° | 11km/h | 29340m | 7.1m/s | -44.9°C | 0% | 13.5hPa | 2.6V | 00:00:00 | 00:00:00 | 00:00:00 | |
| DO3MHA-11 | 2026-08-31 06:25:44 | 48.08036 | 12.18972 | 50° | 20km/h | 29321m | 4.6m/s | -44.9°C | 1.5% | 13.5hPa | 2.6V | 00:00:00 | 02:33:49 | 00:00:00 | |
| BAUMI2-15 | 2026-08-31 06:25:43 | 48.08032 | 12.18967 | 33° | 16km/h | 29317m | 5.4m/s | -44.8°C | 1.5% | 13.5hPa | 2.6V | 00:00:00 | 02:33:48 | 00:00:00 | |
| OE5HKT-10 | 2026-08-31 06:25:42 | 48.08030 | 12.18967 | 293° | 15km/h | 29310m | 6.6m/s | -44.8°C | 1.5% | 13.5hPa | 2.6V | 00:00:00 | 00:00:00 | 00:00:00 | |
| OE5WHR-10 | 2026-08-31 06:25:41 | 48.08031 | 12.18971 | 244° | 20km/h | 29303m | 7.2m/s | -44.7°C | 1.5% | 13.5hPa | 2.6V | 00:00:00 | 00:00:00 | 08:30:00 | |
| SONDE2-11 | 2026-08-31 06:25:39 | 48.08044 | 12.18983 | 168° | 15km/h | 29286m | 5.7m/s | -44.7°C | 0.0% | 13.6hPa | 2.6V | 00:00:00 | 00:00:00 | 00:00:00 | |
| BAUMI2-15 | 2026-08-31 06:25:38 | 48.08044 | 12.18983 | 169° | 22km/h | 29287m | 5.6m/s | -44.7°C | 1.5% | 13.6hPa | 2.6V | 00:00:00 | 02:33:43 | 00:00:00 | |
| OE5MMP-10 | 2026-08-31 06:25:37 | 48.08046 | 12.18980 | 99° | 22km/h | 29281m | 6.3m/s | -44.7°C | 1.4% | 13.6hPa | 2.6V | 00:00:00 | 02:33:42 | 00:00:00 | |
| NBG1-10 | 2026-08-31 06:25:35 | 48.08040 | 12.18964 | 43° | 20km/h | 29267m | 5.5m/s | -44.7°C | 1.5% | 13.6hPa | 2.6V | 00:00:00 | 02:33:40 | 00:00:00 | |
| DO3MHA-11 | 2026-08-31 06:25:34 | 48.08035 | 12.18958 | 27° | 22km/h | 29262m | 5.2m/s | -44.7°C | 1.5% | 13.6hPa | 2.6V | 00:00:00 | 02:33:39 | 00:00:00 | |
| BAUMI2-15 | 2026-08-31 06:25:33 | 48.08031 | 12.18956 | 2° | 20km/h | 29256m | 5.6m/s | -44.7°C | 1.5% | 13.7hPa | 2.6V | 00:00:00 | 02:33:38 | 00:00:00 | |
| OE5DRO-10 | 2026-08-31 06:25:32 | 48.08030 | 12.18957 | 240° | 18km/h | 29250m | 6.8m/s | -44.6°C | 1.5% | 13.7hPa | 2.6V | 00:00:00 | 00:00:00 | 08:30:00 | |
| PG1ADW-2 | 2026-08-31 06:25:31 | 48.08033 | 12.18960 | 207° | 20km/h | 29243m | 7.2m/s | -44.6°C | 1.5% | 13.7hPa | 2.6V | 00:00:00 | 00:00:00 | 00:00:00 | |
| DF3TZ-5 | 2026-08-31 06:25:30 | 48.08039 | 12.18963 | 187° | 29km/h | 29237m | 5.1m/s | -44.5°C | 0.0% | 13.7hPa | 2.6V | 00:00:00 | 00:00:00 | 00:00:00 | |
| BAUMI2-15 | 2026-08-31 06:25:28 | 48.08051 | 12.18958 | 133° | 26km/h | 29226m | 6.1m/s | -44.7°C | 1.5% | 13.7hPa | 2.6V | 00:00:00 | 02:33:33 | 00:00:00 | |
| OE5MMP-10 | 2026-08-31 06:25:27 | 48.08052 | 12.18952 | 78° | 20km/h | 29220m | 7.4m/s | -44.8°C | 1.5% | 13.7hPa | 2.6V | 00:00:00 | 02:33:32 | 00:00:00 | |
| OE5DXL-15 | 2026-08-31 06:25:26 | 48.08049 | 12.18945 | 42° | 20km/h | 29212m | 7.8m/s | -44.8°C | 1.5% | 13.8hPa | 2.6V | 00:00:00 | 00:00:00 | 08:30:00 | |
| DO3MHA-11 | 2026-08-31 06:25:24 | 48.08035 | 12.18937 | 1° | 20km/h | 29199m | 6.0m/s | -44.6°C | 1.5% | 13.8hPa | 2.6V | 00:00:00 | 02:33:29 | 08:30:00 | |
| DK5PH-5 | 2026-08-31 06:25:23 | 48.08030 | 12.18938 | 330° | 16km/h | 29193m | 5.7m/s | -44.5°C | 1.4% | 13.8hPa | 2.6V | 00:00:00 | 02:33:28 | 00:00:00 | |
| OE5HKT-10 | 2026-08-31 06:25:21 | 48.08032 | 12.18945 | 206° | 22km/h | 29181m | 6.1m/s | -44.6°C | 1.4% | 13.8hPa | 2.6V | 00:00:00 | 00:00:00 | 00:00:00 | |
| DB0UT-7 | 2026-08-31 06:25:20 | 48.08037 | 12.18946 | 178° | 18km/h | 29175m | 4.2m/s | -44.6°C | 1.4% | 13.8hPa | 2.6V | 00:00:00 | 00:00:00 | 00:00:00 | |
| OE5WHR-10 | 2026-08-31 06:25:19 | 48.08042 | 12.18944 | 150° | 18km/h | 29170m | 5.2m/s | -44.6°C | 1.5% | 13.8hPa | 2.6V | 00:00:00 | 00:00:00 | 00:00:00 | |
| BAUMI2-15 | 2026-08-31 06:25:18 | 48.08045 | 12.18940 | 104° | 22km/h | 29164m | 6.8m/s | -44.6°C | 1.5% | 13.8hPa | 2.6V | 00:00:00 | 02:33:23 | 08:30:00 | |
| OE5MMP-10 | 2026-08-31 06:25:17 | 48.08043 | 12.18934 | 56° | 18km/h | 29157m | 7.2m/s | -44.6°C | 1.5% | 13.9hPa | 2.6V | 00:00:00 | 02:33:22 | 00:00:00 | |
| DO3MHA-11 | 2026-08-31 06:25:14 | 48.08028 | 12.18925 | 345° | 18km/h | 29140m | 5.6m/s | -44.5°C | 1.5% | 13.9hPa | 2.6V | 00:00:00 | 02:33:19 | 00:00:00 | |
| DL1ZP-14 | 2026-08-31 06:25:13 | 48.08027 | 12.18931 | 210° | 16km/h | 29127m | 7.3m/s | -44.8°C | 0.0% | 14.0hPa | 2.6V | 00:00:00 | 00:00:00 | 00:00:00 | |
| DB0NH | 2026-08-31 06:25:12 | 48.08027 | 12.18930 | 211° | 18km/h | 29127m | 7.3m/s | -44.8°C | 1.5% | 13.9hPa | 2.6V | 00:00:00 | 02:33:17 | 08:30:00 | |
| OE5FHM-15 | 2026-08-31 06:25:10 | 48.08038 | 12.18933 | 171° | 22km/h | 29115m | 4.4m/s | -44.7°C | 1.5% | 13.9hPa | 2.5V | 00:00:00 | 02:33:15 | 00:00:00 | |
| DG1MFX-10 | 2026-08-31 06:25:09 | 48.08038 | 12.18933 | 171° | 22km/h | 29115m | 4.4m/s | -44.8°C | -0.3% | 14.0hPa | 2.5V | 00:00:00 | 00:00:00 | 00:00:00 | |
| BAUMI2-15 | 2026-08-31 06:25:08 | 48.08043 | 12.18929 | 49° | 20km/h | 29104m | 7.0m/s | -44.6°C | 1.4% | 14.0hPa | 2.5V | 00:00:00 | 02:33:13 | 00:00:00 | |
| OE5MMP-10 | 2026-08-31 06:25:07 | 48.08039 | 12.18927 | 11° | 20km/h | 29096m | 7.8m/s | -44.7°C | 1.4% | 14.0hPa | 2.5V | 00:00:00 | 02:33:12 | 00:00:00 | |
| DO3MHA-11 | 2026-08-31 06:25:04 | 48.08022 | 12.18935 | 307° | 20km/h | 29078m | 6.1m/s | -45.0°C | 1.5% | 14.1hPa | 2.5V | 00:00:00 | 02:33:09 | 00:00:00 | |
| BAUMI2-15 | 2026-08-31 06:25:03 | 48.08021 | 12.18940 | 251° | 15km/h | 29071m | 6.6m/s | -45.0°C | 1.5% | 14.0hPa | 2.5V | 00:00:00 | 02:33:08 | 00:00:00 | |
| EDDB2-11 | 2026-08-31 06:25:01 | 48.08033 | 12.18941 | 136° | 15km/h | 29054m | 5.1m/s | -45.0°C | 0.0% | 14.1hPa | 2.6V | 00:00:00 | 00:00:00 | 00:00:00 | |
| DL6DJ-15 | 2026-08-31 06:25:00 | 48.08034 | 12.18937 | 72° | 9km/h | 29048m | 6.8m/s | -45.0°C | 0.0% | 14.2hPa | 2.6V | 00:00:00 | 00:00:00 | 00:00:00 | |
| NBG1-10 | 2026-08-31 06:24:59 | 48.08034 | 12.18937 | 73° | 20km/h | 29048m | 6.8m/s | -44.9°C | 1.5% | 14.1hPa | 2.6V | 00:00:00 | 02:33:04 | 00:00:00 | |
| OE5WHR-10 | 2026-08-31 06:24:58 | 48.08031 | 12.18934 | 18° | 22km/h | 29041m | 7.2m/s | -44.9°C | 1.5% | 14.1hPa | 2.6V | 00:00:00 | 02:33:03 | 00:00:00 | |
| OE5MMP-10 | 2026-08-31 06:24:57 | 48.08025 | 12.18933 | 355° | 20km/h | 29034m | 6.4m/s | -45.0°C | 1.5% | 14.1hPa | 2.6V | 00:00:00 | 02:33:02 | 08:30:00 | |
| OE5DXL-15 | 2026-08-31 06:24:56 | 48.08018 | 12.18936 | 335° | 22km/h | 29029m | 4.7m/s | -45.1°C | 1.5% | 14.1hPa | 2.6V | 00:00:00 | 00:00:00 | 00:00:00 | |
| DO3MHA-11 | 2026-08-31 06:24:54 | 48.08010 | 12.18948 | 280° | 22km/h | 29018m | 6.3m/s | -45.3°C | 1.5% | 14.2hPa | 2.6V | 00:00:00 | 02:32:59 | 00:00:00 | |
| DG1MJG | 2026-08-31 06:24:52 | 48.08011 | 12.18952 | 215° | 13km/h | 29011m | 6.8m/s | -45.4°C | 0% | 0hPa | 2.5V | 00:00:00 | 00:00:00 | 00:00:00 | |
| DB0UT-7 | 2026-08-31 06:24:50 | 48.08020 | 12.18947 | 90° | 18km/h | 28994m | 5.8m/s | -45.4°C | 1.6% | 14.2hPa | 2.5V | 00:00:00 | 02:32:55 | 00:00:00 | |
| DG1MFX-10 | 2026-08-31 06:24:48 | 48.08018 | 12.18946 | 6° | 15km/h | 28988m | 7.1m/s | -45.5°C | -0.3% | 14.3hPa | 2.5V | 00:00:00 | 00:00:00 | 00:00:00 | |
| OE5MMP-10 | 2026-08-31 06:24:47 | 48.08006 | 12.18954 | 322° | 24km/h | 28974m | 5.8m/s | -45.5°C | 1.6% | 14.2hPa | 2.5V | 00:00:00 | 02:32:52 | 00:00:00 | |
| DO3MHA-11 | 2026-08-31 06:24:44 | 48.07995 | 12.18982 | 244° | 22km/h | 28958m | 7.0m/s | -45.6°C | 1.6% | 14.3hPa | 2.5V | 00:00:00 | 02:32:49 | 00:00:00 | |
| DB0NH | 2026-08-31 06:24:42 | 48.08003 | 12.18981 | 136° | 24km/h | 28943m | 7.1m/s | -45.7°C | 1.6% | 14.3hPa | 2.5V | 00:00:00 | 02:32:47 | 00:00:00 | |
| OE5REO-15 | 2026-08-31 06:24:39 | 48.08007 | 12.18966 | 77° | 16km/h | 28930m | 5.5m/s | 0°C | 0% | 0hPa | 2.5V | 00:00:00 | 00:00:00 | 00:00:00 | |
| PG1ADW-2 | 2026-08-31 06:24:38 | 48.08000 | 12.18964 | 328° | 18km/h | 28919m | 6.3m/s | -45.7°C | 1.5% | 14.4hPa | 2.5V | 00:00:00 | 00:00:00 | 00:00:00 | |
| SONDE2-11 | 2026-08-31 06:24:36 | 48.07994 | 12.18982 | 273° | 27km/h | 28908m | 4.8m/s | -45.5°C | 0.0% | 14.5hPa | 2.5V | 00:00:00 | 00:00:00 | 00:00:00 | |
| OE5FHM-15 | 2026-08-31 06:24:35 | 48.07995 | 12.18991 | 244° | 22km/h | 28902m | 6.2m/s | -45.4°C | 1.6% | 14.4hPa | 2.5V | 00:00:00 | 02:32:40 | 00:00:00 | |
| DM0DOS-11 | 2026-08-31 06:24:34 | 48.08015 | 12.18984 | 112° | 20km/h | 28875m | 6.2m/s | -45.7°C | 1.6% | 14.5hPa | 2.6V | 08:30:00 | 02:32:36 | 00:00:00 | i |
| DO3MHA-11 | 2026-08-31 06:24:34 | 48.07999 | 12.18997 | 201° | 20km/h | 28895m | 7.2m/s | -45.5°C | 1.6% | 14.4hPa | 2.6V | 00:00:00 | 02:32:39 | 00:00:00 | i |
| DB0ND-19 | 2026-08-31 06:24:32 | 48.08015 | 12.18984 | 112° | 20km/h | 28875m | 6.2m/s | -45.7°C | -1.0% | 14.5hPa | 2.6V | 00:00:00 | 00:00:00 | 00:00:00 | |
| DL6DJ-15 | 2026-08-31 06:24:29 | 48.08010 | 12.18980 | 311° | 18km/h | 28856m | 6.1m/s | -45.9°C | 0.0% | 14.6hPa | 2.6V | 00:00:00 | 00:00:00 | 00:00:00 | |
| DF3TZ-5 | 2026-08-31 06:24:28 | 48.08010 | 12.18980 | 311° | 18km/h | 28856m | 6.1m/s | -45.9°C | 0.0% | 14.6hPa | 2.6V | 00:00:00 | 00:00:00 | 00:00:00 | |
| OE5MMP-10 | 2026-08-31 06:24:27 | 48.08008 | 12.18987 | 282° | 15km/h | 28851m | 4.5m/s | -45.8°C | 1.6% | 14.6hPa | 2.6V | 00:00:00 | 02:32:32 | 00:00:00 | |
| OE5DXL-15 | 2026-08-31 06:24:26 | 48.08008 | 12.18994 | 248° | 20km/h | 28846m | 5.7m/s | -45.9°C | 1.6% | 14.6hPa | 2.6V | 00:00:00 | 00:00:00 | 00:00:00 | |
| DO3MHA-11 | 2026-08-31 06:24:24 | 48.08017 | 12.18998 | 163° | 20km/h | 28832m | 7.6m/s | -45.9°C | 1.6% | 14.6hPa | 2.6V | 00:00:00 | 02:32:29 | 00:00:00 | |
| DG1MJG | 2026-08-31 06:24:22 | 48.08023 | 12.18993 | 143° | 33km/h | 28825m | 6.7m/s | -45.9°C | 0% | 14.6hPa | 2.6V | 00:00:00 | 00:00:00 | 00:00:00 | |
| DB0UT-7 | 2026-08-31 06:24:18 | 48.08030 | 12.18980 | 285° | 20km/h | 28794m | 5.6m/s | -45.7°C | 1.6% | 14.6hPa | 2.6V | 00:00:00 | 00:00:00 | 00:00:00 | |
| OE5MMP-10 | 2026-08-31 06:24:17 | 48.08030 | 12.18988 | 258° | 16km/h | 28790m | 4.8m/s | -45.7°C | 1.6% | 14.7hPa | 2.6V | 00:00:00 | 02:32:22 | 00:00:00 | |
| OE5WHR-10 | 2026-08-31 06:24:16 | 48.08032 | 12.18993 | 219° | 20km/h | 28784m | 6.8m/s | -45.7°C | 1.6% | 14.7hPa | 2.6V | 00:00:00 | 00:00:00 | 00:00:00 | |
| DO3MHA-11 | 2026-08-31 06:24:14 | 48.08041 | 12.18990 | 141° | 20km/h | 28769m | 6.7m/s | -45.7°C | 1.6% | 14.7hPa | 2.6V | 00:00:00 | 02:32:19 | 00:00:00 | |
| DB0NH | 2026-08-31 06:24:12 | 48.08047 | 12.18973 | 102° | 20km/h | 28758m | 5.8m/s | -45.7°C | 1.6% | 14.7hPa | 2.6V | 00:00:00 | 02:32:17 | 00:00:00 | |
| EDDB2-12 | 2026-08-31 06:24:11 | 48.08046 | 12.18968 | 327° | 11km/h | 28744m | 6.8m/s | -45.8°C | 0.0% | 14.8hPa | 2.6V | 00:00:00 | 00:00:00 | 00:00:00 | |
| DG1MFX-10 | 2026-08-31 06:24:08 | 48.08043 | 12.18973 | 298° | 22km/h | 28738m | 6.0m/s | -45.9°C | -0.3% | 14.8hPa | 2.6V | 00:00:00 | 00:00:00 | 00:00:00 | |
| OE5MMP-10 | 2026-08-31 06:24:07 | 48.08043 | 12.18987 | 239° | 20km/h | 28726m | 6.4m/s | -45.9°C | 1.6% | 14.8hPa | 2.6V | 00:00:00 | 02:32:12 | 00:00:00 | |
| DO3MHA-11 | 2026-08-31 06:24:04 | 48.08055 | 12.18981 | 119° | 20km/h | 28707m | 5.0m/s | -45.8°C | 1.5% | 14.9hPa | 2.6V | 00:00:00 | 02:32:09 | 00:00:00 | |
| DL6DJ-15 | 2026-08-31 06:23:58 | 48.08042 | 12.18986 | 230° | 5km/h | 28665m | 6.6m/s | -45.6°C | 0.0% | 15.0hPa | 2.6V | 00:00:00 | 00:00:00 | 00:00:00 | |
| DF3TZ-5 | 2026-08-31 06:23:57 | 48.08042 | 12.18986 | 230° | 5km/h | 28665m | 6.6m/s | -45.6°C | 0.0% | 15.0hPa | 2.6V | 00:00:00 | 00:00:00 | 00:00:00 | |
| OE5DXL-15 | 2026-08-31 06:23:56 | 48.08044 | 12.18984 | 124° | 22km/h | 28658m | 7.5m/s | -45.5°C | 1.6% | 15.0hPa | 2.6V | 00:00:00 | 02:32:01 | 00:00:00 | |
| DO3MHA-11 | 2026-08-31 06:23:54 | 48.08046 | 12.18967 | 88° | 20km/h | 28644m | 5.5m/s | -45.6°C | 1.5% | 15.0hPa | 2.5V | 00:00:00 | 02:31:59 | 08:30:00 | |
| OE5WHR-10 | 2026-08-31 06:23:53 | 48.08045 | 12.18958 | 65° | 26km/h | 28639m | 5.1m/s | -45.6°C | 1.6% | 15.0hPa | 2.6V | 00:00:00 | 02:31:58 | 00:00:00 | |
| PG1ADW-2 | 2026-08-31 06:23:52 | 48.08042 | 12.18953 | 26° | 24km/h | 28633m | 6.8m/s | -45.6°C | 1.5% | 15.0hPa | 2.6V | 00:00:00 | 00:00:00 | 00:00:00 | |
| DB0UT-7 | 2026-08-31 06:23:48 | 48.08029 | 12.18976 | 293° | 22km/h | 28607m | 5.4m/s | -45.8°C | 1.5% | 15.1hPa | 2.6V | 00:00:00 | 02:31:53 | 00:00:00 | |
| DK5PH-5 | 2026-08-31 06:23:47 | 48.08028 | 12.18979 | 1° | 20km/h | 28601m | 6.5m/s | -45.8°C | 1.5% | 15.1hPa | 2.6V | 00:00:00 | 02:31:52 | 00:00:00 | |
| DO3MHA-11 | 2026-08-31 06:23:44 | 48.08021 | 12.18960 | 52° | 24km/h | 28583m | 4.6m/s | -45.8°C | 1.6% | 15.2hPa | 2.6V | 00:00:00 | 02:31:49 | 00:00:00 | |
| DL1ZP-14 | 2026-08-31 06:23:40 | 48.08000 | 12.18976 | 286° | 22km/h | 28552m | 4.1m/s | -46.2°C | 0.0% | 15.3hPa | 2.6V | 00:00:00 | 00:00:00 | 00:00:00 | |
| DB0NH | 2026-08-31 06:23:39 | 48.08000 | 12.18976 | 287° | 18km/h | 28552m | 4.1m/s | -46.2°C | 1.6% | 15.2hPa | 2.6V | 00:00:00 | 02:31:44 | 00:00:00 | |
| NBG1-10 | 2026-08-31 06:23:38 | 48.07999 | 12.18982 | 303° | 24km/h | 28547m | 5.9m/s | -46.2°C | 1.7% | 15.2hPa | 2.6V | 00:00:00 | 02:31:43 | 00:00:00 | |
| BIOWL1-15 | 2026-08-31 06:23:21 | 48.07939 | 12.18994 | 212° | 22km/h | 28433m | 4.6m/s | 0°C | 0% | 0hPa | 2.6V | 18:12:15 | 02:31:25 | 00:00:00 | i |
| PG1ADW-2 | 2026-08-31 06:23:21 | 48.07936 | 12.18988 | 246° | 26km/h | 28439m | 6.7m/s | -46.5°C | 1.7% | 15.5hPa | 2.6V | 00:00:00 | 00:00:00 | 00:00:00 | i |
| DB0UT-7 | 2026-08-31 06:23:18 | 48.07945 | 12.18995 | 98° | 22km/h | 28423m | 6.6m/s | -46.4°C | 1.6% | 15.5hPa | 2.6V | 00:00:00 | 00:00:00 | 00:00:00 | |
| DK5PH-5 | 2026-08-31 06:23:17 | 48.07943 | 12.18991 | 38° | 22km/h | 28416m | 7.2m/s | -46.3°C | 1.6% | 15.5hPa | 2.6V | 00:00:00 | 02:31:22 | 00:00:00 | |
| DO3MHA-11 | 2026-08-31 06:23:14 | 48.07919 | 12.18986 | 343° | 27km/h | 28397m | 6.2m/s | -46.1°C | 1.7% | 15.6hPa | 2.6V | 00:00:00 | 02:31:19 | 00:00:00 | |
| OE5FHM-15 | 2026-08-31 06:23:13 | 48.07912 | 12.18992 | 316° | 26km/h | 28390m | 6.8m/s | -46.2°C | 1.6% | 15.6hPa | 2.6V | 00:00:00 | 02:31:18 | 00:00:00 | |
| OE5WHR-10 | 2026-08-31 06:23:11 | 48.07911 | 12.19008 | 238° | 24km/h | 28377m | 5.6m/s | -46.2°C | 1.7% | 15.7hPa | 2.6V | 00:00:00 | 00:00:00 | 00:00:00 | |
| OE5MMP-10 | 2026-08-31 06:23:07 | 48.07910 | 12.19004 | 25° | 27km/h | 28354m | 7.5m/s | -46.2°C | 1.6% | 15.7hPa | 2.6V | 00:00:00 | 02:31:12 | 00:00:00 | |
| DG1MFX-10 | 2026-08-31 06:23:06 | 48.07910 | 12.19004 | 26° | 31km/h | 28354m | 7.5m/s | -46.2°C | -0.3% | 15.7hPa | 2.6V | 00:00:00 | 00:00:00 | 00:00:00 | |
| DO3MHA-11 | 2026-08-31 06:23:04 | 48.07881 | 12.19006 | 330° | 26km/h | 28335m | 6.1m/s | -46.0°C | 1.6% | 15.8hPa | 2.6V | 00:00:00 | 02:31:09 | 00:00:00 | |
| OE5HKT-10 | 2026-08-31 06:23:03 | 48.07875 | 12.19014 | 302° | 18km/h | 28329m | 6.6m/s | -46.1°C | 1.6% | 15.8hPa | 2.6V | 00:00:00 | 00:00:00 | 00:00:00 | |
| EDDB2-11 | 2026-08-31 06:22:56 | 48.07853 | 12.19027 | 354° | 33km/h | 28281m | 4.9m/s | -46.1°C | 0.0% | 16.0hPa | 2.5V | 00:00:00 | 00:00:00 | 00:00:00 | |
| DF3TZ-5 | 2026-08-31 06:22:55 | 48.07846 | 12.19030 | 333° | 24km/h | 28275m | 6.7m/s | -46.3°C | 0.0% | 15.9hPa | 2.5V | 00:00:00 | 00:00:00 | 00:00:00 | |
| DB0NH | 2026-08-31 06:22:54 | 48.07846 | 12.19030 | 334° | 20km/h | 28275m | 6.7m/s | -46.2°C | 1.6% | 15.9hPa | 2.5V | 00:00:00 | 02:30:59 | 00:00:00 | |
| BAUMI2-15 | 2026-08-31 06:22:52 | 48.07842 | 12.19042 | 252° | 18km/h | 28261m | 6.7m/s | -46.3°C | 1.6% | 15.9hPa | 2.5V | 00:00:00 | 02:30:57 | 00:00:00 | |
| OE5WHR-10 | 2026-08-31 06:22:50 | 48.07847 | 12.19056 | 253° | 22km/h | 28250m | 5.2m/s | -46.2°C | 1.6% | 16.0hPa | 2.5V | 00:00:00 | 02:30:55 | 00:00:00 | |
| DB0UT-7 | 2026-08-31 06:22:48 | 48.07842 | 12.19061 | 357° | 22km/h | 28237m | 7.2m/s | -46.3°C | 1.7% | 16.0hPa | 2.5V | 00:00:00 | 02:30:53 | 08:30:00 | |
| BAUMI2-15 | 2026-08-31 06:22:47 | 48.07834 | 12.19061 | 4° | 26km/h | 28230m | 6.3m/s | -46.4°C | 1.7% | 16.0hPa | 2.6V | 00:00:00 | 02:30:52 | 00:00:00 | |
| DK5PH-5 | 2026-08-31 06:22:46 | 48.07826 | 12.19060 | 360° | 22km/h | 28225m | 4.2m/s | -46.4°C | 1.7% | 16.0hPa | 2.6V | 00:00:00 | 02:30:51 | 00:00:00 | |
| DG1MFX-10 | 2026-08-31 06:22:45 | 48.07826 | 12.19060 | 360° | 37km/h | 28225m | 4.3m/s | -46.4°C | -0.3% | 16.1hPa | 2.6V | 00:00:00 | 00:00:00 | 00:00:00 | |
| DO3MHA-11 | 2026-08-31 06:22:44 | 48.07813 | 12.19064 | 328° | 22km/h | 28214m | 7.2m/s | -46.4°C | 1.7% | 16.0hPa | 2.6V | 00:00:00 | 02:30:49 | 00:00:00 | |
| OE5FHM-15 | 2026-08-31 06:22:42 | 48.07813 | 12.19075 | 232° | 24km/h | 28199m | 6.3m/s | -46.4°C | 1.6% | 16.1hPa | 2.6V | 00:00:00 | 02:30:47 | 00:00:00 | |
| PG1ADW-2 | 2026-08-31 06:22:40 | 48.07819 | 12.19085 | 260° | 22km/h | 28188m | 5.6m/s | -46.4°C | 1.6% | 16.1hPa | 2.6V | 00:00:00 | 02:30:45 | 08:30:00 | |
| EDDB2-12 | 2026-08-31 06:22:38 | 48.07805 | 12.19095 | 343° | 35km/h | 28168m | 5.2m/s | -46.6°C | 0.0% | 16.2hPa | 2.6V | 00:00:00 | 00:00:00 | 00:00:00 | |
| OE5MMP-10 | 2026-08-31 06:22:37 | 48.07805 | 12.19095 | 344° | 24km/h | 28168m | 5.2m/s | -46.5°C | 1.7% | 16.2hPa | 2.6V | 00:00:00 | 02:30:42 | 00:00:00 | |
| OE5DRO-10 | 2026-08-31 06:22:36 | 48.07797 | 12.19100 | 335° | 24km/h | 28163m | 6.1m/s | -46.5°C | 1.7% | 16.2hPa | 2.6V | 00:00:00 | 00:00:00 | 00:00:00 | |
| DO3MHA-11 | 2026-08-31 06:22:34 | 48.07788 | 12.19113 | 283° | 22km/h | 28149m | 7.0m/s | -46.3°C | 1.6% | 16.2hPa | 2.6V | 00:00:00 | 02:30:39 | 00:00:00 | |
| BAUMI2-15 | 2026-08-31 06:22:32 | 48.07790 | 12.19127 | 232° | 18km/h | 28136m | 4.6m/s | -46.4°C | 1.7% | 16.2hPa | 2.6V | 00:00:00 | 02:30:37 | 08:30:00 | |
| OE5WHR-10 | 2026-08-31 06:22:29 | 48.07790 | 12.19140 | 333° | 24km/h | 28118m | 6.6m/s | -46.5°C | 1.7% | 16.3hPa | 2.5V | 00:00:00 | 00:00:00 | 08:30:00 | |
| OE5MMP-10 | 2026-08-31 06:22:27 | 48.07777 | 12.19150 | 323° | 24km/h | 28107m | 3.5m/s | -46.4°C | 1.6% | 16.3hPa | 2.6V | 00:00:00 | 02:30:32 | 00:00:00 | |
| NBG1-10 | 2026-08-31 06:22:26 | 48.07772 | 12.19158 | 306° | 18km/h | 28103m | 6.1m/s | -46.3°C | 1.6% | 16.3hPa | 2.6V | 00:00:00 | 02:30:31 | 00:00:00 | |
| EDDB2-11 | 2026-08-31 06:22:25 | 48.07769 | 12.19168 | 275° | 24km/h | 28096m | 7.2m/s | -46.3°C | 0.0% | 16.4hPa | 2.6V | 00:00:00 | 00:00:00 | 00:00:00 | |
| DO3MHA-11 | 2026-08-31 06:22:24 | 48.07771 | 12.19176 | 240° | 24km/h | 28089m | 6.5m/s | -46.3°C | 1.6% | 16.4hPa | 2.6V | 00:00:00 | 02:30:29 | 08:30:00 | |
| BAUMI2-15 | 2026-08-31 06:22:22 | 48.07779 | 12.19186 | 194° | 20km/h | 28079m | 3.1m/s | -46.3°C | 1.6% | 16.4hPa | 2.6V | 00:00:00 | 02:30:27 | 00:00:00 | |
| DB0UT-7 | 2026-08-31 06:22:18 | 48.07767 | 12.19197 | 324° | 20km/h | 28056m | 6.1m/s | -46.2°C | 1.7% | 16.5hPa | 2.6V | 00:00:00 | 00:00:00 | 00:00:00 | |
| OE5MMP-10 | 2026-08-31 06:22:17 | 48.07761 | 12.19208 | 306° | 24km/h | 28050m | 4.6m/s | -46.3°C | 1.6% | 16.5hPa | 2.6V | 00:00:00 | 02:30:22 | 00:00:00 | |
| DO3MHA-11 | 2026-08-31 06:22:14 | 48.07761 | 12.19234 | 205° | 22km/h | 28033m | 6.9m/s | -46.6°C | 1.7% | 16.5hPa | 2.6V | 00:00:00 | 02:30:19 | 00:00:00 | |
| BAUMI2-15 | 2026-08-31 06:22:12 | 48.07772 | 12.19234 | 166° | 20km/h | 28021m | 4.6m/s | -46.5°C | 1.6% | 16.5hPa | 2.6V | 00:00:00 | 02:30:17 | 00:00:00 | |
| OE5WHR-10 | 2026-08-31 06:22:08 | 48.07767 | 12.19255 | 298° | 20km/h | 27996m | 5.2m/s | -46.5°C | 1.7% | 16.6hPa | 2.6V | 00:00:00 | 00:00:00 | 00:00:00 | |
| EDDB2-12 | 2026-08-31 06:22:07 | 48.07761 | 12.19279 | 276° | 26km/h | 27986m | 6.3m/s | -46.3°C | 0.0% | 16.7hPa | 2.6V | 00:00:00 | 00:00:00 | 00:00:00 | |
| DL1ZP-14 | 2026-08-31 06:22:06 | 48.07761 | 12.19279 | 276° | 26km/h | 27986m | 6.3m/s | -46.3°C | 0.0% | 16.7hPa | 2.6V | 00:00:00 | 00:00:00 | 00:00:00 | |
| DO3MHA-11 | 2026-08-31 06:22:04 | 48.07765 | 12.19289 | 189° | 16km/h | 27972m | 7.1m/s | -46.5°C | 1.7% | 16.7hPa | 2.5V | 00:00:00 | 02:30:09 | 00:00:00 | |
| DG1MFX-10 | 2026-08-31 06:22:03 | 48.07765 | 12.19289 | 190° | 15km/h | 27972m | 7.2m/s | -46.5°C | -0.3% | 16.7hPa | 2.5V | 00:00:00 | 00:00:00 | 00:00:00 | |
| BAUMI2-15 | 2026-08-31 06:22:02 | 48.07771 | 12.19287 | 162° | 20km/h | 27961m | 4.3m/s | -46.6°C | 1.7% | 16.7hPa | 2.5V | 00:00:00 | 02:30:07 | 00:00:00 | |
| SONDE2-11 | 2026-08-31 06:22:01 | 48.07768 | 12.19301 | 294° | 29km/h | 27942m | 6.8m/s | -46.7°C | 0.0% | 16.8hPa | 2.5V | 00:00:00 | 00:00:00 | 00:00:00 | |
| EDDB2-11 | 2026-08-31 06:21:54 | 48.07765 | 12.19330 | 112° | 11km/h | 27912m | 5.6m/s | -46.6°C | 0.0% | 16.9hPa | 2.5V | 00:00:00 | 00:00:00 | 00:00:00 | |
| DF3TZ-5 | 2026-08-31 06:21:53 | 48.07764 | 12.19323 | 26° | 7km/h | 27901m | 6.4m/s | -46.5°C | 0.0% | 16.9hPa | 2.5V | 00:00:00 | 00:00:00 | 00:00:00 | |
| OE5MMP-10 | 2026-08-31 06:21:52 | 48.07764 | 12.19323 | 27° | 18km/h | 27901m | 6.4m/s | -46.5°C | 1.7% | 16.8hPa | 2.5V | 00:00:00 | 02:29:57 | 00:00:00 | |
| DB0UT-7 | 2026-08-31 06:21:48 | 48.07754 | 12.19349 | 272° | 18km/h | 27877m | 4.9m/s | -46.7°C | 1.7% | 16.9hPa | 2.5V | 00:00:00 | 02:29:53 | 00:00:00 | |
| OE5WHR-10 | 2026-08-31 06:21:47 | 48.07755 | 12.19358 | 250° | 18km/h | 27871m | 6.3m/s | -46.7°C | 1.7% | 16.9hPa | 2.5V | 00:00:00 | 02:29:52 | 00:00:00 | |
| DO3MHA-11 | 2026-08-31 06:21:44 | 48.07760 | 12.19357 | 85° | 18km/h | 27854m | 4.4m/s | -46.7°C | 1.7% | 17.0hPa | 2.5V | 00:00:00 | 02:29:49 | 00:00:00 | |
| DG1MFX-10 | 2026-08-31 06:21:43 | 48.07760 | 12.19357 | 85° | 11km/h | 27854m | 4.5m/s | -46.8°C | -0.2% | 17.0hPa | 2.5V | 00:00:00 | 00:00:00 | 00:00:00 | |
| OE5MMP-10 | 2026-08-31 06:21:42 | 48.07756 | 12.19354 | 336° | 24km/h | 27843m | 6.2m/s | -46.9°C | 1.7% | 17.0hPa | 2.5V | 00:00:00 | 02:29:47 | 08:30:00 | |
| OE5DRO-10 | 2026-08-31 06:21:39 | 48.07747 | 12.19381 | 272° | 20km/h | 27824m | 6.1m/s | -46.7°C | 1.7% | 17.1hPa | 2.5V | 00:00:00 | 00:00:00 | 00:00:00 | |
| BAUMI2-15 | 2026-08-31 06:21:37 | 48.07750 | 12.19396 | 212° | 13km/h | 27812m | 5.5m/s | -46.7°C | 1.7% | 17.1hPa | 2.5V | 00:00:00 | 02:29:42 | 00:00:00 | |
| DL1ZP-14 | 2026-08-31 06:21:35 | 48.07754 | 12.19394 | 82° | 9km/h | 27802m | 4.1m/s | -46.7°C | 0.0% | 17.1hPa | 2.5V | 00:00:00 | 00:00:00 | 00:00:00 | |
| DO3MHA-11 | 2026-08-31 06:21:34 | 48.07752 | 12.19391 | 22° | 18km/h | 27797m | 5.1m/s | -46.6°C | 1.7% | 17.1hPa | 2.6V | 00:00:00 | 02:29:39 | 00:00:00 | |
| OE5MMP-10 | 2026-08-31 06:21:32 | 48.07744 | 12.19397 | 315° | 27km/h | 27784m | 6.8m/s | -46.8°C | 1.7% | 17.1hPa | 2.6V | 00:00:00 | 02:29:37 | 00:00:00 | |
| SONDE2-11 | 2026-08-31 06:21:30 | 48.07737 | 12.19418 | 277° | 29km/h | 27772m | 5.5m/s | -47.1°C | 0.0% | 17.2hPa | 2.6V | 00:00:00 | 00:00:00 | 00:00:00 | |
| BAUMI2-15 | 2026-08-31 06:21:27 | 48.07741 | 12.19434 | 154° | 15km/h | 27755m | 5.5m/s | -47.1°C | 1.7% | 17.2hPa | 2.6V | 00:00:00 | 02:29:32 | 00:00:00 | |
| OE5WHR-10 | 2026-08-31 06:21:26 | 48.07742 | 12.19431 | 97° | 18km/h | 27750m | 4.1m/s | -47.1°C | 1.7% | 17.3hPa | 2.6V | 00:00:00 | 00:00:00 | 00:00:00 | |
| DO3MHA-11 | 2026-08-31 06:21:24 | 48.07739 | 12.19430 | 335° | 20km/h | 27740m | 6.9m/s | -47.2°C | 1.7% | 17.3hPa | 2.6V | 00:00:00 | 02:29:29 | 00:00:00 | |
| EDDB2-11 | 2026-08-31 06:21:23 | 48.07734 | 12.19435 | 310° | 29km/h | 27733m | 7.6m/s | -47.3°C | 0.0% | 17.3hPa | 2.6V | 00:00:00 | 00:00:00 | 00:00:00 | |
| DF3TZ-5 | 2026-08-31 06:21:22 | 48.07727 | 12.19460 | 278° | 37km/h | 27720m | 4.2m/s | -47.0°C | 0.0% | 17.4hPa | 2.6V | 00:00:00 | 00:00:00 | 00:00:00 | |
| DK5PH-5 | 2026-08-31 06:21:21 | 48.07727 | 12.19460 | 279° | 15km/h | 27721m | 4.2m/s | -46.9°C | 1.7% | 17.3hPa | 2.6V | 00:00:00 | 02:29:26 | 00:00:00 | |
| OE5DRO-10 | 2026-08-31 06:21:20 | 48.07727 | 12.19471 | 265° | 18km/h | 27715m | 6.0m/s | -46.8°C | 1.7% | 17.4hPa | 2.6V | 00:00:00 | 00:00:00 | 00:00:00 | |
| DB0UT-7 | 2026-08-31 06:21:18 | 48.07731 | 12.19481 | 172° | 18km/h | 27702m | 7.0m/s | -46.9°C | 1.7% | 17.4hPa | 2.6V | 00:00:00 | 00:00:00 | 00:00:00 | |
| BAUMI2-15 | 2026-08-31 06:21:17 | 48.07733 | 12.19479 | 124° | 16km/h | 27696m | 5.4m/s | -46.9°C | 1.7% | 17.4hPa | 2.5V | 00:00:00 | 02:29:22 | 00:00:00 | |
| NBG1-10 | 2026-08-31 06:21:16 | 48.07734 | 12.19475 | 83° | 18km/h | 27690m | 5.0m/s | -46.9°C | 1.7% | 17.4hPa | 2.5V | 00:00:00 | 02:29:21 | 00:00:00 | |
| DO3MHA-11 | 2026-08-31 06:21:14 | 48.07731 | 12.19479 | 299° | 18km/h | 27678m | 6.2m/s | -47.0°C | 1.7% | 17.4hPa | 2.6V | 00:00:00 | 02:29:19 | 00:00:00 | |
| OE5MMP-10 | 2026-08-31 06:21:12 | 48.07727 | 12.19501 | 276° | 20km/h | 27666m | 5.2m/s | -47.1°C | 1.7% | 17.4hPa | 2.6V | 00:00:00 | 02:29:17 | 00:00:00 | |
| BAUMI2-15 | 2026-08-31 06:21:07 | 48.07731 | 12.19524 | 80° | 16km/h | 27637m | 5.8m/s | -47.0°C | 1.7% | 17.6hPa | 2.6V | 00:00:00 | 02:29:12 | 00:00:00 | |
| EDDB2-12 | 2026-08-31 06:21:05 | 48.07730 | 12.19531 | 266° | 24km/h | 27619m | 5.8m/s | -47.3°C | 0.0% | 17.6hPa | 2.6V | 00:00:00 | 00:00:00 | 00:00:00 | |
| DO3MHA-11 | 2026-08-31 06:21:04 | 48.07730 | 12.19531 | 267° | 20km/h | 27619m | 5.8m/s | -47.2°C | 1.7% | 17.6hPa | 2.6V | 00:00:00 | 02:29:09 | 00:00:00 | |
| BAUMI2-15 | 2026-08-31 06:21:02 | 48.07734 | 12.19553 | 241° | 18km/h | 27609m | 5.4m/s | -47.2°C | 1.7% | 17.6hPa | 2.6V | 00:00:00 | 02:29:07 | 08:30:00 | |
| SONDE2-11 | 2026-08-31 06:20:59 | 48.07744 | 12.19565 | 135° | 7km/h | 27590m | 5.9m/s | -47.3°C | 0.0% | 17.7hPa | 2.6V | 00:00:00 | 00:00:00 | 00:00:00 | |
| EDDB2-11 | 2026-08-31 06:20:52 | 48.07742 | 12.19598 | 229° | 22km/h | 27552m | 5.6m/s | -47.3°C | 0.0% | 17.8hPa | 2.6V | 00:00:00 | 00:00:00 | 00:00:00 | |
| DF3TZ-5 | 2026-08-31 06:20:51 | 48.07748 | 12.19601 | 130° | 11km/h | 27540m | 6.2m/s | -47.3°C | 0.0% | 17.9hPa | 2.6V | 00:00:00 | 00:00:00 | 00:00:00 | |
| OE5MMP-10 | 2026-08-31 06:20:47 | 48.07745 | 12.19596 | 314° | 22km/h | 27524m | 6.3m/s | -47.4°C | 1.7% | 17.9hPa | 2.6V | 00:00:00 | 02:28:52 | 00:00:00 | |
| OE5WHR-10 | 2026-08-31 06:20:44 | 48.07745 | 12.19625 | 249° | 20km/h | 27506m | 5.6m/s | -47.3°C | 1.7% | 17.9hPa | 2.6V | 00:00:00 | 02:28:49 | 00:00:00 | |
| OE5FHM-15 | 2026-08-31 06:20:42 | 48.07753 | 12.19641 | 212° | 20km/h | 27494m | 6.1m/s | -47.3°C | 1.8% | 18.0hPa | 2.6V | 00:00:00 | 02:28:47 | 00:00:00 | |
| NBG1-10 | 2026-08-31 06:20:40 | 48.07759 | 12.19642 | 132° | 18km/h | 27483m | 4.5m/s | -47.4°C | 1.7% | 18.0hPa | 2.5V | 00:00:00 | 02:28:45 | 00:00:00 | |
| OE5MMP-10 | 2026-08-31 06:20:37 | 48.07758 | 12.19650 | 279° | 22km/h | 27466m | 6.6m/s | -47.4°C | 1.7% | 18.0hPa | 2.5V | 00:00:00 | 02:28:42 | 00:00:00 | |
| DO3MHA-11 | 2026-08-31 06:20:34 | 48.07764 | 12.19684 | 233° | 20km/h | 27449m | 6.0m/s | -47.5°C | 1.8% | 18.1hPa | 2.6V | 00:00:00 | 02:28:39 | 00:00:00 | |
| DL1ZP-14 | 2026-08-31 06:20:33 | 48.07769 | 12.19690 | 205° | 22km/h | 27442m | 6.8m/s | -47.6°C | 0.0% | 18.1hPa | 2.6V | 00:00:00 | 00:00:00 | 00:00:00 | |
| SONDE2-11 | 2026-08-31 06:20:28 | 48.07783 | 12.19695 | 265° | 20km/h | 27413m | 6.0m/s | -47.7°C | 0.0% | 18.2hPa | 2.5V | 00:00:00 | 00:00:00 | 00:00:00 | |
| OE5MMP-10 | 2026-08-31 06:20:27 | 48.07784 | 12.19704 | 264° | 18km/h | 27408m | 5.0m/s | -47.6°C | 1.8% | 18.2hPa | 2.5V | 00:00:00 | 02:28:32 | 00:00:00 | |
| OE5DXL-15 | 2026-08-31 06:20:26 | 48.07785 | 12.19715 | 252° | 16km/h | 27403m | 4.2m/s | -47.6°C | 1.8% | 18.2hPa | 2.5V | 00:00:00 | 00:00:00 | 00:00:00 | |
| DO3MHA-11 | 2026-08-31 06:20:24 | 48.07792 | 12.19728 | 204° | 16km/h | 27392m | 6.6m/s | -47.4°C | 1.8% | 18.2hPa | 2.5V | 00:00:00 | 02:28:29 | 00:00:00 | |
| BIOWL1-15 | 2026-08-31 06:20:06 | 48.07814 | 12.19763 | 189° | 13km/h | 27291m | 6.3m/s | 0°C | 0% | 0hPa | 2.5V | 18:12:15 | 02:28:11 | 00:00:00 | i |
| BIOWL1-15 | 2026-08-31 06:19:54 | 48.07812 | 12.19745 | 75° | 22km/h | 27222m | 4.5m/s | 0°C | 0% | 0hPa | 2.6V | 18:12:15 | 02:27:59 | 00:00:00 | i |
| DF7PN | 2026-08-31 06:19:53 | 48.07808 | 12.19736 | 10° | 4km/h | 27211m | 6.6m/s | -47.8°C | 0.0% | 18.8hPa | 2.5V | 00:00:00 | 00:00:00 | 00:00:00 | |
| EDDB2-11 | 2026-08-31 06:19:50 | 48.07809 | 12.19743 | 247° | 18km/h | 27199m | 5.0m/s | -47.9°C | 0.0% | 18.8hPa | 2.5V | 00:00:00 | 00:00:00 | 00:00:00 | |
| DL6DJ-15 | 2026-08-31 06:19:49 | 48.07812 | 12.19749 | 227° | 16km/h | 27195m | 4.2m/s | -47.9°C | 0.0% | 18.8hPa | 2.5V | 00:00:00 | 00:00:00 | 00:00:00 | |
| DF3TZ-5 | 2026-08-31 06:19:48 | 48.07814 | 12.19752 | 190° | 7km/h | 27190m | 5.5m/s | -47.9°C | 0.0% | 18.9hPa | 2.5V | 00:00:00 | 00:00:00 | 00:00:00 | |
| OE5DRO-10 | 2026-08-31 06:19:45 | 48.07813 | 12.19735 | 62° | 18km/h | 27171m | 4.9m/s | -47.9°C | 1.8% | 18.9hPa | 2.5V | 00:00:00 | 00:00:00 | 00:00:00 | |
| DO3MHA-11 | 2026-08-31 06:19:44 | 48.07809 | 12.19727 | 50° | 16km/h | 27166m | 5.4m/s | -47.9°C | 1.8% | 18.9hPa | 2.5V | 00:00:00 | 02:27:49 | 00:00:00 | |
| OE5FHM-15 | 2026-08-31 06:19:42 | 48.07805 | 12.19722 | 272° | 15km/h | 27153m | 6.2m/s | -48.0°C | 1.8% | 18.9hPa | 2.5V | 00:00:00 | 02:27:47 | 00:00:00 | |
| OE5WHR-10 | 2026-08-31 06:19:41 | 48.07806 | 12.19725 | 233° | 16km/h | 27147m | 5.8m/s | -48.1°C | 1.9% | 18.9hPa | 2.5V | 00:00:00 | 02:27:46 | 00:00:00 | |
| DG1MFX-10 | 2026-08-31 06:19:40 | 48.07806 | 12.19725 | 234° | 15km/h | 27147m | 5.8m/s | -48.1°C | -0.2% | 19.0hPa | 2.5V | 00:00:00 | 00:00:00 | 00:00:00 | |
| OE9MKV-15 | 2026-08-31 06:19:38 | 48.07815 | 12.19728 | 113° | 15km/h | 27131m | 6.4m/s | 0°C | 0% | 0hPa | 2.5V | 00:00:00 | 02:27:43 | 00:00:00 | |
| OE5MMP-10 | 2026-08-31 06:19:34 | 48.07802 | 12.19703 | 12° | 15km/h | 27109m | 6.0m/s | -48.2°C | 1.8% | 19.0hPa | 2.5V | 00:00:00 | 02:27:39 | 00:00:00 | |
| DL1ZP-14 | 2026-08-31 06:19:31 | 48.07801 | 12.19715 | 185° | 9km/h | 27086m | 5.3m/s | -48.0°C | 0.0% | 19.2hPa | 2.6V | 00:00:00 | 00:00:00 | 00:00:00 | |
| DB0UT-7 | 2026-08-31 06:19:30 | 48.07801 | 12.19715 | 186° | 15km/h | 27086m | 5.2m/s | -48.0°C | 1.8% | 19.2hPa | 2.6V | 00:00:00 | 02:27:35 | 00:00:00 | |
| DM0DOS-11 | 2026-08-31 06:19:28 | 48.07785 | 12.19686 | 277° | 9km/h | 27043m | 6.2m/s | -48.1°C | 1.8% | 19.3hPa | 2.6V | 08:30:00 | 02:27:28 | 00:00:00 | i |
| OE5DRO-10 | 2026-08-31 06:19:26 | 48.07796 | 12.19690 | 41° | 18km/h | 27062m | 5.0m/s | -48.1°C | 1.8% | 19.2hPa | 2.5V | 00:00:00 | 00:00:00 | 00:00:00 | |
| OE5MMP-10 | 2026-08-31 06:19:24 | 48.07787 | 12.19684 | 350° | 16km/h | 27050m | 6.4m/s | -48.1°C | 1.8% | 19.2hPa | 2.5V | 00:00:00 | 02:27:29 | 00:00:00 | |
| DF7PN | 2026-08-31 06:19:22 | 48.07786 | 12.19690 | 225° | 11km/h | 27038m | 5.2m/s | -48.1°C | 0.0% | 19.3hPa | 2.5V | 00:00:00 | 00:00:00 | 00:00:00 | |
| OE5WHR-10 | 2026-08-31 06:19:21 | 48.07791 | 12.19690 | 119° | 18km/h | 27027m | 6.0m/s | -48.0°C | 1.7% | 19.3hPa | 2.5V | 00:00:00 | 00:00:00 | 08:30:00 | |
| EDDB2-11 | 2026-08-31 06:19:19 | 48.07788 | 12.19676 | 54° | 26km/h | 27015m | 6.0m/s | -48.1°C | 0.0% | 19.4hPa | 2.6V | 00:00:00 | 00:00:00 | 00:00:00 | |
| DM0DOS-11 | 2026-08-31 06:19:18 | 48.07769 | 12.19671 | 269° | 7km/h | 26985m | 5m/s | -48.4°C | 1.8% | 19.5hPa | 2.6V | 08:30:00 | 02:27:18 | 00:00:00 | i |
| DL6DJ-15 | 2026-08-31 06:19:18 | 48.07788 | 12.19676 | 54° | 26km/h | 27015m | 6.0m/s | -48.1°C | 0.0% | 19.4hPa | 2.6V | 00:00:00 | 00:00:00 | 00:00:00 | i |
| DF3TZ-5 | 2026-08-31 06:19:17 | 48.07783 | 12.19669 | 33° | 27km/h | 27009m | 5.6m/s | -48.1°C | 0.0% | -1.0hPa | 2.6V | 00:00:00 | 00:00:00 | 00:00:00 | |
| DO3MHA-11 | 2026-08-31 06:19:14 | 48.07770 | 12.19668 | 306° | 16km/h | 26991m | 5.5m/s | -48.3°C | 1.8% | 19.4hPa | 2.6V | 00:00:00 | 02:27:19 | 00:00:00 | |
| OE5FHM-15 | 2026-08-31 06:19:12 | 48.07769 | 12.19672 | 129° | 24km/h | 26980m | 5.3m/s | -48.4°C | 1.8% | 19.4hPa | 2.6V | 00:00:00 | 02:27:17 | 00:00:00 | |
| OE5GOL-10 | 2026-08-31 06:19:11 | 48.07769 | 12.19670 | 69° | 20km/h | 26974m | 6.7m/s | -48.4°C | 1.8% | 19.4hPa | 2.6V | 00:00:00 | 02:27:16 | 00:00:00 | |
| DM0DOS-11 | 2026-08-31 06:19:08 | 48.07743 | 12.19669 | 279° | 9km/h | 26928m | 4.7m/s | -48.5°C | 1.9% | 19.7hPa | 2.6V | 08:30:00 | 02:27:08 | 00:00:00 | i |
| OE5DRO-10 | 2026-08-31 06:19:07 | 48.07751 | 12.19650 | 2° | 22km/h | 26952m | 6.3m/s | -48.4°C | 1.8% | 19.5hPa | 2.5V | 00:00:00 | 00:00:00 | 08:30:00 | |
| DO3MHA-11 | 2026-08-31 06:19:04 | 48.07743 | 12.19664 | 269° | 24km/h | 26933m | 4.0m/s | -48.5°C | 1.9% | 19.6hPa | 2.6V | 00:00:00 | 02:27:09 | 00:00:00 | |
| DL1ZP-14 | 2026-08-31 06:19:00 | 48.07723 | 12.19660 | 10° | 35km/h | 26905m | 4.6m/s | -48.7°C | 0.0% | 19.7hPa | 2.6V | 00:00:00 | 00:00:00 | 00:00:00 | |
| SONDE2-11 | 2026-08-31 06:18:55 | 48.07704 | 12.19686 | 268° | 13km/h | 26875m | 5.2m/s | -48.7°C | 0.0% | 19.8hPa | 2.6V | 00:00:00 | 00:00:00 | 00:00:00 | |
| DB0ND-19 | 2026-08-31 06:18:51 | 48.07691 | 12.19679 | 23° | 27km/h | 26851m | 4.1m/s | -48.7°C | -1.0% | 19.9hPa | 2.6V | 00:00:00 | 00:00:00 | 00:00:00 | |
| OE5DRO-10 | 2026-08-31 06:18:48 | 48.07679 | 12.19677 | 333° | 15km/h | 26840m | 6.7m/s | -48.7°C | 1.9% | 19.8hPa | 2.6V | 00:00:00 | 00:00:00 | 00:00:00 | |
| BAUMI2-15 | 2026-08-31 06:18:47 | 48.07676 | 12.19682 | 293° | 13km/h | 26834m | 7.0m/s | -48.8°C | 1.9% | 19.9hPa | 2.6V | 00:00:00 | 02:26:52 | 00:00:00 | |
| DB0NH | 2026-08-31 06:18:46 | 48.07676 | 12.19689 | 265° | 13km/h | 26827m | 5.8m/s | -48.9°C | 1.9% | 19.9hPa | 2.6V | 00:00:00 | 02:26:51 | 00:00:00 | |
| OE5MMP-10 | 2026-08-31 06:18:44 | 48.07677 | 12.19698 | 249° | 11km/h | 26815m | 6.7m/s | -48.9°C | 1.9% | 19.9hPa | 2.6V | 00:00:00 | 02:26:49 | 00:00:00 | |
| DK5PH-5 | 2026-08-31 06:18:43 | 48.07677 | 12.19697 | 55° | 16km/h | 26809m | 6.2m/s | -49.0°C | 1.9% | 20.0hPa | 2.6V | 00:00:00 | 02:26:48 | 00:00:00 | |
| BAUMI2-15 | 2026-08-31 06:18:42 | 48.07674 | 12.19692 | 49° | 16km/h | 26803m | 6.0m/s | -48.9°C | 1.9% | 19.9hPa | 2.6V | 00:00:00 | 02:26:47 | 00:00:00 | |
| OE5GOL-10 | 2026-08-31 06:18:41 | 48.07670 | 12.19688 | 34° | 15km/h | 26796m | 5.6m/s | -48.9°C | 1.9% | 20.0hPa | 2.6V | 00:00:00 | 02:26:46 | 00:00:00 | |
| OM5KV | 2026-08-31 06:18:40 | 48.07666 | 12.19684 | 17° | 18km/h | 26790m | 6.2m/s | -48.9°C | 0% | 20.1hPa | 2.6V | 00:00:00 | 00:00:00 | 00:00:00 | |
| OE5WHR-10 | 2026-08-31 06:18:38 | 48.07660 | 12.19685 | 297° | 15km/h | 26778m | 5.8m/s | -49.0°C | 1.9% | 20.1hPa | 2.6V | 00:00:00 | 02:26:43 | 00:00:00 | |
| DO3MHA-11 | 2026-08-31 06:18:34 | 48.07663 | 12.19682 | 84° | 15km/h | 26753m | 5.9m/s | -49.0°C | 1.9% | 20.1hPa | 2.6V | 00:00:00 | 02:26:39 | 00:00:00 | |
| PG1ADW-2 | 2026-08-31 06:18:33 | 48.07662 | 12.19675 | 66° | 16km/h | 26748m | 4.5m/s | -49.0°C | 1.9% | 20.1hPa | 2.6V | 00:00:00 | 02:26:38 | 00:00:00 | |
| DM0DOS-11 | 2026-08-31 06:18:32 | 48.07655 | 12.19688 | 248° | 11km/h | 26713m | 5.7m/s | -49.2°C | 1.9% | 20.3hPa | 2.6V | 08:30:00 | 02:26:32 | 00:00:00 | i |
| BAUMI2-15 | 2026-08-31 06:18:32 | 48.07659 | 12.19669 | 42° | 16km/h | 26744m | 3.7m/s | -49.0°C | 1.9% | 20.2hPa | 2.6V | 00:00:00 | 02:26:37 | 00:00:00 | i |
| DB0UT-7 | 2026-08-31 06:18:30 | 48.07655 | 12.19669 | 299° | 16km/h | 26732m | 7.4m/s | -49.1°C | 1.9% | 20.2hPa | 2.5V | 00:00:00 | 02:26:35 | 00:00:00 | |
| OE5DRO-10 | 2026-08-31 06:18:29 | 48.07654 | 12.19675 | 273° | 16km/h | 26725m | 6.7m/s | -49.2°C | 1.9% | 20.2hPa | 2.5V | 00:00:00 | 00:00:00 | 00:00:00 | |
| NBG1-10 | 2026-08-31 06:18:28 | 48.07654 | 12.19682 | 256° | 15km/h | 26718m | 5.1m/s | -49.2°C | 1.9% | 20.2hPa | 2.5V | 00:00:00 | 02:26:33 | 00:00:00 | |
| BAUMI2-15 | 2026-08-31 06:18:27 | 48.07655 | 12.19688 | 249° | 13km/h | 26713m | 5.6m/s | -49.2°C | 1.9% | 20.3hPa | 2.5V | 00:00:00 | 02:26:32 | 00:00:00 | |
| OE5DXL-15 | 2026-08-31 06:18:26 | 48.07656 | 12.19689 | 359° | 16km/h | 26707m | 6.9m/s | -49.2°C | 1.9% | 20.3hPa | 2.5V | 00:00:00 | 00:00:00 | 00:00:00 | |
| DO3MHA-11 | 2026-08-31 06:18:24 | 48.07651 | 12.19683 | 41° | 18km/h | 26695m | 4.3m/s | -49.4°C | 1.9% | 20.3hPa | 2.5V | 00:00:00 | 02:26:29 | 00:00:00 | |
| DG1MJG | 2026-08-31 06:18:23 | 48.07651 | 12.19683 | 41° | 20km/h | 26695m | 4.4m/s | -49.4°C | 0% | 20.4hPa | 2.5V | 00:00:00 | 00:00:00 | 00:00:00 | |
| BAUMI2-15 | 2026-08-31 06:18:22 | 48.07642 | 12.19679 | 348° | 22km/h | 26684m | 6.7m/s | -49.5°C | 1.9% | 20.3hPa | 2.5V | 00:00:00 | 02:26:27 | 00:00:00 | |
| DB0ND-19 | 2026-08-31 06:18:20 | 48.07642 | 12.19710 | 198° | 9km/h | 26653m | 7.1m/s | -49.6°C | -1.0% | 20.5hPa | 2.5V | 00:00:00 | 00:00:00 | 00:00:00 | |
| BAUMI2-15 | 2026-08-31 06:18:17 | 48.07642 | 12.19710 | 199° | 13km/h | 26653m | 7.0m/s | -49.5°C | 2.0% | 20.4hPa | 2.5V | 00:00:00 | 02:26:22 | 08:30:00 | |
| DB0NH | 2026-08-31 06:18:16 | 48.07644 | 12.19709 | 109° | 16km/h | 26647m | 5.7m/s | -49.7°C | 2.0% | 20.5hPa | 2.6V | 00:00:00 | 02:26:21 | 00:00:00 | |
| DO3MHA-11 | 2026-08-31 06:18:14 | 48.07640 | 12.19704 | 359° | 18km/h | 26636m | 5.2m/s | -49.9°C | 2.0% | 20.5hPa | 2.5V | 00:00:00 | 02:26:19 | 00:00:00 | |
| PG1ADW-2 | 2026-08-31 06:18:13 | 48.07637 | 12.19707 | 320° | 16km/h | 26630m | 6.8m/s | -49.9°C | 2.0% | 20.5hPa | 2.5V | 00:00:00 | 00:00:00 | 00:00:00 | |
| BAUMI2-15 | 2026-08-31 06:18:12 | 48.07634 | 12.19714 | 290° | 24km/h | 26623m | 6.3m/s | -49.8°C | 2.0% | 20.6hPa | 2.5V | 00:00:00 | 02:26:17 | 00:00:00 | |
| OE5GOL-10 | 2026-08-31 06:18:11 | 48.07633 | 12.19724 | 265° | 15km/h | 26618m | 5.1m/s | -49.7°C | 2.0% | 20.6hPa | 2.5V | 00:00:00 | 02:26:16 | 00:00:00 | |
| DM0DOS-11 | 2026-08-31 06:18:10 | 48.07645 | 12.19738 | 12° | 7km/h | 26582m | 6.2m/s | -49.8°C | 2% | 20.8hPa | 2.5V | 08:30:00 | 02:26:10 | 00:00:00 | i |
| OE5HKT-10 | 2026-08-31 06:18:10 | 48.07635 | 12.19735 | 245° | 18km/h | 26612m | 5.1m/s | -49.6°C | 2.0% | 20.6hPa | 2.6V | 00:00:00 | 02:26:15 | 00:00:00 | i |
| BAUMI2-15 | 2026-08-31 06:18:07 | 48.07645 | 12.19744 | 130° | 13km/h | 26593m | 6.5m/s | -49.7°C | 2.0% | 20.7hPa | 2.6V | 00:00:00 | 02:26:12 | 00:00:00 | |
| DO3MHA-11 | 2026-08-31 06:18:04 | 48.07643 | 12.19740 | 307° | 15km/h | 26575m | 7.0m/s | -49.6°C | 2.0% | 20.7hPa | 2.6V | 00:00:00 | 02:26:09 | 00:00:00 | |
| SP3BTT-10 | 2026-08-31 06:18:03 | 48.07641 | 12.19746 | 283° | 22km/h | 26569m | 6.3m/s | 0°C | 0% | 0hPa | 2.6V | 00:00:00 | 00:00:00 | 00:00:00 | |
| BAUMI2-15 | 2026-08-31 06:18:02 | 48.07640 | 12.19755 | 270° | 16km/h | 26563m | 5.3m/s | -49.5°C | 2.0% | 20.7hPa | 2.6V | 00:00:00 | 02:26:07 | 00:00:00 | |
| DL1ZP-14 | 2026-08-31 06:17:58 | 48.07646 | 12.19775 | 120° | 7km/h | 26538m | 6.1m/s | -49.7°C | 0.0% | 20.9hPa | 2.5V | 00:00:00 | 00:00:00 | 00:00:00 | |
| DB0ND-19 | 2026-08-31 06:17:49 | 48.07659 | 12.19796 | 117° | 7km/h | 26480m | 5.8m/s | -49.6°C | -1.0% | 21.1hPa | 2.6V | 00:00:00 | 00:00:00 | 00:00:00 | |
| DM0DOS-11 | 2026-08-31 06:17:48 | 48.07654 | 12.19812 | 245° | 13km/h | 26451m | 6.4m/s | -49.2°C | 1.9% | 21.2hPa | 2.6V | 08:30:00 | 02:25:48 | 00:00:00 | i |
| EDDB2-11 | 2026-08-31 06:17:46 | 48.07655 | 12.19800 | 302° | 16km/h | 26460m | 5.4m/s | -49.4°C | 0.0% | 21.2hPa | 2.5V | 00:00:00 | 00:00:00 | 00:00:00 | |
| DL6DJ-15 | 2026-08-31 06:17:45 | 48.07655 | 12.19800 | 302° | 16km/h | 26460m | 5.4m/s | -49.4°C | 0.0% | 21.2hPa | 2.5V | 00:00:00 | 00:00:00 | 00:00:00 | |
| OE5MMP-10 | 2026-08-31 06:17:44 | 48.07654 | 12.19806 | 277° | 16km/h | 26456m | 3.7m/s | -49.2°C | 1.9% | 21.1hPa | 2.5V | 00:00:00 | 02:25:49 | 00:00:00 | |
| BAUMI2-15 | 2026-08-31 06:17:42 | 48.07656 | 12.19814 | 192° | 15km/h | 26444m | 7.1m/s | -49.2°C | 1.9% | 21.2hPa | 2.5V | 00:00:00 | 02:25:47 | 00:00:00 | |
| OE5GOL-10 | 2026-08-31 06:17:41 | 48.07660 | 12.19814 | 166° | 16km/h | 26437m | 6.5m/s | -49.3°C | 1.9% | 21.2hPa | 2.5V | 00:00:00 | 02:25:46 | 00:00:00 | |
| DK5PH-5 | 2026-08-31 06:17:40 | 48.07665 | 12.19811 | 155° | 16km/h | 26432m | 4.7m/s | -49.3°C | 1.9% | 21.2hPa | 2.5V | 00:00:00 | 02:25:45 | 00:00:00 | |
| DM0DOS-11 | 2026-08-31 06:17:38 | 48.07668 | 12.19835 | 168° | 7km/h | 26390m | 6.8m/s | -49.4°C | 1.9% | 21.3hPa | 2.5V | 08:30:00 | 02:25:38 | 00:00:00 | i |
| BAUMI2-15 | 2026-08-31 06:17:37 | 48.07671 | 12.19813 | 287° | 16km/h | 26413m | 6.6m/s | -49.4°C | 2.0% | 21.3hPa | 2.5V | 00:00:00 | 02:25:42 | 00:00:00 | |
| OM5KV | 2026-08-31 06:17:36 | 48.07671 | 12.19813 | 288° | 16km/h | 26413m | 6.7m/s | -49.4°C | 0% | 21.3hPa | 2.5V | 00:00:00 | 00:00:00 | 00:00:00 | |
| OE5WHR-10 | 2026-08-31 06:17:35 | 48.07667 | 12.19828 | 286° | 15km/h | 26402m | 5.2m/s | -49.3°C | 2.0% | 21.3hPa | 2.5V | 00:00:00 | 02:25:40 | 00:00:00 | |
| DO3MHA-11 | 2026-08-31 06:17:34 | 48.07667 | 12.19834 | 267° | 15km/h | 26397m | 6.4m/s | -49.3°C | 2.0% | 21.3hPa | 2.5V | 00:00:00 | 02:25:39 | 00:00:00 | |
| PG1ADW-2 | 2026-08-31 06:17:33 | 48.07668 | 12.19835 | 169° | 15km/h | 26390m | 6.8m/s | -49.4°C | 1.9% | 21.3hPa | 2.5V | 00:00:00 | 00:00:00 | 00:00:00 | |
| BAUMI2-15 | 2026-08-31 06:17:32 | 48.07670 | 12.19833 | 142° | 15km/h | 26383m | 6.9m/s | -49.4°C | 2.0% | 21.3hPa | 2.5V | 00:00:00 | 02:25:37 | 08:30:00 | |
| SP3BTT-10 | 2026-08-31 06:17:31 | 48.07674 | 12.19828 | 134° | 16km/h | 26377m | 5.2m/s | 0°C | 0% | 0hPa | 2.6V | 00:00:00 | 00:00:00 | 00:00:00 | |
| DB0UT-7 | 2026-08-31 06:17:30 | 48.07677 | 12.19823 | 131° | 16km/h | 26371m | 5.9m/s | -49.5°C | 1.9% | 21.4hPa | 2.6V | 00:00:00 | 02:25:35 | 00:00:00 | |
| OE5HKT-10 | 2026-08-31 06:17:27 | 48.07681 | 12.19828 | 263° | 15km/h | 26353m | 5.4m/s | -49.4°C | 2.0% | 21.5hPa | 2.6V | 00:00:00 | 00:00:00 | 00:00:00 | |
| OE5DXL-15 | 2026-08-31 06:17:26 | 48.07682 | 12.19835 | 253° | 16km/h | 26348m | 4.1m/s | -49.3°C | 1.9% | 21.5hPa | 2.6V | 00:00:00 | 00:00:00 | 00:00:00 | |
| OE5MMP-10 | 2026-08-31 06:17:24 | 48.07687 | 12.19845 | 197° | 15km/h | 26337m | 7.2m/s | -49.4°C | 1.9% | 21.5hPa | 2.6V | 00:00:00 | 02:25:29 | 00:00:00 | |
| SONDE2-11 | 2026-08-31 06:17:22 | 48.07694 | 12.19832 | 91° | 15km/h | 26319m | 5.4m/s | -49.4°C | 0.0% | 21.6hPa | 2.6V | 00:00:00 | 00:00:00 | 00:00:00 | |
| NBG1-10 | 2026-08-31 06:17:18 | 48.07690 | 12.19830 | 292° | 13km/h | 26300m | 5.5m/s | -49.3°C | 2.0% | 21.6hPa | 2.6V | 00:00:00 | 02:25:23 | 00:00:00 | |
| BAUMI2-15 | 2026-08-31 06:17:17 | 48.07690 | 12.19836 | 262° | 18km/h | 26294m | 4.7m/s | -49.4°C | 1.9% | 21.7hPa | 2.6V | 00:00:00 | 02:25:22 | 00:00:00 | |
| DB0NH | 2026-08-31 06:17:16 | 48.07691 | 12.19841 | 228° | 15km/h | 26289m | 6.4m/s | -49.5°C | 2.0% | 21.7hPa | 2.6V | 00:00:00 | 02:25:21 | 00:00:00 | |
| EDDB2-11 | 2026-08-31 06:17:15 | 48.07697 | 12.19839 | 131° | 20km/h | 26276m | 5.8m/s | -49.4°C | 0.0% | 21.8hPa | 2.6V | 00:00:00 | 00:00:00 | 00:00:00 | |
| DL6DJ-15 | 2026-08-31 06:17:14 | 48.07700 | 12.19831 | 102° | 22km/h | 26270m | 5.1m/s | -49.4°C | 0.0% | 21.7hPa | 2.6V | 00:00:00 | 00:00:00 | 00:00:00 | |
| PG1ADW-2 | 2026-08-31 06:17:13 | 48.07700 | 12.19831 | 103° | 16km/h | 26271m | 5.0m/s | -49.4°C | 1.9% | 21.7hPa | 2.6V | 00:00:00 | 02:25:18 | 00:00:00 | |
| DM0DOS-11 | 2026-08-31 06:17:12 | 48.07688 | 12.19817 | 335° | 22km/h | 26246m | 5m/s | -49.4°C | 1.9% | 21.9hPa | 2.6V | 08:30:00 | 02:25:14 | 00:00:00 | i |
| BAUMI2-15 | 2026-08-31 06:17:12 | 48.07700 | 12.19823 | 75° | 20km/h | 26265m | 6.3m/s | -49.5°C | 1.9% | 21.7hPa | 2.6V | 00:00:00 | 02:25:17 | 00:00:00 | i |
| OE5GOL-10 | 2026-08-31 06:17:11 | 48.07697 | 12.19818 | 38° | 15km/h | 26258m | 7.2m/s | -49.5°C | 1.9% | 21.7hPa | 2.6V | 00:00:00 | 02:25:16 | 08:30:00 | |
| DK5PH-5 | 2026-08-31 06:17:09 | 48.07688 | 12.19817 | 336° | 13km/h | 26246m | 5.0m/s | -49.4°C | 1.9% | 21.8hPa | 2.6V | 00:00:00 | 02:25:14 | 00:00:00 | |
| OM5KV | 2026-08-31 06:17:07 | 48.07682 | 12.19823 | 286° | 4km/h | 26235m | 6.8m/s | -49.5°C | 0% | 21.9hPa | 2.6V | 00:00:00 | 00:00:00 | 00:00:00 | |
| OE5HKT-10 | 2026-08-31 06:17:06 | 48.07684 | 12.19823 | 155° | 15km/h | 26228m | 6.6m/s | -49.5°C | 2.0% | 21.9hPa | 2.6V | 00:00:00 | 02:25:11 | 00:00:00 | |
| OE5MMP-10 | 2026-08-31 06:17:05 | 48.07690 | 12.19814 | 122° | 15km/h | 26216m | 5.5m/s | -49.5°C | 1.9% | 21.9hPa | 2.6V | 00:00:00 | 02:25:09 | 08:30:00 | |
| DO3MHA-11 | 2026-08-31 06:17:04 | 48.07690 | 12.19814 | 122° | 15km/h | 26216m | 5.5m/s | -49.5°C | 1.9% | 21.9hPa | 2.6V | 00:00:00 | 02:25:09 | 00:00:00 | |
| DM0DOS-11 | 2026-08-31 06:17:02 | 48.07678 | 12.19802 | 30° | 7km/h | 26181m | 7.2m/s | -49.5°C | 1.9% | 22.1hPa | 2.6V | 08:30:00 | 02:25:03 | 00:00:00 | i |
| BAUMI2-15 | 2026-08-31 06:17:02 | 48.07691 | 12.19803 | 49° | 13km/h | 26204m | 5.9m/s | -49.5°C | 2.0% | 22.0hPa | 2.5V | 00:00:00 | 02:25:07 | 00:00:00 | i |
| DL1ZP-14 | 2026-08-31 06:16:56 | 48.07667 | 12.19787 | 265° | 2km/h | 26128m | 6.4m/s | -49.5°C | 0.0% | 22.3hPa | 2.5V | 00:00:00 | 00:00:00 | 00:00:00 | |
| BIOWL9-15 | 2026-08-31 06:16:55 | 48.07667 | 12.19786 | 127° | 7km/h | 26121m | 6.2m/s | -49.6°C | 0.0% | 22.3hPa | 2.5V | 00:00:00 | 00:00:00 | 00:00:00 | |
| OE5MMP-10 | 2026-08-31 06:16:54 | 48.07679 | 12.19781 | 70° | 13km/h | 26157m | 6.2m/s | -49.5°C | 1.9% | 22.1hPa | 2.5V | 00:00:00 | 02:24:59 | 00:00:00 | |
| OE5WHR-10 | 2026-08-31 06:16:53 | 48.07677 | 12.19778 | 19° | 15km/h | 26150m | 6.5m/s | -49.6°C | 1.9% | 22.1hPa | 2.5V | 00:00:00 | 00:00:00 | 00:00:00 | |
| DM0DOS-11 | 2026-08-31 06:16:52 | 48.07668 | 12.19786 | 127° | 7km/h | 26121m | 6.2m/s | -49.6°C | 1.9% | 22.3hPa | 2.5V | 08:30:00 | 02:24:53 | 00:00:00 | i |
| SONDE2-11 | 2026-08-31 06:16:51 | 48.07668 | 12.19785 | 310° | 11km/h | 26134m | 5.8m/s | -49.6°C | 0.0% | 22.2hPa | 2.6V | 00:00:00 | 00:00:00 | 00:00:00 | |
| BIOWL1-15 | 2026-08-31 06:16:41 | 48.07648 | 12.19777 | 147° | 7km/h | 26068m | 5.3m/s | 0°C | 0% | 0hPa | 2.6V | 18:12:15 | 02:24:44 | 00:00:00 | i |
| BIOWL1-15 | 2026-08-31 06:16:28 | 48.07626 | 12.19768 | 28° | 15km/h | 26005m | 7.4m/s | 0°C | 0% | 0hPa | 2.6V | 18:12:15 | 02:24:33 | 00:00:00 | i |
| BIOWL1-15 | 2026-08-31 06:16:14 | 48.07564 | 12.19785 | 306° | 22km/h | 25923m | 5.8m/s | 0°C | 0% | 0hPa | 2.6V | 18:12:15 | 02:24:19 | 00:00:00 | i |
| DO3MHA-11 | 2026-08-31 06:16:14 | 48.07564 | 12.19785 | 306° | 20km/h | 25923m | 5.7m/s | -49.7°C | 2.0% | 23.0hPa | 2.6V | 00:00:00 | 02:24:19 | 00:00:00 | i |
| EDDB2-11 | 2026-08-31 06:16:13 | 48.07561 | 12.19795 | 278° | 5km/h | 25913m | 4.1m/s | -49.8°C | 0.0% | 23.0hPa | 2.6V | 00:00:00 | 00:00:00 | 00:00:00 | |
| DL6DJ-15 | 2026-08-31 06:16:12 | 48.07560 | 12.19797 | 348° | 5km/h | 25908m | 5.8m/s | -49.9°C | 0.0% | 23.1hPa | 2.6V | 00:00:00 | 00:00:00 | 00:00:00 | |
| OE5GOL-10 | 2026-08-31 06:16:11 | 48.07560 | 12.19797 | 349° | 18km/h | 25908m | 5.8m/s | -49.9°C | 2.0% | 23.0hPa | 2.6V | 00:00:00 | 02:24:16 | 00:00:00 | |
| OM5KV | 2026-08-31 06:16:10 | 48.07560 | 12.19797 | 350° | 7km/h | 25908m | 5.8m/s | -49.9°C | 0% | 23.0hPa | 2.6V | 00:00:00 | 00:00:00 | 00:00:00 | |
| NBG1-10 | 2026-08-31 06:16:08 | 48.07545 | 12.19792 | 4° | 20km/h | 25890m | 5.2m/s | -49.9°C | 2.0% | 23.1hPa | 2.6V | 00:00:00 | 02:24:13 | 00:00:00 | |
| DM0DOS-11 | 2026-08-31 06:16:07 | 48.07522 | 12.19811 | 1° | 9km/h | 25855m | 6.7m/s | -49.9°C | 2% | 23.2hPa | 2.6V | 08:30:00 | 02:24:07 | 00:00:00 | i |
| BIOWL1-15 | 2026-08-31 06:16:00 | 48.07514 | 12.19808 | 6° | 24km/h | 25843m | 4.9m/s | 0°C | 0% | 0hPa | 2.5V | 18:12:15 | 02:24:05 | 00:00:00 | i |
| DL1ZP-14 | 2026-08-31 06:15:54 | 48.07491 | 12.19837 | 34° | 9km/h | 25802m | 6.1m/s | -50.1°C | 0.0% | 23.4hPa | 2.5V | 00:00:00 | 00:00:00 | 00:00:00 | |
| SONDE2-11 | 2026-08-31 06:15:48 | 48.07476 | 12.19845 | 280° | 24km/h | 25774m | 5.6m/s | -50.5°C | 0.0% | 23.5hPa | 2.5V | 00:00:00 | 00:00:00 | 00:00:00 | |
| OM5KV | 2026-08-31 06:15:47 | 48.07476 | 12.19845 | 281° | 26km/h | 25774m | 5.6m/s | -50.5°C | 0% | 23.5hPa | 2.5V | 00:00:00 | 00:00:00 | 00:00:00 | |
| DB0NH | 2026-08-31 06:15:46 | 48.07476 | 12.19860 | 265° | 16km/h | 25764m | 5.5m/s | -50.3°C | 2.1% | 23.5hPa | 2.5V | 00:00:00 | 02:23:51 | 00:00:00 | |
| DO3MHA-11 | 2026-08-31 06:15:44 | 48.07475 | 12.19860 | 60° | 18km/h | 25751m | 6.8m/s | -50.3°C | 2.1% | 23.6hPa | 2.5V | 00:00:00 | 02:23:49 | 00:00:00 | |
| EDDB2-11 | 2026-08-31 06:15:42 | 48.07464 | 12.19843 | 13° | 15km/h | 25734m | 6.0m/s | -50.4°C | 0.0% | 23.7hPa | 2.5V | 00:00:00 | 00:00:00 | 00:00:00 | |
| OE5GOL-10 | 2026-08-31 06:15:41 | 48.07464 | 12.19843 | 14° | 16km/h | 25734m | 6.0m/s | -50.4°C | 2.0% | 23.6hPa | 2.5V | 00:00:00 | 02:23:46 | 00:00:00 | |
| DF3TZ-5 | 2026-08-31 06:15:40 | 48.07461 | 12.19844 | 311° | 13km/h | 25727m | 6.5m/s | 0°C | -1.0% | -1.0hPa | 2.5V | 00:00:00 | 00:00:00 | 00:00:00 | |
| BIOWL1-15 | 2026-08-31 06:15:22 | 48.07454 | 12.19811 | 10° | 13km/h | 25624m | 5.9m/s | 0°C | 0% | 0hPa | 2.5V | 18:12:15 | 02:23:27 | 00:00:00 | i |
| OM5KV | 2026-08-31 06:15:21 | 48.07454 | 12.19811 | 11° | 13km/h | 25624m | 5.9m/s | -50.6°C | 0% | 24.1hPa | 2.6V | 00:00:00 | 00:00:00 | 00:00:00 | |
| DG1MJG | 2026-08-31 06:15:20 | 48.07450 | 12.19812 | 334° | 15km/h | 25618m | 6.0m/s | -50.4°C | 0% | 24.1hPa | 2.6V | 00:00:00 | 00:00:00 | 00:00:00 | |
| OE5DRO-10 | 2026-08-31 06:15:19 | 48.07447 | 12.19816 | 325° | 15km/h | 25608m | 5.4m/s | -50.4°C | 2.1% | 24.1hPa | 2.6V | 00:00:00 | 00:00:00 | 00:00:00 | |
| SONDE2-11 | 2026-08-31 06:15:17 | 48.07447 | 12.19810 | 89° | 18km/h | 25596m | 6.2m/s | -50.5°C | 0.0% | 24.2hPa | 2.5V | 00:00:00 | 00:00:00 | 00:00:00 | |
| DB0NH | 2026-08-31 06:15:16 | 48.07446 | 12.19801 | 84° | 15km/h | 25590m | 4.7m/s | -50.5°C | 2.1% | 24.2hPa | 2.5V | 00:00:00 | 02:23:21 | 00:00:00 | |
| DO3MHA-11 | 2026-08-31 06:15:14 | 48.07443 | 12.19787 | 47° | 15km/h | 25579m | 6.0m/s | -50.6°C | 2.1% | 24.2hPa | 2.6V | 00:00:00 | 02:23:19 | 00:00:00 | |
| PG1ADW-2 | 2026-08-31 06:15:13 | 48.07441 | 12.19786 | 346° | 15km/h | 25572m | 6.7m/s | -50.6°C | 2.1% | 24.2hPa | 2.6V | 00:00:00 | 00:00:00 | 00:00:00 | |
| DG1MFX-10 | 2026-08-31 06:15:12 | 48.07441 | 12.19785 | 347° | 7km/h | 25572m | 6.7m/s | -50.7°C | -0.1% | 24.3hPa | 2.6V | 00:00:00 | 00:00:00 | 00:00:00 | |
| EDDB2-11 | 2026-08-31 06:15:11 | 48.07438 | 12.19797 | 254° | 5km/h | 25557m | 5.6m/s | -50.5°C | 0.0% | 24.3hPa | 2.6V | 00:00:00 | 00:00:00 | 00:00:00 | |
| OM5KV | 2026-08-31 06:15:09 | 48.07438 | 12.19797 | 256° | 7km/h | 25557m | 5.6m/s | -50.5°C | 0% | 24.3hPa | 2.6V | 00:00:00 | 00:00:00 | 00:00:00 | |
| OE5WHR-10 | 2026-08-31 06:15:08 | 48.07438 | 12.19792 | 83° | 16km/h | 25544m | 6.2m/s | -50.7°C | 2.0% | 24.3hPa | 2.6V | 00:00:00 | 00:00:00 | 00:00:00 | |
| OE5HKT-10 | 2026-08-31 06:15:07 | 48.07437 | 12.19784 | 76° | 16km/h | 25539m | 5.7m/s | -50.7°C | 2.1% | 24.4hPa | 2.6V | 00:00:00 | 00:00:00 | 00:00:00 | |
| DO3MHA-11 | 2026-08-31 06:15:04 | 48.07429 | 12.19764 | 360° | 13km/h | 25522m | 6.6m/s | -50.9°C | 2.1% | 24.4hPa | 2.6V | 00:00:00 | 02:23:09 | 00:00:00 | |
| OM5KV | 2026-08-31 06:15:03 | 48.07429 | 12.19764 | 360° | 11km/h | 25522m | 6.7m/s | -51.0°C | 0% | 24.5hPa | 2.6V | 00:00:00 | 00:00:00 | 00:00:00 | |
| DM0DOS-11 | 2026-08-31 06:15:00 | 48.07414 | 12.19758 | 8° | 4km/h | 25470m | 6.6m/s | -51.2°C | 2.1% | 24.7hPa | 2.6V | 08:30:00 | 02:23:00 | 00:00:00 | i |
| DL1ZP-14 | 2026-08-31 06:14:52 | 48.07405 | 12.19752 | 333° | 18km/h | 25419m | 5.2m/s | -51.6°C | 0.0% | 24.9hPa | 2.5V | 00:00:00 | 00:00:00 | 00:00:00 | |
| SONDE2-11 | 2026-08-31 06:14:47 | 48.07405 | 12.19752 | 333° | 18km/h | 25419m | 5.2m/s | -51.6°C | 0.0% | 24.9hPa | 2.6V | 00:00:00 | 00:00:00 | 00:00:00 | |
| DB0NH | 2026-08-31 06:14:46 | 48.07405 | 12.19752 | 334° | 16km/h | 25419m | 5.2m/s | -51.5°C | 2.2% | 24.8hPa | 2.6V | 00:00:00 | 02:22:51 | 00:00:00 | |
| OE5MMP-10 | 2026-08-31 06:14:44 | 48.07401 | 12.19762 | 267° | 16km/h | 25410m | 4.5m/s | -51.6°C | 2.2% | 24.9hPa | 2.6V | 00:00:00 | 02:22:49 | 00:00:00 | |
| OE8JPQ-2 | 2026-08-31 06:14:43 | 48.07402 | 12.19766 | 227° | 13km/h | 25404m | 5.7m/s | -51.6°C | 2.1% | 24.9hPa | 2.6V | 00:00:00 | 00:00:00 | 00:00:00 | |
| BAUMI2-15 | 2026-08-31 06:14:42 | 48.07403 | 12.19766 | 135° | 16km/h | 25398m | 5.8m/s | -51.6°C | 2.1% | 24.9hPa | 2.5V | 00:00:00 | 02:22:47 | 00:00:00 | |
| OE5GOL-10 | 2026-08-31 06:14:41 | 48.07404 | 12.19762 | 86° | 16km/h | 25393m | 5.1m/s | -51.6°C | 2.1% | 24.9hPa | 2.5V | 00:00:00 | 02:22:46 | 00:00:00 | |
| EDDB2-11 | 2026-08-31 06:14:40 | 48.07399 | 12.19750 | 33° | 20km/h | 25383m | 4.5m/s | -51.7°C | 0.0% | 25.0hPa | 2.5V | 00:00:00 | 00:00:00 | 00:00:00 | |
| DL6DJ-15 | 2026-08-31 06:14:38 | 48.07394 | 12.19748 | 359° | 20km/h | 25379m | 5.5m/s | -51.7°C | 0.0% | 25.0hPa | 2.5V | 00:00:00 | 00:00:00 | 00:00:00 | |
| BAUMI2-15 | 2026-08-31 06:14:37 | 48.07389 | 12.19750 | 325° | 15km/h | 25373m | 6.1m/s | -51.7°C | 2.3% | 25.0hPa | 2.5V | 00:00:00 | 02:22:42 | 00:00:00 | |
| DO3MHA-11 | 2026-08-31 06:14:34 | 48.07384 | 12.19769 | 261° | 15km/h | 25356m | 5.0m/s | -51.7°C | 2.2% | 25.1hPa | 2.5V | 00:00:00 | 02:22:39 | 00:00:00 | |
| PG1ADW-2 | 2026-08-31 06:14:33 | 48.07384 | 12.19771 | 334° | 15km/h | 25350m | 5.8m/s | -51.7°C | 2.2% | 25.1hPa | 2.5V | 00:00:00 | 02:22:38 | 00:00:00 | |
| BAUMI2-15 | 2026-08-31 06:14:32 | 48.07383 | 12.19770 | 37° | 16km/h | 25344m | 5.3m/s | -51.7°C | 2.2% | 25.1hPa | 2.6V | 00:00:00 | 02:22:37 | 00:00:00 | |
| DG1MFX-10 | 2026-08-31 06:14:31 | 48.07383 | 12.19770 | 38° | 11km/h | 25344m | 5.3m/s | -51.8°C | -0.1% | 25.2hPa | 2.5V | 00:00:00 | 00:00:00 | 00:00:00 | |
| OE3JTB-15 | 2026-08-31 06:14:30 | 48.07375 | 12.19764 | 14° | 16km/h | 25335m | 4.7m/s | 0°C | 0% | 0hPa | 2.5V | 00:00:00 | 02:22:35 | 00:00:00 | |
| DB0UT-7 | 2026-08-31 06:14:29 | 48.07371 | 12.19764 | 345° | 15km/h | 25329m | 6.1m/s | -51.9°C | 2.3% | 25.2hPa | 2.5V | 00:00:00 | 02:22:34 | 00:00:00 | |
| OM5KV | 2026-08-31 06:14:28 | 48.07371 | 12.19764 | 346° | 16km/h | 25329m | 6.1m/s | -52.0°C | 0% | 25.2hPa | 2.5V | 00:00:00 | 00:00:00 | 00:00:00 | |
| DM0DOS-11 | 2026-08-31 06:14:27 | 48.07360 | 12.19781 | 39° | 24km/h | 25287m | 4.6m/s | -51.9°C | 2.2% | 25.4hPa | 2.5V | 08:30:00 | 02:22:27 | 00:00:00 | i |
| BAUMI2-15 | 2026-08-31 06:14:27 | 48.07365 | 12.19774 | 283° | 13km/h | 25316m | 6.1m/s | -52.0°C | 2.2% | 25.2hPa | 2.6V | 00:00:00 | 02:22:32 | 00:00:00 | i |
| OE5WHR-10 | 2026-08-31 06:14:26 | 48.07365 | 12.19781 | 266° | 15km/h | 25311m | 4.1m/s | -51.9°C | 2.2% | 25.2hPa | 2.6V | 00:00:00 | 02:22:31 | 00:00:00 | |
| OE5HKT-10 | 2026-08-31 06:14:25 | 48.07365 | 12.19786 | 267° | 15km/h | 25305m | 5.9m/s | -51.9°C | 2.2% | 25.3hPa | 2.6V | 00:00:00 | 00:00:00 | 08:30:00 | |
| DO3MHA-11 | 2026-08-31 06:14:24 | 48.07365 | 12.19788 | 359° | 15km/h | 25299m | 7.1m/s | -51.9°C | 2.2% | 25.3hPa | 2.6V | 00:00:00 | 02:22:29 | 00:00:00 | |
| OM5KV | 2026-08-31 06:14:23 | 48.07365 | 12.19788 | 360° | 4km/h | 25299m | 7.1m/s | -51.9°C | 0% | 25.3hPa | 2.5V | 00:00:00 | 00:00:00 | 00:00:00 | |
| BAUMI2-15 | 2026-08-31 06:14:22 | 48.07360 | 12.19781 | 40° | 20km/h | 25287m | 4.6m/s | -51.8°C | 2.2% | 25.3hPa | 2.5V | 00:00:00 | 02:22:27 | 00:00:00 | |
| NBG1-10 | 2026-08-31 06:14:21 | 48.07355 | 12.19777 | 25° | 13km/h | 25282m | 5.0m/s | -51.8°C | 2.2% | 25.4hPa | 2.5V | 00:00:00 | 02:22:26 | 00:00:00 | |
| DL1ZP-14 | 2026-08-31 06:14:20 | 48.07349 | 12.19775 | 0° | 18km/h | 25276m | 6.5m/s | -51.9°C | 0.0% | 25.4hPa | 2.6V | 00:00:00 | 00:00:00 | 00:00:00 | |
| DG1MJG | 2026-08-31 06:14:19 | 48.07349 | 12.19775 | 2° | 20km/h | 25276m | 6.5m/s | -51.9°C | 0% | 25.4hPa | 2.6V | 00:00:00 | 00:00:00 | 00:00:00 | |
| DB0NH | 2026-08-31 06:14:16 | 48.07342 | 12.19792 | 252° | 9km/h | 25253m | 6.2m/s | -52.0°C | 2.2% | 25.5hPa | 2.6V | 00:00:00 | 02:22:21 | 00:00:00 | |
| SONDE2-11 | 2026-08-31 06:14:15 | 48.07342 | 12.19792 | 94° | 5km/h | 25247m | 5.7m/s | -52.1°C | 0.0% | 25.6hPa | 2.6V | 00:00:00 | 00:00:00 | 00:00:00 | |
| OE5MMP-10 | 2026-08-31 06:14:14 | 48.07341 | 12.19788 | 68° | 16km/h | 25242m | 5.0m/s | -52.0°C | 2.3% | 25.5hPa | 2.6V | 00:00:00 | 02:22:19 | 00:00:00 | |
| PG1ADW-2 | 2026-08-31 06:14:13 | 48.07339 | 12.19784 | 45° | 15km/h | 25237m | 5.0m/s | -52.0°C | 2.3% | 25.5hPa | 2.6V | 00:00:00 | 00:00:00 | 00:00:00 | |
| OE8JPQ-2 | 2026-08-31 06:14:12 | 48.07335 | 12.19780 | 17° | 16km/h | 25231m | 6.2m/s | -52.1°C | 2.3% | 25.6hPa | 2.6V | 00:00:00 | 00:00:00 | 00:00:00 | |
| OE5GOL-10 | 2026-08-31 06:14:11 | 48.07330 | 12.19780 | 347° | 15km/h | 25225m | 6.0m/s | -52.1°C | 2.3% | 25.6hPa | 2.6V | 00:00:00 | 02:22:16 | 00:00:00 | |
| DG1MFX-10 | 2026-08-31 06:14:10 | 48.07330 | 12.19780 | 348° | 22km/h | 25225m | 6.1m/s | -52.1°C | -0.1% | 25.7hPa | 2.5V | 00:00:00 | 00:00:00 | 00:00:00 | |
| DM0DOS-11 | 2026-08-31 06:14:09 | 48.07320 | 12.19782 | 122° | 9km/h | 25184m | 5.8m/s | -52.3°C | 2.3% | 25.8hPa | 2.5V | 08:30:00 | 02:22:09 | 00:00:00 | i |
| EDDB2-11 | 2026-08-31 06:14:08 | 48.07317 | 12.19792 | 317° | 9km/h | 25209m | 5.7m/s | -52.0°C | 0.0% | 25.7hPa | 2.6V | 00:00:00 | 00:00:00 | 00:00:00 | |
| BAUMI2-15 | 2026-08-31 06:14:07 | 48.07316 | 12.19793 | 54° | 9km/h | 25203m | 7.6m/s | -52.0°C | 2.4% | 25.7hPa | 2.6V | 00:00:00 | 02:22:12 | 00:00:00 | |
| OM5KV | 2026-08-31 06:14:06 | 48.07316 | 12.19793 | 54° | 2km/h | 25203m | 7.6m/s | -52.1°C | 0% | 25.7hPa | 2.6V | 00:00:00 | 00:00:00 | 00:00:00 | |
| OE5WHR-10 | 2026-08-31 06:14:05 | 48.07318 | 12.19786 | 120° | 13km/h | 25190m | 4.5m/s | -52.2°C | 2.4% | 25.7hPa | 2.6V | 00:00:00 | 00:00:00 | 00:00:00 | |
| OE5MMP-10 | 2026-08-31 06:14:04 | 48.07320 | 12.19782 | 123° | 15km/h | 25185m | 5.8m/s | -52.3°C | 2.3% | 25.8hPa | 2.5V | 00:00:00 | 02:22:09 | 08:30:00 | |
| OE5DRO-10 | 2026-08-31 06:14:03 | 48.07321 | 12.19780 | 222° | 13km/h | 25179m | 6.3m/s | -52.2°C | 2.3% | 25.8hPa | 2.6V | 00:00:00 | 00:00:00 | 00:00:00 | |
| BAUMI2-15 | 2026-08-31 06:14:02 | 48.07320 | 12.19782 | 297° | 15km/h | 25173m | 5.2m/s | -52.1°C | 2.3% | 25.8hPa | 2.6V | 00:00:00 | 02:22:07 | 08:30:00 | |
| OM5KV | 2026-08-31 06:14:00 | 48.07318 | 12.19787 | 309° | 18km/h | 25168m | 5.0m/s | -52.0°C | 0% | 25.9hPa | 2.6V | 00:00:00 | 00:00:00 | 00:00:00 | |
| DB0UT-7 | 2026-08-31 06:13:59 | 48.07312 | 12.19793 | 357° | 15km/h | 25158m | 6.1m/s | -52.0°C | 2.2% | 25.8hPa | 2.6V | 00:00:00 | 00:00:00 | 00:00:00 | |
| OM5KV | 2026-08-31 06:13:58 | 48.07312 | 12.19793 | 358° | 11km/h | 25158m | 6.1m/s | -52.1°C | 0% | 25.9hPa | 2.6V | 00:00:00 | 00:00:00 | 00:00:00 | |
| BAUMI2-15 | 2026-08-31 06:13:57 | 48.07309 | 12.19785 | 79° | 16km/h | 25145m | 6.0m/s | -52.0°C | 2.3% | 25.9hPa | 2.6V | 00:00:00 | 02:22:02 | 00:00:00 | |
| OE5DXL-15 | 2026-08-31 06:13:56 | 48.07308 | 12.19777 | 81° | 15km/h | 25140m | 3.8m/s | -52.0°C | 2.2% | 25.9hPa | 2.6V | 00:00:00 | 00:00:00 | 00:00:00 | |
| DO3MHA-11 | 2026-08-31 06:13:54 | 48.07305 | 12.19767 | 24° | 13km/h | 25129m | 7.0m/s | -51.9°C | 2.2% | 26.0hPa | 2.6V | 00:00:00 | 02:21:59 | 00:00:00 | |
| PG1ADW-2 | 2026-08-31 06:13:53 | 48.07303 | 12.19769 | 317° | 15km/h | 25123m | 6.4m/s | -51.9°C | 2.3% | 26.0hPa | 2.6V | 00:00:00 | 00:00:00 | 00:00:00 | |
| DM0DOS-11 | 2026-08-31 06:13:52 | 48.07299 | 12.19782 | 118° | 9km/h | 25098m | 6.2m/s | -51.9°C | 2.3% | 26.2hPa | 2.6V | 08:30:00 | 02:21:54 | 00:00:00 | i |
| EDDB2-12 | 2026-08-31 06:13:50 | 48.07298 | 12.19783 | 254° | 4km/h | 25105m | 6.5m/s | -51.9°C | 0.0% | 26.1hPa | 2.6V | 00:00:00 | 00:00:00 | 00:00:00 | |
| DL1ZP-14 | 2026-08-31 06:13:49 | 48.07299 | 12.19782 | 118° | 7km/h | 25098m | 6.2m/s | -51.9°C | 0.0% | 26.2hPa | 2.6V | 00:00:00 | 00:00:00 | 00:00:00 | |
| NBG1-10 | 2026-08-31 06:13:48 | 48.07300 | 12.19778 | 103° | 16km/h | 25093m | 5.6m/s | -51.9°C | 2.3% | 26.1hPa | 2.6V | 00:00:00 | 02:21:53 | 00:00:00 | |
| BAUMI2-15 | 2026-08-31 06:13:47 | 48.07300 | 12.19771 | 84° | 15km/h | 25088m | 4.3m/s | -51.9°C | 2.3% | 26.2hPa | 2.6V | 00:00:00 | 02:21:52 | 00:00:00 | |
| DO3MHA-11 | 2026-08-31 06:13:44 | 48.07293 | 12.19765 | 312° | 15km/h | 25070m | 5.9m/s | -52.0°C | 2.2% | 26.2hPa | 2.6V | 00:00:00 | 02:21:49 | 00:00:00 | |
| OE5HKT-10 | 2026-08-31 06:13:43 | 48.07292 | 12.19770 | 285° | 15km/h | 25064m | 5.2m/s | -52.0°C | 2.2% | 26.3hPa | 2.6V | 00:00:00 | 02:21:48 | 00:00:00 | |
| DB0NH | 2026-08-31 06:13:42 | 48.07292 | 12.19775 | 258° | 16km/h | 25059m | 6.1m/s | -52.0°C | 2.2% | 26.3hPa | 2.6V | 00:00:00 | 02:21:47 | 00:00:00 | |
| OE5GOL-10 | 2026-08-31 06:13:41 | 48.07293 | 12.19778 | 193° | 16km/h | 25053m | 5.9m/s | -51.9°C | 2.2% | 26.3hPa | 2.5V | 00:00:00 | 02:21:46 | 00:00:00 | |
| DF7PN | 2026-08-31 06:13:40 | 48.07297 | 12.19772 | 109° | 18km/h | 25041m | 5.0m/s | -51.8°C | 0.0% | 26.4hPa | 2.5V | 00:00:00 | 00:00:00 | 00:00:00 | |
| BAUMI2-15 | 2026-08-31 06:13:37 | 48.07296 | 12.19759 | 55° | 15km/h | 25032m | 5.3m/s | -51.7°C | 2.3% | 26.4hPa | 2.5V | 00:00:00 | 02:21:42 | 00:00:00 | |
| DL6DJ-15 | 2026-08-31 06:13:36 | 48.07293 | 12.19757 | 4° | 11km/h | 25026m | 6.3m/s | -51.8°C | 0.0% | 26.4hPa | 2.5V | 00:00:00 | 00:00:00 | 00:00:00 | |
| OM5KV | 2026-08-31 06:13:35 | 48.07293 | 12.19756 | 5° | 11km/h | 25027m | 6.3m/s | -51.8°C | 0% | 26.5hPa | 2.5V | 00:00:00 | 00:00:00 | 00:00:00 | |
| OE5MMP-10 | 2026-08-31 06:13:34 | 48.07289 | 12.19764 | 276° | 18km/h | 25015m | 4.8m/s | -51.9°C | 2.3% | 26.4hPa | 2.5V | 00:00:00 | 02:21:39 | 00:00:00 | |
| PG1ADW-2 | 2026-08-31 06:13:33 | 48.07290 | 12.19769 | 237° | 18km/h | 25009m | 5.2m/s | -52.0°C | 2.3% | 26.4hPa | 2.5V | 00:00:00 | 00:00:00 | 08:30:00 | |
| BAUMI2-15 | 2026-08-31 06:13:32 | 48.07292 | 12.19771 | 181° | 16km/h | 25004m | 5.9m/s | -52.1°C | 2.3% | 26.5hPa | 2.6V | 00:00:00 | 02:21:37 | 00:00:00 | |
| OM5KV | 2026-08-31 06:13:31 | 48.07292 | 12.19771 | 181° | 11km/h | 25004m | 5.9m/s | -52.1°C | 0% | 26.6hPa | 2.6V | 00:00:00 | 00:00:00 | 00:00:00 | |
| OM5KV | 2026-08-31 06:13:30 | 48.07295 | 12.19769 | 129° | 16km/h | 24998m | 5.5m/s | -52.2°C | 0% | 26.6hPa | 2.6V | 00:00:00 | 00:00:00 | 00:00:00 | |
| DB0UT-7 | 2026-08-31 06:13:29 | 48.07296 | 12.19755 | 67° | 16km/h | 24988m | 4.3m/s | -52.1°C | 2.2% | 26.5hPa | 2.6V | 00:00:00 | 02:21:34 | 08:30:00 | |
| BAUMI2-15 | 2026-08-31 06:13:27 | 48.07290 | 12.19750 | 336° | 18km/h | 24977m | 6.1m/s | -52.0°C | 2.3% | 26.6hPa | 2.6V | 00:00:00 | 02:21:32 | 00:00:00 | |
| OE5DXL-15 | 2026-08-31 06:13:26 | 48.07286 | 12.19755 | 301° | 15km/h | 24971m | 6.0m/s | -51.9°C | 2.3% | 26.6hPa | 2.6V | 00:00:00 | 00:00:00 | 00:00:00 | |
| OE5DRO-10 | 2026-08-31 06:13:25 | 48.07285 | 12.19763 | 274° | 18km/h | 24966m | 5.2m/s | -51.8°C | 2.3% | 26.7hPa | 2.6V | 00:00:00 | 00:00:00 | 08:30:00 | |
| OE5MMP-10 | 2026-08-31 06:13:24 | 48.07286 | 12.19771 | 247° | 18km/h | 24960m | 6.3m/s | -51.8°C | 2.3% | 26.7hPa | 2.5V | 00:00:00 | 02:21:29 | 00:00:00 | |
| OE5WHR-10 | 2026-08-31 06:13:23 | 48.07288 | 12.19774 | 185° | 15km/h | 24954m | 6.0m/s | -51.9°C | 2.4% | 26.7hPa | 2.5V | 00:00:00 | 02:21:28 | 00:00:00 | |
| DM0DOS-11 | 2026-08-31 06:13:22 | 48.07293 | 12.19764 | 98° | 24km/h | 24942m | 5.7m/s | -52°C | 2.3% | 26.8hPa | 2.5V | 08:30:00 | 02:21:26 | 00:00:00 | |
| BAUMI2-15 | 2026-08-31 06:13:22 | 48.07291 | 12.19771 | 125° | 20km/h | 24948m | 5.8m/s | -52.0°C | 2.3% | 26.8hPa | 2.6V | 00:00:00 | 02:21:27 | 00:00:00 | |
| OM5KV | 2026-08-31 06:13:20 | 48.07292 | 12.19764 | 99° | 24km/h | 24942m | 5.7m/s | -52.1°C | 0% | 26.8hPa | 2.6V | 00:00:00 | 00:00:00 | 00:00:00 | |
| EDDB2-12 | 2026-08-31 06:13:19 | 48.07286 | 12.19748 | 354° | 15km/h | 24924m | 6.2m/s | -52.2°C | 0.0% | 26.9hPa | 2.6V | 00:00:00 | 00:00:00 | 00:00:00 | |
| DL1ZP-14 | 2026-08-31 06:13:18 | 48.07286 | 12.19748 | 354° | 15km/h | 24924m | 6.2m/s | -52.2°C | 0.0% | 26.9hPa | 2.6V | 00:00:00 | 00:00:00 | 00:00:00 | |
| BAUMI2-15 | 2026-08-31 06:13:17 | 48.07282 | 12.19751 | 317° | 15km/h | 24918m | 5.6m/s | -52.1°C | 2.3% | 26.9hPa | 2.6V | 00:00:00 | 02:21:22 | 08:30:00 | |
| DO3MHA-11 | 2026-08-31 06:13:14 | 48.07277 | 12.19767 | 269° | 15km/h | 24903m | 6.6m/s | -51.9°C | 2.3% | 26.9hPa | 2.6V | 00:00:00 | 02:21:19 | 00:00:00 | |
| PG1ADW-2 | 2026-08-31 06:13:13 | 48.07277 | 12.19766 | 102° | 15km/h | 24896m | 6.9m/s | -51.9°C | 2.2% | 26.9hPa | 2.6V | 00:00:00 | 02:21:18 | 00:00:00 | |
| DM0DOS-11 | 2026-08-31 06:13:12 | 48.07277 | 12.19753 | 80° | 20km/h | 24884m | 5.2m/s | -51.8°C | 2.3% | 27hPa | 2.6V | 08:30:00 | 02:21:16 | 00:00:00 | i |
| BAUMI2-15 | 2026-08-31 06:13:12 | 48.07277 | 12.19760 | 92° | 16km/h | 24890m | 6.2m/s | -51.8°C | 2.3% | 26.9hPa | 2.6V | 00:00:00 | 02:21:17 | 00:00:00 | i |
| OE5GOL-10 | 2026-08-31 06:13:11 | 48.07277 | 12.19753 | 81° | 16km/h | 24884m | 5.1m/s | -51.8°C | 2.3% | 27.0hPa | 2.6V | 00:00:00 | 02:21:16 | 00:00:00 | |
| OE8JPQ-2 | 2026-08-31 06:13:09 | 48.07273 | 12.19745 | 360° | 13km/h | 24873m | 5.9m/s | -51.8°C | 2.3% | 27.1hPa | 2.6V | 00:00:00 | 00:00:00 | 00:00:00 | |
| DG1MFX-10 | 2026-08-31 06:13:08 | 48.07273 | 12.19745 | 360° | 11km/h | 24873m | 6.0m/s | -51.8°C | -0.1% | 27.1hPa | 2.6V | 00:00:00 | 00:00:00 | 00:00:00 | |
| BAUMI2-15 | 2026-08-31 06:13:07 | 48.07266 | 12.19752 | 315° | 15km/h | 24861m | 4.8m/s | -51.7°C | 2.3% | 27.1hPa | 2.6V | 00:00:00 | 02:21:12 | 00:00:00 | |
| OE5DRO-10 | 2026-08-31 06:13:06 | 48.07263 | 12.19756 | 321° | 13km/h | 24855m | 6.2m/s | -51.7°C | 2.3% | 27.1hPa | 2.6V | 00:00:00 | 00:00:00 | 00:00:00 | |
| DL6DJ-15 | 2026-08-31 06:13:05 | 48.07260 | 12.19759 | 348° | 9km/h | 24849m | 6.6m/s | -51.7°C | 0.0% | 27.2hPa | 2.6V | 00:00:00 | 00:00:00 | 00:00:00 | |
| DO3MHA-11 | 2026-08-31 06:13:04 | 48.07258 | 12.19758 | 49° | 13km/h | 24843m | 5.4m/s | -51.7°C | 2.2% | 27.2hPa | 2.6V | 00:00:00 | 02:21:09 | 00:00:00 | |
| DM0DOS-11 | 2026-08-31 06:13:02 | 48.07253 | 12.19746 | 315° | 5km/h | 24819m | 6.3m/s | -51.8°C | 2.2% | 27.3hPa | 2.6V | 08:30:00 | 02:21:05 | 00:00:00 | i |
| BIOWL1-15 | 2026-08-31 06:13:02 | 48.07255 | 12.19749 | 65° | 13km/h | 24832m | 6.1m/s | 0°C | 0% | 0hPa | 2.6V | 18:12:15 | 02:21:07 | 00:00:00 | i |
| BIOWL1-15 | 2026-08-31 06:12:52 | 48.07221 | 12.19759 | 293° | 18km/h | 24760m | 5.3m/s | 0°C | 0% | 0hPa | 2.6V | 18:12:15 | 02:20:55 | 00:00:00 | i |
| OM5KV | 2026-08-31 06:12:50 | 48.07223 | 12.19753 | 311° | 18km/h | 24766m | 6.3m/s | -51.9°C | 0% | 27.6hPa | 2.6V | 00:00:00 | 00:00:00 | 00:00:00 | |
| OE8JPQ-2 | 2026-08-31 06:12:48 | 48.07218 | 12.19767 | 327° | 11km/h | 24749m | 7.0m/s | -52.1°C | 2.3% | 27.6hPa | 2.6V | 00:00:00 | 02:20:53 | 00:00:00 | |
| OE5DRO-10 | 2026-08-31 06:12:47 | 48.07216 | 12.19767 | 40° | 24km/h | 24743m | 7.0m/s | -52.1°C | 2.3% | 27.6hPa | 2.6V | 00:00:00 | 00:00:00 | 00:00:00 | |
| OM5KV | 2026-08-31 06:12:45 | 48.07213 | 12.19762 | 46° | 22km/h | 24736m | 5.2m/s | -52.1°C | 0% | 27.7hPa | 2.6V | 00:00:00 | 00:00:00 | 00:00:00 | |
| DO3MHA-11 | 2026-08-31 06:12:44 | 48.07203 | 12.19753 | 13° | 22km/h | 24728m | 4.8m/s | -52.1°C | 2.4% | 27.7hPa | 2.6V | 00:00:00 | 02:20:49 | 00:00:00 | |
| OE5GOL-10 | 2026-08-31 06:12:41 | 48.07192 | 12.19768 | 273° | 18km/h | 24709m | 5.5m/s | -51.9°C | 2.3% | 27.8hPa | 2.6V | 00:00:00 | 02:20:46 | 08:30:00 | |
| DM0DOS-11 | 2026-08-31 06:12:40 | 48.07175 | 12.19771 | 11° | 33km/h | 24675m | 5.2m/s | -51.9°C | 2.2% | 27.9hPa | 2.6V | 08:30:00 | 02:20:40 | 00:00:00 | i |
| BIOWL1-15 | 2026-08-31 06:12:39 | 48.07193 | 12.19783 | 258° | 9km/h | 24699m | 5.3m/s | 0°C | 0% | 0hPa | 2.5V | 18:12:15 | 02:20:44 | 00:00:00 | i |
| OM5KV | 2026-08-31 06:12:38 | 48.07193 | 12.19782 | 259° | 9km/h | 24699m | 5.3m/s | -51.9°C | 0% | 27.8hPa | 2.5V | 00:00:00 | 00:00:00 | 00:00:00 | |
| EDDB2-11 | 2026-08-31 06:12:36 | 48.07175 | 12.19771 | 11° | 33km/h | 24675m | 5.2m/s | -51.9°C | 0.0% | 27.9hPa | 2.5V | 00:00:00 | 00:00:00 | 00:00:00 | |
| DL6DJ-15 | 2026-08-31 06:12:34 | 48.07168 | 12.19771 | 346° | 27km/h | 24670m | 5.3m/s | -51.8°C | 0.0% | 28.0hPa | 2.5V | 00:00:00 | 00:00:00 | 00:00:00 | |
| PG1ADW-2 | 2026-08-31 06:12:33 | 48.07162 | 12.19776 | 311° | 18km/h | 24665m | 6.1m/s | -51.7°C | 2.2% | 28.0hPa | 2.5V | 00:00:00 | 00:00:00 | 00:00:00 | |
| OM5KV | 2026-08-31 06:12:31 | 48.07160 | 12.19784 | 276° | 26km/h | 24658m | 6.7m/s | -51.8°C | 0% | 28.0hPa | 2.6V | 00:00:00 | 00:00:00 | 00:00:00 | |
| DB0UT-7 | 2026-08-31 06:12:29 | 48.07165 | 12.19805 | 213° | 15km/h | 24641m | 5.9m/s | -51.8°C | 2.3% | 28.1hPa | 2.6V | 00:00:00 | 02:20:34 | 00:00:00 | |
| DM0DOS-11 | 2026-08-31 06:12:28 | 48.07148 | 12.19814 | 289° | 26km/h | 24606m | 5.5m/s | -51.7°C | 2.3% | 28.2hPa | 2.6V | 08:30:00 | 02:20:28 | 00:00:00 | i |
| BIOWL1-15 | 2026-08-31 06:12:28 | 48.07166 | 12.19805 | 51° | 7km/h | 24634m | 5.5m/s | 0°C | 0% | 0hPa | 2.5V | 18:12:15 | 02:20:33 | 00:00:00 | i |
| BIOWL1-15 | 2026-08-31 06:12:16 | 48.07133 | 12.19829 | 339° | 15km/h | 24565m | 6.8m/s | 0°C | 0% | 0hPa | 2.5V | 18:12:15 | 02:20:21 | 00:00:00 | i |
| DO3MHA-11 | 2026-08-31 06:12:14 | 48.07127 | 12.19839 | 296° | 15km/h | 24553m | 5.0m/s | -51.5°C | 2.1% | 28.5hPa | 2.6V | 00:00:00 | 02:20:19 | 00:00:00 | |
| PG1ADW-2 | 2026-08-31 06:12:13 | 48.07125 | 12.19846 | 296° | 16km/h | 24548m | 5.5m/s | -51.5°C | 2.2% | 28.5hPa | 2.6V | 00:00:00 | 00:00:00 | 00:00:00 | |
| OE5GOL-10 | 2026-08-31 06:12:11 | 48.07120 | 12.19853 | 1° | 16km/h | 24535m | 6.2m/s | -51.6°C | 2.2% | 28.5hPa | 2.6V | 00:00:00 | 02:20:16 | 00:00:00 | |
| DM0DOS-11 | 2026-08-31 06:12:10 | 48.07109 | 12.19864 | 292° | 20km/h | 24501m | 4.1m/s | -51.7°C | 2.2% | 28.7hPa | 2.6V | 08:30:00 | 02:20:10 | 00:00:00 | i |
| BIOWL1-15 | 2026-08-31 06:12:05 | 48.07109 | 12.19864 | 292° | 20km/h | 24501m | 4.1m/s | 0°C | 0% | 0hPa | 2.6V | 18:12:15 | 02:20:10 | 00:00:00 | i |
| BIOWL1-15 | 2026-08-31 06:11:57 | 48.07088 | 12.19896 | 258° | 20km/h | 24448m | 4.6m/s | 0°C | 0% | 0hPa | 2.6V | 18:12:15 | 02:20:00 | 00:00:00 | i |
| OE5WHR-10 | 2026-08-31 06:11:57 | 48.07087 | 12.19876 | 272° | 20km/h | 24457m | 5.0m/s | -51.7°C | 2.1% | 28.9hPa | 2.5V | 00:00:00 | 00:00:00 | 00:00:00 | i |
| OE5DXL-15 | 2026-08-31 06:11:56 | 48.07087 | 12.19887 | 263° | 16km/h | 24453m | 3.5m/s | -51.7°C | 2.1% | 28.9hPa | 2.6V | 00:00:00 | 00:00:00 | 08:30:00 | |
| OE8JPQ-2 | 2026-08-31 06:11:55 | 48.07088 | 12.19896 | 258° | 15km/h | 24448m | 4.5m/s | -51.7°C | 2.1% | 28.9hPa | 2.6V | 00:00:00 | 00:00:00 | 00:00:00 | |
| DO3MHA-11 | 2026-08-31 06:11:54 | 48.07089 | 12.19901 | 261° | 18km/h | 24443m | 6.8m/s | -51.8°C | 2.1% | 28.9hPa | 2.6V | 00:00:00 | 02:19:59 | 08:30:00 | |
| PG1ADW-2 | 2026-08-31 06:11:53 | 48.07088 | 12.19900 | 57° | 16km/h | 24436m | 7.2m/s | -51.9°C | 2.2% | 29.0hPa | 2.6V | 00:00:00 | 02:19:58 | 00:00:00 | |
| DM0DOS-11 | 2026-08-31 06:11:52 | 48.07074 | 12.19887 | 332° | 16km/h | 24411m | 4.1m/s | -52.1°C | 2.3% | 29.1hPa | 2.6V | 08:30:00 | 02:19:54 | 00:00:00 | i |
| EDDB2-12 | 2026-08-31 06:11:46 | 48.07071 | 12.19915 | 258° | 16km/h | 24391m | 7.1m/s | -52.1°C | 0.0% | 29.2hPa | 2.6V | 00:00:00 | 00:00:00 | 00:00:00 | |
| BIOWL9-15 | 2026-08-31 06:11:45 | 48.07071 | 12.19915 | 258° | 16km/h | 24391m | 7.1m/s | -52.1°C | 0.0% | 29.2hPa | 2.6V | 00:00:00 | 00:00:00 | 00:00:00 | |
| BIOWL1-15 | 2026-08-31 06:11:44 | 48.07068 | 12.19919 | 28° | 15km/h | 24372m | 5m/s | 0°C | 0% | 0hPa | 2.6V | 18:12:15 | 02:19:47 | 00:00:00 | i |
| DO3MHA-11 | 2026-08-31 06:11:44 | 48.07071 | 12.19920 | 267° | 16km/h | 24384m | 7.0m/s | -52.0°C | 2.3% | 29.2hPa | 2.5V | 00:00:00 | 02:19:49 | 00:00:00 | i |
| OE5GOL-10 | 2026-08-31 06:11:41 | 48.07065 | 12.19918 | 6° | 15km/h | 24368m | 4.4m/s | -52.0°C | 2.2% | 29.3hPa | 2.5V | 00:00:00 | 02:19:46 | 00:00:00 | |
| SONDE2-11 | 2026-08-31 06:11:40 | 48.07061 | 12.19919 | 326° | 13km/h | 24362m | 6.1m/s | -52.1°C | 0.0% | 29.4hPa | 2.5V | 00:00:00 | 00:00:00 | 00:00:00 | |
| OE5WHR-10 | 2026-08-31 06:11:36 | 48.07060 | 12.19951 | 259° | 13km/h | 24338m | 6.5m/s | -51.9°C | 2.2% | 29.4hPa | 2.5V | 00:00:00 | 00:00:00 | 00:00:00 | |
| OM5KV | 2026-08-31 06:11:35 | 48.07060 | 12.19951 | 259° | 20km/h | 24338m | 6.5m/s | -51.9°C | 0% | 29.5hPa | 2.5V | 00:00:00 | 00:00:00 | 00:00:00 | |
| OE5MMP-10 | 2026-08-31 06:11:34 | 48.07060 | 12.19959 | 10° | 13km/h | 24325m | 5.6m/s | -51.8°C | 2.3% | 29.5hPa | 2.5V | 00:00:00 | 02:19:39 | 00:00:00 | |
| PG1ADW-2 | 2026-08-31 06:11:33 | 48.07059 | 12.19958 | 40° | 13km/h | 24320m | 4.9m/s | -51.8°C | 2.3% | 29.5hPa | 2.5V | 00:00:00 | 00:00:00 | 00:00:00 | |
| DL6DJ-15 | 2026-08-31 06:11:32 | 48.07058 | 12.19956 | 14° | 5km/h | 24314m | 5.4m/s | -51.9°C | 0.0% | 29.6hPa | 2.6V | 00:00:00 | 00:00:00 | 00:00:00 | |
| DK5PH-5 | 2026-08-31 06:11:31 | 48.07056 | 12.19957 | 292° | 13km/h | 24308m | 6.2m/s | -51.9°C | 2.3% | 29.5hPa | 2.6V | 00:00:00 | 02:19:36 | 00:00:00 | |
| OE5HKT-10 | 2026-08-31 06:11:30 | 48.07056 | 12.19961 | 258° | 15km/h | 24302m | 6.3m/s | -51.9°C | 2.3% | 29.6hPa | 2.6V | 00:00:00 | 02:19:35 | 00:00:00 | |
| DB0UT-7 | 2026-08-31 06:11:29 | 48.07058 | 12.19968 | 248° | 15km/h | 24296m | 6.4m/s | -51.9°C | 2.2% | 29.6hPa | 2.6V | 00:00:00 | 02:19:34 | 00:00:00 | |
| OE8JPQ-2 | 2026-08-31 06:11:28 | 48.07061 | 12.19977 | 245° | 16km/h | 24290m | 4.7m/s | -51.9°C | 2.2% | 29.6hPa | 2.6V | 00:00:00 | 02:19:33 | 00:00:00 | |
| OE5DXL-15 | 2026-08-31 06:11:26 | 48.07065 | 12.19990 | 250° | 13km/h | 24278m | 6.6m/s | -52.0°C | 2.2% | 29.7hPa | 2.6V | 00:00:00 | 00:00:00 | 00:00:00 | |
| DG1MFX-10 | 2026-08-31 06:11:25 | 48.07065 | 12.19990 | 250° | 11km/h | 24278m | 6.6m/s | -52.1°C | -0.1% | 29.7hPa | 2.6V | 00:00:00 | 00:00:00 | 00:00:00 | |
| OE5MMP-10 | 2026-08-31 06:11:24 | 48.07064 | 12.19993 | 342° | 13km/h | 24266m | 4.7m/s | -52.0°C | 2.2% | 29.8hPa | 2.6V | 00:00:00 | 02:19:29 | 00:00:00 | |
| OM5KV | 2026-08-31 06:11:21 | 48.07062 | 12.19998 | 281° | 15km/h | 24254m | 6.8m/s | -52.2°C | 0% | 29.9hPa | 2.6V | 00:00:00 | 00:00:00 | 00:00:00 | |
| DM0DOS-11 | 2026-08-31 06:11:18 | 48.07074 | 12.20036 | 251° | 16km/h | 24201m | 5.9m/s | -52.5°C | 2.3% | 30.1hPa | 2.6V | 08:30:00 | 02:19:18 | 00:00:00 | i |
| OM5KV | 2026-08-31 06:11:16 | 48.07069 | 12.20030 | 210° | 7km/h | 24225m | 6.3m/s | -52.3°C | 0% | 30.0hPa | 2.6V | 00:00:00 | 00:00:00 | 00:00:00 | |
| EDDB2-12 | 2026-08-31 06:11:15 | 48.07072 | 12.20032 | 242° | 7km/h | 24207m | 6.2m/s | -52.5°C | 0.0% | 30.1hPa | 2.6V | 00:00:00 | 00:00:00 | 00:00:00 | |
| DO3MHA-11 | 2026-08-31 06:11:14 | 48.07072 | 12.20032 | 243° | 11km/h | 24207m | 6.1m/s | -52.4°C | 2.3% | 30.0hPa | 2.6V | 00:00:00 | 02:19:19 | 00:00:00 | |
| NBG1-10 | 2026-08-31 06:11:13 | 48.07073 | 12.20036 | 252° | 11km/h | 24201m | 5.8m/s | -52.4°C | 2.3% | 30.1hPa | 2.6V | 00:00:00 | 02:19:18 | 00:00:00 | |
| OE5DRO-10 | 2026-08-31 06:11:12 | 48.07075 | 12.20042 | 256° | 13km/h | 24196m | 5.0m/s | -52.5°C | 2.3% | 30.1hPa | 2.6V | 00:00:00 | 00:00:00 | 00:00:00 | |
| OE5GOL-10 | 2026-08-31 06:11:11 | 48.07076 | 12.20051 | 255° | 13km/h | 24191m | 4.7m/s | -52.4°C | 2.2% | 30.1hPa | 2.6V | 00:00:00 | 02:19:16 | 00:00:00 | |
| OM5KV | 2026-08-31 06:11:10 | 48.07076 | 12.20051 | 256° | 24km/h | 24191m | 4.8m/s | -52.5°C | 0% | 30.1hPa | 2.6V | 00:00:00 | 00:00:00 | 00:00:00 | |
| SONDE2-11 | 2026-08-31 06:11:09 | 48.07079 | 12.20064 | 253° | 7km/h | 24179m | 5.4m/s | -52.7°C | 0.0% | 30.2hPa | 2.6V | 00:00:00 | 00:00:00 | 00:00:00 | |
| OE5HKT-10 | 2026-08-31 06:11:08 | 48.07079 | 12.20066 | 251° | 11km/h | 24174m | 5.6m/s | -52.8°C | 2.3% | 30.2hPa | 2.6V | 00:00:00 | 00:00:00 | 08:30:00 | |
| OM5KV | 2026-08-31 06:11:06 | 48.07079 | 12.20065 | 62° | 5km/h | 24169m | 5.3m/s | -53.0°C | 0% | 30.3hPa | 2.6V | 00:00:00 | 00:00:00 | 00:00:00 | |
| DF7PN | 2026-08-31 06:11:05 | 48.07077 | 12.20063 | 319° | 2km/h | 24159m | 6.6m/s | -53.1°C | 0.0% | 30.3hPa | 2.6V | 00:00:00 | 00:00:00 | 00:00:00 | |
| DO3MHA-11 | 2026-08-31 06:11:04 | 48.07077 | 12.20066 | 269° | 15km/h | 24152m | 7.0m/s | -53.1°C | 2.4% | 30.3hPa | 2.6V | 00:00:00 | 02:19:09 | 00:00:00 | |
| DM0DOS-11 | 2026-08-31 06:11:02 | 48.07080 | 12.20100 | 268° | 16km/h | 24129m | 6.2m/s | -52.9°C | 2.4% | 30.4hPa | 2.6V | 08:30:00 | 02:19:05 | 00:00:00 | i |
| DL6DJ-15 | 2026-08-31 06:11:01 | 48.07080 | 12.20100 | 268° | 16km/h | 24129m | 6.2m/s | -52.9°C | 0.0% | 30.5hPa | 2.5V | 00:00:00 | 00:00:00 | 00:00:00 | |
| DK5PH-5 | 2026-08-31 06:11:00 | 48.07080 | 12.20100 | 269° | 13km/h | 24129m | 6.2m/s | -52.9°C | 2.4% | 30.4hPa | 2.5V | 00:00:00 | 02:19:05 | 00:00:00 | |
| DB0UT-7 | 2026-08-31 06:10:59 | 48.07080 | 12.20104 | 298° | 15km/h | 24123m | 6.3m/s | -52.9°C | 2.3% | 30.4hPa | 2.5V | 00:00:00 | 00:00:00 | 00:00:00 | |
| OE5DXL-15 | 2026-08-31 06:10:55 | 48.07076 | 12.20102 | 289° | 15km/h | 24099m | 6.5m/s | -53.0°C | 2.4% | 30.5hPa | 2.5V | 00:00:00 | 00:00:00 | 00:00:00 | |
| OE5MMP-10 | 2026-08-31 06:10:54 | 48.07075 | 12.20107 | 274° | 13km/h | 24093m | 5.9m/s | -53.1°C | 2.4% | 30.6hPa | 2.5V | 00:00:00 | 02:18:59 | 00:00:00 | |
| PG1ADW-2 | 2026-08-31 06:10:53 | 48.07075 | 12.20115 | 273° | 15km/h | 24088m | 5.5m/s | -53.2°C | 2.4% | 30.6hPa | 2.5V | 00:00:00 | 00:00:00 | 00:00:00 | |
| BAUMI2-15 | 2026-08-31 06:10:52 | 48.07075 | 12.20123 | 277° | 9km/h | 24082m | 6.2m/s | -53.3°C | 2.4% | 30.6hPa | 2.5V | 00:00:00 | 02:18:57 | 00:00:00 | |
| DM0DOS-11 | 2026-08-31 06:10:51 | 48.07078 | 12.20138 | 232° | 15km/h | 24047m | 6.4m/s | -53.9°C | 2.5% | 30.9hPa | 2.5V | 08:30:00 | 02:18:51 | 00:00:00 | i |
| OM5KV | 2026-08-31 06:10:49 | 48.07073 | 12.20133 | 289° | 5km/h | 24070m | 5.1m/s | -53.4°C | 0% | 30.8hPa | 2.6V | 00:00:00 | 00:00:00 | 00:00:00 | |
| OM5KV | 2026-08-31 06:10:48 | 48.07073 | 12.20134 | 0° | 0km/h | 24065m | 5.1m/s | -53.4°C | 0% | 30.8hPa | 2.6V | 00:00:00 | 00:00:00 | 00:00:00 | |
| BAUMI2-15 | 2026-08-31 06:10:47 | 48.07076 | 12.20134 | 210° | 16km/h | 24054m | 6.4m/s | -53.7°C | 2.5% | 30.8hPa | 2.6V | 00:00:00 | 02:18:52 | 00:00:00 | |
| DO3MHA-11 | 2026-08-31 06:10:44 | 48.07082 | 12.20150 | 259° | 16km/h | 24037m | 3.8m/s | -53.8°C | 2.5% | 30.9hPa | 2.6V | 00:00:00 | 02:18:49 | 00:00:00 | |
| DL1ZP-14 | 2026-08-31 06:10:43 | 48.07082 | 12.20156 | 270° | 13km/h | 24031m | 6.5m/s | -53.8°C | 0.0% | 30.9hPa | 2.6V | 00:00:00 | 00:00:00 | 00:00:00 | |
| BAUMI2-15 | 2026-08-31 06:10:42 | 48.07082 | 12.20159 | 304° | 13km/h | 24025m | 6.1m/s | -53.8°C | 2.5% | 30.9hPa | 2.5V | 00:00:00 | 02:18:47 | 00:00:00 | |
| OE5GOL-10 | 2026-08-31 06:10:41 | 48.07082 | 12.20158 | 90° | 16km/h | 24020m | 5.3m/s | -53.9°C | 2.6% | 30.9hPa | 2.5V | 00:00:00 | 02:18:46 | 00:00:00 | |
| NBG1-10 | 2026-08-31 06:10:40 | 48.07082 | 12.20154 | 107° | 16km/h | 24014m | 5.4m/s | -53.9°C | 2.5% | 31.0hPa | 2.5V | 00:00:00 | 02:18:45 | 00:00:00 | |
| OM5KV | 2026-08-31 06:10:38 | 48.07088 | 12.20145 | 165° | 18km/h | 24004m | 6.3m/s | -53.8°C | 0% | 31.1hPa | 2.6V | 00:00:00 | 00:00:00 | 00:00:00 | |
| BAUMI2-15 | 2026-08-31 06:10:37 | 48.07092 | 12.20145 | 201° | 16km/h | 23997m | 6.3m/s | -53.9°C | 2.6% | 31.0hPa | 2.6V | 00:00:00 | 02:18:42 | 00:00:00 | |
| DO3MHA-11 | 2026-08-31 06:10:34 | 48.07100 | 12.20165 | 268° | 16km/h | 23982m | 6.0m/s | -53.8°C | 2.5% | 31.1hPa | 2.6V | 00:00:00 | 02:18:39 | 00:00:00 | |
| OE5WHR-10 | 2026-08-31 06:10:33 | 48.07100 | 12.20168 | 329° | 16km/h | 23976m | 5.8m/s | -53.9°C | 2.5% | 31.2hPa | 2.6V | 00:00:00 | 00:00:00 | 00:00:00 | |
| BAUMI2-15 | 2026-08-31 06:10:32 | 48.07099 | 12.20166 | 83° | 22km/h | 23970m | 5.6m/s | -54.0°C | 2.6% | 31.2hPa | 2.6V | 00:00:00 | 02:18:37 | 08:30:00 | |
| EDDB2-11 | 2026-08-31 06:10:31 | 48.07100 | 12.20160 | 101° | 20km/h | 23964m | 6.4m/s | -54.1°C | 0.0% | 31.3hPa | 2.6V | 00:00:00 | 00:00:00 | 00:00:00 | |
| DK5PH-5 | 2026-08-31 06:10:30 | 48.07102 | 12.20151 | 123° | 16km/h | 23958m | 5.9m/s | -54.0°C | 2.6% | 31.2hPa | 2.6V | 00:00:00 | 02:18:35 | 08:30:00 | |
| DB0UT-7 | 2026-08-31 06:10:29 | 48.07106 | 12.20145 | 146° | 15km/h | 23952m | 6.2m/s | -54.1°C | 2.6% | 31.3hPa | 2.6V | 00:00:00 | 02:18:34 | 00:00:00 | |
| OM5KV | 2026-08-31 06:10:28 | 48.07106 | 12.20145 | 146° | 24km/h | 23952m | 6.2m/s | -54.1°C | 0% | 31.3hPa | 2.6V | 00:00:00 | 00:00:00 | 00:00:00 | |
| BAUMI2-15 | 2026-08-31 06:10:27 | 48.07116 | 12.20143 | 209° | 13km/h | 23941m | 4.9m/s | -54.0°C | 2.5% | 31.3hPa | 2.6V | 00:00:00 | 02:18:32 | 00:00:00 | |
| OE5HKT-10 | 2026-08-31 06:10:26 | 48.07119 | 12.20148 | 242° | 13km/h | 23936m | 3.6m/s | -53.9°C | 2.5% | 31.3hPa | 2.6V | 00:00:00 | 02:18:31 | 00:00:00 | |
| OM5KV | 2026-08-31 06:10:25 | 48.07121 | 12.20153 | 264° | 11km/h | 23931m | 6.6m/s | -53.9°C | 0% | 31.5hPa | 2.6V | 00:00:00 | 00:00:00 | 00:00:00 | |
| DO3MHA-11 | 2026-08-31 06:10:24 | 48.07120 | 12.20155 | 349° | 15km/h | 23924m | 6.6m/s | -53.9°C | 2.6% | 31.4hPa | 2.6V | 00:00:00 | 02:18:29 | 08:30:00 | |
| DG1MFX-10 | 2026-08-31 06:10:23 | 48.07120 | 12.20155 | 350° | 7km/h | 23924m | 6.6m/s | -54.0°C | -0.0% | 31.4hPa | 2.6V | 00:00:00 | 00:00:00 | 00:00:00 | |
| BAUMI2-15 | 2026-08-31 06:10:22 | 48.07116 | 12.20148 | 74° | 18km/h | 23912m | 5.7m/s | -53.8°C | 2.5% | 31.5hPa | 2.6V | 00:00:00 | 02:18:27 | 00:00:00 | |
| OM5KV | 2026-08-31 06:10:18 | 48.07121 | 12.20131 | 156° | 16km/h | 23894m | 5.4m/s | -53.9°C | 0% | 31.6hPa | 2.6V | 00:00:00 | 00:00:00 | 00:00:00 | |
| BAUMI2-15 | 2026-08-31 06:10:17 | 48.07129 | 12.20130 | 182° | 15km/h | 23885m | 3.5m/s | -53.7°C | 2.5% | 31.6hPa | 2.6V | 00:00:00 | 02:18:22 | 00:00:00 | |
| OE5DRO-10 | 2026-08-31 06:10:15 | 48.07131 | 12.20127 | 78° | 13km/h | 23873m | 7.4m/s | -53.8°C | 2.6% | 31.7hPa | 2.5V | 00:00:00 | 00:00:00 | 00:00:00 | |
| DO3MHA-11 | 2026-08-31 06:10:14 | 48.07130 | 12.20122 | 62° | 15km/h | 23866m | 6.5m/s | -53.8°C | 0% | 31.7hPa | 2.5V | 00:00:00 | 02:18:19 | 00:00:00 | |
| EDDB2-12 | 2026-08-31 06:10:13 | 48.07125 | 12.20107 | 70° | 18km/h | 23855m | 6.1m/s | -53.8°C | 0.0% | 31.8hPa | 2.5V | 00:00:00 | 00:00:00 | 00:00:00 | |
| BAUMI2-15 | 2026-08-31 06:10:12 | 48.07125 | 12.20107 | 71° | 13km/h | 23855m | 6.0m/s | -53.8°C | 2.5% | 31.7hPa | 2.5V | 00:00:00 | 02:18:17 | 00:00:00 | |
| OE5GOL-10 | 2026-08-31 06:10:11 | 48.07124 | 12.20101 | 98° | 15km/h | 23849m | 6.3m/s | -53.8°C | 2.5% | 31.8hPa | 2.5V | 00:00:00 | 02:18:16 | 00:00:00 | |
| OM5KV | 2026-08-31 06:10:07 | 48.07134 | 12.20098 | 129° | 5km/h | 23826m | 5.8m/s | -53.6°C | 0% | 31.9hPa | 2.5V | 00:00:00 | 00:00:00 | 00:00:00 | |
| OM5KV | 2026-08-31 06:10:05 | 48.07132 | 12.20089 | 65° | 22km/h | 23814m | 5.8m/s | -53.6°C | 0% | 32.0hPa | 2.5V | 00:00:00 | 00:00:00 | 00:00:00 | |
| OE5HKT-10 | 2026-08-31 06:10:04 | 48.07130 | 12.20081 | 65° | 20km/h | 23809m | 3.7m/s | -53.5°C | 2.4% | 32.0hPa | 2.5V | 00:00:00 | 00:00:00 | 00:00:00 | |
| DF7PN | 2026-08-31 06:10:03 | 48.07127 | 12.20066 | 92° | 11km/h | 23798m | 5.9m/s | -53.7°C | 0.0% | 32.1hPa | 2.7V | 00:00:00 | 00:00:00 | 00:00:00 | |
| BAUMI2-15 | 2026-08-31 06:10:02 | 48.07127 | 12.20066 | 93° | 7km/h | 23798m | 5.9m/s | -53.6°C | 2.4% | 32.0hPa | 2.7V | 00:00:00 | 02:18:07 | 00:00:00 | |
| OM5KV | 2026-08-31 06:10:01 | 48.07127 | 12.20066 | 94° | 13km/h | 23798m | 5.9m/s | -53.7°C | 0% | 32.1hPa | 2.6V | 00:00:00 | 00:00:00 | 00:00:00 | |
| DK5PH-5 | 2026-08-31 06:10:00 | 48.07129 | 12.20063 | 206° | 15km/h | 23787m | 4.8m/s | -53.5°C | 2.4% | 32.1hPa | 2.6V | 00:00:00 | 02:18:05 | 00:00:00 | |
| DB0UT-7 | 2026-08-31 06:09:59 | 48.07130 | 12.20064 | 265° | 15km/h | 23783m | 4.3m/s | -53.5°C | 2.4% | 32.1hPa | 2.6V | 00:00:00 | 00:00:00 | 00:00:00 | |
| BAUMI2-15 | 2026-08-31 06:09:57 | 48.07126 | 12.20063 | 33° | 22km/h | 23772m | 6.5m/s | -53.7°C | 2.5% | 32.2hPa | 2.6V | 00:00:00 | 02:18:02 | 00:00:00 | |
| OE5DRO-10 | 2026-08-31 06:09:56 | 48.07122 | 12.20058 | 45° | 16km/h | 23765m | 6.1m/s | -53.7°C | 2.5% | 32.2hPa | 2.6V | 00:00:00 | 00:00:00 | 00:00:00 | |
| OM5KV | 2026-08-31 06:09:55 | 48.07122 | 12.20058 | 46° | 27km/h | 23765m | 6.1m/s | -53.7°C | 0% | 32.3hPa | 2.6V | 00:00:00 | 00:00:00 | 00:00:00 | |
| BIOWL1-15 | 2026-08-31 06:09:38 | 48.07081 | 12.20006 | 15° | 24km/h | 23660m | 4.6m/s | 0°C | 0% | 32.8hPa | 2.6V | 18:12:15 | 02:17:43 | 00:00:00 | i |
| BIOWL1-15 | 2026-08-31 06:09:29 | 48.07061 | 12.19995 | 240° | 7km/h | 23599m | 6.3m/s | 0°C | 0% | 33.1hPa | 2.6V | 18:12:15 | 02:17:32 | 00:00:00 | i |
| BIOWL1-15 | 2026-08-31 06:09:19 | 48.07051 | 12.20013 | 228° | 15km/h | 23541m | 6m/s | 0°C | 0% | 33.4hPa | 2.5V | 18:12:15 | 02:17:22 | 00:00:00 | i |
| BIOWL1-15 | 2026-08-31 06:09:06 | 48.07039 | 12.20041 | 281° | 7km/h | 23481m | 6.2m/s | 0°C | 0% | 33.7hPa | 2.6V | 18:12:15 | 02:17:11 | 00:00:00 | i |
| BIOWL1-15 | 2026-08-31 06:09:00 | 48.07034 | 12.20065 | 324° | 11km/h | 23425m | 5.3m/s | 0°C | 0% | 34hPa | 2.6V | 18:12:15 | 02:17:01 | 00:00:00 | i |
| EDDB2-11 | 2026-08-31 06:08:58 | 48.07034 | 12.20060 | 227° | 11km/h | 23438m | 6.1m/s | -54.1°C | 0.0% | 34.0hPa | 2.6V | 00:00:00 | 00:00:00 | 00:00:00 | |
| DL6DJ-15 | 2026-08-31 06:08:57 | 48.07034 | 12.20065 | 324° | 9km/h | 23426m | 5.3m/s | -54.1°C | 0.0% | 34.0hPa | 2.6V | 00:00:00 | 00:00:00 | 00:00:00 | |
| OM5KV | 2026-08-31 06:08:55 | 48.07034 | 12.20065 | 325° | 11km/h | 23426m | 5.3m/s | -54.1°C | 0% | 34.1hPa | 2.6V | 00:00:00 | 00:00:00 | 00:00:00 | |
| BIOWL1-15 | 2026-08-31 06:08:38 | 48.07037 | 12.20109 | 29° | 11km/h | 23328m | 5.5m/s | 0°C | 0% | 34.6hPa | 2.6V | 18:12:15 | 02:16:43 | 00:00:00 | i |
| DO3MHA-11 | 2026-08-31 06:08:34 | 48.07036 | 12.20104 | 205° | 11km/h | 23307m | 4.7m/s | -53.6°C | 2.5% | 34.6hPa | 2.6V | 00:00:00 | 02:16:39 | 00:00:00 | |
| OE5HKT-10 | 2026-08-31 06:08:33 | 48.07040 | 12.20107 | 215° | 11km/h | 23303m | 4.0m/s | -53.5°C | 2.5% | 34.7hPa | 2.6V | 00:00:00 | 00:00:00 | 00:00:00 | |
| DK5PH-5 | 2026-08-31 06:08:29 | 48.07039 | 12.20113 | 27° | 13km/h | 23281m | 5.1m/s | -53.2°C | 2.4% | 34.8hPa | 2.6V | 00:00:00 | 02:16:34 | 00:00:00 | |
| NBG1-10 | 2026-08-31 06:08:28 | 48.07036 | 12.20110 | 38° | 13km/h | 23275m | 5.0m/s | -53.3°C | 2.5% | 34.8hPa | 2.6V | 00:00:00 | 02:16:33 | 00:00:00 | |
| EDDB2-11 | 2026-08-31 06:08:27 | 48.07034 | 12.20107 | 58° | 7km/h | 23270m | 5.8m/s | -53.3°C | 0.0% | 34.9hPa | 2.6V | 00:00:00 | 00:00:00 | 00:00:00 | |
| OM5KV | 2026-08-31 06:08:26 | 48.07034 | 12.20105 | 160° | 4km/h | 23264m | 5.9m/s | -53.4°C | 0% | 34.9hPa | 2.6V | 00:00:00 | 00:00:00 | 00:00:00 | |
| DB0NH | 2026-08-31 06:08:25 | 48.07035 | 12.20106 | 209° | 13km/h | 23259m | 5.2m/s | -53.3°C | 2.5% | 34.9hPa | 2.6V | 00:00:00 | 02:16:30 | 08:30:00 | |
| OE5MMP-10 | 2026-08-31 06:08:24 | 48.07037 | 12.20109 | 232° | 13km/h | 23254m | 3.6m/s | -53.2°C | 2.4% | 35.0hPa | 2.5V | 00:00:00 | 02:16:29 | 00:00:00 | |
| OM5KV | 2026-08-31 06:08:23 | 48.07037 | 12.20109 | 232° | 13km/h | 23254m | 3.7m/s | -53.2°C | 0% | 35.0hPa | 2.5V | 00:00:00 | 00:00:00 | 00:00:00 | |
| OE5DRO-10 | 2026-08-31 06:08:21 | 48.07035 | 12.20115 | 14° | 13km/h | 23238m | 5.1m/s | -53.2°C | 2.4% | 35.0hPa | 2.5V | 00:00:00 | 00:00:00 | 00:00:00 | |
| DG1MFX-10 | 2026-08-31 06:08:20 | 48.07035 | 12.20115 | 14° | 15km/h | 23238m | 5.1m/s | -53.3°C | -0.0% | 35.1hPa | 2.5V | 00:00:00 | 00:00:00 | 00:00:00 | |
| DO3MHA-11 | 2026-08-31 06:08:14 | 48.07027 | 12.20095 | 60° | 9km/h | 23200m | 6.3m/s | -53.0°C | 2.4% | 35.2hPa | 2.5V | 00:00:00 | 02:16:19 | 00:00:00 | |
| OM5KV | 2026-08-31 06:08:13 | 48.07026 | 12.20093 | 31° | 11km/h | 23194m | 6.4m/s | -53.1°C | 0% | 35.3hPa | 2.5V | 00:00:00 | 00:00:00 | 00:00:00 | |
| DG1MJG | 2026-08-31 06:08:12 | 48.07026 | 12.20093 | 31° | 11km/h | 23194m | 6.4m/s | -53.1°C | 0% | 35.3hPa | 2.5V | 00:00:00 | 00:00:00 | 00:00:00 | |
| OE5GOL-10 | 2026-08-31 06:08:11 | 48.07019 | 12.20087 | 30° | 16km/h | 23183m | 3.8m/s | -53.1°C | 2.5% | 35.3hPa | 2.5V | 00:00:00 | 02:16:16 | 08:30:00 | |
| EDDB2-12 | 2026-08-31 06:08:09 | 48.07013 | 12.20082 | 203° | 0km/h | 23167m | 4.9m/s | -53.4°C | 0.0% | 35.5hPa | 2.6V | 00:00:00 | 00:00:00 | 00:00:00 | |
| OM5KV | 2026-08-31 06:08:07 | 48.07012 | 12.20082 | 0° | 0km/h | 23167m | 4.9m/s | -53.4°C | 0% | 35.4hPa | 2.6V | 00:00:00 | 00:00:00 | 00:00:00 | |
| OM5KV | 2026-08-31 06:08:06 | 48.07013 | 12.20082 | 171° | 4km/h | 23162m | 4.1m/s | -53.3°C | 0% | 35.5hPa | 2.6V | 00:00:00 | 00:00:00 | 00:00:00 | |
| OE5WHR-10 | 2026-08-31 06:08:05 | 48.07013 | 12.20077 | 69° | 18km/h | 23151m | 5.7m/s | -53.1°C | 2.5% | 35.5hPa | 2.6V | 00:00:00 | 02:16:10 | 00:00:00 | |
| OE5MMP-10 | 2026-08-31 06:08:04 | 48.07011 | 12.20070 | 61° | 18km/h | 23145m | 5.1m/s | -53.1°C | 2.5% | 35.5hPa | 2.6V | 00:00:00 | 02:16:09 | 08:30:00 | |
| SONDE2-11 | 2026-08-31 06:08:03 | 48.07003 | 12.20052 | 59° | 29km/h | 23135m | 5.3m/s | -53.1°C | 0.0% | 35.6hPa | 2.5V | 00:00:00 | 00:00:00 | 00:00:00 | |
| DM0DOS-11 | 2026-08-31 06:08:02 | 48.06997 | 12.20033 | 75° | 7km/h | 23118m | 4.8m/s | -53°C | 2.4% | 35.7hPa | 2.5V | 08:30:00 | 02:16:04 | 00:00:00 | i |
| OE5DRO-10 | 2026-08-31 06:08:02 | 48.07003 | 12.20051 | 60° | 20km/h | 23135m | 5.2m/s | -53.1°C | 2.4% | 35.6hPa | 2.5V | 00:00:00 | 00:00:00 | 00:00:00 | i |
| DB0ND-19 | 2026-08-31 06:07:59 | 48.06997 | 12.20033 | 75° | 5km/h | 23118m | 4.8m/s | -53.0°C | -1.0% | -1.0hPa | 2.5V | 00:00:00 | 00:00:00 | 00:00:00 | |
| EDDB2-11 | 2026-08-31 06:07:56 | 48.06989 | 12.20021 | 38° | 22km/h | 23095m | 4.6m/s | -52.9°C | 0.0% | 35.9hPa | 2.5V | 00:00:00 | 00:00:00 | 00:00:00 | |
| OM5KV | 2026-08-31 06:07:55 | 48.06993 | 12.20026 | 40° | 16km/h | 23101m | 6.1m/s | -53.0°C | 0% | 35.8hPa | 2.5V | 00:00:00 | 00:00:00 | 00:00:00 | |
| DO3MHA-11 | 2026-08-31 06:07:54 | 48.06984 | 12.20015 | 41° | 22km/h | 23091m | 4.3m/s | -52.9°C | 2.4% | 35.8hPa | 2.5V | 00:00:00 | 02:15:59 | 00:00:00 | |
| PG1ADW-2 | 2026-08-31 06:07:53 | 48.06979 | 12.20008 | 47° | 22km/h | 23086m | 5.9m/s | -53.0°C | 2.4% | 35.8hPa | 2.6V | 00:00:00 | 02:15:58 | 00:00:00 | |
| OE8JPQ-2 | 2026-08-31 06:07:49 | 48.06971 | 12.19990 | 53° | 31km/h | 23065m | 3.7m/s | -53.1°C | 2.4% | 36.0hPa | 2.6V | 00:00:00 | 02:15:54 | 00:00:00 | |
| DO3MHA-11 | 2026-08-31 06:07:44 | 48.06945 | 12.19963 | 24° | 24km/h | 23038m | 6.2m/s | -53.3°C | 2.4% | 36.1hPa | 2.6V | 00:00:00 | 02:15:49 | 00:00:00 | |
| OE5DRO-10 | 2026-08-31 06:07:43 | 48.06940 | 12.19960 | 22° | 24km/h | 23032m | 6.6m/s | -53.3°C | 2.5% | 36.2hPa | 2.6V | 00:00:00 | 00:00:00 | 08:30:00 | |
| DM0DOS-11 | 2026-08-31 06:07:42 | 48.06935 | 12.19954 | 55° | 11km/h | 23016m | 4.1m/s | -53.3°C | 2.4% | 36.3hPa | 2.6V | 08:30:00 | 02:15:45 | 00:00:00 | i |
| BIOWL1-15 | 2026-08-31 06:07:40 | 48.06935 | 12.19954 | 56° | 11km/h | 23016m | 4.1m/s | 0°C | 0% | 36.3hPa | 2.6V | 18:12:15 | 02:15:45 | 00:00:00 | i |
| DG1MFX-10 | 2026-08-31 06:07:39 | 48.06935 | 12.19954 | 57° | 11km/h | 23017m | 4.1m/s | -53.3°C | -0.0% | 36.3hPa | 2.6V | 00:00:00 | 00:00:00 | 00:00:00 | |
| OM5KV | 2026-08-31 06:07:38 | 48.06932 | 12.19949 | 45° | 22km/h | 23011m | 6.3m/s | -53.4°C | 0% | 36.3hPa | 2.6V | 00:00:00 | 00:00:00 | 00:00:00 | |
| OM5KV | 2026-08-31 06:07:37 | 48.06927 | 12.19942 | 40° | 33km/h | 23005m | 6.8m/s | -53.3°C | 0% | 36.4hPa | 2.6V | 00:00:00 | 00:00:00 | 00:00:00 | |
| OE5MMP-10 | 2026-08-31 06:07:34 | 48.06897 | 12.19912 | 21° | 24km/h | 22983m | 6.3m/s | -53.5°C | 2.6% | 36.4hPa | 2.6V | 00:00:00 | 02:15:39 | 00:00:00 | |
| PG1ADW-2 | 2026-08-31 06:07:33 | 48.06892 | 12.19911 | 355° | 27km/h | 22977m | 6.1m/s | -53.5°C | 2.5% | 36.5hPa | 2.6V | 00:00:00 | 00:00:00 | 08:30:00 | |
| DM0DOS-11 | 2026-08-31 06:07:32 | 48.06863 | 12.19888 | 43° | 40km/h | 22947m | 4.9m/s | -53.4°C | 2.4% | 36.7hPa | 2.6V | 08:30:00 | 02:15:32 | 00:00:00 | i |
| OM5KV | 2026-08-31 06:07:31 | 48.06890 | 12.19912 | 335° | 9km/h | 22972m | 3.8m/s | -53.5°C | 0% | 36.6hPa | 2.6V | 00:00:00 | 00:00:00 | 00:00:00 | |
| OM5KV | 2026-08-31 06:07:30 | 48.06887 | 12.19913 | 360° | 13km/h | 22968m | 5.0m/s | -53.4°C | 0% | 36.6hPa | 2.6V | 00:00:00 | 00:00:00 | 00:00:00 | |
| DK5PH-5 | 2026-08-31 06:07:28 | 48.06871 | 12.19898 | 41° | 31km/h | 22952m | 5.1m/s | -53.4°C | 2.4% | 36.6hPa | 2.6V | 00:00:00 | 02:15:33 | 00:00:00 | |
| OE5DXL-15 | 2026-08-31 06:07:25 | 48.06851 | 12.19872 | 34° | 31km/h | 22937m | 5.5m/s | -53.2°C | 2.4% | 36.7hPa | 2.5V | 00:00:00 | 00:00:00 | 08:30:00 | |
| DB0NH | 2026-08-31 06:07:24 | 48.06846 | 12.19869 | 16° | 31km/h | 22931m | 5.3m/s | -53.4°C | 2.4% | 36.7hPa | 2.6V | 00:00:00 | 02:15:29 | 00:00:00 | |
| DL6DJ-15 | 2026-08-31 06:07:23 | 48.06842 | 12.19868 | 0° | 16km/h | 22926m | 5.2m/s | -53.4°C | 0.0% | 36.8hPa | 2.6V | 00:00:00 | 00:00:00 | 00:00:00 | |
| NBG1-10 | 2026-08-31 06:07:22 | 48.06837 | 12.19867 | 8° | 31km/h | 22921m | 4.2m/s | -53.4°C | 2.5% | 36.8hPa | 2.6V | 00:00:00 | 02:15:27 | 08:30:00 | |
| OE5WHR-10 | 2026-08-31 06:07:21 | 48.06831 | 12.19865 | 24° | 31km/h | 22916m | 4.9m/s | -53.2°C | 2.5% | 36.8hPa | 2.6V | 00:00:00 | 00:00:00 | 00:00:00 | |
| OM5KV | 2026-08-31 06:07:20 | 48.06825 | 12.19860 | 40° | 29km/h | 22912m | 5.3m/s | -53.2°C | 0% | 36.9hPa | 2.6V | 00:00:00 | 00:00:00 | 00:00:00 | |
| DG1MFX-10 | 2026-08-31 06:07:19 | 48.06825 | 12.19860 | 40° | 29km/h | 22912m | 5.3m/s | -53.2°C | -0.1% | 36.9hPa | 2.6V | 00:00:00 | 00:00:00 | 00:00:00 | |
| OM5KV | 2026-08-31 06:07:18 | 48.06820 | 12.19852 | 48° | 33km/h | 22906m | 4.9m/s | -53.3°C | 0% | 37.0hPa | 2.6V | 00:00:00 | 00:00:00 | 00:00:00 | |
| BIOWL1-15 | 2026-08-31 06:07:02 | 48.06681 | 12.19777 | 37° | 37km/h | 22806m | 3.5m/s | 0°C | 0% | 37.5hPa | 2.6V | 18:12:15 | 02:15:05 | 00:00:00 | i |
| BIOWL1-15 | 2026-08-31 06:06:49 | 48.06592 | 12.19757 | 8° | 38km/h | 22744m | 5m/s | 0°C | 0% | 0hPa | 2.5V | 18:12:15 | 02:14:54 | 00:00:00 | i |
| BIOWL1-15 | 2026-08-31 06:06:36 | 48.06490 | 12.19756 | 35° | 24km/h | 22672m | 5.9m/s | 0°C | 0% | 0hPa | 2.6V | 18:12:15 | 02:14:41 | 00:00:00 | i |
| BIOWL1-15 | 2026-08-31 06:06:28 | 48.06424 | 12.19771 | 7° | 24km/h | 22619m | 4.3m/s | 0°C | 0% | 0hPa | 2.5V | 18:12:15 | 02:14:31 | 00:00:00 | i |
| BIOWL1-15 | 2026-08-31 06:06:18 | 48.06355 | 12.19800 | 338° | 27km/h | 22561m | 7m/s | 0°C | 0% | 0hPa | 2.6V | 18:12:15 | 02:14:21 | 00:00:00 | i |
| BIOWL1-15 | 2026-08-31 06:06:05 | 48.06283 | 12.19852 | 324° | 40km/h | 22499m | 4.5m/s | 0°C | 0% | 0hPa | 2.6V | 18:12:15 | 02:14:10 | 00:00:00 | i |
| BIOWL1-15 | 2026-08-31 06:05:54 | 48.06197 | 12.19884 | 334° | 18km/h | 22435m | 5.6m/s | 0°C | 0% | 0hPa | 2.6V | 18:12:15 | 02:13:59 | 00:00:00 | i |
| EDDB2-11 | 2026-08-31 06:05:52 | 48.06188 | 12.19887 | 351° | 22km/h | 22425m | 6.3m/s | -53.0°C | 0.0% | 39.8hPa | 2.6V | 00:00:00 | 00:00:00 | 00:00:00 | |
| DL6DJ-15 | 2026-08-31 06:05:50 | 48.06172 | 12.19891 | 348° | 40km/h | 22413m | 5.3m/s | -53.1°C | 0.0% | 39.9hPa | 2.6V | 00:00:00 | 00:00:00 | 00:00:00 | |
| OE5DRO-10 | 2026-08-31 06:05:49 | 48.06162 | 12.19895 | 345° | 31km/h | 22408m | 4.7m/s | -52.9°C | 2.5% | 39.9hPa | 2.6V | 00:00:00 | 00:00:00 | 00:00:00 | |
| OM5KV | 2026-08-31 06:05:48 | 48.06161 | 12.19895 | 346° | 42km/h | 22408m | 4.7m/s | -53.0°C | 0% | 40.0hPa | 2.6V | 00:00:00 | 00:00:00 | 00:00:00 | |
| BAUMI2-15 | 2026-08-31 06:05:47 | 48.06143 | 12.19904 | 339° | 24km/h | 22396m | 6.1m/s | -52.9°C | 2.4% | 40.0hPa | 2.6V | 00:00:00 | 02:13:52 | 00:00:00 | |
| DO3MHA-11 | 2026-08-31 06:05:44 | 48.06127 | 12.19912 | 345° | 27km/h | 22380m | 5.7m/s | -52.8°C | 2.5% | 40.1hPa | 2.6V | 00:00:00 | 02:13:49 | 00:00:00 | |
| NBG1-10 | 2026-08-31 06:05:43 | 48.06121 | 12.19915 | 342° | 26km/h | 22374m | 6.2m/s | -52.8°C | 2.4% | 40.1hPa | 2.6V | 00:00:00 | 02:13:48 | 00:00:00 | |
| BAUMI2-15 | 2026-08-31 06:05:42 | 48.06114 | 12.19919 | 339° | 33km/h | 22368m | 5.3m/s | -52.7°C | 2.4% | 40.2hPa | 2.5V | 00:00:00 | 02:13:47 | 00:00:00 | |
| OE5GOL-10 | 2026-08-31 06:05:41 | 48.06105 | 12.19924 | 336° | 27km/h | 22363m | 5.1m/s | -52.8°C | 2.5% | 40.2hPa | 2.5V | 00:00:00 | 02:13:46 | 00:00:00 | |
| DM0DOS-11 | 2026-08-31 06:05:39 | 48.06064 | 12.19960 | 331° | 33km/h | 22323m | 6.1m/s | -52.5°C | 2.4% | 40.5hPa | 2.5V | 08:30:00 | 02:13:39 | 00:00:00 | i |
| BIOWL1-15 | 2026-08-31 06:05:28 | 48.06004 | 12.20018 | 331° | 38km/h | 22268m | 4.6m/s | 0°C | 0% | 0hPa | 2.6V | 18:12:15 | 02:13:29 | 00:00:00 | i |
| BIOWL1-15 | 2026-08-31 06:05:12 | 48.05953 | 12.20100 | 279° | 20km/h | 22201m | 5.4m/s | 0°C | 0% | 0hPa | 2.5V | 18:12:15 | 02:13:17 | 00:00:00 | i |
| BIOWL1-15 | 2026-08-31 06:05:00 | 48.05925 | 12.20177 | 315° | 16km/h | 22135m | 5.9m/s | 0°C | 0% | 0hPa | 2.5V | 18:12:15 | 02:13:05 | 00:00:00 | i |
| SONDE2-11 | 2026-08-31 06:04:56 | 48.05911 | 12.20197 | 288° | 16km/h | 22114m | 6.7m/s | -52.0°C | 0.0% | 41.8hPa | 2.6V | 00:00:00 | 00:00:00 | 00:00:00 | |
| DB0ND-19 | 2026-08-31 06:04:53 | 48.05905 | 12.20223 | 345° | 20km/h | 22087m | 5.1m/s | 0°C | -1.0% | -1.0hPa | 2.6V | 00:00:00 | 00:00:00 | 00:00:00 | |
| OE5DRO-10 | 2026-08-31 06:04:52 | 48.05909 | 12.20221 | 323° | 18km/h | 22093m | 6.7m/s | -52.2°C | 2.3% | 41.9hPa | 2.6V | 00:00:00 | 00:00:00 | 08:30:00 | |
| DM0DOS-11 | 2026-08-31 06:04:51 | 48.05889 | 12.20243 | 259° | 22km/h | 22061m | 5.2m/s | -52.4°C | 2.3% | 0hPa | 2.6V | 08:30:00 | 02:12:51 | 00:00:00 | i |
| BIOWL1-15 | 2026-08-31 06:04:46 | 48.05889 | 12.20243 | 259° | 22km/h | 22061m | 5.2m/s | 0°C | 0% | 0hPa | 2.6V | 18:12:15 | 02:12:51 | 00:00:00 | i |
| BIOWL1-15 | 2026-08-31 06:04:36 | 48.05873 | 12.20275 | 279° | 20km/h | 22010m | 6.3m/s | 0°C | 0% | 0hPa | 2.5V | 18:12:15 | 02:12:41 | 00:00:00 | i |
| BIOWL1-15 | 2026-08-31 06:04:24 | 48.05842 | 12.20310 | 327° | 15km/h | 21945m | 6.2m/s | 0°C | 0% | 0hPa | 2.6V | 18:12:15 | 02:12:29 | 00:00:00 | i |
| OE5MMP-10 | 2026-08-31 06:04:24 | 48.05842 | 12.20310 | 327° | 13km/h | 21945m | 6.2m/s | -53.4°C | 2.5% | 42.9hPa | 2.6V | 00:00:00 | 02:12:29 | 00:00:00 | i |
| OM5KV | 2026-08-31 06:04:23 | 48.05842 | 12.20310 | 328° | 15km/h | 21945m | 6.2m/s | -53.5°C | 0% | 43.0hPa | 2.6V | 00:00:00 | 00:00:00 | 00:00:00 | |
| BIOWL1-15 | 2026-08-31 06:04:11 | 48.05804 | 12.20364 | 308° | 7km/h | 21849m | 5.5m/s | 0°C | 0% | 0hPa | 2.6V | 18:12:15 | 02:12:11 | 00:00:00 | i |
| BIOWL1-15 | 2026-08-31 06:03:56 | 48.05777 | 12.20381 | 344° | 11km/h | 21797m | 6m/s | 0°C | 0% | 0hPa | 2.5V | 18:12:15 | 02:12:01 | 00:00:00 | i |
| BIOWL1-15 | 2026-08-31 06:03:45 | 48.05750 | 12.20407 | 337° | 22km/h | 21740m | 4m/s | 0°C | 0% | 0hPa | 2.5V | 18:12:15 | 02:11:50 | 00:00:00 | |
| BIOWL1-15 | 2026-08-31 06:03:33 | 48.05729 | 12.20457 | 303° | 16km/h | 21680m | 5.9m/s | 0°C | 0% | 0hPa | 2.5V | 18:12:15 | 02:11:38 | 00:00:00 | i |
| BIOWL1-15 | 2026-08-31 06:03:22 | 48.05717 | 12.20507 | 346° | 9km/h | 21626m | 2.7m/s | 0°C | 0% | 0hPa | 2.5V | 18:12:15 | 02:11:27 | 00:00:00 | i |
| OE5FHM-15 | 2026-08-31 06:03:19 | 48.05714 | 12.20522 | 264° | 20km/h | 21610m | 5.2m/s | -54.4°C | 2.6% | 45.2hPa | 2.5V | 00:00:00 | 02:11:24 | 00:00:00 | |
| OE8JPQ-2 | 2026-08-31 06:03:17 | 48.05716 | 12.20542 | 269° | 16km/h | 21601m | 4.7m/s | -54.5°C | 2.7% | 45.3hPa | 2.5V | 00:00:00 | 00:00:00 | 08:30:00 | |
| S52SK | 2026-08-31 06:03:16 | 48.05716 | 12.20542 | 270° | 22km/h | 21601m | 4.8m/s | -54.6°C | 0% | 45.4hPa | 2.5V | 00:00:00 | 00:00:00 | 00:00:00 | |
| DL6DJ-15 | 2026-08-31 06:03:15 | 48.05712 | 12.20554 | 345° | 9km/h | 21587m | 3.7m/s | -54.4°C | 0.0% | 45.4hPa | 2.5V | 00:00:00 | 00:00:00 | 00:00:00 | |
| DO3MHA-11 | 2026-08-31 06:03:14 | 48.05712 | 12.20554 | 346° | 15km/h | 21587m | 3.6m/s | -54.3°C | 2.6% | 45.4hPa | 2.5V | 00:00:00 | 02:11:19 | 00:00:00 | |
| PG1ADW-2 | 2026-08-31 06:03:13 | 48.05710 | 12.20555 | 323° | 16km/h | 21583m | 3.0m/s | -54.3°C | 2.6% | 45.4hPa | 2.5V | 00:00:00 | 00:00:00 | 00:00:00 | |
| DB0NH | 2026-08-31 06:03:11 | 48.05712 | 12.20562 | 238° | 18km/h | 21572m | 6.2m/s | -54.4°C | 2.7% | 45.5hPa | 2.5V | 00:00:00 | 02:11:16 | 00:00:00 | |
| OM5KV | 2026-08-31 06:03:08 | 48.05721 | 12.20585 | 242° | 20km/h | 21557m | 6.4m/s | -54.4°C | 0% | 45.7hPa | 2.5V | 00:00:00 | 00:00:00 | 00:00:00 | |
| OM5KV | 2026-08-31 06:03:07 | 48.05721 | 12.20585 | 242° | 20km/h | 21557m | 6.4m/s | -54.4°C | 0% | 45.7hPa | 2.5V | 00:00:00 | 00:00:00 | 00:00:00 | |
| DG1MJG | 2026-08-31 06:03:05 | 48.05721 | 12.20593 | 328° | 9km/h | 21545m | 4.4m/s | -54.5°C | 0% | 45.7hPa | 2.5V | 00:00:00 | 00:00:00 | 00:00:00 | |
| DO3MHA-11 | 2026-08-31 06:03:04 | 48.05719 | 12.20598 | 272° | 15km/h | 21537m | 6.0m/s | -54.3°C | 2.6% | 45.7hPa | 2.5V | 00:00:00 | 02:11:09 | 00:00:00 | |
| OM5KV | 2026-08-31 06:03:01 | 48.05723 | 12.20611 | 236° | 27km/h | 21525m | 5.2m/s | -54.3°C | 0% | 45.9hPa | 2.5V | 00:00:00 | 00:00:00 | 00:00:00 | |
| BIOWL9-15 | 2026-08-31 06:02:57 | 48.05742 | 12.20642 | 206° | 24km/h | 21484m | 5.8m/s | -54.1°C | -1.0% | 46.2hPa | 2.5V | 00:00:00 | 00:00:00 | 00:00:00 | |
| SONDE2-11 | 2026-08-31 06:02:52 | 48.05755 | 12.20654 | 217° | 29km/h | 21474m | 4.3m/s | -54.0°C | 0.0% | 46.2hPa | 2.5V | 00:00:00 | 00:00:00 | 00:00:00 | |
| NBG1-10 | 2026-08-31 06:02:51 | 48.05760 | 12.20660 | 224° | 18km/h | 21470m | 5.2m/s | -53.9°C | 2.6% | 46.2hPa | 2.5V | 00:00:00 | 02:10:56 | 00:00:00 | |
| OE5FHM-15 | 2026-08-31 06:02:49 | 48.05765 | 12.20669 | 238° | 18km/h | 21458m | 5.3m/s | -54.0°C | 2.6% | 46.3hPa | 2.5V | 00:00:00 | 02:10:54 | 00:00:00 | |
| BAUMI2-15 | 2026-08-31 06:02:48 | 48.05766 | 12.20670 | 203° | 22km/h | 21453m | 4.0m/s | -53.9°C | 2.6% | 46.3hPa | 2.5V | 00:00:00 | 02:10:53 | 08:30:00 | |
| S52SK | 2026-08-31 06:02:47 | 48.05766 | 12.20670 | 203° | 5km/h | 21453m | 4.1m/s | -53.9°C | 0% | 46.4hPa | 2.6V | 00:00:00 | 00:00:00 | 00:00:00 | |
| DO3MHA-11 | 2026-08-31 06:02:44 | 48.05783 | 12.20684 | 215° | 22km/h | 21434m | 4.6m/s | -53.8°C | 2.6% | 46.5hPa | 2.6V | 00:00:00 | 02:10:49 | 00:00:00 | |
| OM5KV | 2026-08-31 06:02:43 | 48.05783 | 12.20684 | 215° | 31km/h | 21434m | 4.7m/s | -53.9°C | 0% | 46.6hPa | 2.6V | 00:00:00 | 00:00:00 | 00:00:00 | |
| BAUMI2-15 | 2026-08-31 06:02:42 | 48.05793 | 12.20695 | 220° | 16km/h | 21423m | 5.4m/s | -53.7°C | 2.5% | 46.6hPa | 2.6V | 00:00:00 | 02:10:47 | 00:00:00 | |
| OE5GOL-10 | 2026-08-31 06:02:41 | 48.05795 | 12.20698 | 216° | 20km/h | 21418m | 4.2m/s | -53.6°C | 2.5% | 46.6hPa | 2.6V | 00:00:00 | 02:10:46 | 00:00:00 | |
| OE5DRO-10 | 2026-08-31 06:02:39 | 48.05802 | 12.20701 | 181° | 18km/h | 21407m | 6.6m/s | -53.5°C | 2.5% | 46.7hPa | 2.6V | 00:00:00 | 00:00:00 | 00:00:00 | |
| BAUMI2-15 | 2026-08-31 06:02:37 | 48.05814 | 12.20703 | 190° | 18km/h | 21396m | 3.4m/s | -53.6°C | 2.5% | 46.8hPa | 2.6V | 00:00:00 | 02:10:42 | 00:00:00 | |
| OE8JPQ-2 | 2026-08-31 06:02:36 | 48.05821 | 12.20704 | 191° | 18km/h | 21391m | 6.0m/s | -53.5°C | 2.5% | 46.8hPa | 2.6V | 00:00:00 | 02:10:41 | 00:00:00 | |
| DO3MHA-11 | 2026-08-31 06:02:34 | 48.05829 | 12.20709 | 225° | 16km/h | 21378m | 5.4m/s | -53.4°C | 2.4% | 46.9hPa | 2.6V | 00:00:00 | 02:10:39 | 00:00:00 | |
| PG1ADW-2 | 2026-08-31 06:02:33 | 48.05831 | 12.20712 | 235° | 18km/h | 21373m | 3.1m/s | -53.4°C | 2.5% | 46.9hPa | 2.6V | 00:00:00 | 02:10:38 | 00:00:00 | |
| BAUMI2-15 | 2026-08-31 06:02:32 | 48.05833 | 12.20714 | 203° | 20km/h | 21369m | 5.7m/s | -53.4°C | 2.4% | 47.0hPa | 2.5V | 00:00:00 | 02:10:37 | 00:00:00 | |
| DB0UT-7 | 2026-08-31 06:02:28 | 48.05856 | 12.20714 | 177° | 18km/h | 21348m | 5.4m/s | -53.3°C | 2.4% | 47.1hPa | 2.5V | 00:00:00 | 02:10:33 | 00:00:00 | |
| BAUMI2-15 | 2026-08-31 06:02:27 | 48.05862 | 12.20714 | 171° | 11km/h | 21341m | 6.3m/s | -53.3°C | 2.5% | 47.2hPa | 2.5V | 00:00:00 | 02:10:32 | 00:00:00 | |
| OE5WHR-10 | 2026-08-31 06:02:26 | 48.05866 | 12.20712 | 164° | 18km/h | 21336m | 5.2m/s | -53.2°C | 2.4% | 47.2hPa | 2.5V | 00:00:00 | 00:00:00 | 00:00:00 | |
| OE5DXL-15 | 2026-08-31 06:02:25 | 48.05867 | 12.20712 | 163° | 18km/h | 21331m | 5.0m/s | -53.3°C | 2.4% | 47.3hPa | 2.6V | 00:00:00 | 00:00:00 | 00:00:00 | |
| OE5MMP-10 | 2026-08-31 06:02:24 | 48.05869 | 12.20711 | 162° | 18km/h | 21325m | 5.6m/s | -53.4°C | 2.4% | 47.3hPa | 2.6V | 00:00:00 | 02:10:29 | 00:00:00 | |
| BAUMI2-15 | 2026-08-31 06:02:22 | 48.05876 | 12.20709 | 175° | 20km/h | 21314m | 4.7m/s | -53.5°C | 2.5% | 47.4hPa | 2.6V | 00:00:00 | 02:10:27 | 00:00:00 | |
| SONDE2-11 | 2026-08-31 06:02:21 | 48.05888 | 12.20706 | 161° | 22km/h | 21305m | 4.2m/s | -53.6°C | 0.0% | 47.5hPa | 2.6V | 00:00:00 | 00:00:00 | 00:00:00 | |
| OE5DRO-10 | 2026-08-31 06:02:20 | 48.05888 | 12.20706 | 162° | 20km/h | 21305m | 4.1m/s | -53.6°C | 2.5% | 47.4hPa | 2.6V | 00:00:00 | 00:00:00 | 00:00:00 | |
| OE5FHM-15 | 2026-08-31 06:02:19 | 48.05893 | 12.20703 | 154° | 18km/h | 21300m | 6.0m/s | -53.7°C | 2.5% | 47.5hPa | 2.6V | 00:00:00 | 02:10:24 | 00:00:00 | |
| NBG1-10 | 2026-08-31 06:02:18 | 48.05896 | 12.20699 | 124° | 16km/h | 21294m | 5.9m/s | -53.8°C | 2.5% | 47.5hPa | 2.6V | 00:00:00 | 02:10:23 | 08:30:00 | |
| BAUMI2-15 | 2026-08-31 06:02:17 | 48.05898 | 12.20694 | 110° | 26km/h | 21289m | 4.6m/s | -53.8°C | 2.5% | 47.6hPa | 2.6V | 00:00:00 | 02:10:22 | 00:00:00 | |
| OM5KV | 2026-08-31 06:02:15 | 48.05900 | 12.20687 | 124° | 22km/h | 21284m | 4.8m/s | -53.9°C | 0% | 47.7hPa | 2.6V | 00:00:00 | 00:00:00 | 00:00:00 | |
| DO3MHA-11 | 2026-08-31 06:02:14 | 48.05909 | 12.20674 | 142° | 22km/h | 21274m | 4.7m/s | -53.8°C | 2.5% | 47.7hPa | 2.6V | 00:00:00 | 02:10:19 | 00:00:00 | |
| DL6DJ-15 | 2026-08-31 06:02:13 | 48.05922 | 12.20659 | 141° | 27km/h | 21265m | 5.1m/s | -53.9°C | 0.0% | 47.8hPa | 2.6V | 00:00:00 | 00:00:00 | 00:00:00 | |
| BAUMI2-15 | 2026-08-31 06:02:12 | 48.05922 | 12.20659 | 142° | 20km/h | 21265m | 5.0m/s | -53.9°C | 2.5% | 47.8hPa | 2.6V | 00:00:00 | 02:10:17 | 00:00:00 | |
| OE5GOL-10 | 2026-08-31 06:02:11 | 48.05927 | 12.20653 | 127° | 15km/h | 21259m | 6.1m/s | -53.9°C | 2.6% | 47.8hPa | 2.6V | 00:00:00 | 02:10:16 | 00:00:00 | |
| S52SK | 2026-08-31 06:02:10 | 48.05927 | 12.20653 | 128° | 22km/h | 21259m | 6.2m/s | -53.9°C | 0% | 47.8hPa | 2.5V | 00:00:00 | 00:00:00 | 00:00:00 | |
| BAUMI2-15 | 2026-08-31 06:02:07 | 48.05932 | 12.20630 | 117° | 20km/h | 21238m | 4.9m/s | -53.8°C | 2.6% | 48.0hPa | 2.5V | 00:00:00 | 02:10:12 | 00:00:00 | |
| OE5WHR-10 | 2026-08-31 06:02:05 | 48.05938 | 12.20619 | 137° | 15km/h | 21230m | 3.8m/s | -53.8°C | 2.6% | 48.0hPa | 2.5V | 00:00:00 | 00:00:00 | 00:00:00 | |
| OE5MMP-10 | 2026-08-31 06:02:04 | 48.05942 | 12.20614 | 137° | 16km/h | 21226m | 3.8m/s | -53.8°C | 2.5% | 48.1hPa | 2.5V | 00:00:00 | 02:10:09 | 08:30:00 | |
| BAUMI2-15 | 2026-08-31 06:02:02 | 48.05949 | 12.20602 | 115° | 15km/h | 21215m | 5.4m/s | -53.8°C | 2.6% | 48.1hPa | 2.6V | 00:00:00 | 02:10:07 | 08:30:00 | |
| DL1ZP-14 | 2026-08-31 06:01:55 | 48.05967 | 12.20570 | 143° | 11km/h | 21175m | 6.1m/s | -53.7°C | 0.0% | 48.5hPa | 2.6V | 00:00:00 | 00:00:00 | 00:00:00 | |
| SONDE2-11 | 2026-08-31 06:01:50 | 48.05970 | 12.20558 | 120° | 11km/h | 21152m | 6.2m/s | -53.6°C | 0.0% | 48.6hPa | 2.5V | 00:00:00 | 00:00:00 | 00:00:00 | |
| OE5FHM-15 | 2026-08-31 06:01:49 | 48.05972 | 12.20554 | 146° | 9km/h | 21147m | 5.4m/s | -53.5°C | 2.5% | 48.6hPa | 2.5V | 00:00:00 | 02:09:54 | 00:00:00 | |
| BAUMI2-15 | 2026-08-31 06:01:47 | 48.05977 | 12.20549 | 144° | 7km/h | 21138m | 4.0m/s | -53.4°C | 2.4% | 48.8hPa | 2.5V | 00:00:00 | 02:09:52 | 00:00:00 | |
| NBG1-10 | 2026-08-31 06:01:45 | 48.05980 | 12.20545 | 48° | 9km/h | 21126m | 5.9m/s | -53.4°C | 2.4% | 48.8hPa | 2.5V | 00:00:00 | 02:09:50 | 00:00:00 | |
| DO3MHA-11 | 2026-08-31 06:01:44 | 48.05978 | 12.20544 | 29° | 7km/h | 21121m | 5.0m/s | -53.5°C | 2.5% | 48.8hPa | 2.5V | 00:00:00 | 02:09:49 | 00:00:00 | |
| OE5HKT-10 | 2026-08-31 06:01:43 | 48.05977 | 12.20542 | 54° | 7km/h | 21116m | 4.8m/s | 0°C | 0% | 0hPa | 2.5V | 00:00:00 | 02:09:48 | 00:00:00 | |
| DL6DJ-15 | 2026-08-31 06:01:42 | 48.05978 | 12.20540 | 163° | 7km/h | 21104m | 5.3m/s | -53.7°C | 0.0% | 49.0hPa | 2.5V | 00:00:00 | 00:00:00 | 00:00:00 | |
| OE5GOL-10 | 2026-08-31 06:01:41 | 48.05978 | 12.20540 | 164° | 9km/h | 21105m | 5.3m/s | -53.6°C | 2.5% | 49.0hPa | 2.5V | 00:00:00 | 02:09:46 | 00:00:00 | |
| OM5KV | 2026-08-31 06:01:39 | 48.05981 | 12.20539 | 167° | 13km/h | 21100m | 4.8m/s | -53.7°C | 0% | 49.1hPa | 2.5V | 00:00:00 | 00:00:00 | 00:00:00 | |
| OM5KV | 2026-08-31 06:01:38 | 48.05984 | 12.20538 | 171° | 11km/h | 21095m | 5.1m/s | -53.8°C | 0% | 49.1hPa | 2.5V | 00:00:00 | 00:00:00 | 00:00:00 | |
| BAUMI2-15 | 2026-08-31 06:01:37 | 48.05986 | 12.20535 | 79° | 9km/h | 21084m | 5.2m/s | -53.9°C | 2.6% | 49.2hPa | 2.5V | 00:00:00 | 02:09:42 | 00:00:00 | |
| OE5MMP-10 | 2026-08-31 06:01:34 | 48.05986 | 12.20526 | 124° | 9km/h | 21069m | 6.0m/s | -54.0°C | 2.6% | 49.3hPa | 2.5V | 00:00:00 | 02:09:39 | 00:00:00 | |
| PG1ADW-2 | 2026-08-31 06:01:33 | 48.05988 | 12.20524 | 164° | 9km/h | 21063m | 5.3m/s | -54.1°C | 2.6% | 49.3hPa | 2.6V | 00:00:00 | 00:00:00 | 08:30:00 | |
| BAUMI2-15 | 2026-08-31 06:01:32 | 48.05991 | 12.20523 | 193° | 11km/h | 21058m | 4.8m/s | -54.1°C | 2.6% | 49.3hPa | 2.6V | 00:00:00 | 02:09:37 | 00:00:00 | |
| DB0UT-7 | 2026-08-31 06:01:28 | 48.05993 | 12.20533 | 329° | 9km/h | 21038m | 4.8m/s | -54.2°C | 2.6% | 49.5hPa | 2.6V | 00:00:00 | 02:09:33 | 00:00:00 | |
| BAUMI2-15 | 2026-08-31 06:01:27 | 48.05991 | 12.20535 | 332° | 7km/h | 21032m | 5.6m/s | -54.1°C | 2.6% | 49.5hPa | 2.6V | 00:00:00 | 02:09:32 | 00:00:00 | |
| OM5KV | 2026-08-31 06:01:26 | 48.05991 | 12.20535 | 332° | 7km/h | 21032m | 5.6m/s | -54.2°C | 0.0% | 49.6hPa | 2.6V | 00:00:00 | 00:00:00 | 00:00:00 | |
| DM0DOS-11 | 2026-08-31 06:01:25 | 48.05995 | 12.20543 | 327° | 5km/h | 20996m | 4.9m/s | -54.1°C | 0% | 0hPa | 2.6V | 08:30:00 | 02:09:25 | 00:00:00 | i |
| BIOWL1-15 | 2026-08-31 06:01:18 | 48.06005 | 12.20549 | 156° | 13km/h | 20964m | 6.7m/s | -54.1°C | 0% | 0hPa | 2.6V | 18:12:15 | 02:09:19 | 00:00:00 | i |
| BIOWL1-15 | 2026-08-31 06:01:09 | 48.06016 | 12.20541 | 203° | 18km/h | 20926m | 4.3m/s | 0°C | 0% | 0hPa | 2.5V | 18:12:15 | 02:09:12 | 00:00:00 | i |
| BIOWL1-15 | 2026-08-31 06:00:57 | 48.06031 | 12.20548 | 157° | 13km/h | 20872m | 5.4m/s | 0°C | 0% | 0hPa | 2.6V | 18:12:15 | 02:09:02 | 00:00:00 | i |
| BIOWL1-15 | 2026-08-31 06:00:49 | 48.06053 | 12.20543 | 130° | 13km/h | 20821m | 5.1m/s | 0°C | 0% | 0hPa | 2.6V | 18:12:15 | 02:08:52 | 00:00:00 | |
| SONDE2-11 | 2026-08-31 06:00:49 | 48.06051 | 12.20547 | 117° | 13km/h | 20826m | 4.8m/s | -54.0°C | 0.0% | 51.2hPa | 2.6V | 00:00:00 | 00:00:00 | 00:00:00 | |
| OM5KV | 2026-08-31 06:00:47 | 48.06051 | 12.20547 | 119° | 15km/h | 20826m | 4.8m/s | -54.0°C | 0% | 51.2hPa | 2.6V | 00:00:00 | 00:00:00 | 00:00:00 | |
| OE5DRO-10 | 2026-08-31 06:00:45 | 48.06058 | 12.20540 | 183° | 9km/h | 20810m | 5.2m/s | -53.9°C | 2.5% | 51.3hPa | 2.6V | 00:00:00 | 00:00:00 | 00:00:00 | |
| DM0DOS-11 | 2026-08-31 06:00:44 | 48.06071 | 12.20542 | 65° | 5km/h | 20783m | 4.9m/s | -53.9°C | 0% | 0hPa | 2.6V | 08:30:00 | 02:08:45 | 00:00:00 | i |
| BIOWL1-15 | 2026-08-31 06:00:38 | 48.06072 | 12.20537 | 191° | 11km/h | 20761m | 4.4m/s | 0°C | 0% | 0hPa | 2.6V | 18:12:15 | 02:08:41 | 00:00:00 | i |
| OM5KV | 2026-08-31 06:00:35 | 48.06072 | 12.20537 | 192° | 11km/h | 20761m | 4.4m/s | -54.0°C | 0.0% | 51.8hPa | 2.6V | 00:00:00 | 00:00:00 | 00:00:00 | |
| DM0DOS-11 | 2026-08-31 06:00:34 | 48.06081 | 12.20526 | 137° | 11km/h | 20725m | 6.9m/s | -54°C | 0% | 0hPa | 2.6V | 08:30:00 | 02:08:34 | 00:00:00 | i |
| BIOWL1-15 | 2026-08-31 06:00:27 | 48.06090 | 12.20517 | 106° | 7km/h | 20703m | 6.5m/s | 0°C | 0% | 0hPa | 2.6V | 18:12:15 | 02:08:30 | 00:00:00 | i |
| BIOWL1-15 | 2026-08-31 06:00:18 | 48.06092 | 12.20501 | 145° | 5km/h | 20644m | 6.4m/s | 0°C | 0% | 0hPa | 2.6V | 18:12:15 | 02:08:19 | 00:00:00 | i |
| BIOWL1-15 | 2026-08-31 06:00:04 | 48.06108 | 12.20479 | 176° | 7km/h | 20581m | 6.7m/s | 0°C | 0% | 0hPa | 2.6V | 18:12:15 | 02:08:07 | 00:00:00 | i |
| BIOWL1-15 | 2026-08-31 05:59:50 | 48.06113 | 12.20444 | 143° | 11km/h | 20504m | 4.6m/s | 0°C | 0% | 0hPa | 2.5V | 18:12:15 | 02:07:53 | 00:00:00 | i |
| DM0DOS-11 | 2026-08-31 05:59:50 | 48.06115 | 12.20442 | 143° | 11km/h | 20500m | 3.5m/s | -53.9°C | 0% | 0hPa | 2.5V | 08:30:00 | 02:07:52 | 00:00:00 | i |
| SONDE2-11 | 2026-08-31 05:59:46 | 48.06116 | 12.20439 | 18° | 5km/h | 20488m | 6.9m/s | -54.1°C | 0.0% | 54.0hPa | 2.5V | 00:00:00 | 00:00:00 | 00:00:00 | |
| OE5FHM-15 | 2026-08-31 05:59:45 | 48.06116 | 12.20439 | 19° | 11km/h | 20488m | 6.8m/s | -54.1°C | 2.6% | 54.0hPa | 2.5V | 00:00:00 | 02:07:50 | 00:00:00 | |
| DF7PN | 2026-08-31 05:59:42 | 48.06104 | 12.20436 | 43° | 5km/h | 20466m | 6.0m/s | -54.0°C | 0.0% | 54.2hPa | 2.5V | 00:00:00 | 00:00:00 | 00:00:00 | |
| OE5GOL-10 | 2026-08-31 05:59:41 | 48.06104 | 12.20436 | 44° | 15km/h | 20466m | 6.0m/s | -54.0°C | 2.6% | 54.1hPa | 2.5V | 00:00:00 | 02:07:46 | 00:00:00 | |
| DM0DOS-11 | 2026-08-31 05:59:40 | 48.06099 | 12.20422 | 12° | 15km/h | 20437m | 4.4m/s | -54°C | 0% | 0hPa | 2.5V | 08:30:00 | 02:07:41 | 00:00:00 | i |
| BIOWL1-15 | 2026-08-31 05:59:39 | 48.06104 | 12.20430 | 104° | 9km/h | 20456m | 4.3m/s | 0°C | 0% | 0hPa | 2.6V | 18:12:15 | 02:07:44 | 00:00:00 | i |
| OE5WHR-10 | 2026-08-31 05:59:37 | 48.06102 | 12.20424 | 38° | 16km/h | 20443m | 6.3m/s | -53.9°C | 2.6% | 54.3hPa | 2.5V | 00:00:00 | 02:07:42 | 00:00:00 | |
| DO3MHA-11 | 2026-08-31 05:59:34 | 48.06091 | 12.20420 | 9° | 16km/h | 20427m | 7.2m/s | -54.0°C | 2.6% | 54.5hPa | 2.5V | 00:00:00 | 02:07:39 | 00:00:00 | |
| OM5KV | 2026-08-31 05:59:33 | 48.06091 | 12.20420 | 9° | 13km/h | 20427m | 7.3m/s | -54.0°C | 0.0% | 54.5hPa | 2.5V | 00:00:00 | 00:00:00 | 00:00:00 | |
| OM5KV | 2026-08-31 05:59:32 | 48.06089 | 12.20419 | 28° | 5km/h | 20421m | 6.4m/s | -54.0°C | 0.0% | 54.6hPa | 2.5V | 00:00:00 | 00:00:00 | 00:00:00 | |
| PG1ADW-2 | 2026-08-31 05:59:31 | 48.06087 | 12.20417 | 54° | 15km/h | 20412m | 3.4m/s | -53.8°C | 2.5% | 54.6hPa | 2.5V | 00:00:00 | 00:00:00 | 00:00:00 | |
| OE8JPQ-2 | 2026-08-31 05:59:29 | 48.06082 | 12.20411 | 23° | 20km/h | 20400m | 6.5m/s | -53.8°C | 2.5% | 54.7hPa | 2.5V | 00:00:00 | 02:07:34 | 00:00:00 | |
| DB0UT-7 | 2026-08-31 05:59:28 | 48.06077 | 12.20408 | 17° | 16km/h | 20394m | 5.0m/s | -53.8°C | 2.6% | 54.8hPa | 2.5V | 00:00:00 | 02:07:33 | 00:00:00 | |
| OM5KV | 2026-08-31 05:59:27 | 48.06077 | 12.20408 | 18° | 27km/h | 20394m | 5.1m/s | -53.9°C | 0.0% | 54.8hPa | 2.5V | 00:00:00 | 00:00:00 | 00:00:00 | |
| DK5PH-5 | 2026-08-31 05:59:25 | 48.06059 | 12.20399 | 27° | 15km/h | 20379m | 6.0m/s | -53.8°C | 2.5% | 54.9hPa | 2.5V | 00:00:00 | 02:07:30 | 00:00:00 | |
| OE5MMP-10 | 2026-08-31 05:59:24 | 48.06057 | 12.20396 | 55° | 15km/h | 20373m | 4.9m/s | -53.7°C | 2.5% | 54.9hPa | 2.5V | 00:00:00 | 02:07:29 | 00:00:00 | |
| DB0NH | 2026-08-31 05:59:23 | 48.06056 | 12.20394 | 59° | 15km/h | 20369m | 4.4m/s | -53.8°C | 2.6% | 55.0hPa | 2.5V | 00:00:00 | 02:07:28 | 00:00:00 | |
| NBG1-10 | 2026-08-31 05:59:22 | 48.06055 | 12.20393 | 1° | 18km/h | 20363m | 7.0m/s | -53.8°C | 2.6% | 55.0hPa | 2.5V | 00:00:00 | 02:07:27 | 00:00:00 | |
| DL1ZP-14 | 2026-08-31 05:59:20 | 48.06048 | 12.20393 | 3° | 20km/h | 20352m | 4.1m/s | -53.6°C | 0.0% | 55.2hPa | 2.5V | 00:00:00 | 00:00:00 | 00:00:00 | |
| S52SK | 2026-08-31 05:59:17 | 48.06035 | 12.20390 | 19° | 26km/h | 20343m | 6.1m/s | -53.7°C | 0% | 55.3hPa | 2.6V | 00:00:00 | 00:00:00 | 00:00:00 | |
| OM5KV | 2026-08-31 05:59:16 | 48.06030 | 12.20387 | 27° | 20km/h | 20337m | 6.6m/s | -53.6°C | 0.0% | 55.3hPa | 2.6V | 00:00:00 | 00:00:00 | 00:00:00 | |
| BIOWL1-15 | 2026-08-31 05:59:00 | 48.05979 | 12.20329 | 62° | 18km/h | 20241m | 5.9m/s | 0°C | 0% | 0hPa | 2.6V | 18:12:15 | 02:07:04 | 00:00:00 | i |
| DM0DOS-11 | 2026-08-31 05:58:59 | 48.05963 | 12.20312 | 56° | 9km/h | 20214m | 6.2m/s | -53.9°C | 0% | 0hPa | 2.6V | 08:30:00 | 02:06:59 | 00:00:00 | i |
| BIOWL9-15 | 2026-08-31 05:58:49 | 48.05936 | 12.20294 | 61° | 11km/h | 20170m | 5.0m/s | 0°C | -1.0% | -1.0hPa | 2.6V | 00:00:00 | 00:00:00 | 00:00:00 | |
| DM0DOS-11 | 2026-08-31 05:58:48 | 48.05934 | 12.20291 | 46° | 9km/h | 20165m | 5.1m/s | -53.7°C | 0% | 0hPa | 2.6V | 08:30:00 | 02:06:49 | 00:00:00 | i |
| S52SK | 2026-08-31 05:58:47 | 48.05946 | 12.20304 | 8° | 20km/h | 20185m | 3.4m/s | -53.7°C | 0.0% | 56.6hPa | 2.5V | 00:00:00 | 00:00:00 | 00:00:00 | |
| BAUMI2-15 | 2026-08-31 05:58:46 | 48.05938 | 12.20299 | 48° | 15km/h | 20176m | 5.4m/s | -53.7°C | 2.5% | 56.7hPa | 2.5V | 00:00:00 | 02:06:51 | 00:00:00 | |
| NBG1-10 | 2026-08-31 05:58:45 | 48.05936 | 12.20294 | 62° | 11km/h | 20170m | 4.9m/s | -53.7°C | 2.5% | 56.7hPa | 2.6V | 00:00:00 | 02:06:50 | 00:00:00 | |
| DO3MHA-11 | 2026-08-31 05:58:44 | 48.05934 | 12.20291 | 47° | 15km/h | 20165m | 5.1m/s | -53.6°C | 2.5% | 56.8hPa | 2.6V | 00:00:00 | 02:06:49 | 00:00:00 | |
| OM5KV | 2026-08-31 05:58:43 | 48.05934 | 12.20291 | 48° | 9km/h | 20165m | 5.1m/s | -53.7°C | 0.0% | 56.8hPa | 2.6V | 00:00:00 | 00:00:00 | 00:00:00 | |
| OE5GOL-10 | 2026-08-31 05:58:41 | 48.05925 | 12.20288 | 6° | 15km/h | 20150m | 4.7m/s | -53.8°C | 2.5% | 56.9hPa | 2.6V | 00:00:00 | 02:06:46 | 00:00:00 | |
| DF7PN | 2026-08-31 05:58:40 | 48.05912 | 12.20282 | 30° | 15km/h | 20134m | 3.9m/s | -53.9°C | 0.0% | 57.1hPa | 2.6V | 00:00:00 | 00:00:00 | 00:00:00 | |
| DM0DOS-11 | 2026-08-31 05:58:38 | 48.05900 | 12.20286 | 326° | 16km/h | 20114m | 4.7m/s | -53.9°C | 0% | 0hPa | 2.6V | 08:30:00 | 02:06:39 | 00:00:00 | i |
| BIOWL1-15 | 2026-08-31 05:58:35 | 48.05900 | 12.20286 | 327° | 16km/h | 20114m | 4.7m/s | 0°C | 0% | 0hPa | 2.6V | 18:12:15 | 02:06:39 | 00:00:00 | i |
| DK7TD | 2026-08-31 05:58:24 | 48.05861 | 12.20296 | 343° | 15km/h | 20064m | 5.5m/s | 0°C | 0% | 0hPa | 2.5V | 18:12:15 | 02:06:29 | 00:00:00 | i |
| OE5MMP-10 | 2026-08-31 05:58:24 | 48.05861 | 12.20296 | 343° | 11km/h | 20064m | 5.4m/s | -53.8°C | 2.5% | 57.6hPa | 2.6V | 00:00:00 | 02:06:29 | 00:00:00 | i |
| DM0DOS-11 | 2026-08-31 05:58:23 | 48.05856 | 12.20296 | 11° | 5km/h | 20054m | 4.2m/s | -53.8°C | 0% | 0hPa | 2.6V | 08:30:00 | 02:06:27 | 00:00:00 | i |
| BIOWL1-15 | 2026-08-31 05:58:19 | 48.05849 | 12.20302 | 316° | 15km/h | 20039m | 4.2m/s | 0°C | 0% | 0hPa | 2.5V | 18:12:15 | 02:06:24 | 00:00:00 | i |
| DB0NH | 2026-08-31 05:58:19 | 48.05849 | 12.20302 | 316° | 7km/h | 20039m | 4.2m/s | -53.6°C | 2.5% | 57.9hPa | 2.6V | 00:00:00 | 02:06:24 | 00:00:00 | i |
| S52SK | 2026-08-31 05:58:18 | 48.05849 | 12.20302 | 317° | 15km/h | 20039m | 4.2m/s | -53.7°C | 0.0% | 58.0hPa | 2.6V | 00:00:00 | 00:00:00 | 00:00:00 | |
| OE5REO-15 | 2026-08-31 05:58:17 | 48.05846 | 12.20305 | 336° | 15km/h | 20035m | 5.6m/s | 0°C | 0% | 0hPa | 2.6V | 00:00:00 | 00:00:00 | 00:00:00 | |
| OM5KV | 2026-08-31 05:58:16 | 48.05843 | 12.20306 | 356° | 11km/h | 20028m | 6.5m/s | -53.7°C | 0.0% | 58.0hPa | 2.6V | 00:00:00 | 00:00:00 | 00:00:00 | |
| DM0DOS-11 | 2026-08-31 05:58:15 | 48.05835 | 12.20315 | 279° | 13km/h | 20002m | 5m/s | -53.5°C | 0% | 0hPa | 2.6V | 08:30:00 | 02:06:17 | 00:00:00 | i |
| BIOWL1-15 | 2026-08-31 05:58:10 | 48.05831 | 12.20323 | 13° | 5km/h | 19981m | 4.5m/s | 0°C | 0% | 0hPa | 2.5V | 18:12:15 | 02:06:13 | 00:00:00 | i |
| BAUMI2-15 | 2026-08-31 05:58:10 | 48.05834 | 12.20322 | 322° | 5km/h | 19991m | 5.9m/s | -53.6°C | 2.5% | 58.3hPa | 2.6V | 00:00:00 | 02:06:15 | 00:00:00 | i |
| DF7PN | 2026-08-31 05:58:08 | 48.05829 | 12.20322 | 1° | 4km/h | 19976m | 5.6m/s | -53.7°C | 0.0% | 58.5hPa | 2.6V | 00:00:00 | 00:00:00 | 00:00:00 | |
| BAUMI2-15 | 2026-08-31 05:58:05 | 48.05827 | 12.20326 | 295° | 7km/h | 19966m | 4.7m/s | -53.6°C | 2.5% | 58.6hPa | 2.6V | 00:00:00 | 02:06:10 | 00:00:00 | |
| DO3MHA-11 | 2026-08-31 05:58:04 | 48.05826 | 12.20330 | 293° | 7km/h | 19961m | 3.9m/s | -53.6°C | 2.5% | 58.6hPa | 2.6V | 00:00:00 | 02:06:09 | 00:00:00 | |
| DM0DOS-11 | 2026-08-31 05:58:03 | 48.05825 | 12.20334 | 359° | 4km/h | 19952m | 5.9m/s | -53.8°C | 0% | 0hPa | 2.6V | 08:30:00 | 02:06:07 | 00:00:00 | i |
| BIOWL1-15 | 2026-08-31 05:57:59 | 48.05825 | 12.20329 | 254° | 11km/h | 19925m | 4.4m/s | 0°C | 0% | 0hPa | 2.5V | 18:12:15 | 02:06:02 | 00:00:00 | i |
| OE5FHM-15 | 2026-08-31 05:57:59 | 48.05824 | 12.20327 | 82° | 7km/h | 19936m | 5.0m/s | -53.8°C | 2.5% | 58.9hPa | 2.6V | 00:00:00 | 02:06:04 | 00:00:00 | i |
| OM5KV | 2026-08-31 05:57:58 | 48.05824 | 12.20327 | 82° | 4km/h | 19936m | 5.1m/s | -53.9°C | 0.0% | 58.9hPa | 2.6V | 00:00:00 | 00:00:00 | 00:00:00 | |
| DB0UT-7 | 2026-08-31 05:57:55 | 48.05826 | 12.20336 | 241° | 7km/h | 19917m | 5.2m/s | -53.8°C | 2.5% | 59.0hPa | 2.6V | 00:00:00 | 00:00:00 | 00:00:00 | |
| DO3MHA-11 | 2026-08-31 05:57:54 | 48.05827 | 12.20338 | 188° | 5km/h | 19912m | 5.6m/s | -53.8°C | 2.5% | 59.1hPa | 2.6V | 00:00:00 | 02:05:59 | 00:00:00 | |
| DM0DOS-11 | 2026-08-31 05:57:53 | 48.05826 | 12.20332 | 74° | 11km/h | 19902m | 4.9m/s | -53.9°C | 0% | 0hPa | 2.5V | 08:30:00 | 02:05:57 | 00:00:00 | i |
| DL1ZP-14 | 2026-08-31 05:57:47 | 48.05823 | 12.20322 | 75° | 7km/h | 19866m | 4.8m/s | -53.8°C | 0.0% | 59.5hPa | 2.5V | 00:00:00 | 00:00:00 | 00:00:00 | |
| BIOWL1-15 | 2026-08-31 05:57:43 | 48.05819 | 12.20317 | 357° | 5km/h | 19850m | 5.5m/s | 0°C | 0% | 0hPa | 2.6V | 18:12:15 | 02:05:47 | 00:00:00 | i |
| DM0DOS-11 | 2026-08-31 05:57:43 | 48.05819 | 12.20317 | 357° | 5km/h | 19850m | 5.5m/s | 0°C | 0% | 0hPa | 2.6V | 00:00:00 | 02:05:47 | 00:00:00 | i |
| DB0NH | 2026-08-31 05:57:42 | 48.05819 | 12.20317 | 358° | 9km/h | 19850m | 5.4m/s | -53.8°C | 2.5% | 59.6hPa | 2.5V | 00:00:00 | 02:05:47 | 00:00:00 | |
| OE5GOL-10 | 2026-08-31 05:57:41 | 48.05818 | 12.20317 | 3° | 11km/h | 19845m | 4.4m/s | -53.8°C | 2.6% | 59.7hPa | 2.5V | 00:00:00 | 02:05:46 | 00:00:00 | |
| BAUMI2-15 | 2026-08-31 05:57:40 | 48.05817 | 12.20316 | 71° | 9km/h | 19841m | 4.2m/s | -53.9°C | 2.5% | 59.8hPa | 2.6V | 00:00:00 | 02:05:45 | 00:00:00 | |
| DF7PN | 2026-08-31 05:57:37 | 48.05815 | 12.20306 | 61° | 11km/h | 19825m | 4.4m/s | -53.9°C | 0.0% | 59.9hPa | 2.6V | 00:00:00 | 00:00:00 | 00:00:00 | |
| OM5KV | 2026-08-31 05:57:36 | 48.05816 | 12.20306 | 62° | 13km/h | 19825m | 4.4m/s | -53.9°C | 0.0% | 59.9hPa | 2.6V | 00:00:00 | 00:00:00 | 00:00:00 | |
| BAUMI2-15 | 2026-08-31 05:57:35 | 48.05811 | 12.20303 | 343° | 9km/h | 19815m | 6.4m/s | -53.8°C | 2.5% | 60.0hPa | 2.6V | 00:00:00 | 02:05:40 | 00:00:00 | |
| DM0DOS-11 | 2026-08-31 05:57:34 | 48.05803 | 12.20313 | 315° | 13km/h | 19799m | 5.5m/s | 0°C | 0% | 0hPa | 2.6V | 00:00:00 | 02:05:37 | 00:00:00 | i |
| BIOWL1-15 | 2026-08-31 05:57:32 | 48.05799 | 12.20313 | 48° | 7km/h | 19789m | 4.6m/s | 0°C | 0% | 0hPa | 2.5V | 18:12:15 | 02:05:35 | 00:00:00 | i |
| OE5WHR-10 | 2026-08-31 05:57:31 | 48.05801 | 12.20314 | 11° | 11km/h | 19794m | 5.7m/s | -53.7°C | 2.4% | 60.2hPa | 2.5V | 00:00:00 | 02:05:36 | 00:00:00 | |
| BAUMI2-15 | 2026-08-31 05:57:30 | 48.05799 | 12.20313 | 48° | 9km/h | 19789m | 4.6m/s | -53.7°C | 2.4% | 60.2hPa | 2.5V | 00:00:00 | 02:05:35 | 00:00:00 | |
| OE5FHM-15 | 2026-08-31 05:57:29 | 48.05798 | 12.20311 | 49° | 11km/h | 19785m | 4.1m/s | -53.7°C | 2.4% | 60.2hPa | 2.5V | 00:00:00 | 02:05:34 | 00:00:00 | |
| DG1MJG | 2026-08-31 05:57:28 | 48.05798 | 12.20311 | 49° | 9km/h | 19785m | 4.1m/s | -53.7°C | 0.0% | 60.3hPa | 2.6V | 00:00:00 | 00:00:00 | 00:00:00 | |
| DM0DOS-11 | 2026-08-31 05:57:27 | 48.05786 | 12.20323 | 354° | 7km/h | 19748m | 4.7m/s | 0°C | 0% | 0hPa | 2.6V | 00:00:00 | 02:05:27 | 00:00:00 | |
| BIOWL1-15 | 2026-08-31 05:57:19 | 48.05772 | 12.20332 | 342° | 16km/h | 19723m | 4.4m/s | 0°C | 0% | 0hPa | 2.6V | 18:12:15 | 02:05:22 | 00:00:00 | i |
| BAUMI2-15 | 2026-08-31 05:57:18 | 48.05775 | 12.20329 | 333° | 15km/h | 19728m | 4.3m/s | -54.4°C | 2.5% | 60.8hPa | 2.6V | 00:00:00 | 02:05:23 | 00:00:00 | |
| OM5KV | 2026-08-31 05:57:17 | 48.05775 | 12.20329 | 333° | 15km/h | 19728m | 4.4m/s | -54.4°C | 0.1% | 60.9hPa | 2.6V | 00:00:00 | 00:00:00 | 00:00:00 | |
| OE5DRO-10 | 2026-08-31 05:57:16 | 48.05768 | 12.20332 | 12° | 13km/h | 19718m | 6.0m/s | -54.6°C | 2.6% | 60.9hPa | 2.6V | 00:00:00 | 00:00:00 | 00:00:00 | |
| S52SK | 2026-08-31 05:57:15 | 48.05768 | 12.20332 | 13° | 15km/h | 19718m | 6.1m/s | -54.7°C | 0.1% | 60.9hPa | 2.6V | 00:00:00 | 00:00:00 | 00:00:00 | |
| DM0DOS-11 | 2026-08-31 05:57:14 | 48.05760 | 12.20325 | 320° | 7km/h | 19697m | 5.9m/s | 0°C | 0% | 0hPa | 2.6V | 00:00:00 | 02:05:17 | 00:00:00 | i |
| DO3MHA-11 | 2026-08-31 05:57:14 | 48.05763 | 12.20327 | 40° | 13km/h | 19708m | 3.9m/s | -54.7°C | 2.6% | 61.0hPa | 2.5V | 00:00:00 | 02:05:19 | 00:00:00 | i |
| BAUMI2-15 | 2026-08-31 05:57:13 | 48.05761 | 12.20325 | 41° | 11km/h | 19703m | 5.1m/s | -54.9°C | 2.6% | 61.0hPa | 2.5V | 00:00:00 | 02:05:18 | 00:00:00 | |
| OE5GOL-10 | 2026-08-31 05:57:11 | 48.05758 | 12.20328 | 321° | 13km/h | 19692m | 4.5m/s | -55.0°C | 2.7% | 61.1hPa | 2.6V | 00:00:00 | 02:05:16 | 00:00:00 | |
| OE5WHR-10 | 2026-08-31 05:57:10 | 48.05755 | 12.20331 | 324° | 13km/h | 19688m | 4.6m/s | -55.0°C | 2.7% | 61.2hPa | 2.6V | 00:00:00 | 00:00:00 | 08:30:00 | |
| BAUMI2-15 | 2026-08-31 05:57:08 | 48.05747 | 12.20334 | 6° | 16km/h | 19677m | 4.4m/s | -55.2°C | 2.7% | 61.2hPa | 2.5V | 00:00:00 | 02:05:13 | 00:00:00 | |
| DB0NH | 2026-08-31 05:57:07 | 48.05743 | 12.20333 | 16° | 11km/h | 19673m | 3.5m/s | -55.2°C | 2.7% | 61.3hPa | 2.5V | 00:00:00 | 02:05:12 | 00:00:00 | |
| DF7PN | 2026-08-31 05:57:06 | 48.05739 | 12.20331 | 25° | 15km/h | 19669m | 4.1m/s | -55.3°C | 0.1% | 61.4hPa | 2.6V | 00:00:00 | 00:00:00 | 00:00:00 | |
| PG1ADW-2 | 2026-08-31 05:57:05 | 48.05736 | 12.20329 | 31° | 13km/h | 19664m | 5.8m/s | -55.3°C | 2.7% | 61.4hPa | 2.6V | 00:00:00 | 02:05:10 | 00:00:00 | |
| DO3MHA-11 | 2026-08-31 05:57:04 | 48.05735 | 12.20329 | 335° | 13km/h | 19658m | 5.8m/s | -55.4°C | 2.8% | 61.5hPa | 2.6V | 00:00:00 | 02:05:09 | 00:00:00 | |
| BAUMI2-15 | 2026-08-31 05:57:03 | 48.05733 | 12.20330 | 314° | 11km/h | 19654m | 3.9m/s | -55.4°C | 2.8% | 61.5hPa | 2.6V | 00:00:00 | 02:05:08 | 00:00:00 | |
| DL6DJ-15 | 2026-08-31 05:57:02 | 48.05732 | 12.20333 | 304° | 9km/h | 19650m | 4.0m/s | -55.4°C | 0.1% | 61.6hPa | 2.6V | 00:00:00 | 00:00:00 | 00:00:00 | |
| S52SK | 2026-08-31 05:57:00 | 48.05730 | 12.20336 | 330° | 11km/h | 19645m | 6.0m/s | -55.5°C | 0.1% | 61.7hPa | 2.6V | 00:00:00 | 00:00:00 | 00:00:00 | |
| BAUMI2-15 | 2026-08-31 05:56:58 | 48.05720 | 12.20334 | 13° | 20km/h | 19629m | 4.0m/s | -55.4°C | 2.8% | 61.8hPa | 2.6V | 00:00:00 | 02:05:03 | 08:30:00 | |
| OE8JPQ-2 | 2026-08-31 05:56:57 | 48.05716 | 12.20333 | 6° | 11km/h | 19624m | 5.9m/s | 0°C | 0% | 0hPa | 2.6V | 00:00:00 | 00:00:00 | 08:30:00 | |
| OE5DXL-15 | 2026-08-31 05:56:55 | 48.05709 | 12.20336 | 329° | 11km/h | 19613m | 4.0m/s | -55.5°C | 2.8% | 61.9hPa | 2.6V | 00:00:00 | 00:00:00 | 00:00:00 | |
| DO3MHA-11 | 2026-08-31 05:56:54 | 48.05706 | 12.20337 | 348° | 11km/h | 19610m | 3.2m/s | -55.4°C | 2.8% | 62.0hPa | 2.6V | 00:00:00 | 02:04:59 | 08:30:00 | |
| OM5KV | 2026-08-31 05:56:53 | 48.05706 | 12.20337 | 349° | 9km/h | 19610m | 3.2m/s | -55.5°C | 0.1% | 62.0hPa | 2.5V | 00:00:00 | 00:00:00 | 00:00:00 | |
| DK5PH-5 | 2026-08-31 05:56:50 | 48.05697 | 12.20323 | 56° | 13km/h | 19589m | 4.2m/s | -55.3°C | 2.8% | 62.1hPa | 2.5V | 00:00:00 | 02:04:55 | 08:30:00 | |
| OE5WHR-10 | 2026-08-31 05:56:49 | 48.05695 | 12.20319 | 39° | 9km/h | 19584m | 6.2m/s | -55.3°C | 2.8% | 62.2hPa | 2.6V | 00:00:00 | 00:00:00 | 00:00:00 | |
| OM5KV | 2026-08-31 05:56:48 | 48.05695 | 12.20319 | 40° | 13km/h | 19584m | 6.2m/s | -55.4°C | 0.1% | 62.2hPa | 2.6V | 00:00:00 | 00:00:00 | 00:00:00 | |
| DO3MHA-11 | 2026-08-31 05:56:44 | 48.05687 | 12.20313 | 83° | 11km/h | 19558m | 5.1m/s | -55.2°C | 2.7% | 62.5hPa | 2.6V | 00:00:00 | 02:04:49 | 00:00:00 | |
| S52SK | 2026-08-31 05:56:43 | 48.05686 | 12.20313 | 83° | 11km/h | 19558m | 5.2m/s | -55.3°C | 0.1% | 62.5hPa | 2.6V | 00:00:00 | 00:00:00 | 00:00:00 | |
| OM5KV | 2026-08-31 05:56:42 | 48.05686 | 12.20308 | 83° | 13km/h | 19553m | 4.5m/s | -55.2°C | 0.1% | 62.5hPa | 2.6V | 00:00:00 | 00:00:00 | 00:00:00 | |
| OE5GOL-10 | 2026-08-31 05:56:41 | 48.05686 | 12.20300 | 102° | 13km/h | 19543m | 5.8m/s | -55.4°C | 2.7% | 62.6hPa | 2.6V | 00:00:00 | 02:04:46 | 00:00:00 | |
| SONDE2-11 | 2026-08-31 05:56:40 | 48.05686 | 12.20299 | 7° | 2km/h | 19533m | 4.2m/s | -55.3°C | -1.0% | -1.0hPa | 2.6V | 00:00:00 | 00:00:00 | 00:00:00 | |
| DB0UT-7 | 2026-08-31 05:56:39 | 48.05686 | 12.20299 | 8° | 15km/h | 19533m | 4.1m/s | -55.3°C | 2.7% | 62.7hPa | 2.6V | 00:00:00 | 00:00:00 | 00:00:00 | |
| OE5DRO-10 | 2026-08-31 05:56:38 | 48.05684 | 12.20298 | 26° | 13km/h | 19529m | 5.3m/s | -55.3°C | 2.7% | 62.7hPa | 2.5V | 00:00:00 | 00:00:00 | 00:00:00 | |
| OE8JPQ-2 | 2026-08-31 05:56:37 | 48.05682 | 12.20296 | 45° | 15km/h | 19523m | 5.6m/s | 0°C | 0% | 0hPa | 2.5V | 00:00:00 | 00:00:00 | 00:00:00 | |
| OM5KV | 2026-08-31 05:56:36 | 48.05680 | 12.20290 | 66° | 20km/h | 19518m | 4.6m/s | -55.4°C | 0.1% | 62.9hPa | 2.5V | 00:00:00 | 00:00:00 | 00:00:00 | |
| DB0NH | 2026-08-31 05:56:35 | 48.05678 | 12.20284 | 70° | 13km/h | 19513m | 4.6m/s | -55.2°C | 2.7% | 62.9hPa | 2.5V | 00:00:00 | 02:04:40 | 00:00:00 | |
| OE5MMP-10 | 2026-08-31 05:56:34 | 48.05677 | 12.20276 | 74° | 13km/h | 19508m | 5.3m/s | -55.3°C | 2.7% | 63.0hPa | 2.5V | 00:00:00 | 02:04:39 | 00:00:00 | |
| S52SK | 2026-08-31 05:56:33 | 48.05677 | 12.20276 | 75° | 18km/h | 19508m | 5.4m/s | -55.3°C | 0.1% | 63.0hPa | 2.6V | 00:00:00 | 00:00:00 | 00:00:00 | |
| DL6DJ-15 | 2026-08-31 05:56:31 | 48.05677 | 12.20266 | 124° | 4km/h | 19494m | 4.8m/s | -55.4°C | 0.1% | 63.1hPa | 2.6V | 00:00:00 | 00:00:00 | 00:00:00 | |
| OM5KV | 2026-08-31 05:56:30 | 48.05677 | 12.20266 | 125° | 4km/h | 19494m | 4.8m/s | -55.4°C | 0.1% | 63.1hPa | 2.6V | 00:00:00 | 00:00:00 | 00:00:00 | |
| OE5WHR-10 | 2026-08-31 05:56:28 | 48.05677 | 12.20258 | 72° | 15km/h | 19479m | 4.9m/s | -55.6°C | 2.8% | 63.2hPa | 2.6V | 00:00:00 | 02:04:33 | 00:00:00 | |
| S52SK | 2026-08-31 05:56:27 | 48.05677 | 12.20258 | 72° | 16km/h | 19479m | 4.9m/s | -55.6°C | 0.1% | 63.3hPa | 2.6V | 00:00:00 | 00:00:00 | 00:00:00 | |
| OE5DXL-15 | 2026-08-31 05:56:25 | 48.05674 | 12.20240 | 95° | 16km/h | 19463m | 5.6m/s | -55.7°C | 2.8% | 63.4hPa | 2.6V | 00:00:00 | 00:00:00 | 00:00:00 | |
| OE5MMP-10 | 2026-08-31 05:56:24 | 48.05675 | 12.20234 | 117° | 13km/h | 19458m | 4.3m/s | -55.7°C | 2.9% | 63.4hPa | 2.6V | 00:00:00 | 02:04:29 | 00:00:00 | |
| NBG1-10 | 2026-08-31 05:56:21 | 48.05678 | 12.20219 | 88° | 18km/h | 19443m | 6.3m/s | -55.8°C | 2.8% | 63.6hPa | 2.6V | 00:00:00 | 02:04:26 | 00:00:00 | |
| OE5DRO-10 | 2026-08-31 05:56:19 | 48.05676 | 12.20208 | 75° | 16km/h | 19433m | 3.8m/s | -55.7°C | 2.9% | 63.7hPa | 2.6V | 00:00:00 | 00:00:00 | 08:30:00 | |
| DK5PH-5 | 2026-08-31 05:56:18 | 48.05675 | 12.20204 | 71° | 18km/h | 19429m | 6.2m/s | -55.8°C | 2.8% | 63.7hPa | 2.6V | 00:00:00 | 02:04:23 | 00:00:00 | |
| OM5KV | 2026-08-31 05:56:17 | 48.05675 | 12.20204 | 71° | 9km/h | 19429m | 6.3m/s | -55.8°C | 0.1% | 63.8hPa | 2.6V | 00:00:00 | 00:00:00 | 00:00:00 | |
| OE8JPQ-2 | 2026-08-31 05:56:15 | 48.05675 | 12.20195 | 78° | 22km/h | 19413m | 4.8m/s | 0°C | 0% | 0hPa | 2.6V | 00:00:00 | 02:04:20 | 00:00:00 | |
| DO3MHA-11 | 2026-08-31 05:56:14 | 48.05674 | 12.20190 | 83° | 16km/h | 19408m | 5.9m/s | -55.7°C | 2.8% | 63.9hPa | 2.6V | 00:00:00 | 02:04:19 | 00:00:00 | |
| OM5KV | 2026-08-31 05:56:13 | 48.05674 | 12.20190 | 84° | 18km/h | 19408m | 6.0m/s | -55.7°C | 0.1% | 64.0hPa | 2.6V | 00:00:00 | 00:00:00 | 00:00:00 | |
| S52SK | 2026-08-31 05:56:12 | 48.05673 | 12.20182 | 77° | 24km/h | 19402m | 5.1m/s | -55.7°C | 0.2% | 64.1hPa | 2.6V | 00:00:00 | 00:00:00 | 00:00:00 | |
| OE5GOL-10 | 2026-08-31 05:56:11 | 48.05671 | 12.20163 | 93° | 20km/h | 19393m | 4.8m/s | -55.7°C | 2.8% | 64.1hPa | 2.6V | 00:00:00 | 02:04:16 | 00:00:00 | |
| OE5FHM-15 | 2026-08-31 05:56:10 | 48.05672 | 12.20155 | 100° | 20km/h | 19387m | 5.5m/s | -55.6°C | 2.8% | 64.2hPa | 2.5V | 00:00:00 | 02:04:15 | 00:00:00 | |
| DB0UT-7 | 2026-08-31 05:56:09 | 48.05673 | 12.20150 | 120° | 18km/h | 19383m | 4.4m/s | -55.6°C | 2.8% | 64.2hPa | 2.5V | 00:00:00 | 02:04:14 | 00:00:00 | |
| OM5KV | 2026-08-31 05:56:08 | 48.05673 | 12.20150 | 120° | 11km/h | 19383m | 4.5m/s | -55.6°C | 0.1% | 64.3hPa | 2.5V | 00:00:00 | 00:00:00 | 00:00:00 | |
| OE5WHR-10 | 2026-08-31 05:56:07 | 48.05673 | 12.20147 | 40° | 20km/h | 19373m | 5.6m/s | -55.6°C | 2.8% | 64.3hPa | 2.5V | 00:00:00 | 00:00:00 | 00:00:00 | |
| S52SK | 2026-08-31 05:56:06 | 48.05673 | 12.20147 | 41° | 9km/h | 19373m | 5.6m/s | -55.7°C | 0.1% | 64.3hPa | 2.6V | 00:00:00 | 00:00:00 | 00:00:00 | |
| OE5MMP-10 | 2026-08-31 05:56:04 | 48.05664 | 12.20130 | 72° | 20km/h | 19358m | 4.1m/s | -55.6°C | 2.9% | 64.4hPa | 2.6V | 00:00:00 | 02:04:09 | 08:30:00 | |
| DB0NH | 2026-08-31 05:56:03 | 48.05663 | 12.20120 | 83° | 31km/h | 19354m | 5.7m/s | -55.6°C | 2.8% | 64.5hPa | 2.6V | 00:00:00 | 02:04:08 | 00:00:00 | |
| OE5DRO-10 | 2026-08-31 05:56:00 | 48.05664 | 12.20097 | 87° | 22km/h | 19339m | 4.0m/s | -55.7°C | 2.9% | 64.7hPa | 2.6V | 00:00:00 | 00:00:00 | 00:00:00 | |
| OM5KV | 2026-08-31 05:55:58 | 48.05664 | 12.20092 | 74° | 15km/h | 19334m | 6.0m/s | -55.8°C | 0.2% | 64.7hPa | 2.6V | 00:00:00 | 00:00:00 | 00:00:00 | |
| DG1MJG | 2026-08-31 05:55:57 | 48.05661 | 12.20087 | 46° | 20km/h | 19329m | 5.7m/s | -55.8°C | 0.1% | 64.8hPa | 2.6V | 00:00:00 | 00:00:00 | 00:00:00 | |
| OE5DXL-15 | 2026-08-31 05:55:55 | 48.05652 | 12.20069 | 71° | 26km/h | 19314m | 5.3m/s | -55.8°C | 2.8% | 64.9hPa | 2.6V | 00:00:00 | 00:00:00 | 00:00:00 | |
| DO3MHA-11 | 2026-08-31 05:55:54 | 48.05651 | 12.20062 | 97° | 20km/h | 19309m | 4.9m/s | -55.9°C | 2.9% | 65.0hPa | 2.6V | 00:00:00 | 02:03:59 | 00:00:00 | |
| OM5KV | 2026-08-31 05:55:52 | 48.05652 | 12.20056 | 97° | 16km/h | 19305m | 4.4m/s | -55.9°C | 0.1% | 65.0hPa | 2.6V | 00:00:00 | 00:00:00 | 00:00:00 | |
| DK5PH-5 | 2026-08-31 05:55:48 | 48.05643 | 12.20024 | 57° | 31km/h | 19280m | 5.3m/s | -55.8°C | 2.7% | 65.3hPa | 2.6V | 00:00:00 | 02:03:53 | 00:00:00 | |
| OM5KV | 2026-08-31 05:55:47 | 48.05643 | 12.20024 | 57° | 22km/h | 19280m | 5.4m/s | -55.9°C | 0.1% | 65.3hPa | 2.6V | 00:00:00 | 00:00:00 | 00:00:00 | |
| OE5WHR-10 | 2026-08-31 05:55:46 | 48.05639 | 12.20009 | 77° | 29km/h | 19269m | 4.4m/s | -55.8°C | 2.8% | 65.3hPa | 2.6V | 00:00:00 | 00:00:00 | 00:00:00 | |
| OE5MMP-10 | 2026-08-31 05:55:44 | 48.05636 | 12.19990 | 71° | 27km/h | 19260m | 6.0m/s | -55.9°C | 2.8% | 65.4hPa | 2.6V | 00:00:00 | 02:03:49 | 00:00:00 | |
| DL1ZP-14 | 2026-08-31 05:55:42 | 48.05628 | 12.19971 | 45° | 27km/h | 19249m | 4.7m/s | -56.0°C | -1.0% | 65.6hPa | 2.6V | 00:00:00 | 00:00:00 | 00:00:00 | |
| OE5GOL-10 | 2026-08-31 05:55:41 | 48.05623 | 12.19964 | 41° | 33km/h | 19244m | 4.2m/s | -56.0°C | 2.8% | 65.6hPa | 2.5V | 00:00:00 | 02:03:46 | 00:00:00 | |
| DB0UT-7 | 2026-08-31 05:55:39 | 48.05616 | 12.19953 | 54° | 33km/h | 19234m | 4.4m/s | -56.0°C | 2.8% | 65.7hPa | 2.5V | 00:00:00 | 00:00:00 | 00:00:00 | |
| SONDE2-11 | 2026-08-31 05:55:38 | 48.05611 | 12.19936 | 69° | 27km/h | 19225m | 5.8m/s | 0°C | -1.0% | -1.0hPa | 2.5V | 00:00:00 | 00:00:00 | 00:00:00 | |
| OM5KV | 2026-08-31 05:55:36 | 48.05611 | 12.19936 | 70° | 29km/h | 19225m | 5.8m/s | -56.2°C | 0.1% | 65.8hPa | 2.5V | 00:00:00 | 00:00:00 | 00:00:00 | |
| OM5KV | 2026-08-31 05:55:35 | 48.05608 | 12.19925 | 68° | 35km/h | 19219m | 5.4m/s | -56.2°C | 0.2% | 65.9hPa | 2.5V | 00:00:00 | 00:00:00 | 00:00:00 | |
| OE5MMP-10 | 2026-08-31 05:55:34 | 48.05600 | 12.19903 | 56° | 31km/h | 19209m | 5.3m/s | -56.5°C | 2.9% | 66.0hPa | 2.5V | 00:00:00 | 02:03:39 | 00:00:00 | |
| OE5FHM-15 | 2026-08-31 05:55:33 | 48.05595 | 12.19893 | 55° | 37km/h | 19204m | 6.0m/s | -56.7°C | 3.0% | 66.0hPa | 2.6V | 00:00:00 | 02:03:38 | 08:30:00 | |
| OM5KV | 2026-08-31 05:55:31 | 48.05591 | 12.19886 | 50° | 26km/h | 19198m | 4.6m/s | -56.8°C | 0.2% | 66.2hPa | 2.6V | 00:00:00 | 00:00:00 | 00:00:00 | |
| DL6DJ-15 | 2026-08-31 05:55:29 | 48.05572 | 12.19850 | 52° | 37km/h | 19178m | 5.2m/s | -56.8°C | 0.2% | 66.3hPa | 2.6V | 00:00:00 | 00:00:00 | 00:00:00 | |
| DG1MJG | 2026-08-31 05:55:26 | 48.05567 | 12.19839 | 59° | 38km/h | 19173m | 4.4m/s | -56.9°C | 0.2% | 66.4hPa | 2.6V | 00:00:00 | 00:00:00 | 00:00:00 | |
| OE8JPQ-2 | 2026-08-31 05:55:25 | 48.05558 | 12.19817 | 66° | 37km/h | 19162m | 4.9m/s | 0°C | 0% | 0hPa | 2.6V | 00:00:00 | 00:00:00 | 00:00:00 | |
| DO3MHA-11 | 2026-08-31 05:55:24 | 48.05555 | 12.19806 | 65° | 37km/h | 19158m | 3.8m/s | -56.7°C | 3.0% | 66.5hPa | 2.6V | 00:00:00 | 02:03:29 | 08:30:00 | |
| OM5KV | 2026-08-31 05:55:23 | 48.05555 | 12.19806 | 66° | 31km/h | 19158m | 3.9m/s | -56.8°C | 0.2% | 66.6hPa | 2.6V | 00:00:00 | 00:00:00 | 00:00:00 | |
| OE5DRO-10 | 2026-08-31 05:55:22 | 48.05545 | 12.19783 | 53° | 37km/h | 19147m | 6.1m/s | -56.7°C | 3.0% | 66.7hPa | 2.6V | 00:00:00 | 00:00:00 | 00:00:00 | |
| OM5KV | 2026-08-31 05:55:19 | 48.05529 | 12.19761 | 38° | 46km/h | 19137m | 4.6m/s | -56.7°C | 0.2% | 66.8hPa | 2.5V | 00:00:00 | 00:00:00 | 00:00:00 | |
| DK5PH-5 | 2026-08-31 05:55:18 | 48.05514 | 12.19744 | 41° | 35km/h | 19126m | 4.7m/s | -56.6°C | 3.0% | 66.9hPa | 2.5V | 00:00:00 | 02:03:23 | 00:00:00 | |
| OM5KV | 2026-08-31 05:55:17 | 48.05513 | 12.19744 | 41° | 33km/h | 19126m | 4.8m/s | -56.7°C | 0.2% | 66.9hPa | 2.6V | 00:00:00 | 00:00:00 | 00:00:00 | |
| DO3MHA-11 | 2026-08-31 05:55:14 | 48.05494 | 12.19702 | 55° | 37km/h | 19106m | 4.7m/s | -56.5°C | 3.0% | 67.1hPa | 2.6V | 00:00:00 | 02:03:19 | 00:00:00 | |
| OM5KV | 2026-08-31 05:55:13 | 48.05494 | 12.19702 | 55° | 42km/h | 19106m | 4.8m/s | -56.6°C | 0.2% | 67.1hPa | 2.6V | 00:00:00 | 00:00:00 | 00:00:00 | |
| OM5KV | 2026-08-31 05:55:11 | 48.05480 | 12.19679 | 41° | 37km/h | 19096m | 6.2m/s | -56.5°C | 0.1% | 67.2hPa | 2.6V | 00:00:00 | 00:00:00 | 00:00:00 | |
| NBG1-10 | 2026-08-31 05:55:10 | 48.05466 | 12.19664 | 32° | 33km/h | 19086m | 3.9m/s | -56.4°C | 3.0% | 67.3hPa | 2.6V | 00:00:00 | 02:03:15 | 00:00:00 | |
| DB0UT-7 | 2026-08-31 05:55:09 | 48.05459 | 12.19658 | 36° | 33km/h | 19081m | 5.7m/s | -56.4°C | 3.0% | 67.3hPa | 2.6V | 00:00:00 | 02:03:14 | 08:30:00 | |
| S52SK | 2026-08-31 05:55:08 | 48.05459 | 12.19658 | 36° | 33km/h | 19081m | 5.8m/s | -56.4°C | 0.1% | 67.4hPa | 2.5V | 00:00:00 | 00:00:00 | 00:00:00 | |
| OM5KV | 2026-08-31 05:55:07 | 48.05453 | 12.19649 | 48° | 35km/h | 19075m | 6.1m/s | -56.4°C | 0.1% | 67.4hPa | 2.5V | 00:00:00 | 00:00:00 | 00:00:00 | |
| OM5KV | 2026-08-31 05:55:05 | 48.05440 | 12.19628 | 50° | 38km/h | 19065m | 4.2m/s | -56.4°C | 0.1% | 67.6hPa | 2.5V | 00:00:00 | 00:00:00 | 00:00:00 | |
| DO3MHA-11 | 2026-08-31 05:55:04 | 48.05427 | 12.19610 | 34° | 33km/h | 19054m | 5.3m/s | -56.3°C | 2.9% | 67.6hPa | 2.5V | 00:00:00 | 02:03:09 | 00:00:00 | |
| OE5DRO-10 | 2026-08-31 05:55:03 | 48.05420 | 12.19604 | 26° | 33km/h | 19049m | 4.6m/s | -56.2°C | 2.9% | 67.7hPa | 2.5V | 00:00:00 | 00:00:00 | 00:00:00 | |
| DF7PN | 2026-08-31 05:55:02 | 48.05407 | 12.19593 | 40° | 29km/h | 19037m | 6.8m/s | -56.3°C | 0.2% | 67.8hPa | 2.5V | 00:00:00 | 00:00:00 | 00:00:00 | |
| DL6DJ-15 | 2026-08-31 05:54:58 | 48.05379 | 12.19559 | 28° | 38km/h | 19016m | 5.7m/s | -56.3°C | 0.1% | 68.1hPa | 2.5V | 00:00:00 | 00:00:00 | 00:00:00 | |
| OM5KV | 2026-08-31 05:54:57 | 48.05387 | 12.19567 | 38° | 37km/h | 19022m | 6.1m/s | -56.3°C | 0.2% | 68.0hPa | 2.5V | 00:00:00 | 00:00:00 | 00:00:00 | |
| DG1MJG | 2026-08-31 05:54:56 | 48.05379 | 12.19559 | 30° | 38km/h | 19016m | 5.7m/s | -56.3°C | 0.1% | 68.1hPa | 2.5V | 00:00:00 | 00:00:00 | 00:00:00 | |
| OE5DXL-15 | 2026-08-31 05:54:55 | 48.05363 | 12.19546 | 28° | 27km/h | 19006m | 5.1m/s | -56.1°C | 2.9% | 68.1hPa | 2.5V | 00:00:00 | 00:00:00 | 00:00:00 | |
| OE5MMP-10 | 2026-08-31 05:54:54 | 48.05356 | 12.19539 | 41° | 31km/h | 19000m | 6.1m/s | -56.1°C | 2.9% | 68.2hPa | 2.5V | 00:00:00 | 02:02:59 | 00:00:00 | |
| OM5KV | 2026-08-31 05:54:53 | 48.05356 | 12.19539 | 42° | 33km/h | 19000m | 6.1m/s | -56.1°C | 0.1% | 68.2hPa | 2.5V | 00:00:00 | 00:00:00 | 00:00:00 | |
| OM5KV | 2026-08-31 05:54:51 | 48.05345 | 12.19524 | 41° | 29km/h | 18990m | 4.5m/s | -56.0°C | 0.1% | 68.4hPa | 2.5V | 00:00:00 | 00:00:00 | 00:00:00 | |
| DB0NH | 2026-08-31 05:54:50 | 48.05334 | 12.19514 | 15° | 26km/h | 18979m | 5.8m/s | -55.9°C | 2.9% | 68.5hPa | 2.5V | 00:00:00 | 02:02:55 | 08:30:00 | |
| BAUMI2-15 | 2026-08-31 05:54:49 | 48.05326 | 12.19511 | 12° | 31km/h | 18974m | 4.4m/s | -55.9°C | 2.9% | 68.5hPa | 2.6V | 00:00:00 | 02:02:54 | 00:00:00 | |
| DK5PH-5 | 2026-08-31 05:54:48 | 48.05318 | 12.19509 | 14° | 26km/h | 18970m | 4.1m/s | -55.8°C | 2.9% | 68.5hPa | 2.6V | 00:00:00 | 02:02:53 | 00:00:00 | |
| OM5KV | 2026-08-31 05:54:46 | 48.05311 | 12.19505 | 25° | 31km/h | 18964m | 6.1m/s | -55.8°C | 0.1% | 68.6hPa | 2.6V | 00:00:00 | 00:00:00 | 00:00:00 | |
| DO3MHA-11 | 2026-08-31 05:54:44 | 48.05292 | 12.19481 | 44° | 26km/h | 18949m | 4.6m/s | -55.7°C | 2.9% | 68.8hPa | 2.6V | 00:00:00 | 02:02:49 | 00:00:00 | |
| OE5WHR-10 | 2026-08-31 05:54:43 | 48.05286 | 12.19474 | 34° | 24km/h | 18943m | 5.5m/s | -55.6°C | 2.9% | 68.8hPa | 2.6V | 00:00:00 | 00:00:00 | 00:00:00 | |
| OE5GOL-10 | 2026-08-31 05:54:41 | 48.05272 | 12.19466 | 11° | 22km/h | 18933m | 4.4m/s | -55.5°C | 2.8% | 68.9hPa | 2.6V | 00:00:00 | 02:02:46 | 08:30:00 | |
| DB0UT-7 | 2026-08-31 05:54:39 | 48.05260 | 12.19464 | 15° | 22km/h | 18922m | 5.8m/s | -55.5°C | 2.8% | 69.0hPa | 2.6V | 00:00:00 | 00:00:00 | 00:00:00 | |
| BAUMI2-15 | 2026-08-31 05:54:38 | 48.05256 | 12.19461 | 32° | 26km/h | 18917m | 4.6m/s | -55.5°C | 2.8% | 69.1hPa | 2.6V | 00:00:00 | 02:02:43 | 00:00:00 | |
| NBG1-10 | 2026-08-31 05:54:37 | 48.05251 | 12.19457 | 29° | 22km/h | 18912m | 3.8m/s | -55.5°C | 2.8% | 69.2hPa | 2.6V | 00:00:00 | 02:02:42 | 00:00:00 | |
| OM5KV | 2026-08-31 05:54:35 | 48.05245 | 12.19453 | 28° | 26km/h | 18907m | 5.9m/s | -55.6°C | 0.1% | 69.2hPa | 2.6V | 00:00:00 | 00:00:00 | 00:00:00 | |
| DO3MHA-11 | 2026-08-31 05:54:34 | 48.05231 | 12.19446 | 13° | 24km/h | 18897m | 4.0m/s | -55.5°C | 2.9% | 69.3hPa | 2.6V | 00:00:00 | 02:02:39 | 00:00:00 | |
| BAUMI2-15 | 2026-08-31 05:54:33 | 48.05223 | 12.19443 | 15° | 29km/h | 18893m | 4.1m/s | -55.5°C | 2.8% | 69.4hPa | 2.6V | 00:00:00 | 02:02:38 | 00:00:00 | |
| OM5KV | 2026-08-31 05:54:29 | 48.05203 | 12.19432 | 37° | 18km/h | 18878m | 3.9m/s | -55.4°C | 0.2% | 69.6hPa | 2.6V | 00:00:00 | 00:00:00 | 00:00:00 | |
| BAUMI2-15 | 2026-08-31 05:54:28 | 48.05197 | 12.19426 | 27° | 22km/h | 18868m | 6.0m/s | -55.3°C | 2.8% | 69.6hPa | 2.6V | 00:00:00 | 02:02:33 | 00:00:00 | |
| DG1MJG | 2026-08-31 05:54:26 | 48.05192 | 12.19424 | 10° | 18km/h | 18863m | 5.4m/s | -55.3°C | 0.1% | 69.8hPa | 2.6V | 00:00:00 | 00:00:00 | 00:00:00 | |
| OE5DXL-15 | 2026-08-31 05:54:25 | 48.05181 | 12.19422 | 13° | 20km/h | 18855m | 3.7m/s | -55.2°C | 2.8% | 0hPa | 2.6V | 00:00:00 | 00:00:00 | 00:00:00 | |
| DO3MHA-11 | 2026-08-31 05:54:24 | 48.05175 | 12.19420 | 16° | 22km/h | 18850m | 6.1m/s | -55.2°C | 2.8% | 69.9hPa | 2.6V | 00:00:00 | 02:02:29 | 00:00:00 | |
| BAUMI2-15 | 2026-08-31 05:54:23 | 48.05169 | 12.19416 | 31° | 26km/h | 18844m | 6.2m/s | -55.2°C | 2.8% | 69.9hPa | 2.6V | 00:00:00 | 02:02:28 | 00:00:00 | |
| OE5WHR-10 | 2026-08-31 05:54:22 | 48.05165 | 12.19410 | 44° | 20km/h | 18838m | 4.3m/s | -55.2°C | 2.8% | 70.0hPa | 2.6V | 00:00:00 | 02:02:27 | 00:00:00 | |
| DB0NH | 2026-08-31 05:54:19 | 48.05149 | 12.19395 | 19° | 18km/h | 18823m | 6.3m/s | -55.1°C | 2.8% | 70.2hPa | 2.6V | 00:00:00 | 02:02:24 | 00:00:00 | |
| BAUMI2-15 | 2026-08-31 05:54:18 | 48.05143 | 12.19392 | 13° | 20km/h | 18818m | 4.6m/s | -55.1°C | 2.8% | 70.2hPa | 2.6V | 00:00:00 | 02:02:23 | 00:00:00 | |
| DK5PH-5 | 2026-08-31 05:54:17 | 48.05138 | 12.19391 | 7° | 16km/h | 18813m | 4.1m/s | -55.0°C | 2.8% | 70.3hPa | 2.6V | 00:00:00 | 02:02:22 | 00:00:00 | |
| DO3MHA-11 | 2026-08-31 05:54:14 | 48.05129 | 12.19384 | 45° | 18km/h | 18798m | 4.8m/s | -54.9°C | 2.8% | 70.4hPa | 2.6V | 00:00:00 | 02:02:19 | 00:00:00 | |
| S52SK | 2026-08-31 05:54:12 | 48.05125 | 12.19380 | 41° | 20km/h | 18793m | 5.5m/s | -55.0°C | 0.2% | 70.5hPa | 2.6V | 00:00:00 | 00:00:00 | 00:00:00 | |
| OE5GOL-10 | 2026-08-31 05:54:11 | 48.05116 | 12.19373 | 19° | 16km/h | 18783m | 4.0m/s | -54.9°C | 2.8% | 70.6hPa | 2.6V | 00:00:00 | 02:02:16 | 00:00:00 | |
| DB0UT-7 | 2026-08-31 05:54:09 | 48.05106 | 12.19368 | 19° | 15km/h | 18774m | 6.4m/s | -54.8°C | 2.7% | 70.7hPa | 2.6V | 00:00:00 | 02:02:14 | 00:00:00 | |
| OM5KV | 2026-08-31 05:54:07 | 48.05103 | 12.19365 | 52° | 15km/h | 18767m | 5.7m/s | -54.7°C | 0.1% | 70.8hPa | 2.6V | 00:00:00 | 00:00:00 | 00:00:00 | |
| OE5DRO-10 | 2026-08-31 05:54:06 | 48.05099 | 12.19356 | 59° | 16km/h | 18759m | 4.0m/s | -54.7°C | 2.7% | 70.9hPa | 2.6V | 00:00:00 | 00:00:00 | 00:00:00 | |
| OM5KV | 2026-08-31 05:54:05 | 48.05099 | 12.19356 | 59° | 16km/h | 18759m | 4.0m/s | -54.7°C | 0.1% | 70.9hPa | 2.6V | 00:00:00 | 00:00:00 | 00:00:00 | |
| OE5MMP-10 | 2026-08-31 05:54:04 | 48.05092 | 12.19347 | 23° | 18km/h | 18748m | 5.6m/s | -54.6°C | 2.7% | 71.0hPa | 2.6V | 00:00:00 | 02:02:09 | 00:00:00 | |
| OM5KV | 2026-08-31 05:54:01 | 48.05080 | 12.19341 | 13° | 24km/h | 18739m | 3.4m/s | -54.6°C | 0.1% | 71.1hPa | 2.6V | 00:00:00 | 00:00:00 | 00:00:00 | |
| DL6DJ-15 | 2026-08-31 05:53:56 | 48.05059 | 12.19317 | 27° | 18km/h | 18702m | 5.2m/s | -54.6°C | 0.1% | 71.5hPa | 2.6V | 00:00:00 | 00:00:00 | 00:00:00 | |
| OE5DXL-15 | 2026-08-31 05:53:55 | 48.05059 | 12.19317 | 28° | 16km/h | 18703m | 5.1m/s | -54.5°C | 2.7% | 71.5hPa | 2.6V | 00:00:00 | 00:00:00 | 08:30:00 | |
| DO3MHA-11 | 2026-08-31 05:53:54 | 48.05055 | 12.19314 | 24° | 13km/h | 18697m | 5.4m/s | -54.6°C | 2.6% | 71.5hPa | 2.6V | 00:00:00 | 02:01:59 | 08:30:00 | |
| S52SK | 2026-08-31 05:53:51 | 48.05049 | 12.19309 | 47° | 9km/h | 18686m | 4.3m/s | -54.6°C | 0.1% | 71.7hPa | 2.7V | 00:00:00 | 00:00:00 | 00:00:00 | |
| OM5KV | 2026-08-31 05:53:50 | 48.05047 | 12.19307 | 31° | 9km/h | 18681m | 4.7m/s | -54.6°C | 0.1% | 71.8hPa | 2.7V | 00:00:00 | 00:00:00 | 00:00:00 | |
| DB0NH | 2026-08-31 05:53:49 | 48.05042 | 12.19304 | 14° | 18km/h | 18671m | 5.8m/s | -54.5°C | 2.7% | 71.9hPa | 2.7V | 00:00:00 | 02:01:54 | 00:00:00 | |
| OE5DRO-10 | 2026-08-31 05:53:47 | 48.05033 | 12.19300 | 28° | 15km/h | 18662m | 3.1m/s | -54.5°C | 2.6% | 71.9hPa | 2.7V | 00:00:00 | 00:00:00 | 00:00:00 | |
| DK5PH-5 | 2026-08-31 05:53:46 | 48.05030 | 12.19297 | 34° | 18km/h | 18657m | 6.1m/s | -54.6°C | 2.6% | 71.9hPa | 2.7V | 00:00:00 | 02:01:51 | 00:00:00 | |
| OE8JPQ-2 | 2026-08-31 05:53:45 | 48.05028 | 12.19294 | 78° | 18km/h | 18652m | 6.1m/s | 0°C | 0% | 0hPa | 2.6V | 00:00:00 | 00:00:00 | 00:00:00 | |
| OE5MMP-10 | 2026-08-31 05:53:44 | 48.05028 | 12.19290 | 119° | 16km/h | 18646m | 4.2m/s | -54.7°C | 2.7% | 72.1hPa | 2.6V | 00:00:00 | 02:01:49 | 00:00:00 | |
| OE5GOL-10 | 2026-08-31 05:53:41 | 48.05027 | 12.19283 | 23° | 22km/h | 18632m | 6.4m/s | -54.7°C | 2.7% | 72.3hPa | 2.6V | 00:00:00 | 02:01:46 | 00:00:00 | |
| OE5WHR-10 | 2026-08-31 05:53:40 | 48.05022 | 12.19280 | 26° | 22km/h | 18626m | 4.6m/s | -54.7°C | 2.6% | 72.3hPa | 2.6V | 00:00:00 | 00:00:00 | 00:00:00 | |
| DB0UT-7 | 2026-08-31 05:53:39 | 48.05017 | 12.19276 | 25° | 24km/h | 18622m | 4.5m/s | -54.7°C | 2.6% | 72.4hPa | 2.6V | 00:00:00 | 00:00:00 | 00:00:00 | |
| DL1ZP-14 | 2026-08-31 05:53:38 | 48.05007 | 12.19265 | 51° | 18km/h | 18611m | 4.9m/s | -54.8°C | -1.0% | 72.6hPa | 2.7V | 00:00:00 | 00:00:00 | 00:00:00 | |
| BAUMI2-15 | 2026-08-31 05:53:35 | 48.05003 | 12.19256 | 73° | 13km/h | 18602m | 4.7m/s | -54.8°C | 2.6% | 72.6hPa | 2.6V | 00:00:00 | 02:01:40 | 00:00:00 | |
| DO3MHA-11 | 2026-08-31 05:53:34 | 48.05002 | 12.19253 | 26° | 22km/h | 18596m | 5.8m/s | -54.9°C | 2.6% | 72.7hPa | 2.6V | 00:00:00 | 02:01:39 | 00:00:00 | |
| BAUMI2-15 | 2026-08-31 05:53:30 | 48.04988 | 12.19247 | 39° | 26km/h | 18578m | 6.0m/s | -55.2°C | 2.7% | 72.9hPa | 2.6V | 00:00:00 | 02:01:35 | 00:00:00 | |
| NBG1-10 | 2026-08-31 05:53:29 | 48.04984 | 12.19242 | 45° | 22km/h | 18572m | 5.6m/s | -55.3°C | 2.7% | 73.0hPa | 2.6V | 00:00:00 | 02:01:34 | 00:00:00 | |
| OE5DRO-10 | 2026-08-31 05:53:28 | 48.04979 | 12.19235 | 49° | 26km/h | 18567m | 4.5m/s | -55.5°C | 2.7% | 73.1hPa | 2.6V | 00:00:00 | 00:00:00 | 08:30:00 | |
| BAUMI2-15 | 2026-08-31 05:53:25 | 48.04962 | 12.19215 | 31° | 29km/h | 18550m | 4.4m/s | -55.7°C | 2.8% | 73.3hPa | 2.7V | 00:00:00 | 02:01:30 | 00:00:00 | |
| DO3MHA-11 | 2026-08-31 05:53:24 | 48.04956 | 12.19210 | 34° | 26km/h | 18546m | 4.3m/s | -55.7°C | 2.8% | 73.3hPa | 2.7V | 00:00:00 | 02:01:29 | 00:00:00 | |
| OM5KV | 2026-08-31 05:53:23 | 48.04956 | 12.19210 | 34° | 26km/h | 18546m | 4.3m/s | -55.8°C | 0.2% | 73.3hPa | 2.6V | 00:00:00 | 00:00:00 | 00:00:00 | |
| BAUMI2-15 | 2026-08-31 05:53:20 | 48.04938 | 12.19182 | 42° | 24km/h | 18525m | 4.9m/s | -55.8°C | 2.9% | 73.5hPa | 2.6V | 00:00:00 | 02:01:25 | 00:00:00 | |
| OE5WHR-10 | 2026-08-31 05:53:19 | 48.04931 | 12.19175 | 30° | 22km/h | 18520m | 5.4m/s | -55.8°C | 2.9% | 73.6hPa | 2.6V | 00:00:00 | 02:01:24 | 00:00:00 | |
| DB0NH | 2026-08-31 05:53:18 | 48.04925 | 12.19171 | 15° | 27km/h | 18515m | 4.4m/s | -55.9°C | 2.9% | 73.7hPa | 2.6V | 00:00:00 | 02:01:23 | 00:00:00 | |
| OM5KV | 2026-08-31 05:53:17 | 48.04925 | 12.19171 | 15° | 29km/h | 18515m | 4.4m/s | -56.0°C | 0.2% | 73.7hPa | 2.6V | 00:00:00 | 00:00:00 | 00:00:00 | |
| DK5PH-5 | 2026-08-31 05:53:16 | 48.04912 | 12.19166 | 20° | 22km/h | 18506m | 5.3m/s | -55.9°C | 2.9% | 73.7hPa | 2.6V | 00:00:00 | 02:01:21 | 00:00:00 | |
| DO3MHA-11 | 2026-08-31 05:53:14 | 48.04905 | 12.19156 | 67° | 24km/h | 18496m | 4.6m/s | -56.0°C | 2.9% | 73.9hPa | 2.6V | 00:00:00 | 02:01:19 | 00:00:00 | |
| S52SK | 2026-08-31 05:53:13 | 48.04905 | 12.19156 | 68° | 22km/h | 18496m | 4.6m/s | -56.0°C | 0.2% | 73.9hPa | 2.6V | 00:00:00 | 00:00:00 | 00:00:00 | |
| BAUMI2-15 | 2026-08-31 05:53:12 | 48.04900 | 12.19140 | 63° | 22km/h | 18486m | 6.7m/s | -56.0°C | 2.9% | 74.0hPa | 2.6V | 00:00:00 | 02:01:17 | 00:00:00 | |
| OE5GOL-10 | 2026-08-31 05:53:11 | 48.04897 | 12.19132 | 50° | 22km/h | 18480m | 5.1m/s | -56.0°C | 2.9% | 74.1hPa | 2.6V | 00:00:00 | 02:01:16 | 00:00:00 | |
| DB0UT-7 | 2026-08-31 05:53:09 | 48.04885 | 12.19120 | 29° | 24km/h | 18472m | 3.0m/s | -56.1°C | 2.9% | 74.1hPa | 2.6V | 00:00:00 | 02:01:14 | 00:00:00 | |
| DL1ZP-14 | 2026-08-31 05:53:07 | 48.04876 | 12.19111 | 39° | 20km/h | 18461m | 6.7m/s | -56.2°C | -1.0% | 74.3hPa | 2.6V | 00:00:00 | 00:00:00 | 00:00:00 | |
| OE8JPQ-2 | 2026-08-31 05:53:04 | 48.04869 | 12.19092 | 63° | 24km/h | 18446m | 5.8m/s | 0°C | 0% | 0hPa | 2.7V | 00:00:00 | 02:01:09 | 00:00:00 | |
| OM5KV | 2026-08-31 05:53:02 | 48.04866 | 12.19086 | 56° | 18km/h | 18440m | 5.7m/s | -56.2°C | 0.2% | 74.6hPa | 2.7V | 00:00:00 | 00:00:00 | 00:00:00 | |
| DL6DJ-15 | 2026-08-31 05:52:53 | 48.04843 | 12.19023 | 50° | 20km/h | 18392m | 6.5m/s | -56.3°C | 0.2% | 75.1hPa | 2.7V | 00:00:00 | 00:00:00 | 00:00:00 | |
| OE5DRO-10 | 2026-08-31 05:52:50 | 48.04837 | 12.18997 | 74° | 27km/h | 18376m | 3.8m/s | -56.2°C | 3.0% | 75.3hPa | 2.7V | 00:00:00 | 00:00:00 | 00:00:00 | |
| OM5KV | 2026-08-31 05:52:49 | 48.04837 | 12.18997 | 74° | 27km/h | 18376m | 3.8m/s | -56.2°C | 0.2% | 75.3hPa | 2.7V | 00:00:00 | 00:00:00 | 00:00:00 | |
| DK5PH-5 | 2026-08-31 05:52:46 | 48.04822 | 12.18966 | 48° | 31km/h | 18356m | 5.3m/s | -56.1°C | 3.0% | 75.5hPa | 2.7V | 00:00:00 | 02:00:51 | 00:00:00 | |
| OE5MMP-10 | 2026-08-31 05:52:44 | 48.04815 | 12.18950 | 61° | 26km/h | 18346m | 3.8m/s | -56.1°C | 3.0% | 75.6hPa | 2.7V | 00:00:00 | 02:00:49 | 00:00:00 | |
| OM5KV | 2026-08-31 05:52:43 | 48.04815 | 12.18950 | 61° | 26km/h | 18346m | 3.9m/s | -56.1°C | 0.2% | 75.7hPa | 2.7V | 00:00:00 | 00:00:00 | 00:00:00 | |
| OE5GOL-10 | 2026-08-31 05:52:41 | 48.04803 | 12.18925 | 46° | 31km/h | 18332m | 6.2m/s | -56.1°C | 3.0% | 75.8hPa | 2.7V | 00:00:00 | 02:00:46 | 00:00:00 | |
| DB0UT-7 | 2026-08-31 05:52:39 | 48.04792 | 12.18910 | 41° | 33km/h | 18322m | 3.9m/s | -56.1°C | 2.9% | 75.9hPa | 2.7V | 00:00:00 | 00:00:00 | 00:00:00 | |
| OM5KV | 2026-08-31 05:52:38 | 48.04792 | 12.18910 | 42° | 27km/h | 18322m | 4.0m/s | -56.2°C | 0.2% | 76.0hPa | 2.7V | 00:00:00 | 00:00:00 | 00:00:00 | |
| OE5WHR-10 | 2026-08-31 05:52:37 | 48.04784 | 12.18896 | 61° | 31km/h | 18312m | 4.8m/s | -56.1°C | 3.0% | 76.0hPa | 2.7V | 00:00:00 | 00:00:00 | 00:00:00 | |
| DO3MHA-11 | 2026-08-31 05:52:34 | 48.04774 | 12.18872 | 47° | 29km/h | 18298m | 5.2m/s | -56.0°C | 2.9% | 76.2hPa | 2.7V | 00:00:00 | 02:00:39 | 00:00:00 | |
| OM5KV | 2026-08-31 05:52:33 | 48.04774 | 12.18872 | 47° | 31km/h | 18298m | 5.3m/s | -56.0°C | 0.2% | 76.2hPa | 2.7V | 00:00:00 | 00:00:00 | 00:00:00 | |
| OE5DRO-10 | 2026-08-31 05:52:31 | 48.04755 | 12.18850 | 38° | 33km/h | 18285m | 5.0m/s | -55.9°C | 2.9% | 76.3hPa | 2.7V | 00:00:00 | 00:00:00 | 00:00:00 | |
| OM5KV | 2026-08-31 05:52:27 | 48.04741 | 12.18830 | 49° | 22km/h | 18272m | 4.0m/s | -56.0°C | 0.2% | 76.6hPa | 2.6V | 00:00:00 | 00:00:00 | 00:00:00 | |
| OE5DXL-15 | 2026-08-31 05:52:25 | 48.04725 | 12.18808 | 39° | 37km/h | 18258m | 4.2m/s | -55.9°C | 2.9% | 76.7hPa | 2.6V | 00:00:00 | 00:00:00 | 00:00:00 | |
| OE5MMP-10 | 2026-08-31 05:52:24 | 48.04718 | 12.18799 | 47° | 37km/h | 18254m | 4.6m/s | -55.9°C | 2.9% | 76.8hPa | 2.7V | 00:00:00 | 02:00:29 | 00:00:00 | |
| NBG1-10 | 2026-08-31 05:52:23 | 48.04712 | 12.18789 | 50° | 37km/h | 18248m | 5.4m/s | -56.0°C | 3.0% | 76.8hPa | 2.7V | 00:00:00 | 02:00:28 | 00:00:00 | |
| DL6DJ-15 | 2026-08-31 05:52:22 | 48.04707 | 12.18779 | 58° | 33km/h | 18243m | 4.6m/s | -56.0°C | 0.2% | 76.9hPa | 2.7V | 00:00:00 | 00:00:00 | 00:00:00 | |
| OE8JPQ-2 | 2026-08-31 05:52:20 | 48.04697 | 12.18757 | 53° | 37km/h | 18234m | 5.4m/s | 0°C | 0% | 0hPa | 2.7V | 00:00:00 | 00:00:00 | 00:00:00 | |
| OM5KV | 2026-08-31 05:52:17 | 48.04683 | 12.18736 | 43° | 44km/h | 18225m | 4.0m/s | -56.0°C | 0.2% | 77.2hPa | 2.7V | 00:00:00 | 00:00:00 | 00:00:00 | |
| DK5PH-5 | 2026-08-31 05:52:16 | 48.04667 | 12.18714 | 42° | 35km/h | 18216m | 5.3m/s | -55.8°C | 3.0% | 77.2hPa | 2.7V | 00:00:00 | 02:00:21 | 08:30:00 | |
| DO3MHA-11 | 2026-08-31 05:52:14 | 48.04656 | 12.18695 | 53° | 37km/h | 18207m | 3.8m/s | -55.8°C | 2.9% | 77.3hPa | 2.7V | 00:00:00 | 02:00:19 | 00:00:00 | |
| OM5KV | 2026-08-31 05:52:13 | 48.04656 | 12.18695 | 54° | 31km/h | 18207m | 3.9m/s | -55.8°C | 0.2% | 77.4hPa | 2.7V | 00:00:00 | 00:00:00 | 00:00:00 | |
| OE5DRO-10 | 2026-08-31 05:52:12 | 48.04647 | 12.18675 | 53° | 37km/h | 18197m | 5.9m/s | -55.7°C | 2.9% | 77.4hPa | 2.7V | 00:00:00 | 00:00:00 | 00:00:00 | |
| OE5GOL-10 | 2026-08-31 05:52:11 | 48.04641 | 12.18665 | 48° | 35km/h | 18192m | 5.1m/s | -55.6°C | 3.0% | 77.5hPa | 2.7V | 00:00:00 | 02:00:16 | 00:00:00 | |
| S52SK | 2026-08-31 05:52:10 | 48.04641 | 12.18665 | 49° | 38km/h | 18192m | 5.2m/s | -55.7°C | 0.2% | 77.6hPa | 2.7V | 00:00:00 | 00:00:00 | 00:00:00 | |
| DB0UT-7 | 2026-08-31 05:52:09 | 48.04626 | 12.18644 | 39° | 35km/h | 18184m | 3.4m/s | -55.6°C | 2.9% | 77.6hPa | 2.7V | 00:00:00 | 02:00:14 | 00:00:00 | |
| DB0NH | 2026-08-31 05:52:07 | 48.04610 | 12.18625 | 39° | 27km/h | 18173m | 5.9m/s | -55.5°C | 2.9% | 77.7hPa | 2.7V | 00:00:00 | 02:00:12 | 00:00:00 | |
| DL1ZP-14 | 2026-08-31 05:52:05 | 48.04597 | 12.18608 | 41° | 33km/h | 18163m | 4.0m/s | -55.5°C | -1.0% | -1.0hPa | 2.7V | 00:00:00 | 00:00:00 | 00:00:00 | |
| OE5MMP-10 | 2026-08-31 05:52:04 | 48.04590 | 12.18599 | 40° | 37km/h | 18158m | 5.9m/s | -55.5°C | 2.8% | 77.9hPa | 2.7V | 00:00:00 | 02:00:09 | 00:00:00 | |
| S52SK | 2026-08-31 05:52:03 | 48.04590 | 12.18599 | 41° | 40km/h | 18158m | 6.0m/s | -55.5°C | 0.2% | 78.0hPa | 2.7V | 00:00:00 | 00:00:00 | 00:00:00 | |
| DF7PN | 2026-08-31 05:51:56 | 48.04515 | 12.18501 | 40° | 31km/h | 18104m | 5.7m/s | -55.2°C | 0.2% | 78.7hPa | 2.7V | 00:00:00 | 00:00:00 | 00:00:00 | |
| DL6DJ-15 | 2026-08-31 05:51:51 | 48.04505 | 12.18484 | 59° | 29km/h | 18095m | 3.6m/s | -55.1°C | 0.2% | 78.8hPa | 2.7V | 00:00:00 | 00:00:00 | 00:00:00 | |
| NBG1-10 | 2026-08-31 05:51:50 | 48.04501 | 12.18475 | 55° | 27km/h | 18091m | 3.5m/s | -55.1°C | 2.8% | 78.8hPa | 2.7V | 00:00:00 | 01:59:55 | 08:30:00 | |
| OM5KV | 2026-08-31 05:51:48 | 48.04495 | 12.18466 | 44° | 35km/h | 18087m | 5.2m/s | -55.2°C | 0.2% | 78.8hPa | 2.6V | 00:00:00 | 00:00:00 | 00:00:00 | |
| DK5PH-5 | 2026-08-31 05:51:46 | 48.04471 | 12.18445 | 25° | 24km/h | 18074m | 4.1m/s | -55.1°C | 2.8% | 78.9hPa | 2.6V | 00:00:00 | 01:59:51 | 00:00:00 | |
| OM5KV | 2026-08-31 05:51:45 | 48.04471 | 12.18445 | 25° | 35km/h | 18074m | 4.1m/s | -55.1°C | 0.2% | 79.0hPa | 2.6V | 00:00:00 | 00:00:00 | 00:00:00 | |
| OE5MMP-10 | 2026-08-31 05:51:44 | 48.04460 | 12.18434 | 48° | 27km/h | 18063m | 5.4m/s | -55.1°C | 2.8% | 79.1hPa | 2.6V | 00:00:00 | 01:59:49 | 00:00:00 | |
| OM5KV | 2026-08-31 05:51:43 | 48.04459 | 12.18434 | 49° | 26km/h | 18063m | 5.5m/s | -55.2°C | 0.2% | 79.1hPa | 2.6V | 00:00:00 | 00:00:00 | 00:00:00 | |
| OE5GOL-10 | 2026-08-31 05:51:41 | 48.04450 | 12.18407 | 57° | 26km/h | 18049m | 5.1m/s | -55.5°C | 2.9% | 79.2hPa | 2.6V | 00:00:00 | 01:59:46 | 00:00:00 | |
| OM5KV | 2026-08-31 05:51:40 | 48.04450 | 12.18407 | 58° | 31km/h | 18049m | 5.1m/s | -55.5°C | 0.2% | 79.3hPa | 2.6V | 00:00:00 | 00:00:00 | 00:00:00 | |
| DB0UT-7 | 2026-08-31 05:51:39 | 48.04439 | 12.18389 | 36° | 24km/h | 18040m | 4.2m/s | -55.5°C | 2.9% | 79.4hPa | 2.6V | 00:00:00 | 00:00:00 | 00:00:00 | |
| OM5KV | 2026-08-31 05:51:35 | 48.04421 | 12.18366 | 55° | 22km/h | 18026m | 4.7m/s | -55.5°C | 0.2% | 79.6hPa | 2.6V | 00:00:00 | 00:00:00 | 00:00:00 | |
| OE5MMP-10 | 2026-08-31 05:51:34 | 48.04419 | 12.18355 | 100° | 24km/h | 18019m | 2.9m/s | -55.3°C | 2.9% | 79.6hPa | 2.6V | 00:00:00 | 01:59:39 | 08:30:00 | |
| OE8JPQ-2 | 2026-08-31 05:51:33 | 48.04419 | 12.18352 | 68° | 24km/h | 18015m | 4.4m/s | 0°C | 0% | 0hPa | 2.7V | 00:00:00 | 00:00:00 | 00:00:00 | |
| OM5KV | 2026-08-31 05:51:26 | 48.04388 | 12.18309 | 64° | 27km/h | 17983m | 4.7m/s | -55.1°C | 0.2% | 80.2hPa | 2.7V | 00:00:00 | 00:00:00 | 00:00:00 | |
| OE5DXL-15 | 2026-08-31 05:51:25 | 48.04384 | 12.18294 | 60° | 26km/h | 17973m | 5.0m/s | -55.0°C | 2.6% | 80.2hPa | 2.7V | 00:00:00 | 00:00:00 | 00:00:00 | |
| OM5KV | 2026-08-31 05:51:24 | 48.04384 | 12.18294 | 61° | 20km/h | 17973m | 5.0m/s | -55.0°C | 0.2% | 80.3hPa | 2.7V | 00:00:00 | 00:00:00 | 00:00:00 | |
| DL6DJ-15 | 2026-08-31 05:51:20 | 48.04364 | 12.18265 | 45° | 24km/h | 17948m | 5.2m/s | -55.1°C | 0.2% | 80.6hPa | 2.7V | 00:00:00 | 00:00:00 | 00:00:00 | |
| OM5KV | 2026-08-31 05:51:18 | 48.04360 | 12.18258 | 53° | 26km/h | 17943m | 3.4m/s | -55.2°C | 0.2% | 80.7hPa | 2.7V | 00:00:00 | 00:00:00 | 00:00:00 | |
| NBG1-10 | 2026-08-31 05:51:17 | 48.04350 | 12.18245 | 38° | 24km/h | 17935m | 7.2m/s | -55.7°C | 2.8% | 80.7hPa | 2.7V | 00:00:00 | 01:59:22 | 00:00:00 | |
| DK5PH-5 | 2026-08-31 05:51:16 | 48.04343 | 12.18239 | 24° | 24km/h | 17929m | 6.4m/s | -56.2°C | 3.0% | 80.8hPa | 2.7V | 00:00:00 | 01:59:21 | 00:00:00 | |
| OE5DRO-10 | 2026-08-31 05:51:15 | 48.04336 | 12.18236 | 14° | 24km/h | 17923m | 3.8m/s | -56.3°C | 3.0% | 80.8hPa | 2.7V | 00:00:00 | 00:00:00 | 00:00:00 | |
| DO3MHA-11 | 2026-08-31 05:51:14 | 48.04329 | 12.18234 | 11° | 26km/h | 17921m | 1.6m/s | -56.3°C | 3.0% | 80.9hPa | 2.7V | 00:00:00 | 01:59:19 | 00:00:00 | |
| DB0NH | 2026-08-31 05:51:13 | 48.04324 | 12.18233 | 2° | 27km/h | 17916m | 6.4m/s | -56.6°C | 3.1% | 80.9hPa | 2.7V | 00:00:00 | 01:59:18 | 00:00:00 | |
| OE8JPQ-2 | 2026-08-31 05:51:12 | 48.04320 | 12.18232 | 18° | 27km/h | 17910m | 6.3m/s | 0°C | 0% | 0hPa | 2.7V | 00:00:00 | 00:00:00 | 00:00:00 | |
| OE5GOL-10 | 2026-08-31 05:51:11 | 48.04318 | 12.18230 | 49° | 27km/h | 17905m | 3.9m/s | -56.9°C | 3.2% | 81.1hPa | 2.7V | 00:00:00 | 01:59:16 | 00:00:00 | |
| DB0UT-7 | 2026-08-31 05:51:09 | 48.04311 | 12.18221 | 44° | 27km/h | 17896m | 7.6m/s | -56.9°C | 3.2% | 81.2hPa | 2.7V | 00:00:00 | 01:59:14 | 00:00:00 | |
| OM5KV | 2026-08-31 05:51:08 | 48.04311 | 12.18221 | 45° | 24km/h | 17896m | 7.6m/s | -57.0°C | 0.3% | 81.2hPa | 2.7V | 00:00:00 | 00:00:00 | 00:00:00 | |
| OM5KV | 2026-08-31 05:51:05 | 48.04286 | 12.18208 | 360° | 35km/h | 17882m | 1.9m/s | -56.9°C | 0.3% | 81.4hPa | 2.7V | 00:00:00 | 00:00:00 | 00:00:00 | |
| DO3MHA-11 | 2026-08-31 05:51:04 | 48.04273 | 12.18212 | 323° | 27km/h | 17871m | 7.3m/s | -56.7°C | 3.2% | 81.5hPa | 2.7V | 00:00:00 | 01:59:09 | 00:00:00 | |
| DF7PN | 2026-08-31 05:50:54 | 48.04233 | 12.18151 | 100° | 24km/h | 17805m | 8.2m/s | -56.2°C | 0.2% | 82.4hPa | 2.7V | 00:00:00 | 00:00:00 | 00:00:00 | |
| DL6DJ-15 | 2026-08-31 05:50:49 | 48.04239 | 12.18162 | 287° | 24km/h | 17776m | 5.2m/s | -55.9°C | 0.2% | 82.8hPa | 2.7V | 00:00:00 | 00:00:00 | 00:00:00 | |
| OE8JPQ-2 | 2026-08-31 05:50:48 | 48.04237 | 12.18168 | 322° | 24km/h | 17771m | 6.2m/s | 0°C | 0% | 0hPa | 2.7V | 00:00:00 | 01:58:53 | 00:00:00 | |
| BAUMI2-15 | 2026-08-31 05:50:47 | 48.04233 | 12.18169 | 13° | 31km/h | 17764m | 7.7m/s | -55.6°C | 3.0% | 82.9hPa | 2.7V | 00:00:00 | 01:58:52 | 00:00:00 | |
| OM5KV | 2026-08-31 05:50:45 | 48.04227 | 12.18164 | 47° | 33km/h | 17756m | 7.6m/s | -55.7°C | 0.2% | 83.0hPa | 2.6V | 00:00:00 | 00:00:00 | 00:00:00 | |
| DO3MHA-11 | 2026-08-31 05:50:44 | 48.04215 | 12.18145 | 42° | 33km/h | 17744m | 3.6m/s | -55.5°C | 2.9% | 83.2hPa | 2.6V | 00:00:00 | 01:58:49 | 00:00:00 | |
| NBG1-10 | 2026-08-31 05:50:42 | 48.04202 | 12.18137 | 350° | 37km/h | 17732m | 7.4m/s | -55.5°C | 2.9% | 83.3hPa | 2.6V | 00:00:00 | 01:58:47 | 00:00:00 | |
| OE5GOL-10 | 2026-08-31 05:50:41 | 48.04195 | 12.18141 | 323° | 31km/h | 17726m | 5.7m/s | -55.4°C | 2.9% | 83.4hPa | 2.6V | 00:00:00 | 01:58:46 | 00:00:00 | |
| DB0NH | 2026-08-31 05:50:40 | 48.04189 | 12.18149 | 316° | 26km/h | 17721m | 2.7m/s | -55.4°C | 2.9% | 83.5hPa | 2.6V | 00:00:00 | 01:58:45 | 00:00:00 | |
| DB0UT-7 | 2026-08-31 05:50:39 | 48.04183 | 12.18156 | 329° | 31km/h | 17719m | 2.4m/s | -55.4°C | 2.9% | 83.5hPa | 2.6V | 00:00:00 | 00:00:00 | 08:30:00 | |
| BAUMI2-15 | 2026-08-31 05:50:37 | 48.04171 | 12.18155 | 34° | 44km/h | 17709m | 7.2m/s | -55.1°C | 2.9% | 83.6hPa | 2.6V | 00:00:00 | 01:58:42 | 00:00:00 | |
| OM5KV | 2026-08-31 05:50:36 | 48.04171 | 12.18155 | 35° | 31km/h | 17709m | 7.3m/s | -55.2°C | 0.2% | 83.7hPa | 2.6V | 00:00:00 | 00:00:00 | 00:00:00 | |
| DO3MHA-11 | 2026-08-31 05:50:34 | 48.04153 | 12.18112 | 63° | 31km/h | 17688m | 4.5m/s | -55.2°C | 2.9% | 84.0hPa | 2.6V | 00:00:00 | 01:58:39 | 00:00:00 | |
| OE5WHR-10 | 2026-08-31 05:50:31 | 48.04139 | 12.18083 | 30° | 29km/h | 17672m | 6.8m/s | -55.2°C | 2.8% | 84.1hPa | 2.6V | 00:00:00 | 00:00:00 | 00:00:00 | |
| BAUMI2-15 | 2026-08-31 05:50:27 | 48.04125 | 12.18062 | 71° | 42km/h | 17643m | 8.0m/s | -55.1°C | 2.8% | 84.5hPa | 2.6V | 00:00:00 | 01:58:32 | 00:00:00 | |
| OE8JPQ-2 | 2026-08-31 05:50:26 | 48.04122 | 12.18047 | 79° | 31km/h | 17636m | 6.1m/s | 0°C | 0% | 0hPa | 2.6V | 00:00:00 | 00:00:00 | 00:00:00 | |
| OE5DXL-15 | 2026-08-31 05:50:25 | 48.04120 | 12.18030 | 84° | 31km/h | 17630m | 4.9m/s | -55.1°C | 2.8% | 84.7hPa | 2.6V | 00:00:00 | 00:00:00 | 00:00:00 | |
| OE5MMP-10 | 2026-08-31 05:50:24 | 48.04119 | 12.18015 | 79° | 29km/h | 17625m | 5.7m/s | -55.1°C | 2.8% | 84.8hPa | 2.6V | 00:00:00 | 01:58:29 | 00:00:00 | |
| DF7PN | 2026-08-31 05:50:23 | 48.04115 | 12.17996 | 54° | 18km/h | 17613m | 6.3m/s | -55.3°C | 0.2% | 85.0hPa | 2.6V | 00:00:00 | 00:00:00 | 00:00:00 | |
| BAUMI2-15 | 2026-08-31 05:50:22 | 48.04114 | 12.17996 | 55° | 26km/h | 17613m | 6.3m/s | -55.2°C | 2.9% | 84.9hPa | 2.6V | 00:00:00 | 01:58:27 | 00:00:00 | |
| OM5KV | 2026-08-31 05:50:19 | 48.04108 | 12.17982 | 61° | 24km/h | 17600m | 8.7m/s | -55.3°C | 0.2% | 85.2hPa | 2.6V | 00:00:00 | 00:00:00 | 00:00:00 | |
| OE5DRO-10 | 2026-08-31 05:50:18 | 48.04104 | 12.17960 | 86° | 31km/h | 17586m | 5.4m/s | -55.1°C | 2.9% | 85.3hPa | 2.6V | 00:00:00 | 00:00:00 | 00:00:00 | |
| BAUMI2-15 | 2026-08-31 05:50:17 | 48.04103 | 12.17946 | 87° | 31km/h | 17581m | 3.9m/s | -55.0°C | 2.9% | 85.4hPa | 2.6V | 00:00:00 | 01:58:22 | 00:00:00 | |
| DK5PH-5 | 2026-08-31 05:50:15 | 48.04102 | 12.17921 | 83° | 31km/h | 17569m | 7.2m/s | -55.0°C | 2.9% | 85.5hPa | 2.7V | 00:00:00 | 01:58:20 | 00:00:00 | |
| OE5GOL-10 | 2026-08-31 05:50:11 | 48.04095 | 12.17879 | 80° | 31km/h | 17546m | 5.8m/s | -54.9°C | 2.9% | 85.8hPa | 2.7V | 00:00:00 | 01:58:16 | 08:30:00 | |
| OE5WHR-10 | 2026-08-31 05:50:10 | 48.04093 | 12.17865 | 77° | 31km/h | 17540m | 5.1m/s | -54.8°C | 2.9% | 85.9hPa | 2.7V | 00:00:00 | 01:58:15 | 00:00:00 | |
| DB0UT-7 | 2026-08-31 05:50:09 | 48.04090 | 12.17851 | 78° | 31km/h | 17534m | 6.6m/s | -54.8°C | 2.9% | 86.0hPa | 2.7V | 00:00:00 | 01:58:14 | 00:00:00 | |
| DB0NH | 2026-08-31 05:50:08 | 48.04088 | 12.17839 | 70° | 37km/h | 17528m | 6.4m/s | -54.8°C | 2.9% | 86.1hPa | 2.7V | 00:00:00 | 01:58:13 | 00:00:00 | |
| BAUMI2-15 | 2026-08-31 05:50:07 | 48.04086 | 12.17830 | 70° | 27km/h | 17522m | 4.4m/s | -54.7°C | 2.9% | 86.1hPa | 2.7V | 00:00:00 | 01:58:12 | 00:00:00 | |
| OM5KV | 2026-08-31 05:50:06 | 48.04086 | 12.17830 | 70° | 26km/h | 17522m | 4.5m/s | -54.7°C | 0.2% | 86.2hPa | 2.7V | 00:00:00 | 00:00:00 | 00:00:00 | |
| OE5MMP-10 | 2026-08-31 05:50:04 | 48.04081 | 12.17804 | 81° | 35km/h | 17507m | 7.1m/s | -54.6°C | 2.8% | 86.3hPa | 2.7V | 00:00:00 | 01:58:09 | 08:30:00 | |
| BAUMI2-15 | 2026-08-31 05:50:02 | 48.04078 | 12.17778 | 80° | 35km/h | 17496m | 3.5m/s | -54.4°C | 2.8% | 86.5hPa | 2.6V | 00:00:00 | 01:58:07 | 00:00:00 | |
| S52SK | 2026-08-31 05:50:01 | 48.04078 | 12.17778 | 80° | 40km/h | 17496m | 3.6m/s | -54.5°C | 0.2% | 86.6hPa | 2.6V | 00:00:00 | 00:00:00 | 00:00:00 | |
| DF7PN | 2026-08-31 05:49:52 | 48.04043 | 12.17653 | 63° | 26km/h | 17435m | 4.4m/s | -54.0°C | 0.3% | 87.4hPa | 2.6V | 00:00:00 | 00:00:00 | 00:00:00 | |
| DL6DJ-15 | 2026-08-31 05:49:47 | 48.04035 | 12.17609 | 70° | 31km/h | 17414m | 5.2m/s | -54.2°C | 0.3% | 87.6hPa | 2.6V | 00:00:00 | 00:00:00 | 00:00:00 | |
| DK5PH-5 | 2026-08-31 05:49:45 | 48.04028 | 12.17589 | 53° | 33km/h | 17403m | 4.8m/s | -54.3°C | 2.7% | 87.8hPa | 2.6V | 00:00:00 | 01:57:50 | 00:00:00 | |
| DO3MHA-11 | 2026-08-31 05:49:44 | 48.04024 | 12.17581 | 58° | 31km/h | 17399m | 3.8m/s | -54.4°C | 2.7% | 87.9hPa | 2.6V | 00:00:00 | 01:57:49 | 00:00:00 | |
| OE8JPQ-2 | 2026-08-31 05:49:42 | 48.04019 | 12.17564 | 75° | 35km/h | 17387m | 6.1m/s | 0°C | 0% | 0hPa | 2.6V | 00:00:00 | 01:57:47 | 00:00:00 | |
| OE5GOL-10 | 2026-08-31 05:49:41 | 48.04017 | 12.17552 | 82° | 35km/h | 17382m | 4.1m/s | -54.7°C | 2.8% | 88.1hPa | 2.6V | 00:00:00 | 01:57:46 | 00:00:00 | |
| OE5DRO-10 | 2026-08-31 05:49:40 | 48.04015 | 12.17540 | 72° | 33km/h | 17378m | 4.0m/s | -54.7°C | 2.8% | 88.1hPa | 2.6V | 00:00:00 | 00:00:00 | 00:00:00 | |
| DB0UT-7 | 2026-08-31 05:49:39 | 48.04012 | 12.17527 | 65° | 35km/h | 17373m | 6.0m/s | -54.7°C | 2.8% | 88.2hPa | 2.7V | 00:00:00 | 00:00:00 | 00:00:00 | |
| BAUMI2-15 | 2026-08-31 05:49:38 | 48.04007 | 12.17516 | 52° | 35km/h | 17367m | 5.1m/s | -54.7°C | 2.8% | 88.3hPa | 2.7V | 00:00:00 | 01:57:43 | 08:30:00 | |
| OM5KV | 2026-08-31 05:49:37 | 48.04007 | 12.17516 | 53° | 35km/h | 17367m | 5.2m/s | -54.8°C | 0.3% | 88.3hPa | 2.6V | 00:00:00 | 00:00:00 | 00:00:00 | |
| NBG1-10 | 2026-08-31 05:49:35 | 48.03992 | 12.17486 | 67° | 37km/h | 17354m | 5.4m/s | -54.6°C | 2.7% | 88.4hPa | 2.6V | 00:00:00 | 01:57:40 | 00:00:00 | |
| OE5MMP-10 | 2026-08-31 05:49:34 | 48.03990 | 12.17474 | 80° | 33km/h | 17349m | 4.6m/s | -54.6°C | 2.7% | 88.5hPa | 2.6V | 00:00:00 | 01:57:39 | 00:00:00 | |
| BAUMI2-15 | 2026-08-31 05:49:33 | 48.03988 | 12.17462 | 80° | 33km/h | 17344m | 5.6m/s | -54.6°C | 2.7% | 88.6hPa | 2.7V | 00:00:00 | 01:57:38 | 00:00:00 | |
| OM5KV | 2026-08-31 05:49:31 | 48.03987 | 12.17449 | 81° | 33km/h | 17338m | 6.9m/s | -54.7°C | 0.3% | 88.7hPa | 2.7V | 00:00:00 | 00:00:00 | 00:00:00 | |
| S52SK | 2026-08-31 05:49:29 | 48.03981 | 12.17427 | 66° | 33km/h | 17328m | 3.5m/s | -54.8°C | 0.3% | 88.9hPa | 2.7V | 00:00:00 | 00:00:00 | 00:00:00 | |
| OE5WHR-10 | 2026-08-31 05:49:28 | 48.03975 | 12.17405 | 69° | 35km/h | 17320m | 6.9m/s | -54.9°C | 2.8% | 89.0hPa | 2.7V | 00:00:00 | 00:00:00 | 00:00:00 | |
| BAUMI2-15 | 2026-08-31 05:49:27 | 48.03972 | 12.17392 | 81° | 33km/h | 17313m | 6.3m/s | -54.9°C | 2.8% | 89.0hPa | 2.7V | 00:00:00 | 01:57:32 | 00:00:00 | |
| OM5KV | 2026-08-31 05:49:26 | 48.03972 | 12.17392 | 81° | 35km/h | 17313m | 6.3m/s | -54.9°C | 0.3% | 89.1hPa | 2.7V | 00:00:00 | 00:00:00 | 00:00:00 | |
| OE5DXL-15 | 2026-08-31 05:49:25 | 48.03970 | 12.17366 | 85° | 38km/h | 17303m | 4.4m/s | -54.9°C | 2.8% | 89.2hPa | 2.7V | 00:00:00 | 00:00:00 | 08:30:00 | |
| DO3MHA-11 | 2026-08-31 05:49:24 | 48.03969 | 12.17353 | 81° | 35km/h | 17298m | 5.7m/s | -54.9°C | 2.9% | 89.2hPa | 2.7V | 00:00:00 | 01:57:29 | 08:30:00 | |
| BAUMI2-15 | 2026-08-31 05:49:22 | 48.03965 | 12.17331 | 76° | 35km/h | 17289m | 4.2m/s | -54.9°C | 2.8% | 89.4hPa | 2.6V | 00:00:00 | 01:57:27 | 00:00:00 | |
| OE5DRO-10 | 2026-08-31 05:49:21 | 48.03963 | 12.17320 | 79° | 38km/h | 17285m | 3.8m/s | -54.9°C | 2.9% | 89.4hPa | 2.7V | 00:00:00 | 00:00:00 | 00:00:00 | |
| DG1MJG | 2026-08-31 05:49:20 | 48.03963 | 12.17320 | 79° | 31km/h | 17285m | 3.9m/s | -55.0°C | 0.3% | 89.5hPa | 2.7V | 00:00:00 | 00:00:00 | 00:00:00 | |
| BAUMI2-15 | 2026-08-31 05:49:17 | 48.03964 | 12.17262 | 93° | 38km/h | 17266m | 6.8m/s | -55.1°C | 2.8% | 89.7hPa | 2.7V | 00:00:00 | 01:57:22 | 00:00:00 | |
| DL6DJ-15 | 2026-08-31 05:49:16 | 48.03964 | 12.17247 | 82° | 37km/h | 17259m | 6.1m/s | -55.2°C | 0.3% | 89.8hPa | 2.7V | 00:00:00 | 00:00:00 | 00:00:00 | |
| DK5PH-5 | 2026-08-31 05:49:15 | 48.03962 | 12.17234 | 71° | 46km/h | 17254m | 4.1m/s | -55.2°C | 2.9% | 89.8hPa | 2.7V | 00:00:00 | 01:57:20 | 00:00:00 | |
| DO3MHA-11 | 2026-08-31 05:49:14 | 48.03959 | 12.17223 | 73° | 37km/h | 17251m | 2.7m/s | -55.2°C | 2.9% | 89.9hPa | 2.7V | 00:00:00 | 01:57:19 | 00:00:00 | |
| S52SK | 2026-08-31 05:49:13 | 48.03957 | 12.17212 | 74° | 29km/h | 17246m | 7.2m/s | -55.4°C | 0.4% | 90.0hPa | 2.7V | 00:00:00 | 00:00:00 | 00:00:00 | |
| BAUMI2-15 | 2026-08-31 05:49:12 | 48.03956 | 12.17201 | 88° | 38km/h | 17239m | 6.5m/s | -55.4°C | 2.9% | 90.0hPa | 2.7V | 00:00:00 | 01:57:17 | 00:00:00 | |
| DB0UT-7 | 2026-08-31 05:49:09 | 48.03958 | 12.17158 | 95° | 49km/h | 17225m | 5.7m/s | -55.5°C | 2.9% | 90.3hPa | 2.7V | 00:00:00 | 01:57:14 | 00:00:00 | |
| OM5KV | 2026-08-31 05:49:08 | 48.03958 | 12.17158 | 96° | 42km/h | 17225m | 5.8m/s | -55.6°C | 0.4% | 90.3hPa | 2.7V | 00:00:00 | 00:00:00 | 00:00:00 | |
| OE5WHR-10 | 2026-08-31 05:49:07 | 48.03958 | 12.17127 | 83° | 47km/h | 17214m | 5.0m/s | -55.6°C | 2.9% | 90.4hPa | 2.7V | 00:00:00 | 01:57:12 | 00:00:00 | |
| BAUMI2-15 | 2026-08-31 05:49:05 | 48.03956 | 12.17099 | 88° | 42km/h | 17202m | 6.1m/s | -55.6°C | 2.9% | 90.5hPa | 2.7V | 00:00:00 | 01:57:10 | 00:00:00 | |
| OE5MMP-10 | 2026-08-31 05:49:04 | 48.03956 | 12.17083 | 94° | 46km/h | 17197m | 4.7m/s | -55.6°C | 2.9% | 90.7hPa | 2.7V | 00:00:00 | 01:57:09 | 00:00:00 | |
| NBG1-10 | 2026-08-31 05:49:02 | 48.03956 | 12.17052 | 84° | 55km/h | 17188m | 6.4m/s | -55.7°C | 2.9% | 90.8hPa | 2.7V | 00:00:00 | 01:57:07 | 00:00:00 | |
| DB0ND-19 | 2026-08-31 05:48:51 | 48.03941 | 12.16809 | 85° | 51km/h | 17121m | 5.3m/s | 0°C | -1.0% | -1.0hPa | 2.7V | 00:00:00 | 00:00:00 | 00:00:00 | |
| DB0NH | 2026-08-31 05:48:49 | 48.03941 | 12.16809 | 86° | 55km/h | 17121m | 5.3m/s | -56.8°C | 3.3% | 91.7hPa | 2.7V | 00:00:00 | 01:56:54 | 00:00:00 | |
| OE5WHR-10 | 2026-08-31 05:48:46 | 48.03936 | 12.16752 | 78° | 55km/h | 17103m | 5.0m/s | -56.7°C | 3.2% | 92.0hPa | 2.7V | 00:00:00 | 00:00:00 | 00:00:00 | |
| DK5PH-5 | 2026-08-31 05:48:45 | 48.03933 | 12.16733 | 81° | 55km/h | 17098m | 3.9m/s | -56.7°C | 3.1% | 92.0hPa | 2.7V | 00:00:00 | 01:56:50 | 00:00:00 | |
| OE5MMP-10 | 2026-08-31 05:48:44 | 48.03931 | 12.16713 | 81° | 55km/h | 17093m | 5.8m/s | -56.7°C | 3.2% | 92.1hPa | 2.7V | 00:00:00 | 01:56:49 | 00:00:00 | |
| OE5DRO-10 | 2026-08-31 05:48:43 | 48.03929 | 12.16693 | 85° | 55km/h | 17088m | 4.7m/s | -56.6°C | 3.2% | 92.2hPa | 2.7V | 00:00:00 | 00:00:00 | 00:00:00 | |
| PG1ADW-2 | 2026-08-31 05:48:42 | 48.03927 | 12.16672 | 82° | 57km/h | 17083m | 4.2m/s | -56.5°C | 3.1% | 92.3hPa | 2.7V | 00:00:00 | 00:00:00 | 00:00:00 | |
| BIOWL1-15 | 2026-08-31 05:48:26 | 48.03876 | 12.16304 | 78° | 60km/h | 16990m | 5.5m/s | -56.6°C | 0% | 93.7hPa | 2.7V | 18:12:15 | 01:56:29 | 00:00:00 | i |
| OE3JTB-15 | 2026-08-31 05:48:26 | 48.03883 | 12.16345 | 73° | 49km/h | 17002m | 6.4m/s | 0°C | 0% | 0hPa | 2.7V | 00:00:00 | 00:00:00 | 00:00:00 | i |
| BIOWL1-15 | 2026-08-31 05:48:08 | 48.03813 | 12.16017 | 69° | 51km/h | 16908m | 4.2m/s | -56.4°C | 0% | 94.9hPa | 2.7V | 18:12:15 | 01:56:13 | 00:00:00 | i |
| BIOWL1-15 | 2026-08-31 05:47:56 | 48.03765 | 12.15822 | 68° | 46km/h | 16847m | 5.5m/s | -55.8°C | 0% | 95.8hPa | 2.7V | 18:12:15 | 01:56:01 | 00:00:00 | |
| BIOWL1-15 | 2026-08-31 05:47:46 | 48.03718 | 12.15645 | 63° | 44km/h | 16801m | 5.5m/s | -55.6°C | 0% | 96.5hPa | 2.7V | 18:12:15 | 01:55:51 | 00:00:00 | i |
| BIOWL1-15 | 2026-08-31 05:47:36 | 48.03668 | 12.15481 | 64° | 37km/h | 16755m | 3.3m/s | 0°C | 0% | 97.3hPa | 2.7V | 18:12:15 | 01:55:41 | 00:00:00 | i |
| BIOWL1-15 | 2026-08-31 05:47:25 | 48.03608 | 12.15288 | 67° | 51km/h | 16706m | 3.6m/s | 0°C | 0% | 98hPa | 2.7V | 18:12:15 | 01:55:30 | 00:00:00 | i |
| BIOWL1-15 | 2026-08-31 05:47:14 | 48.03531 | 12.15119 | 48° | 35km/h | 16654m | 5.9m/s | 0°C | 0% | 0hPa | 2.7V | 18:12:15 | 01:55:19 | 00:00:00 | i |
| BIOWL1-15 | 2026-08-31 05:47:02 | 48.03442 | 12.14973 | 54° | 44km/h | 16593m | 6.7m/s | 0°C | 0% | 0hPa | 2.7V | 18:12:15 | 01:55:07 | 00:00:00 | i |
| BIOWL1-15 | 2026-08-31 05:46:50 | 48.03355 | 12.14810 | 50° | 42km/h | 16529m | 3.5m/s | 0°C | 0% | 0hPa | 2.7V | 18:12:15 | 01:54:55 | 00:00:00 | i |
| DF7PN | 2026-08-31 05:46:45 | 48.03330 | 12.14735 | 66° | 47km/h | 16506m | 6.2m/s | -56.6°C | 0.7% | 101.2hPa | 2.7V | 00:00:00 | 00:00:00 | 00:00:00 | |
| OE5MMP-10 | 2026-08-31 05:46:44 | 48.03324 | 12.14719 | 56° | 44km/h | 16499m | 6.8m/s | -56.7°C | 3.4% | 101.2hPa | 2.7V | 00:00:00 | 01:54:49 | 00:00:00 | |
| PG1ADW-2 | 2026-08-31 05:46:42 | 48.03307 | 12.14694 | 43° | 37km/h | 16490m | 3.0m/s | -56.8°C | 3.5% | 101.4hPa | 2.7V | 00:00:00 | 00:00:00 | 00:00:00 | |
| DL6DJ-15 | 2026-08-31 05:46:41 | 48.03293 | 12.14670 | 57° | 40km/h | 16480m | 4.4m/s | -56.9°C | 0.8% | 101.6hPa | 2.7V | 00:00:00 | 00:00:00 | 00:00:00 | |
| OE5WHR-10 | 2026-08-31 05:46:40 | 48.03293 | 12.14670 | 58° | 35km/h | 16480m | 4.4m/s | -56.8°C | 3.5% | 101.5hPa | 2.7V | 00:00:00 | 00:00:00 | 00:00:00 | |
| DB0UT-7 | 2026-08-31 05:46:39 | 48.03288 | 12.14656 | 72° | 35km/h | 16476m | 4.5m/s | -57.0°C | 3.5% | 101.6hPa | 2.7V | 00:00:00 | 00:00:00 | 00:00:00 | |
| OM5KV | 2026-08-31 05:46:38 | 48.03288 | 12.14656 | 72° | 42km/h | 16476m | 4.5m/s | -57.0°C | 0.8% | 101.7hPa | 2.7V | 00:00:00 | 00:00:00 | 00:00:00 | |
| OM5KV | 2026-08-31 05:46:37 | 48.03285 | 12.14642 | 74° | 40km/h | 16470m | 6.0m/s | -57.1°C | 0.8% | 101.7hPa | 2.7V | 00:00:00 | 00:00:00 | 00:00:00 | |
| BAUMI2-15 | 2026-08-31 05:46:36 | 48.03277 | 12.14612 | 65° | 38km/h | 16458m | 5.7m/s | -57.2°C | 3.6% | 101.9hPa | 2.7V | 00:00:00 | 01:54:41 | 00:00:00 | |
| S52SK | 2026-08-31 05:46:35 | 48.03277 | 12.14612 | 65° | 42km/h | 16458m | 5.8m/s | -57.3°C | 0.8% | 101.9hPa | 2.7V | 00:00:00 | 00:00:00 | 00:00:00 | |
| DO3MHA-11 | 2026-08-31 05:46:34 | 48.03266 | 12.14586 | 59° | 33km/h | 16448m | 6.3m/s | -57.3°C | 3.6% | 102.0hPa | 2.7V | 00:00:00 | 01:54:39 | 00:00:00 | |
| OM5KV | 2026-08-31 05:46:32 | 48.03262 | 12.14573 | 66° | 37km/h | 16442m | 6.3m/s | -57.4°C | 0.8% | 102.2hPa | 2.7V | 00:00:00 | 00:00:00 | 00:00:00 | |
| BAUMI2-15 | 2026-08-31 05:46:31 | 48.03255 | 12.14548 | 72° | 29km/h | 16431m | 5.2m/s | -57.3°C | 3.7% | 102.3hPa | 2.7V | 00:00:00 | 01:54:36 | 00:00:00 | |
| S52SK | 2026-08-31 05:46:30 | 48.03255 | 12.14548 | 72° | 33km/h | 16431m | 5.3m/s | -57.4°C | 0.8% | 102.4hPa | 2.7V | 00:00:00 | 00:00:00 | 00:00:00 | |
| BAUMI2-15 | 2026-08-31 05:46:26 | 48.03240 | 12.14497 | 80° | 33km/h | 16404m | 7.9m/s | -57.4°C | 3.7% | 102.7hPa | 2.7V | 00:00:00 | 01:54:31 | 00:00:00 | |
| OE5DXL-15 | 2026-08-31 05:46:25 | 48.03239 | 12.14484 | 86° | 33km/h | 16398m | 5.4m/s | -57.4°C | 3.8% | 102.9hPa | 2.7V | 00:00:00 | 00:00:00 | 00:00:00 | |
| DO3MHA-11 | 2026-08-31 05:46:24 | 48.03238 | 12.14471 | 79° | 35km/h | 16393m | 4.2m/s | -57.4°C | 3.8% | 102.9hPa | 2.7V | 00:00:00 | 01:54:29 | 08:30:00 | |
| S52SK | 2026-08-31 05:46:23 | 48.03238 | 12.14471 | 79° | 37km/h | 16393m | 4.3m/s | -57.4°C | 0.8% | 103.0hPa | 2.6V | 00:00:00 | 00:00:00 | 00:00:00 | |
| PG1ADW-2 | 2026-08-31 05:46:22 | 48.03233 | 12.14448 | 58° | 35km/h | 16383m | 4.2m/s | -57.4°C | 3.8% | 103.1hPa | 2.6V | 00:00:00 | 01:54:27 | 08:30:00 | |
| BAUMI2-15 | 2026-08-31 05:46:21 | 48.03229 | 12.14440 | 56° | 33km/h | 16379m | 3.3m/s | -57.3°C | 3.8% | 103.1hPa | 2.6V | 00:00:00 | 01:54:26 | 00:00:00 | |
| OE5WHR-10 | 2026-08-31 05:46:19 | 48.03224 | 12.14422 | 77° | 35km/h | 16371m | 5.8m/s | -57.2°C | 3.7% | 103.3hPa | 2.6V | 00:00:00 | 00:00:00 | 00:00:00 | |
| S52SK | 2026-08-31 05:46:18 | 48.03224 | 12.14422 | 77° | 31km/h | 16371m | 5.8m/s | -57.3°C | 0.8% | 103.3hPa | 2.6V | 00:00:00 | 00:00:00 | 00:00:00 | |
| BAUMI2-15 | 2026-08-31 05:46:16 | 48.03223 | 12.14376 | 89° | 35km/h | 16356m | 5.3m/s | -57.2°C | 3.7% | 103.6hPa | 2.6V | 00:00:00 | 01:54:21 | 00:00:00 | |
| NBG1-10 | 2026-08-31 05:46:15 | 48.03222 | 12.14360 | 79° | 33km/h | 16351m | 4.5m/s | -57.1°C | 3.7% | 103.6hPa | 2.7V | 00:00:00 | 01:54:20 | 00:00:00 | |
| DO3MHA-11 | 2026-08-31 05:46:14 | 48.03219 | 12.14346 | 69° | 35km/h | 16346m | 4.6m/s | -57.1°C | 3.7% | 103.7hPa | 2.7V | 00:00:00 | 01:54:19 | 00:00:00 | |
| OM5KV | 2026-08-31 05:46:13 | 48.03219 | 12.14346 | 70° | 35km/h | 16346m | 4.6m/s | -57.2°C | 0.8% | 103.8hPa | 2.7V | 00:00:00 | 00:00:00 | 00:00:00 | |
| OE5GOL-10 | 2026-08-31 05:46:11 | 48.03212 | 12.14318 | 83° | 33km/h | 16331m | 4.7m/s | -57.0°C | 3.7% | 103.9hPa | 2.7V | 00:00:00 | 01:54:16 | 00:00:00 | |
| DB0UT-7 | 2026-08-31 05:46:09 | 48.03210 | 12.14298 | 82° | 33km/h | 16321m | 5.4m/s | -57.0°C | 3.7% | 104.1hPa | 2.7V | 00:00:00 | 01:54:14 | 08:30:00 | |
| BAUMI2-15 | 2026-08-31 05:46:06 | 48.03205 | 12.14253 | 87° | 37km/h | 16308m | 5.5m/s | -56.9°C | 3.7% | 104.3hPa | 2.7V | 00:00:00 | 01:54:11 | 00:00:00 | |
| OM5KV | 2026-08-31 05:46:04 | 48.03205 | 12.14237 | 92° | 46km/h | 16303m | 6.1m/s | -56.9°C | 0.8% | 104.5hPa | 2.7V | 00:00:00 | 00:00:00 | 00:00:00 | |
| PG1ADW-2 | 2026-08-31 05:46:02 | 48.03206 | 12.14197 | 86° | 31km/h | 16289m | 5.1m/s | -56.7°C | 3.6% | 104.7hPa | 2.7V | 00:00:00 | 00:00:00 | 00:00:00 | |
| BAUMI2-15 | 2026-08-31 05:46:01 | 48.03205 | 12.14187 | 69° | 29km/h | 16285m | 4.2m/s | -56.7°C | 3.6% | 104.7hPa | 2.7V | 00:00:00 | 01:54:06 | 08:30:00 | |
| S52SK | 2026-08-31 05:46:00 | 48.03205 | 12.14187 | 70° | 27km/h | 16285m | 4.2m/s | -56.8°C | 0.9% | 104.8hPa | 2.6V | 00:00:00 | 00:00:00 | 00:00:00 | |
| OE5WHR-10 | 2026-08-31 05:45:58 | 48.03200 | 12.14157 | 91° | 33km/h | 16271m | 4.5m/s | -56.6°C | 3.6% | 105.0hPa | 2.6V | 00:00:00 | 01:54:03 | 00:00:00 | |
| BAUMI2-15 | 2026-08-31 05:45:56 | 48.03200 | 12.14130 | 93° | 35km/h | 16262m | 4.7m/s | -56.5°C | 3.6% | 105.1hPa | 2.6V | 00:00:00 | 01:54:01 | 00:00:00 | |
| OE5DXL-15 | 2026-08-31 05:45:55 | 48.03200 | 12.14116 | 82° | 37km/h | 16257m | 5.7m/s | -56.5°C | 3.6% | 105.2hPa | 2.6V | 00:00:00 | 00:00:00 | 00:00:00 | |
| DO3MHA-11 | 2026-08-31 05:45:54 | 48.03198 | 12.14103 | 82° | 31km/h | 16252m | 4.8m/s | -56.4°C | 3.7% | 105.3hPa | 2.6V | 00:00:00 | 01:53:59 | 00:00:00 | |
| OE5DRO-10 | 2026-08-31 05:45:52 | 48.03196 | 12.14079 | 91° | 35km/h | 16243m | 5.6m/s | -56.5°C | 3.7% | 105.4hPa | 2.7V | 00:00:00 | 00:00:00 | 00:00:00 | |
| BAUMI2-15 | 2026-08-31 05:45:51 | 48.03196 | 12.14069 | 95° | 33km/h | 16238m | 5.1m/s | -56.5°C | 3.7% | 105.5hPa | 2.7V | 00:00:00 | 01:53:56 | 00:00:00 | |
| OM5KV | 2026-08-31 05:45:49 | 48.03197 | 12.14057 | 100° | 33km/h | 16233m | 3.8m/s | -56.6°C | 0.9% | 105.6hPa | 2.7V | 00:00:00 | 00:00:00 | 00:00:00 | |
| BAUMI2-15 | 2026-08-31 05:45:46 | 48.03188 | 12.14009 | 55° | 31km/h | 16213m | 3.7m/s | -56.8°C | 3.8% | 105.9hPa | 2.7V | 00:00:00 | 01:53:51 | 00:00:00 | |
| DG1MJG | 2026-08-31 05:45:45 | 48.03189 | 12.14009 | 55° | 35km/h | 16213m | 3.7m/s | -56.9°C | 0.9% | 106.0hPa | 2.6V | 00:00:00 | 00:00:00 | 00:00:00 | |
| DO3MHA-11 | 2026-08-31 05:45:44 | 48.03182 | 12.13991 | 74° | 37km/h | 16206m | 7.5m/s | -56.9°C | 3.7% | 106.0hPa | 2.6V | 00:00:00 | 01:53:49 | 00:00:00 | |
| DF7PN | 2026-08-31 05:45:43 | 48.03182 | 12.13982 | 113° | 26km/h | 16199m | 7.4m/s | -57.0°C | 1.0% | 106.2hPa | 2.6V | 00:00:00 | 00:00:00 | 00:00:00 | |
| PG1ADW-2 | 2026-08-31 05:45:42 | 48.03186 | 12.13971 | 127° | 42km/h | 16192m | 5.7m/s | -56.9°C | 3.8% | 106.2hPa | 2.6V | 00:00:00 | 00:00:00 | 00:00:00 | |
| BAUMI2-15 | 2026-08-31 05:45:41 | 48.03193 | 12.13960 | 129° | 37km/h | 16187m | 4.8m/s | -56.9°C | 3.8% | 106.3hPa | 2.6V | 00:00:00 | 01:53:46 | 00:00:00 | |
| DF3TZ-5 | 2026-08-31 05:45:40 | 48.03200 | 12.13934 | 98° | 31km/h | 16175m | 7.8m/s | -56.8°C | 0.9% | 106.6hPa | 2.6V | 00:00:00 | 00:00:00 | 00:00:00 | |
| DK5PH-5 | 2026-08-31 05:45:39 | 48.03200 | 12.13934 | 99° | 49km/h | 16175m | 7.7m/s | -56.7°C | 3.8% | 106.6hPa | 2.6V | 00:00:00 | 01:53:44 | 00:00:00 | |
| DL6DJ-15 | 2026-08-31 05:45:38 | 48.03199 | 12.13922 | 72° | 33km/h | 16168m | 7.4m/s | -56.8°C | 1.0% | 106.7hPa | 2.6V | 00:00:00 | 00:00:00 | 00:00:00 | |
| OE5WHR-10 | 2026-08-31 05:45:37 | 48.03196 | 12.13909 | 66° | 47km/h | 16161m | 5.2m/s | -56.6°C | 3.8% | 106.7hPa | 2.6V | 00:00:00 | 00:00:00 | 00:00:00 | |
| BAUMI2-15 | 2026-08-31 05:45:36 | 48.03193 | 12.13896 | 77° | 51km/h | 16157m | 2.9m/s | -56.7°C | 3.8% | 106.9hPa | 2.7V | 00:00:00 | 01:53:41 | 00:00:00 | |
| OM5KV | 2026-08-31 05:45:35 | 48.03193 | 12.13896 | 78° | 40km/h | 16157m | 3.0m/s | -56.7°C | 1.0% | 106.9hPa | 2.7V | 00:00:00 | 00:00:00 | 00:00:00 | |
| OE5MMP-10 | 2026-08-31 05:45:34 | 48.03195 | 12.13864 | 110° | 44km/h | 16146m | 6.8m/s | -56.7°C | 3.8% | 107.1hPa | 2.7V | 00:00:00 | 01:53:39 | 08:30:00 | |
| OM5KV | 2026-08-31 05:45:33 | 48.03202 | 12.13844 | 121° | 62km/h | 16140m | 4.4m/s | -56.8°C | 1.0% | 107.2hPa | 2.6V | 00:00:00 | 00:00:00 | 00:00:00 | |
| BAUMI2-15 | 2026-08-31 05:45:31 | 48.03215 | 12.13806 | 111° | 35km/h | 16131m | 5.4m/s | -56.5°C | 3.8% | 107.3hPa | 2.6V | 00:00:00 | 01:53:36 | 00:00:00 | |
| OM5KV | 2026-08-31 05:45:30 | 48.03214 | 12.13806 | 111° | 49km/h | 16131m | 5.5m/s | -56.6°C | 1.0% | 107.3hPa | 2.7V | 00:00:00 | 00:00:00 | 00:00:00 | |
| BAUMI2-15 | 2026-08-31 05:45:26 | 48.03212 | 12.13743 | 109° | 53km/h | 16103m | 6.4m/s | -56.4°C | 3.8% | 107.8hPa | 2.7V | 00:00:00 | 01:53:31 | 00:00:00 | |
| OM5KV | 2026-08-31 05:45:25 | 48.03217 | 12.13728 | 122° | 49km/h | 16096m | 6.5m/s | -56.5°C | 1.1% | 107.9hPa | 2.7V | 00:00:00 | 00:00:00 | 00:00:00 | |
| DO3MHA-11 | 2026-08-31 05:45:24 | 48.03225 | 12.13710 | 123° | 53km/h | 16091m | 5.3m/s | -56.4°C | 3.8% | 108.0hPa | 2.7V | 00:00:00 | 01:53:29 | 00:00:00 | |
| PG1ADW-2 | 2026-08-31 05:45:22 | 48.03238 | 12.13671 | 106° | 55km/h | 16082m | 5.2m/s | -56.5°C | 3.9% | 108.1hPa | 2.7V | 00:00:00 | 00:00:00 | 00:00:00 | |
| BAUMI2-15 | 2026-08-31 05:45:21 | 48.03240 | 12.13651 | 93° | 49km/h | 16077m | 5.0m/s | -56.5°C | 3.8% | 108.2hPa | 2.7V | 00:00:00 | 01:53:26 | 00:00:00 | |
| DB0NH | 2026-08-31 05:45:20 | 48.03239 | 12.13632 | 79° | 58km/h | 16071m | 6.0m/s | -56.5°C | 3.7% | 108.3hPa | 2.7V | 00:00:00 | 01:53:25 | 00:00:00 | |
| OM5KV | 2026-08-31 05:45:18 | 48.03236 | 12.13612 | 76° | 53km/h | 16065m | 5.4m/s | -56.6°C | 1.0% | 108.4hPa | 2.7V | 00:00:00 | 00:00:00 | 00:00:00 | |
| OE5WHR-10 | 2026-08-31 05:45:16 | 48.03236 | 12.13559 | 109° | 57km/h | 16051m | 5.0m/s | -56.5°C | 3.8% | 108.7hPa | 2.7V | 00:00:00 | 00:00:00 | 00:00:00 | |
| DG1MJG | 2026-08-31 05:45:15 | 48.03240 | 12.13542 | 117° | 49km/h | 16045m | 5.6m/s | -56.6°C | 1.0% | 108.8hPa | 2.7V | 00:00:00 | 00:00:00 | 00:00:00 | |
| DO3MHA-11 | 2026-08-31 05:45:14 | 48.03246 | 12.13524 | 115° | 53km/h | 16040m | 4.4m/s | -56.5°C | 3.8% | 108.8hPa | 2.7V | 00:00:00 | 01:53:19 | 00:00:00 | |
| BAUMI2-15 | 2026-08-31 05:45:11 | 48.03257 | 12.13467 | 98° | 51km/h | 16025m | 4.0m/s | -56.7°C | 3.8% | 109.1hPa | 2.7V | 00:00:00 | 01:53:16 | 00:00:00 | |
| S52SK | 2026-08-31 05:45:10 | 48.03256 | 12.13468 | 99° | 51km/h | 16025m | 4.1m/s | -56.7°C | 0% | 0hPa | 2.7V | 00:00:00 | 00:00:00 | 00:00:00 | |
| DB0UT-7 | 2026-08-31 05:45:09 | 48.03260 | 12.13431 | 102° | 64km/h | 16014m | 6.4m/s | -56.8°C | 3.8% | 109.3hPa | 2.7V | 00:00:00 | 01:53:14 | 00:00:00 | |
| OM5KV | 2026-08-31 05:45:08 | 48.03260 | 12.13431 | 103° | 49km/h | 16014m | 6.4m/s | -56.8°C | 1.1% | 109.3hPa | 2.7V | 00:00:00 | 00:00:00 | 00:00:00 | |
| DL6DJ-15 | 2026-08-31 05:45:07 | 48.03268 | 12.13395 | 108° | 53km/h | 16004m | 4.5m/s | -56.9°C | 1.1% | 109.5hPa | 2.7V | 00:00:00 | 00:00:00 | 00:00:00 | |
| BAUMI2-15 | 2026-08-31 05:45:06 | 48.03273 | 12.13374 | 108° | 66km/h | 15999m | 5.7m/s | -56.9°C | 3.8% | 109.5hPa | 2.7V | 00:00:00 | 01:53:11 | 00:00:00 | |
| NBG1-10 | 2026-08-31 05:45:05 | 48.03277 | 12.13351 | 104° | 66km/h | 15994m | 4.3m/s | -56.9°C | 3.9% | 109.6hPa | 2.7V | 00:00:00 | 01:53:10 | 00:00:00 | |
| DK5PH-5 | 2026-08-31 05:45:04 | 48.03280 | 12.13326 | 103° | 66km/h | 15990m | 2.6m/s | -57.0°C | 3.9% | 109.7hPa | 2.7V | 00:00:00 | 01:53:09 | 00:00:00 | |
| PG1ADW-2 | 2026-08-31 05:45:02 | 48.03289 | 12.13277 | 107° | 64km/h | 15981m | 4.8m/s | -57.0°C | 4.0% | 109.8hPa | 2.7V | 00:00:00 | 01:53:07 | 00:00:00 | |
| BAUMI2-15 | 2026-08-31 05:45:01 | 48.03294 | 12.13256 | 113° | 60km/h | 15977m | 3.9m/s | -57.0°C | 4.1% | 110.0hPa | 2.7V | 00:00:00 | 01:53:06 | 00:00:00 | |
| DN1GJH-1 | 2026-08-31 05:45:00 | 48.03294 | 12.13256 | 113° | 58km/h | 15977m | 3.9m/s | 0°C | 0% | 0hPa | 2.7V | 00:00:00 | 00:00:00 | 00:00:00 | |
| S52SK | 2026-08-31 05:44:59 | 48.03300 | 12.13235 | 111° | 57km/h | 15973m | 4.1m/s | -57.1°C | 0% | 0hPa | 2.7V | 00:00:00 | 00:00:00 | 00:00:00 | |
| OE5HKT-10 | 2026-08-31 05:44:57 | 48.03312 | 12.13169 | 102° | 64km/h | 15960m | 3.6m/s | 0°C | 0% | 0hPa | 2.7V | 00:00:00 | 01:53:02 | 00:00:00 | |
| BAUMI2-15 | 2026-08-31 05:44:56 | 48.03315 | 12.13146 | 103° | 71km/h | 15956m | 4.9m/s | -57.2°C | 4.1% | 110.3hPa | 2.7V | 00:00:00 | 01:53:01 | 00:00:00 | |
| OE5WHR-10 | 2026-08-31 05:44:55 | 48.03319 | 12.13121 | 105° | 68km/h | 15952m | 3.9m/s | -57.3°C | 4.1% | 110.4hPa | 2.7V | 00:00:00 | 01:53:00 | 00:00:00 | |
| OE5MMP-10 | 2026-08-31 05:44:54 | 48.03323 | 12.13097 | 103° | 68km/h | 15948m | 2.7m/s | -57.4°C | 4.2% | 110.4hPa | 2.7V | 00:00:00 | 01:52:59 | 00:00:00 | |
| S52SK | 2026-08-31 05:44:53 | 48.03323 | 12.13097 | 103° | 68km/h | 15948m | 2.7m/s | -57.4°C | 0% | 0hPa | 2.7V | 00:00:00 | 00:00:00 | 00:00:00 | |
| OM5KV | 2026-08-31 05:44:51 | 48.03330 | 12.13044 | 100° | 75km/h | 15940m | 5.2m/s | -57.6°C | 1.2% | 110.7hPa | 2.7V | 00:00:00 | 00:00:00 | 00:00:00 | |
| OM5KV | 2026-08-31 05:44:49 | 48.03335 | 12.12989 | 101° | 69km/h | 15931m | 5.2m/s | -57.6°C | 1.2% | 110.8hPa | 2.7V | 00:00:00 | 00:00:00 | 00:00:00 | |
| DB0NH | 2026-08-31 05:44:46 | 48.03351 | 12.12901 | 103° | 69km/h | 15912m | 5.0m/s | -57.5°C | 4.2% | 111.1hPa | 2.7V | 00:00:00 | 01:52:51 | 00:00:00 | |
| OM5KV | 2026-08-31 05:44:45 | 48.03351 | 12.12901 | 103° | 64km/h | 15912m | 5.0m/s | -57.6°C | 1.2% | 111.2hPa | 2.7V | 00:00:00 | 00:00:00 | 00:00:00 | |
| OE5MMP-10 | 2026-08-31 05:44:44 | 48.03354 | 12.12848 | 91° | 69km/h | 15902m | 4.3m/s | -57.5°C | 4.3% | 111.3hPa | 2.7V | 00:00:00 | 01:52:49 | 00:00:00 | |
| OM5KV | 2026-08-31 05:44:43 | 48.03354 | 12.12848 | 91° | 77km/h | 15902m | 4.3m/s | -57.6°C | 1.3% | 111.3hPa | 2.7V | 00:00:00 | 00:00:00 | 00:00:00 | |
| PG1ADW-2 | 2026-08-31 05:44:42 | 48.03353 | 12.12793 | 87° | 66km/h | 15894m | 4.4m/s | -57.5°C | 4.4% | 111.4hPa | 2.7V | 00:00:00 | 00:00:00 | 00:00:00 | |
| OE5GOL-10 | 2026-08-31 05:44:41 | 48.03352 | 12.12769 | 87° | 71km/h | 15890m | 4.4m/s | -57.4°C | 4.4% | 111.5hPa | 2.7V | 00:00:00 | 01:52:46 | 00:00:00 | |
| DB0UT-7 | 2026-08-31 05:44:39 | 48.03352 | 12.12725 | 91° | 73km/h | 15882m | 3.3m/s | -57.3°C | 4.3% | 111.6hPa | 2.7V | 00:00:00 | 00:00:00 | 00:00:00 | |
| DF3TZ-5 | 2026-08-31 05:44:37 | 48.03353 | 12.12644 | 92° | 82km/h | 15866m | 3.7m/s | -57.4°C | 1.3% | 111.9hPa | 2.6V | 00:00:00 | 00:00:00 | 00:00:00 | |
| OE5DRO-10 | 2026-08-31 05:44:36 | 48.03353 | 12.12644 | 93° | 71km/h | 15867m | 3.7m/s | -57.4°C | 4.3% | 111.9hPa | 2.6V | 00:00:00 | 00:00:00 | 00:00:00 | |
| S52SK | 2026-08-31 05:44:35 | 48.03353 | 12.12644 | 94° | 82km/h | 15867m | 3.7m/s | -57.4°C | 0% | 0hPa | 2.6V | 00:00:00 | 00:00:00 | 00:00:00 | |
| DO3MHA-11 | 2026-08-31 05:44:34 | 48.03355 | 12.12586 | 93° | 68km/h | 15859m | 6.6m/s | -57.4°C | 4.3% | 112.0hPa | 2.6V | 00:00:00 | 01:52:39 | 00:00:00 | |
| OE5HKT-10 | 2026-08-31 05:44:31 | 48.03357 | 12.12520 | 92° | 73km/h | 15844m | 4.4m/s | 0°C | 0% | 0hPa | 2.6V | 00:00:00 | 00:00:00 | 00:00:00 | |
| OM5KV | 2026-08-31 05:44:30 | 48.03357 | 12.12520 | 93° | 51km/h | 15844m | 4.5m/s | -57.3°C | 1.3% | 112.4hPa | 2.6V | 00:00:00 | 00:00:00 | 00:00:00 | |
| S52SK | 2026-08-31 05:44:29 | 48.03358 | 12.12499 | 91° | 60km/h | 15839m | 5.6m/s | -57.2°C | 0% | 0hPa | 2.6V | 00:00:00 | 00:00:00 | 00:00:00 | |
| NBG1-10 | 2026-08-31 05:44:28 | 48.03358 | 12.12445 | 92° | 82km/h | 15827m | 5.6m/s | -57.1°C | 4.3% | 112.6hPa | 2.6V | 00:00:00 | 01:52:33 | 00:00:00 | |
| OE5DXL-15 | 2026-08-31 05:44:25 | 48.03361 | 12.12355 | 93° | 78km/h | 15810m | 5.3m/s | -56.7°C | 4.2% | 112.9hPa | 2.6V | 00:00:00 | 00:00:00 | 00:00:00 | |
| DO3MHA-11 | 2026-08-31 05:44:24 | 48.03361 | 12.12330 | 89° | 73km/h | 15805m | 4.0m/s | -56.6°C | 4.2% | 113.0hPa | 2.6V | 00:00:00 | 01:52:29 | 00:00:00 | |
| OM5KV | 2026-08-31 05:44:23 | 48.03361 | 12.12330 | 89° | 66km/h | 15805m | 4.1m/s | -56.7°C | 1.4% | 113.1hPa | 2.7V | 00:00:00 | 00:00:00 | 00:00:00 | |
| PG1ADW-2 | 2026-08-31 05:44:22 | 48.03357 | 12.12280 | 80° | 78km/h | 15796m | 6.8m/s | -56.7°C | 4.1% | 113.2hPa | 2.7V | 00:00:00 | 00:00:00 | 00:00:00 | |
| OM5KV | 2026-08-31 05:44:18 | 48.03345 | 12.12192 | 83° | 80km/h | 15780m | 5.5m/s | -56.8°C | 1.3% | 113.5hPa | 2.6V | 00:00:00 | 00:00:00 | 00:00:00 | |
| OE5DRO-10 | 2026-08-31 05:44:17 | 48.03343 | 12.12136 | 93° | 77km/h | 15769m | 4.3m/s | -56.7°C | 4.3% | 113.7hPa | 2.6V | 00:00:00 | 00:00:00 | 00:00:00 | |
| DN1GJH-1 | 2026-08-31 05:44:15 | 48.03345 | 12.12110 | 96° | 71km/h | 15765m | 3.3m/s | 0°C | 0% | 0hPa | 2.6V | 00:00:00 | 00:00:00 | 00:00:00 | |
| DB0NH | 2026-08-31 05:44:14 | 48.03346 | 12.12052 | 88° | 82km/h | 15756m | 5.7m/s | -56.6°C | 4.3% | 113.9hPa | 2.6V | 00:00:00 | 01:52:19 | 00:00:00 | |
| OE5WHR-10 | 2026-08-31 05:44:13 | 48.03344 | 12.12021 | 81° | 82km/h | 15750m | 4.5m/s | -56.5°C | 4.3% | 114.0hPa | 2.7V | 00:00:00 | 00:00:00 | 00:00:00 | |
| OE5GOL-10 | 2026-08-31 05:44:11 | 48.03334 | 12.11960 | 74° | 82km/h | 15741m | 5.9m/s | -56.6°C | 4.4% | 114.1hPa | 2.7V | 00:00:00 | 01:52:16 | 00:00:00 | |
| DF7PN | 2026-08-31 05:44:10 | 48.03327 | 12.11910 | 85° | 64km/h | 15731m | 3.6m/s | -56.5°C | 1.5% | 114.4hPa | 2.7V | 00:00:00 | 00:00:00 | 00:00:00 | |
| DB0UT-7 | 2026-08-31 05:44:09 | 48.03327 | 12.11910 | 86° | 86km/h | 15731m | 3.6m/s | -56.5°C | 4.3% | 114.4hPa | 2.7V | 00:00:00 | 01:52:14 | 00:00:00 | |
| DF3TZ-5 | 2026-08-31 05:44:06 | 48.03332 | 12.11789 | 92° | 95km/h | 15713m | 2.5m/s | -56.7°C | 1.4% | 114.7hPa | 2.7V | 00:00:00 | 00:00:00 | 00:00:00 | |
| DL6DJ-15 | 2026-08-31 05:44:05 | 48.03332 | 12.11789 | 92° | 95km/h | 15713m | 2.5m/s | -56.7°C | 1.4% | 114.7hPa | 2.7V | 00:00:00 | 00:00:00 | 00:00:00 | |
| OE5MMP-10 | 2026-08-31 05:44:04 | 48.03332 | 12.11754 | 89° | 84km/h | 15710m | 3.7m/s | -56.6°C | 4.2% | 114.7hPa | 2.7V | 00:00:00 | 01:52:09 | 08:30:00 | |
| PG1ADW-2 | 2026-08-31 05:43:59 | 48.03311 | 12.11617 | 75° | 86km/h | 15685m | 5.8m/s | -56.8°C | 4.2% | 115.1hPa | 2.7V | 00:00:00 | 00:00:00 | 00:00:00 | |
| OE5DRO-10 | 2026-08-31 05:43:58 | 48.03306 | 12.11587 | 81° | 86km/h | 15679m | 6.6m/s | -56.8°C | 4.3% | 115.3hPa | 2.7V | 00:00:00 | 00:00:00 | 00:00:00 | |
| OE5DXL-15 | 2026-08-31 05:43:55 | 48.03301 | 12.11477 | 87° | 84km/h | 15665m | 5.3m/s | -56.8°C | 4.5% | 115.5hPa | 2.7V | 00:00:00 | 00:00:00 | 00:00:00 | |
| DO3MHA-11 | 2026-08-31 05:43:54 | 48.03299 | 12.11444 | 84° | 80km/h | 15659m | 5.3m/s | -56.9°C | 4.5% | 115.6hPa | 2.7V | 00:00:00 | 01:51:59 | 00:00:00 | |
| OE5WHR-10 | 2026-08-31 05:43:52 | 48.03292 | 12.11392 | 75° | 86km/h | 15648m | 6.0m/s | -57.3°C | 4.6% | 115.8hPa | 2.6V | 00:00:00 | 01:51:57 | 00:00:00 | |
| S52SK | 2026-08-31 05:43:51 | 48.03292 | 12.11392 | 76° | 60km/h | 15648m | 6.0m/s | -57.4°C | 0% | 0hPa | 2.6V | 00:00:00 | 00:00:00 | 00:00:00 | |
| OM5KV | 2026-08-31 05:43:50 | 48.03288 | 12.11370 | 78° | 62km/h | 15642m | 5.3m/s | -57.4°C | 1.6% | 116.0hPa | 2.6V | 00:00:00 | 00:00:00 | 00:00:00 | |
| OE5HKT-10 | 2026-08-31 05:43:48 | 48.03278 | 12.11286 | 79° | 88km/h | 15628m | 5.6m/s | 0°C | 0% | 0hPa | 2.6V | 00:00:00 | 01:51:53 | 00:00:00 | |
| S52SK | 2026-08-31 05:43:45 | 48.03265 | 12.11216 | 72° | 102km/h | 15616m | 6.1m/s | -57.8°C | 0% | 0hPa | 2.6V | 00:00:00 | 00:00:00 | 00:00:00 | |
| DO3MHA-11 | 2026-08-31 05:43:44 | 48.03247 | 12.11147 | 68° | 89km/h | 15606m | 4.0m/s | -57.9°C | 4.7% | 116.7hPa | 2.6V | 00:00:00 | 01:51:49 | 00:00:00 | |
| DG1MJG | 2026-08-31 05:43:43 | 48.03247 | 12.11147 | 68° | 93km/h | 15606m | 4.0m/s | -57.9°C | 1.7% | 116.7hPa | 2.6V | 00:00:00 | 00:00:00 | 00:00:00 | |
| OE5GOL-10 | 2026-08-31 05:43:41 | 48.03224 | 12.11053 | 72° | 86km/h | 15592m | 4.3m/s | -58.0°C | 4.8% | 116.9hPa | 2.6V | 00:00:00 | 01:51:46 | 00:00:00 | |
| DB0NH | 2026-08-31 05:43:40 | 48.03217 | 12.11022 | 71° | 86km/h | 15587m | 5.1m/s | -58.0°C | 4.7% | 117.0hPa | 2.6V | 00:00:00 | 01:51:45 | 00:00:00 | |
| DB0UT-7 | 2026-08-31 05:43:39 | 48.03208 | 12.10991 | 68° | 86km/h | 15582m | 5.7m/s | -57.9°C | 4.7% | 117.0hPa | 2.6V | 00:00:00 | 00:00:00 | 00:00:00 | |
| OM5KV | 2026-08-31 05:43:38 | 48.03208 | 12.10991 | 68° | 91km/h | 15582m | 5.8m/s | -58.0°C | 1.7% | 117.1hPa | 2.6V | 00:00:00 | 00:00:00 | 00:00:00 | |
| OM5KV | 2026-08-31 05:43:37 | 48.03199 | 12.10959 | 67° | 93km/h | 15577m | 4.3m/s | -57.9°C | 1.7% | 117.2hPa | 2.6V | 00:00:00 | 00:00:00 | 00:00:00 | |
| OE5MMP-10 | 2026-08-31 05:43:34 | 48.03167 | 12.10838 | 73° | 82km/h | 15559m | 4.3m/s | -57.7°C | 4.5% | 117.5hPa | 2.6V | 00:00:00 | 01:51:39 | 00:00:00 | |
| DK5PH-5 | 2026-08-31 05:43:33 | 48.03161 | 12.10810 | 71° | 80km/h | 15555m | 3.1m/s | -57.7°C | 4.5% | 117.6hPa | 2.7V | 00:00:00 | 01:51:38 | 00:00:00 | |
| OE5WHR-10 | 2026-08-31 05:43:31 | 48.03144 | 12.10754 | 61° | 86km/h | 15544m | 6.1m/s | -57.8°C | 4.8% | 117.8hPa | 2.7V | 00:00:00 | 00:00:00 | 00:00:00 | |
| OM5KV | 2026-08-31 05:43:27 | 48.03107 | 12.10668 | 59° | 86km/h | 15530m | 4.7m/s | -57.8°C | 1.8% | 118.1hPa | 2.7V | 00:00:00 | 00:00:00 | 00:00:00 | |
| OE5HKT-10 | 2026-08-31 05:43:26 | 48.03089 | 12.10615 | 70° | 78km/h | 15521m | 4.0m/s | 0°C | 0% | 0hPa | 2.7V | 00:00:00 | 00:00:00 | 00:00:00 | |
| OE5DXL-15 | 2026-08-31 05:43:25 | 48.03082 | 12.10588 | 73° | 78km/h | 15517m | 5.1m/s | -58.2°C | 5.0% | 118.2hPa | 2.7V | 00:00:00 | 00:00:00 | 00:00:00 | |
| OE5MMP-10 | 2026-08-31 05:43:24 | 48.03077 | 12.10561 | 76° | 82km/h | 15512m | 4.4m/s | -58.3°C | 4.9% | 118.4hPa | 2.7V | 00:00:00 | 01:51:29 | 00:00:00 | |
| OM5KV | 2026-08-31 05:43:23 | 48.03077 | 12.10561 | 76° | 78km/h | 15512m | 4.4m/s | -58.3°C | 1.8% | 118.4hPa | 2.7V | 00:00:00 | 00:00:00 | 00:00:00 | |
| OM5KV | 2026-08-31 05:43:21 | 48.03066 | 12.10501 | 74° | 86km/h | 15504m | 4.6m/s | -58.3°C | 1.8% | 118.6hPa | 2.7V | 00:00:00 | 00:00:00 | 00:00:00 | |
| OE5DRO-10 | 2026-08-31 05:43:20 | 48.03053 | 12.10440 | 70° | 78km/h | 15491m | 6.6m/s | -58.2°C | 5.0% | 118.8hPa | 2.7V | 00:00:00 | 00:00:00 | 00:00:00 | |
| NBG1-10 | 2026-08-31 05:43:19 | 48.03045 | 12.10412 | 66° | 73km/h | 15485m | 6.0m/s | -58.4°C | 5.1% | 118.9hPa | 2.7V | 00:00:00 | 01:51:24 | 00:00:00 | |
| OM5KV | 2026-08-31 05:43:18 | 48.03036 | 12.10385 | 63° | 78km/h | 15480m | 4.9m/s | -58.4°C | 1.9% | 119.0hPa | 2.7V | 00:00:00 | 00:00:00 | 00:00:00 | |
| OM5KV | 2026-08-31 05:43:16 | 48.03027 | 12.10360 | 60° | 78km/h | 15476m | 3.6m/s | -58.4°C | 1.9% | 119.2hPa | 2.7V | 00:00:00 | 00:00:00 | 00:00:00 | |
| DO3MHA-11 | 2026-08-31 05:43:14 | 48.02996 | 12.10277 | 67° | 82km/h | 15460m | 6.3m/s | -58.4°C | 4.8% | 119.3hPa | 2.7V | 00:00:00 | 01:51:19 | 00:00:00 | |
| DG1MJG | 2026-08-31 05:43:13 | 48.02996 | 12.10277 | 68° | 91km/h | 15460m | 6.4m/s | -58.4°C | 1.8% | 119.4hPa | 2.7V | 00:00:00 | 00:00:00 | 00:00:00 | |
| OM5KV | 2026-08-31 05:43:12 | 48.02987 | 12.10244 | 70° | 99km/h | 15455m | 4.4m/s | -58.5°C | 1.8% | 119.5hPa | 2.7V | 00:00:00 | 00:00:00 | 00:00:00 | |
| OE5GOL-10 | 2026-08-31 05:43:11 | 48.02968 | 12.10174 | 66° | 71km/h | 15446m | 3.8m/s | -58.3°C | 4.7% | 119.6hPa | 2.7V | 00:00:00 | 01:51:16 | 00:00:00 | |
| DB0NH | 2026-08-31 05:43:10 | 48.02957 | 12.10143 | 60° | 71km/h | 15442m | 5.0m/s | -58.3°C | 4.6% | 119.7hPa | 2.7V | 00:00:00 | 01:51:15 | 00:00:00 | |
| DB0UT-7 | 2026-08-31 05:43:09 | 48.02945 | 12.10115 | 52° | 69km/h | 15436m | 6.8m/s | -58.3°C | 4.6% | 119.8hPa | 2.7V | 00:00:00 | 01:51:14 | 00:00:00 | |
| DF7PN | 2026-08-31 05:43:08 | 48.02916 | 12.10078 | 32° | 68km/h | 15420m | 7.7m/s | -58.2°C | 1.6% | 120.1hPa | 2.7V | 00:00:00 | 00:00:00 | 00:00:00 | |
| OM5KV | 2026-08-31 05:43:06 | 48.02916 | 12.10077 | 33° | 68km/h | 15420m | 7.7m/s | -58.2°C | 1.6% | 120.1hPa | 2.7V | 00:00:00 | 00:00:00 | 00:00:00 | |
| OM5KV | 2026-08-31 05:43:05 | 48.02903 | 12.10065 | 29° | 60km/h | 15413m | 6.4m/s | -58.1°C | 1.7% | 120.2hPa | 2.7V | 00:00:00 | 00:00:00 | 00:00:00 | |
| OE5MMP-10 | 2026-08-31 05:43:04 | 48.02880 | 12.10042 | 47° | 68km/h | 15402m | 4.7m/s | -57.9°C | 4.7% | 120.5hPa | 2.7V | 00:00:00 | 01:51:09 | 00:00:00 | |
| DK5PH-5 | 2026-08-31 05:43:03 | 48.02871 | 12.10025 | 56° | 71km/h | 15398m | 5.0m/s | -57.8°C | 4.7% | 120.6hPa | 2.7V | 00:00:00 | 01:51:08 | 08:30:00 | |
| OE5DRO-10 | 2026-08-31 05:43:01 | 48.02853 | 12.09980 | 59° | 71km/h | 15385m | 6.2m/s | -57.7°C | 4.8% | 120.8hPa | 2.7V | 00:00:00 | 00:00:00 | 00:00:00 | |
| OM5KV | 2026-08-31 05:43:00 | 48.02853 | 12.09980 | 60° | 77km/h | 15385m | 6.3m/s | -57.7°C | 0% | 0hPa | 2.7V | 00:00:00 | 00:00:00 | 00:00:00 | |
| OM5KV | 2026-08-31 05:42:59 | 48.02842 | 12.09956 | 56° | 80km/h | 15379m | 5.2m/s | -57.7°C | 1.7% | 121.0hPa | 2.7V | 00:00:00 | 00:00:00 | 00:00:00 | |
| OE5DXL-15 | 2026-08-31 05:42:55 | 48.02781 | 12.09864 | 35° | 71km/h | 15356m | 1.9m/s | -57.6°C | 4.7% | 121.4hPa | 2.7V | 00:00:00 | 00:00:00 | 00:00:00 | |
| OM5KV | 2026-08-31 05:42:54 | 48.02768 | 12.09851 | 36° | 64km/h | 15354m | 3.6m/s | -57.5°C | 1.7% | 121.5hPa | 2.7V | 00:00:00 | 00:00:00 | 00:00:00 | |
| BAUMI2-15 | 2026-08-31 05:42:51 | 48.02726 | 12.09792 | 52° | 75km/h | 15339m | 5.2m/s | -57.5°C | 4.6% | 121.7hPa | 2.7V | 00:00:00 | 01:50:56 | 00:00:00 | |
| OE5WHR-10 | 2026-08-31 05:42:49 | 48.02703 | 12.09741 | 59° | 68km/h | 15328m | 5.6m/s | -57.5°C | 4.7% | 121.9hPa | 2.7V | 00:00:00 | 01:50:54 | 00:00:00 | |
| OM5KV | 2026-08-31 05:42:48 | 48.02703 | 12.09741 | 59° | 75km/h | 15328m | 5.7m/s | -57.5°C | 1.7% | 122.0hPa | 2.7V | 00:00:00 | 00:00:00 | 00:00:00 | |
| BAUMI2-15 | 2026-08-31 05:42:46 | 48.02674 | 12.09679 | 51° | 71km/h | 15313m | 5.5m/s | -57.4°C | 4.5% | 122.2hPa | 2.7V | 00:00:00 | 01:50:51 | 00:00:00 | |
| OE5MMP-10 | 2026-08-31 05:42:44 | 48.02651 | 12.09640 | 49° | 73km/h | 15302m | 4.7m/s | -57.4°C | 4.5% | 122.5hPa | 2.7V | 00:00:00 | 01:50:49 | 00:00:00 | |
| OM5KV | 2026-08-31 05:42:43 | 48.02651 | 12.09640 | 50° | 75km/h | 15302m | 4.7m/s | -57.4°C | 0% | 0hPa | 2.7V | 00:00:00 | 00:00:00 | 00:00:00 | |
| OE5HKT-10 | 2026-08-31 05:42:42 | 48.02627 | 12.09596 | 54° | 93km/h | 15293m | 5.7m/s | 0°C | 0% | 0hPa | 2.7V | 00:00:00 | 01:50:47 | 00:00:00 | |
| OE5GOL-10 | 2026-08-31 05:42:41 | 48.02617 | 12.09574 | 56° | 66km/h | 15287m | 5.3m/s | -57.6°C | 4.6% | 122.7hPa | 2.7V | 00:00:00 | 01:50:46 | 00:00:00 | |
| DB0NH | 2026-08-31 05:42:40 | 48.02607 | 12.09554 | 56° | 66km/h | 15282m | 4.0m/s | -57.7°C | 4.7% | 122.8hPa | 2.7V | 00:00:00 | 01:50:45 | 00:00:00 | |
| DB0UT-7 | 2026-08-31 05:42:39 | 48.02598 | 12.09534 | 55° | 64km/h | 15278m | 4.1m/s | -57.8°C | 4.6% | 122.9hPa | 2.6V | 00:00:00 | 00:00:00 | 00:00:00 | |
| OM5KV | 2026-08-31 05:42:37 | 48.02588 | 12.09512 | 55° | 73km/h | 15273m | 6.1m/s | -57.9°C | 0% | 0hPa | 2.6V | 00:00:00 | 00:00:00 | 00:00:00 | |
| BAUMI2-15 | 2026-08-31 05:42:36 | 48.02564 | 12.09467 | 52° | 66km/h | 15264m | 3.1m/s | -57.8°C | 4.6% | 123.2hPa | 2.6V | 00:00:00 | 01:50:41 | 00:00:00 | |
| DO3MHA-11 | 2026-08-31 05:42:34 | 48.02541 | 12.09423 | 53° | 66km/h | 15255m | 5.4m/s | -57.8°C | 4.7% | 123.3hPa | 2.6V | 00:00:00 | 01:50:39 | 00:00:00 | |
| DF3TZ-5 | 2026-08-31 05:42:33 | 48.02523 | 12.09387 | 53° | 55km/h | 15247m | 2.6m/s | -57.6°C | 1.7% | 123.6hPa | 2.6V | 00:00:00 | 00:00:00 | 00:00:00 | |
| DL6DJ-15 | 2026-08-31 05:42:32 | 48.02523 | 12.09387 | 53° | 55km/h | 15247m | 2.6m/s | -57.6°C | 1.7% | 123.6hPa | 2.6V | 00:00:00 | 00:00:00 | 00:00:00 | |
| BAUMI2-15 | 2026-08-31 05:42:31 | 48.02514 | 12.09370 | 51° | 69km/h | 15243m | 5.4m/s | -57.6°C | 4.6% | 123.6hPa | 2.6V | 00:00:00 | 01:50:36 | 08:30:00 | |
| OM5KV | 2026-08-31 05:42:30 | 48.02514 | 12.09370 | 51° | 58km/h | 15243m | 5.5m/s | -57.7°C | 1.6% | 123.6hPa | 2.7V | 00:00:00 | 00:00:00 | 00:00:00 | |
| OE5WHR-10 | 2026-08-31 05:42:28 | 48.02480 | 12.09311 | 52° | 64km/h | 15229m | 3.2m/s | -57.5°C | 4.7% | 123.9hPa | 2.7V | 00:00:00 | 00:00:00 | 00:00:00 | |
| BAUMI2-15 | 2026-08-31 05:42:26 | 48.02458 | 12.09265 | 59° | 60km/h | 15220m | 4.1m/s | -57.6°C | 4.7% | 124.1hPa | 2.7V | 00:00:00 | 01:50:31 | 00:00:00 | |
| OE5DXL-15 | 2026-08-31 05:42:25 | 48.02450 | 12.09243 | 61° | 68km/h | 15216m | 3.6m/s | -57.6°C | 4.6% | 124.1hPa | 2.7V | 00:00:00 | 00:00:00 | 00:00:00 | |
| DO3MHA-11 | 2026-08-31 05:42:24 | 48.02442 | 12.09224 | 57° | 60km/h | 15211m | 5.3m/s | -57.6°C | 4.7% | 124.2hPa | 2.7V | 00:00:00 | 01:50:29 | 00:00:00 | |
| OE5FHM-15 | 2026-08-31 05:42:23 | 48.02434 | 12.09207 | 50° | 73km/h | 15206m | 5.7m/s | -57.6°C | 4.7% | 124.3hPa | 2.7V | 00:00:00 | 01:50:28 | 00:00:00 | |
| BAUMI2-15 | 2026-08-31 05:42:21 | 48.02414 | 12.09177 | 43° | 60km/h | 15198m | 2.4m/s | -57.4°C | 4.6% | 124.5hPa | 2.7V | 00:00:00 | 01:50:26 | 00:00:00 | |
| S52SK | 2026-08-31 05:42:18 | 48.02385 | 12.09128 | 59° | 62km/h | 15185m | 4.3m/s | -57.3°C | 0% | 0hPa | 2.7V | 00:00:00 | 00:00:00 | 00:00:00 | |
| BAUMI2-15 | 2026-08-31 05:42:16 | 48.02368 | 12.09085 | 59° | 66km/h | 15177m | 4.2m/s | -57.3°C | 4.2% | 124.9hPa | 2.7V | 00:00:00 | 01:50:21 | 00:00:00 | |
| OM5KV | 2026-08-31 05:42:15 | 48.02368 | 12.09085 | 60° | 69km/h | 15177m | 4.2m/s | -57.3°C | 0% | 0hPa | 2.7V | 00:00:00 | 00:00:00 | 00:00:00 | |
| OE5MMP-10 | 2026-08-31 05:42:14 | 48.02348 | 12.09042 | 51° | 62km/h | 15167m | 4.3m/s | -57.3°C | 4.3% | 125.0hPa | 2.7V | 00:00:00 | 01:50:19 | 00:00:00 | |
| NBG1-10 | 2026-08-31 05:42:12 | 48.02328 | 12.09005 | 54° | 64km/h | 15158m | 5.8m/s | -57.5°C | 4.4% | 125.3hPa | 2.7V | 00:00:00 | 01:50:17 | 00:00:00 | |
| OE5GOL-10 | 2026-08-31 05:42:11 | 48.02319 | 12.08987 | 61° | 66km/h | 15153m | 4.6m/s | -57.4°C | 4.5% | 125.3hPa | 2.7V | 00:00:00 | 01:50:16 | 00:00:00 | |
| DB0NH | 2026-08-31 05:42:10 | 48.02312 | 12.08967 | 64° | 62km/h | 15149m | 3.0m/s | -57.3°C | 4.5% | 125.4hPa | 2.7V | 00:00:00 | 01:50:15 | 00:00:00 | |
| DB0UT-7 | 2026-08-31 05:42:08 | 48.02297 | 12.08927 | 58° | 64km/h | 15142m | 5.1m/s | -57.3°C | 4.6% | 125.6hPa | 2.7V | 00:00:00 | 01:50:13 | 00:00:00 | |
| OE5WHR-10 | 2026-08-31 05:42:07 | 48.02288 | 12.08907 | 53° | 71km/h | 15136m | 4.8m/s | -57.3°C | 4.6% | 125.7hPa | 2.7V | 00:00:00 | 00:00:00 | 00:00:00 | |
| DF7PN | 2026-08-31 05:42:06 | 48.02267 | 12.08868 | 54° | 64km/h | 15128m | 3.2m/s | -57.2°C | 1.5% | 125.9hPa | 2.7V | 00:00:00 | 00:00:00 | 00:00:00 | |
| OE5MMP-10 | 2026-08-31 05:42:04 | 48.02258 | 12.08847 | 62° | 78km/h | 15125m | 3.6m/s | -57.3°C | 4.4% | 125.9hPa | 2.7V | 00:00:00 | 01:50:09 | 00:00:00 | |
| DK5PH-5 | 2026-08-31 05:42:03 | 48.02251 | 12.08825 | 69° | 66km/h | 15121m | 4.9m/s | -57.3°C | 4.3% | 126.0hPa | 2.7V | 00:00:00 | 01:50:08 | 00:00:00 | |
| DF3TZ-5 | 2026-08-31 05:42:02 | 48.02238 | 12.08772 | 67° | 80km/h | 15113m | 2.6m/s | -57.4°C | 1.4% | 126.1hPa | 2.7V | 00:00:00 | 00:00:00 | 00:00:00 | |
| BAUMI2-15 | 2026-08-31 05:42:01 | 48.02238 | 12.08772 | 68° | 88km/h | 15113m | 2.6m/s | -57.3°C | 4.2% | 126.1hPa | 2.7V | 00:00:00 | 01:50:06 | 00:00:00 | |
| OM5KV | 2026-08-31 05:41:58 | 48.02217 | 12.08715 | 55° | 91km/h | 15106m | 5.1m/s | -57.4°C | 0% | 0hPa | 2.7V | 00:00:00 | 00:00:00 | 00:00:00 | |
| OM5KV | 2026-08-31 05:41:57 | 48.02203 | 12.08689 | 47° | 93km/h | 15100m | 6.1m/s | -57.5°C | 0% | 0hPa | 2.7V | 00:00:00 | 00:00:00 | 00:00:00 | |
| BAUMI2-15 | 2026-08-31 05:41:56 | 48.02169 | 12.08647 | 35° | 60km/h | 15089m | 4.7m/s | -57.2°C | 4.2% | 126.6hPa | 2.7V | 00:00:00 | 01:50:01 | 00:00:00 | |
| OE5DXL-15 | 2026-08-31 05:41:55 | 48.02155 | 12.08632 | 36° | 58km/h | 15084m | 5.1m/s | -57.2°C | 4.2% | 126.7hPa | 2.7V | 00:00:00 | 00:00:00 | 00:00:00 | |
| DO3MHA-11 | 2026-08-31 05:41:54 | 48.02142 | 12.08619 | 39° | 60km/h | 15077m | 7.9m/s | -57.3°C | 4.2% | 126.8hPa | 2.7V | 00:00:00 | 01:49:59 | 08:30:00 | |
| S52SK | 2026-08-31 05:41:52 | 48.02123 | 12.08588 | 57° | 53km/h | 15062m | 5.7m/s | -57.2°C | 0% | 0hPa | 2.6V | 00:00:00 | 00:00:00 | 00:00:00 | |
| OM5KV | 2026-08-31 05:41:51 | 48.02123 | 12.08588 | 57° | 53km/h | 15062m | 5.7m/s | -57.2°C | 0% | 0hPa | 2.6V | 00:00:00 | 00:00:00 | 00:00:00 | |
| OE5WHR-10 | 2026-08-31 05:41:46 | 48.02052 | 12.08493 | 32° | 57km/h | 15035m | 5.2m/s | -57.2°C | 4.3% | 127.7hPa | 2.6V | 00:00:00 | 01:49:51 | 00:00:00 | |
| OE5DRO-10 | 2026-08-31 05:41:45 | 48.02042 | 12.08482 | 42° | 55km/h | 15030m | 5.1m/s | -57.3°C | 4.4% | 127.8hPa | 2.6V | 00:00:00 | 00:00:00 | 00:00:00 | |
| DO3MHA-11 | 2026-08-31 05:41:44 | 48.02034 | 12.08469 | 57° | 64km/h | 15025m | 3.7m/s | -57.3°C | 4.4% | 127.9hPa | 2.6V | 00:00:00 | 01:49:49 | 00:00:00 | |
| OE5GOL-10 | 2026-08-31 05:41:41 | 48.02013 | 12.08416 | 55° | 60km/h | 15014m | 4.9m/s | 0°C | 0% | 0hPa | 2.6V | 00:00:00 | 01:49:46 | 00:00:00 | |
| DB0NH | 2026-08-31 05:41:40 | 48.02001 | 12.08394 | 49° | 60km/h | 15009m | 4.6m/s | -57.1°C | 4.4% | 128.2hPa | 2.6V | 00:00:00 | 01:49:45 | 00:00:00 | |
| NBG1-10 | 2026-08-31 05:41:39 | 48.01986 | 12.08371 | 45° | 60km/h | 15005m | 4.4m/s | -57.1°C | 4.3% | 128.3hPa | 2.6V | 00:00:00 | 01:49:44 | 08:30:00 | |
| DB0UT-7 | 2026-08-31 05:41:38 | 48.01971 | 12.08350 | 43° | 60km/h | 15000m | 4.8m/s | -57.0°C | 4.4% | 128.4hPa | 2.7V | 00:00:00 | 00:00:00 | 08:30:00 | |
| BAUMI2-15 | 2026-08-31 05:41:36 | 48.01945 | 12.08316 | 41° | 42km/h | 14990m | 5.3m/s | -56.8°C | 4.3% | 128.6hPa | 2.6V | 00:00:00 | 01:49:41 | 00:00:00 | |
| DF7PN | 2026-08-31 05:41:35 | 48.01928 | 12.08294 | 42° | 38km/h | 14978m | 5.1m/s | -56.9°C | 1.4% | 128.9hPa | 2.6V | 00:00:00 | 00:00:00 | 00:00:00 | |
| OE5MMP-10 | 2026-08-31 05:41:34 | 48.01927 | 12.08293 | 43° | 51km/h | 14978m | 5.1m/s | -56.9°C | 4.4% | 128.8hPa | 2.6V | 00:00:00 | 01:49:39 | 00:00:00 | |
| DK5PH-5 | 2026-08-31 05:41:33 | 48.01921 | 12.08284 | 46° | 60km/h | 14974m | 3.7m/s | -56.8°C | 4.3% | 128.9hPa | 2.6V | 00:00:00 | 01:49:38 | 00:00:00 | |
| PG1ADW-2 | 2026-08-31 05:41:32 | 48.01914 | 12.08274 | 48° | 58km/h | 14970m | 3.7m/s | -56.8°C | 4.3% | 129.0hPa | 2.7V | 00:00:00 | 00:00:00 | 00:00:00 | |
| BAUMI2-15 | 2026-08-31 05:41:31 | 48.01908 | 12.08263 | 51° | 51km/h | 14965m | 5.1m/s | -56.8°C | 4.2% | 129.1hPa | 2.7V | 00:00:00 | 01:49:36 | 00:00:00 | |
| DL6DJ-15 | 2026-08-31 05:41:30 | 48.01902 | 12.08251 | 50° | 44km/h | 14960m | 5.5m/s | -56.8°C | 1.3% | 129.3hPa | 2.7V | 00:00:00 | 00:00:00 | 00:00:00 | |
| OM5KV | 2026-08-31 05:41:28 | 48.01893 | 12.08238 | 50° | 49km/h | 14953m | 8.4m/s | -56.7°C | 0% | 0hPa | 2.7V | 00:00:00 | 00:00:00 | 00:00:00 | |
| BAUMI2-15 | 2026-08-31 05:41:26 | 48.01860 | 12.08190 | 40° | 68km/h | 14929m | 7.1m/s | -56.5°C | 4.2% | 129.8hPa | 2.7V | 00:00:00 | 01:49:31 | 00:00:00 | |
| OE5WHR-10 | 2026-08-31 05:41:25 | 48.01845 | 12.08172 | 40° | 64km/h | 14923m | 4.6m/s | -56.5°C | 4.2% | 130.0hPa | 2.7V | 00:00:00 | 00:00:00 | 08:30:00 | |
| DO3MHA-11 | 2026-08-31 05:41:24 | 48.01831 | 12.08154 | 41° | 62km/h | 14919m | 3.3m/s | -56.4°C | 4.2% | 130.0hPa | 2.7V | 00:00:00 | 01:49:29 | 00:00:00 | |
| BAUMI2-15 | 2026-08-31 05:41:21 | 48.01798 | 12.08110 | 49° | 58km/h | 14903m | 5.2m/s | -56.3°C | 4.0% | 130.4hPa | 2.6V | 00:00:00 | 01:49:26 | 00:00:00 | |
| OM5KV | 2026-08-31 05:41:20 | 48.01798 | 12.08110 | 50° | 47km/h | 14903m | 5.3m/s | -56.4°C | 0% | 0hPa | 2.6V | 00:00:00 | 00:00:00 | 00:00:00 | |
| OM5KV | 2026-08-31 05:41:19 | 48.01790 | 12.08096 | 54° | 49km/h | 14897m | 5.2m/s | -56.3°C | 0% | 0hPa | 2.6V | 00:00:00 | 00:00:00 | 00:00:00 | |
| BAUMI2-15 | 2026-08-31 05:41:16 | 48.01753 | 12.08018 | 56° | 66km/h | 14876m | 4.9m/s | -56.0°C | 4.0% | 130.9hPa | 2.6V | 00:00:00 | 01:49:21 | 00:00:00 | |
| DO3MHA-11 | 2026-08-31 05:41:14 | 48.01733 | 12.07975 | 57° | 64km/h | 14863m | 6.9m/s | -55.9°C | 4.1% | 131.2hPa | 2.6V | 00:00:00 | 01:49:19 | 00:00:00 | |
| PG1ADW-2 | 2026-08-31 05:41:12 | 48.01716 | 12.07935 | 58° | 64km/h | 14851m | 5.6m/s | -55.8°C | 4.0% | 131.5hPa | 2.6V | 00:00:00 | 00:00:00 | 00:00:00 | |
| BAUMI2-15 | 2026-08-31 05:41:11 | 48.01707 | 12.07914 | 60° | 66km/h | 14846m | 5.7m/s | -55.8°C | 4.1% | 131.6hPa | 2.6V | 00:00:00 | 01:49:16 | 00:00:00 | |
| DB0NH | 2026-08-31 05:41:10 | 48.01698 | 12.07891 | 62° | 66km/h | 14840m | 4.3m/s | -55.8°C | 4.1% | 131.8hPa | 2.6V | 00:00:00 | 01:49:15 | 08:30:00 | |
| DB0UT-7 | 2026-08-31 05:41:08 | 48.01682 | 12.07846 | 63° | 66km/h | 14832m | 6.2m/s | -55.7°C | 4.1% | 131.9hPa | 2.7V | 00:00:00 | 01:49:13 | 00:00:00 | |
| OE5DRO-10 | 2026-08-31 05:41:07 | 48.01675 | 12.07826 | 62° | 64km/h | 14826m | 5.3m/s | -55.6°C | 4.1% | 132.0hPa | 2.7V | 00:00:00 | 00:00:00 | 00:00:00 | |
| BAUMI2-15 | 2026-08-31 05:41:06 | 48.01668 | 12.07807 | 58° | 64km/h | 14821m | 3.9m/s | -55.6°C | 4.1% | 132.1hPa | 2.7V | 00:00:00 | 01:49:11 | 00:00:00 | |
| OM5KV | 2026-08-31 05:41:05 | 48.01668 | 12.07807 | 58° | 57km/h | 14821m | 4.0m/s | -55.6°C | 0% | 0hPa | 2.7V | 00:00:00 | 00:00:00 | 00:00:00 | |
| DF7PN | 2026-08-31 05:41:04 | 48.01639 | 12.07751 | 50° | 68km/h | 14806m | 4.2m/s | -55.5°C | 1.4% | 132.5hPa | 2.7V | 00:00:00 | 00:00:00 | 00:00:00 | |
| DK5PH-5 | 2026-08-31 05:41:03 | 48.01639 | 12.07751 | 51° | 69km/h | 14806m | 4.2m/s | -55.5°C | 4.1% | 132.4hPa | 2.7V | 00:00:00 | 01:49:08 | 00:00:00 | |
| OM5KV | 2026-08-31 05:41:01 | 48.01628 | 12.07731 | 51° | 69km/h | 14802m | 4.3m/s | -55.5°C | 0% | 0hPa | 2.7V | 00:00:00 | 00:00:00 | 00:00:00 | |
| DL6DJ-15 | 2026-08-31 05:40:59 | 48.01601 | 12.07673 | 61° | 58km/h | 14786m | 5.4m/s | -55.3°C | 1.3% | 132.8hPa | 2.7V | 00:00:00 | 00:00:00 | 00:00:00 | |
| OM5KV | 2026-08-31 05:40:58 | 48.01601 | 12.07673 | 63° | 58km/h | 14786m | 5.4m/s | -55.3°C | 0% | 0hPa | 2.7V | 00:00:00 | 00:00:00 | 00:00:00 | |
| BAUMI2-15 | 2026-08-31 05:40:56 | 48.01578 | 12.07610 | 59° | 89km/h | 14770m | 4.1m/s | -54.9°C | 3.9% | 133.2hPa | 2.7V | 00:00:00 | 01:49:01 | 00:00:00 | |
| OE5DXL-15 | 2026-08-31 05:40:55 | 48.01569 | 12.07588 | 56° | 73km/h | 14765m | 6.3m/s | -54.9°C | 3.8% | 133.3hPa | 2.7V | 00:00:00 | 00:00:00 | 00:00:00 | |
| OE5MMP-10 | 2026-08-31 05:40:54 | 48.01559 | 12.07568 | 54° | 64km/h | 14760m | 4.8m/s | -54.8°C | 3.8% | 133.4hPa | 2.7V | 00:00:00 | 01:48:59 | 00:00:00 | |
| OM5KV | 2026-08-31 05:40:53 | 48.01559 | 12.07568 | 55° | 66km/h | 14760m | 4.9m/s | -54.9°C | 0% | 0hPa | 2.7V | 00:00:00 | 00:00:00 | 00:00:00 | |
| S52SK | 2026-08-31 05:40:52 | 48.01549 | 12.07547 | 57° | 66km/h | 14755m | 4.0m/s | -55.0°C | 0% | 0hPa | 2.7V | 00:00:00 | 00:00:00 | 00:00:00 | |
| PG1ADW-2 | 2026-08-31 05:40:49 | 48.01518 | 12.07457 | 67° | 73km/h | 14734m | 5.4m/s | -54.8°C | 4.0% | 133.9hPa | 2.7V | 00:00:00 | 01:48:54 | 00:00:00 | |
| OE5DRO-10 | 2026-08-31 05:40:48 | 48.01512 | 12.07436 | 63° | 75km/h | 14729m | 5.7m/s | -54.8°C | 4.0% | 134.1hPa | 2.7V | 00:00:00 | 00:00:00 | 00:00:00 | |
| OM5KV | 2026-08-31 05:40:46 | 48.01504 | 12.07417 | 60° | 58km/h | 14724m | 3.9m/s | 0°C | 0% | 0hPa | 2.7V | 00:00:00 | 00:00:00 | 00:00:00 | |
| DO3MHA-11 | 2026-08-31 05:40:44 | 48.01482 | 12.07358 | 64° | 77km/h | 14710m | 6.6m/s | -54.7°C | 4.1% | 134.5hPa | 2.7V | 00:00:00 | 01:48:49 | 00:00:00 | |
| OE5WHR-10 | 2026-08-31 05:40:43 | 48.01474 | 12.07335 | 68° | 80km/h | 14704m | 4.6m/s | -54.7°C | 4.1% | 134.5hPa | 2.7V | 00:00:00 | 01:48:48 | 00:00:00 | |
| OM5KV | 2026-08-31 05:40:40 | 48.01460 | 12.07285 | 67° | 71km/h | 14695m | 6.2m/s | 0°C | 0% | 0hPa | 2.7V | 00:00:00 | 00:00:00 | 00:00:00 | |
| DG1MJG | 2026-08-31 05:40:39 | 48.01452 | 12.07261 | 61° | 69km/h | 14690m | 5.8m/s | -54.9°C | 1.6% | 134.9hPa | 2.7V | 00:00:00 | 00:00:00 | 00:00:00 | |
| DB0NH | 2026-08-31 05:40:38 | 48.01430 | 12.07218 | 48° | 78km/h | 14679m | 3.9m/s | -55.2°C | 4.3% | 135.1hPa | 2.7V | 00:00:00 | 01:48:43 | 00:00:00 | |
| DO3MHA-11 | 2026-08-31 05:40:34 | 48.01375 | 12.07116 | 62° | 80km/h | 14658m | 5.4m/s | -54.9°C | 4.1% | 135.5hPa | 2.7V | 00:00:00 | 01:48:39 | 00:00:00 | |
| NBG1-10 | 2026-08-31 05:40:33 | 48.01366 | 12.07085 | 70° | 82km/h | 14652m | 6.9m/s | -54.9°C | 4.0% | 135.7hPa | 2.7V | 00:00:00 | 01:48:38 | 00:00:00 | |
| DF7PN | 2026-08-31 05:40:32 | 48.01359 | 12.07054 | 74° | 82km/h | 14644m | 9.0m/s | -55.0°C | 1.5% | 135.9hPa | 2.7V | 00:00:00 | 00:00:00 | 00:00:00 | |
| OE5DRO-10 | 2026-08-31 05:40:29 | 48.01348 | 12.06966 | 81° | 82km/h | 14616m | 8.9m/s | -55.3°C | 4.2% | 136.4hPa | 2.7V | 00:00:00 | 00:00:00 | 00:00:00 | |
| DL6DJ-15 | 2026-08-31 05:40:28 | 48.01341 | 12.06911 | 76° | 73km/h | 14600m | 7.3m/s | -55.4°C | 1.8% | 136.9hPa | 2.7V | 00:00:00 | 00:00:00 | 00:00:00 | |
| DO8TBO-1 | 2026-08-31 05:40:27 | 48.01341 | 12.06911 | 77° | 108km/h | 14600m | 7.2m/s | -55.3°C | 4.4% | 136.8hPa | 2.7V | 00:00:00 | 01:48:32 | 00:00:00 | |
| OE5DXL-15 | 2026-08-31 05:40:25 | 48.01330 | 12.06855 | 74° | 82km/h | 14588m | 5.1m/s | -55.4°C | 4.5% | 137.0hPa | 2.7V | 00:00:00 | 00:00:00 | 08:30:00 | |
| OE5MMP-10 | 2026-08-31 05:40:24 | 48.01324 | 12.06825 | 75° | 84km/h | 14583m | 5.6m/s | -55.3°C | 4.5% | 137.2hPa | 2.7V | 00:00:00 | 01:48:29 | 00:00:00 | |
| OE5WHR-10 | 2026-08-31 05:40:22 | 48.01312 | 12.06762 | 76° | 82km/h | 14574m | 2.8m/s | -55.3°C | 4.6% | 137.4hPa | 2.7V | 00:00:00 | 00:00:00 | 00:00:00 | |
| OM5KV | 2026-08-31 05:40:17 | 48.01285 | 12.06645 | 71° | 80km/h | 14553m | 5.3m/s | 0°C | 0% | 0hPa | 2.7V | 00:00:00 | 00:00:00 | 00:00:00 | |
| OE5MMP-10 | 2026-08-31 05:40:14 | 48.01264 | 12.06524 | 77° | 80km/h | 14533m | 5.5m/s | -55.4°C | 4.6% | 138.2hPa | 2.7V | 00:00:00 | 01:48:19 | 00:00:00 | |
| OE5DRO-10 | 2026-08-31 05:40:10 | 48.01240 | 12.06403 | 73° | 82km/h | 14514m | 4.7m/s | -55.5°C | 4.8% | 138.7hPa | 2.7V | 00:00:00 | 00:00:00 | 00:00:00 | |
| PG1ADW-2 | 2026-08-31 05:40:09 | 48.01234 | 12.06374 | 74° | 82km/h | 14509m | 4.1m/s | -55.5°C | 4.7% | 138.8hPa | 2.7V | 00:00:00 | 00:00:00 | 00:00:00 | |
| DB0NH | 2026-08-31 05:40:08 | 48.01229 | 12.06346 | 74° | 84km/h | 14504m | 5.8m/s | -55.6°C | 4.8% | 138.9hPa | 2.7V | 00:00:00 | 01:48:13 | 00:00:00 | |
| OM5KV | 2026-08-31 05:40:05 | 48.01217 | 12.06293 | 72° | 77km/h | 14495m | 3.4m/s | 0°C | 0% | 0hPa | 2.7V | 00:00:00 | 00:00:00 | 00:00:00 | |
| DO3MHA-11 | 2026-08-31 05:40:04 | 48.01204 | 12.06235 | 75° | 84km/h | 14485m | 6.1m/s | -55.5°C | 4.9% | 139.3hPa | 2.7V | 00:00:00 | 01:48:09 | 00:00:00 | |
| DK5PH-5 | 2026-08-31 05:40:03 | 48.01199 | 12.06203 | 79° | 88km/h | 14480m | 4.5m/s | -55.6°C | 4.9% | 139.4hPa | 2.7V | 00:00:00 | 01:48:08 | 00:00:00 | |
| DF3TZ-5 | 2026-08-31 05:39:58 | 48.01159 | 12.05996 | 73° | 86km/h | 14447m | 4.6m/s | -55.8°C | 2.3% | 140.2hPa | 2.6V | 00:00:00 | 00:00:00 | 00:00:00 | |
| DL6DJ-15 | 2026-08-31 05:39:57 | 48.01159 | 12.05996 | 73° | 86km/h | 14447m | 4.6m/s | -55.8°C | 2.3% | 140.2hPa | 2.6V | 00:00:00 | 00:00:00 | 00:00:00 | |
| OE5DXL-15 | 2026-08-31 05:39:55 | 48.01154 | 12.05964 | 78° | 89km/h | 14443m | 3.4m/s | -55.8°C | 5.0% | 140.2hPa | 2.6V | 00:00:00 | 01:48:00 | 00:00:00 | |
| DO3MHA-11 | 2026-08-31 05:39:54 | 48.01149 | 12.05932 | 76° | 86km/h | 14439m | 5.5m/s | -55.8°C | 5.0% | 140.3hPa | 2.6V | 00:00:00 | 01:47:59 | 00:00:00 | |
| OM5KV | 2026-08-31 05:39:53 | 48.01149 | 12.05932 | 77° | 86km/h | 14439m | 5.6m/s | 0°C | 0% | 0hPa | 2.7V | 00:00:00 | 00:00:00 | 00:00:00 | |
| OE5DRO-10 | 2026-08-31 05:39:51 | 48.01132 | 12.05844 | 73° | 89km/h | 14422m | 5.5m/s | -55.9°C | 5.0% | 140.7hPa | 2.7V | 00:00:00 | 00:00:00 | 00:00:00 | |
| OM5KV | 2026-08-31 05:39:50 | 48.01132 | 12.05844 | 73° | 78km/h | 14422m | 5.5m/s | 0°C | 0% | 0hPa | 2.7V | 00:00:00 | 00:00:00 | 00:00:00 | |
| PG1ADW-2 | 2026-08-31 05:39:49 | 48.01121 | 12.05784 | 76° | 89km/h | 14409m | 5.3m/s | -56.0°C | 5.0% | 141.0hPa | 2.7V | 00:00:00 | 00:00:00 | 00:00:00 | |
| OM5KV | 2026-08-31 05:39:45 | 48.01106 | 12.05685 | 76° | 88km/h | 14394m | 4.9m/s | 0°C | 0% | 0hPa | 2.7V | 00:00:00 | 00:00:00 | 00:00:00 | |
| OE5MMP-10 | 2026-08-31 05:39:44 | 48.01094 | 12.05622 | 73° | 91km/h | 14386m | 7.1m/s | -56.1°C | 5.2% | 141.5hPa | 2.7V | 00:00:00 | 01:47:49 | 00:00:00 | |
| OE5WHR-10 | 2026-08-31 05:39:40 | 48.01070 | 12.05487 | 80° | 91km/h | 14364m | 5.5m/s | -56.2°C | 5.4% | 142.0hPa | 2.7V | 00:00:00 | 01:47:45 | 00:00:00 | |
| OM5KV | 2026-08-31 05:39:38 | 48.01066 | 12.05455 | 82° | 86km/h | 14359m | 4.2m/s | 0°C | 0% | 0hPa | 2.7V | 00:00:00 | 00:00:00 | 00:00:00 | |
| DB0NH | 2026-08-31 05:39:37 | 48.01060 | 12.05389 | 82° | 95km/h | 14352m | 5.2m/s | -56.3°C | 5.5% | 142.3hPa | 2.7V | 00:00:00 | 01:47:42 | 00:00:00 | |
| DB0UT-7 | 2026-08-31 05:39:34 | 48.01044 | 12.05286 | 72° | 99km/h | 14339m | 5.5m/s | -56.7°C | 5.7% | 142.6hPa | 2.6V | 00:00:00 | 00:00:00 | 00:00:00 | |
| DK5PH-5 | 2026-08-31 05:39:33 | 48.01036 | 12.05254 | 69° | 99km/h | 14333m | 5.3m/s | -56.8°C | 5.8% | 142.7hPa | 2.6V | 00:00:00 | 01:47:38 | 00:00:00 | |
| OE5DRO-10 | 2026-08-31 05:39:32 | 48.01028 | 12.05225 | 69° | 95km/h | 14329m | 4.0m/s | -56.9°C | 5.9% | 142.8hPa | 2.6V | 00:00:00 | 00:00:00 | 00:00:00 | |
| OE5FHM-15 | 2026-08-31 05:39:30 | 48.01014 | 12.05165 | 75° | 100km/h | 14321m | 6.4m/s | -57.0°C | 5.9% | 143.0hPa | 2.6V | 00:00:00 | 01:47:35 | 00:00:00 | |
| PG1ADW-2 | 2026-08-31 05:39:28 | 48.01003 | 12.05096 | 80° | 99km/h | 14307m | 6.0m/s | -57.0°C | 6.1% | 143.3hPa | 2.6V | 00:00:00 | 01:47:33 | 00:00:00 | |
| NBG1-10 | 2026-08-31 05:39:27 | 48.00999 | 12.05058 | 82° | 104km/h | 14302m | 4.6m/s | -57.1°C | 6.2% | 143.4hPa | 2.6V | 00:00:00 | 01:47:32 | 00:00:00 | |
| OE5DXL-15 | 2026-08-31 05:39:25 | 48.00990 | 12.04988 | 79° | 102km/h | 14292m | 4.4m/s | -57.0°C | 6.3% | 143.6hPa | 2.6V | 00:00:00 | 00:00:00 | 00:00:00 | |
| DO3MHA-11 | 2026-08-31 05:39:24 | 48.00985 | 12.04956 | 76° | 97km/h | 14288m | 3.5m/s | -57.1°C | 6.3% | 143.7hPa | 2.6V | 00:00:00 | 01:47:29 | 00:00:00 | |
| OE5WHR-10 | 2026-08-31 05:39:19 | 48.00952 | 12.04785 | 77° | 104km/h | 14264m | 6.6m/s | -57.2°C | 6.6% | 144.2hPa | 2.7V | 00:00:00 | 00:00:00 | 00:00:00 | |
| OM5KV | 2026-08-31 05:39:17 | 48.00946 | 12.04749 | 79° | 95km/h | 14258m | 5.6m/s | 0°C | 0% | 0hPa | 2.7V | 00:00:00 | 00:00:00 | 00:00:00 | |
| DO3MHA-11 | 2026-08-31 05:39:14 | 48.00925 | 12.04600 | 77° | 106km/h | 14239m | 2.5m/s | -57.2°C | 6.7% | 144.8hPa | 2.7V | 00:00:00 | 01:47:19 | 00:00:00 | |
| OE5DRO-10 | 2026-08-31 05:39:13 | 48.00919 | 12.04561 | 75° | 108km/h | 14235m | 6.6m/s | -57.2°C | 6.7% | 144.9hPa | 2.7V | 00:00:00 | 00:00:00 | 08:30:00 | |
| PG1ADW-2 | 2026-08-31 05:39:08 | 48.00893 | 12.04374 | 79° | 110km/h | 14209m | 4.1m/s | -57.1°C | 6.8% | 145.5hPa | 2.7V | 00:00:00 | 00:00:00 | 00:00:00 | |
| DG1MJG | 2026-08-31 05:39:07 | 48.00893 | 12.04374 | 79° | 110km/h | 14209m | 4.1m/s | -57.1°C | 3.7% | 145.5hPa | 2.7V | 00:00:00 | 00:00:00 | 00:00:00 | |
| OE5MMP-10 | 2026-08-31 05:39:04 | 48.00866 | 12.04214 | 75° | 110km/h | 14190m | 4.5m/s | -57.0°C | 6.7% | 146.0hPa | 2.7V | 00:00:00 | 01:47:09 | 00:00:00 | |
| DK5PH-5 | 2026-08-31 05:39:03 | 48.00860 | 12.04176 | 75° | 115km/h | 14185m | 5.0m/s | -57.0°C | 6.7% | 146.1hPa | 2.6V | 00:00:00 | 01:47:08 | 00:00:00 | |
| DF7PN | 2026-08-31 05:38:59 | 48.00837 | 12.04017 | 79° | 106km/h | 14165m | 4.7m/s | -57.1°C | 3.9% | 146.6hPa | 2.6V | 00:00:00 | 00:00:00 | 00:00:00 | |
| DF3TZ-5 | 2026-08-31 05:38:56 | 48.00815 | 12.03850 | 78° | 119km/h | 14149m | 4.2m/s | -57.4°C | 4.0% | 147.0hPa | 2.6V | 00:00:00 | 00:00:00 | 00:00:00 | |
| DL6DJ-15 | 2026-08-31 05:38:55 | 48.00809 | 12.03807 | 77° | 113km/h | 14145m | 4.1m/s | -57.5°C | 4.0% | 147.1hPa | 2.6V | 00:00:00 | 00:00:00 | 00:00:00 | |
| OE5MMP-10 | 2026-08-31 05:38:54 | 48.00809 | 12.03807 | 78° | 113km/h | 14145m | 4.1m/s | -57.4°C | 7.3% | 147.1hPa | 2.6V | 00:00:00 | 01:46:59 | 00:00:00 | |
| NBG1-10 | 2026-08-31 05:38:53 | 48.00802 | 12.03766 | 75° | 119km/h | 14140m | 5.3m/s | -57.4°C | 7.4% | 147.1hPa | 2.6V | 00:00:00 | 01:46:58 | 00:00:00 | |
| PG1ADW-2 | 2026-08-31 05:38:48 | 48.00765 | 12.03568 | 77° | 120km/h | 14119m | 4.0m/s | -57.3°C | 7.5% | 147.6hPa | 2.6V | 00:00:00 | 00:00:00 | 08:30:00 | |
| BAUMI2-15 | 2026-08-31 05:38:47 | 48.00758 | 12.03523 | 78° | 117km/h | 14115m | 3.3m/s | -57.4°C | 7.4% | 147.7hPa | 2.6V | 00:00:00 | 01:46:52 | 00:00:00 | |
| DO3MHA-11 | 2026-08-31 05:38:44 | 48.00736 | 12.03393 | 75° | 120km/h | 14102m | 3.6m/s | -57.3°C | 7.4% | 147.9hPa | 2.6V | 00:00:00 | 01:46:49 | 00:00:00 | |
| BAUMI2-15 | 2026-08-31 05:38:42 | 48.00722 | 12.03309 | 77° | 122km/h | 14094m | 5.6m/s | -57.2°C | 7.4% | 148.2hPa | 2.6V | 00:00:00 | 01:46:47 | 00:00:00 | |
| OE5WHR-10 | 2026-08-31 05:38:37 | 48.00681 | 12.03086 | 73° | 122km/h | 14072m | 3.3m/s | -57.1°C | 7.6% | 148.7hPa | 2.7V | 00:00:00 | 01:46:42 | 00:00:00 | |
| DG1MJG | 2026-08-31 05:38:36 | 48.00681 | 12.03086 | 74° | 117km/h | 14072m | 3.3m/s | -57.1°C | 4.4% | 148.7hPa | 2.7V | 00:00:00 | 00:00:00 | 00:00:00 | |
| OE5DRO-10 | 2026-08-31 05:38:35 | 48.00664 | 12.03001 | 76° | 124km/h | 14065m | 4.7m/s | -57.2°C | 7.7% | 148.8hPa | 2.7V | 00:00:00 | 00:00:00 | 00:00:00 | |
| DO3MHA-11 | 2026-08-31 05:38:34 | 48.00657 | 12.02956 | 78° | 122km/h | 14061m | 4.2m/s | -57.2°C | 7.8% | 149.0hPa | 2.7V | 00:00:00 | 01:46:39 | 00:00:00 | |
| DK5PH-5 | 2026-08-31 05:38:33 | 48.00651 | 12.02910 | 79° | 128km/h | 14057m | 3.2m/s | -57.3°C | 7.9% | 149.1hPa | 2.7V | 00:00:00 | 01:46:38 | 08:30:00 | |
| BAUMI2-15 | 2026-08-31 05:38:32 | 48.00644 | 12.02864 | 79° | 117km/h | 14054m | 2.8m/s | -57.4°C | 7.9% | 149.1hPa | 2.7V | 00:00:00 | 01:46:37 | 00:00:00 | |
| OE5FHM-15 | 2026-08-31 05:38:30 | 48.00631 | 12.02776 | 77° | 128km/h | 14046m | 3.9m/s | 0°C | 0% | 0hPa | 2.7V | 00:00:00 | 01:46:35 | 00:00:00 | |
| PG1ADW-2 | 2026-08-31 05:38:28 | 48.00616 | 12.02694 | 75° | 128km/h | 14039m | 4.4m/s | -57.8°C | 8.3% | 149.5hPa | 2.7V | 00:00:00 | 00:00:00 | 00:00:00 | |
| BAUMI2-15 | 2026-08-31 05:38:27 | 48.00608 | 12.02651 | 75° | 131km/h | 14035m | 4.3m/s | -57.8°C | 8.5% | 149.6hPa | 2.7V | 00:00:00 | 01:46:32 | 00:00:00 | |
| OE5DXL-15 | 2026-08-31 05:38:25 | 48.00589 | 12.02558 | 73° | 133km/h | 14026m | 4.9m/s | -57.9°C | 8.7% | 149.8hPa | 2.7V | 00:00:00 | 00:00:00 | 00:00:00 | |
| OE5MMP-10 | 2026-08-31 05:38:24 | 48.00579 | 12.02509 | 72° | 128km/h | 14022m | 4.3m/s | -57.8°C | 8.9% | 149.9hPa | 2.7V | 00:00:00 | 01:46:29 | 00:00:00 | |
| DL6DJ-15 | 2026-08-31 05:38:23 | 48.00568 | 12.02462 | 72° | 131km/h | 14018m | 2.8m/s | -57.9°C | 5.4% | 150.1hPa | 2.7V | 00:00:00 | 00:00:00 | 00:00:00 | |
| BAUMI2-15 | 2026-08-31 05:38:22 | 48.00559 | 12.02414 | 75° | 122km/h | 14014m | 4.8m/s | -58.0°C | 9.0% | 150.1hPa | 2.7V | 00:00:00 | 01:46:27 | 00:00:00 | |
| NBG1-10 | 2026-08-31 05:38:20 | 48.00543 | 12.02324 | 77° | 135km/h | 14006m | 3.2m/s | -57.9°C | 9.0% | 150.4hPa | 2.7V | 00:00:00 | 01:46:25 | 00:00:00 | |
| BAUMI2-15 | 2026-08-31 05:38:17 | 48.00515 | 12.02195 | 69° | 131km/h | 13995m | 3.3m/s | -57.8°C | 9.1% | 150.6hPa | 2.6V | 00:00:00 | 01:46:22 | 00:00:00 | |
| OE5WHR-10 | 2026-08-31 05:38:16 | 48.00503 | 12.02149 | 68° | 135km/h | 13991m | 3.7m/s | -58.0°C | 9.2% | 150.7hPa | 2.6V | 00:00:00 | 00:00:00 | 08:30:00 | |
| BAUMI2-15 | 2026-08-31 05:38:12 | 48.00460 | 12.01959 | 74° | 133km/h | 13973m | 4.8m/s | -58.1°C | 9.4% | 151.2hPa | 2.7V | 00:00:00 | 01:46:17 | 08:30:00 | |
| PG1ADW-2 | 2026-08-31 05:38:08 | 48.00412 | 12.01772 | 68° | 139km/h | 13953m | 6.0m/s | -58.2°C | 10.0% | 151.6hPa | 2.7V | 00:00:00 | 01:46:13 | 00:00:00 | |
| BAUMI2-15 | 2026-08-31 05:38:07 | 48.00399 | 12.01722 | 70° | 139km/h | 13948m | 4.1m/s | -58.2°C | 9.9% | 151.7hPa | 2.7V | 00:00:00 | 01:46:12 | 00:00:00 | |
| DG1MJG | 2026-08-31 05:38:05 | 48.00386 | 12.01672 | 70° | 141km/h | 13944m | 3.4m/s | -58.2°C | 6.3% | 151.8hPa | 2.7V | 00:00:00 | 00:00:00 | 00:00:00 | |
| DO3MHA-11 | 2026-08-31 05:38:04 | 48.00360 | 12.01575 | 69° | 135km/h | 13936m | 3.0m/s | -58.1°C | 10.2% | 152.0hPa | 2.7V | 00:00:00 | 01:46:09 | 00:00:00 | |
| DK5PH-5 | 2026-08-31 05:38:03 | 48.00347 | 12.01528 | 67° | 137km/h | 13933m | 2.6m/s | -58.2°C | 10.1% | 152.1hPa | 2.7V | 00:00:00 | 01:46:08 | 00:00:00 | |
| BAUMI2-15 | 2026-08-31 05:38:02 | 48.00335 | 12.01481 | 69° | 137km/h | 13929m | 5.3m/s | -58.2°C | 10.1% | 152.1hPa | 2.7V | 00:00:00 | 01:46:07 | 00:00:00 | |
| DF7PN | 2026-08-31 05:37:57 | 48.00268 | 12.01243 | 66° | 133km/h | 13906m | 3.6m/s | -58.2°C | 6.8% | 152.7hPa | 2.7V | 00:00:00 | 00:00:00 | 00:00:00 | |
| DL6DJ-15 | 2026-08-31 05:37:52 | 48.00199 | 12.01005 | 65° | 142km/h | 13888m | 4.9m/s | -58.3°C | 6.9% | 153.2hPa | 2.7V | 00:00:00 | 00:00:00 | 00:00:00 | |
| DO8TBO-1 | 2026-08-31 05:37:50 | 48.00139 | 12.00817 | 67° | 131km/h | 13870m | 5.2m/s | -58.2°C | 10.8% | 153.5hPa | 2.7V | 00:00:00 | 01:45:53 | 08:30:00 | |
| PG1ADW-2 | 2026-08-31 05:37:48 | 48.00139 | 12.00817 | 67° | 135km/h | 13870m | 5.2m/s | -58.2°C | 10.8% | 153.5hPa | 2.7V | 00:00:00 | 00:00:00 | 00:00:00 | |
| NBG1-10 | 2026-08-31 05:37:47 | 48.00125 | 12.00769 | 68° | 131km/h | 13865m | 3.5m/s | -58.1°C | 10.8% | 153.7hPa | 2.7V | 00:00:00 | 01:45:52 | 00:00:00 | |
| OE5MMP-10 | 2026-08-31 05:37:44 | 48.00082 | 12.00625 | 64° | 135km/h | 13853m | 3.5m/s | -58.2°C | 10.9% | 153.9hPa | 2.7V | 00:00:00 | 01:45:49 | 00:00:00 | |
| BAUMI2-15 | 2026-08-31 05:37:42 | 48.00050 | 12.00533 | 64° | 133km/h | 13846m | 5.5m/s | -58.3°C | 11.0% | 154.2hPa | 2.7V | 00:00:00 | 01:45:47 | 00:00:00 | |
| OE5DRO-10 | 2026-08-31 05:37:38 | 47.99993 | 12.00352 | 64° | 131km/h | 13828m | 4.5m/s | -58.2°C | 11.4% | 154.6hPa | 2.6V | 00:00:00 | 00:00:00 | 00:00:00 | |
| BAUMI2-15 | 2026-08-31 05:37:37 | 47.99977 | 12.00308 | 62° | 139km/h | 13823m | 3.4m/s | -58.3°C | 11.5% | 154.7hPa | 2.6V | 00:00:00 | 01:45:42 | 00:00:00 | |
| DG1MJG | 2026-08-31 05:37:35 | 47.99961 | 12.00262 | 64° | 139km/h | 13820m | 4.2m/s | -58.4°C | 7.6% | 154.9hPa | 2.6V | 00:00:00 | 00:00:00 | 00:00:00 | |
| OE5MMP-10 | 2026-08-31 05:37:34 | 47.99931 | 12.00168 | 65° | 133km/h | 13811m | 3.4m/s | -58.4°C | 11.9% | 155.0hPa | 2.6V | 00:00:00 | 01:45:39 | 00:00:00 | |
| DK5PH-5 | 2026-08-31 05:37:33 | 47.99916 | 12.00120 | 65° | 126km/h | 13807m | 3.0m/s | -58.5°C | 11.9% | 155.1hPa | 2.6V | 00:00:00 | 01:45:38 | 00:00:00 | |
| BAUMI2-15 | 2026-08-31 05:37:32 | 47.99901 | 12.00074 | 64° | 128km/h | 13804m | 4.7m/s | -58.5°C | 12.0% | 155.2hPa | 2.6V | 00:00:00 | 01:45:37 | 00:00:00 | |
| PG1ADW-2 | 2026-08-31 05:37:28 | 47.99839 | 11.99906 | 64° | 126km/h | 13787m | 6.8m/s | -58.5°C | 12.3% | 155.6hPa | 2.6V | 00:00:00 | 00:00:00 | 00:00:00 | |
| BAUMI2-15 | 2026-08-31 05:37:27 | 47.99825 | 11.99860 | 68° | 133km/h | 13781m | 6.3m/s | -58.6°C | 12.4% | 155.8hPa | 2.6V | 00:00:00 | 01:45:32 | 08:30:00 | |
| DF7PN | 2026-08-31 05:37:26 | 47.99812 | 11.99811 | 69° | 139km/h | 13775m | 4.0m/s | -58.6°C | 8.5% | 156.0hPa | 2.7V | 00:00:00 | 00:00:00 | 00:00:00 | |
| OE5DXL-15 | 2026-08-31 05:37:25 | 47.99800 | 11.99762 | 69° | 124km/h | 13772m | 2.9m/s | -58.5°C | 12.4% | 156.0hPa | 2.7V | 00:00:00 | 00:00:00 | 00:00:00 | |
| DO3MHA-11 | 2026-08-31 05:37:24 | 47.99787 | 11.99716 | 67° | 122km/h | 13768m | 4.9m/s | -58.6°C | 12.5% | 156.1hPa | 2.7V | 00:00:00 | 01:45:29 | 08:30:00 | |
| BAUMI2-15 | 2026-08-31 05:37:22 | 47.99758 | 11.99634 | 59° | 122km/h | 13758m | 5.2m/s | -58.8°C | 12.8% | 156.3hPa | 2.7V | 00:00:00 | 01:45:27 | 00:00:00 | |
| DL6DJ-15 | 2026-08-31 05:37:21 | 47.99742 | 11.99596 | 56° | 117km/h | 13752m | 5.9m/s | -58.7°C | 8.9% | 156.5hPa | 2.7V | 00:00:00 | 00:00:00 | 00:00:00 | |
| OE5DRO-10 | 2026-08-31 05:37:19 | 47.99709 | 11.99518 | 61° | 124km/h | 13742m | 4.3m/s | -58.6°C | 13.1% | 156.7hPa | 2.7V | 00:00:00 | 00:00:00 | 00:00:00 | |
| BAUMI2-15 | 2026-08-31 05:37:17 | 47.99680 | 11.99434 | 66° | 119km/h | 13733m | 4.9m/s | -58.5°C | 13.2% | 156.9hPa | 2.7V | 00:00:00 | 01:45:22 | 00:00:00 | |
| DO8TBO-1 | 2026-08-31 05:37:16 | 47.99647 | 11.99312 | 69° | 122km/h | 13721m | 1.8m/s | -58.4°C | 13.4% | 157.3hPa | 2.7V | 00:00:00 | 01:45:19 | 00:00:00 | |
| DO3MHA-11 | 2026-08-31 05:37:14 | 47.99647 | 11.99312 | 69° | 126km/h | 13721m | 1.8m/s | -58.4°C | 13.4% | 157.3hPa | 2.7V | 00:00:00 | 01:45:19 | 00:00:00 | |
| OE5WHR-10 | 2026-08-31 05:37:12 | 47.99623 | 11.99227 | 64° | 122km/h | 13711m | 5.8m/s | -58.4°C | 13.4% | 157.6hPa | 2.7V | 00:00:00 | 00:00:00 | 00:00:00 | |
| PG1ADW-2 | 2026-08-31 05:37:08 | 47.99560 | 11.99048 | 65° | 122km/h | 13693m | 4.4m/s | -58.4°C | 13.2% | 158.0hPa | 2.6V | 00:00:00 | 00:00:00 | 00:00:00 | |
| BAUMI2-15 | 2026-08-31 05:37:07 | 47.99548 | 11.99007 | 66° | 122km/h | 13688m | 6.7m/s | -58.5°C | 13.1% | 158.2hPa | 2.6V | 00:00:00 | 01:45:12 | 00:00:00 | |
| DG1MJG | 2026-08-31 05:37:05 | 47.99536 | 11.98967 | 69° | 115km/h | 13681m | 6.9m/s | -58.5°C | 9.4% | 158.4hPa | 2.6V | 00:00:00 | 00:00:00 | 00:00:00 | |
| DO3MHA-11 | 2026-08-31 05:37:04 | 47.99512 | 11.98884 | 67° | 122km/h | 13668m | 5.7m/s | -58.5°C | 13.8% | 158.6hPa | 2.6V | 00:00:00 | 01:45:09 | 00:00:00 | |
| DK5PH-5 | 2026-08-31 05:37:03 | 47.99499 | 11.98840 | 67° | 124km/h | 13663m | 4.3m/s | -58.4°C | 13.9% | 158.8hPa | 2.6V | 00:00:00 | 01:45:08 | 00:00:00 | |
| BAUMI2-15 | 2026-08-31 05:37:02 | 47.99486 | 11.98797 | 66° | 119km/h | 13658m | 4.6m/s | -58.5°C | 13.9% | 158.8hPa | 2.7V | 00:00:00 | 01:45:07 | 00:00:00 | |
| DF7PN | 2026-08-31 05:36:55 | 47.99390 | 11.98460 | 69° | 124km/h | 13622m | 5.2m/s | -59.0°C | 10.3% | 159.9hPa | 2.7V | 00:00:00 | 00:00:00 | 00:00:00 | |
| DF3TZ-5 | 2026-08-31 05:36:51 | 47.99360 | 11.98328 | 71° | 124km/h | 13607m | 5.1m/s | -59.1°C | 10.4% | 160.3hPa | 2.7V | 00:00:00 | 00:00:00 | 00:00:00 | |
| DL6DJ-15 | 2026-08-31 05:36:50 | 47.99350 | 11.98284 | 71° | 120km/h | 13602m | 4.0m/s | -59.1°C | 10.5% | 160.3hPa | 2.7V | 00:00:00 | 00:00:00 | 00:00:00 | |
| OE5WHR-10 | 2026-08-31 05:36:49 | 47.99340 | 11.98241 | 71° | 124km/h | 13598m | 5.0m/s | -59.1°C | 14.8% | 160.4hPa | 2.7V | 00:00:00 | 00:00:00 | 00:00:00 | |
| PG1ADW-2 | 2026-08-31 05:36:48 | 47.99330 | 11.98199 | 71° | 124km/h | 13593m | 4.9m/s | -59.1°C | 14.8% | 160.5hPa | 2.7V | 00:00:00 | 01:44:53 | 00:00:00 | |
| DB0NH | 2026-08-31 05:36:47 | 47.99319 | 11.98158 | 69° | 126km/h | 13588m | 4.0m/s | -59.1°C | 14.9% | 160.6hPa | 2.7V | 00:00:00 | 01:44:52 | 00:00:00 | |
| DO3MHA-11 | 2026-08-31 05:36:44 | 47.99282 | 11.98027 | 68° | 126km/h | 13575m | 3.5m/s | -59.0°C | 15.1% | 161.0hPa | 2.7V | 00:00:00 | 01:44:49 | 00:00:00 | |
| OE5DRO-10 | 2026-08-31 05:36:41 | 47.99251 | 11.97890 | 74° | 126km/h | 13561m | 5.0m/s | -59.1°C | 15.4% | 161.3hPa | 2.7V | 00:00:00 | 00:00:00 | 00:00:00 | |
| DO3MHA-11 | 2026-08-31 05:36:34 | 47.99172 | 11.97586 | 68° | 128km/h | 13528m | 5.6m/s | -59.0°C | 15.6% | 162.2hPa | 2.7V | 00:00:00 | 01:44:39 | 00:00:00 | |
| DK5PH-5 | 2026-08-31 05:36:33 | 47.99160 | 11.97541 | 71° | 130km/h | 13523m | 4.8m/s | -59.0°C | 15.7% | 162.3hPa | 2.7V | 00:00:00 | 01:44:38 | 00:00:00 | |
| OE5WHR-10 | 2026-08-31 05:36:28 | 47.99108 | 11.97315 | 70° | 130km/h | 13498m | 7.2m/s | -59.0°C | 15.1% | 163.0hPa | 2.7V | 00:00:00 | 01:44:33 | 00:00:00 | |
| OE5FHM-15 | 2026-08-31 05:36:27 | 47.99097 | 11.97270 | 70° | 131km/h | 13491m | 6.8m/s | 0°C | 0% | 0hPa | 2.7V | 00:00:00 | 01:44:32 | 00:00:00 | |
| NBG1-10 | 2026-08-31 05:36:25 | 47.99076 | 11.97180 | 72° | 131km/h | 13479m | 5.8m/s | -58.9°C | 15.0% | 163.4hPa | 2.7V | 00:00:00 | 01:44:30 | 08:30:00 | |
| OE5MMP-10 | 2026-08-31 05:36:24 | 47.99066 | 11.97136 | 71° | 130km/h | 13473m | 6.0m/s | -58.9°C | 15.2% | 163.6hPa | 2.7V | 00:00:00 | 01:44:29 | 00:00:00 | |
| OE5DRO-10 | 2026-08-31 05:36:22 | 47.99045 | 11.97045 | 72° | 131km/h | 13464m | 3.0m/s | -58.9°C | 15.2% | 163.8hPa | 2.7V | 00:00:00 | 00:00:00 | 08:30:00 | |
| DF3TZ-5 | 2026-08-31 05:36:20 | 47.99020 | 11.96905 | 76° | 131km/h | 13450m | 3.2m/s | -58.8°C | 11.1% | 164.3hPa | 2.7V | 00:00:00 | 00:00:00 | 00:00:00 | |
| DL6DJ-15 | 2026-08-31 05:36:19 | 47.99020 | 11.96905 | 76° | 131km/h | 13450m | 3.2m/s | -58.8°C | 11.1% | 164.3hPa | 2.7V | 00:00:00 | 00:00:00 | 00:00:00 | |
| DB0NH | 2026-08-31 05:36:15 | 47.98978 | 11.96713 | 69° | 131km/h | 13431m | 5.3m/s | -58.8°C | 15.6% | 164.7hPa | 2.7V | 00:00:00 | 01:44:20 | 00:00:00 | |
| OE5MMP-10 | 2026-08-31 05:36:14 | 47.98967 | 11.96667 | 71° | 131km/h | 13426m | 4.7m/s | -58.8°C | 15.7% | 164.8hPa | 2.7V | 00:00:00 | 01:44:19 | 00:00:00 | |
| PG1ADW-2 | 2026-08-31 05:36:08 | 47.98914 | 11.96382 | 76° | 133km/h | 13394m | 6.3m/s | -58.8°C | 15.0% | 165.6hPa | 2.7V | 00:00:00 | 00:00:00 | 00:00:00 | |
| OE5WHR-10 | 2026-08-31 05:36:07 | 47.98906 | 11.96333 | 76° | 131km/h | 13388m | 5.9m/s | -58.7°C | 15.0% | 165.7hPa | 2.7V | 00:00:00 | 00:00:00 | 00:00:00 | |
| DG1MJG | 2026-08-31 05:36:05 | 47.98889 | 11.96238 | 75° | 131km/h | 13378m | 6.2m/s | -58.8°C | 11.0% | 166.1hPa | 2.7V | 00:00:00 | 00:00:00 | 00:00:00 | |
| DO3MHA-11 | 2026-08-31 05:36:04 | 47.98880 | 11.96190 | 73° | 133km/h | 13373m | 3.7m/s | -58.7°C | 15.5% | 166.2hPa | 2.7V | 00:00:00 | 01:44:09 | 00:00:00 | |
| DK5PH-5 | 2026-08-31 05:36:03 | 47.98869 | 11.96141 | 74° | 131km/h | 13369m | 2.5m/s | -58.7°C | 15.3% | 166.3hPa | 2.7V | 00:00:00 | 01:44:08 | 00:00:00 | |
| DF7PN | 2026-08-31 05:35:53 | 47.98749 | 11.95571 | 72° | 135km/h | 13312m | 4.8m/s | -58.4°C | 10.1% | 167.9hPa | 2.7V | 00:00:00 | 00:00:00 | 00:00:00 | |
| DF3TZ-5 | 2026-08-31 05:35:49 | 47.98729 | 11.95473 | 72° | 135km/h | 13304m | 4.1m/s | -58.2°C | 10.1% | 168.1hPa | 2.7V | 00:00:00 | 00:00:00 | 00:00:00 | |
| PG1ADW-2 | 2026-08-31 05:35:48 | 47.98719 | 11.95425 | 73° | 130km/h | 13300m | 5.0m/s | -58.2°C | 14.2% | 168.2hPa | 2.7V | 00:00:00 | 00:00:00 | 08:30:00 | |
| OE5WHR-10 | 2026-08-31 05:35:46 | 47.98699 | 11.95336 | 71° | 131km/h | 13291m | 3.7m/s | -58.2°C | 14.1% | 168.4hPa | 2.7V | 00:00:00 | 00:00:00 | 00:00:00 | |
| DB0NH | 2026-08-31 05:35:44 | 47.98678 | 11.95243 | 72° | 131km/h | 13282m | 6.2m/s | -58.2°C | 14.1% | 168.7hPa | 2.7V | 00:00:00 | 01:43:49 | 00:00:00 | |
| OE5MMP-10 | 2026-08-31 05:35:34 | 47.98562 | 11.94773 | 69° | 131km/h | 13234m | 6.4m/s | -58.0°C | 13.4% | 170.0hPa | 2.7V | 00:00:00 | 01:43:39 | 00:00:00 | |
| DK5PH-5 | 2026-08-31 05:35:33 | 47.98550 | 11.94725 | 71° | 131km/h | 13228m | 6.3m/s | 0°C | 0% | 0hPa | 2.6V | 00:00:00 | 01:43:38 | 00:00:00 | |
| DO8TBO-1 | 2026-08-31 05:35:32 | 47.98519 | 11.94581 | 74° | 131km/h | 13212m | 6.5m/s | -57.9°C | 13.4% | 170.6hPa | 2.6V | 00:00:00 | 01:43:35 | 00:00:00 | |
| PG1ADW-2 | 2026-08-31 05:35:28 | 47.98500 | 11.94487 | 73° | 130km/h | 13201m | 4.2m/s | -57.9°C | 13.4% | 170.8hPa | 2.6V | 00:00:00 | 01:43:33 | 00:00:00 | |
| OE5DXL-15 | 2026-08-31 05:35:25 | 47.98469 | 11.94353 | 70° | 131km/h | 13187m | 4.2m/s | -57.7°C | 13.2% | 171.2hPa | 2.6V | 00:00:00 | 00:00:00 | 00:00:00 | |
| DO3MHA-11 | 2026-08-31 05:35:24 | 47.98457 | 11.94306 | 70° | 131km/h | 13182m | 5.8m/s | -57.7°C | 13.2% | 171.3hPa | 2.6V | 00:00:00 | 01:43:29 | 00:00:00 | |
| DF7PN | 2026-08-31 05:35:22 | 47.98420 | 11.94159 | 69° | 137km/h | 13168m | 5.0m/s | -57.6°C | 9.1% | 171.8hPa | 2.6V | 00:00:00 | 00:00:00 | 00:00:00 | |
| OE5FHM-15 | 2026-08-31 05:35:20 | 47.98409 | 11.94112 | 72° | 126km/h | 13164m | 4.4m/s | 0°C | 0% | 0hPa | 2.6V | 00:00:00 | 01:43:25 | 00:00:00 | |
| NBG1-10 | 2026-08-31 05:35:19 | 47.98399 | 11.94067 | 73° | 130km/h | 13159m | 4.5m/s | -57.6°C | 12.9% | 172.0hPa | 2.6V | 00:00:00 | 01:43:24 | 00:00:00 | |
| DF3TZ-5 | 2026-08-31 05:35:18 | 47.98390 | 11.94023 | 74° | 122km/h | 13155m | 4.8m/s | -57.5°C | 9.0% | 172.2hPa | 2.6V | 00:00:00 | 00:00:00 | 00:00:00 | |
| DL6DJ-15 | 2026-08-31 05:35:17 | 47.98382 | 11.93977 | 75° | 124km/h | 13150m | 3.8m/s | -57.6°C | 9.1% | 172.3hPa | 2.6V | 00:00:00 | 00:00:00 | 00:00:00 | |
| DO3MHA-11 | 2026-08-31 05:35:14 | 47.98350 | 11.93838 | 68° | 133km/h | 13138m | 4.7m/s | -57.4°C | 12.9% | 172.6hPa | 2.6V | 00:00:00 | 01:43:19 | 00:00:00 | |
| PG1ADW-2 | 2026-08-31 05:35:08 | 47.98281 | 11.93561 | 75° | 130km/h | 13113m | 3.7m/s | -57.3°C | 13.3% | 173.3hPa | 2.6V | 00:00:00 | 00:00:00 | 00:00:00 | |
| OE5DRO-10 | 2026-08-31 05:35:06 | 47.98260 | 11.93462 | 70° | 130km/h | 13105m | 4.6m/s | -57.2°C | 13.2% | 173.5hPa | 2.6V | 00:00:00 | 00:00:00 | 00:00:00 | |
| OE5MMP-10 | 2026-08-31 05:35:04 | 47.98233 | 11.93369 | 66° | 130km/h | 13097m | 3.3m/s | -57.2°C | 13.1% | 173.7hPa | 2.6V | 00:00:00 | 01:43:09 | 08:30:00 | |
| DK5PH-5 | 2026-08-31 05:35:03 | 47.98220 | 11.93323 | 68° | 128km/h | 13093m | 4.1m/s | 0°C | 0% | 0hPa | 2.7V | 00:00:00 | 01:43:08 | 00:00:00 | |
| DG1MJG | 2026-08-31 05:35:02 | 47.98220 | 11.93323 | 68° | 130km/h | 13093m | 4.2m/s | -57.1°C | 9.2% | 173.8hPa | 2.7V | 00:00:00 | 00:00:00 | 00:00:00 | |
| DF7PN | 2026-08-31 05:34:51 | 47.98083 | 11.92729 | 66° | 126km/h | 13034m | 4.5m/s | -56.8°C | 9.6% | 175.4hPa | 2.7V | 00:00:00 | 00:00:00 | 00:00:00 | |
| BAUMI2-15 | 2026-08-31 05:34:48 | 47.98060 | 11.92643 | 70° | 124km/h | 13027m | 5.0m/s | -56.6°C | 13.5% | 175.7hPa | 2.7V | 00:00:00 | 01:42:53 | 00:00:00 | |
| OE5DRO-10 | 2026-08-31 05:34:47 | 47.98050 | 11.92600 | 74° | 130km/h | 13022m | 5.2m/s | -56.5°C | 13.5% | 175.8hPa | 2.7V | 00:00:00 | 00:00:00 | 00:00:00 | |
| NBG1-10 | 2026-08-31 05:34:46 | 47.98041 | 11.92556 | 75° | 130km/h | 13017m | 4.2m/s | -56.6°C | 13.5% | 175.9hPa | 2.7V | 00:00:00 | 01:42:51 | 00:00:00 | |
| DO3MHA-11 | 2026-08-31 05:34:44 | 47.98024 | 11.92464 | 74° | 130km/h | 13006m | 5.8m/s | -56.5°C | 13.9% | 176.2hPa | 2.6V | 00:00:00 | 01:42:49 | 00:00:00 | |
| OE5WHR-10 | 2026-08-31 05:34:43 | 47.98014 | 11.92415 | 72° | 130km/h | 13001m | 4.6m/s | -56.4°C | 14.0% | 176.4hPa | 2.6V | 00:00:00 | 00:00:00 | 00:00:00 | |
| BAUMI2-15 | 2026-08-31 05:34:38 | 47.97958 | 11.92185 | 70° | 128km/h | 12979m | 6.2m/s | -56.3°C | 14.0% | 177.0hPa | 2.6V | 00:00:00 | 01:42:43 | 08:30:00 | |
| DO3MHA-11 | 2026-08-31 05:34:34 | 47.97914 | 11.92002 | 72° | 130km/h | 12953m | 7.2m/s | -56.3°C | 14.2% | 177.7hPa | 2.7V | 00:00:00 | 01:42:39 | 00:00:00 | |
| DK5PH-5 | 2026-08-31 05:34:33 | 47.97904 | 11.91956 | 72° | 130km/h | 12947m | 5.2m/s | 0°C | 0% | 0hPa | 2.7V | 00:00:00 | 01:42:38 | 00:00:00 | |
| DG1MJG | 2026-08-31 05:34:32 | 47.97904 | 11.91956 | 72° | 130km/h | 12947m | 5.3m/s | -56.3°C | 10.5% | 177.9hPa | 2.7V | 00:00:00 | 00:00:00 | 00:00:00 | |
| DO8TBO-1 | 2026-08-31 05:34:31 | 47.97862 | 11.91764 | 72° | 128km/h | 12928m | 3.6m/s | -56.2°C | 14.3% | 178.4hPa | 2.7V | 00:00:00 | 01:42:34 | 00:00:00 | |
| OE5DRO-10 | 2026-08-31 05:34:28 | 47.97851 | 11.91717 | 71° | 128km/h | 12923m | 6.6m/s | -56.2°C | 14.4% | 178.5hPa | 2.7V | 00:00:00 | 00:00:00 | 00:00:00 | |
| BAUMI2-15 | 2026-08-31 05:34:27 | 47.97840 | 11.91672 | 71° | 130km/h | 12917m | 4.9m/s | -56.2°C | 14.7% | 178.8hPa | 2.6V | 00:00:00 | 01:42:32 | 00:00:00 | |
| OE5DXL-15 | 2026-08-31 05:34:25 | 47.97819 | 11.91585 | 70° | 128km/h | 12909m | 5.3m/s | -56.2°C | 14.8% | 179.0hPa | 2.6V | 00:00:00 | 00:00:00 | 00:00:00 | |
| DO3MHA-11 | 2026-08-31 05:34:24 | 47.97808 | 11.91540 | 70° | 131km/h | 12903m | 4.9m/s | -56.3°C | 15.2% | 179.1hPa | 2.6V | 00:00:00 | 01:42:29 | 08:30:00 | |
| OE5WHR-10 | 2026-08-31 05:34:22 | 47.97784 | 11.91445 | 70° | 130km/h | 12895m | 4.6m/s | -56.2°C | 15.0% | 179.4hPa | 2.7V | 00:00:00 | 01:42:27 | 00:00:00 | |
| BAUMI2-15 | 2026-08-31 05:34:21 | 47.97772 | 11.91397 | 70° | 128km/h | 12890m | 5.1m/s | -56.2°C | 15.1% | 179.5hPa | 2.7V | 00:00:00 | 01:42:26 | 00:00:00 | |
| DF7PN | 2026-08-31 05:34:19 | 47.97750 | 11.91307 | 69° | 122km/h | 12881m | 4.3m/s | -56.2°C | -1.0% | 179.9hPa | 2.7V | 00:00:00 | 00:00:00 | 00:00:00 | |
| BAUMI2-15 | 2026-08-31 05:34:16 | 47.97720 | 11.91169 | 73° | 133km/h | 12867m | 5.0m/s | -56.2°C | 15.7% | 180.2hPa | 2.7V | 00:00:00 | 01:42:21 | 00:00:00 | |
| DL6DJ-15 | 2026-08-31 05:34:15 | 47.97701 | 11.91070 | 74° | 131km/h | 12858m | 4.6m/s | -56.3°C | 11.9% | 180.5hPa | 2.7V | 00:00:00 | 00:00:00 | 00:00:00 | |
| DB0NH | 2026-08-31 05:34:14 | 47.97701 | 11.91070 | 75° | 128km/h | 12858m | 4.6m/s | -56.2°C | 15.8% | 180.5hPa | 2.7V | 00:00:00 | 01:42:19 | 00:00:00 | |
| BAUMI2-15 | 2026-08-31 05:34:11 | 47.97673 | 11.90936 | 70° | 124km/h | 12844m | 4.1m/s | -56.2°C | 15.8% | 180.9hPa | 2.7V | 00:00:00 | 01:42:16 | 00:00:00 | |
| NBG1-10 | 2026-08-31 05:34:10 | 47.97662 | 11.90895 | 67° | 128km/h | 12839m | 5.6m/s | -56.2°C | 16.0% | 181.0hPa | 2.7V | 00:00:00 | 01:42:15 | 00:00:00 | |
| OE5DRO-10 | 2026-08-31 05:34:09 | 47.97650 | 11.90851 | 68° | 130km/h | 12834m | 5.1m/s | -56.2°C | 16.0% | 181.2hPa | 2.7V | 00:00:00 | 00:00:00 | 00:00:00 | |
| PG1ADW-2 | 2026-08-31 05:34:08 | 47.97638 | 11.90806 | 69° | 128km/h | 12829m | 4.7m/s | -56.2°C | 16.3% | 181.3hPa | 2.7V | 00:00:00 | 01:42:13 | 00:00:00 | |
| BAUMI2-15 | 2026-08-31 05:34:06 | 47.97616 | 11.90711 | 75° | 133km/h | 12818m | 5.7m/s | -56.2°C | 16.4% | 181.6hPa | 2.7V | 00:00:00 | 01:42:11 | 00:00:00 | |
| DO3MHA-11 | 2026-08-31 05:34:04 | 47.97599 | 11.90615 | 74° | 126km/h | 12809m | 3.8m/s | -56.1°C | 16.4% | 181.8hPa | 2.6V | 00:00:00 | 01:42:09 | 00:00:00 | |
| DK5PH-5 | 2026-08-31 05:34:02 | 47.97578 | 11.90522 | 68° | 124km/h | 12799m | 4.7m/s | 0°C | 0% | 0hPa | 2.6V | 00:00:00 | 01:42:07 | 00:00:00 | |
| DG1MJG | 2026-08-31 05:34:01 | 47.97578 | 11.90522 | 68° | 126km/h | 12799m | 4.7m/s | -56.2°C | 12.5% | 182.2hPa | 2.6V | 00:00:00 | 00:00:00 | 00:00:00 | |
| DB0ND-19 | 2026-08-31 05:33:51 | 47.97374 | 11.89725 | 72° | 130km/h | 12715m | 5.0m/s | 0°C | -1.0% | -1.0hPa | 2.6V | 00:00:00 | 00:00:00 | 00:00:00 | |
| BAUMI2-15 | 2026-08-31 05:33:50 | 47.97445 | 11.89985 | 72° | 120km/h | 12743m | 4.1m/s | -55.8°C | 16.2% | 183.8hPa | 2.6V | 00:00:00 | 01:41:55 | 08:30:00 | |
| PG1ADW-2 | 2026-08-31 05:33:48 | 47.97423 | 11.89904 | 66° | 126km/h | 12733m | 4.6m/s | -55.8°C | 16.4% | 184.0hPa | 2.7V | 00:00:00 | 00:00:00 | 00:00:00 | |
| BAUMI2-15 | 2026-08-31 05:33:45 | 47.97385 | 11.89771 | 70° | 130km/h | 12720m | 5.2m/s | -55.7°C | 16.2% | 184.4hPa | 2.6V | 00:00:00 | 01:41:50 | 00:00:00 | |
| DB0NH | 2026-08-31 05:33:44 | 47.97374 | 11.89725 | 73° | 133km/h | 12715m | 5.0m/s | -55.6°C | 16.3% | 184.5hPa | 2.6V | 00:00:00 | 01:41:49 | 00:00:00 | |
| OE5WHR-10 | 2026-08-31 05:33:40 | 47.97335 | 11.89544 | 69° | 126km/h | 12696m | 5.2m/s | -55.5°C | 16.5% | 185.1hPa | 2.6V | 00:00:00 | 00:00:00 | 00:00:00 | |
| NBG1-10 | 2026-08-31 05:33:37 | 47.97300 | 11.89409 | 72° | 130km/h | 12682m | 6.1m/s | -55.4°C | 16.7% | 185.5hPa | 2.6V | 00:00:00 | 01:41:42 | 00:00:00 | |
| BAUMI2-15 | 2026-08-31 05:33:35 | 47.97282 | 11.89310 | 78° | 126km/h | 12672m | 3.3m/s | -55.4°C | 17.1% | 185.8hPa | 2.6V | 00:00:00 | 01:41:40 | 00:00:00 | |
| OE5MMP-10 | 2026-08-31 05:33:34 | 47.97275 | 11.89262 | 77° | 124km/h | 12667m | 5.5m/s | -55.4°C | 17.1% | 185.9hPa | 2.7V | 00:00:00 | 01:41:39 | 08:30:00 | |
| OE5DRO-10 | 2026-08-31 05:33:31 | 47.97248 | 11.89133 | 69° | 128km/h | 12653m | 4.6m/s | -55.5°C | 17.3% | 186.4hPa | 2.7V | 00:00:00 | 00:00:00 | 08:30:00 | |
| BAUMI2-15 | 2026-08-31 05:33:30 | 47.97237 | 11.89092 | 70° | 124km/h | 12649m | 4.2m/s | -55.3°C | 17.0% | 186.5hPa | 2.7V | 00:00:00 | 01:41:35 | 00:00:00 | |
| DO8TBO-1 | 2026-08-31 05:33:29 | 47.97209 | 11.88956 | 76° | 128km/h | 12632m | 5.6m/s | -55.3°C | 16.6% | 187.0hPa | 2.7V | 00:00:00 | 01:41:32 | 00:00:00 | |
| OE5DXL-15 | 2026-08-31 05:33:25 | 47.97192 | 11.88860 | 76° | 130km/h | 12621m | 6.0m/s | -55.3°C | 16.7% | 187.3hPa | 2.7V | 00:00:00 | 00:00:00 | 00:00:00 | |
| DO3MHA-11 | 2026-08-31 05:33:24 | 47.97183 | 11.88814 | 73° | 128km/h | 12615m | 5.4m/s | -55.3°C | 17.0% | 187.5hPa | 2.7V | 00:00:00 | 01:41:29 | 00:00:00 | |
| BAUMI2-15 | 2026-08-31 05:33:22 | 47.97164 | 11.88725 | 73° | 124km/h | 12605m | 6.8m/s | -55.2°C | 16.8% | 187.9hPa | 2.7V | 00:00:00 | 01:41:27 | 00:00:00 | |
| OE5WHR-10 | 2026-08-31 05:33:19 | 47.97140 | 11.88589 | 76° | 130km/h | 12589m | 5.9m/s | -55.2°C | 17.1% | 188.3hPa | 2.7V | 00:00:00 | 01:41:24 | 00:00:00 | |
| BAUMI2-15 | 2026-08-31 05:33:17 | 47.97123 | 11.88497 | 74° | 130km/h | 12576m | 5.4m/s | -55.1°C | 17.3% | 188.6hPa | 2.7V | 00:00:00 | 01:41:22 | 00:00:00 | |
| DO3MHA-11 | 2026-08-31 05:33:14 | 47.97096 | 11.88351 | 76° | 130km/h | 12561m | 4.0m/s | -55.1°C | 17.3% | 189.1hPa | 2.7V | 00:00:00 | 01:41:19 | 00:00:00 | |
| DL6DJ-15 | 2026-08-31 05:33:13 | 47.97079 | 11.88253 | 75° | 130km/h | 12552m | 5.4m/s | -55.2°C | 13.2% | 189.4hPa | 2.7V | 00:00:00 | 00:00:00 | 00:00:00 | |
| BAUMI2-15 | 2026-08-31 05:33:12 | 47.97079 | 11.88253 | 76° | 128km/h | 12553m | 5.4m/s | -55.2°C | 17.0% | 189.4hPa | 2.7V | 00:00:00 | 01:41:17 | 00:00:00 | |
| BAUMI2-15 | 2026-08-31 05:33:07 | 47.97041 | 11.88025 | 78° | 131km/h | 12527m | 4.7m/s | -55.1°C | 16.9% | 190.1hPa | 2.7V | 00:00:00 | 01:41:12 | 00:00:00 | |
| DO3MHA-11 | 2026-08-31 05:33:04 | 47.97012 | 11.87883 | 72° | 131km/h | 12511m | 3.9m/s | -55.0°C | 17.1% | 190.6hPa | 2.7V | 00:00:00 | 01:41:09 | 00:00:00 | |
| PG1ADW-2 | 2026-08-31 05:33:03 | 47.97002 | 11.87835 | 72° | 133km/h | 12507m | 3.9m/s | -55.0°C | 17.0% | 190.7hPa | 2.7V | 00:00:00 | 00:00:00 | 00:00:00 | |
| BAUMI2-15 | 2026-08-31 05:33:02 | 47.96992 | 11.87786 | 76° | 131km/h | 12502m | 6.1m/s | -55.0°C | 17.0% | 190.8hPa | 2.7V | 00:00:00 | 01:41:07 | 08:30:00 | |
| DF7PN | 2026-08-31 05:32:47 | 47.96856 | 11.87009 | 78° | 135km/h | 12426m | 5.6m/s | 0°C | -1.0% | -1.0hPa | 2.7V | 00:00:00 | 00:00:00 | 00:00:00 | |
| DO3MHA-11 | 2026-08-31 05:32:44 | 47.96843 | 11.86910 | 80° | 131km/h | 12417m | 3.4m/s | -54.8°C | 17.9% | 193.5hPa | 2.7V | 00:00:00 | 01:40:49 | 00:00:00 | |
| DL6DJ-15 | 2026-08-31 05:32:42 | 47.96816 | 11.86766 | 70° | 133km/h | 12402m | 4.9m/s | -54.8°C | 14.1% | 193.9hPa | 2.7V | 00:00:00 | 00:00:00 | 00:00:00 | |
| PG1ADW-2 | 2026-08-31 05:32:41 | 47.96816 | 11.86766 | 71° | 133km/h | 12402m | 4.8m/s | -54.8°C | 18.0% | 193.9hPa | 2.7V | 00:00:00 | 01:40:46 | 08:30:00 | |
| OE5WHR-10 | 2026-08-31 05:32:35 | 47.96761 | 11.86481 | 77° | 135km/h | 12375m | 5.5m/s | 0°C | 0% | 0hPa | 2.7V | 00:00:00 | 00:00:00 | 00:00:00 | |
| DO3MHA-11 | 2026-08-31 05:32:34 | 47.96753 | 11.86432 | 78° | 137km/h | 12370m | 4.7m/s | -54.6°C | 17.8% | 194.9hPa | 2.7V | 00:00:00 | 01:40:39 | 00:00:00 | |
| NBG1-10 | 2026-08-31 05:32:31 | 47.96729 | 11.86284 | 77° | 133km/h | 12355m | 5.3m/s | -54.6°C | 18.2% | 195.4hPa | 2.7V | 00:00:00 | 01:40:36 | 00:00:00 | |
| OE5DXL-15 | 2026-08-31 05:32:25 | 47.96670 | 11.85983 | 74° | 133km/h | 12326m | 6.2m/s | -54.5°C | 18.4% | 196.3hPa | 2.7V | 00:00:00 | 00:00:00 | 00:00:00 | |
| DO3MHA-11 | 2026-08-31 05:32:24 | 47.96661 | 11.85937 | 76° | 135km/h | 12320m | 5.3m/s | -54.5°C | 18.7% | 196.4hPa | 2.7V | 00:00:00 | 01:40:29 | 00:00:00 | |
| DO8TBO-1 | 2026-08-31 05:32:23 | 47.96642 | 11.85797 | 80° | 133km/h | 12305m | 4.9m/s | -54.4°C | 18.6% | 196.9hPa | 2.7V | 00:00:00 | 01:40:26 | 00:00:00 | |
| PG1ADW-2 | 2026-08-31 05:32:21 | 47.96642 | 11.85797 | 80° | 135km/h | 12305m | 4.9m/s | -54.4°C | 18.6% | 196.9hPa | 2.7V | 00:00:00 | 00:00:00 | 00:00:00 | |
| OE5DRO-10 | 2026-08-31 05:32:15 | 47.96590 | 11.85492 | 74° | 131km/h | 12275m | 4.7m/s | -54.3°C | 18.4% | 197.9hPa | 2.7V | 00:00:00 | 00:00:00 | 00:00:00 | |
| OE5MMP-10 | 2026-08-31 05:32:14 | 47.96581 | 11.85445 | 73° | 133km/h | 12270m | 5.7m/s | -54.3°C | 18.1% | 198.0hPa | 2.7V | 00:00:00 | 01:40:19 | 00:00:00 | |
| DL6DJ-15 | 2026-08-31 05:32:10 | 47.96542 | 11.85252 | 77° | 130km/h | 12245m | 6.4m/s | -54.2°C | 14.6% | 198.8hPa | 2.7V | 00:00:00 | 00:00:00 | 00:00:00 | |
| DO3MHA-11 | 2026-08-31 05:32:04 | 47.96503 | 11.84954 | 75° | 130km/h | 12216m | 4.9m/s | -54.0°C | 18.6% | 199.6hPa | 2.7V | 00:00:00 | 01:40:09 | 00:00:00 | |
| PG1ADW-2 | 2026-08-31 05:32:01 | 47.96479 | 11.84808 | 80° | 135km/h | 12200m | 7.2m/s | -53.9°C | 19.0% | 200.1hPa | 2.7V | 00:00:00 | 00:00:00 | 00:00:00 | |
| NBG1-10 | 2026-08-31 05:31:58 | 47.96464 | 11.84667 | 79° | 137km/h | 12182m | 5.1m/s | -53.8°C | 19.0% | 200.7hPa | 2.7V | 00:00:00 | 01:40:03 | 00:00:00 | |
| OE5DRO-10 | 2026-08-31 05:31:56 | 47.96448 | 11.84575 | 73° | 137km/h | 12172m | 4.9m/s | -53.7°C | 19.0% | 201.0hPa | 2.7V | 00:00:00 | 00:00:00 | 00:00:00 | |
| OE5DXL-15 | 2026-08-31 05:31:55 | 47.96438 | 11.84529 | 73° | 139km/h | 12167m | 4.1m/s | -53.7°C | 18.7% | 201.2hPa | 2.7V | 00:00:00 | 00:00:00 | 00:00:00 | |
| DO3MHA-11 | 2026-08-31 05:31:54 | 47.96429 | 11.84480 | 75° | 135km/h | 12162m | 5.1m/s | -53.6°C | 18.6% | 201.4hPa | 2.7V | 00:00:00 | 01:39:59 | 00:00:00 | |
| OE5WHR-10 | 2026-08-31 05:31:53 | 47.96420 | 11.84431 | 77° | 137km/h | 12157m | 4.7m/s | 0°C | 0% | 0hPa | 2.7V | 00:00:00 | 00:00:00 | 08:30:00 | |
| DO3MHA-11 | 2026-08-31 05:31:44 | 47.96351 | 11.83982 | 74° | 139km/h | 12108m | 6.2m/s | -53.3°C | 18.8% | 203.0hPa | 2.7V | 00:00:00 | 01:39:49 | 00:00:00 | |
| PG1ADW-2 | 2026-08-31 05:31:41 | 47.96324 | 11.83819 | 80° | 139km/h | 12093m | 5.3m/s | -53.2°C | 18.8% | 203.5hPa | 2.7V | 00:00:00 | 00:00:00 | 00:00:00 | |
| DL6DJ-15 | 2026-08-31 05:31:39 | 47.96313 | 11.83719 | 80° | 128km/h | 12083m | 4.7m/s | -53.2°C | 15.1% | 203.9hPa | 2.7V | 00:00:00 | 00:00:00 | 00:00:00 | |
| OE5DRO-10 | 2026-08-31 05:31:37 | 47.96299 | 11.83623 | 75° | 141km/h | 12073m | 4.7m/s | -53.0°C | 19.0% | 204.1hPa | 2.7V | 00:00:00 | 00:00:00 | 00:00:00 | |
| OE5MMP-10 | 2026-08-31 05:31:34 | 47.96269 | 11.83474 | 74° | 141km/h | 12060m | 5.3m/s | -53.0°C | 19.1% | 204.6hPa | 2.7V | 00:00:00 | 01:39:39 | 00:00:00 | |
| OE5WHR-10 | 2026-08-31 05:31:30 | 47.96235 | 11.83269 | 76° | 141km/h | 12040m | 5.6m/s | 0°C | 0% | 0hPa | 2.7V | 00:00:00 | 00:00:00 | 00:00:00 | |
| OE5DXL-15 | 2026-08-31 05:31:25 | 47.96188 | 11.83014 | 80° | 139km/h | 12016m | 5.1m/s | -52.9°C | 19.3% | 206.0hPa | 2.7V | 00:00:00 | 00:00:00 | 08:30:00 | |
| DO3MHA-11 | 2026-08-31 05:31:24 | 47.96182 | 11.82962 | 81° | 141km/h | 12011m | 4.4m/s | -52.8°C | 19.2% | 206.1hPa | 2.7V | 00:00:00 | 01:39:29 | 08:30:00 | |
| PG1ADW-2 | 2026-08-31 05:31:21 | 47.96160 | 11.82805 | 76° | 141km/h | 11996m | 4.3m/s | -52.7°C | 19.3% | 206.6hPa | 2.7V | 00:00:00 | 01:39:26 | 00:00:00 | |
| OE5DRO-10 | 2026-08-31 05:31:18 | 47.96134 | 11.82653 | 78° | 139km/h | 11981m | 5.3m/s | -52.6°C | 19.0% | 207.1hPa | 2.7V | 00:00:00 | 00:00:00 | 00:00:00 | |
| DO3MHA-11 | 2026-08-31 05:31:14 | 47.96104 | 11.82442 | 77° | 141km/h | 11961m | 4.3m/s | -52.5°C | 19.0% | 207.7hPa | 2.7V | 00:00:00 | 01:39:19 | 00:00:00 | |
| OE5WHR-10 | 2026-08-31 05:31:09 | 47.96068 | 11.82192 | 80° | 137km/h | 11938m | 3.9m/s | 0°C | 0% | 0hPa | 2.7V | 00:00:00 | 01:39:14 | 00:00:00 | |
| DL6DJ-15 | 2026-08-31 05:31:08 | 47.96062 | 11.82141 | 78° | 139km/h | 11934m | 5.2m/s | -52.3°C | 15.2% | 208.6hPa | 2.7V | 00:00:00 | 00:00:00 | 00:00:00 | |
| DB0NH | 2026-08-31 05:31:04 | 47.96030 | 11.81926 | 80° | 133km/h | 11914m | 5.2m/s | -52.2°C | 18.7% | 209.2hPa | 2.7V | 00:00:00 | 01:39:09 | 00:00:00 | |
| DB0ND-19 | 2026-08-31 05:30:45 | 47.95904 | 11.80910 | 81° | 142km/h | 11822m | 5.2m/s | 0°C | -1.0% | -1.0hPa | 2.7V | 00:00:00 | 00:00:00 | 00:00:00 | |
| DO3MHA-11 | 2026-08-31 05:30:44 | 47.95904 | 11.80910 | 82° | 141km/h | 11822m | 5.1m/s | -51.9°C | 20.8% | 212.2hPa | 2.7V | 00:00:00 | 01:38:49 | 00:00:00 | |
| BAUMI2-15 | 2026-08-31 05:30:40 | 47.95883 | 11.80705 | 78° | 141km/h | 11802m | 4.0m/s | -51.8°C | 21.3% | 212.8hPa | 2.7V | 00:00:00 | 01:38:45 | 00:00:00 | |
| DL6DJ-15 | 2026-08-31 05:30:37 | 47.95862 | 11.80551 | 79° | 144km/h | 11789m | 4.1m/s | -51.6°C | 17.6% | 213.4hPa | 2.7V | 00:00:00 | 00:00:00 | 00:00:00 | |
| DO8TBO-1 | 2026-08-31 05:30:36 | 47.95842 | 11.80388 | 79° | 142km/h | 11777m | 5.6m/s | -51.5°C | 20.7% | 213.7hPa | 2.7V | 00:00:00 | 01:38:39 | 00:00:00 | |
| DO3MHA-11 | 2026-08-31 05:30:34 | 47.95842 | 11.80388 | 79° | 142km/h | 11777m | 5.6m/s | -51.5°C | 20.7% | 213.7hPa | 2.7V | 00:00:00 | 01:38:39 | 00:00:00 | |
| OE5HKT-10 | 2026-08-31 05:30:29 | 47.95805 | 11.80127 | 81° | 148km/h | 11754m | 4.4m/s | 0°C | 0% | 0hPa | 2.7V | 00:00:00 | 00:00:00 | 00:00:00 | |
| OE5DXL-15 | 2026-08-31 05:30:25 | 47.95781 | 11.79913 | 78° | 144km/h | 11736m | 3.3m/s | -51.4°C | 21.8% | 215.0hPa | 2.7V | 00:00:00 | 00:00:00 | 00:00:00 | |
| DO3MHA-11 | 2026-08-31 05:30:24 | 47.95773 | 11.79864 | 77° | 142km/h | 11733m | 3.3m/s | -51.3°C | 21.6% | 215.2hPa | 2.7V | 00:00:00 | 01:38:29 | 00:00:00 | |
| PG1ADW-2 | 2026-08-31 05:30:21 | 47.95747 | 11.79707 | 77° | 144km/h | 11720m | 4.2m/s | -51.3°C | 22.3% | 215.6hPa | 2.7V | 00:00:00 | 00:00:00 | 00:00:00 | |
| NBG1-10 | 2026-08-31 05:30:19 | 47.95729 | 11.79595 | 77° | 144km/h | 11713m | 2.6m/s | -51.3°C | 22.3% | 215.9hPa | 2.7V | 00:00:00 | 01:38:24 | 00:00:00 | |
| OE5MMP-10 | 2026-08-31 05:30:15 | 47.95692 | 11.79342 | 82° | 144km/h | 11693m | 4.3m/s | -51.2°C | 23.3% | 216.5hPa | 2.7V | 00:00:00 | 01:38:19 | 00:00:00 | |
| DB0ND-19 | 2026-08-31 05:30:14 | 47.95680 | 11.79232 | 80° | 151km/h | 11686m | 4.4m/s | 0°C | -1.0% | -1.0hPa | 2.7V | 00:00:00 | 00:00:00 | 00:00:00 | |
| BAUMI2-15 | 2026-08-31 05:30:09 | 47.95653 | 11.79064 | 75° | 150km/h | 11674m | 2.8m/s | -51.3°C | 24.2% | 217.2hPa | 2.7V | 00:00:00 | 01:38:14 | 00:00:00 | |
| DL6DJ-15 | 2026-08-31 05:30:06 | 47.95630 | 11.78905 | 82° | 135km/h | 11662m | 4.0m/s | -51.6°C | 21.2% | 217.6hPa | 2.7V | 00:00:00 | 00:00:00 | 00:00:00 | |
| DO3MHA-11 | 2026-08-31 05:30:04 | 47.95622 | 11.78803 | 83° | 144km/h | 11655m | 3.5m/s | -51.5°C | 25.4% | 217.8hPa | 2.7V | 00:00:00 | 01:38:09 | 00:00:00 | |
| OE5MMP-10 | 2026-08-31 05:30:03 | 47.95616 | 11.78751 | 80° | 144km/h | 11651m | 4.4m/s | -51.5°C | 25.7% | 217.9hPa | 2.7V | 00:00:00 | 01:38:08 | 00:00:00 | |
| OE5DRO-10 | 2026-08-31 05:30:02 | 47.95608 | 11.78698 | 76° | 148km/h | 11646m | 4.3m/s | -51.5°C | 26.2% | 218.1hPa | 2.7V | 00:00:00 | 00:00:00 | 00:00:00 | |
| PG1ADW-2 | 2026-08-31 05:30:01 | 47.95599 | 11.78643 | 75° | 146km/h | 11642m | 3.9m/s | -51.5°C | 26.2% | 218.2hPa | 2.7V | 00:00:00 | 01:38:06 | 00:00:00 | |
| OE5DXL-15 | 2026-08-31 05:29:55 | 47.95551 | 11.78321 | 82° | 144km/h | 11618m | 3.7m/s | -51.4°C | 28.9% | 219.0hPa | 2.7V | 00:00:00 | 00:00:00 | 00:00:00 | |
| DO3MHA-11 | 2026-08-31 05:29:54 | 47.95545 | 11.78269 | 81° | 148km/h | 11614m | 3.4m/s | -51.4°C | 29.0% | 219.1hPa | 2.7V | 00:00:00 | 01:37:59 | 08:30:00 | |
| OE5MMP-10 | 2026-08-31 05:29:53 | 47.95539 | 11.78215 | 81° | 148km/h | 11611m | 3.6m/s | -51.4°C | 28.6% | 219.3hPa | 2.7V | 00:00:00 | 01:37:58 | 00:00:00 | |
| DB0NH | 2026-08-31 05:29:52 | 47.95533 | 11.78159 | 82° | 148km/h | 11607m | 3.6m/s | -51.5°C | 28.9% | 219.3hPa | 2.7V | 00:00:00 | 01:37:57 | 00:00:00 | |
| BAUMI2-15 | 2026-08-31 05:29:49 | 47.95514 | 11.77990 | 80° | 146km/h | 11593m | 4.3m/s | -51.5°C | 29.2% | 219.8hPa | 2.7V | 00:00:00 | 01:37:54 | 00:00:00 | |
| NBG1-10 | 2026-08-31 05:29:46 | 47.95490 | 11.77830 | 77° | 144km/h | 11581m | 3.3m/s | -51.4°C | 29.2% | 220.3hPa | 2.7V | 00:00:00 | 01:37:51 | 00:00:00 | |
| DO3MHA-11 | 2026-08-31 05:29:44 | 47.95473 | 11.77723 | 78° | 144km/h | 11574m | 5.2m/s | -51.5°C | 29.2% | 220.5hPa | 2.7V | 00:00:00 | 01:37:49 | 00:00:00 | |
| OE5MMP-10 | 2026-08-31 05:29:43 | 47.95466 | 11.77671 | 79° | 142km/h | 11569m | 4.0m/s | -51.4°C | 29.5% | 220.7hPa | 2.7V | 00:00:00 | 01:37:48 | 00:00:00 | |
| OE5WHR-10 | 2026-08-31 05:29:42 | 47.95458 | 11.77619 | 78° | 144km/h | 11566m | 2.5m/s | 0°C | 0% | 0hPa | 2.7V | 00:00:00 | 00:00:00 | 00:00:00 | |
| PG1ADW-2 | 2026-08-31 05:29:41 | 47.95450 | 11.77566 | 78° | 146km/h | 11562m | 5.0m/s | -51.4°C | 29.5% | 221.0hPa | 2.7V | 00:00:00 | 00:00:00 | 08:30:00 | |
| BAUMI2-15 | 2026-08-31 05:29:38 | 47.95426 | 11.77404 | 79° | 146km/h | 11551m | 4.7m/s | -51.4°C | 29.4% | 221.3hPa | 2.7V | 00:00:00 | 01:37:43 | 08:30:00 | |
| DL6DJ-15 | 2026-08-31 05:29:35 | 47.95405 | 11.77248 | 77° | 141km/h | 11540m | 3.8m/s | -51.5°C | 25.6% | 221.8hPa | 2.7V | 00:00:00 | 00:00:00 | 00:00:00 | |
| DO3MHA-11 | 2026-08-31 05:29:34 | 47.95397 | 11.77196 | 76° | 144km/h | 11536m | 3.7m/s | -51.4°C | 29.8% | 221.8hPa | 2.7V | 00:00:00 | 01:37:39 | 00:00:00 | |
| OE5MMP-10 | 2026-08-31 05:29:33 | 47.95388 | 11.77143 | 75° | 146km/h | 11532m | 3.0m/s | -51.5°C | 29.9% | 222.0hPa | 2.7V | 00:00:00 | 01:37:38 | 00:00:00 | |
| BAUMI2-15 | 2026-08-31 05:29:31 | 47.95370 | 11.77036 | 78° | 142km/h | 11525m | 4.6m/s | -51.5°C | 30.0% | 222.2hPa | 2.7V | 00:00:00 | 01:37:36 | 00:00:00 | |
| BAUMI2-15 | 2026-08-31 05:29:26 | 47.95329 | 11.76773 | 75° | 150km/h | 11508m | 2.5m/s | -51.5°C | 30.5% | 222.8hPa | 2.7V | 00:00:00 | 01:37:31 | 00:00:00 | |
| OE5DXL-15 | 2026-08-31 05:29:25 | 47.95319 | 11.76719 | 76° | 148km/h | 11505m | 3.5m/s | -51.5°C | 30.4% | 222.9hPa | 2.7V | 00:00:00 | 00:00:00 | 00:00:00 | |
| DO3MHA-11 | 2026-08-31 05:29:24 | 47.95310 | 11.76664 | 77° | 146km/h | 11502m | 3.3m/s | -51.5°C | 30.8% | 223.0hPa | 2.7V | 00:00:00 | 01:37:29 | 00:00:00 | |
| OE5MMP-10 | 2026-08-31 05:29:23 | 47.95301 | 11.76608 | 78° | 148km/h | 11499m | 2.6m/s | -51.5°C | 30.6% | 223.1hPa | 2.7V | 00:00:00 | 01:37:28 | 00:00:00 | |
| PG1ADW-2 | 2026-08-31 05:29:21 | 47.95284 | 11.76498 | 76° | 150km/h | 11493m | 4.0m/s | -51.5°C | 30.2% | 223.3hPa | 2.7V | 00:00:00 | 00:00:00 | 00:00:00 | |
| BAUMI2-15 | 2026-08-31 05:29:20 | 47.95274 | 11.76443 | 74° | 142km/h | 11489m | 3.5m/s | -51.6°C | 30.0% | 223.5hPa | 2.7V | 00:00:00 | 01:37:25 | 00:00:00 | |
| OE5WHR-10 | 2026-08-31 05:29:18 | 47.95253 | 11.76340 | 74° | 146km/h | 11482m | 3.8m/s | 0°C | 0% | 0hPa | 2.7V | 00:00:00 | 00:00:00 | 00:00:00 | |
| BAUMI2-15 | 2026-08-31 05:29:15 | 47.95230 | 11.76183 | 80° | 157km/h | 11472m | 3.6m/s | -51.4°C | 29.8% | 224.0hPa | 2.7V | 00:00:00 | 01:37:20 | 00:00:00 | |
| DO3MHA-11 | 2026-08-31 05:29:14 | 47.95223 | 11.76127 | 80° | 150km/h | 11468m | 4.0m/s | -51.5°C | 29.8% | 224.1hPa | 2.7V | 00:00:00 | 01:37:19 | 00:00:00 | |
| OE5MMP-10 | 2026-08-31 05:29:13 | 47.95215 | 11.76068 | 78° | 150km/h | 11465m | 2.5m/s | -51.4°C | 29.5% | 224.3hPa | 2.7V | 00:00:00 | 01:37:18 | 00:00:00 | |
| BAUMI2-15 | 2026-08-31 05:29:10 | 47.95189 | 11.75897 | 79° | 144km/h | 11457m | 3.6m/s | -51.4°C | 29.2% | 224.6hPa | 2.7V | 00:00:00 | 01:37:15 | 00:00:00 | |
| BAUMI2-15 | 2026-08-31 05:29:05 | 47.95153 | 11.75631 | 78° | 153km/h | 11439m | 4.2m/s | -51.2°C | 28.5% | 225.2hPa | 2.7V | 00:00:00 | 01:37:10 | 00:00:00 | |
| DO3MHA-11 | 2026-08-31 05:29:04 | 47.95145 | 11.75573 | 77° | 150km/h | 11436m | 2.9m/s | -51.2°C | 28.5% | 225.4hPa | 2.7V | 00:00:00 | 01:37:09 | 00:00:00 | |
| OE5MMP-10 | 2026-08-31 05:29:03 | 47.95136 | 11.75515 | 79° | 150km/h | 11434m | 2.0m/s | -51.2°C | 28.3% | 225.4hPa | 2.7V | 00:00:00 | 01:37:08 | 08:30:00 | |
| PG1ADW-2 | 2026-08-31 05:29:01 | 47.95123 | 11.75403 | 81° | 148km/h | 11426m | 3.9m/s | -51.2°C | 28.5% | 225.7hPa | 2.7V | 00:00:00 | 00:00:00 | 00:00:00 | |
| BAUMI2-15 | 2026-08-31 05:29:00 | 47.95117 | 11.75351 | 81° | 141km/h | 11423m | 2.5m/s | -51.1°C | 28.5% | 225.8hPa | 2.7V | 00:00:00 | 01:37:05 | 00:00:00 | |
| OE5WHR-10 | 2026-08-31 05:28:56 | 47.95084 | 11.75141 | 75° | 150km/h | 11410m | 3.3m/s | 0°C | 0% | 0hPa | 2.7V | 00:00:00 | 01:37:01 | 00:00:00 | |
| BAUMI2-15 | 2026-08-31 05:28:55 | 47.95074 | 11.75084 | 77° | 151km/h | 11406m | 3.8m/s | -51.1°C | 27.9% | 226.4hPa | 2.7V | 00:00:00 | 01:37:00 | 00:00:00 | |
| DO3MHA-11 | 2026-08-31 05:28:54 | 47.95065 | 11.75026 | 79° | 151km/h | 11403m | 3.8m/s | -51.1°C | 27.9% | 226.5hPa | 2.7V | 00:00:00 | 01:36:59 | 00:00:00 | |
| OE5MMP-10 | 2026-08-31 05:28:53 | 47.95058 | 11.74969 | 79° | 151km/h | 11399m | 3.6m/s | -51.0°C | 27.9% | 226.5hPa | 2.7V | 00:00:00 | 01:36:58 | 00:00:00 | |
| OE5DRO-10 | 2026-08-31 05:28:46 | 47.95001 | 11.74586 | 80° | 148km/h | 11372m | 3.0m/s | -50.9°C | 28.4% | 227.5hPa | 2.7V | 00:00:00 | 00:00:00 | 00:00:00 | |
| DO3MHA-11 | 2026-08-31 05:28:44 | 47.94986 | 11.74469 | 79° | 146km/h | 11365m | 3.1m/s | -50.8°C | 28.4% | 227.8hPa | 2.7V | 00:00:00 | 01:36:49 | 00:00:00 | |
| OE5MMP-10 | 2026-08-31 05:28:43 | 47.94978 | 11.74415 | 80° | 146km/h | 11362m | 2.9m/s | -50.8°C | 27.8% | 227.8hPa | 2.7V | 00:00:00 | 01:36:48 | 00:00:00 | |
| DB0NH | 2026-08-31 05:28:42 | 47.94971 | 11.74363 | 80° | 144km/h | 11359m | 3.7m/s | -50.8°C | 27.2% | 227.9hPa | 2.7V | 00:00:00 | 01:36:47 | 00:00:00 | |
| PG1ADW-2 | 2026-08-31 05:28:41 | 47.94965 | 11.74311 | 80° | 148km/h | 11355m | 4.0m/s | 0°C | 0% | 0hPa | 2.7V | 00:00:00 | 01:36:46 | 00:00:00 | |
| NBG1-10 | 2026-08-31 05:28:38 | 47.94944 | 11.74149 | 79° | 148km/h | 11343m | 2.8m/s | -50.7°C | 26.3% | 228.5hPa | 2.7V | 00:00:00 | 01:36:43 | 00:00:00 | |
| DO3MHA-11 | 2026-08-31 05:28:34 | 47.94913 | 11.73930 | 77° | 148km/h | 11329m | 4.3m/s | -50.6°C | 25.9% | 229.0hPa | 2.7V | 00:00:00 | 01:36:39 | 00:00:00 | |
| OE5WHR-10 | 2026-08-31 05:28:33 | 47.94904 | 11.73875 | 77° | 148km/h | 11325m | 3.4m/s | 0°C | 0% | 0hPa | 2.7V | 00:00:00 | 00:00:00 | 08:30:00 | |
| DO8TBO-1 | 2026-08-31 05:28:32 | 47.94883 | 11.73710 | 83° | 146km/h | 11315m | 3.6m/s | -50.5°C | 26.3% | 229.5hPa | 2.7V | 00:00:00 | 01:36:35 | 00:00:00 | |
| OE5DRO-10 | 2026-08-31 05:28:27 | 47.94868 | 11.73548 | 79° | 148km/h | 11306m | 3.4m/s | -50.4°C | 26.6% | 229.9hPa | 2.7V | 00:00:00 | 00:00:00 | 00:00:00 | |
| OE5DXL-15 | 2026-08-31 05:28:25 | 47.94851 | 11.73439 | 76° | 148km/h | 11301m | 2.0m/s | -50.4°C | 26.6% | 230.0hPa | 2.7V | 00:00:00 | 00:00:00 | 00:00:00 | |
| DO3MHA-11 | 2026-08-31 05:28:24 | 47.94841 | 11.73385 | 76° | 151km/h | 11298m | 2.4m/s | -50.3°C | 26.3% | 230.1hPa | 2.7V | 00:00:00 | 01:36:29 | 08:30:00 | |
| OE5MMP-10 | 2026-08-31 05:28:23 | 47.94833 | 11.73331 | 79° | 150km/h | 11295m | 4.0m/s | -50.4°C | 26.5% | 230.2hPa | 2.7V | 00:00:00 | 01:36:28 | 00:00:00 | |
| PG1ADW-2 | 2026-08-31 05:28:21 | 47.94822 | 11.73223 | 84° | 148km/h | 11288m | 2.8m/s | 0°C | 0% | 0hPa | 2.7V | 00:00:00 | 00:00:00 | 00:00:00 | |
| DO3MHA-11 | 2026-08-31 05:28:14 | 47.94770 | 11.72829 | 79° | 146km/h | 11267m | 2.9m/s | -50.3°C | 26.9% | 231.2hPa | 2.7V | 00:00:00 | 01:36:19 | 00:00:00 | |
| OE5MMP-10 | 2026-08-31 05:28:13 | 47.94764 | 11.72777 | 80° | 148km/h | 11264m | 3.3m/s | -50.2°C | 26.5% | 231.4hPa | 2.7V | 00:00:00 | 01:36:18 | 00:00:00 | |
| OE5WHR-10 | 2026-08-31 05:28:11 | 47.94751 | 11.72676 | 79° | 144km/h | 11257m | 4.3m/s | 0°C | 0% | 0hPa | 2.7V | 00:00:00 | 00:00:00 | 00:00:00 | |
| OE5DRO-10 | 2026-08-31 05:28:09 | 47.94728 | 11.72514 | 80° | 146km/h | 11247m | 4.2m/s | -50.2°C | 25.7% | 231.9hPa | 2.7V | 00:00:00 | 00:00:00 | 00:00:00 | |
| DF7PN | 2026-08-31 05:28:07 | 47.94708 | 11.72345 | 79° | 151km/h | 11237m | 4.0m/s | -50.2°C | -1.0% | -1.0hPa | 2.7V | 00:00:00 | 00:00:00 | 00:00:00 | |
| NBG1-10 | 2026-08-31 05:28:05 | 47.94708 | 11.72345 | 80° | 146km/h | 11238m | 3.9m/s | -50.1°C | 25.5% | 232.2hPa | 2.7V | 00:00:00 | 01:36:10 | 00:00:00 | |
| DO3MHA-11 | 2026-08-31 05:28:04 | 47.94701 | 11.72289 | 78° | 146km/h | 11234m | 3.8m/s | -50.1°C | 26.0% | 232.4hPa | 2.7V | 00:00:00 | 01:36:09 | 00:00:00 | |
| OE5MMP-10 | 2026-08-31 05:28:02 | 47.94684 | 11.72182 | 78° | 144km/h | 11228m | 3.2m/s | -50.0°C | 26.3% | 232.6hPa | 2.7V | 00:00:00 | 01:36:07 | 00:00:00 | |
| PG1ADW-2 | 2026-08-31 05:28:01 | 47.94677 | 11.72132 | 80° | 142km/h | 11224m | 3.9m/s | 0°C | 0% | 0hPa | 2.7V | 00:00:00 | 00:00:00 | 00:00:00 | |
| DO8TBO-1 | 2026-08-31 05:28:00 | 47.94660 | 11.71978 | 80° | 141km/h | 11218m | 3.0m/s | -50.0°C | 26.1% | 232.9hPa | 2.7V | 00:00:00 | 01:36:03 | 08:30:00 | |
| OE5DXL-15 | 2026-08-31 05:27:55 | 47.94633 | 11.71808 | 76° | 146km/h | 11207m | 2.3m/s | -49.9°C | 26.2% | 233.4hPa | 2.7V | 00:00:00 | 00:00:00 | 00:00:00 | |
| DO3MHA-11 | 2026-08-31 05:27:54 | 47.94623 | 11.71751 | 76° | 141km/h | 11204m | 3.5m/s | -49.9°C | 26.3% | 233.5hPa | 2.7V | 00:00:00 | 01:35:59 | 00:00:00 | |
| OE5MMP-10 | 2026-08-31 05:27:52 | 47.94607 | 11.71644 | 80° | 135km/h | 11197m | 3.4m/s | -49.9°C | 26.6% | 233.8hPa | 2.7V | 00:00:00 | 01:35:57 | 00:00:00 | |
| OE5DRO-10 | 2026-08-31 05:27:49 | 47.94589 | 11.71499 | 81° | 146km/h | 11187m | 1.8m/s | -49.9°C | 26.8% | 234.2hPa | 2.7V | 00:00:00 | 00:00:00 | 08:30:00 | |
| OE5WHR-10 | 2026-08-31 05:27:45 | 47.94565 | 11.71285 | 80° | 146km/h | 11173m | 4.4m/s | 0°C | 0% | 0hPa | 2.7V | 00:00:00 | 01:35:50 | 00:00:00 | |
| DO3MHA-11 | 2026-08-31 05:27:44 | 47.94557 | 11.71228 | 78° | 146km/h | 11169m | 4.3m/s | -49.8°C | 26.5% | 234.7hPa | 2.7V | 00:00:00 | 01:35:49 | 00:00:00 | |
| OE5MMP-10 | 2026-08-31 05:27:42 | 47.94540 | 11.71118 | 76° | 146km/h | 11163m | 3.0m/s | -49.7°C | 26.0% | 235.0hPa | 2.7V | 00:00:00 | 01:35:47 | 00:00:00 | |
| PG1ADW-2 | 2026-08-31 05:27:41 | 47.94531 | 11.71064 | 77° | 144km/h | 11159m | 4.3m/s | 0°C | 0% | 0hPa | 2.7V | 00:00:00 | 00:00:00 | 00:00:00 | |
| OE5MMP-10 | 2026-08-31 05:27:32 | 47.94464 | 11.70578 | 77° | 144km/h | 11125m | 4.0m/s | -49.5°C | 26.8% | 236.4hPa | 2.7V | 00:00:00 | 01:35:37 | 08:30:00 | |
| DL6DJ-15 | 2026-08-31 05:27:31 | 47.94445 | 11.70475 | 73° | 137km/h | 11118m | 2.8m/s | -49.5°C | 23.4% | 236.6hPa | 2.7V | 00:00:00 | 00:00:00 | 00:00:00 | |
| OE5DRO-10 | 2026-08-31 05:27:30 | 47.94445 | 11.70475 | 74° | 144km/h | 11118m | 2.8m/s | -49.5°C | 27.0% | 236.6hPa | 2.7V | 00:00:00 | 00:00:00 | 00:00:00 | |
| DO8TBO-1 | 2026-08-31 05:27:27 | 47.94406 | 11.70208 | 83° | 146km/h | 11101m | 2.7m/s | -49.4°C | 27.2% | 237.1hPa | 2.7V | 00:00:00 | 01:35:30 | 00:00:00 | |
| OE5DXL-15 | 2026-08-31 05:27:25 | 47.94406 | 11.70208 | 83° | 144km/h | 11101m | 2.7m/s | -49.4°C | 27.2% | 237.1hPa | 2.7V | 00:00:00 | 00:00:00 | 00:00:00 | |
| DO3MHA-11 | 2026-08-31 05:27:24 | 47.94400 | 11.70154 | 81° | 144km/h | 11098m | 4.2m/s | -49.3°C | 27.3% | 237.3hPa | 2.7V | 00:00:00 | 01:35:29 | 00:00:00 | |
| OE5MMP-10 | 2026-08-31 05:27:22 | 47.94385 | 11.70053 | 75° | 144km/h | 11090m | 2.7m/s | 0°C | 0% | 0hPa | 2.7V | 00:00:00 | 01:35:27 | 00:00:00 | |
| OE5WHR-10 | 2026-08-31 05:27:21 | 47.94376 | 11.70004 | 74° | 142km/h | 11088m | 2.3m/s | 0°C | 0% | 0hPa | 2.7V | 00:00:00 | 00:00:00 | 00:00:00 | |
| DO3MHA-11 | 2026-08-31 05:27:14 | 47.94327 | 11.69627 | 78° | 144km/h | 11063m | 3.8m/s | -49.2°C | 29.5% | 238.5hPa | 2.7V | 00:00:00 | 01:35:19 | 00:00:00 | |
| DB0NH | 2026-08-31 05:27:12 | 47.94308 | 11.69525 | 73° | 144km/h | 11055m | 3.3m/s | -49.1°C | 29.8% | 238.9hPa | 2.7V | 00:00:00 | 01:35:17 | 00:00:00 | |
| OE5DRO-10 | 2026-08-31 05:27:11 | 47.94297 | 11.69472 | 73° | 146km/h | 11053m | 2.1m/s | -49.1°C | 29.8% | 238.9hPa | 2.7V | 00:00:00 | 00:00:00 | 00:00:00 | |
| DO3MHA-11 | 2026-08-31 05:27:04 | 47.94249 | 11.69096 | 74° | 144km/h | 11026m | 3.5m/s | -49.0°C | 30.7% | 240.0hPa | 2.7V | 00:00:00 | 01:35:09 | 00:00:00 | |
| OE5MMP-10 | 2026-08-31 05:27:02 | 47.94229 | 11.68993 | 76° | 146km/h | 11019m | 3.4m/s | 0°C | 0% | 0hPa | 2.7V | 00:00:00 | 01:35:07 | 00:00:00 | |
| DL6DJ-15 | 2026-08-31 05:27:00 | 47.94209 | 11.68829 | 81° | 146km/h | 11007m | 4.0m/s | -49.0°C | 26.8% | 240.7hPa | 2.7V | 00:00:00 | 00:00:00 | 00:00:00 | |
| NBG1-10 | 2026-08-31 05:26:59 | 47.94208 | 11.68829 | 82° | 141km/h | 11007m | 4.0m/s | -48.9°C | 30.5% | 240.6hPa | 2.7V | 00:00:00 | 01:35:04 | 00:00:00 | |
| OE5WHR-10 | 2026-08-31 05:26:56 | 47.94190 | 11.68671 | 76° | 144km/h | 10994m | 3.1m/s | 0°C | 0% | 0hPa | 2.7V | 00:00:00 | 00:00:00 | 00:00:00 | |
| OE5DXL-15 | 2026-08-31 05:26:55 | 47.94181 | 11.68620 | 75° | 142km/h | 10991m | 3.2m/s | -48.8°C | 31.1% | 241.2hPa | 2.7V | 00:00:00 | 00:00:00 | 08:30:00 | |
| DB0UT-7 | 2026-08-31 05:26:54 | 47.94171 | 11.68567 | 75° | 142km/h | 10987m | 4.9m/s | -48.8°C | 31.1% | 241.4hPa | 2.7V | 00:00:00 | 01:34:59 | 08:30:00 | |
| OE5MMP-10 | 2026-08-31 05:26:52 | 47.94153 | 11.68458 | 79° | 144km/h | 10980m | 2.8m/s | 0°C | 0% | 0hPa | 2.7V | 00:00:00 | 01:34:57 | 00:00:00 | |
| BAUMI2-15 | 2026-08-31 05:26:49 | 47.94132 | 11.68300 | 80° | 144km/h | 10968m | 3.0m/s | -48.7°C | 31.2% | 242.1hPa | 2.7V | 00:00:00 | 01:34:54 | 08:30:00 | |
| DO3MHA-11 | 2026-08-31 05:26:44 | 47.94087 | 11.68038 | 77° | 144km/h | 10948m | 4.7m/s | -48.6°C | 31.2% | 242.7hPa | 2.7V | 00:00:00 | 01:34:49 | 00:00:00 | |
| BAUMI2-15 | 2026-08-31 05:26:43 | 47.94080 | 11.67981 | 80° | 142km/h | 10944m | 3.9m/s | -48.6°C | 31.6% | 243.0hPa | 2.7V | 00:00:00 | 01:34:48 | 00:00:00 | |
| OE5MMP-10 | 2026-08-31 05:26:42 | 47.94073 | 11.67926 | 81° | 141km/h | 10941m | 3.1m/s | 0°C | 0% | 0hPa | 2.7V | 00:00:00 | 01:34:47 | 00:00:00 | |
| DB0NH | 2026-08-31 05:26:40 | 47.94061 | 11.67822 | 79° | 135km/h | 10933m | 4.1m/s | -48.5°C | 31.6% | 243.3hPa | 2.7V | 00:00:00 | 01:34:45 | 00:00:00 | |
| PG1ADW-2 | 2026-08-31 05:26:39 | 47.94053 | 11.67773 | 76° | 133km/h | 10930m | 3.3m/s | 0°C | 0% | 0hPa | 2.7V | 00:00:00 | 00:00:00 | 00:00:00 | |
| BAUMI2-15 | 2026-08-31 05:26:38 | 47.94044 | 11.67724 | 75° | 144km/h | 10927m | 3.3m/s | -48.4°C | 32.1% | 243.7hPa | 2.7V | 00:00:00 | 01:34:43 | 00:00:00 | |
| DO3MHA-11 | 2026-08-31 05:26:34 | 47.94005 | 11.67514 | 75° | 137km/h | 10911m | 2.8m/s | -48.3°C | 32.1% | 244.2hPa | 2.7V | 00:00:00 | 01:34:39 | 00:00:00 | |
| OE5DRO-10 | 2026-08-31 05:26:33 | 47.93995 | 11.67462 | 74° | 135km/h | 10908m | 3.9m/s | -48.3°C | 31.8% | 244.3hPa | 2.7V | 00:00:00 | 00:00:00 | 00:00:00 | |
| OE5WHR-10 | 2026-08-31 05:26:31 | 47.93975 | 11.67363 | 72° | 135km/h | 10900m | 4.2m/s | 0°C | 0% | 0hPa | 2.7V | 00:00:00 | 01:34:36 | 00:00:00 | |
| DL6DJ-15 | 2026-08-31 05:26:29 | 47.93944 | 11.67218 | 72° | 137km/h | 10887m | 5.1m/s | -48.2°C | 27.7% | 245.1hPa | 2.7V | 00:00:00 | 00:00:00 | 00:00:00 | |
| BAUMI2-15 | 2026-08-31 05:26:28 | 47.93944 | 11.67218 | 73° | 137km/h | 10887m | 5.1m/s | -48.1°C | 31.2% | 245.1hPa | 2.7V | 00:00:00 | 01:34:33 | 00:00:00 | |
| OE5DXL-15 | 2026-08-31 05:26:25 | 47.93917 | 11.67068 | 77° | 135km/h | 10872m | 4.6m/s | -48.1°C | 31.8% | 245.6hPa | 2.7V | 00:00:00 | 00:00:00 | 00:00:00 | |
| DO3MHA-11 | 2026-08-31 05:26:24 | 47.93910 | 11.67019 | 80° | 135km/h | 10868m | 4.3m/s | -48.0°C | 31.5% | 245.8hPa | 2.7V | 00:00:00 | 01:34:29 | 00:00:00 | |
| BAUMI2-15 | 2026-08-31 05:26:23 | 47.93905 | 11.66969 | 82° | 135km/h | 10863m | 4.6m/s | -48.1°C | 31.8% | 245.9hPa | 2.7V | 00:00:00 | 01:34:28 | 00:00:00 | |
| OE5MMP-10 | 2026-08-31 05:26:20 | 47.93884 | 11.66817 | 76° | 135km/h | 10852m | 4.2m/s | 0°C | 0% | 0hPa | 2.7V | 00:00:00 | 01:34:25 | 00:00:00 | |
| BAUMI2-15 | 2026-08-31 05:26:18 | 47.93864 | 11.66721 | 71° | 137km/h | 10843m | 3.9m/s | -47.9°C | 31.3% | 246.7hPa | 2.7V | 00:00:00 | 01:34:23 | 00:00:00 | |
| DO3MHA-11 | 2026-08-31 05:26:14 | 47.93828 | 11.66523 | 80° | 137km/h | 10826m | 3.4m/s | -47.8°C | 31.1% | 247.3hPa | 2.7V | 00:00:00 | 01:34:19 | 00:00:00 | |
| BAUMI2-15 | 2026-08-31 05:26:13 | 47.93821 | 11.66470 | 80° | 133km/h | 10822m | 5.0m/s | -47.8°C | 30.9% | 247.5hPa | 2.7V | 00:00:00 | 01:34:18 | 00:00:00 | |
| DO8TBO-1 | 2026-08-31 05:26:12 | 47.93796 | 11.66323 | 72° | 139km/h | 10810m | 3.9m/s | 0°C | 0% | 0hPa | 2.7V | 00:00:00 | 01:34:15 | 00:00:00 | |
| OE5MMP-10 | 2026-08-31 05:26:10 | 47.93796 | 11.66323 | 72° | 135km/h | 10810m | 3.9m/s | 0°C | 0% | 0hPa | 2.7V | 00:00:00 | 01:34:15 | 00:00:00 | |
| BAUMI2-15 | 2026-08-31 05:26:08 | 47.93775 | 11.66229 | 73° | 137km/h | 10801m | 5.0m/s | -47.6°C | 30.8% | 248.3hPa | 2.7V | 00:00:00 | 01:34:13 | 00:00:00 | |
| DB0NH | 2026-08-31 05:26:05 | 47.93747 | 11.66078 | 78° | 141km/h | 10786m | 4.7m/s | -47.5°C | 31.1% | 248.8hPa | 2.7V | 00:00:00 | 01:34:10 | 00:00:00 | |
| DO3MHA-11 | 2026-08-31 05:26:04 | 47.93740 | 11.66029 | 77° | 133km/h | 10781m | 3.6m/s | -47.5°C | 31.2% | 249.1hPa | 2.7V | 00:00:00 | 01:34:09 | 00:00:00 | |
| DF7PN | 2026-08-31 05:26:03 | 47.93665 | 11.65641 | 79° | 128km/h | 10747m | 3.9m/s | -47.3°C | -1.0% | -1.0hPa | 2.7V | 00:00:00 | 00:00:00 | 00:00:00 | |
| DF3TZ-5 | 2026-08-31 05:25:59 | 47.93665 | 11.65641 | 79° | 128km/h | 10747m | 3.9m/s | -47.3°C | 28.7% | 250.4hPa | 2.7V | 00:00:00 | 00:00:00 | 00:00:00 | |
| OE5MMP-10 | 2026-08-31 05:25:58 | 47.93680 | 11.65734 | 74° | 137km/h | 10755m | 4.9m/s | 0°C | 0% | 0hPa | 2.7V | 00:00:00 | 01:34:03 | 08:30:00 | |
| OE5DXL-15 | 2026-08-31 05:25:55 | 47.93659 | 11.65592 | 79° | 135km/h | 10742m | 5.3m/s | -47.2°C | 32.6% | 250.5hPa | 2.7V | 00:00:00 | 00:00:00 | 00:00:00 | |
| DO3MHA-11 | 2026-08-31 05:25:54 | 47.93651 | 11.65540 | 77° | 139km/h | 10737m | 3.8m/s | -47.2°C | 32.9% | 250.7hPa | 2.7V | 00:00:00 | 01:33:59 | 00:00:00 | |
| BAUMI2-15 | 2026-08-31 05:25:53 | 47.93642 | 11.65487 | 76° | 144km/h | 10734m | 2.9m/s | -47.2°C | 32.9% | 250.9hPa | 2.7V | 00:00:00 | 01:33:58 | 00:00:00 | |
| BAUMI2-15 | 2026-08-31 05:25:48 | 47.93590 | 11.65233 | 75° | 137km/h | 10714m | 4.2m/s | -47.1°C | 33.5% | 251.5hPa | 2.7V | 00:00:00 | 01:33:53 | 00:00:00 | |
| OE5MMP-10 | 2026-08-31 05:25:46 | 47.93573 | 11.65140 | 75° | 137km/h | 10706m | 3.6m/s | 0°C | 0% | 0hPa | 2.7V | 00:00:00 | 01:33:51 | 00:00:00 | |
| DO3MHA-11 | 2026-08-31 05:25:44 | 47.93553 | 11.65044 | 73° | 135km/h | 10696m | 5.5m/s | -47.0°C | 34.3% | 252.3hPa | 2.7V | 00:00:00 | 01:33:49 | 00:00:00 | |
| BAUMI2-15 | 2026-08-31 05:25:41 | 47.93522 | 11.64885 | 77° | 133km/h | 10682m | 3.7m/s | -46.9°C | 35.6% | 252.8hPa | 2.7V | 00:00:00 | 01:33:46 | 00:00:00 | |
| DO8TBO-1 | 2026-08-31 05:25:39 | 47.93490 | 11.64691 | 72° | 133km/h | 10665m | 4.3m/s | 0°C | 0% | 0hPa | 2.7V | 00:00:00 | 01:33:42 | 00:00:00 | |
| BAUMI2-15 | 2026-08-31 05:25:36 | 47.93480 | 11.64647 | 71° | 135km/h | 10660m | 4.0m/s | -46.8°C | 36.7% | 253.6hPa | 2.7V | 00:00:00 | 01:33:41 | 00:00:00 | |
| DO3MHA-11 | 2026-08-31 05:25:34 | 47.93459 | 11.64553 | 74° | 131km/h | 10651m | 4.6m/s | -46.7°C | 36.8% | 254.0hPa | 2.7V | 00:00:00 | 01:33:39 | 00:00:00 | |
| BAUMI2-15 | 2026-08-31 05:25:31 | 47.93428 | 11.64395 | 73° | 126km/h | 10638m | 5.4m/s | -46.6°C | 36.8% | 254.5hPa | 2.7V | 00:00:00 | 01:33:36 | 00:00:00 | |
| OE5WHR-10 | 2026-08-31 05:25:28 | 47.93399 | 11.64258 | 75° | 128km/h | 10623m | 4.9m/s | 0°C | 0% | 0hPa | 2.7V | 00:00:00 | 00:00:00 | 00:00:00 | |
| OE5MMP-10 | 2026-08-31 05:25:26 | 47.93384 | 11.64173 | 77° | 135km/h | 10615m | 3.5m/s | 0°C | 0% | 0hPa | 2.7V | 00:00:00 | 01:33:31 | 00:00:00 | |
| OE5DXL-15 | 2026-08-31 05:25:25 | 47.93377 | 11.64127 | 76° | 131km/h | 10611m | 4.6m/s | -46.4°C | 36.8% | 255.5hPa | 2.7V | 00:00:00 | 00:00:00 | 00:00:00 | |
| DO3MHA-11 | 2026-08-31 05:25:24 | 47.93368 | 11.64079 | 73° | 135km/h | 10606m | 4.7m/s | -46.4°C | 37.2% | 255.7hPa | 2.7V | 00:00:00 | 01:33:29 | 08:30:00 | |
| BAUMI2-15 | 2026-08-31 05:25:21 | 47.93332 | 11.63923 | 72° | 133km/h | 10593m | 4.1m/s | -46.3°C | 37.3% | 256.2hPa | 2.7V | 00:00:00 | 01:33:26 | 00:00:00 | |
| OE5DRO-10 | 2026-08-31 05:25:17 | 47.93295 | 11.63732 | 75° | 130km/h | 10574m | 4.4m/s | -46.2°C | 37.2% | 256.9hPa | 2.7V | 00:00:00 | 00:00:00 | 00:00:00 | |
| OE5MMP-10 | 2026-08-31 05:25:16 | 47.93286 | 11.63688 | 73° | 133km/h | 10569m | 5.6m/s | 0°C | 0% | 0hPa | 2.7V | 00:00:00 | 01:33:21 | 00:00:00 | |
| DO3MHA-11 | 2026-08-31 05:25:14 | 47.93264 | 11.63594 | 70° | 131km/h | 10558m | 4.2m/s | -46.1°C | 38.0% | 257.5hPa | 2.7V | 00:00:00 | 01:33:19 | 00:00:00 | |
| BAUMI2-15 | 2026-08-31 05:25:11 | 47.93228 | 11.63447 | 72° | 128km/h | 10546m | 4.0m/s | -46.0°C | 37.6% | 258.0hPa | 2.7V | 00:00:00 | 01:33:16 | 00:00:00 | |
| DO8TBO-1 | 2026-08-31 05:25:09 | 47.93195 | 11.63262 | 77° | 130km/h | 10527m | 5.3m/s | 0°C | 0% | 0hPa | 2.7V | 00:00:00 | 01:33:12 | 00:00:00 | |
| BAUMI2-15 | 2026-08-31 05:25:06 | 47.93187 | 11.63215 | 76° | 128km/h | 10522m | 4.5m/s | -45.7°C | 36.2% | 258.9hPa | 2.7V | 00:00:00 | 01:33:11 | 00:00:00 | |
| DO3MHA-11 | 2026-08-31 05:25:04 | 47.93168 | 11.63123 | 72° | 130km/h | 10514m | 4.8m/s | -45.7°C | 35.7% | 259.3hPa | 2.7V | 00:00:00 | 01:33:09 | 00:00:00 | |
| DF3TZ-5 | 2026-08-31 05:24:57 | 47.93073 | 11.62709 | 74° | 135km/h | 10471m | 4.4m/s | -45.5°C | 31.9% | 261.1hPa | 2.7V | 00:00:00 | 00:00:00 | 00:00:00 | |
| BAUMI2-15 | 2026-08-31 05:24:56 | 47.93083 | 11.62757 | 73° | 130km/h | 10476m | 5.7m/s | -45.5°C | 35.4% | 260.8hPa | 2.7V | 00:00:00 | 01:33:01 | 00:00:00 | |
| OE5DXL-15 | 2026-08-31 05:24:55 | 47.93073 | 11.62709 | 75° | 133km/h | 10471m | 4.3m/s | -45.4°C | 35.2% | 261.0hPa | 2.7V | 00:00:00 | 00:00:00 | 00:00:00 | |
| DO3MHA-11 | 2026-08-31 05:24:54 | 47.93064 | 11.62660 | 76° | 131km/h | 10467m | 3.7m/s | -45.4°C | 34.7% | 261.2hPa | 2.7V | 00:00:00 | 01:32:59 | 00:00:00 | |
| OE5MMP-10 | 2026-08-31 05:24:53 | 47.93056 | 11.62611 | 75° | 131km/h | 10463m | 5.0m/s | 0°C | 0% | 0hPa | 2.7V | 00:00:00 | 01:32:58 | 00:00:00 | |
| DO3MHA-11 | 2026-08-31 05:24:44 | 47.92962 | 11.62191 | 75° | 130km/h | 10422m | 3.9m/s | -44.9°C | 35.3% | 263.0hPa | 2.7V | 00:00:00 | 01:32:49 | 00:00:00 | |
| OE5MMP-10 | 2026-08-31 05:24:43 | 47.92953 | 11.62145 | 74° | 133km/h | 10417m | 4.5m/s | 0°C | 0% | 0hPa | 2.7V | 00:00:00 | 01:32:48 | 00:00:00 | |
| OE5WHR-10 | 2026-08-31 05:24:40 | 47.92921 | 11.61999 | 72° | 130km/h | 10403m | 3.7m/s | 0°C | 0% | 0hPa | 2.7V | 00:00:00 | 00:00:00 | 00:00:00 | |
| OE5DRO-10 | 2026-08-31 05:24:39 | 47.92910 | 11.61951 | 72° | 131km/h | 10399m | 5.2m/s | -44.9°C | 35.9% | 263.8hPa | 2.7V | 00:00:00 | 00:00:00 | 00:00:00 | |
| DO3MHA-11 | 2026-08-31 05:24:34 | 47.92867 | 11.61723 | 75° | 139km/h | 10376m | 4.5m/s | -44.7°C | 38.3% | 264.8hPa | 2.7V | 00:00:00 | 01:32:39 | 00:00:00 | |
| OE5MMP-10 | 2026-08-31 05:24:33 | 47.92856 | 11.61673 | 73° | 133km/h | 10371m | 4.5m/s | 0°C | 0% | 0hPa | 2.7V | 00:00:00 | 01:32:38 | 00:00:00 | |
| DB0NH | 2026-08-31 05:24:30 | 47.92820 | 11.61524 | 71° | 131km/h | 10358m | 3.5m/s | -44.5°C | 38.2% | 265.5hPa | 2.7V | 00:00:00 | 01:32:35 | 00:00:00 | |
| OE5DXL-15 | 2026-08-31 05:24:25 | 47.92771 | 11.61277 | 73° | 128km/h | 10330m | 6.8m/s | -44.3°C | 38.5% | 266.5hPa | 2.7V | 00:00:00 | 00:00:00 | 00:00:00 | |
| DO3MHA-11 | 2026-08-31 05:24:24 | 47.92760 | 11.61228 | 70° | 131km/h | 10324m | 5.1m/s | -44.3°C | 39.3% | 266.8hPa | 2.7V | 00:00:00 | 01:32:29 | 00:00:00 | |
| OE5DRO-10 | 2026-08-31 05:24:20 | 47.92722 | 11.61050 | 77° | 130km/h | 10301m | 5.6m/s | -44.1°C | 40.4% | 267.6hPa | 2.7V | 00:00:00 | 00:00:00 | 00:00:00 | |
| DO3MHA-11 | 2026-08-31 05:24:14 | 47.92661 | 11.60761 | 69° | 128km/h | 10275m | 5.6m/s | -43.8°C | 44.7% | 268.9hPa | 2.7V | 00:00:00 | 01:32:19 | 00:00:00 | |
| NBG1-10 | 2026-08-31 05:24:05 | 47.92590 | 11.60337 | 73° | 124km/h | 10229m | 6.3m/s | -43.5°C | 49.6% | 270.7hPa | 2.7V | 00:00:00 | 01:32:10 | 00:00:00 | |
| DO3MHA-11 | 2026-08-31 05:24:04 | 47.92580 | 11.60292 | 71° | 124km/h | 10223m | 7.1m/s | -43.4°C | 50.5% | 270.9hPa | 2.7V | 00:00:00 | 01:32:09 | 00:00:00 | |
| DF7PN | 2026-08-31 05:23:58 | 47.92485 | 11.59847 | 71° | 128km/h | 10171m | 4.6m/s | -43.1°C | -1.0% | -1.0hPa | 2.7V | 00:00:00 | 00:00:00 | 00:00:00 | |
| DF3TZ-5 | 2026-08-31 05:23:55 | 47.92485 | 11.59847 | 71° | 128km/h | 10171m | 4.6m/s | -43.1°C | 51.1% | 273.1hPa | 2.7V | 00:00:00 | 00:00:00 | 00:00:00 | |
| DL6DJ-15 | 2026-08-31 05:23:53 | 47.92475 | 11.59802 | 73° | 124km/h | 10167m | 5.1m/s | -43.0°C | 51.1% | 273.3hPa | 2.7V | 00:00:00 | 00:00:00 | 00:00:00 | |
| DO8TBO-1 | 2026-08-31 05:23:47 | 47.92411 | 11.59449 | 77° | 124km/h | 10126m | 6.0m/s | 0°C | 0% | 0hPa | 2.7V | 00:00:00 | 01:31:50 | 00:00:00 | |
| DO3MHA-11 | 2026-08-31 05:23:44 | 47.92403 | 11.59400 | 76° | 124km/h | 10121m | 4.4m/s | -42.6°C | 52.9% | 275.1hPa | 2.7V | 00:00:00 | 01:31:49 | 00:00:00 | |
| OE5DRO-10 | 2026-08-31 05:23:42 | 47.92384 | 11.59306 | 72° | 124km/h | 10113m | 4.9m/s | -42.5°C | 51.9% | 275.4hPa | 2.7V | 00:00:00 | 00:00:00 | 00:00:00 | |
| DO3MHA-11 | 2026-08-31 05:23:34 | 47.92312 | 11.58952 | 72° | 124km/h | 10075m | 5.3m/s | -42.2°C | 50.4% | 277.0hPa | 2.7V | 00:00:00 | 01:31:39 | 00:00:00 | |
| NBG1-10 | 2026-08-31 05:23:32 | 47.92291 | 11.58862 | 71° | 126km/h | 10067m | 3.6m/s | -42.1°C | 51.2% | 277.3hPa | 2.7V | 00:00:00 | 01:31:37 | 00:00:00 | |
| DB0NH | 2026-08-31 05:23:29 | 47.92267 | 11.58732 | 79° | 126km/h | 10052m | 5.3m/s | -42.0°C | 53.1% | 277.9hPa | 2.7V | 00:00:00 | 01:31:34 | 00:00:00 | |
| OE5MMP-10 | 2026-08-31 05:23:28 | 47.92260 | 11.58686 | 80° | 128km/h | 10047m | 3.9m/s | 0°C | 0% | 0hPa | 2.7V | 00:00:00 | 01:31:33 | 00:00:00 | |
| DF7PN | 2026-08-31 05:23:27 | 47.92254 | 11.58640 | 76° | 126km/h | 10043m | 4.5m/s | 0°C | -1.0% | -1.0hPa | 2.7V | 00:00:00 | 00:00:00 | 00:00:00 | |
| OE5DXL-15 | 2026-08-31 05:23:25 | 47.92233 | 11.58549 | 68° | 128km/h | 10033m | 5.0m/s | -41.9°C | 51.6% | 278.6hPa | 2.7V | 00:00:00 | 00:00:00 | 00:00:00 | |
| DO3MHA-11 | 2026-08-31 05:23:24 | 47.92220 | 11.58504 | 66° | 131km/h | 10029m | 3.9m/s | -41.9°C | 51.6% | 278.8hPa | 2.7V | 00:00:00 | 01:31:29 | 00:00:00 | |
| OE5DRO-10 | 2026-08-31 05:23:23 | 47.92206 | 11.58458 | 68° | 128km/h | 10025m | 3.9m/s | -41.8°C | 51.9% | 279.1hPa | 2.7V | 00:00:00 | 00:00:00 | 00:00:00 | |
| DL6DJ-15 | 2026-08-31 05:23:22 | 47.92195 | 11.58411 | 71° | 133km/h | 10020m | 4.3m/s | -41.7°C | 48.8% | 279.3hPa | 2.7V | 00:00:00 | 00:00:00 | 00:00:00 | |
| DO3MHA-11 | 2026-08-31 05:23:14 | 47.92129 | 11.58033 | 74° | 124km/h | 9972m | 6.8m/s | -41.3°C | 47.2% | 281.2hPa | 2.7V | 00:00:00 | 01:31:19 | 00:00:00 | |
| DO3MHA-11 | 2026-08-31 05:23:04 | 47.92038 | 11.57584 | 78° | 126km/h | 9920m | 3.9m/s | -40.8°C | 43.7% | 283.3hPa | 2.7V | 00:00:00 | 01:31:09 | 00:00:00 | |
| DF7PN | 2026-08-31 05:22:57 | 47.91945 | 11.57182 | 73° | 130km/h | 9872m | 2.8m/s | 0°C | -1.0% | -1.0hPa | 2.7V | 00:00:00 | 00:00:00 | 00:00:00 | |
| DF3TZ-5 | 2026-08-31 05:22:53 | 47.91921 | 11.57053 | 75° | 104km/h | 9858m | 3.8m/s | -40.3°C | 37.6% | 286.0hPa | 2.7V | 00:00:00 | 00:00:00 | 00:00:00 | |
| DL6DJ-15 | 2026-08-31 05:22:51 | 47.91914 | 11.57015 | 73° | 104km/h | 9854m | 4.4m/s | -40.2°C | 37.7% | 286.2hPa | 2.7V | 00:00:00 | 00:00:00 | 00:00:00 | |
| BAUMI2-15 | 2026-08-31 05:22:46 | 47.91861 | 11.56798 | 72° | 120km/h | 9830m | 6.7m/s | -39.9°C | 36.3% | 287.2hPa | 2.7V | 00:00:00 | 01:30:51 | 00:00:00 | |
| OE5DRO-10 | 2026-08-31 05:22:45 | 47.91851 | 11.56752 | 73° | 124km/h | 9824m | 5.4m/s | -39.8°C | 36.1% | 287.5hPa | 2.7V | 00:00:00 | 00:00:00 | 00:00:00 | |
| DO3MHA-11 | 2026-08-31 05:22:44 | 47.91842 | 11.56708 | 72° | 124km/h | 9819m | 6.9m/s | -39.8°C | 35.8% | 287.7hPa | 2.7V | 00:00:00 | 01:30:49 | 00:00:00 | |
| BAUMI2-15 | 2026-08-31 05:22:41 | 47.91812 | 11.56584 | 71° | 130km/h | 9803m | 6.3m/s | -39.7°C | 34.6% | 288.4hPa | 2.7V | 00:00:00 | 01:30:46 | 00:00:00 | |
| BAUMI2-15 | 2026-08-31 05:22:36 | 47.91765 | 11.56348 | 75° | 124km/h | 9777m | 4.4m/s | -39.5°C | 35.4% | 289.4hPa | 2.7V | 00:00:00 | 01:30:41 | 00:00:00 | |
| DO3MHA-11 | 2026-08-31 05:22:34 | 47.91747 | 11.56260 | 72° | 126km/h | 9767m | 5.8m/s | -39.4°C | 36.2% | 289.8hPa | 2.7V | 00:00:00 | 01:30:39 | 00:00:00 | |
| BAUMI2-15 | 2026-08-31 05:22:31 | 47.91712 | 11.56128 | 70° | 122km/h | 9752m | 4.8m/s | -39.3°C | 36.3% | 290.4hPa | 2.7V | 00:00:00 | 01:30:36 | 00:00:00 | |
| DB0NH | 2026-08-31 05:22:27 | 47.91677 | 11.55952 | 76° | 126km/h | 9734m | 5.2m/s | -39.2°C | 34.5% | 291.1hPa | 2.7V | 00:00:00 | 01:30:32 | 00:00:00 | |
| OE5DXL-15 | 2026-08-31 05:22:25 | 47.91659 | 11.55857 | 73° | 126km/h | 9726m | 3.2m/s | -39.1°C | 33.1% | 291.5hPa | 2.7V | 00:00:00 | 00:00:00 | 08:30:00 | |
| DO3MHA-11 | 2026-08-31 05:22:24 | 47.91648 | 11.55810 | 72° | 128km/h | 9722m | 4.6m/s | -39.0°C | 32.5% | 291.7hPa | 2.7V | 00:00:00 | 01:30:29 | 08:30:00 | |
| BAUMI2-15 | 2026-08-31 05:22:21 | 47.91619 | 11.55683 | 72° | 130km/h | 9710m | 3.1m/s | -39.0°C | 31.0% | 292.2hPa | 2.7V | 00:00:00 | 01:30:26 | 00:00:00 | |
| DL6DJ-15 | 2026-08-31 05:22:20 | 47.91610 | 11.55640 | 72° | 122km/h | 9705m | 5.5m/s | -39.0°C | 27.6% | 292.4hPa | 2.7V | 00:00:00 | 00:00:00 | 00:00:00 | |
| BAUMI2-15 | 2026-08-31 05:22:16 | 47.91565 | 11.55447 | 68° | 122km/h | 9688m | 4.8m/s | -38.8°C | 29.2% | 293.2hPa | 2.7V | 00:00:00 | 01:30:21 | 00:00:00 | |
| DO3MHA-11 | 2026-08-31 05:22:14 | 47.91539 | 11.55360 | 66° | 124km/h | 9679m | 4.1m/s | -38.7°C | 28.5% | 293.6hPa | 2.7V | 00:00:00 | 01:30:19 | 00:00:00 | |
| BAUMI2-15 | 2026-08-31 05:22:11 | 47.91510 | 11.55235 | 76° | 131km/h | 9666m | 4.4m/s | -38.6°C | 27.7% | 294.1hPa | 2.7V | 00:00:00 | 01:30:16 | 00:00:00 | |
| OE5DRO-10 | 2026-08-31 05:22:07 | 47.91471 | 11.55045 | 68° | 126km/h | 9650m | 5.2m/s | -38.5°C | 25.9% | 294.7hPa | 2.7V | 00:00:00 | 00:00:00 | 08:30:00 | |
| BAUMI2-15 | 2026-08-31 05:22:06 | 47.91459 | 11.55002 | 67° | 119km/h | 9645m | 4.9m/s | -38.5°C | 25.7% | 295.0hPa | 2.7V | 00:00:00 | 01:30:11 | 00:00:00 | |
| DO3MHA-11 | 2026-08-31 05:22:04 | 47.91438 | 11.54923 | 71° | 126km/h | 9636m | 3.9m/s | -38.4°C | 24.3% | 295.3hPa | 2.7V | 00:00:00 | 01:30:09 | 00:00:00 | |
| DF3TZ-5 | 2026-08-31 05:21:51 | 47.91291 | 11.54241 | 69° | 139km/h | 9573m | 4.0m/s | -38.0°C | 26.8% | 298.1hPa | 2.7V | 00:00:00 | 00:00:00 | 00:00:00 | |
| DL6DJ-15 | 2026-08-31 05:21:49 | 47.91291 | 11.54241 | 69° | 139km/h | 9573m | 4.0m/s | -38.0°C | 26.8% | 298.1hPa | 2.7V | 00:00:00 | 00:00:00 | 00:00:00 | |
| OE5DRO-10 | 2026-08-31 05:21:48 | 47.91278 | 11.54192 | 68° | 124km/h | 9569m | 4.5m/s | -37.8°C | 29.8% | 298.2hPa | 2.7V | 00:00:00 | 00:00:00 | 00:00:00 | |
| BAUMI2-15 | 2026-08-31 05:21:46 | 47.91252 | 11.54101 | 68° | 117km/h | 9559m | 5.6m/s | -37.8°C | 32.1% | 298.7hPa | 2.7V | 00:00:00 | 01:29:51 | 00:00:00 | |
| DO3MHA-11 | 2026-08-31 05:21:44 | 47.91232 | 11.54018 | 73° | 120km/h | 9548m | 4.6m/s | -37.8°C | 35.1% | 299.1hPa | 2.7V | 00:00:00 | 01:29:49 | 00:00:00 | |
| BAUMI2-15 | 2026-08-31 05:21:41 | 47.91205 | 11.53893 | 72° | 126km/h | 9532m | 5.2m/s | 0°C | 0% | 0hPa | 2.7V | 00:00:00 | 01:29:46 | 08:30:00 | |
| DO3MHA-11 | 2026-08-31 05:21:34 | 47.91129 | 11.53590 | 70° | 122km/h | 9502m | 5.2m/s | -37.3°C | 36.4% | 301.1hPa | 2.7V | 00:00:00 | 01:29:39 | 00:00:00 | |
| BAUMI2-15 | 2026-08-31 05:21:31 | 47.91099 | 11.53452 | 75° | 120km/h | 9489m | 3.2m/s | 0°C | 0% | 0hPa | 2.7V | 00:00:00 | 01:29:36 | 00:00:00 | |
| OE5DRO-10 | 2026-08-31 05:21:29 | 47.91083 | 11.53361 | 74° | 122km/h | 9481m | 4.1m/s | -37.1°C | 36.6% | 302.1hPa | 2.7V | 00:00:00 | 00:00:00 | 00:00:00 | |
| BAUMI2-15 | 2026-08-31 05:21:26 | 47.91053 | 11.53238 | 68° | 130km/h | 9468m | 5.4m/s | 0°C | 0% | 0hPa | 2.7V | 00:00:00 | 01:29:31 | 00:00:00 | |
| OE5DXL-15 | 2026-08-31 05:21:25 | 47.91041 | 11.53195 | 69° | 124km/h | 9463m | 4.9m/s | -37.0°C | 35.2% | 302.9hPa | 2.7V | 00:00:00 | 00:00:00 | 00:00:00 | |
| DO3MHA-11 | 2026-08-31 05:21:24 | 47.91030 | 11.53148 | 71° | 126km/h | 9459m | 3.8m/s | -37.0°C | 35.2% | 303.0hPa | 2.7V | 00:00:00 | 01:29:29 | 00:00:00 | |
| OE5WHR-10 | 2026-08-31 05:21:23 | 47.91019 | 11.53100 | 73° | 124km/h | 9455m | 3.7m/s | 0°C | 0% | 0hPa | 2.7V | 00:00:00 | 01:29:28 | 00:00:00 | |
| BAUMI2-15 | 2026-08-31 05:21:21 | 47.91002 | 11.53007 | 77° | 119km/h | 9447m | 4.1m/s | 0°C | 0% | 0hPa | 2.7V | 00:00:00 | 01:29:26 | 00:00:00 | |
| NBG1-10 | 2026-08-31 05:21:20 | 47.90995 | 11.52963 | 77° | 122km/h | 9443m | 3.4m/s | -36.9°C | 33.3% | 303.7hPa | 2.7V | 00:00:00 | 01:29:25 | 08:30:00 | |
| DL6DJ-15 | 2026-08-31 05:21:18 | 47.90979 | 11.52879 | 72° | 119km/h | 9434m | 5.7m/s | -36.8°C | 30.6% | 304.1hPa | 2.7V | 00:00:00 | 00:00:00 | 00:00:00 | |
| BAUMI2-15 | 2026-08-31 05:21:16 | 47.90957 | 11.52791 | 68° | 126km/h | 9423m | 4.5m/s | 0°C | 0% | 0hPa | 2.7V | 00:00:00 | 01:29:21 | 00:00:00 | |
| DO3MHA-11 | 2026-08-31 05:21:14 | 47.90931 | 11.52699 | 69° | 120km/h | 9415m | 4.5m/s | -36.6°C | 32.6% | 305.0hPa | 2.7V | 00:00:00 | 01:29:19 | 00:00:00 | |
| BAUMI2-15 | 2026-08-31 05:21:11 | 47.90900 | 11.52573 | 72° | 120km/h | 9402m | 4.7m/s | 0°C | 0% | 0hPa | 2.7V | 00:00:00 | 01:29:16 | 00:00:00 | |
| OE5DRO-10 | 2026-08-31 05:21:10 | 47.90891 | 11.52532 | 71° | 124km/h | 9396m | 5.5m/s | -36.4°C | 30.8% | 305.8hPa | 2.7V | 00:00:00 | 00:00:00 | 00:00:00 | |
| DB0NH | 2026-08-31 05:21:06 | 47.90850 | 11.52358 | 74° | 120km/h | 9377m | 5.0m/s | -36.2°C | 31.3% | 306.7hPa | 2.7V | 00:00:00 | 01:29:11 | 00:00:00 | |
| DO3MHA-11 | 2026-08-31 05:21:04 | 47.90834 | 11.52270 | 76° | 122km/h | 9369m | 3.9m/s | -36.2°C | 32.5% | 307.0hPa | 2.7V | 00:00:00 | 01:29:09 | 00:00:00 | |
| BAUMI2-15 | 2026-08-31 05:21:01 | 47.90806 | 11.52130 | 71° | 120km/h | 9355m | 3.5m/s | 0°C | 0% | 0hPa | 2.7V | 00:00:00 | 01:29:06 | 00:00:00 | |
| BAUMI2-15 | 2026-08-31 05:20:56 | 47.90752 | 11.51918 | 70° | 128km/h | 9335m | 5.2m/s | 0°C | 0% | 0hPa | 2.7V | 00:00:00 | 01:29:01 | 00:00:00 | |
| OE5DXL-15 | 2026-08-31 05:20:55 | 47.90741 | 11.51875 | 69° | 120km/h | 9330m | 5.4m/s | -35.9°C | 34.4% | 308.7hPa | 2.7V | 00:00:00 | 00:00:00 | 00:00:00 | |
| DB0UT-7 | 2026-08-31 05:20:54 | 47.90729 | 11.51829 | 69° | 120km/h | 9325m | 3.5m/s | -35.9°C | 34.6% | 309.0hPa | 2.7V | 00:00:00 | 01:28:59 | 00:00:00 | |
| OE5DRO-10 | 2026-08-31 05:20:51 | 47.90694 | 11.51697 | 69° | 122km/h | 9312m | 3.9m/s | -35.8°C | 35.0% | 309.6hPa | 2.7V | 00:00:00 | 00:00:00 | 00:00:00 | |
| DO3MHA-11 | 2026-08-31 05:20:50 | 47.90684 | 11.51656 | 71° | 120km/h | 9308m | 3.1m/s | -35.7°C | 34.4% | 309.8hPa | 2.7V | 00:00:00 | 01:28:55 | 08:30:00 | |
| NBG1-10 | 2026-08-31 05:20:47 | 47.90658 | 11.51527 | 75° | 120km/h | 9294m | 5.0m/s | -35.6°C | 33.8% | 310.4hPa | 2.7V | 00:00:00 | 01:28:52 | 00:00:00 | |
| DO3MHA-11 | 2026-08-31 05:20:40 | 47.90588 | 11.51223 | 76° | 120km/h | 9261m | 5.6m/s | -35.4°C | 31.5% | 311.8hPa | 2.7V | 00:00:00 | 01:28:45 | 00:00:00 | |
| DB0NH | 2026-08-31 05:20:36 | 47.90550 | 11.51047 | 67° | 120km/h | 9240m | 4.5m/s | -35.1°C | 29.8% | 312.8hPa | 2.7V | 00:00:00 | 01:28:41 | 00:00:00 | |
| OE5DRO-10 | 2026-08-31 05:20:32 | 47.90503 | 11.50874 | 71° | 117km/h | 9224m | 4.1m/s | -35.1°C | 26.5% | 313.4hPa | 2.7V | 00:00:00 | 00:00:00 | 00:00:00 | |
| DO3MHA-11 | 2026-08-31 05:20:30 | 47.90484 | 11.50797 | 70° | 117km/h | 9215m | 4.5m/s | -35.0°C | 25.3% | 313.9hPa | 2.7V | 00:00:00 | 01:28:35 | 00:00:00 | |
| OE5DXL-15 | 2026-08-31 05:20:25 | 47.90435 | 11.50588 | 73° | 117km/h | 9195m | 3.2m/s | -34.9°C | 24.8% | 314.8hPa | 2.7V | 00:00:00 | 00:00:00 | 00:00:00 | |
| DB0UT-7 | 2026-08-31 05:20:24 | 47.90425 | 11.50542 | 71° | 117km/h | 9191m | 3.0m/s | -34.8°C | 25.0% | 315.0hPa | 2.7V | 00:00:00 | 00:00:00 | 00:00:00 | |
| DO3MHA-11 | 2026-08-31 05:20:20 | 47.90383 | 11.50382 | 69° | 117km/h | 9174m | 4.2m/s | -34.7°C | 27.5% | 315.8hPa | 2.7V | 00:00:00 | 01:28:25 | 00:00:00 | |
| DL6DJ-15 | 2026-08-31 05:20:16 | 47.90328 | 11.50178 | 65° | 128km/h | 9152m | 4.3m/s | -34.7°C | 27.2% | 316.8hPa | 2.7V | 00:00:00 | 00:00:00 | 00:00:00 | |
| NBG1-10 | 2026-08-31 05:20:14 | 47.90314 | 11.50135 | 64° | 117km/h | 9147m | 5.2m/s | -34.6°C | 28.9% | 316.9hPa | 2.7V | 00:00:00 | 01:28:19 | 00:00:00 | |
| OE5DRO-10 | 2026-08-31 05:20:13 | 47.90301 | 11.50095 | 64° | 117km/h | 9142m | 4.3m/s | -34.6°C | 28.5% | 317.2hPa | 2.7V | 00:00:00 | 00:00:00 | 00:00:00 | |
| DB0NH | 2026-08-31 05:20:06 | 47.90220 | 11.49804 | 64° | 117km/h | 9109m | 4.7m/s | -34.3°C | 28.1% | 318.7hPa | 2.7V | 00:00:00 | 01:28:11 | 08:30:00 | |
| DL6DJ-15 | 2026-08-31 05:19:45 | 47.89981 | 11.48910 | 74° | 122km/h | 9015m | 4.6m/s | -33.7°C | 28.1% | 323.1hPa | 2.7V | 00:00:00 | 00:00:00 | 00:00:00 | |
| NBG1-10 | 2026-08-31 05:19:41 | 47.89949 | 11.48780 | 64° | 111km/h | 9001m | 4.7m/s | -33.6°C | 29.9% | 323.7hPa | 2.7V | 00:00:00 | 01:27:46 | 00:00:00 | |
| DO3MHA-11 | 2026-08-31 05:19:40 | 47.89935 | 11.48741 | 61° | 111km/h | 8996m | 4.6m/s | -33.6°C | 29.3% | 323.9hPa | 2.7V | 00:00:00 | 01:27:45 | 00:00:00 | |
| DB0NH | 2026-08-31 05:19:35 | 47.89882 | 11.48558 | 75° | 113km/h | 8974m | 4.1m/s | -33.3°C | 27.9% | 324.9hPa | 2.7V | 00:00:00 | 01:27:40 | 00:00:00 | |
| DO3MHA-11 | 2026-08-31 05:19:30 | 47.89833 | 11.48350 | 66° | 113km/h | 8953m | 5.3m/s | -33.1°C | 26.2% | 326.0hPa | 2.7V | 00:00:00 | 01:27:35 | 00:00:00 | |
| OE5WHR-10 | 2026-08-31 05:19:29 | 47.89822 | 11.48313 | 65° | 108km/h | 8948m | 4.5m/s | 0°C | 0% | 0hPa | 2.7V | 00:00:00 | 00:00:00 | 00:00:00 | |
| OE5DXL-15 | 2026-08-31 05:19:25 | 47.89777 | 11.48163 | 67° | 111km/h | 8931m | 5.0m/s | -32.9°C | 27.1% | 327.0hPa | 2.7V | 00:00:00 | 00:00:00 | 00:00:00 | |
| DB0UT-7 | 2026-08-31 05:19:24 | 47.89765 | 11.48120 | 68° | 111km/h | 8927m | 3.8m/s | -32.9°C | 27.5% | 327.2hPa | 2.7V | 00:00:00 | 00:00:00 | 00:00:00 | |
| DO3MHA-11 | 2026-08-31 05:19:20 | 47.89727 | 11.47955 | 77° | 110km/h | 8910m | 4.3m/s | -32.8°C | 27.2% | 327.9hPa | 2.7V | 00:00:00 | 01:27:25 | 08:30:00 | |
| DF3TZ-5 | 2026-08-31 05:19:16 | 47.89676 | 11.47721 | 65° | 122km/h | 8877m | 7.2m/s | -32.5°C | 22.8% | 329.5hPa | 2.7V | 00:00:00 | 00:00:00 | 00:00:00 | |
| DL6DJ-15 | 2026-08-31 05:19:14 | 47.89663 | 11.47679 | 64° | 119km/h | 8870m | 7.1m/s | -32.5°C | 22.8% | 329.9hPa | 2.7V | 00:00:00 | 00:00:00 | 00:00:00 | |
| DO3MHA-11 | 2026-08-31 05:19:10 | 47.89630 | 11.47568 | 70° | 110km/h | 8851m | 5.8m/s | -32.2°C | 24.4% | 330.8hPa | 2.7V | 00:00:00 | 01:27:15 | 00:00:00 | |
| NBG1-10 | 2026-08-31 05:19:06 | 47.89593 | 11.47419 | 70° | 111km/h | 8829m | 6.3m/s | -32.0°C | 23.6% | 331.7hPa | 2.7V | 00:00:00 | 01:27:11 | 00:00:00 | |
| DB0NH | 2026-08-31 05:19:04 | 47.89575 | 11.47342 | 73° | 115km/h | 8816m | 6.1m/s | -31.9°C | 23.5% | 332.4hPa | 2.7V | 00:00:00 | 01:27:09 | 00:00:00 | |
| DF3TZ-5 | 2026-08-31 05:18:45 | 47.89343 | 11.46536 | 61° | 126km/h | 8717m | 4.6m/s | -31.2°C | 28.2% | 337.1hPa | 2.7V | 00:00:00 | 00:00:00 | 00:00:00 | |
| DL6DJ-15 | 2026-08-31 05:18:43 | 47.89317 | 11.46460 | 63° | 102km/h | 8705m | 8.5m/s | -31.2°C | 29.7% | 337.6hPa | 2.7V | 00:00:00 | 00:00:00 | 00:00:00 | |
| DO3MHA-11 | 2026-08-31 05:18:40 | 47.89299 | 11.46392 | 74° | 115km/h | 8690m | 5.9m/s | -31.1°C | 32.3% | 338.3hPa | 2.7V | 00:00:00 | 01:26:45 | 00:00:00 | |
| OE5DRO-10 | 2026-08-31 05:18:38 | 47.89286 | 11.46318 | 75° | 108km/h | 8680m | 4.1m/s | -31.1°C | 32.6% | 338.7hPa | 2.7V | 00:00:00 | 00:00:00 | 00:00:00 | |
| DB0NH | 2026-08-31 05:18:34 | 47.89238 | 11.46157 | 57° | 106km/h | 8658m | 4.7m/s | -30.9°C | 32.1% | 339.9hPa | 2.7V | 00:00:00 | 01:26:39 | 00:00:00 | |
| NBG1-10 | 2026-08-31 05:18:32 | 47.89203 | 11.46079 | 57° | 106km/h | 8650m | 4.4m/s | -30.7°C | 31.5% | 340.3hPa | 2.7V | 00:00:00 | 01:26:37 | 00:00:00 | |
| DO3MHA-11 | 2026-08-31 05:18:30 | 47.89174 | 11.46001 | 64° | 99km/h | 8640m | 7.1m/s | -30.7°C | 30.1% | 340.7hPa | 2.7V | 00:00:00 | 01:26:35 | 00:00:00 | |
| OE5DXL-15 | 2026-08-31 05:18:25 | 47.89119 | 11.45828 | 57° | 104km/h | 8608m | 4.0m/s | -30.6°C | 24.7% | 342.3hPa | 2.7V | 00:00:00 | 00:00:00 | 00:00:00 | |
| DB0UT-7 | 2026-08-31 05:18:24 | 47.89105 | 11.45798 | 55° | 104km/h | 8604m | 3.8m/s | -30.5°C | 23.1% | 342.4hPa | 2.7V | 00:00:00 | 00:00:00 | 00:00:00 | |
| DO3MHA-11 | 2026-08-31 05:18:20 | 47.89056 | 11.45679 | 68° | 104km/h | 8582m | 6.3m/s | -30.2°C | 19.7% | 343.4hPa | 2.7V | 00:00:00 | 01:26:25 | 00:00:00 | |
| OE5DRO-10 | 2026-08-31 05:18:19 | 47.89048 | 11.45644 | 74° | 106km/h | 8576m | 6.3m/s | -30.2°C | 19.4% | 343.8hPa | 2.7V | 00:00:00 | 00:00:00 | 00:00:00 | |
| DF7PN | 2026-08-31 05:18:16 | 47.89024 | 11.45524 | 71° | 111km/h | 8560m | 5.6m/s | 0°C | -1.0% | -1.0hPa | 2.7V | 00:00:00 | 00:00:00 | 00:00:00 | |
| DL6DJ-15 | 2026-08-31 05:18:12 | 47.88968 | 11.45353 | 65° | 106km/h | 8534m | 5.7m/s | -29.8°C | 14.8% | 346.0hPa | 2.7V | 00:00:00 | 00:00:00 | 00:00:00 | |
| DO3MHA-11 | 2026-08-31 05:18:10 | 47.88957 | 11.45314 | 71° | 108km/h | 8529m | 4.7m/s | -29.8°C | 15.2% | 346.2hPa | 2.7V | 00:00:00 | 01:26:15 | 00:00:00 | |
| DB0NH | 2026-08-31 05:18:04 | 47.88899 | 11.45093 | 58° | 104km/h | 8501m | 5.7m/s | -29.5°C | 15.0% | 347.4hPa | 2.7V | 00:00:00 | 01:26:09 | 00:00:00 | |
| DO3MHA-11 | 2026-08-31 05:18:00 | 47.88846 | 11.44950 | 68° | 108km/h | 8481m | 6.3m/s | -29.3°C | 14.2% | 348.6hPa | 2.7V | 00:00:00 | 01:26:05 | 00:00:00 | |
| NBG1-10 | 2026-08-31 05:17:57 | 47.88819 | 11.44836 | 71° | 104km/h | 8464m | 4.5m/s | -29.0°C | 14.3% | 349.4hPa | 2.7V | 00:00:00 | 01:26:02 | 00:00:00 | |
| OE5DXL-15 | 2026-08-31 05:17:55 | 47.88799 | 11.44767 | 64° | 104km/h | 8455m | 4.7m/s | -28.9°C | 15.3% | 349.9hPa | 2.7V | 00:00:00 | 01:26:00 | 08:30:00 | |
| DB0UT-7 | 2026-08-31 05:17:54 | 47.88787 | 11.44731 | 63° | 104km/h | 8449m | 5.6m/s | -28.9°C | 15.8% | 350.1hPa | 2.7V | 00:00:00 | 01:25:59 | 08:30:00 | |
| DO3MHA-11 | 2026-08-31 05:17:50 | 47.88743 | 11.44580 | 70° | 104km/h | 8429m | 5.2m/s | -28.9°C | 15.8% | 351.0hPa | 2.7V | 00:00:00 | 01:25:55 | 08:30:00 | |
| OE5DRO-10 | 2026-08-31 05:17:41 | 47.88645 | 11.44258 | 72° | 102km/h | 8391m | 3.5m/s | -28.5°C | 15.6% | 353.0hPa | 2.7V | 00:00:00 | 00:00:00 | 00:00:00 | |
| DO3MHA-11 | 2026-08-31 05:17:40 | 47.88636 | 11.44222 | 69° | 102km/h | 8387m | 4.5m/s | -28.4°C | 16.3% | 353.2hPa | 2.7V | 00:00:00 | 01:25:45 | 00:00:00 | |
| DB0NH | 2026-08-31 05:17:34 | 47.88573 | 11.44011 | 71° | 104km/h | 8361m | 3.9m/s | -28.2°C | 18.5% | 354.4hPa | 2.7V | 00:00:00 | 01:25:39 | 00:00:00 | |
| DO3MHA-11 | 2026-08-31 05:17:30 | 47.88537 | 11.43869 | 65° | 104km/h | 8343m | 4.7m/s | -27.9°C | 16.6% | 355.3hPa | 2.7V | 00:00:00 | 01:25:35 | 00:00:00 | |
| OE5DXL-15 | 2026-08-31 05:17:25 | 47.88482 | 11.43688 | 72° | 104km/h | 8320m | 4.6m/s | -27.8°C | 15.4% | 356.5hPa | 2.7V | 00:00:00 | 00:00:00 | 00:00:00 | |
| NBG1-10 | 2026-08-31 05:17:24 | 47.88474 | 11.43650 | 72° | 102km/h | 8316m | 3.3m/s | -27.7°C | 15.2% | 356.7hPa | 2.7V | 00:00:00 | 01:25:29 | 00:00:00 | |
| OE5DRO-10 | 2026-08-31 05:17:22 | 47.88456 | 11.43579 | 66° | 104km/h | 8307m | 4.4m/s | -27.7°C | 14.4% | 357.1hPa | 2.7V | 00:00:00 | 00:00:00 | 00:00:00 | |
| DO3MHA-11 | 2026-08-31 05:17:20 | 47.88432 | 11.43509 | 63° | 104km/h | 8299m | 4.5m/s | -27.6°C | 13.3% | 357.5hPa | 2.7V | 00:00:00 | 01:25:25 | 00:00:00 | |
| DO3MHA-11 | 2026-08-31 05:17:10 | 47.88326 | 11.43148 | 68° | 106km/h | 8254m | 5.2m/s | -27.2°C | 16.8% | 359.7hPa | 2.7V | 00:00:00 | 01:25:15 | 00:00:00 | |
| DL6DJ-15 | 2026-08-31 05:17:09 | 47.88316 | 11.43109 | 70° | 106km/h | 8248m | 5.7m/s | -27.2°C | 14.9% | 360.0hPa | 2.7V | 00:00:00 | 00:00:00 | 00:00:00 | |
| OE5DRO-10 | 2026-08-31 05:17:03 | 47.88256 | 11.42901 | 64° | 104km/h | 8222m | 4.3m/s | -27.1°C | 8.7% | 361.3hPa | 2.7V | 00:00:00 | 00:00:00 | 00:00:00 | |
| DB0NH | 2026-08-31 05:17:02 | 47.88244 | 11.42862 | 67° | 102km/h | 8217m | 4.8m/s | -27.1°C | 8.9% | 361.5hPa | 2.7V | 00:00:00 | 01:25:07 | 00:00:00 | |
| DO3MHA-11 | 2026-08-31 05:17:00 | 47.88223 | 11.42784 | 71° | 106km/h | 8209m | 2.7m/s | -27.0°C | 9.0% | 361.9hPa | 2.7V | 00:00:00 | 01:25:05 | 00:00:00 | |
| OE5DXL-15 | 2026-08-31 05:16:55 | 47.88168 | 11.42609 | 63° | 102km/h | 8188m | 5.3m/s | -27.0°C | 9.0% | 363.0hPa | 2.7V | 00:00:00 | 00:00:00 | 00:00:00 | |
| DB0UT-7 | 2026-08-31 05:16:54 | 47.88155 | 11.42571 | 67° | 100km/h | 8183m | 3.6m/s | -27.0°C | 9.1% | 363.3hPa | 2.7V | 00:00:00 | 01:24:59 | 00:00:00 | |
| NBG1-10 | 2026-08-31 05:16:51 | 47.88126 | 11.42456 | 71° | 99km/h | 8171m | 4.1m/s | -26.8°C | 8.9% | 363.9hPa | 2.7V | 00:00:00 | 01:24:56 | 00:00:00 | |
| DO3MHA-11 | 2026-08-31 05:16:50 | 47.88117 | 11.42422 | 68° | 102km/h | 8167m | 3.9m/s | -26.8°C | 9.0% | 364.0hPa | 2.7V | 00:00:00 | 01:24:55 | 00:00:00 | |
| OE5DRO-10 | 2026-08-31 05:16:44 | 47.88053 | 11.42220 | 72° | 100km/h | 8141m | 4.5m/s | -26.7°C | 10.2% | 365.3hPa | 2.7V | 00:00:00 | 00:00:00 | 00:00:00 | |
| DO3MHA-11 | 2026-08-31 05:16:40 | 47.88019 | 11.42065 | 64° | 100km/h | 8127m | 4.2m/s | -26.5°C | 11.2% | 366.1hPa | 2.7V | 00:00:00 | 01:24:45 | 00:00:00 | |
| DL6DJ-15 | 2026-08-31 05:16:38 | 47.87991 | 11.41996 | 55° | 102km/h | 8118m | 4.8m/s | -26.6°C | 10.2% | 366.5hPa | 2.7V | 00:00:00 | 00:00:00 | 00:00:00 | |
| DO3MHA-11 | 2026-08-31 05:16:30 | 47.87906 | 11.41732 | 63° | 99km/h | 8083m | 5.1m/s | -26.2°C | 8.5% | 368.3hPa | 2.7V | 00:00:00 | 01:24:35 | 00:00:00 | |
| OE5DXL-15 | 2026-08-31 05:16:25 | 47.87849 | 11.41572 | 68° | 99km/h | 8061m | 3.7m/s | -25.9°C | 7.8% | 369.4hPa | 2.7V | 00:00:00 | 00:00:00 | 00:00:00 | |
| DB0UT-7 | 2026-08-31 05:16:24 | 47.87840 | 11.41537 | 68° | 99km/h | 8056m | 4.6m/s | -25.9°C | 7.7% | 369.6hPa | 2.7V | 00:00:00 | 00:00:00 | 00:00:00 | |
| DO3MHA-11 | 2026-08-31 05:16:20 | 47.87794 | 11.41399 | 66° | 97km/h | 8038m | 3.5m/s | -25.7°C | 7.5% | 370.7hPa | 2.7V | 00:00:00 | 01:24:25 | 08:30:00 | |
| NBG1-10 | 2026-08-31 05:16:18 | 47.87777 | 11.41331 | 74° | 97km/h | 8028m | 3.6m/s | -25.7°C | 7.5% | 371.0hPa | 2.7V | 00:00:00 | 01:24:23 | 08:30:00 | |
| DO3MHA-11 | 2026-08-31 05:16:10 | 47.87695 | 11.41071 | 74° | 100km/h | 7996m | 4.1m/s | -25.5°C | 7.0% | 372.6hPa | 2.7V | 00:00:00 | 01:24:15 | 00:00:00 | |
| DL6DJ-15 | 2026-08-31 05:16:07 | 47.87676 | 11.40963 | 70° | 108km/h | 7983m | 3.6m/s | -25.4°C | 6.1% | 373.4hPa | 2.7V | 00:00:00 | 00:00:00 | 00:00:00 | |
| OE5DRO-10 | 2026-08-31 05:16:06 | 47.87665 | 11.40925 | 67° | 99km/h | 7979m | 4.7m/s | -25.3°C | 6.6% | 373.5hPa | 2.7V | 00:00:00 | 00:00:00 | 00:00:00 | |
| DB0NH | 2026-08-31 05:16:02 | 47.87616 | 11.40789 | 65° | 93km/h | 7962m | 3.9m/s | -25.1°C | 6.3% | 374.5hPa | 2.7V | 00:00:00 | 01:24:07 | 00:00:00 | |
| DO3MHA-11 | 2026-08-31 05:16:00 | 47.87601 | 11.40725 | 77° | 99km/h | 7952m | 3.9m/s | -25.1°C | 6.2% | 374.9hPa | 2.7V | 00:00:00 | 01:24:05 | 00:00:00 | |
| OE5DXL-15 | 2026-08-31 05:15:55 | 47.87561 | 11.40553 | 59° | 95km/h | 7933m | 4.6m/s | -25.0°C | 5.9% | 376.0hPa | 2.7V | 00:00:00 | 00:00:00 | 00:00:00 | |
| DB0UT-7 | 2026-08-31 05:15:54 | 47.87547 | 11.40521 | 58° | 93km/h | 7929m | 3.2m/s | -24.9°C | 5.9% | 376.2hPa | 2.7V | 00:00:00 | 01:23:59 | 00:00:00 | |
| DO3MHA-11 | 2026-08-31 05:15:50 | 47.87504 | 11.40382 | 75° | 93km/h | 7914m | 5.5m/s | -24.8°C | 5.8% | 377.1hPa | 2.7V | 00:00:00 | 01:23:55 | 00:00:00 | |
| OE5DRO-10 | 2026-08-31 05:15:47 | 47.87489 | 11.40279 | 80° | 93km/h | 7901m | 2.5m/s | -24.8°C | 5.8% | 377.7hPa | 2.7V | 00:00:00 | 00:00:00 | 00:00:00 | |
| NBG1-10 | 2026-08-31 05:15:45 | 47.87480 | 11.40215 | 74° | 93km/h | 7893m | 5.5m/s | -24.8°C | 5.6% | 378.0hPa | 2.7V | 00:00:00 | 01:23:50 | 00:00:00 | |
| DO3MHA-11 | 2026-08-31 05:15:40 | 47.87435 | 11.40051 | 70° | 95km/h | 7867m | 4.5m/s | -24.6°C | 5.4% | 379.4hPa | 2.7V | 00:00:00 | 01:23:45 | 00:00:00 | |
| DF3TZ-5 | 2026-08-31 05:15:38 | 47.87419 | 11.39986 | 70° | 88km/h | 7859m | 4.2m/s | -24.7°C | 4.8% | 379.9hPa | 2.7V | 00:00:00 | 00:00:00 | 00:00:00 | |
| DL6DJ-15 | 2026-08-31 05:15:36 | 47.87402 | 11.39927 | 62° | 84km/h | 7850m | 3.1m/s | -24.5°C | 4.8% | 380.4hPa | 2.7V | 00:00:00 | 00:00:00 | 00:00:00 | |
| DB0NH | 2026-08-31 05:15:31 | 47.87354 | 11.39757 | 74° | 93km/h | 7829m | 3.5m/s | -24.3°C | 5.3% | 381.4hPa | 2.7V | 00:00:00 | 01:23:36 | 08:30:00 | |
| DO3MHA-11 | 2026-08-31 05:15:30 | 47.87347 | 11.39722 | 74° | 88km/h | 7826m | 2.4m/s | -24.2°C | 5.3% | 381.6hPa | 2.9V | 00:00:00 | 01:23:35 | 00:00:00 | |
| OE5DRO-10 | 2026-08-31 05:15:28 | 47.87331 | 11.39655 | 66° | 91km/h | 7818m | 4.9m/s | -24.3°C | 5.3% | 381.9hPa | 2.9V | 00:00:00 | 00:00:00 | 00:00:00 | |
| OE5DXL-15 | 2026-08-31 05:15:25 | 47.87297 | 11.39571 | 57° | 91km/h | 7807m | 2.6m/s | -24.2°C | 5.4% | 382.5hPa | 2.7V | 00:00:00 | 00:00:00 | 00:00:00 | |
| DB0UT-7 | 2026-08-31 05:15:24 | 47.87286 | 11.39545 | 62° | 91km/h | 7803m | 3.8m/s | -24.2°C | 5.4% | 382.7hPa | 2.7V | 00:00:00 | 00:00:00 | 00:00:00 | |
| DO3MHA-11 | 2026-08-31 05:15:20 | 47.87260 | 11.39422 | 75° | 97km/h | 7786m | 4.1m/s | -24.2°C | 5.7% | 383.6hPa | 2.7V | 00:00:00 | 01:23:25 | 00:00:00 | |
| NBG1-10 | 2026-08-31 05:15:11 | 47.87177 | 11.39121 | 71° | 86km/h | 7747m | 3.5m/s | -24.2°C | 7.9% | 385.8hPa | 2.9V | 00:00:00 | 01:23:16 | 00:00:00 | |
| DO3MHA-11 | 2026-08-31 05:15:10 | 47.87169 | 11.39089 | 67° | 91km/h | 7743m | 5.0m/s | -24.2°C | 7.8% | 385.9hPa | 2.9V | 00:00:00 | 01:23:15 | 00:00:00 | |
| OE5DRO-10 | 2026-08-31 05:15:09 | 47.87158 | 11.39057 | 61° | 89km/h | 7738m | 5.4m/s | -24.2°C | 7.8% | 386.3hPa | 2.9V | 00:00:00 | 00:00:00 | 00:00:00 | |
| DF3TZ-5 | 2026-08-31 05:15:07 | 47.87133 | 11.38999 | 55° | 89km/h | 7730m | 3.0m/s | -24.2°C | 7.0% | 386.7hPa | 2.9V | 00:00:00 | 00:00:00 | 00:00:00 | |
| DL6DJ-15 | 2026-08-31 05:15:05 | 47.87110 | 11.38939 | 66° | 93km/h | 7722m | 4.9m/s | -24.2°C | 7.0% | 387.1hPa | 2.9V | 00:00:00 | 00:00:00 | 00:00:00 | |
| DB0NH | 2026-08-31 05:15:01 | 47.87082 | 11.38808 | 69° | 80km/h | 7704m | 4.2m/s | -24.2°C | 9.0% | 388.0hPa | 2.9V | 00:00:00 | 01:23:06 | 00:00:00 | |
| DO3MHA-11 | 2026-08-31 05:15:00 | 47.87073 | 11.38779 | 62° | 86km/h | 7700m | 3.7m/s | -24.2°C | 10.0% | 388.2hPa | 2.9V | 00:00:00 | 01:23:05 | 00:00:00 | |
| OE5DXL-15 | 2026-08-31 05:14:55 | 47.87018 | 11.38627 | 73° | 80km/h | 7679m | 3.3m/s | -24.4°C | 16.6% | 389.3hPa | 2.9V | 00:00:00 | 00:00:00 | 00:00:00 | |
| DB0UT-7 | 2026-08-31 05:14:53 | 47.87007 | 11.38566 | 76° | 78km/h | 7672m | 3.7m/s | -24.3°C | 15.8% | 389.7hPa | 2.9V | 00:00:00 | 01:22:58 | 00:00:00 | |
| DO3MHA-11 | 2026-08-31 05:14:50 | 47.86986 | 11.38485 | 63° | 82km/h | 7660m | 3.5m/s | -24.3°C | 15.4% | 390.4hPa | 2.7V | 00:00:00 | 01:22:55 | 08:30:00 | |
| DO3MHA-11 | 2026-08-31 05:14:40 | 47.86899 | 11.38202 | 59° | 80km/h | 7621m | 3.5m/s | -24.3°C | 14.1% | 392.3hPa | 2.9V | 00:00:00 | 01:22:45 | 00:00:00 | |
| NBG1-10 | 2026-08-31 05:14:38 | 47.86878 | 11.38140 | 71° | 78km/h | 7614m | 3.6m/s | -24.2°C | 14.2% | 392.9hPa | 2.9V | 00:00:00 | 01:22:43 | 00:00:00 | |
| DF3TZ-5 | 2026-08-31 05:14:36 | 47.86868 | 11.38084 | 80° | 68km/h | 7604m | 5.4m/s | -24.3°C | 13.3% | 393.4hPa | 2.7V | 00:00:00 | 00:00:00 | 00:00:00 | |
| DL6DJ-15 | 2026-08-31 05:14:34 | 47.86864 | 11.38035 | 82° | 66km/h | 7597m | 3.1m/s | -24.2°C | 13.3% | 393.8hPa | 2.7V | 00:00:00 | 00:00:00 | 00:00:00 | |
| OE5DRO-10 | 2026-08-31 05:14:31 | 47.86848 | 11.37951 | 65° | 78km/h | 7583m | 5.7m/s | -24.0°C | 14.5% | 394.4hPa | 2.7V | 00:00:00 | 00:00:00 | 00:00:00 | |
| DO3MHA-11 | 2026-08-31 05:14:30 | 47.86836 | 11.37921 | 58° | 77km/h | 7577m | 6.2m/s | -24.0°C | 15.1% | 394.8hPa | 2.9V | 00:00:00 | 01:22:35 | 00:00:00 | |
| OE5DXL-15 | 2026-08-31 05:14:25 | 47.86787 | 11.37804 | 74° | 77km/h | 7548m | 5.8m/s | -24.1°C | 28.1% | 396.3hPa | 2.9V | 00:00:00 | 00:00:00 | 00:00:00 | |
| DB0UT-7 | 2026-08-31 05:14:23 | 47.86777 | 11.37751 | 75° | 77km/h | 7537m | 6.3m/s | -24.1°C | 33.2% | 396.9hPa | 2.9V | 00:00:00 | 00:00:00 | 00:00:00 | |
| DO3MHA-11 | 2026-08-31 05:14:20 | 47.86752 | 11.37663 | 62° | 77km/h | 7522m | 4.8m/s | -24.0°C | 34.0% | 397.7hPa | 2.9V | 00:00:00 | 01:22:25 | 00:00:00 | |
| OE5DRO-10 | 2026-08-31 05:14:12 | 47.86692 | 11.37450 | 65° | 75km/h | 7489m | 4.2m/s | -23.7°C | 33.2% | 399.7hPa | 2.9V | 00:00:00 | 00:00:00 | 00:00:00 | |
| DO3MHA-11 | 2026-08-31 05:14:10 | 47.86677 | 11.37400 | 70° | 78km/h | 7481m | 4.5m/s | -23.6°C | 32.9% | 400.1hPa | 2.9V | 00:00:00 | 01:22:15 | 00:00:00 | |
| DF3TZ-5 | 2026-08-31 05:14:05 | 47.86650 | 11.37263 | 65° | 86km/h | 7460m | 4.2m/s | -23.5°C | 33.0% | 401.3hPa | 2.9V | 00:00:00 | 00:00:00 | 00:00:00 | |
| DL6DJ-15 | 2026-08-31 05:14:03 | 47.86629 | 11.37205 | 59° | 84km/h | 7452m | 4.0m/s | -23.4°C | 34.1% | 401.7hPa | 2.9V | 00:00:00 | 00:00:00 | 00:00:00 | |
| NBG1-10 | 2026-08-31 05:14:02 | 47.86619 | 11.37179 | 61° | 78km/h | 7448m | 3.1m/s | -23.4°C | 35.7% | 401.9hPa | 2.9V | 00:00:00 | 01:22:07 | 00:00:00 | |
| DO3MHA-11 | 2026-08-31 05:14:00 | 47.86603 | 11.37129 | 69° | 77km/h | 7441m | 4.5m/s | -23.3°C | 37.1% | 402.3hPa | 2.9V | 00:00:00 | 01:22:05 | 00:00:00 | |
| OE5DXL-15 | 2026-08-31 05:13:55 | 47.86581 | 11.37001 | 76° | 77km/h | 7423m | 3.7m/s | -23.2°C | 39.6% | 403.2hPa | 2.9V | 00:00:00 | 00:00:00 | 00:00:00 | |
| DB0UT-7 | 2026-08-31 05:13:53 | 47.86568 | 11.36947 | 66° | 77km/h | 7415m | 3.8m/s | -23.2°C | 43.6% | 403.6hPa | 2.9V | 00:00:00 | 01:21:58 | 00:00:00 | |
| DO3MHA-11 | 2026-08-31 05:13:50 | 47.86538 | 11.36853 | 66° | 78km/h | 7404m | 3.3m/s | -23.3°C | 47.5% | 404.2hPa | 2.9V | 00:00:00 | 01:21:55 | 00:00:00 | |
| DB0NH | 2026-08-31 05:13:44 | 47.86496 | 11.36688 | 75° | 69km/h | 7380m | 4.3m/s | -23.1°C | 50.4% | 405.5hPa | 2.9V | 00:00:00 | 01:21:49 | 00:00:00 | |
| DO3MHA-11 | 2026-08-31 05:13:40 | 47.86468 | 11.36577 | 63° | 77km/h | 7364m | 2.8m/s | -23.0°C | 51.4% | 406.4hPa | 2.9V | 00:00:00 | 01:21:45 | 00:00:00 | |
| OE5DRO-10 | 2026-08-31 05:13:34 | 47.86418 | 11.36432 | 65° | 73km/h | 7344m | 3.0m/s | -22.9°C | 54.5% | 407.6hPa | 2.9V | 00:00:00 | 00:00:00 | 08:30:00 | |
| DL6DJ-15 | 2026-08-31 05:13:32 | 47.86398 | 11.36378 | 58° | 84km/h | 7337m | 3.6m/s | -23.0°C | 54.9% | 408.0hPa | 2.9V | 00:00:00 | 00:00:00 | 00:00:00 | |
| DO3MHA-11 | 2026-08-31 05:13:30 | 47.86373 | 11.36325 | 52° | 69km/h | 7331m | 2.6m/s | -22.9°C | 58.0% | 408.3hPa | 2.9V | 00:00:00 | 01:21:35 | 00:00:00 | |
| NBG1-10 | 2026-08-31 05:13:29 | 47.86360 | 11.36303 | 50° | 71km/h | 7328m | 4.0m/s | -22.9°C | 57.3% | 408.5hPa | 2.9V | 00:00:00 | 01:21:34 | 00:00:00 | |
| OE5DXL-15 | 2026-08-31 05:13:25 | 47.86329 | 11.36224 | 81° | 71km/h | 7308m | 6.8m/s | -22.7°C | 55.6% | 409.3hPa | 2.9V | 00:00:00 | 00:00:00 | 08:30:00 | |
| DB0UT-7 | 2026-08-31 05:13:23 | 47.86326 | 11.36176 | 85° | 71km/h | 7296m | 4.6m/s | -22.6°C | 55.6% | 410.2hPa | 2.9V | 00:00:00 | 00:00:00 | 08:30:00 | |
| DO3MHA-11 | 2026-08-31 05:13:20 | 47.86309 | 11.36090 | 63° | 73km/h | 7282m | 5.6m/s | -22.5°C | 54.7% | 411.0hPa | 2.9V | 00:00:00 | 01:21:25 | 08:30:00 | |
| OE5DRO-10 | 2026-08-31 05:13:15 | 47.86273 | 11.35975 | 78° | 71km/h | 7253m | 5.6m/s | -22.2°C | 52.5% | 412.6hPa | 2.9V | 00:00:00 | 00:00:00 | 00:00:00 | |
| DO3MHA-11 | 2026-08-31 05:13:10 | 47.86235 | 11.35840 | 55° | 71km/h | 7231m | 4.9m/s | -22.0°C | 51.4% | 413.8hPa | 2.9V | 00:00:00 | 01:21:15 | 00:00:00 | |
| DL6DJ-15 | 2026-08-31 05:13:01 | 47.86170 | 11.35623 | 65° | 68km/h | 7195m | 3.2m/s | -21.7°C | 49.8% | 415.9hPa | 2.9V | 00:00:00 | 00:00:00 | 00:00:00 | |
| DO3MHA-11 | 2026-08-31 05:13:00 | 47.86163 | 11.35599 | 71° | 68km/h | 7191m | 4.5m/s | -21.6°C | 50.4% | 416.1hPa | 2.9V | 00:00:00 | 01:21:05 | 00:00:00 | |
| NBG1-10 | 2026-08-31 05:12:56 | 47.86147 | 11.35505 | 68° | 73km/h | 7177m | 3.9m/s | -21.4°C | 50.3% | 416.9hPa | 2.9V | 00:00:00 | 01:21:01 | 00:00:00 | |
| OE5DXL-15 | 2026-08-31 05:12:55 | 47.86139 | 11.35480 | 62° | 73km/h | 7173m | 4.7m/s | -21.4°C | 49.8% | 417.2hPa | 2.9V | 00:00:00 | 00:00:00 | 00:00:00 | |
| DB0UT-7 | 2026-08-31 05:12:53 | 47.86119 | 11.35432 | 58° | 73km/h | 7165m | 3.7m/s | -21.3°C | 48.9% | 417.6hPa | 2.9V | 00:00:00 | 01:20:58 | 00:00:00 | |
| DO3MHA-11 | 2026-08-31 05:12:50 | 47.86100 | 11.35364 | 80° | 60km/h | 7153m | 3.7m/s | -21.2°C | 48.7% | 418.3hPa | 2.9V | 00:00:00 | 01:20:55 | 00:00:00 | |
| DO3MHA-11 | 2026-08-31 05:12:37 | 47.85999 | 11.35027 | 60° | 69km/h | 7099m | 5.7m/s | -20.7°C | 46.3% | 421.4hPa | 2.9V | 00:00:00 | 01:20:42 | 00:00:00 | |
| DF3TZ-5 | 2026-08-31 05:12:32 | 47.85960 | 11.34901 | 69° | 69km/h | 7073m | 4.8m/s | -20.5°C | -1.0% | 422.9hPa | 2.9V | 00:00:00 | 00:00:00 | 00:00:00 | |
| DL6DJ-15 | 2026-08-31 05:12:30 | 47.85942 | 11.34832 | 71° | 64km/h | 7062m | 2.1m/s | -20.4°C | 44.5% | 423.5hPa | 2.9V | 00:00:00 | 00:00:00 | 00:00:00 | |
| DO3MHA-11 | 2026-08-31 05:12:27 | 47.85934 | 11.34783 | 82° | 69km/h | 7055m | 4.5m/s | -20.3°C | 44.3% | 423.8hPa | 2.9V | 00:00:00 | 01:20:32 | 00:00:00 | |
| OE5DXL-15 | 2026-08-31 05:12:25 | 47.85930 | 11.34728 | 85° | 75km/h | 7048m | 3.2m/s | -20.3°C | 44.1% | 424.2hPa | 2.9V | 00:00:00 | 00:00:00 | 00:00:00 | |
| DB0UT-7 | 2026-08-31 05:12:23 | 47.85925 | 11.34678 | 78° | 75km/h | 7040m | 5.0m/s | -20.2°C | 43.0% | 424.7hPa | 2.9V | 00:00:00 | 00:00:00 | 00:00:00 | |
| NBG1-10 | 2026-08-31 05:12:22 | 47.85921 | 11.34656 | 69° | 73km/h | 7034m | 5.2m/s | -20.2°C | 42.9% | 424.9hPa | 2.9V | 00:00:00 | 01:20:27 | 00:00:00 | |
| OE5DRO-10 | 2026-08-31 05:12:18 | 47.85884 | 11.34568 | 60° | 78km/h | 7017m | 4.5m/s | -20.0°C | 41.6% | 425.9hPa | 2.9V | 00:00:00 | 00:00:00 | 00:00:00 | |
| DO3MHA-11 | 2026-08-31 05:12:17 | 47.85875 | 11.34541 | 64° | 77km/h | 7013m | 4.6m/s | -19.9°C | 41.1% | 426.3hPa | 2.9V | 00:00:00 | 01:20:22 | 00:00:00 | |
| DO3MHA-11 | 2026-08-31 05:12:07 | 47.85832 | 11.34261 | 65° | 80km/h | 6967m | 5.2m/s | -19.7°C | 42.0% | 428.9hPa | 2.9V | 00:00:00 | 01:20:12 | 00:00:00 | |
| DF3TZ-5 | 2026-08-31 05:12:01 | 47.85768 | 11.34067 | 73° | 82km/h | 6937m | 5.3m/s | -19.5°C | -1.0% | 430.7hPa | 2.9V | 00:00:00 | 00:00:00 | 00:00:00 | |
| DL6DJ-15 | 2026-08-31 05:11:59 | 47.85758 | 11.34012 | 74° | 69km/h | 6926m | 5.2m/s | -19.4°C | 39.3% | 431.3hPa | 2.9V | 00:00:00 | 00:00:00 | 00:00:00 | |
| DO3MHA-11 | 2026-08-31 05:11:57 | 47.85753 | 11.33987 | 75° | 68km/h | 6922m | 3.8m/s | -19.3°C | 40.3% | 431.6hPa | 2.9V | 00:00:00 | 01:20:02 | 00:00:00 | |
| OE5DXL-15 | 2026-08-31 05:11:55 | 47.85745 | 11.33938 | 79° | 68km/h | 6915m | 4.6m/s | -19.3°C | 40.2% | 431.9hPa | 2.9V | 00:00:00 | 00:00:00 | 00:00:00 | |
| DB0UT-7 | 2026-08-31 05:11:53 | 47.85740 | 11.33882 | 86° | 66km/h | 6907m | 3.5m/s | -19.3°C | 39.3% | 432.4hPa | 2.9V | 00:00:00 | 01:19:58 | 00:00:00 | |
| OE5DRO-10 | 2026-08-31 05:11:40 | 47.85688 | 11.33537 | 82° | 62km/h | 6850m | 4.8m/s | -19.0°C | 46.9% | 435.7hPa | 2.9V | 00:00:00 | 00:00:00 | 00:00:00 | |
| NBG1-10 | 2026-08-31 05:11:38 | 47.85680 | 11.33492 | 67° | 64km/h | 6841m | 4.5m/s | -19.0°C | 47.5% | 436.2hPa | 2.9V | 00:00:00 | 01:19:43 | 00:00:00 | |
| DO3MHA-11 | 2026-08-31 05:11:37 | 47.85673 | 11.33473 | 64° | 62km/h | 6837m | 3.4m/s | -18.9°C | 47.7% | 436.5hPa | 2.9V | 00:00:00 | 01:19:42 | 00:00:00 | |
| DF3TZ-5 | 2026-08-31 05:11:30 | 47.85635 | 11.33290 | 70° | 53km/h | 6801m | 3.2m/s | -18.7°C | -1.0% | 438.6hPa | 2.9V | 00:00:00 | 00:00:00 | 00:00:00 | |
| DL6DJ-15 | 2026-08-31 05:11:28 | 47.85628 | 11.33251 | 78° | 53km/h | 6795m | 3.5m/s | -18.7°C | 47.4% | 439.0hPa | 2.9V | 00:00:00 | 00:00:00 | 00:00:00 | |
| DO3MHA-11 | 2026-08-31 05:11:25 | 47.85624 | 11.33208 | 84° | 57km/h | 6788m | 3.4m/s | -18.6°C | 48.3% | 439.5hPa | 2.9V | 00:00:00 | 01:19:30 | 00:00:00 | |
| DB0UT-7 | 2026-08-31 05:11:23 | 47.85620 | 11.33161 | 80° | 64km/h | 6778m | 5.6m/s | -18.5°C | 47.5% | 439.9hPa | 2.9V | 00:00:00 | 00:00:00 | 00:00:00 | |
| OE5DRO-10 | 2026-08-31 05:11:21 | 47.85611 | 11.33117 | 67° | 64km/h | 6767m | 5.0m/s | -18.4°C | 48.0% | 440.6hPa | 2.9V | 00:00:00 | 00:00:00 | 00:00:00 | |
| DO3MHA-11 | 2026-08-31 05:11:14 | 47.85584 | 11.32981 | 85° | 62km/h | 6736m | 4.7m/s | -18.2°C | 50.7% | 442.3hPa | 2.9V | 00:00:00 | 01:19:19 | 00:00:00 | |
| DO3MHA-11 | 2026-08-31 05:11:04 | 47.85532 | 11.32744 | 71° | 66km/h | 6694m | 4.7m/s | -17.8°C | 52.4% | 444.7hPa | 2.9V | 00:00:00 | 01:19:09 | 00:00:00 | |
| NBG1-10 | 2026-08-31 05:11:03 | 47.85524 | 11.32717 | 65° | 73km/h | 6689m | 4.8m/s | -17.8°C | 52.7% | 445.2hPa | 2.9V | 00:00:00 | 01:19:08 | 08:30:00 | |
| OE5DRO-10 | 2026-08-31 05:11:02 | 47.85515 | 11.32692 | 62° | 66km/h | 6685m | 3.7m/s | -17.7°C | 54.6% | 445.4hPa | 2.9V | 00:00:00 | 00:00:00 | 00:00:00 | |
| DF3TZ-5 | 2026-08-31 05:10:59 | 47.85493 | 11.32628 | 69° | 49km/h | 6671m | 4.2m/s | -17.8°C | -1.0% | 446.3hPa | 2.9V | 00:00:00 | 00:00:00 | 00:00:00 | |
| DL6DJ-15 | 2026-08-31 05:10:57 | 47.85483 | 11.32569 | 76° | 64km/h | 6659m | 4.0m/s | -17.7°C | 44.6% | 447.0hPa | 2.9V | 00:00:00 | 00:00:00 | 00:00:00 | |
| OE5DXL-15 | 2026-08-31 05:10:55 | 47.85479 | 11.32543 | 76° | 69km/h | 6656m | 3.9m/s | -17.6°C | 39.2% | 447.3hPa | 2.9V | 00:00:00 | 00:00:00 | 00:00:00 | |
| DO3MHA-11 | 2026-08-31 05:10:54 | 47.85473 | 11.32515 | 75° | 71km/h | 6651m | 4.4m/s | -17.6°C | 36.9% | 447.5hPa | 2.9V | 00:00:00 | 01:18:59 | 00:00:00 | |
| DB0UT-7 | 2026-08-31 05:10:53 | 47.85468 | 11.32486 | 74° | 69km/h | 6647m | 4.2m/s | -17.5°C | 35.2% | 447.7hPa | 2.9V | 00:00:00 | 01:18:58 | 00:00:00 | |
| DO3MHA-11 | 2026-08-31 05:10:44 | 47.85396 | 11.32283 | 70° | 73km/h | 6605m | 6.6m/s | -17.2°C | 42.1% | 450.2hPa | 2.9V | 00:00:00 | 01:18:49 | 00:00:00 | |
| OE5DRO-10 | 2026-08-31 05:10:43 | 47.85392 | 11.32260 | 79° | 69km/h | 6599m | 5.9m/s | -17.3°C | 47.2% | 450.6hPa | 2.9V | 00:00:00 | 00:00:00 | 08:30:00 | |
| DO3MHA-11 | 2026-08-31 05:10:34 | 47.85353 | 11.32022 | 66° | 68km/h | 6560m | 5.0m/s | -17.1°C | 60.1% | 453.0hPa | 2.9V | 00:00:00 | 01:18:39 | 00:00:00 | |
| NBG1-10 | 2026-08-31 05:10:30 | 47.85334 | 11.31943 | 74° | 69km/h | 6538m | 4.9m/s | -16.9°C | 59.9% | 454.3hPa | 2.9V | 00:00:00 | 01:18:35 | 00:00:00 | |
| DF3TZ-5 | 2026-08-31 05:10:28 | 47.85296 | 11.31808 | 59° | 73km/h | 6518m | 4.5m/s | -16.8°C | -1.0% | 455.5hPa | 2.9V | 00:00:00 | 00:00:00 | 00:00:00 | |
| DL6DJ-15 | 2026-08-31 05:10:26 | 47.85296 | 11.31808 | 59° | 73km/h | 6518m | 4.5m/s | -16.8°C | 59.4% | 455.5hPa | 2.9V | 00:00:00 | 00:00:00 | 00:00:00 | |
| OE5DXL-15 | 2026-08-31 05:10:25 | 47.85296 | 11.31808 | 60° | 66km/h | 6518m | 4.4m/s | -16.8°C | 60.0% | 455.4hPa | 2.9V | 00:00:00 | 00:00:00 | 00:00:00 | |
| DO3MHA-11 | 2026-08-31 05:10:24 | 47.85287 | 11.31786 | 59° | 62km/h | 6513m | 5.5m/s | -16.7°C | 59.4% | 455.7hPa | 2.9V | 00:00:00 | 01:18:29 | 00:00:00 | |
| DB0UT-7 | 2026-08-31 05:10:23 | 47.85279 | 11.31765 | 60° | 66km/h | 6507m | 6.6m/s | -16.6°C | 58.5% | 456.0hPa | 2.9V | 00:00:00 | 00:00:00 | 00:00:00 | |
| DO3MHA-11 | 2026-08-31 05:10:14 | 47.85246 | 11.31560 | 66° | 60km/h | 6461m | 3.4m/s | -16.3°C | 57.0% | 459.0hPa | 2.9V | 00:00:00 | 01:18:19 | 08:30:00 | |
| OE5DRO-10 | 2026-08-31 05:10:05 | 47.85211 | 11.31366 | 71° | 69km/h | 6422m | 5.1m/s | -15.9°C | 51.1% | 461.3hPa | 2.9V | 00:00:00 | 00:00:00 | 00:00:00 | |
| DO3MHA-11 | 2026-08-31 05:10:04 | 47.85206 | 11.31346 | 66° | 75km/h | 6417m | 5.0m/s | -15.8°C | 43.8% | 461.6hPa | 2.9V | 00:00:00 | 01:18:09 | 00:00:00 | |
| DF3TZ-5 | 2026-08-31 05:09:57 | 47.85163 | 11.31129 | 76° | 80km/h | 6382m | 5.4m/s | -15.7°C | -1.0% | 463.8hPa | 2.9V | 00:00:00 | 00:00:00 | 00:00:00 | |
| DL6DJ-15 | 2026-08-31 05:09:55 | 47.85151 | 11.31075 | 65° | 69km/h | 6370m | 5.6m/s | -15.7°C | 12.9% | 464.4hPa | 2.9V | 00:00:00 | 00:00:00 | 00:00:00 | |
| DO3MHA-11 | 2026-08-31 05:09:54 | 47.85151 | 11.31075 | 66° | 60km/h | 6371m | 5.6m/s | -15.7°C | 13.3% | 464.4hPa | 2.9V | 00:00:00 | 01:17:59 | 00:00:00 | |
| DB0UT-7 | 2026-08-31 05:09:53 | 47.85144 | 11.31052 | 63° | 68km/h | 6365m | 4.6m/s | 0°C | 0% | 0hPa | 2.9V | 00:00:00 | 01:17:58 | 00:00:00 | |
| OE5DRO-10 | 2026-08-31 05:09:46 | 47.85126 | 11.30906 | 83° | 73km/h | 6331m | 5.0m/s | -15.5°C | 14.9% | 467.0hPa | 2.9V | 00:00:00 | 00:00:00 | 00:00:00 | |
| DO3MHA-11 | 2026-08-31 05:09:44 | 47.85117 | 11.30857 | 71° | 73km/h | 6322m | 4.3m/s | -15.5°C | 17.1% | 467.6hPa | 2.9V | 00:00:00 | 01:17:49 | 00:00:00 | |
| DO3MHA-11 | 2026-08-31 05:09:34 | 47.85082 | 11.30593 | 75° | 71km/h | 6274m | 5.3m/s | -15.2°C | 19.8% | 470.4hPa | 2.9V | 00:00:00 | 01:17:39 | 00:00:00 | |
| OE5DRO-10 | 2026-08-31 05:09:27 | 47.85062 | 11.30403 | 82° | 73km/h | 6244m | 3.9m/s | -15.0°C | 18.9% | 472.4hPa | 2.9V | 00:00:00 | 00:00:00 | 00:00:00 | |
| OE5DXL-15 | 2026-08-31 05:09:25 | 47.85060 | 11.30353 | 93° | 68km/h | 6234m | 5.6m/s | -14.9°C | 18.7% | 473.0hPa | 2.9V | 00:00:00 | 00:00:00 | 00:00:00 | |
| DO3MHA-11 | 2026-08-31 05:09:24 | 47.85062 | 11.30330 | 101° | 69km/h | 6230m | 3.6m/s | -14.9°C | 18.6% | 473.4hPa | 2.9V | 00:00:00 | 01:17:29 | 00:00:00 | |
| DB0UT-7 | 2026-08-31 05:09:23 | 47.85065 | 11.30306 | 103° | 68km/h | 6227m | 2.3m/s | 0°C | 0% | 0hPa | 2.9V | 00:00:00 | 00:00:00 | 00:00:00 | |
| DO3MHA-11 | 2026-08-31 05:09:14 | 47.85041 | 11.30077 | 98° | 68km/h | 6181m | 5.0m/s | -14.5°C | 20.3% | 476.4hPa | 2.9V | 00:00:00 | 01:17:19 | 00:00:00 | |
| OE5DRO-10 | 2026-08-31 05:09:06 | 47.85025 | 11.29880 | 78° | 68km/h | 6136m | 5.8m/s | -14.1°C | 19.7% | 479.1hPa | 2.9V | 00:00:00 | 00:00:00 | 00:00:00 | |
| DO3MHA-11 | 2026-08-31 05:09:04 | 47.85022 | 11.29823 | 92° | 66km/h | 6123m | 7.4m/s | -14.0°C | 19.1% | 479.9hPa | 2.9V | 00:00:00 | 01:17:09 | 00:00:00 | |
| DL6DJ-15 | 2026-08-31 05:08:52 | 47.85002 | 11.29533 | 86° | 60km/h | 6057m | 4.6m/s | -13.6°C | 14.2% | 484.2hPa | 2.9V | 00:00:00 | 00:00:00 | 00:00:00 | |
| NBG1-10 | 2026-08-31 05:08:50 | 47.84997 | 11.29484 | 77° | 66km/h | 6048m | 4.2m/s | -13.5°C | 12.7% | 484.8hPa | 2.9V | 00:00:00 | 01:16:55 | 00:00:00 | |
| DO3MHA-11 | 2026-08-31 05:08:44 | 47.84971 | 11.29343 | 77° | 62km/h | 6025m | 3.4m/s | -13.4°C | 9.4% | 486.2hPa | 2.9V | 00:00:00 | 01:16:49 | 08:30:00 | |
| DO3MHA-11 | 2026-08-31 05:08:34 | 47.84954 | 11.29108 | 90° | 66km/h | 5977m | 3.5m/s | -13.1°C | 6.6% | 489.3hPa | 2.9V | 00:00:00 | 01:16:39 | 00:00:00 | |
| OE5DXL-15 | 2026-08-31 05:08:25 | 47.84959 | 11.28888 | 74° | 68km/h | 5933m | 6.4m/s | -12.6°C | 6.3% | 492.2hPa | 2.9V | 00:00:00 | 00:00:00 | 00:00:00 | |
| DF3TZ-5 | 2026-08-31 05:08:24 | 47.84952 | 11.28839 | 83° | 68km/h | 5922m | 4.5m/s | -12.6°C | -1.0% | -1.0hPa | 2.9V | 00:00:00 | 00:00:00 | 00:00:00 | |
| DL6DJ-15 | 2026-08-31 05:08:21 | 47.84952 | 11.28786 | 93° | 73km/h | 5913m | 4.3m/s | -12.6°C | 5.9% | 493.6hPa | 2.9V | 00:00:00 | 00:00:00 | 00:00:00 | |
| NBG1-10 | 2026-08-31 05:08:17 | 47.84956 | 11.28683 | 90° | 71km/h | 5899m | 4.2m/s | -12.4°C | 6.2% | 494.4hPa | 2.9V | 00:00:00 | 01:16:22 | 00:00:00 | |
| DO3MHA-11 | 2026-08-31 05:08:14 | 47.84954 | 11.28623 | 86° | 68km/h | 5888m | 3.8m/s | -12.3°C | 6.0% | 495.1hPa | 2.9V | 00:00:00 | 01:16:19 | 00:00:00 | |
| DB0NH | 2026-08-31 05:08:05 | 47.84936 | 11.28389 | 96° | 69km/h | 5843m | 3.1m/s | -12.0°C | 5.0% | 498.1hPa | 2.9V | 00:00:00 | 01:16:10 | 00:00:00 | |
| DO3MHA-11 | 2026-08-31 05:08:04 | 47.84937 | 11.28368 | 97° | 68km/h | 5840m | 2.7m/s | -12.0°C | 5.0% | 498.2hPa | 2.9V | 00:00:00 | 01:16:09 | 00:00:00 | |
| DF3TZ-5 | 2026-08-31 05:07:53 | 47.84930 | 11.28058 | 90° | 77km/h | 5782m | 3.7m/s | -12.0°C | -1.0% | -1.0hPa | 2.9V | 00:00:00 | 00:00:00 | 00:00:00 | |
| DL6DJ-15 | 2026-08-31 05:07:50 | 47.84930 | 11.27998 | 89° | 80km/h | 5774m | 4.2m/s | -11.9°C | 4.3% | 502.5hPa | 2.9V | 00:00:00 | 00:00:00 | 00:00:00 | |
| OE5DRO-10 | 2026-08-31 05:07:46 | 47.84930 | 11.27879 | 89° | 77km/h | 5758m | 4.1m/s | 0°C | 0% | 0hPa | 2.9V | 00:00:00 | 00:00:00 | 08:30:00 | |
| DO3MHA-11 | 2026-08-31 05:07:44 | 47.84928 | 11.27822 | 88° | 77km/h | 5750m | 4.2m/s | -11.7°C | 4.5% | 504.1hPa | 2.9V | 00:00:00 | 01:15:49 | 00:00:00 | |
| NBG1-10 | 2026-08-31 05:07:43 | 47.84927 | 11.27794 | 89° | 71km/h | 5745m | 4.5m/s | -11.6°C | 4.5% | 504.3hPa | 2.9V | 00:00:00 | 01:15:48 | 00:00:00 | |
| DO3MHA-11 | 2026-08-31 05:07:34 | 47.84921 | 11.27536 | 64° | 71km/h | 5699m | 6.6m/s | -11.2°C | 4.4% | 507.4hPa | 2.9V | 00:00:00 | 01:15:39 | 00:00:00 | |
| OE5DRO-10 | 2026-08-31 05:07:27 | 47.84882 | 11.27347 | 73° | 73km/h | 5656m | 6.5m/s | 0°C | 0% | 0hPa | 2.9V | 00:00:00 | 00:00:00 | 00:00:00 | |
| OE5DXL-15 | 2026-08-31 05:07:25 | 47.84872 | 11.27303 | 76° | 73km/h | 5646m | 3.2m/s | -10.7°C | 4.2% | 511.1hPa | 2.9V | 00:00:00 | 00:00:00 | 00:00:00 | |
| DO3MHA-11 | 2026-08-31 05:07:24 | 47.84869 | 11.27282 | 81° | 71km/h | 5643m | 3.8m/s | -10.7°C | 4.3% | 511.2hPa | 2.9V | 00:00:00 | 01:15:29 | 00:00:00 | |
| DF3TZ-5 | 2026-08-31 05:07:22 | 47.84863 | 11.27207 | 81° | 77km/h | 5631m | 4.8m/s | -10.6°C | -1.0% | -1.0hPa | 2.9V | 00:00:00 | 00:00:00 | 00:00:00 | |
| DL6DJ-15 | 2026-08-31 05:07:19 | 47.84845 | 11.27120 | 64° | 78km/h | 5620m | 2.6m/s | -10.5°C | 4.2% | 512.9hPa | 2.9V | 00:00:00 | 00:00:00 | 00:00:00 | |
| DO3MHA-11 | 2026-08-31 05:07:14 | 47.84821 | 11.27025 | 82° | 71km/h | 5606m | 4.6m/s | -10.4°C | 4.3% | 513.7hPa | 2.9V | 00:00:00 | 01:15:19 | 08:30:00 | |
| OE5DRO-10 | 2026-08-31 05:07:08 | 47.84812 | 11.26863 | 75° | 73km/h | 5582m | 4.1m/s | 0°C | 0% | 0hPa | 2.9V | 00:00:00 | 00:00:00 | 00:00:00 | |
| DO3MHA-11 | 2026-08-31 05:07:04 | 47.84786 | 11.26765 | 69° | 78km/h | 5567m | 3.8m/s | -10.0°C | 4.2% | 516.3hPa | 2.9V | 00:00:00 | 01:15:09 | 00:00:00 | |
| DF3TZ-5 | 2026-08-31 05:06:51 | 47.84738 | 11.26363 | 63° | 68km/h | 5509m | 5.0m/s | -10.1°C | -1.0% | -1.0hPa | 2.9V | 00:00:00 | 00:00:00 | 00:00:00 | |
| DL6DJ-15 | 2026-08-31 05:06:48 | 47.84722 | 11.26314 | 68° | 77km/h | 5501m | 3.8m/s | -10.4°C | 13.6% | 520.7hPa | 2.9V | 00:00:00 | 00:00:00 | 00:00:00 | |
| DO3MHA-11 | 2026-08-31 05:06:44 | 47.84709 | 11.26201 | 89° | 71km/h | 5481m | 6.0m/s | -10.7°C | 34.6% | 521.9hPa | 2.9V | 00:00:00 | 01:14:49 | 00:00:00 | |
| NBG1-10 | 2026-08-31 05:06:37 | 47.84693 | 11.26019 | 83° | 68km/h | 5447m | 4.4m/s | -11.0°C | 55.1% | 524.2hPa | 2.9V | 00:00:00 | 01:14:42 | 00:00:00 | |
| OE5DRO-10 | 2026-08-31 05:06:36 | 47.84690 | 11.25989 | 82° | 75km/h | 5443m | 3.9m/s | 0°C | 0% | 0hPa | 2.9V | 00:00:00 | 00:00:00 | 00:00:00 | |
| DO3MHA-11 | 2026-08-31 05:06:34 | 47.84685 | 11.25939 | 80° | 62km/h | 5434m | 5.0m/s | -11.0°C | 61.2% | 525.1hPa | 2.9V | 00:00:00 | 01:14:39 | 00:00:00 | |
| DB0NH | 2026-08-31 05:06:30 | 47.84667 | 11.25870 | 63° | 71km/h | 5417m | 4.6m/s | -11.3°C | 85.1% | 526.3hPa | 2.9V | 00:00:00 | 01:14:35 | 00:00:00 | |
| OE5DXL-15 | 2026-08-31 05:06:25 | 47.84636 | 11.25744 | 77° | 68km/h | 5388m | 4.4m/s | -11.0°C | 79.6% | 528.2hPa | 2.9V | 00:00:00 | 00:00:00 | 00:00:00 | |
| DO3MHA-11 | 2026-08-31 05:06:24 | 47.84632 | 11.25714 | 81° | 66km/h | 5384m | 3.3m/s | -11.0°C | 79.3% | 528.6hPa | 2.9V | 00:00:00 | 01:14:29 | 00:00:00 | |
| DL6DJ-15 | 2026-08-31 05:06:17 | 47.84611 | 11.25553 | 77° | 68km/h | 5354m | 5.2m/s | -10.8°C | 79.5% | 530.7hPa | 2.9V | 00:00:00 | 00:00:00 | 00:00:00 | |
| DO3MHA-11 | 2026-08-31 05:06:14 | 47.84600 | 11.25470 | 80° | 62km/h | 5342m | 3.5m/s | -10.6°C | 80.9% | 531.5hPa | 2.9V | 00:00:00 | 01:14:19 | 00:00:00 | |
| OE5DRO-10 | 2026-08-31 05:06:10 | 47.84589 | 11.25362 | 80° | 69km/h | 5324m | 4.6m/s | 0°C | 0% | 0hPa | 2.9V | 00:00:00 | 00:00:00 | 00:00:00 | |
| DO3MHA-11 | 2026-08-31 05:06:04 | 47.84566 | 11.25245 | 82° | 75km/h | 5296m | 4.8m/s | -10.3°C | 88.0% | 534.7hPa | 2.9V | 00:00:00 | 01:14:09 | 00:00:00 | |
| DL6DJ-15 | 2026-08-31 05:05:46 | 47.84439 | 11.24814 | 55° | 73km/h | 5218m | 4.8m/s | -9.6°C | 82.8% | 540.0hPa | 2.9V | 00:00:00 | 00:00:00 | 00:00:00 | |
| DO3MHA-11 | 2026-08-31 05:05:44 | 47.84419 | 11.24762 | 65° | 73km/h | 5208m | 4.3m/s | -9.5°C | 83.6% | 540.8hPa | 2.9V | 00:00:00 | 01:13:49 | 08:30:00 | |
| DO3MHA-11 | 2026-08-31 05:05:34 | 47.84366 | 11.24501 | 75° | 62km/h | 5167m | 3.9m/s | -9.1°C | 91.0% | 543.8hPa | 2.9V | 00:00:00 | 01:13:39 | 00:00:00 | |
| OE5DRO-10 | 2026-08-31 05:05:31 | 47.84357 | 11.24422 | 86° | 62km/h | 5155m | 4.5m/s | 0°C | 0% | 0hPa | 2.9V | 00:00:00 | 00:00:00 | 00:00:00 | |
| DB0NH | 2026-08-31 05:05:30 | 47.84356 | 11.24400 | 85° | 64km/h | 5151m | 4.3m/s | -8.9°C | 89.2% | 545.0hPa | 2.9V | 00:00:00 | 01:13:35 | 00:00:00 | |
| OE5DXL-15 | 2026-08-31 05:05:25 | 47.84327 | 11.24305 | 55° | 66km/h | 5126m | 4.7m/s | -8.7°C | 88.5% | 546.6hPa | 2.9V | 00:00:00 | 00:00:00 | 00:00:00 | |
| DO3MHA-11 | 2026-08-31 05:05:24 | 47.84318 | 11.24286 | 55° | 62km/h | 5122m | 3.9m/s | -8.7°C | 87.5% | 546.9hPa | 2.9V | 00:00:00 | 01:13:29 | 00:00:00 | |
| DL6DJ-15 | 2026-08-31 05:05:15 | 47.84235 | 11.24118 | 56° | 64km/h | 5091m | 4.5m/s | -8.4°C | 87.6% | 549.0hPa | 2.9V | 00:00:00 | 00:00:00 | 00:00:00 | |
| DO3MHA-11 | 2026-08-31 05:05:14 | 47.84226 | 11.24098 | 56° | 64km/h | 5087m | 4.4m/s | -8.3°C | 84.8% | 549.4hPa | 2.9V | 00:00:00 | 01:13:19 | 00:00:00 | |
| DO3MHA-11 | 2026-08-31 05:05:04 | 47.84138 | 11.23898 | 59° | 75km/h | 5048m | 3.5m/s | -7.9°C | 77.4% | 552.1hPa | 2.9V | 00:00:00 | 01:13:09 | 00:00:00 | |
| DB0NH | 2026-08-31 05:05:00 | 47.84097 | 11.23809 | 58° | 73km/h | 5033m | 3.0m/s | -7.8°C | 86.9% | 553.2hPa | 2.9V | 00:00:00 | 01:13:05 | 08:30:00 | |
| NBG1-10 | 2026-08-31 05:04:58 | 47.84078 | 11.23762 | 61° | 71km/h | 5026m | 4.0m/s | 0°C | 0% | 0hPa | 2.9V | 00:00:00 | 01:13:03 | 00:00:00 | |
| OE5DXL-15 | 2026-08-31 05:04:55 | 47.84047 | 11.23684 | 59° | 71km/h | 5013m | 4.6m/s | -7.6°C | 86.6% | 554.5hPa | 2.9V | 00:00:00 | 00:00:00 | 00:00:00 | |
| DO3MHA-11 | 2026-08-31 05:04:54 | 47.84036 | 11.23658 | 59° | 75km/h | 5008m | 3.4m/s | -7.6°C | 86.4% | 554.8hPa | 2.9V | 00:00:00 | 01:12:59 | 00:00:00 | |
| DO3MHA-11 | 2026-08-31 05:04:44 | 47.83978 | 11.23398 | 68° | 69km/h | 4966m | 4.8m/s | -7.1°C | 83.2% | 557.8hPa | 2.9V | 00:00:00 | 01:12:49 | 00:00:00 | |
| OE5DRO-10 | 2026-08-31 05:04:38 | 47.83924 | 11.23262 | 65° | 68km/h | 4940m | 3.8m/s | 0°C | 0% | 0hPa | 2.9V | 00:00:00 | 00:00:00 | 00:00:00 | |
| DO3MHA-11 | 2026-08-31 05:04:34 | 47.83884 | 11.23173 | 47° | 64km/h | 4919m | 4.3m/s | -6.7°C | 79.9% | 561.2hPa | 2.9V | 00:00:00 | 01:12:39 | 00:00:00 | |
| DB0NH | 2026-08-31 05:04:30 | 47.83842 | 11.23089 | 69° | 62km/h | 4908m | 4.8m/s | -6.6°C | 79.7% | 562.1hPa | 2.9V | 00:00:00 | 01:12:35 | 00:00:00 | |
| NBG1-10 | 2026-08-31 05:04:25 | 47.83819 | 11.22985 | 57° | 64km/h | 4880m | 4.2m/s | 0°C | 0% | 0hPa | 2.9V | 00:00:00 | 01:12:30 | 00:00:00 | |
| DO3MHA-11 | 2026-08-31 05:04:24 | 47.83812 | 11.22970 | 48° | 71km/h | 4876m | 3.6m/s | -6.3°C | 77.3% | 564.3hPa | 2.9V | 00:00:00 | 01:12:29 | 00:00:00 | |
| OE5DRO-10 | 2026-08-31 05:04:17 | 47.83749 | 11.22802 | 76° | 64km/h | 4849m | 2.7m/s | 0°C | 0% | 0hPa | 2.9V | 00:00:00 | 00:00:00 | 00:00:00 | |
| DO3MHA-11 | 2026-08-31 05:04:14 | 47.83732 | 11.22732 | 61° | 58km/h | 4835m | 5.8m/s | -5.9°C | 76.5% | 567.3hPa | 2.9V | 00:00:00 | 01:12:19 | 08:30:00 | |
| DO3MHA-11 | 2026-08-31 05:04:04 | 47.83684 | 11.22523 | 70° | 58km/h | 4790m | 5.7m/s | -5.5°C | 78.4% | 570.5hPa | 2.9V | 00:00:00 | 01:12:09 | 00:00:00 | |
| DB0NH | 2026-08-31 05:04:00 | 47.83666 | 11.22445 | 72° | 60km/h | 4774m | 3.3m/s | -5.3°C | 80.0% | 571.8hPa | 2.9V | 00:00:00 | 01:12:05 | 00:00:00 | |
| OE5DXL-15 | 2026-08-31 05:03:55 | 47.83644 | 11.22337 | 73° | 60km/h | 4756m | 3.4m/s | -5.2°C | 79.2% | 573.1hPa | 2.9V | 00:00:00 | 00:00:00 | 00:00:00 | |
| DO3MHA-11 | 2026-08-31 05:03:54 | 47.83640 | 11.22316 | 71° | 58km/h | 4753m | 3.4m/s | -5.1°C | 79.2% | 573.3hPa | 2.9V | 00:00:00 | 01:11:59 | 00:00:00 | |
| NBG1-10 | 2026-08-31 05:03:52 | 47.83630 | 11.22277 | 70° | 64km/h | 4745m | 3.6m/s | 0°C | 0% | 0hPa | 2.9V | 00:00:00 | 01:11:57 | 00:00:00 | |
| DO3MHA-11 | 2026-08-31 05:03:44 | 47.83591 | 11.22105 | 72° | 55km/h | 4716m | 4.1m/s | -4.9°C | 82.2% | 576.0hPa | 2.9V | 00:00:00 | 01:11:49 | 00:00:00 | |
| DL6DJ-15 | 2026-08-31 05:03:42 | 47.83543 | 11.21912 | 66° | 69km/h | 4674m | 5.5m/s | -4.6°C | -1.0% | 579.1hPa | 2.9V | 00:00:00 | 00:00:00 | 00:00:00 | |
| DO3MHA-11 | 2026-08-31 05:03:34 | 47.83543 | 11.21912 | 67° | 68km/h | 4674m | 5.4m/s | -4.6°C | 81.6% | 579.0hPa | 2.9V | 00:00:00 | 01:11:39 | 00:00:00 | |
| DB0NH | 2026-08-31 05:03:30 | 47.83513 | 11.21811 | 69° | 55km/h | 4657m | 3.7m/s | -4.4°C | 81.7% | 580.3hPa | 2.9V | 00:00:00 | 01:11:35 | 00:00:00 | |
| OE5DXL-15 | 2026-08-31 05:03:25 | 47.83484 | 11.21698 | 68° | 51km/h | 4639m | 3.4m/s | -4.3°C | 83.4% | 581.6hPa | 2.9V | 00:00:00 | 00:00:00 | 00:00:00 | |
| DO3MHA-11 | 2026-08-31 05:03:24 | 47.83478 | 11.21675 | 68° | 60km/h | 4636m | 3.7m/s | -4.3°C | 83.3% | 581.9hPa | 2.9V | 00:00:00 | 01:11:29 | 00:00:00 | |
| NBG1-10 | 2026-08-31 05:03:17 | 47.83442 | 11.21519 | 53° | 49km/h | 4605m | 5.8m/s | 0°C | 0% | 0hPa | 2.9V | 00:00:00 | 01:11:22 | 00:00:00 | |
| DO3MHA-11 | 2026-08-31 05:03:14 | 47.83414 | 11.21481 | 38° | 46km/h | 4588m | 4.6m/s | -4.3°C | 86.4% | 585.5hPa | 2.9V | 00:00:00 | 01:11:19 | 00:00:00 | |
| DL6DJ-15 | 2026-08-31 05:03:11 | 47.83382 | 11.21432 | 56° | 42km/h | 4572m | 4.7m/s | 0°C | -1.0% | 586.7hPa | 2.9V | 00:00:00 | 00:00:00 | 00:00:00 | |
| DB0NH | 2026-08-31 05:03:00 | 47.83297 | 11.21308 | 47° | 53km/h | 4533m | 3.7m/s | -4.1°C | 87.0% | 589.8hPa | 2.9V | 00:00:00 | 01:11:05 | 00:00:00 | |
| OE5DXL-15 | 2026-08-31 05:02:55 | 47.83253 | 11.21251 | 32° | 55km/h | 4513m | 2.8m/s | -4.1°C | 88.8% | 591.1hPa | 2.9V | 00:00:00 | 00:00:00 | 00:00:00 | |
| DO3MHA-11 | 2026-08-31 05:02:54 | 47.83243 | 11.21243 | 28° | 51km/h | 4510m | 3.1m/s | -4.1°C | 88.6% | 591.3hPa | 2.9V | 00:00:00 | 01:10:59 | 00:00:00 | |
| DO3MHA-11 | 2026-08-31 05:02:44 | 47.83169 | 11.21089 | 55° | 51km/h | 4462m | 5.0m/s | -3.7°C | 87.0% | 594.7hPa | 2.9V | 00:00:00 | 01:10:49 | 08:30:00 | |
| NBG1-10 | 2026-08-31 05:02:37 | 47.83125 | 11.20982 | 60° | 68km/h | 4431m | 6.1m/s | 0°C | 0% | 0hPa | 2.9V | 00:00:00 | 01:10:42 | 00:00:00 | |
| DO3MHA-11 | 2026-08-31 05:02:34 | 47.83097 | 11.20922 | 49° | 60km/h | 4414m | 4.3m/s | -3.3°C | 85.7% | 598.4hPa | 2.9V | 00:00:00 | 01:10:39 | 00:00:00 | |
| DB0NH | 2026-08-31 05:02:30 | 47.83044 | 11.20853 | 34° | 58km/h | 4399m | 3.9m/s | 0°C | 0% | 0hPa | 2.9V | 00:00:00 | 01:10:35 | 00:00:00 | |
| OE5DXL-15 | 2026-08-31 05:02:25 | 47.82989 | 11.20795 | 52° | 60km/h | 4378m | 5.7m/s | -3.1°C | 85.3% | 601.2hPa | 2.9V | 00:00:00 | 00:00:00 | 00:00:00 | |
| DO3MHA-11 | 2026-08-31 05:02:24 | 47.82981 | 11.20779 | 55° | 62km/h | 4372m | 7.0m/s | -3.1°C | 85.5% | 601.7hPa | 2.9V | 00:00:00 | 01:10:29 | 00:00:00 | |
| DO3MHA-11 | 2026-08-31 05:02:14 | 47.82869 | 11.20609 | 39° | 57km/h | 4330m | 3.3m/s | -3.2°C | 90.5% | 604.9hPa | 2.9V | 00:00:00 | 01:10:19 | 00:00:00 | |
| DL6DJ-15 | 2026-08-31 05:02:08 | 47.82794 | 11.20520 | 51° | 53km/h | 4307m | 4.8m/s | 0°C | -1.0% | -1.0hPa | 2.9V | 00:00:00 | 00:00:00 | 00:00:00 | |
| DO3MHA-11 | 2026-08-31 05:02:04 | 47.82768 | 11.20467 | 41° | 58km/h | 4290m | 3.7m/s | -3.1°C | 90.2% | 607.9hPa | 2.9V | 00:00:00 | 01:10:09 | 00:00:00 | |
| DB0NH | 2026-08-31 05:02:00 | 47.82718 | 11.20397 | 54° | 62km/h | 4272m | 3.6m/s | 0°C | 0% | 0hPa | 2.9V | 00:00:00 | 01:10:05 | 00:00:00 | |
| OE5DXL-15 | 2026-08-31 05:01:55 | 47.82690 | 11.20303 | 68° | 62km/h | 4256m | 2.0m/s | -2.7°C | 87.7% | 610.7hPa | 2.9V | 00:00:00 | 00:00:00 | 00:00:00 | |
| DO3MHA-11 | 2026-08-31 05:01:54 | 47.82686 | 11.20289 | 66° | 64km/h | 4252m | 4.6m/s | -2.6°C | 87.0% | 610.6hPa | 2.9V | 00:00:00 | 01:09:59 | 00:00:00 | |
| DO3MHA-11 | 2026-08-31 05:01:44 | 47.82593 | 11.20093 | 41° | 60km/h | 4202m | 6.2m/s | -2.2°C | 84.7% | 614.5hPa | 2.9V | 00:00:00 | 01:09:49 | 00:00:00 | |
| DO3MHA-11 | 2026-08-31 05:01:34 | 47.82518 | 11.19899 | 53° | 62km/h | 4156m | 4.5m/s | -2.0°C | 84.1% | 618.3hPa | 2.9V | 00:00:00 | 01:09:39 | 00:00:00 | |
| DB0NH | 2026-08-31 05:01:30 | 47.82492 | 11.19817 | 74° | 68km/h | 4130m | 5.7m/s | 0°C | 0% | 0hPa | 2.9V | 00:00:00 | 01:09:35 | 00:00:00 | |
| NBG1-10 | 2026-08-31 05:01:26 | 47.82473 | 11.19722 | 71° | 78km/h | 4112m | 4.9m/s | 0°C | 0% | 0hPa | 2.9V | 00:00:00 | 01:09:31 | 00:00:00 | |
| OE5DXL-15 | 2026-08-31 05:01:25 | 47.82468 | 11.19701 | 67° | 71km/h | 4107m | 4.8m/s | -1.8°C | 82.6% | 622.0hPa | 2.9V | 00:00:00 | 00:00:00 | 00:00:00 | |
| DO3MHA-11 | 2026-08-31 05:01:24 | 47.82461 | 11.19682 | 62° | 60km/h | 4103m | 4.0m/s | -1.8°C | 82.8% | 622.5hPa | 2.9V | 00:00:00 | 01:09:29 | 00:00:00 | |
| DO3MHA-11 | 2026-08-31 05:01:14 | 47.82393 | 11.19476 | 73° | 77km/h | 4065m | 4.2m/s | -1.4°C | 81.2% | 625.3hPa | 2.9V | 00:00:00 | 01:09:19 | 08:30:00 | |
| DO3MHA-11 | 2026-08-31 05:01:04 | 47.82302 | 11.19225 | 72° | 77km/h | 4022m | 5.3m/s | -1.0°C | 78.7% | 628.8hPa | 2.9V | 00:00:00 | 01:09:09 | 00:00:00 | |
| DB0NH | 2026-08-31 05:01:00 | 47.82277 | 11.19110 | 73° | 73km/h | 4007m | 3.0m/s | 0°C | 0% | 0hPa | 2.9V | 00:00:00 | 01:09:05 | 00:00:00 | |
| OE5DXL-15 | 2026-08-31 05:00:55 | 47.82248 | 11.18980 | 68° | 71km/h | 3992m | 2.5m/s | -0.8°C | 78.6% | 631.3hPa | 2.9V | 00:00:00 | 00:00:00 | 00:00:00 | |
| DO3MHA-11 | 2026-08-31 05:00:54 | 47.82243 | 11.18959 | 68° | 73km/h | 3989m | 3.1m/s | -0.8°C | 78.3% | 631.3hPa | 2.9V | 00:00:00 | 01:08:59 | 00:00:00 | |
| NBG1-10 | 2026-08-31 05:00:46 | 47.82197 | 11.18758 | 58° | 78km/h | 3965m | 2.9m/s | 0°C | 0% | 0hPa | 2.9V | 00:00:00 | 01:08:51 | 00:00:00 | |
| DO3MHA-11 | 2026-08-31 05:00:44 | 47.82173 | 11.18708 | 55° | 71km/h | 3958m | 3.8m/s | -0.5°C | 76.8% | 633.7hPa | 2.9V | 00:00:00 | 01:08:49 | 00:00:00 | |
| DO3MHA-11 | 2026-08-31 05:00:34 | 47.82117 | 11.18451 | 76° | 68km/h | 3911m | 3.4m/s | -0.0°C | 75.0% | 637.6hPa | 2.9V | 00:00:00 | 01:08:39 | 00:00:00 | |
| DB0NH | 2026-08-31 05:00:30 | 47.82100 | 11.18345 | 76° | 64km/h | 3892m | 4.4m/s | 0°C | 0% | 0hPa | 2.9V | 00:00:00 | 01:08:35 | 00:00:00 | |
| OE5DXL-15 | 2026-08-31 05:00:25 | 47.82069 | 11.18234 | 68° | 75km/h | 3868m | 5.1m/s | 0.0°C | 74.9% | 640.9hPa | 2.9V | 00:00:00 | 00:00:00 | 00:00:00 | |
| DO3MHA-11 | 2026-08-31 05:00:24 | 47.82062 | 11.18210 | 70° | 77km/h | 3862m | 5.8m/s | 0.0°C | 74.6% | 641.3hPa | 2.9V | 00:00:00 | 01:08:29 | 00:00:00 | |
| DO3MHA-11 | 2026-08-31 05:00:13 | 47.82010 | 11.17908 | 68° | 75km/h | 3809m | 7.2m/s | 0.2°C | 75.0% | 645.6hPa | 2.9V | 00:00:00 | 01:08:18 | 00:00:00 | |
| DO3MHA-11 | 2026-08-31 04:59:59 | 47.81872 | 11.17353 | 77° | 88km/h | 3713m | 5.0m/s | 0.2°C | 61.0% | 653.4hPa | 2.9V | 00:00:00 | 01:07:58 | 00:00:00 | |
| DO3MHA-11 | 2026-08-31 04:59:43 | 47.81821 | 11.17039 | 89° | 91km/h | 3655m | 6.0m/s | 0.6°C | 53.2% | 658.0hPa | 2.9V | 00:00:00 | 01:07:48 | 08:30:00 | |
| DO3MHA-11 | 2026-08-31 04:59:33 | 47.81784 | 11.16699 | 74° | 88km/h | 3598m | 4.8m/s | 0.9°C | 55.2% | 662.8hPa | 2.9V | 00:00:00 | 01:07:38 | 00:00:00 | |
| OE5DXL-15 | 2026-08-31 04:59:25 | 47.81739 | 11.16443 | 77° | 89km/h | 3558m | 5.3m/s | 1.3°C | 55.9% | 666.3hPa | 2.9V | 00:00:00 | 00:00:00 | 00:00:00 | |
| DO3MHA-11 | 2026-08-31 04:59:23 | 47.81727 | 11.16382 | 74° | 93km/h | 3548m | 4.3m/s | 1.3°C | 56.6% | 666.9hPa | 2.9V | 00:00:00 | 01:07:28 | 00:00:00 | |
| DO3MHA-11 | 2026-08-31 04:59:13 | 47.81674 | 11.16043 | 84° | 88km/h | 3498m | 3.9m/s | 1.6°C | 58.4% | 671.3hPa | 2.9V | 00:00:00 | 01:07:18 | 00:00:00 | |
| OE5DXL-15 | 2026-08-31 04:58:55 | 47.81640 | 11.15442 | 79° | 91km/h | 3411m | 4.4m/s | 2.3°C | 59.7% | 678.5hPa | 2.9V | 00:00:00 | 00:00:00 | 00:00:00 | |
| DO3MHA-11 | 2026-08-31 04:58:53 | 47.81632 | 11.15378 | 81° | 88km/h | 3402m | 4.1m/s | 2.3°C | 59.8% | 679.2hPa | 2.9V | 00:00:00 | 01:06:58 | 00:00:00 | |
| DO3MHA-11 | 2026-08-31 04:58:33 | 47.81560 | 11.14716 | 76° | 95km/h | 3308m | 4.5m/s | 2.9°C | 63.8% | 687.1hPa | 2.9V | 00:00:00 | 01:06:38 | 00:00:00 | |
| OE5DXL-15 | 2026-08-31 04:58:25 | 47.81514 | 11.14435 | 77° | 89km/h | 3267m | 5.1m/s | 3.2°C | 65.1% | 690.5hPa | 2.9V | 00:00:00 | 00:00:00 | 00:00:00 | |
| DO3MHA-11 | 2026-08-31 04:58:23 | 47.81505 | 11.14369 | 79° | 89km/h | 3259m | 4.1m/s | 3.2°C | 65.5% | 691.3hPa | 2.9V | 00:00:00 | 01:06:28 | 00:00:00 | |
| DO3MHA-11 | 2026-08-31 04:58:13 | 47.81457 | 11.14043 | 75° | 88km/h | 3212m | 4.7m/s | 3.4°C | 57.6% | 695.2hPa | 2.9V | 00:00:00 | 01:06:18 | 08:30:00 | |
| DO3MHA-11 | 2026-08-31 04:58:03 | 47.81445 | 11.13720 | 93° | 93km/h | 3161m | 4.8m/s | 3.4°C | 66.3% | 699.6hPa | 2.9V | 00:00:00 | 01:06:08 | 00:00:00 | |
| OE5DXL-15 | 2026-08-31 04:57:55 | 47.81417 | 11.13444 | 79° | 88km/h | 3116m | 4.9m/s | 3.6°C | 69.2% | 703.6hPa | 2.9V | 00:00:00 | 00:00:00 | 00:00:00 | |
| DO3MHA-11 | 2026-08-31 04:57:53 | 47.81407 | 11.13373 | 78° | 93km/h | 3106m | 4.1m/s | 3.6°C | 73.7% | 704.4hPa | 2.9V | 00:00:00 | 01:05:58 | 00:00:00 | |
| DO3MHA-11 | 2026-08-31 04:57:43 | 47.81353 | 11.13033 | 75° | 86km/h | 3063m | 4.2m/s | 3.8°C | 77.7% | 708.2hPa | 2.9V | 00:00:00 | 01:05:48 | 00:00:00 | |
| DO3MHA-11 | 2026-08-31 04:57:33 | 47.81300 | 11.12719 | 78° | 80km/h | 3020m | 4.1m/s | 4.1°C | 75.9% | 712.0hPa | 2.9V | 00:00:00 | 01:05:38 | 00:00:00 | |
| OE5DXL-15 | 2026-08-31 04:57:25 | 47.81263 | 11.12481 | 81° | 80km/h | 2985m | 4.2m/s | 4.3°C | 72.7% | 715.0hPa | 2.9V | 00:00:00 | 00:00:00 | 00:00:00 | |
| DO3MHA-11 | 2026-08-31 04:57:23 | 47.81257 | 11.12422 | 80° | 80km/h | 2975m | 5.6m/s | 4.4°C | 70.2% | 715.8hPa | 2.9V | 00:00:00 | 01:05:28 | 00:00:00 | |
| DO3MHA-11 | 2026-08-31 04:57:13 | 47.81223 | 11.12123 | 83° | 80km/h | 2929m | 4.3m/s | 4.9°C | 62.1% | 720.1hPa | 2.9V | 00:00:00 | 01:05:18 | 00:00:00 | |
| DO3MHA-11 | 2026-08-31 04:57:03 | 47.81212 | 11.11819 | 91° | 82km/h | 2884m | 4.1m/s | 5.4°C | 42.1% | 724.0hPa | 2.9V | 00:00:00 | 01:05:08 | 00:00:00 | |
| OE5DXL-15 | 2026-08-31 04:56:55 | 47.81215 | 11.11573 | 88° | 75km/h | 2849m | 4.9m/s | 0°C | 0% | 0hPa | 2.9V | 00:00:00 | 00:00:00 | 00:00:00 | |
| DO3MHA-11 | 2026-08-31 04:56:53 | 47.81212 | 11.11514 | 86° | 77km/h | 2840m | 4.3m/s | 5.7°C | 33.2% | 727.8hPa | 2.9V | 00:00:00 | 01:04:58 | 00:00:00 | |
| DO3MHA-11 | 2026-08-31 04:56:43 | 47.81203 | 11.11225 | 86° | 75km/h | 2797m | 4.1m/s | 5.8°C | 43.4% | 731.6hPa | 2.9V | 00:00:00 | 01:04:48 | 08:30:00 | |
| DO3MHA-11 | 2026-08-31 04:56:33 | 47.81183 | 11.10947 | 82° | 75km/h | 2753m | 4.0m/s | 5.7°C | 61.6% | 735.7hPa | 2.9V | 00:00:00 | 01:04:38 | 00:00:00 | |
| OE5DXL-15 | 2026-08-31 04:56:25 | 47.81151 | 11.10730 | 80° | 73km/h | 2718m | 4.1m/s | 0°C | 0% | 0hPa | 2.9V | 00:00:00 | 00:00:00 | 00:00:00 | |
| DO3MHA-11 | 2026-08-31 04:56:23 | 47.81145 | 11.10675 | 83° | 73km/h | 2710m | 4.0m/s | 5.7°C | 79.2% | 739.4hPa | 2.9V | 00:00:00 | 01:04:28 | 00:00:00 | |
| DO3MHA-11 | 2026-08-31 04:56:13 | 47.81112 | 11.10408 | 86° | 73km/h | 2666m | 4.4m/s | 5.8°C | 87.1% | 743.4hPa | 2.9V | 00:00:00 | 01:04:18 | 00:00:00 | |
| DO3MHA-11 | 2026-08-31 04:56:03 | 47.81073 | 11.10145 | 72° | 78km/h | 2618m | 5.9m/s | 6.1°C | 75.6% | 747.7hPa | 2.9V | 00:00:00 | 01:04:08 | 00:00:00 | |
| OE5DXL-15 | 2026-08-31 04:55:55 | 47.81039 | 11.09915 | 86° | 88km/h | 2563m | 7.6m/s | 0°C | 0% | 0hPa | 2.9V | 00:00:00 | 01:04:00 | 00:00:00 | |
| DO3MHA-11 | 2026-08-31 04:55:53 | 47.81036 | 11.09850 | 87° | 88km/h | 2551m | 4.6m/s | 6.3°C | 86.1% | 753.8hPa | 2.9V | 00:00:00 | 01:03:58 | 00:00:00 | |
| DO3MHA-11 | 2026-08-31 04:55:33 | 47.80995 | 11.09195 | 85° | 88km/h | 2456m | 4.4m/s | 7.2°C | 77.9% | 762.6hPa | 2.9V | 00:00:00 | 01:03:38 | 00:00:00 | |
| OE5DXL-15 | 2026-08-31 04:55:25 | 47.80974 | 11.08933 | 84° | 84km/h | 2420m | 4.6m/s | 0°C | 0% | 0hPa | 2.9V | 00:00:00 | 00:00:00 | 00:00:00 | |
| DO3MHA-11 | 2026-08-31 04:55:23 | 47.80970 | 11.08869 | 86° | 82km/h | 2410m | 4.2m/s | 7.5°C | 79.3% | 766.9hPa | 2.9V | 00:00:00 | 01:03:28 | 00:00:00 | |
| DO3MHA-11 | 2026-08-31 04:55:13 | 47.80953 | 11.08562 | 85° | 78km/h | 2366m | 4.5m/s | 7.8°C | 81.7% | 771.0hPa | 2.9V | 00:00:00 | 01:03:18 | 08:30:00 | |
| DO3MHA-11 | 2026-08-31 04:55:04 | 47.80936 | 11.08270 | 86° | 73km/h | 2319m | 4.5m/s | 8.2°C | 82.4% | 775.4hPa | 2.9V | 00:00:00 | 01:03:08 | 00:00:00 | |
| DO3MHA-11 | 2026-08-31 04:54:53 | 47.80914 | 11.07996 | 82° | 68km/h | 2276m | 4.5m/s | 8.4°C | 82.9% | 779.5hPa | 2.9V | 00:00:00 | 01:02:58 | 00:00:00 | |
| DO3MHA-11 | 2026-08-31 04:54:43 | 47.80893 | 11.07742 | 84° | 75km/h | 2232m | 3.8m/s | 8.7°C | 79.3% | 783.5hPa | 2.9V | 00:00:00 | 01:02:48 | 00:00:00 | |
| DO3MHA-11 | 2026-08-31 04:54:33 | 47.80881 | 11.07455 | 80° | 78km/h | 2185m | 6.5m/s | 9.0°C | 81.4% | 787.9hPa | 2.9V | 00:00:00 | 01:02:38 | 00:00:00 | |
| DO3MHA-11 | 2026-08-31 04:54:23 | 47.80820 | 11.07175 | 72° | 73km/h | 2131m | 4.4m/s | 9.2°C | 80.2% | 793.1hPa | 2.9V | 00:00:00 | 01:02:28 | 00:00:00 | |
| DO3MHA-11 | 2026-08-31 04:54:13 | 47.80787 | 11.06907 | 80° | 82km/h | 2073m | 6.2m/s | 9.6°C | 77.6% | 798.6hPa | 2.9V | 00:00:00 | 01:02:18 | 00:00:00 | |
| DO3MHA-11 | 2026-08-31 04:54:03 | 47.80753 | 11.06602 | 80° | 75km/h | 2026m | 4.5m/s | 9.9°C | 77.6% | 803.1hPa | 2.9V | 00:00:00 | 01:02:08 | 00:00:00 | |
| DO3MHA-11 | 2026-08-31 04:53:53 | 47.80709 | 11.06334 | 75° | 66km/h | 1981m | 4.8m/s | 10.1°C | 73.6% | 807.4hPa | 2.9V | 00:00:00 | 01:01:58 | 00:00:00 | |
| DO3MHA-11 | 2026-08-31 04:53:43 | 47.80664 | 11.06096 | 76° | 57km/h | 1942m | 3.7m/s | 10.4°C | 79.4% | 811.5hPa | 2.9V | 00:00:00 | 01:01:48 | 08:30:00 | |
| DO3MHA-11 | 2026-08-31 04:53:33 | 47.80631 | 11.05885 | 70° | 75km/h | 1899m | 4.0m/s | 10.6°C | 83.6% | 815.6hPa | 2.9V | 00:00:00 | 01:01:38 | 00:00:00 | |
| DO3MHA-11 | 2026-08-31 04:53:23 | 47.80593 | 11.05605 | 85° | 77km/h | 1853m | 6.1m/s | 10.9°C | 81.9% | 820.1hPa | 2.9V | 00:00:00 | 01:01:28 | 00:00:00 | |
| DO3MHA-11 | 2026-08-31 04:53:13 | 47.80566 | 11.05323 | 79° | 75km/h | 1813m | 3.9m/s | 11.1°C | 84.1% | 824.0hPa | 2.9V | 00:00:00 | 01:01:18 | 00:00:00 | |
| DO3MHA-11 | 2026-08-31 04:53:03 | 47.80531 | 11.05049 | 80° | 71km/h | 1775m | 3.6m/s | 0°C | 0% | 0hPa | 0V | 00:00:00 | 01:01:08 | 00:00:00 | |
| DO3MHA-11 | 2026-08-31 04:52:53 | 47.80495 | 11.04784 | 78° | 73km/h | 1741m | 3.3m/s | 0°C | 0% | 0hPa | 0V | 00:00:00 | 01:00:58 | 00:00:00 | |
| DO3MHA-11 | 2026-08-31 04:52:43 | 47.80463 | 11.04514 | 81° | 73km/h | 1707m | 3.1m/s | 0°C | 0% | 0hPa | 0V | 00:00:00 | 01:00:48 | 00:00:00 | |
| DO3MHA-11 | 2026-08-31 04:52:33 | 47.80432 | 11.04242 | 79° | 73km/h | 1673m | 3.3m/s | 0°C | 0% | 0hPa | 0V | 00:00:00 | 01:00:38 | 00:00:00 | |
| DO3MHA-11 | 2026-08-31 04:52:23 | 47.80407 | 11.03966 | 85° | 75km/h | 1640m | 2.9m/s | 0°C | 0% | 0hPa | 0V | 00:00:00 | 01:00:28 | 00:00:00 | |
| DO3MHA-11 | 2026-08-31 04:52:13 | 47.80392 | 11.03689 | 87° | 73km/h | 1608m | 3.8m/s | 0°C | 0% | 0hPa | 0V | 00:00:00 | 01:00:18 | 00:00:00 |